<?xml version="1.0" encoding="UTF-8" standalone="no" ?>
<gpx xmlns="http://www.topografix.com/GPX/1/1" xmlns:xsi="http://www.w3.org/2001/XMLSchema-instance" xsi:schemaLocation="http://www.topografix.com/GPX/1/1 http://www.topografix.com/GPX/1/1/gpx.xsd" version="1.1" creator="VisuGPX - https://www.visugpx.com">
  <metadata>
    <name>Moucherotte par seyssins</name>
    <desc><![CDATA[Montée du moucherotte par seyssins]]></desc>
  </metadata>
  <trk>
    <name><![CDATA[Moucherotte par seyssins_1]]></name>
    <trkseg>
      <trkpt lat="45.16585" lon="5.6851">
        <ele>256</ele>
        <time>2014-06-28T06:13:53.375Z</time>
      </trkpt>
      <trkpt lat="45.16585" lon="5.6851">
        <ele>256</ele>
        <time>2014-06-28T06:13:54.000Z</time>
      </trkpt>
      <trkpt lat="45.16585" lon="5.6851">
        <ele>256</ele>
        <time>2014-06-28T06:13:55.000Z</time>
      </trkpt>
      <trkpt lat="45.16586" lon="5.6851">
        <ele>256</ele>
        <time>2014-06-28T06:13:56.000Z</time>
      </trkpt>
      <trkpt lat="45.16586" lon="5.6851">
        <ele>256</ele>
        <time>2014-06-28T06:13:57.000Z</time>
      </trkpt>
      <trkpt lat="45.16586" lon="5.6851">
        <ele>256</ele>
        <time>2014-06-28T06:13:58.000Z</time>
      </trkpt>
      <trkpt lat="45.16586" lon="5.68511">
        <ele>256</ele>
        <time>2014-06-28T06:13:59.000Z</time>
      </trkpt>
      <trkpt lat="45.16587" lon="5.68512">
        <ele>256</ele>
        <time>2014-06-28T06:14:00.000Z</time>
      </trkpt>
      <trkpt lat="45.16587" lon="5.68513">
        <ele>256</ele>
        <time>2014-06-28T06:14:01.000Z</time>
      </trkpt>
      <trkpt lat="45.16588" lon="5.68513">
        <ele>256</ele>
        <time>2014-06-28T06:14:02.000Z</time>
      </trkpt>
      <trkpt lat="45.16589" lon="5.68513">
        <ele>256</ele>
        <time>2014-06-28T06:14:03.000Z</time>
      </trkpt>
      <trkpt lat="45.16591" lon="5.68513">
        <ele>256</ele>
        <time>2014-06-28T06:14:04.000Z</time>
      </trkpt>
      <trkpt lat="45.16593" lon="5.68512">
        <ele>257</ele>
        <time>2014-06-28T06:14:05.000Z</time>
      </trkpt>
      <trkpt lat="45.16595" lon="5.68512">
        <ele>257</ele>
        <time>2014-06-28T06:14:06.000Z</time>
      </trkpt>
      <trkpt lat="45.16597" lon="5.68511">
        <ele>257</ele>
        <time>2014-06-28T06:14:07.000Z</time>
      </trkpt>
      <trkpt lat="45.166" lon="5.68509">
        <ele>257</ele>
        <time>2014-06-28T06:14:08.000Z</time>
      </trkpt>
      <trkpt lat="45.16602" lon="5.68508">
        <ele>257</ele>
        <time>2014-06-28T06:14:09.000Z</time>
      </trkpt>
      <trkpt lat="45.16604" lon="5.68505">
        <ele>257</ele>
        <time>2014-06-28T06:14:10.000Z</time>
      </trkpt>
      <trkpt lat="45.16605" lon="5.68503">
        <ele>257</ele>
        <time>2014-06-28T06:14:11.000Z</time>
      </trkpt>
      <trkpt lat="45.16606" lon="5.685">
        <ele>257</ele>
        <time>2014-06-28T06:14:12.000Z</time>
      </trkpt>
      <trkpt lat="45.16607" lon="5.68496">
        <ele>257</ele>
        <time>2014-06-28T06:14:13.000Z</time>
      </trkpt>
      <trkpt lat="45.16607" lon="5.68493">
        <ele>257</ele>
        <time>2014-06-28T06:14:14.000Z</time>
      </trkpt>
      <trkpt lat="45.16607" lon="5.68489">
        <ele>257</ele>
        <time>2014-06-28T06:14:15.000Z</time>
      </trkpt>
      <trkpt lat="45.16607" lon="5.68485">
        <ele>257</ele>
        <time>2014-06-28T06:14:16.000Z</time>
      </trkpt>
      <trkpt lat="45.16607" lon="5.68482">
        <ele>257</ele>
        <time>2014-06-28T06:14:17.000Z</time>
      </trkpt>
      <trkpt lat="45.16607" lon="5.68478">
        <ele>257</ele>
        <time>2014-06-28T06:14:18.000Z</time>
      </trkpt>
      <trkpt lat="45.16608" lon="5.68474">
        <ele>257</ele>
        <time>2014-06-28T06:14:19.000Z</time>
      </trkpt>
      <trkpt lat="45.16608" lon="5.68471">
        <ele>257</ele>
        <time>2014-06-28T06:14:20.000Z</time>
      </trkpt>
      <trkpt lat="45.16608" lon="5.68468">
        <ele>257</ele>
        <time>2014-06-28T06:14:21.000Z</time>
      </trkpt>
      <trkpt lat="45.16608" lon="5.68465">
        <ele>257</ele>
        <time>2014-06-28T06:14:22.000Z</time>
      </trkpt>
      <trkpt lat="45.16609" lon="5.68462">
        <ele>257</ele>
        <time>2014-06-28T06:14:23.000Z</time>
      </trkpt>
      <trkpt lat="45.16609" lon="5.68459">
        <ele>257</ele>
        <time>2014-06-28T06:14:24.000Z</time>
      </trkpt>
      <trkpt lat="45.16609" lon="5.68455">
        <ele>257</ele>
        <time>2014-06-28T06:14:25.000Z</time>
      </trkpt>
      <trkpt lat="45.1661" lon="5.68452">
        <ele>257</ele>
        <time>2014-06-28T06:14:26.000Z</time>
      </trkpt>
      <trkpt lat="45.1661" lon="5.68449">
        <ele>257</ele>
        <time>2014-06-28T06:14:27.000Z</time>
      </trkpt>
      <trkpt lat="45.1661" lon="5.68445">
        <ele>257</ele>
        <time>2014-06-28T06:14:28.000Z</time>
      </trkpt>
      <trkpt lat="45.16609" lon="5.68442">
        <ele>257</ele>
        <time>2014-06-28T06:14:29.000Z</time>
      </trkpt>
      <trkpt lat="45.16609" lon="5.68439">
        <ele>257</ele>
        <time>2014-06-28T06:14:30.000Z</time>
      </trkpt>
      <trkpt lat="45.16609" lon="5.68435">
        <ele>257</ele>
        <time>2014-06-28T06:14:31.000Z</time>
      </trkpt>
      <trkpt lat="45.1661" lon="5.68432">
        <ele>257</ele>
        <time>2014-06-28T06:14:32.000Z</time>
      </trkpt>
      <trkpt lat="45.16609" lon="5.68429">
        <ele>257</ele>
        <time>2014-06-28T06:14:33.000Z</time>
      </trkpt>
      <trkpt lat="45.1661" lon="5.68426">
        <ele>257</ele>
        <time>2014-06-28T06:14:34.000Z</time>
      </trkpt>
      <trkpt lat="45.1661" lon="5.68423">
        <ele>257</ele>
        <time>2014-06-28T06:14:35.000Z</time>
      </trkpt>
      <trkpt lat="45.1661" lon="5.6842">
        <ele>257</ele>
        <time>2014-06-28T06:14:36.000Z</time>
      </trkpt>
      <trkpt lat="45.1661" lon="5.68417">
        <ele>257</ele>
        <time>2014-06-28T06:14:37.000Z</time>
      </trkpt>
      <trkpt lat="45.1661" lon="5.68414">
        <ele>257</ele>
        <time>2014-06-28T06:14:38.000Z</time>
      </trkpt>
      <trkpt lat="45.1661" lon="5.68411">
        <ele>257</ele>
        <time>2014-06-28T06:14:39.000Z</time>
      </trkpt>
      <trkpt lat="45.16609" lon="5.68408">
        <ele>258</ele>
        <time>2014-06-28T06:14:40.000Z</time>
      </trkpt>
      <trkpt lat="45.16609" lon="5.68405">
        <ele>258</ele>
        <time>2014-06-28T06:14:41.000Z</time>
      </trkpt>
      <trkpt lat="45.16608" lon="5.68403">
        <ele>258</ele>
        <time>2014-06-28T06:14:42.000Z</time>
      </trkpt>
      <trkpt lat="45.16607" lon="5.68401">
        <ele>258</ele>
        <time>2014-06-28T06:14:43.000Z</time>
      </trkpt>
      <trkpt lat="45.16605" lon="5.684">
        <ele>258</ele>
        <time>2014-06-28T06:14:44.000Z</time>
      </trkpt>
      <trkpt lat="45.16604" lon="5.68399">
        <ele>258</ele>
        <time>2014-06-28T06:14:45.000Z</time>
      </trkpt>
      <trkpt lat="45.16602" lon="5.68399">
        <ele>259</ele>
        <time>2014-06-28T06:14:46.000Z</time>
      </trkpt>
      <trkpt lat="45.166" lon="5.68398">
        <ele>259</ele>
        <time>2014-06-28T06:14:47.000Z</time>
      </trkpt>
      <trkpt lat="45.16599" lon="5.68398">
        <ele>259</ele>
        <time>2014-06-28T06:14:48.000Z</time>
      </trkpt>
      <trkpt lat="45.16597" lon="5.68397">
        <ele>259</ele>
        <time>2014-06-28T06:14:49.000Z</time>
      </trkpt>
      <trkpt lat="45.16595" lon="5.68397">
        <ele>259</ele>
        <time>2014-06-28T06:14:50.000Z</time>
      </trkpt>
      <trkpt lat="45.16593" lon="5.68397">
        <ele>259</ele>
        <time>2014-06-28T06:14:51.000Z</time>
      </trkpt>
      <trkpt lat="45.16592" lon="5.68397">
        <ele>260</ele>
        <time>2014-06-28T06:14:52.000Z</time>
      </trkpt>
      <trkpt lat="45.1659" lon="5.68397">
        <ele>260</ele>
        <time>2014-06-28T06:14:53.000Z</time>
      </trkpt>
      <trkpt lat="45.16588" lon="5.68396">
        <ele>260</ele>
        <time>2014-06-28T06:14:54.000Z</time>
      </trkpt>
      <trkpt lat="45.16586" lon="5.68396">
        <ele>260</ele>
        <time>2014-06-28T06:14:55.000Z</time>
      </trkpt>
      <trkpt lat="45.16585" lon="5.68396">
        <ele>260</ele>
        <time>2014-06-28T06:14:56.000Z</time>
      </trkpt>
      <trkpt lat="45.16583" lon="5.68396">
        <ele>260</ele>
        <time>2014-06-28T06:14:57.000Z</time>
      </trkpt>
      <trkpt lat="45.16581" lon="5.68397">
        <ele>260</ele>
        <time>2014-06-28T06:14:58.000Z</time>
      </trkpt>
      <trkpt lat="45.16579" lon="5.68397">
        <ele>260</ele>
        <time>2014-06-28T06:14:59.000Z</time>
      </trkpt>
      <trkpt lat="45.16577" lon="5.68396">
        <ele>260</ele>
        <time>2014-06-28T06:15:00.000Z</time>
      </trkpt>
      <trkpt lat="45.16575" lon="5.68396">
        <ele>261</ele>
        <time>2014-06-28T06:15:01.000Z</time>
      </trkpt>
      <trkpt lat="45.16573" lon="5.68396">
        <ele>261</ele>
        <time>2014-06-28T06:15:02.000Z</time>
      </trkpt>
      <trkpt lat="45.16571" lon="5.68396">
        <ele>261</ele>
        <time>2014-06-28T06:15:03.000Z</time>
      </trkpt>
      <trkpt lat="45.16569" lon="5.68395">
        <ele>261</ele>
        <time>2014-06-28T06:15:04.000Z</time>
      </trkpt>
      <trkpt lat="45.16568" lon="5.68394">
        <ele>261</ele>
        <time>2014-06-28T06:15:05.000Z</time>
      </trkpt>
      <trkpt lat="45.16566" lon="5.68394">
        <ele>261</ele>
        <time>2014-06-28T06:15:06.000Z</time>
      </trkpt>
      <trkpt lat="45.16564" lon="5.68393">
        <ele>262</ele>
        <time>2014-06-28T06:15:07.000Z</time>
      </trkpt>
      <trkpt lat="45.16562" lon="5.68393">
        <ele>262</ele>
        <time>2014-06-28T06:15:08.000Z</time>
      </trkpt>
      <trkpt lat="45.16561" lon="5.68392">
        <ele>262</ele>
        <time>2014-06-28T06:15:09.000Z</time>
      </trkpt>
      <trkpt lat="45.16559" lon="5.68393">
        <ele>262</ele>
        <time>2014-06-28T06:15:10.000Z</time>
      </trkpt>
      <trkpt lat="45.16557" lon="5.68393">
        <ele>262</ele>
        <time>2014-06-28T06:15:11.000Z</time>
      </trkpt>
      <trkpt lat="45.16555" lon="5.68392">
        <ele>262</ele>
        <time>2014-06-28T06:15:12.000Z</time>
      </trkpt>
      <trkpt lat="45.16554" lon="5.68392">
        <ele>263</ele>
        <time>2014-06-28T06:15:13.000Z</time>
      </trkpt>
      <trkpt lat="45.16552" lon="5.68392">
        <ele>263</ele>
        <time>2014-06-28T06:15:14.000Z</time>
      </trkpt>
      <trkpt lat="45.1655" lon="5.68392">
        <ele>263</ele>
        <time>2014-06-28T06:15:15.000Z</time>
      </trkpt>
      <trkpt lat="45.16548" lon="5.68392">
        <ele>263</ele>
        <time>2014-06-28T06:15:16.000Z</time>
      </trkpt>
      <trkpt lat="45.16546" lon="5.68391">
        <ele>263</ele>
        <time>2014-06-28T06:15:17.000Z</time>
      </trkpt>
      <trkpt lat="45.16545" lon="5.68391">
        <ele>263</ele>
        <time>2014-06-28T06:15:18.000Z</time>
      </trkpt>
      <trkpt lat="45.16543" lon="5.6839">
        <ele>264</ele>
        <time>2014-06-28T06:15:19.000Z</time>
      </trkpt>
      <trkpt lat="45.16541" lon="5.6839">
        <ele>264</ele>
        <time>2014-06-28T06:15:20.000Z</time>
      </trkpt>
      <trkpt lat="45.16539" lon="5.6839">
        <ele>264</ele>
        <time>2014-06-28T06:15:21.000Z</time>
      </trkpt>
      <trkpt lat="45.16538" lon="5.68391">
        <ele>264</ele>
        <time>2014-06-28T06:15:22.000Z</time>
      </trkpt>
      <trkpt lat="45.16536" lon="5.68391">
        <ele>264</ele>
        <time>2014-06-28T06:15:23.000Z</time>
      </trkpt>
      <trkpt lat="45.16534" lon="5.68391">
        <ele>264</ele>
        <time>2014-06-28T06:15:24.000Z</time>
      </trkpt>
      <trkpt lat="45.16532" lon="5.6839">
        <ele>264</ele>
        <time>2014-06-28T06:15:25.000Z</time>
      </trkpt>
      <trkpt lat="45.1653" lon="5.6839">
        <ele>264</ele>
        <time>2014-06-28T06:15:26.000Z</time>
      </trkpt>
      <trkpt lat="45.16528" lon="5.6839">
        <ele>264</ele>
        <time>2014-06-28T06:15:27.000Z</time>
      </trkpt>
      <trkpt lat="45.16526" lon="5.68389">
        <ele>264</ele>
        <time>2014-06-28T06:15:28.000Z</time>
      </trkpt>
      <trkpt lat="45.16524" lon="5.68388">
        <ele>265</ele>
        <time>2014-06-28T06:15:29.000Z</time>
      </trkpt>
      <trkpt lat="45.16522" lon="5.68387">
        <ele>265</ele>
        <time>2014-06-28T06:15:30.000Z</time>
      </trkpt>
      <trkpt lat="45.1652" lon="5.68386">
        <ele>265</ele>
        <time>2014-06-28T06:15:31.000Z</time>
      </trkpt>
      <trkpt lat="45.16518" lon="5.68385">
        <ele>265</ele>
        <time>2014-06-28T06:15:32.000Z</time>
      </trkpt>
      <trkpt lat="45.16516" lon="5.68384">
        <ele>265</ele>
        <time>2014-06-28T06:15:33.000Z</time>
      </trkpt>
      <trkpt lat="45.16515" lon="5.68383">
        <ele>265</ele>
        <time>2014-06-28T06:15:34.000Z</time>
      </trkpt>
      <trkpt lat="45.16513" lon="5.68383">
        <ele>266</ele>
        <time>2014-06-28T06:15:35.000Z</time>
      </trkpt>
      <trkpt lat="45.16511" lon="5.68382">
        <ele>266</ele>
        <time>2014-06-28T06:15:36.000Z</time>
      </trkpt>
      <trkpt lat="45.16509" lon="5.68382">
        <ele>266</ele>
        <time>2014-06-28T06:15:37.000Z</time>
      </trkpt>
      <trkpt lat="45.16507" lon="5.68381">
        <ele>266</ele>
        <time>2014-06-28T06:15:38.000Z</time>
      </trkpt>
      <trkpt lat="45.16505" lon="5.68381">
        <ele>266</ele>
        <time>2014-06-28T06:15:39.000Z</time>
      </trkpt>
      <trkpt lat="45.16503" lon="5.68381">
        <ele>266</ele>
        <time>2014-06-28T06:15:40.000Z</time>
      </trkpt>
      <trkpt lat="45.16501" lon="5.6838">
        <ele>266</ele>
        <time>2014-06-28T06:15:41.000Z</time>
      </trkpt>
      <trkpt lat="45.16499" lon="5.68379">
        <ele>267</ele>
        <time>2014-06-28T06:15:42.000Z</time>
      </trkpt>
      <trkpt lat="45.16498" lon="5.68379">
        <ele>267</ele>
        <time>2014-06-28T06:15:43.000Z</time>
      </trkpt>
      <trkpt lat="45.16496" lon="5.68378">
        <ele>267</ele>
        <time>2014-06-28T06:15:44.000Z</time>
      </trkpt>
      <trkpt lat="45.16495" lon="5.68377">
        <ele>267</ele>
        <time>2014-06-28T06:15:45.000Z</time>
      </trkpt>
      <trkpt lat="45.16493" lon="5.68376">
        <ele>267</ele>
        <time>2014-06-28T06:15:46.000Z</time>
      </trkpt>
      <trkpt lat="45.16491" lon="5.68375">
        <ele>267</ele>
        <time>2014-06-28T06:15:47.000Z</time>
      </trkpt>
      <trkpt lat="45.1649" lon="5.68375">
        <ele>268</ele>
        <time>2014-06-28T06:15:48.000Z</time>
      </trkpt>
      <trkpt lat="45.16488" lon="5.68374">
        <ele>268</ele>
        <time>2014-06-28T06:15:49.000Z</time>
      </trkpt>
      <trkpt lat="45.16486" lon="5.68374">
        <ele>268</ele>
        <time>2014-06-28T06:15:50.000Z</time>
      </trkpt>
      <trkpt lat="45.16485" lon="5.68374">
        <ele>268</ele>
        <time>2014-06-28T06:15:51.000Z</time>
      </trkpt>
      <trkpt lat="45.16483" lon="5.68374">
        <ele>268</ele>
        <time>2014-06-28T06:15:52.000Z</time>
      </trkpt>
      <trkpt lat="45.16481" lon="5.68373">
        <ele>269</ele>
        <time>2014-06-28T06:15:53.000Z</time>
      </trkpt>
      <trkpt lat="45.1648" lon="5.68373">
        <ele>269</ele>
        <time>2014-06-28T06:15:54.000Z</time>
      </trkpt>
      <trkpt lat="45.16478" lon="5.68372">
        <ele>269</ele>
        <time>2014-06-28T06:15:55.000Z</time>
      </trkpt>
      <trkpt lat="45.16476" lon="5.68371">
        <ele>269</ele>
        <time>2014-06-28T06:15:56.000Z</time>
      </trkpt>
      <trkpt lat="45.16474" lon="5.6837">
        <ele>269</ele>
        <time>2014-06-28T06:15:57.000Z</time>
      </trkpt>
      <trkpt lat="45.16473" lon="5.68369">
        <ele>270</ele>
        <time>2014-06-28T06:15:58.000Z</time>
      </trkpt>
      <trkpt lat="45.16471" lon="5.68368">
        <ele>270</ele>
        <time>2014-06-28T06:15:59.000Z</time>
      </trkpt>
      <trkpt lat="45.16469" lon="5.68366">
        <ele>270</ele>
        <time>2014-06-28T06:16:00.000Z</time>
      </trkpt>
      <trkpt lat="45.16467" lon="5.68365">
        <ele>271</ele>
        <time>2014-06-28T06:16:01.000Z</time>
      </trkpt>
      <trkpt lat="45.16466" lon="5.68364">
        <ele>271</ele>
        <time>2014-06-28T06:16:02.000Z</time>
      </trkpt>
      <trkpt lat="45.16465" lon="5.68363">
        <ele>271</ele>
        <time>2014-06-28T06:16:03.000Z</time>
      </trkpt>
      <trkpt lat="45.16463" lon="5.68362">
        <ele>271</ele>
        <time>2014-06-28T06:16:04.000Z</time>
      </trkpt>
      <trkpt lat="45.16461" lon="5.68361">
        <ele>272</ele>
        <time>2014-06-28T06:16:05.000Z</time>
      </trkpt>
      <trkpt lat="45.16459" lon="5.6836">
        <ele>272</ele>
        <time>2014-06-28T06:16:06.000Z</time>
      </trkpt>
      <trkpt lat="45.16458" lon="5.6836">
        <ele>272</ele>
        <time>2014-06-28T06:16:07.000Z</time>
      </trkpt>
      <trkpt lat="45.16456" lon="5.6836">
        <ele>272</ele>
        <time>2014-06-28T06:16:08.000Z</time>
      </trkpt>
      <trkpt lat="45.16454" lon="5.68359">
        <ele>272</ele>
        <time>2014-06-28T06:16:09.000Z</time>
      </trkpt>
      <trkpt lat="45.16452" lon="5.68358">
        <ele>272</ele>
        <time>2014-06-28T06:16:10.000Z</time>
      </trkpt>
      <trkpt lat="45.1645" lon="5.68358">
        <ele>273</ele>
        <time>2014-06-28T06:16:11.000Z</time>
      </trkpt>
      <trkpt lat="45.16449" lon="5.68357">
        <ele>273</ele>
        <time>2014-06-28T06:16:12.000Z</time>
      </trkpt>
      <trkpt lat="45.16447" lon="5.68357">
        <ele>273</ele>
        <time>2014-06-28T06:16:13.000Z</time>
      </trkpt>
      <trkpt lat="45.16445" lon="5.68357">
        <ele>273</ele>
        <time>2014-06-28T06:16:14.000Z</time>
      </trkpt>
      <trkpt lat="45.16443" lon="5.68357">
        <ele>273</ele>
        <time>2014-06-28T06:16:15.000Z</time>
      </trkpt>
      <trkpt lat="45.16441" lon="5.68357">
        <ele>273</ele>
        <time>2014-06-28T06:16:16.000Z</time>
      </trkpt>
      <trkpt lat="45.16439" lon="5.68357">
        <ele>273</ele>
        <time>2014-06-28T06:16:17.000Z</time>
      </trkpt>
      <trkpt lat="45.16437" lon="5.68356">
        <ele>273</ele>
        <time>2014-06-28T06:16:18.000Z</time>
      </trkpt>
      <trkpt lat="45.16435" lon="5.68356">
        <ele>274</ele>
        <time>2014-06-28T06:16:19.000Z</time>
      </trkpt>
      <trkpt lat="45.16433" lon="5.68356">
        <ele>274</ele>
        <time>2014-06-28T06:16:20.000Z</time>
      </trkpt>
      <trkpt lat="45.16431" lon="5.68356">
        <ele>274</ele>
        <time>2014-06-28T06:16:21.000Z</time>
      </trkpt>
      <trkpt lat="45.16429" lon="5.68356">
        <ele>274</ele>
        <time>2014-06-28T06:16:22.000Z</time>
      </trkpt>
      <trkpt lat="45.16428" lon="5.68356">
        <ele>274</ele>
        <time>2014-06-28T06:16:23.000Z</time>
      </trkpt>
      <trkpt lat="45.16426" lon="5.68356">
        <ele>274</ele>
        <time>2014-06-28T06:16:24.000Z</time>
      </trkpt>
      <trkpt lat="45.16424" lon="5.68356">
        <ele>274</ele>
        <time>2014-06-28T06:16:25.000Z</time>
      </trkpt>
      <trkpt lat="45.16422" lon="5.68356">
        <ele>275</ele>
        <time>2014-06-28T06:16:26.000Z</time>
      </trkpt>
      <trkpt lat="45.16421" lon="5.68355">
        <ele>275</ele>
        <time>2014-06-28T06:16:27.000Z</time>
      </trkpt>
      <trkpt lat="45.16419" lon="5.68355">
        <ele>275</ele>
        <time>2014-06-28T06:16:28.000Z</time>
      </trkpt>
      <trkpt lat="45.16418" lon="5.68355">
        <ele>275</ele>
        <time>2014-06-28T06:16:29.000Z</time>
      </trkpt>
      <trkpt lat="45.16416" lon="5.68355">
        <ele>275</ele>
        <time>2014-06-28T06:16:30.000Z</time>
      </trkpt>
      <trkpt lat="45.16415" lon="5.68355">
        <ele>275</ele>
        <time>2014-06-28T06:16:31.000Z</time>
      </trkpt>
      <trkpt lat="45.16413" lon="5.68355">
        <ele>275</ele>
        <time>2014-06-28T06:16:32.000Z</time>
      </trkpt>
      <trkpt lat="45.16411" lon="5.68354">
        <ele>275</ele>
        <time>2014-06-28T06:16:33.000Z</time>
      </trkpt>
      <trkpt lat="45.16409" lon="5.68354">
        <ele>275</ele>
        <time>2014-06-28T06:16:34.000Z</time>
      </trkpt>
      <trkpt lat="45.16408" lon="5.68353">
        <ele>275</ele>
        <time>2014-06-28T06:16:35.000Z</time>
      </trkpt>
      <trkpt lat="45.16406" lon="5.68353">
        <ele>276</ele>
        <time>2014-06-28T06:16:36.000Z</time>
      </trkpt>
      <trkpt lat="45.16405" lon="5.68352">
        <ele>276</ele>
        <time>2014-06-28T06:16:37.000Z</time>
      </trkpt>
      <trkpt lat="45.16403" lon="5.68352">
        <ele>276</ele>
        <time>2014-06-28T06:16:38.000Z</time>
      </trkpt>
      <trkpt lat="45.16401" lon="5.68352">
        <ele>276</ele>
        <time>2014-06-28T06:16:39.000Z</time>
      </trkpt>
      <trkpt lat="45.164" lon="5.68352">
        <ele>276</ele>
        <time>2014-06-28T06:16:40.000Z</time>
      </trkpt>
      <trkpt lat="45.16398" lon="5.68352">
        <ele>276</ele>
        <time>2014-06-28T06:16:41.000Z</time>
      </trkpt>
      <trkpt lat="45.16396" lon="5.68353">
        <ele>276</ele>
        <time>2014-06-28T06:16:42.000Z</time>
      </trkpt>
      <trkpt lat="45.16394" lon="5.68353">
        <ele>276</ele>
        <time>2014-06-28T06:16:43.000Z</time>
      </trkpt>
      <trkpt lat="45.16392" lon="5.68354">
        <ele>276</ele>
        <time>2014-06-28T06:16:44.000Z</time>
      </trkpt>
      <trkpt lat="45.1639" lon="5.68354">
        <ele>276</ele>
        <time>2014-06-28T06:16:45.000Z</time>
      </trkpt>
      <trkpt lat="45.16388" lon="5.68354">
        <ele>276</ele>
        <time>2014-06-28T06:16:46.000Z</time>
      </trkpt>
      <trkpt lat="45.16386" lon="5.68354">
        <ele>277</ele>
        <time>2014-06-28T06:16:47.000Z</time>
      </trkpt>
      <trkpt lat="45.16384" lon="5.68354">
        <ele>277</ele>
        <time>2014-06-28T06:16:48.000Z</time>
      </trkpt>
      <trkpt lat="45.16382" lon="5.68354">
        <ele>277</ele>
        <time>2014-06-28T06:16:49.000Z</time>
      </trkpt>
      <trkpt lat="45.1638" lon="5.68355">
        <ele>277</ele>
        <time>2014-06-28T06:16:50.000Z</time>
      </trkpt>
      <trkpt lat="45.16378" lon="5.68355">
        <ele>278</ele>
        <time>2014-06-28T06:16:51.000Z</time>
      </trkpt>
      <trkpt lat="45.16376" lon="5.68355">
        <ele>278</ele>
        <time>2014-06-28T06:16:52.000Z</time>
      </trkpt>
      <trkpt lat="45.16374" lon="5.68355">
        <ele>278</ele>
        <time>2014-06-28T06:16:53.000Z</time>
      </trkpt>
      <trkpt lat="45.16373" lon="5.68355">
        <ele>279</ele>
        <time>2014-06-28T06:16:54.000Z</time>
      </trkpt>
      <trkpt lat="45.16371" lon="5.68355">
        <ele>279</ele>
        <time>2014-06-28T06:16:55.000Z</time>
      </trkpt>
      <trkpt lat="45.16369" lon="5.68355">
        <ele>279</ele>
        <time>2014-06-28T06:16:56.000Z</time>
      </trkpt>
      <trkpt lat="45.16366" lon="5.68356">
        <ele>279</ele>
        <time>2014-06-28T06:16:57.000Z</time>
      </trkpt>
      <trkpt lat="45.16365" lon="5.68356">
        <ele>280</ele>
        <time>2014-06-28T06:16:58.000Z</time>
      </trkpt>
      <trkpt lat="45.16363" lon="5.68356">
        <ele>280</ele>
        <time>2014-06-28T06:16:59.000Z</time>
      </trkpt>
      <trkpt lat="45.16361" lon="5.68357">
        <ele>280</ele>
        <time>2014-06-28T06:17:00.000Z</time>
      </trkpt>
      <trkpt lat="45.16359" lon="5.68357">
        <ele>280</ele>
        <time>2014-06-28T06:17:01.000Z</time>
      </trkpt>
      <trkpt lat="45.16357" lon="5.68357">
        <ele>281</ele>
        <time>2014-06-28T06:17:02.000Z</time>
      </trkpt>
      <trkpt lat="45.16355" lon="5.68358">
        <ele>281</ele>
        <time>2014-06-28T06:17:03.000Z</time>
      </trkpt>
      <trkpt lat="45.16354" lon="5.68358">
        <ele>281</ele>
        <time>2014-06-28T06:17:04.000Z</time>
      </trkpt>
      <trkpt lat="45.16352" lon="5.68358">
        <ele>282</ele>
        <time>2014-06-28T06:17:05.000Z</time>
      </trkpt>
      <trkpt lat="45.1635" lon="5.68359">
        <ele>282</ele>
        <time>2014-06-28T06:17:06.000Z</time>
      </trkpt>
      <trkpt lat="45.16348" lon="5.68359">
        <ele>282</ele>
        <time>2014-06-28T06:17:07.000Z</time>
      </trkpt>
      <trkpt lat="45.16347" lon="5.6836">
        <ele>282</ele>
        <time>2014-06-28T06:17:08.000Z</time>
      </trkpt>
      <trkpt lat="45.16345" lon="5.68361">
        <ele>282</ele>
        <time>2014-06-28T06:17:09.000Z</time>
      </trkpt>
      <trkpt lat="45.16343" lon="5.68361">
        <ele>282</ele>
        <time>2014-06-28T06:17:10.000Z</time>
      </trkpt>
      <trkpt lat="45.16341" lon="5.68362">
        <ele>282</ele>
        <time>2014-06-28T06:17:11.000Z</time>
      </trkpt>
      <trkpt lat="45.16339" lon="5.68363">
        <ele>283</ele>
        <time>2014-06-28T06:17:12.000Z</time>
      </trkpt>
      <trkpt lat="45.16337" lon="5.68363">
        <ele>283</ele>
        <time>2014-06-28T06:17:13.000Z</time>
      </trkpt>
      <trkpt lat="45.16336" lon="5.68364">
        <ele>283</ele>
        <time>2014-06-28T06:17:14.000Z</time>
      </trkpt>
      <trkpt lat="45.16334" lon="5.68366">
        <ele>283</ele>
        <time>2014-06-28T06:17:15.000Z</time>
      </trkpt>
      <trkpt lat="45.16332" lon="5.68368">
        <ele>284</ele>
        <time>2014-06-28T06:17:16.000Z</time>
      </trkpt>
      <trkpt lat="45.1633" lon="5.6837">
        <ele>284</ele>
        <time>2014-06-28T06:17:17.000Z</time>
      </trkpt>
      <trkpt lat="45.16329" lon="5.68372">
        <ele>284</ele>
        <time>2014-06-28T06:17:18.000Z</time>
      </trkpt>
      <trkpt lat="45.16327" lon="5.68375">
        <ele>284</ele>
        <time>2014-06-28T06:17:19.000Z</time>
      </trkpt>
      <trkpt lat="45.16326" lon="5.68378">
        <ele>285</ele>
        <time>2014-06-28T06:17:20.000Z</time>
      </trkpt>
      <trkpt lat="45.16325" lon="5.68381">
        <ele>285</ele>
        <time>2014-06-28T06:17:21.000Z</time>
      </trkpt>
      <trkpt lat="45.16324" lon="5.68384">
        <ele>285</ele>
        <time>2014-06-28T06:17:22.000Z</time>
      </trkpt>
      <trkpt lat="45.16323" lon="5.68387">
        <ele>285</ele>
        <time>2014-06-28T06:17:23.000Z</time>
      </trkpt>
      <trkpt lat="45.16322" lon="5.68389">
        <ele>285</ele>
        <time>2014-06-28T06:17:24.000Z</time>
      </trkpt>
      <trkpt lat="45.16322" lon="5.68392">
        <ele>286</ele>
        <time>2014-06-28T06:17:25.000Z</time>
      </trkpt>
      <trkpt lat="45.16321" lon="5.68395">
        <ele>286</ele>
        <time>2014-06-28T06:17:26.000Z</time>
      </trkpt>
      <trkpt lat="45.1632" lon="5.68398">
        <ele>286</ele>
        <time>2014-06-28T06:17:27.000Z</time>
      </trkpt>
      <trkpt lat="45.16319" lon="5.68401">
        <ele>286</ele>
        <time>2014-06-28T06:17:28.000Z</time>
      </trkpt>
      <trkpt lat="45.16318" lon="5.68403">
        <ele>286</ele>
        <time>2014-06-28T06:17:29.000Z</time>
      </trkpt>
      <trkpt lat="45.16317" lon="5.68406">
        <ele>286</ele>
        <time>2014-06-28T06:17:30.000Z</time>
      </trkpt>
      <trkpt lat="45.16316" lon="5.68408">
        <ele>286</ele>
        <time>2014-06-28T06:17:31.000Z</time>
      </trkpt>
      <trkpt lat="45.16315" lon="5.68411">
        <ele>287</ele>
        <time>2014-06-28T06:17:32.000Z</time>
      </trkpt>
      <trkpt lat="45.16314" lon="5.68414">
        <ele>287</ele>
        <time>2014-06-28T06:17:33.000Z</time>
      </trkpt>
      <trkpt lat="45.16313" lon="5.68417">
        <ele>287</ele>
        <time>2014-06-28T06:17:34.000Z</time>
      </trkpt>
      <trkpt lat="45.16312" lon="5.68421">
        <ele>287</ele>
        <time>2014-06-28T06:17:35.000Z</time>
      </trkpt>
      <trkpt lat="45.16311" lon="5.68424">
        <ele>287</ele>
        <time>2014-06-28T06:17:36.000Z</time>
      </trkpt>
      <trkpt lat="45.16309" lon="5.68427">
        <ele>287</ele>
        <time>2014-06-28T06:17:37.000Z</time>
      </trkpt>
      <trkpt lat="45.16308" lon="5.6843">
        <ele>287</ele>
        <time>2014-06-28T06:17:38.000Z</time>
      </trkpt>
      <trkpt lat="45.16307" lon="5.68433">
        <ele>287</ele>
        <time>2014-06-28T06:17:39.000Z</time>
      </trkpt>
      <trkpt lat="45.16305" lon="5.68436">
        <ele>288</ele>
        <time>2014-06-28T06:17:40.000Z</time>
      </trkpt>
      <trkpt lat="45.16303" lon="5.68439">
        <ele>288</ele>
        <time>2014-06-28T06:17:41.000Z</time>
      </trkpt>
      <trkpt lat="45.16301" lon="5.68441">
        <ele>288</ele>
        <time>2014-06-28T06:17:42.000Z</time>
      </trkpt>
      <trkpt lat="45.163" lon="5.68443">
        <ele>288</ele>
        <time>2014-06-28T06:17:43.000Z</time>
      </trkpt>
      <trkpt lat="45.16298" lon="5.68445">
        <ele>288</ele>
        <time>2014-06-28T06:17:44.000Z</time>
      </trkpt>
      <trkpt lat="45.16296" lon="5.68447">
        <ele>288</ele>
        <time>2014-06-28T06:17:45.000Z</time>
      </trkpt>
      <trkpt lat="45.16294" lon="5.68449">
        <ele>288</ele>
        <time>2014-06-28T06:17:46.000Z</time>
      </trkpt>
      <trkpt lat="45.16293" lon="5.68452">
        <ele>288</ele>
        <time>2014-06-28T06:17:47.000Z</time>
      </trkpt>
      <trkpt lat="45.16291" lon="5.68454">
        <ele>288</ele>
        <time>2014-06-28T06:17:48.000Z</time>
      </trkpt>
      <trkpt lat="45.1629" lon="5.68456">
        <ele>288</ele>
        <time>2014-06-28T06:17:49.000Z</time>
      </trkpt>
      <trkpt lat="45.16288" lon="5.68458">
        <ele>288</ele>
        <time>2014-06-28T06:17:50.000Z</time>
      </trkpt>
      <trkpt lat="45.16286" lon="5.6846">
        <ele>288</ele>
        <time>2014-06-28T06:17:51.000Z</time>
      </trkpt>
      <trkpt lat="45.16284" lon="5.68461">
        <ele>288</ele>
        <time>2014-06-28T06:17:52.000Z</time>
      </trkpt>
      <trkpt lat="45.16282" lon="5.6846">
        <ele>288</ele>
        <time>2014-06-28T06:17:53.000Z</time>
      </trkpt>
      <trkpt lat="45.16281" lon="5.68459">
        <ele>288</ele>
        <time>2014-06-28T06:17:54.000Z</time>
      </trkpt>
      <trkpt lat="45.1628" lon="5.68457">
        <ele>288</ele>
        <time>2014-06-28T06:17:55.000Z</time>
      </trkpt>
      <trkpt lat="45.16279" lon="5.68456">
        <ele>289</ele>
        <time>2014-06-28T06:17:56.000Z</time>
      </trkpt>
      <trkpt lat="45.16278" lon="5.68454">
        <ele>289</ele>
        <time>2014-06-28T06:17:57.000Z</time>
      </trkpt>
      <trkpt lat="45.16277" lon="5.68453">
        <ele>289</ele>
        <time>2014-06-28T06:17:58.000Z</time>
      </trkpt>
      <trkpt lat="45.16275" lon="5.68452">
        <ele>289</ele>
        <time>2014-06-28T06:17:59.000Z</time>
      </trkpt>
      <trkpt lat="45.16274" lon="5.68451">
        <ele>289</ele>
        <time>2014-06-28T06:18:00.000Z</time>
      </trkpt>
      <trkpt lat="45.16273" lon="5.68451">
        <ele>289</ele>
        <time>2014-06-28T06:18:01.000Z</time>
      </trkpt>
      <trkpt lat="45.16273" lon="5.6845">
        <ele>289</ele>
        <time>2014-06-28T06:18:02.000Z</time>
      </trkpt>
      <trkpt lat="45.16272" lon="5.6845">
        <ele>289</ele>
        <time>2014-06-28T06:18:03.000Z</time>
      </trkpt>
      <trkpt lat="45.1627" lon="5.68449">
        <ele>289</ele>
        <time>2014-06-28T06:18:04.000Z</time>
      </trkpt>
      <trkpt lat="45.16269" lon="5.68448">
        <ele>289</ele>
        <time>2014-06-28T06:18:05.000Z</time>
      </trkpt>
      <trkpt lat="45.16269" lon="5.68447">
        <ele>289</ele>
        <time>2014-06-28T06:18:06.000Z</time>
      </trkpt>
      <trkpt lat="45.16268" lon="5.68446">
        <ele>289</ele>
        <time>2014-06-28T06:18:07.000Z</time>
      </trkpt>
      <trkpt lat="45.16267" lon="5.68444">
        <ele>289</ele>
        <time>2014-06-28T06:18:08.000Z</time>
      </trkpt>
      <trkpt lat="45.16265" lon="5.68442">
        <ele>289</ele>
        <time>2014-06-28T06:18:09.000Z</time>
      </trkpt>
      <trkpt lat="45.16264" lon="5.6844">
        <ele>290</ele>
        <time>2014-06-28T06:18:10.000Z</time>
      </trkpt>
      <trkpt lat="45.16262" lon="5.68439">
        <ele>290</ele>
        <time>2014-06-28T06:18:11.000Z</time>
      </trkpt>
      <trkpt lat="45.1626" lon="5.68437">
        <ele>290</ele>
        <time>2014-06-28T06:18:12.000Z</time>
      </trkpt>
      <trkpt lat="45.16259" lon="5.68435">
        <ele>290</ele>
        <time>2014-06-28T06:18:13.000Z</time>
      </trkpt>
      <trkpt lat="45.16257" lon="5.68433">
        <ele>290</ele>
        <time>2014-06-28T06:18:14.000Z</time>
      </trkpt>
      <trkpt lat="45.16256" lon="5.68431">
        <ele>291</ele>
        <time>2014-06-28T06:18:15.000Z</time>
      </trkpt>
      <trkpt lat="45.16255" lon="5.68429">
        <ele>291</ele>
        <time>2014-06-28T06:18:16.000Z</time>
      </trkpt>
      <trkpt lat="45.16254" lon="5.68426">
        <ele>291</ele>
        <time>2014-06-28T06:18:17.000Z</time>
      </trkpt>
      <trkpt lat="45.16255" lon="5.68423">
        <ele>291</ele>
        <time>2014-06-28T06:18:18.000Z</time>
      </trkpt>
      <trkpt lat="45.16255" lon="5.6842">
        <ele>291</ele>
        <time>2014-06-28T06:18:19.000Z</time>
      </trkpt>
      <trkpt lat="45.16255" lon="5.68416">
        <ele>291</ele>
        <time>2014-06-28T06:18:20.000Z</time>
      </trkpt>
      <trkpt lat="45.16256" lon="5.68413">
        <ele>291</ele>
        <time>2014-06-28T06:18:21.000Z</time>
      </trkpt>
      <trkpt lat="45.16256" lon="5.6841">
        <ele>292</ele>
        <time>2014-06-28T06:18:22.000Z</time>
      </trkpt>
      <trkpt lat="45.16257" lon="5.68407">
        <ele>292</ele>
        <time>2014-06-28T06:18:23.000Z</time>
      </trkpt>
      <trkpt lat="45.16257" lon="5.68404">
        <ele>292</ele>
        <time>2014-06-28T06:18:24.000Z</time>
      </trkpt>
      <trkpt lat="45.16258" lon="5.68401">
        <ele>292</ele>
        <time>2014-06-28T06:18:25.000Z</time>
      </trkpt>
      <trkpt lat="45.16259" lon="5.68398">
        <ele>292</ele>
        <time>2014-06-28T06:18:26.000Z</time>
      </trkpt>
      <trkpt lat="45.1626" lon="5.68395">
        <ele>292</ele>
        <time>2014-06-28T06:18:27.000Z</time>
      </trkpt>
      <trkpt lat="45.16261" lon="5.68393">
        <ele>292</ele>
        <time>2014-06-28T06:18:28.000Z</time>
      </trkpt>
      <trkpt lat="45.16262" lon="5.6839">
        <ele>292</ele>
        <time>2014-06-28T06:18:29.000Z</time>
      </trkpt>
      <trkpt lat="45.16262" lon="5.68388">
        <ele>292</ele>
        <time>2014-06-28T06:18:30.000Z</time>
      </trkpt>
      <trkpt lat="45.16263" lon="5.68385">
        <ele>292</ele>
        <time>2014-06-28T06:18:31.000Z</time>
      </trkpt>
      <trkpt lat="45.16263" lon="5.68382">
        <ele>292</ele>
        <time>2014-06-28T06:18:32.000Z</time>
      </trkpt>
      <trkpt lat="45.16263" lon="5.6838">
        <ele>292</ele>
        <time>2014-06-28T06:18:33.000Z</time>
      </trkpt>
      <trkpt lat="45.16263" lon="5.68377">
        <ele>292</ele>
        <time>2014-06-28T06:18:34.000Z</time>
      </trkpt>
      <trkpt lat="45.16263" lon="5.68374">
        <ele>292</ele>
        <time>2014-06-28T06:18:35.000Z</time>
      </trkpt>
      <trkpt lat="45.16263" lon="5.68372">
        <ele>293</ele>
        <time>2014-06-28T06:18:36.000Z</time>
      </trkpt>
      <trkpt lat="45.16263" lon="5.68369">
        <ele>293</ele>
        <time>2014-06-28T06:18:37.000Z</time>
      </trkpt>
      <trkpt lat="45.16262" lon="5.68367">
        <ele>293</ele>
        <time>2014-06-28T06:18:38.000Z</time>
      </trkpt>
      <trkpt lat="45.16261" lon="5.68365">
        <ele>293</ele>
        <time>2014-06-28T06:18:39.000Z</time>
      </trkpt>
      <trkpt lat="45.1626" lon="5.68363">
        <ele>293</ele>
        <time>2014-06-28T06:18:40.000Z</time>
      </trkpt>
      <trkpt lat="45.1626" lon="5.68361">
        <ele>294</ele>
        <time>2014-06-28T06:18:41.000Z</time>
      </trkpt>
      <trkpt lat="45.1626" lon="5.68358">
        <ele>294</ele>
        <time>2014-06-28T06:18:42.000Z</time>
      </trkpt>
      <trkpt lat="45.16259" lon="5.68356">
        <ele>294</ele>
        <time>2014-06-28T06:18:43.000Z</time>
      </trkpt>
      <trkpt lat="45.16258" lon="5.68354">
        <ele>294</ele>
        <time>2014-06-28T06:18:44.000Z</time>
      </trkpt>
      <trkpt lat="45.16257" lon="5.68351">
        <ele>294</ele>
        <time>2014-06-28T06:18:45.000Z</time>
      </trkpt>
      <trkpt lat="45.16257" lon="5.68349">
        <ele>295</ele>
        <time>2014-06-28T06:18:46.000Z</time>
      </trkpt>
      <trkpt lat="45.16256" lon="5.68346">
        <ele>295</ele>
        <time>2014-06-28T06:18:47.000Z</time>
      </trkpt>
      <trkpt lat="45.16256" lon="5.68343">
        <ele>295</ele>
        <time>2014-06-28T06:18:48.000Z</time>
      </trkpt>
      <trkpt lat="45.16256" lon="5.68341">
        <ele>295</ele>
        <time>2014-06-28T06:18:49.000Z</time>
      </trkpt>
      <trkpt lat="45.16256" lon="5.68338">
        <ele>296</ele>
        <time>2014-06-28T06:18:50.000Z</time>
      </trkpt>
      <trkpt lat="45.16256" lon="5.68335">
        <ele>296</ele>
        <time>2014-06-28T06:18:51.000Z</time>
      </trkpt>
      <trkpt lat="45.16255" lon="5.68333">
        <ele>296</ele>
        <time>2014-06-28T06:18:52.000Z</time>
      </trkpt>
      <trkpt lat="45.16254" lon="5.68331">
        <ele>296</ele>
        <time>2014-06-28T06:18:53.000Z</time>
      </trkpt>
      <trkpt lat="45.16253" lon="5.68329">
        <ele>297</ele>
        <time>2014-06-28T06:18:54.000Z</time>
      </trkpt>
      <trkpt lat="45.16252" lon="5.68327">
        <ele>297</ele>
        <time>2014-06-28T06:18:55.000Z</time>
      </trkpt>
      <trkpt lat="45.1625" lon="5.68325">
        <ele>297</ele>
        <time>2014-06-28T06:18:56.000Z</time>
      </trkpt>
      <trkpt lat="45.16249" lon="5.68324">
        <ele>297</ele>
        <time>2014-06-28T06:18:57.000Z</time>
      </trkpt>
      <trkpt lat="45.16247" lon="5.68322">
        <ele>297</ele>
        <time>2014-06-28T06:18:58.000Z</time>
      </trkpt>
      <trkpt lat="45.16245" lon="5.6832">
        <ele>297</ele>
        <time>2014-06-28T06:18:59.000Z</time>
      </trkpt>
      <trkpt lat="45.16244" lon="5.68319">
        <ele>298</ele>
        <time>2014-06-28T06:19:00.000Z</time>
      </trkpt>
      <trkpt lat="45.16242" lon="5.68317">
        <ele>298</ele>
        <time>2014-06-28T06:19:01.000Z</time>
      </trkpt>
      <trkpt lat="45.16241" lon="5.68316">
        <ele>298</ele>
        <time>2014-06-28T06:19:02.000Z</time>
      </trkpt>
      <trkpt lat="45.1624" lon="5.68315">
        <ele>298</ele>
        <time>2014-06-28T06:19:03.000Z</time>
      </trkpt>
      <trkpt lat="45.16238" lon="5.68314">
        <ele>298</ele>
        <time>2014-06-28T06:19:04.000Z</time>
      </trkpt>
      <trkpt lat="45.16237" lon="5.68313">
        <ele>299</ele>
        <time>2014-06-28T06:19:05.000Z</time>
      </trkpt>
      <trkpt lat="45.16235" lon="5.68312">
        <ele>299</ele>
        <time>2014-06-28T06:19:06.000Z</time>
      </trkpt>
      <trkpt lat="45.16234" lon="5.68311">
        <ele>299</ele>
        <time>2014-06-28T06:19:07.000Z</time>
      </trkpt>
      <trkpt lat="45.16232" lon="5.6831">
        <ele>299</ele>
        <time>2014-06-28T06:19:08.000Z</time>
      </trkpt>
      <trkpt lat="45.16231" lon="5.6831">
        <ele>299</ele>
        <time>2014-06-28T06:19:09.000Z</time>
      </trkpt>
      <trkpt lat="45.16229" lon="5.68309">
        <ele>299</ele>
        <time>2014-06-28T06:19:10.000Z</time>
      </trkpt>
      <trkpt lat="45.16227" lon="5.68308">
        <ele>300</ele>
        <time>2014-06-28T06:19:11.000Z</time>
      </trkpt>
      <trkpt lat="45.16226" lon="5.68307">
        <ele>300</ele>
        <time>2014-06-28T06:19:12.000Z</time>
      </trkpt>
      <trkpt lat="45.16225" lon="5.68305">
        <ele>300</ele>
        <time>2014-06-28T06:19:13.000Z</time>
      </trkpt>
      <trkpt lat="45.16223" lon="5.68304">
        <ele>300</ele>
        <time>2014-06-28T06:19:14.000Z</time>
      </trkpt>
      <trkpt lat="45.16221" lon="5.68303">
        <ele>300</ele>
        <time>2014-06-28T06:19:15.000Z</time>
      </trkpt>
      <trkpt lat="45.1622" lon="5.68302">
        <ele>300</ele>
        <time>2014-06-28T06:19:16.000Z</time>
      </trkpt>
      <trkpt lat="45.16218" lon="5.68301">
        <ele>301</ele>
        <time>2014-06-28T06:19:17.000Z</time>
      </trkpt>
      <trkpt lat="45.16216" lon="5.683">
        <ele>301</ele>
        <time>2014-06-28T06:19:18.000Z</time>
      </trkpt>
      <trkpt lat="45.16215" lon="5.68299">
        <ele>301</ele>
        <time>2014-06-28T06:19:19.000Z</time>
      </trkpt>
      <trkpt lat="45.16214" lon="5.68299">
        <ele>301</ele>
        <time>2014-06-28T06:19:20.000Z</time>
      </trkpt>
      <trkpt lat="45.16212" lon="5.68297">
        <ele>302</ele>
        <time>2014-06-28T06:19:21.000Z</time>
      </trkpt>
      <trkpt lat="45.16211" lon="5.68296">
        <ele>302</ele>
        <time>2014-06-28T06:19:22.000Z</time>
      </trkpt>
      <trkpt lat="45.1621" lon="5.68295">
        <ele>302</ele>
        <time>2014-06-28T06:19:23.000Z</time>
      </trkpt>
      <trkpt lat="45.16208" lon="5.68294">
        <ele>303</ele>
        <time>2014-06-28T06:19:24.000Z</time>
      </trkpt>
      <trkpt lat="45.16207" lon="5.68294">
        <ele>303</ele>
        <time>2014-06-28T06:19:25.000Z</time>
      </trkpt>
      <trkpt lat="45.16205" lon="5.68293">
        <ele>303</ele>
        <time>2014-06-28T06:19:26.000Z</time>
      </trkpt>
      <trkpt lat="45.16204" lon="5.68292">
        <ele>303</ele>
        <time>2014-06-28T06:19:27.000Z</time>
      </trkpt>
      <trkpt lat="45.16203" lon="5.68291">
        <ele>304</ele>
        <time>2014-06-28T06:19:28.000Z</time>
      </trkpt>
      <trkpt lat="45.16201" lon="5.68289">
        <ele>304</ele>
        <time>2014-06-28T06:19:29.000Z</time>
      </trkpt>
      <trkpt lat="45.16199" lon="5.68289">
        <ele>304</ele>
        <time>2014-06-28T06:19:30.000Z</time>
      </trkpt>
      <trkpt lat="45.16198" lon="5.68288">
        <ele>304</ele>
        <time>2014-06-28T06:19:31.000Z</time>
      </trkpt>
      <trkpt lat="45.16197" lon="5.68286">
        <ele>305</ele>
        <time>2014-06-28T06:19:32.000Z</time>
      </trkpt>
      <trkpt lat="45.16195" lon="5.68285">
        <ele>305</ele>
        <time>2014-06-28T06:19:33.000Z</time>
      </trkpt>
      <trkpt lat="45.16194" lon="5.68284">
        <ele>305</ele>
        <time>2014-06-28T06:19:34.000Z</time>
      </trkpt>
      <trkpt lat="45.16192" lon="5.68283">
        <ele>305</ele>
        <time>2014-06-28T06:19:35.000Z</time>
      </trkpt>
      <trkpt lat="45.1619" lon="5.68282">
        <ele>306</ele>
        <time>2014-06-28T06:19:36.000Z</time>
      </trkpt>
      <trkpt lat="45.16188" lon="5.68281">
        <ele>306</ele>
        <time>2014-06-28T06:19:37.000Z</time>
      </trkpt>
      <trkpt lat="45.16186" lon="5.68281">
        <ele>306</ele>
        <time>2014-06-28T06:19:38.000Z</time>
      </trkpt>
      <trkpt lat="45.16184" lon="5.68281">
        <ele>306</ele>
        <time>2014-06-28T06:19:39.000Z</time>
      </trkpt>
      <trkpt lat="45.16183" lon="5.68282">
        <ele>306</ele>
        <time>2014-06-28T06:19:40.000Z</time>
      </trkpt>
      <trkpt lat="45.16181" lon="5.68282">
        <ele>306</ele>
        <time>2014-06-28T06:19:41.000Z</time>
      </trkpt>
      <trkpt lat="45.16179" lon="5.68283">
        <ele>306</ele>
        <time>2014-06-28T06:19:42.000Z</time>
      </trkpt>
      <trkpt lat="45.16177" lon="5.68283">
        <ele>306</ele>
        <time>2014-06-28T06:19:43.000Z</time>
      </trkpt>
      <trkpt lat="45.16175" lon="5.68282">
        <ele>306</ele>
        <time>2014-06-28T06:19:44.000Z</time>
      </trkpt>
      <trkpt lat="45.16174" lon="5.68282">
        <ele>306</ele>
        <time>2014-06-28T06:19:45.000Z</time>
      </trkpt>
      <trkpt lat="45.16172" lon="5.68281">
        <ele>307</ele>
        <time>2014-06-28T06:19:46.000Z</time>
      </trkpt>
      <trkpt lat="45.16171" lon="5.6828">
        <ele>307</ele>
        <time>2014-06-28T06:19:47.000Z</time>
      </trkpt>
      <trkpt lat="45.1617" lon="5.68277">
        <ele>307</ele>
        <time>2014-06-28T06:19:48.000Z</time>
      </trkpt>
      <trkpt lat="45.16169" lon="5.68275">
        <ele>307</ele>
        <time>2014-06-28T06:19:49.000Z</time>
      </trkpt>
      <trkpt lat="45.16168" lon="5.68273">
        <ele>307</ele>
        <time>2014-06-28T06:19:50.000Z</time>
      </trkpt>
      <trkpt lat="45.16167" lon="5.68271">
        <ele>308</ele>
        <time>2014-06-28T06:19:51.000Z</time>
      </trkpt>
      <trkpt lat="45.16167" lon="5.68269">
        <ele>308</ele>
        <time>2014-06-28T06:19:52.000Z</time>
      </trkpt>
      <trkpt lat="45.16166" lon="5.68267">
        <ele>308</ele>
        <time>2014-06-28T06:19:53.000Z</time>
      </trkpt>
      <trkpt lat="45.16164" lon="5.68266">
        <ele>308</ele>
        <time>2014-06-28T06:19:54.000Z</time>
      </trkpt>
      <trkpt lat="45.16163" lon="5.68264">
        <ele>308</ele>
        <time>2014-06-28T06:19:55.000Z</time>
      </trkpt>
      <trkpt lat="45.16162" lon="5.68263">
        <ele>309</ele>
        <time>2014-06-28T06:19:56.000Z</time>
      </trkpt>
      <trkpt lat="45.1616" lon="5.68261">
        <ele>309</ele>
        <time>2014-06-28T06:19:57.000Z</time>
      </trkpt>
      <trkpt lat="45.16159" lon="5.68259">
        <ele>309</ele>
        <time>2014-06-28T06:19:58.000Z</time>
      </trkpt>
      <trkpt lat="45.16158" lon="5.68257">
        <ele>310</ele>
        <time>2014-06-28T06:19:59.000Z</time>
      </trkpt>
      <trkpt lat="45.16156" lon="5.68256">
        <ele>310</ele>
        <time>2014-06-28T06:20:00.000Z</time>
      </trkpt>
      <trkpt lat="45.16155" lon="5.68254">
        <ele>310</ele>
        <time>2014-06-28T06:20:01.000Z</time>
      </trkpt>
      <trkpt lat="45.16153" lon="5.68253">
        <ele>311</ele>
        <time>2014-06-28T06:20:02.000Z</time>
      </trkpt>
      <trkpt lat="45.16152" lon="5.68251">
        <ele>311</ele>
        <time>2014-06-28T06:20:03.000Z</time>
      </trkpt>
      <trkpt lat="45.1615" lon="5.68249">
        <ele>312</ele>
        <time>2014-06-28T06:20:04.000Z</time>
      </trkpt>
      <trkpt lat="45.16148" lon="5.68248">
        <ele>312</ele>
        <time>2014-06-28T06:20:05.000Z</time>
      </trkpt>
      <trkpt lat="45.16147" lon="5.68247">
        <ele>312</ele>
        <time>2014-06-28T06:20:06.000Z</time>
      </trkpt>
      <trkpt lat="45.16145" lon="5.68246">
        <ele>313</ele>
        <time>2014-06-28T06:20:07.000Z</time>
      </trkpt>
      <trkpt lat="45.16143" lon="5.68245">
        <ele>313</ele>
        <time>2014-06-28T06:20:08.000Z</time>
      </trkpt>
      <trkpt lat="45.16142" lon="5.68244">
        <ele>313</ele>
        <time>2014-06-28T06:20:09.000Z</time>
      </trkpt>
      <trkpt lat="45.1614" lon="5.68242">
        <ele>313</ele>
        <time>2014-06-28T06:20:10.000Z</time>
      </trkpt>
      <trkpt lat="45.16139" lon="5.68241">
        <ele>314</ele>
        <time>2014-06-28T06:20:11.000Z</time>
      </trkpt>
      <trkpt lat="45.16138" lon="5.6824">
        <ele>314</ele>
        <time>2014-06-28T06:20:12.000Z</time>
      </trkpt>
      <trkpt lat="45.16136" lon="5.68238">
        <ele>314</ele>
        <time>2014-06-28T06:20:13.000Z</time>
      </trkpt>
      <trkpt lat="45.16135" lon="5.68236">
        <ele>314</ele>
        <time>2014-06-28T06:20:14.000Z</time>
      </trkpt>
      <trkpt lat="45.16134" lon="5.68234">
        <ele>314</ele>
        <time>2014-06-28T06:20:15.000Z</time>
      </trkpt>
      <trkpt lat="45.16132" lon="5.68232">
        <ele>315</ele>
        <time>2014-06-28T06:20:16.000Z</time>
      </trkpt>
      <trkpt lat="45.16131" lon="5.6823">
        <ele>315</ele>
        <time>2014-06-28T06:20:17.000Z</time>
      </trkpt>
      <trkpt lat="45.1613" lon="5.68228">
        <ele>315</ele>
        <time>2014-06-28T06:20:18.000Z</time>
      </trkpt>
      <trkpt lat="45.16129" lon="5.68226">
        <ele>316</ele>
        <time>2014-06-28T06:20:19.000Z</time>
      </trkpt>
      <trkpt lat="45.16127" lon="5.68225">
        <ele>316</ele>
        <time>2014-06-28T06:20:20.000Z</time>
      </trkpt>
      <trkpt lat="45.16126" lon="5.68223">
        <ele>316</ele>
        <time>2014-06-28T06:20:21.000Z</time>
      </trkpt>
      <trkpt lat="45.16125" lon="5.68222">
        <ele>317</ele>
        <time>2014-06-28T06:20:22.000Z</time>
      </trkpt>
      <trkpt lat="45.16124" lon="5.6822">
        <ele>317</ele>
        <time>2014-06-28T06:20:23.000Z</time>
      </trkpt>
      <trkpt lat="45.16123" lon="5.68219">
        <ele>317</ele>
        <time>2014-06-28T06:20:24.000Z</time>
      </trkpt>
      <trkpt lat="45.16121" lon="5.68217">
        <ele>317</ele>
        <time>2014-06-28T06:20:25.000Z</time>
      </trkpt>
      <trkpt lat="45.1612" lon="5.68215">
        <ele>318</ele>
        <time>2014-06-28T06:20:26.000Z</time>
      </trkpt>
      <trkpt lat="45.16119" lon="5.68214">
        <ele>318</ele>
        <time>2014-06-28T06:20:27.000Z</time>
      </trkpt>
      <trkpt lat="45.16117" lon="5.68213">
        <ele>318</ele>
        <time>2014-06-28T06:20:28.000Z</time>
      </trkpt>
      <trkpt lat="45.16116" lon="5.68211">
        <ele>319</ele>
        <time>2014-06-28T06:20:29.000Z</time>
      </trkpt>
      <trkpt lat="45.16115" lon="5.68209">
        <ele>319</ele>
        <time>2014-06-28T06:20:30.000Z</time>
      </trkpt>
      <trkpt lat="45.16113" lon="5.68207">
        <ele>320</ele>
        <time>2014-06-28T06:20:31.000Z</time>
      </trkpt>
      <trkpt lat="45.16112" lon="5.68205">
        <ele>320</ele>
        <time>2014-06-28T06:20:32.000Z</time>
      </trkpt>
      <trkpt lat="45.16111" lon="5.68203">
        <ele>320</ele>
        <time>2014-06-28T06:20:33.000Z</time>
      </trkpt>
      <trkpt lat="45.1611" lon="5.68201">
        <ele>321</ele>
        <time>2014-06-28T06:20:34.000Z</time>
      </trkpt>
      <trkpt lat="45.16109" lon="5.682">
        <ele>321</ele>
        <time>2014-06-28T06:20:35.000Z</time>
      </trkpt>
      <trkpt lat="45.16108" lon="5.68198">
        <ele>321</ele>
        <time>2014-06-28T06:20:36.000Z</time>
      </trkpt>
      <trkpt lat="45.16107" lon="5.68196">
        <ele>322</ele>
        <time>2014-06-28T06:20:37.000Z</time>
      </trkpt>
      <trkpt lat="45.16106" lon="5.68195">
        <ele>322</ele>
        <time>2014-06-28T06:20:38.000Z</time>
      </trkpt>
      <trkpt lat="45.16105" lon="5.68193">
        <ele>322</ele>
        <time>2014-06-28T06:20:39.000Z</time>
      </trkpt>
      <trkpt lat="45.16104" lon="5.68192">
        <ele>322</ele>
        <time>2014-06-28T06:20:40.000Z</time>
      </trkpt>
      <trkpt lat="45.16103" lon="5.6819">
        <ele>323</ele>
        <time>2014-06-28T06:20:41.000Z</time>
      </trkpt>
      <trkpt lat="45.16102" lon="5.68188">
        <ele>323</ele>
        <time>2014-06-28T06:20:42.000Z</time>
      </trkpt>
      <trkpt lat="45.16101" lon="5.68187">
        <ele>323</ele>
        <time>2014-06-28T06:20:43.000Z</time>
      </trkpt>
      <trkpt lat="45.161" lon="5.68185">
        <ele>323</ele>
        <time>2014-06-28T06:20:44.000Z</time>
      </trkpt>
      <trkpt lat="45.16098" lon="5.68184">
        <ele>323</ele>
        <time>2014-06-28T06:20:45.000Z</time>
      </trkpt>
      <trkpt lat="45.16097" lon="5.68183">
        <ele>324</ele>
        <time>2014-06-28T06:20:46.000Z</time>
      </trkpt>
      <trkpt lat="45.16096" lon="5.68181">
        <ele>324</ele>
        <time>2014-06-28T06:20:47.000Z</time>
      </trkpt>
      <trkpt lat="45.16095" lon="5.6818">
        <ele>324</ele>
        <time>2014-06-28T06:20:48.000Z</time>
      </trkpt>
      <trkpt lat="45.16094" lon="5.68179">
        <ele>324</ele>
        <time>2014-06-28T06:20:49.000Z</time>
      </trkpt>
      <trkpt lat="45.16093" lon="5.68177">
        <ele>324</ele>
        <time>2014-06-28T06:20:50.000Z</time>
      </trkpt>
      <trkpt lat="45.16091" lon="5.68176">
        <ele>325</ele>
        <time>2014-06-28T06:20:51.000Z</time>
      </trkpt>
      <trkpt lat="45.1609" lon="5.68174">
        <ele>325</ele>
        <time>2014-06-28T06:20:52.000Z</time>
      </trkpt>
      <trkpt lat="45.16089" lon="5.68172">
        <ele>325</ele>
        <time>2014-06-28T06:20:53.000Z</time>
      </trkpt>
      <trkpt lat="45.16088" lon="5.6817">
        <ele>325</ele>
        <time>2014-06-28T06:20:54.000Z</time>
      </trkpt>
      <trkpt lat="45.16086" lon="5.68168">
        <ele>325</ele>
        <time>2014-06-28T06:20:55.000Z</time>
      </trkpt>
      <trkpt lat="45.16085" lon="5.68166">
        <ele>326</ele>
        <time>2014-06-28T06:20:56.000Z</time>
      </trkpt>
      <trkpt lat="45.16084" lon="5.68165">
        <ele>326</ele>
        <time>2014-06-28T06:20:57.000Z</time>
      </trkpt>
      <trkpt lat="45.16083" lon="5.68163">
        <ele>326</ele>
        <time>2014-06-28T06:20:58.000Z</time>
      </trkpt>
      <trkpt lat="45.16082" lon="5.68161">
        <ele>326</ele>
        <time>2014-06-28T06:20:59.000Z</time>
      </trkpt>
      <trkpt lat="45.16081" lon="5.6816">
        <ele>327</ele>
        <time>2014-06-28T06:21:00.000Z</time>
      </trkpt>
      <trkpt lat="45.1608" lon="5.68158">
        <ele>327</ele>
        <time>2014-06-28T06:21:01.000Z</time>
      </trkpt>
      <trkpt lat="45.16078" lon="5.68157">
        <ele>327</ele>
        <time>2014-06-28T06:21:02.000Z</time>
      </trkpt>
      <trkpt lat="45.16077" lon="5.68156">
        <ele>327</ele>
        <time>2014-06-28T06:21:03.000Z</time>
      </trkpt>
      <trkpt lat="45.16075" lon="5.68155">
        <ele>327</ele>
        <time>2014-06-28T06:21:04.000Z</time>
      </trkpt>
      <trkpt lat="45.16074" lon="5.68154">
        <ele>328</ele>
        <time>2014-06-28T06:21:05.000Z</time>
      </trkpt>
      <trkpt lat="45.16072" lon="5.68152">
        <ele>328</ele>
        <time>2014-06-28T06:21:06.000Z</time>
      </trkpt>
      <trkpt lat="45.1607" lon="5.6815">
        <ele>328</ele>
        <time>2014-06-28T06:21:07.000Z</time>
      </trkpt>
      <trkpt lat="45.16068" lon="5.68148">
        <ele>329</ele>
        <time>2014-06-28T06:21:08.000Z</time>
      </trkpt>
      <trkpt lat="45.16067" lon="5.68145">
        <ele>329</ele>
        <time>2014-06-28T06:21:09.000Z</time>
      </trkpt>
      <trkpt lat="45.16066" lon="5.68142">
        <ele>329</ele>
        <time>2014-06-28T06:21:10.000Z</time>
      </trkpt>
      <trkpt lat="45.16065" lon="5.6814">
        <ele>329</ele>
        <time>2014-06-28T06:21:11.000Z</time>
      </trkpt>
      <trkpt lat="45.16064" lon="5.68138">
        <ele>330</ele>
        <time>2014-06-28T06:21:12.000Z</time>
      </trkpt>
      <trkpt lat="45.16063" lon="5.68137">
        <ele>330</ele>
        <time>2014-06-28T06:21:13.000Z</time>
      </trkpt>
      <trkpt lat="45.16062" lon="5.68135">
        <ele>330</ele>
        <time>2014-06-28T06:21:14.000Z</time>
      </trkpt>
      <trkpt lat="45.16061" lon="5.68133">
        <ele>330</ele>
        <time>2014-06-28T06:21:15.000Z</time>
      </trkpt>
      <trkpt lat="45.1606" lon="5.68132">
        <ele>330</ele>
        <time>2014-06-28T06:21:16.000Z</time>
      </trkpt>
      <trkpt lat="45.16059" lon="5.68129">
        <ele>330</ele>
        <time>2014-06-28T06:21:17.000Z</time>
      </trkpt>
      <trkpt lat="45.16058" lon="5.68128">
        <ele>331</ele>
        <time>2014-06-28T06:21:18.000Z</time>
      </trkpt>
      <trkpt lat="45.16057" lon="5.68126">
        <ele>331</ele>
        <time>2014-06-28T06:21:19.000Z</time>
      </trkpt>
      <trkpt lat="45.16056" lon="5.68124">
        <ele>331</ele>
        <time>2014-06-28T06:21:20.000Z</time>
      </trkpt>
      <trkpt lat="45.16055" lon="5.68123">
        <ele>331</ele>
        <time>2014-06-28T06:21:21.000Z</time>
      </trkpt>
      <trkpt lat="45.16054" lon="5.68122">
        <ele>331</ele>
        <time>2014-06-28T06:21:22.000Z</time>
      </trkpt>
      <trkpt lat="45.16052" lon="5.6812">
        <ele>331</ele>
        <time>2014-06-28T06:21:23.000Z</time>
      </trkpt>
      <trkpt lat="45.16051" lon="5.68119">
        <ele>332</ele>
        <time>2014-06-28T06:21:24.000Z</time>
      </trkpt>
      <trkpt lat="45.1605" lon="5.68117">
        <ele>332</ele>
        <time>2014-06-28T06:21:25.000Z</time>
      </trkpt>
      <trkpt lat="45.16049" lon="5.68115">
        <ele>332</ele>
        <time>2014-06-28T06:21:26.000Z</time>
      </trkpt>
      <trkpt lat="45.16047" lon="5.68114">
        <ele>332</ele>
        <time>2014-06-28T06:21:27.000Z</time>
      </trkpt>
      <trkpt lat="45.16046" lon="5.68112">
        <ele>332</ele>
        <time>2014-06-28T06:21:28.000Z</time>
      </trkpt>
      <trkpt lat="45.16045" lon="5.68111">
        <ele>332</ele>
        <time>2014-06-28T06:21:29.000Z</time>
      </trkpt>
      <trkpt lat="45.16043" lon="5.6811">
        <ele>333</ele>
        <time>2014-06-28T06:21:30.000Z</time>
      </trkpt>
      <trkpt lat="45.16042" lon="5.68108">
        <ele>333</ele>
        <time>2014-06-28T06:21:31.000Z</time>
      </trkpt>
      <trkpt lat="45.1604" lon="5.68107">
        <ele>333</ele>
        <time>2014-06-28T06:21:32.000Z</time>
      </trkpt>
      <trkpt lat="45.16039" lon="5.68105">
        <ele>333</ele>
        <time>2014-06-28T06:21:33.000Z</time>
      </trkpt>
      <trkpt lat="45.16038" lon="5.68103">
        <ele>333</ele>
        <time>2014-06-28T06:21:34.000Z</time>
      </trkpt>
      <trkpt lat="45.16036" lon="5.68102">
        <ele>334</ele>
        <time>2014-06-28T06:21:35.000Z</time>
      </trkpt>
      <trkpt lat="45.16035" lon="5.681">
        <ele>334</ele>
        <time>2014-06-28T06:21:36.000Z</time>
      </trkpt>
      <trkpt lat="45.16034" lon="5.68098">
        <ele>334</ele>
        <time>2014-06-28T06:21:37.000Z</time>
      </trkpt>
      <trkpt lat="45.16033" lon="5.68096">
        <ele>335</ele>
        <time>2014-06-28T06:21:38.000Z</time>
      </trkpt>
      <trkpt lat="45.16032" lon="5.68094">
        <ele>335</ele>
        <time>2014-06-28T06:21:39.000Z</time>
      </trkpt>
      <trkpt lat="45.16031" lon="5.68092">
        <ele>335</ele>
        <time>2014-06-28T06:21:40.000Z</time>
      </trkpt>
      <trkpt lat="45.1603" lon="5.6809">
        <ele>335</ele>
        <time>2014-06-28T06:21:41.000Z</time>
      </trkpt>
      <trkpt lat="45.16029" lon="5.68088">
        <ele>336</ele>
        <time>2014-06-28T06:21:42.000Z</time>
      </trkpt>
      <trkpt lat="45.16027" lon="5.68086">
        <ele>336</ele>
        <time>2014-06-28T06:21:43.000Z</time>
      </trkpt>
      <trkpt lat="45.16026" lon="5.68084">
        <ele>336</ele>
        <time>2014-06-28T06:21:44.000Z</time>
      </trkpt>
      <trkpt lat="45.16025" lon="5.68082">
        <ele>337</ele>
        <time>2014-06-28T06:21:45.000Z</time>
      </trkpt>
      <trkpt lat="45.16024" lon="5.6808">
        <ele>337</ele>
        <time>2014-06-28T06:21:46.000Z</time>
      </trkpt>
      <trkpt lat="45.16023" lon="5.68078">
        <ele>337</ele>
        <time>2014-06-28T06:21:47.000Z</time>
      </trkpt>
      <trkpt lat="45.16022" lon="5.68076">
        <ele>337</ele>
        <time>2014-06-28T06:21:48.000Z</time>
      </trkpt>
      <trkpt lat="45.16021" lon="5.68074">
        <ele>337</ele>
        <time>2014-06-28T06:21:49.000Z</time>
      </trkpt>
      <trkpt lat="45.1602" lon="5.68072">
        <ele>338</ele>
        <time>2014-06-28T06:21:50.000Z</time>
      </trkpt>
      <trkpt lat="45.16019" lon="5.6807">
        <ele>338</ele>
        <time>2014-06-28T06:21:51.000Z</time>
      </trkpt>
      <trkpt lat="45.16019" lon="5.68068">
        <ele>338</ele>
        <time>2014-06-28T06:21:52.000Z</time>
      </trkpt>
      <trkpt lat="45.16017" lon="5.68066">
        <ele>338</ele>
        <time>2014-06-28T06:21:53.000Z</time>
      </trkpt>
      <trkpt lat="45.16016" lon="5.68064">
        <ele>338</ele>
        <time>2014-06-28T06:21:54.000Z</time>
      </trkpt>
      <trkpt lat="45.16015" lon="5.68063">
        <ele>338</ele>
        <time>2014-06-28T06:21:55.000Z</time>
      </trkpt>
      <trkpt lat="45.16014" lon="5.68061">
        <ele>338</ele>
        <time>2014-06-28T06:21:56.000Z</time>
      </trkpt>
      <trkpt lat="45.16013" lon="5.68059">
        <ele>338</ele>
        <time>2014-06-28T06:21:57.000Z</time>
      </trkpt>
      <trkpt lat="45.16012" lon="5.68058">
        <ele>339</ele>
        <time>2014-06-28T06:21:58.000Z</time>
      </trkpt>
      <trkpt lat="45.16011" lon="5.68056">
        <ele>339</ele>
        <time>2014-06-28T06:21:59.000Z</time>
      </trkpt>
      <trkpt lat="45.1601" lon="5.68054">
        <ele>339</ele>
        <time>2014-06-28T06:22:00.000Z</time>
      </trkpt>
      <trkpt lat="45.16009" lon="5.68052">
        <ele>339</ele>
        <time>2014-06-28T06:22:01.000Z</time>
      </trkpt>
      <trkpt lat="45.16008" lon="5.6805">
        <ele>339</ele>
        <time>2014-06-28T06:22:02.000Z</time>
      </trkpt>
      <trkpt lat="45.16007" lon="5.68048">
        <ele>339</ele>
        <time>2014-06-28T06:22:03.000Z</time>
      </trkpt>
      <trkpt lat="45.16006" lon="5.68047">
        <ele>340</ele>
        <time>2014-06-28T06:22:04.000Z</time>
      </trkpt>
      <trkpt lat="45.16005" lon="5.68045">
        <ele>340</ele>
        <time>2014-06-28T06:22:05.000Z</time>
      </trkpt>
      <trkpt lat="45.16004" lon="5.68044">
        <ele>340</ele>
        <time>2014-06-28T06:22:06.000Z</time>
      </trkpt>
      <trkpt lat="45.16003" lon="5.68041">
        <ele>340</ele>
        <time>2014-06-28T06:22:07.000Z</time>
      </trkpt>
      <trkpt lat="45.16002" lon="5.6804">
        <ele>340</ele>
        <time>2014-06-28T06:22:08.000Z</time>
      </trkpt>
      <trkpt lat="45.16001" lon="5.68038">
        <ele>340</ele>
        <time>2014-06-28T06:22:09.000Z</time>
      </trkpt>
      <trkpt lat="45.16" lon="5.68036">
        <ele>341</ele>
        <time>2014-06-28T06:22:10.000Z</time>
      </trkpt>
      <trkpt lat="45.15998" lon="5.68035">
        <ele>341</ele>
        <time>2014-06-28T06:22:11.000Z</time>
      </trkpt>
      <trkpt lat="45.15997" lon="5.68033">
        <ele>341</ele>
        <time>2014-06-28T06:22:12.000Z</time>
      </trkpt>
      <trkpt lat="45.15996" lon="5.68031">
        <ele>341</ele>
        <time>2014-06-28T06:22:13.000Z</time>
      </trkpt>
      <trkpt lat="45.15995" lon="5.68029">
        <ele>341</ele>
        <time>2014-06-28T06:22:14.000Z</time>
      </trkpt>
      <trkpt lat="45.15994" lon="5.68028">
        <ele>341</ele>
        <time>2014-06-28T06:22:15.000Z</time>
      </trkpt>
      <trkpt lat="45.15992" lon="5.68027">
        <ele>341</ele>
        <time>2014-06-28T06:22:16.000Z</time>
      </trkpt>
      <trkpt lat="45.15991" lon="5.68025">
        <ele>342</ele>
        <time>2014-06-28T06:22:17.000Z</time>
      </trkpt>
      <trkpt lat="45.15989" lon="5.68024">
        <ele>342</ele>
        <time>2014-06-28T06:22:18.000Z</time>
      </trkpt>
      <trkpt lat="45.15988" lon="5.68023">
        <ele>342</ele>
        <time>2014-06-28T06:22:19.000Z</time>
      </trkpt>
      <trkpt lat="45.15986" lon="5.68023">
        <ele>342</ele>
        <time>2014-06-28T06:22:20.000Z</time>
      </trkpt>
      <trkpt lat="45.15984" lon="5.68022">
        <ele>342</ele>
        <time>2014-06-28T06:22:21.000Z</time>
      </trkpt>
      <trkpt lat="45.15982" lon="5.68022">
        <ele>342</ele>
        <time>2014-06-28T06:22:22.000Z</time>
      </trkpt>
      <trkpt lat="45.1598" lon="5.68021">
        <ele>342</ele>
        <time>2014-06-28T06:22:23.000Z</time>
      </trkpt>
      <trkpt lat="45.15978" lon="5.68021">
        <ele>342</ele>
        <time>2014-06-28T06:22:24.000Z</time>
      </trkpt>
      <trkpt lat="45.15976" lon="5.68021">
        <ele>342</ele>
        <time>2014-06-28T06:22:25.000Z</time>
      </trkpt>
      <trkpt lat="45.15974" lon="5.68021">
        <ele>342</ele>
        <time>2014-06-28T06:22:26.000Z</time>
      </trkpt>
      <trkpt lat="45.15971" lon="5.68021">
        <ele>342</ele>
        <time>2014-06-28T06:22:27.000Z</time>
      </trkpt>
      <trkpt lat="45.15969" lon="5.68022">
        <ele>342</ele>
        <time>2014-06-28T06:22:28.000Z</time>
      </trkpt>
      <trkpt lat="45.15967" lon="5.68022">
        <ele>342</ele>
        <time>2014-06-28T06:22:29.000Z</time>
      </trkpt>
      <trkpt lat="45.15964" lon="5.68023">
        <ele>342</ele>
        <time>2014-06-28T06:22:30.000Z</time>
      </trkpt>
      <trkpt lat="45.15962" lon="5.68024">
        <ele>342</ele>
        <time>2014-06-28T06:22:31.000Z</time>
      </trkpt>
      <trkpt lat="45.15959" lon="5.68025">
        <ele>342</ele>
        <time>2014-06-28T06:22:32.000Z</time>
      </trkpt>
      <trkpt lat="45.15957" lon="5.68026">
        <ele>342</ele>
        <time>2014-06-28T06:22:33.000Z</time>
      </trkpt>
      <trkpt lat="45.15954" lon="5.68027">
        <ele>342</ele>
        <time>2014-06-28T06:22:34.000Z</time>
      </trkpt>
      <trkpt lat="45.15951" lon="5.68027">
        <ele>342</ele>
        <time>2014-06-28T06:22:35.000Z</time>
      </trkpt>
      <trkpt lat="45.15949" lon="5.68028">
        <ele>342</ele>
        <time>2014-06-28T06:22:36.000Z</time>
      </trkpt>
      <trkpt lat="45.15947" lon="5.68029">
        <ele>342</ele>
        <time>2014-06-28T06:22:37.000Z</time>
      </trkpt>
      <trkpt lat="45.15945" lon="5.68029">
        <ele>343</ele>
        <time>2014-06-28T06:22:38.000Z</time>
      </trkpt>
      <trkpt lat="45.15942" lon="5.6803">
        <ele>343</ele>
        <time>2014-06-28T06:22:39.000Z</time>
      </trkpt>
      <trkpt lat="45.1594" lon="5.68031">
        <ele>343</ele>
        <time>2014-06-28T06:22:40.000Z</time>
      </trkpt>
      <trkpt lat="45.15937" lon="5.68032">
        <ele>343</ele>
        <time>2014-06-28T06:22:41.000Z</time>
      </trkpt>
      <trkpt lat="45.15935" lon="5.68033">
        <ele>343</ele>
        <time>2014-06-28T06:22:42.000Z</time>
      </trkpt>
      <trkpt lat="45.15933" lon="5.68034">
        <ele>343</ele>
        <time>2014-06-28T06:22:43.000Z</time>
      </trkpt>
      <trkpt lat="45.1593" lon="5.68035">
        <ele>343</ele>
        <time>2014-06-28T06:22:44.000Z</time>
      </trkpt>
      <trkpt lat="45.15927" lon="5.68036">
        <ele>343</ele>
        <time>2014-06-28T06:22:45.000Z</time>
      </trkpt>
      <trkpt lat="45.15925" lon="5.68037">
        <ele>343</ele>
        <time>2014-06-28T06:22:46.000Z</time>
      </trkpt>
      <trkpt lat="45.15922" lon="5.68038">
        <ele>343</ele>
        <time>2014-06-28T06:22:47.000Z</time>
      </trkpt>
      <trkpt lat="45.15919" lon="5.6804">
        <ele>343</ele>
        <time>2014-06-28T06:22:48.000Z</time>
      </trkpt>
      <trkpt lat="45.15917" lon="5.6804">
        <ele>343</ele>
        <time>2014-06-28T06:22:49.000Z</time>
      </trkpt>
      <trkpt lat="45.15914" lon="5.68041">
        <ele>343</ele>
        <time>2014-06-28T06:22:50.000Z</time>
      </trkpt>
      <trkpt lat="45.15912" lon="5.68042">
        <ele>343</ele>
        <time>2014-06-28T06:22:51.000Z</time>
      </trkpt>
      <trkpt lat="45.15909" lon="5.68043">
        <ele>343</ele>
        <time>2014-06-28T06:22:52.000Z</time>
      </trkpt>
      <trkpt lat="45.15906" lon="5.68044">
        <ele>343</ele>
        <time>2014-06-28T06:22:53.000Z</time>
      </trkpt>
      <trkpt lat="45.15904" lon="5.68044">
        <ele>343</ele>
        <time>2014-06-28T06:22:54.000Z</time>
      </trkpt>
      <trkpt lat="45.15902" lon="5.68045">
        <ele>343</ele>
        <time>2014-06-28T06:22:55.000Z</time>
      </trkpt>
      <trkpt lat="45.15899" lon="5.68045">
        <ele>344</ele>
        <time>2014-06-28T06:22:56.000Z</time>
      </trkpt>
      <trkpt lat="45.15897" lon="5.68046">
        <ele>344</ele>
        <time>2014-06-28T06:22:57.000Z</time>
      </trkpt>
      <trkpt lat="45.15895" lon="5.68046">
        <ele>344</ele>
        <time>2014-06-28T06:22:58.000Z</time>
      </trkpt>
      <trkpt lat="45.15893" lon="5.68046">
        <ele>344</ele>
        <time>2014-06-28T06:22:59.000Z</time>
      </trkpt>
      <trkpt lat="45.15891" lon="5.68046">
        <ele>344</ele>
        <time>2014-06-28T06:23:00.000Z</time>
      </trkpt>
      <trkpt lat="45.15889" lon="5.68046">
        <ele>344</ele>
        <time>2014-06-28T06:23:01.000Z</time>
      </trkpt>
      <trkpt lat="45.15887" lon="5.68046">
        <ele>344</ele>
        <time>2014-06-28T06:23:02.000Z</time>
      </trkpt>
      <trkpt lat="45.15886" lon="5.68046">
        <ele>344</ele>
        <time>2014-06-28T06:23:03.000Z</time>
      </trkpt>
      <trkpt lat="45.15884" lon="5.68046">
        <ele>344</ele>
        <time>2014-06-28T06:23:04.000Z</time>
      </trkpt>
      <trkpt lat="45.15882" lon="5.68045">
        <ele>344</ele>
        <time>2014-06-28T06:23:05.000Z</time>
      </trkpt>
      <trkpt lat="45.1588" lon="5.68045">
        <ele>345</ele>
        <time>2014-06-28T06:23:06.000Z</time>
      </trkpt>
      <trkpt lat="45.15878" lon="5.68044">
        <ele>345</ele>
        <time>2014-06-28T06:23:07.000Z</time>
      </trkpt>
      <trkpt lat="45.15876" lon="5.68044">
        <ele>345</ele>
        <time>2014-06-28T06:23:08.000Z</time>
      </trkpt>
      <trkpt lat="45.15874" lon="5.68043">
        <ele>345</ele>
        <time>2014-06-28T06:23:09.000Z</time>
      </trkpt>
      <trkpt lat="45.15872" lon="5.68042">
        <ele>345</ele>
        <time>2014-06-28T06:23:10.000Z</time>
      </trkpt>
      <trkpt lat="45.1587" lon="5.68041">
        <ele>345</ele>
        <time>2014-06-28T06:23:11.000Z</time>
      </trkpt>
      <trkpt lat="45.15868" lon="5.6804">
        <ele>346</ele>
        <time>2014-06-28T06:23:12.000Z</time>
      </trkpt>
      <trkpt lat="45.15866" lon="5.68039">
        <ele>346</ele>
        <time>2014-06-28T06:23:13.000Z</time>
      </trkpt>
      <trkpt lat="45.15864" lon="5.68038">
        <ele>346</ele>
        <time>2014-06-28T06:23:14.000Z</time>
      </trkpt>
      <trkpt lat="45.15862" lon="5.68038">
        <ele>346</ele>
        <time>2014-06-28T06:23:15.000Z</time>
      </trkpt>
      <trkpt lat="45.1586" lon="5.68037">
        <ele>347</ele>
        <time>2014-06-28T06:23:16.000Z</time>
      </trkpt>
      <trkpt lat="45.15858" lon="5.68036">
        <ele>347</ele>
        <time>2014-06-28T06:23:17.000Z</time>
      </trkpt>
      <trkpt lat="45.15857" lon="5.68036">
        <ele>347</ele>
        <time>2014-06-28T06:23:18.000Z</time>
      </trkpt>
      <trkpt lat="45.15855" lon="5.68035">
        <ele>347</ele>
        <time>2014-06-28T06:23:19.000Z</time>
      </trkpt>
      <trkpt lat="45.15853" lon="5.68034">
        <ele>347</ele>
        <time>2014-06-28T06:23:20.000Z</time>
      </trkpt>
      <trkpt lat="45.15852" lon="5.68033">
        <ele>347</ele>
        <time>2014-06-28T06:23:21.000Z</time>
      </trkpt>
      <trkpt lat="45.1585" lon="5.68032">
        <ele>347</ele>
        <time>2014-06-28T06:23:22.000Z</time>
      </trkpt>
      <trkpt lat="45.15848" lon="5.6803">
        <ele>347</ele>
        <time>2014-06-28T06:23:23.000Z</time>
      </trkpt>
      <trkpt lat="45.15846" lon="5.68029">
        <ele>347</ele>
        <time>2014-06-28T06:23:24.000Z</time>
      </trkpt>
      <trkpt lat="45.15845" lon="5.68029">
        <ele>348</ele>
        <time>2014-06-28T06:23:25.000Z</time>
      </trkpt>
      <trkpt lat="45.15843" lon="5.68028">
        <ele>348</ele>
        <time>2014-06-28T06:23:26.000Z</time>
      </trkpt>
      <trkpt lat="45.15841" lon="5.68028">
        <ele>348</ele>
        <time>2014-06-28T06:23:27.000Z</time>
      </trkpt>
      <trkpt lat="45.1584" lon="5.68029">
        <ele>348</ele>
        <time>2014-06-28T06:23:28.000Z</time>
      </trkpt>
      <trkpt lat="45.15838" lon="5.6803">
        <ele>348</ele>
        <time>2014-06-28T06:23:29.000Z</time>
      </trkpt>
      <trkpt lat="45.15837" lon="5.68032">
        <ele>348</ele>
        <time>2014-06-28T06:23:30.000Z</time>
      </trkpt>
      <trkpt lat="45.15836" lon="5.68035">
        <ele>348</ele>
        <time>2014-06-28T06:23:31.000Z</time>
      </trkpt>
      <trkpt lat="45.15835" lon="5.68038">
        <ele>348</ele>
        <time>2014-06-28T06:23:32.000Z</time>
      </trkpt>
      <trkpt lat="45.15834" lon="5.68041">
        <ele>348</ele>
        <time>2014-06-28T06:23:33.000Z</time>
      </trkpt>
      <trkpt lat="45.15833" lon="5.68044">
        <ele>348</ele>
        <time>2014-06-28T06:23:34.000Z</time>
      </trkpt>
      <trkpt lat="45.15831" lon="5.68047">
        <ele>348</ele>
        <time>2014-06-28T06:23:35.000Z</time>
      </trkpt>
      <trkpt lat="45.1583" lon="5.6805">
        <ele>348</ele>
        <time>2014-06-28T06:23:36.000Z</time>
      </trkpt>
      <trkpt lat="45.15828" lon="5.68053">
        <ele>348</ele>
        <time>2014-06-28T06:23:37.000Z</time>
      </trkpt>
      <trkpt lat="45.15826" lon="5.68055">
        <ele>348</ele>
        <time>2014-06-28T06:23:38.000Z</time>
      </trkpt>
      <trkpt lat="45.15825" lon="5.68058">
        <ele>348</ele>
        <time>2014-06-28T06:23:39.000Z</time>
      </trkpt>
      <trkpt lat="45.15823" lon="5.6806">
        <ele>348</ele>
        <time>2014-06-28T06:23:40.000Z</time>
      </trkpt>
      <trkpt lat="45.15822" lon="5.68062">
        <ele>348</ele>
        <time>2014-06-28T06:23:41.000Z</time>
      </trkpt>
      <trkpt lat="45.1582" lon="5.68063">
        <ele>348</ele>
        <time>2014-06-28T06:23:42.000Z</time>
      </trkpt>
      <trkpt lat="45.15818" lon="5.68064">
        <ele>348</ele>
        <time>2014-06-28T06:23:43.000Z</time>
      </trkpt>
      <trkpt lat="45.15816" lon="5.68066">
        <ele>348</ele>
        <time>2014-06-28T06:23:44.000Z</time>
      </trkpt>
      <trkpt lat="45.15814" lon="5.68068">
        <ele>348</ele>
        <time>2014-06-28T06:23:45.000Z</time>
      </trkpt>
      <trkpt lat="45.15812" lon="5.68069">
        <ele>348</ele>
        <time>2014-06-28T06:23:46.000Z</time>
      </trkpt>
      <trkpt lat="45.1581" lon="5.6807">
        <ele>348</ele>
        <time>2014-06-28T06:23:47.000Z</time>
      </trkpt>
      <trkpt lat="45.15808" lon="5.68072">
        <ele>348</ele>
        <time>2014-06-28T06:23:48.000Z</time>
      </trkpt>
      <trkpt lat="45.15806" lon="5.68073">
        <ele>348</ele>
        <time>2014-06-28T06:23:49.000Z</time>
      </trkpt>
      <trkpt lat="45.15804" lon="5.68073">
        <ele>348</ele>
        <time>2014-06-28T06:23:50.000Z</time>
      </trkpt>
      <trkpt lat="45.15802" lon="5.68073">
        <ele>347</ele>
        <time>2014-06-28T06:23:51.000Z</time>
      </trkpt>
      <trkpt lat="45.15799" lon="5.68073">
        <ele>347</ele>
        <time>2014-06-28T06:23:52.000Z</time>
      </trkpt>
      <trkpt lat="45.15797" lon="5.68073">
        <ele>347</ele>
        <time>2014-06-28T06:23:53.000Z</time>
      </trkpt>
      <trkpt lat="45.15795" lon="5.68073">
        <ele>347</ele>
        <time>2014-06-28T06:23:54.000Z</time>
      </trkpt>
      <trkpt lat="45.15793" lon="5.68073">
        <ele>347</ele>
        <time>2014-06-28T06:23:55.000Z</time>
      </trkpt>
      <trkpt lat="45.15791" lon="5.68073">
        <ele>347</ele>
        <time>2014-06-28T06:23:56.000Z</time>
      </trkpt>
      <trkpt lat="45.15789" lon="5.68073">
        <ele>347</ele>
        <time>2014-06-28T06:23:57.000Z</time>
      </trkpt>
      <trkpt lat="45.15788" lon="5.68072">
        <ele>347</ele>
        <time>2014-06-28T06:23:58.000Z</time>
      </trkpt>
      <trkpt lat="45.15786" lon="5.68071">
        <ele>347</ele>
        <time>2014-06-28T06:23:59.000Z</time>
      </trkpt>
      <trkpt lat="45.15784" lon="5.6807">
        <ele>348</ele>
        <time>2014-06-28T06:24:00.000Z</time>
      </trkpt>
      <trkpt lat="45.15783" lon="5.68068">
        <ele>348</ele>
        <time>2014-06-28T06:24:01.000Z</time>
      </trkpt>
      <trkpt lat="45.15782" lon="5.68066">
        <ele>348</ele>
        <time>2014-06-28T06:24:02.000Z</time>
      </trkpt>
      <trkpt lat="45.15781" lon="5.68064">
        <ele>348</ele>
        <time>2014-06-28T06:24:03.000Z</time>
      </trkpt>
      <trkpt lat="45.15781" lon="5.68061">
        <ele>348</ele>
        <time>2014-06-28T06:24:04.000Z</time>
      </trkpt>
      <trkpt lat="45.1578" lon="5.68058">
        <ele>348</ele>
        <time>2014-06-28T06:24:05.000Z</time>
      </trkpt>
      <trkpt lat="45.1578" lon="5.68056">
        <ele>349</ele>
        <time>2014-06-28T06:24:06.000Z</time>
      </trkpt>
      <trkpt lat="45.1578" lon="5.68053">
        <ele>349</ele>
        <time>2014-06-28T06:24:07.000Z</time>
      </trkpt>
      <trkpt lat="45.1578" lon="5.6805">
        <ele>349</ele>
        <time>2014-06-28T06:24:08.000Z</time>
      </trkpt>
      <trkpt lat="45.1578" lon="5.68047">
        <ele>349</ele>
        <time>2014-06-28T06:24:09.000Z</time>
      </trkpt>
      <trkpt lat="45.1578" lon="5.68045">
        <ele>350</ele>
        <time>2014-06-28T06:24:10.000Z</time>
      </trkpt>
      <trkpt lat="45.15779" lon="5.68042">
        <ele>350</ele>
        <time>2014-06-28T06:24:11.000Z</time>
      </trkpt>
      <trkpt lat="45.15779" lon="5.6804">
        <ele>350</ele>
        <time>2014-06-28T06:24:12.000Z</time>
      </trkpt>
      <trkpt lat="45.15779" lon="5.68037">
        <ele>351</ele>
        <time>2014-06-28T06:24:13.000Z</time>
      </trkpt>
      <trkpt lat="45.15779" lon="5.68034">
        <ele>351</ele>
        <time>2014-06-28T06:24:14.000Z</time>
      </trkpt>
      <trkpt lat="45.15778" lon="5.68032">
        <ele>351</ele>
        <time>2014-06-28T06:24:15.000Z</time>
      </trkpt>
      <trkpt lat="45.15778" lon="5.68029">
        <ele>351</ele>
        <time>2014-06-28T06:24:16.000Z</time>
      </trkpt>
      <trkpt lat="45.15777" lon="5.68026">
        <ele>352</ele>
        <time>2014-06-28T06:24:17.000Z</time>
      </trkpt>
      <trkpt lat="45.15777" lon="5.68024">
        <ele>352</ele>
        <time>2014-06-28T06:24:18.000Z</time>
      </trkpt>
      <trkpt lat="45.15777" lon="5.68021">
        <ele>352</ele>
        <time>2014-06-28T06:24:19.000Z</time>
      </trkpt>
      <trkpt lat="45.15777" lon="5.68018">
        <ele>352</ele>
        <time>2014-06-28T06:24:20.000Z</time>
      </trkpt>
      <trkpt lat="45.15776" lon="5.68015">
        <ele>352</ele>
        <time>2014-06-28T06:24:21.000Z</time>
      </trkpt>
      <trkpt lat="45.15776" lon="5.68012">
        <ele>352</ele>
        <time>2014-06-28T06:24:22.000Z</time>
      </trkpt>
      <trkpt lat="45.15775" lon="5.68009">
        <ele>352</ele>
        <time>2014-06-28T06:24:23.000Z</time>
      </trkpt>
      <trkpt lat="45.15775" lon="5.68007">
        <ele>352</ele>
        <time>2014-06-28T06:24:24.000Z</time>
      </trkpt>
      <trkpt lat="45.15774" lon="5.68004">
        <ele>353</ele>
        <time>2014-06-28T06:24:25.000Z</time>
      </trkpt>
      <trkpt lat="45.15774" lon="5.68002">
        <ele>353</ele>
        <time>2014-06-28T06:24:26.000Z</time>
      </trkpt>
      <trkpt lat="45.15773" lon="5.67999">
        <ele>353</ele>
        <time>2014-06-28T06:24:27.000Z</time>
      </trkpt>
      <trkpt lat="45.15772" lon="5.67997">
        <ele>353</ele>
        <time>2014-06-28T06:24:28.000Z</time>
      </trkpt>
      <trkpt lat="45.15772" lon="5.67994">
        <ele>353</ele>
        <time>2014-06-28T06:24:29.000Z</time>
      </trkpt>
      <trkpt lat="45.15771" lon="5.67991">
        <ele>354</ele>
        <time>2014-06-28T06:24:30.000Z</time>
      </trkpt>
      <trkpt lat="45.15769" lon="5.67989">
        <ele>354</ele>
        <time>2014-06-28T06:24:31.000Z</time>
      </trkpt>
      <trkpt lat="45.15768" lon="5.67986">
        <ele>354</ele>
        <time>2014-06-28T06:24:32.000Z</time>
      </trkpt>
      <trkpt lat="45.15768" lon="5.67983">
        <ele>354</ele>
        <time>2014-06-28T06:24:33.000Z</time>
      </trkpt>
      <trkpt lat="45.15767" lon="5.67981">
        <ele>355</ele>
        <time>2014-06-28T06:24:34.000Z</time>
      </trkpt>
      <trkpt lat="45.15766" lon="5.67978">
        <ele>355</ele>
        <time>2014-06-28T06:24:35.000Z</time>
      </trkpt>
      <trkpt lat="45.15765" lon="5.67975">
        <ele>355</ele>
        <time>2014-06-28T06:24:36.000Z</time>
      </trkpt>
      <trkpt lat="45.15764" lon="5.67973">
        <ele>355</ele>
        <time>2014-06-28T06:24:37.000Z</time>
      </trkpt>
      <trkpt lat="45.15763" lon="5.6797">
        <ele>356</ele>
        <time>2014-06-28T06:24:38.000Z</time>
      </trkpt>
      <trkpt lat="45.15762" lon="5.67967">
        <ele>356</ele>
        <time>2014-06-28T06:24:39.000Z</time>
      </trkpt>
      <trkpt lat="45.15761" lon="5.67965">
        <ele>356</ele>
        <time>2014-06-28T06:24:40.000Z</time>
      </trkpt>
      <trkpt lat="45.1576" lon="5.67962">
        <ele>357</ele>
        <time>2014-06-28T06:24:41.000Z</time>
      </trkpt>
      <trkpt lat="45.15759" lon="5.6796">
        <ele>357</ele>
        <time>2014-06-28T06:24:42.000Z</time>
      </trkpt>
      <trkpt lat="45.15758" lon="5.67958">
        <ele>357</ele>
        <time>2014-06-28T06:24:43.000Z</time>
      </trkpt>
      <trkpt lat="45.15757" lon="5.67956">
        <ele>357</ele>
        <time>2014-06-28T06:24:44.000Z</time>
      </trkpt>
      <trkpt lat="45.15756" lon="5.67954">
        <ele>358</ele>
        <time>2014-06-28T06:24:45.000Z</time>
      </trkpt>
      <trkpt lat="45.15755" lon="5.67952">
        <ele>358</ele>
        <time>2014-06-28T06:24:46.000Z</time>
      </trkpt>
      <trkpt lat="45.15754" lon="5.6795">
        <ele>358</ele>
        <time>2014-06-28T06:24:47.000Z</time>
      </trkpt>
      <trkpt lat="45.15753" lon="5.67948">
        <ele>358</ele>
        <time>2014-06-28T06:24:48.000Z</time>
      </trkpt>
      <trkpt lat="45.15752" lon="5.67946">
        <ele>358</ele>
        <time>2014-06-28T06:24:49.000Z</time>
      </trkpt>
      <trkpt lat="45.1575" lon="5.67944">
        <ele>359</ele>
        <time>2014-06-28T06:24:50.000Z</time>
      </trkpt>
      <trkpt lat="45.1575" lon="5.67942">
        <ele>359</ele>
        <time>2014-06-28T06:24:51.000Z</time>
      </trkpt>
      <trkpt lat="45.15749" lon="5.6794">
        <ele>359</ele>
        <time>2014-06-28T06:24:52.000Z</time>
      </trkpt>
      <trkpt lat="45.15748" lon="5.67937">
        <ele>359</ele>
        <time>2014-06-28T06:24:53.000Z</time>
      </trkpt>
      <trkpt lat="45.15747" lon="5.67934">
        <ele>360</ele>
        <time>2014-06-28T06:24:54.000Z</time>
      </trkpt>
      <trkpt lat="45.15746" lon="5.67932">
        <ele>360</ele>
        <time>2014-06-28T06:24:55.000Z</time>
      </trkpt>
      <trkpt lat="45.15745" lon="5.67929">
        <ele>360</ele>
        <time>2014-06-28T06:24:56.000Z</time>
      </trkpt>
      <trkpt lat="45.15745" lon="5.67927">
        <ele>360</ele>
        <time>2014-06-28T06:24:57.000Z</time>
      </trkpt>
      <trkpt lat="45.15744" lon="5.67924">
        <ele>360</ele>
        <time>2014-06-28T06:24:58.000Z</time>
      </trkpt>
      <trkpt lat="45.15743" lon="5.67922">
        <ele>361</ele>
        <time>2014-06-28T06:24:59.000Z</time>
      </trkpt>
      <trkpt lat="45.15743" lon="5.67919">
        <ele>361</ele>
        <time>2014-06-28T06:25:00.000Z</time>
      </trkpt>
      <trkpt lat="45.15742" lon="5.67917">
        <ele>361</ele>
        <time>2014-06-28T06:25:01.000Z</time>
      </trkpt>
      <trkpt lat="45.15741" lon="5.67915">
        <ele>361</ele>
        <time>2014-06-28T06:25:02.000Z</time>
      </trkpt>
      <trkpt lat="45.15741" lon="5.67913">
        <ele>361</ele>
        <time>2014-06-28T06:25:03.000Z</time>
      </trkpt>
      <trkpt lat="45.1574" lon="5.6791">
        <ele>361</ele>
        <time>2014-06-28T06:25:04.000Z</time>
      </trkpt>
      <trkpt lat="45.1574" lon="5.67908">
        <ele>362</ele>
        <time>2014-06-28T06:25:05.000Z</time>
      </trkpt>
      <trkpt lat="45.15739" lon="5.67906">
        <ele>362</ele>
        <time>2014-06-28T06:25:06.000Z</time>
      </trkpt>
      <trkpt lat="45.15739" lon="5.67903">
        <ele>362</ele>
        <time>2014-06-28T06:25:07.000Z</time>
      </trkpt>
      <trkpt lat="45.15738" lon="5.67901">
        <ele>363</ele>
        <time>2014-06-28T06:25:08.000Z</time>
      </trkpt>
      <trkpt lat="45.15738" lon="5.67898">
        <ele>363</ele>
        <time>2014-06-28T06:25:09.000Z</time>
      </trkpt>
      <trkpt lat="45.15737" lon="5.67895">
        <ele>363</ele>
        <time>2014-06-28T06:25:10.000Z</time>
      </trkpt>
      <trkpt lat="45.15737" lon="5.67892">
        <ele>364</ele>
        <time>2014-06-28T06:25:11.000Z</time>
      </trkpt>
      <trkpt lat="45.15736" lon="5.6789">
        <ele>364</ele>
        <time>2014-06-28T06:25:12.000Z</time>
      </trkpt>
      <trkpt lat="45.15736" lon="5.67887">
        <ele>364</ele>
        <time>2014-06-28T06:25:13.000Z</time>
      </trkpt>
      <trkpt lat="45.15736" lon="5.67885">
        <ele>364</ele>
        <time>2014-06-28T06:25:14.000Z</time>
      </trkpt>
      <trkpt lat="45.15736" lon="5.67882">
        <ele>365</ele>
        <time>2014-06-28T06:25:15.000Z</time>
      </trkpt>
      <trkpt lat="45.15736" lon="5.6788">
        <ele>365</ele>
        <time>2014-06-28T06:25:16.000Z</time>
      </trkpt>
      <trkpt lat="45.15736" lon="5.67878">
        <ele>365</ele>
        <time>2014-06-28T06:25:17.000Z</time>
      </trkpt>
      <trkpt lat="45.15736" lon="5.67875">
        <ele>365</ele>
        <time>2014-06-28T06:25:18.000Z</time>
      </trkpt>
      <trkpt lat="45.15736" lon="5.67873">
        <ele>365</ele>
        <time>2014-06-28T06:25:19.000Z</time>
      </trkpt>
      <trkpt lat="45.15736" lon="5.67871">
        <ele>366</ele>
        <time>2014-06-28T06:25:20.000Z</time>
      </trkpt>
      <trkpt lat="45.15735" lon="5.67869">
        <ele>366</ele>
        <time>2014-06-28T06:25:21.000Z</time>
      </trkpt>
      <trkpt lat="45.15734" lon="5.67867">
        <ele>366</ele>
        <time>2014-06-28T06:25:22.000Z</time>
      </trkpt>
      <trkpt lat="45.15733" lon="5.67865">
        <ele>366</ele>
        <time>2014-06-28T06:25:23.000Z</time>
      </trkpt>
      <trkpt lat="45.15732" lon="5.67864">
        <ele>367</ele>
        <time>2014-06-28T06:25:24.000Z</time>
      </trkpt>
      <trkpt lat="45.15731" lon="5.67863">
        <ele>367</ele>
        <time>2014-06-28T06:25:25.000Z</time>
      </trkpt>
      <trkpt lat="45.15729" lon="5.67862">
        <ele>367</ele>
        <time>2014-06-28T06:25:26.000Z</time>
      </trkpt>
      <trkpt lat="45.15728" lon="5.6786">
        <ele>367</ele>
        <time>2014-06-28T06:25:27.000Z</time>
      </trkpt>
      <trkpt lat="45.15727" lon="5.67858">
        <ele>368</ele>
        <time>2014-06-28T06:25:28.000Z</time>
      </trkpt>
      <trkpt lat="45.15726" lon="5.67856">
        <ele>368</ele>
        <time>2014-06-28T06:25:29.000Z</time>
      </trkpt>
      <trkpt lat="45.15724" lon="5.67855">
        <ele>368</ele>
        <time>2014-06-28T06:25:30.000Z</time>
      </trkpt>
      <trkpt lat="45.15722" lon="5.67853">
        <ele>368</ele>
        <time>2014-06-28T06:25:31.000Z</time>
      </trkpt>
      <trkpt lat="45.15719" lon="5.67852">
        <ele>369</ele>
        <time>2014-06-28T06:25:32.000Z</time>
      </trkpt>
      <trkpt lat="45.15717" lon="5.67851">
        <ele>369</ele>
        <time>2014-06-28T06:25:33.000Z</time>
      </trkpt>
      <trkpt lat="45.15714" lon="5.6785">
        <ele>369</ele>
        <time>2014-06-28T06:25:34.000Z</time>
      </trkpt>
      <trkpt lat="45.15712" lon="5.6785">
        <ele>369</ele>
        <time>2014-06-28T06:25:35.000Z</time>
      </trkpt>
      <trkpt lat="45.1571" lon="5.6785">
        <ele>369</ele>
        <time>2014-06-28T06:25:36.000Z</time>
      </trkpt>
      <trkpt lat="45.15708" lon="5.6785">
        <ele>369</ele>
        <time>2014-06-28T06:25:37.000Z</time>
      </trkpt>
      <trkpt lat="45.15705" lon="5.6785">
        <ele>369</ele>
        <time>2014-06-28T06:25:38.000Z</time>
      </trkpt>
      <trkpt lat="45.15703" lon="5.6785">
        <ele>369</ele>
        <time>2014-06-28T06:25:39.000Z</time>
      </trkpt>
      <trkpt lat="45.15701" lon="5.6785">
        <ele>369</ele>
        <time>2014-06-28T06:25:40.000Z</time>
      </trkpt>
      <trkpt lat="45.15699" lon="5.67851">
        <ele>369</ele>
        <time>2014-06-28T06:25:41.000Z</time>
      </trkpt>
      <trkpt lat="45.15697" lon="5.67851">
        <ele>369</ele>
        <time>2014-06-28T06:25:42.000Z</time>
      </trkpt>
      <trkpt lat="45.15695" lon="5.67851">
        <ele>369</ele>
        <time>2014-06-28T06:25:43.000Z</time>
      </trkpt>
      <trkpt lat="45.15693" lon="5.67851">
        <ele>369</ele>
        <time>2014-06-28T06:25:44.000Z</time>
      </trkpt>
      <trkpt lat="45.15691" lon="5.67851">
        <ele>369</ele>
        <time>2014-06-28T06:25:45.000Z</time>
      </trkpt>
      <trkpt lat="45.15689" lon="5.67851">
        <ele>369</ele>
        <time>2014-06-28T06:25:46.000Z</time>
      </trkpt>
      <trkpt lat="45.15687" lon="5.6785">
        <ele>369</ele>
        <time>2014-06-28T06:25:47.000Z</time>
      </trkpt>
      <trkpt lat="45.15685" lon="5.67848">
        <ele>369</ele>
        <time>2014-06-28T06:25:48.000Z</time>
      </trkpt>
      <trkpt lat="45.15683" lon="5.67846">
        <ele>370</ele>
        <time>2014-06-28T06:25:49.000Z</time>
      </trkpt>
      <trkpt lat="45.15682" lon="5.67844">
        <ele>370</ele>
        <time>2014-06-28T06:25:50.000Z</time>
      </trkpt>
      <trkpt lat="45.1568" lon="5.67842">
        <ele>370</ele>
        <time>2014-06-28T06:25:51.000Z</time>
      </trkpt>
      <trkpt lat="45.1568" lon="5.67839">
        <ele>370</ele>
        <time>2014-06-28T06:25:52.000Z</time>
      </trkpt>
      <trkpt lat="45.15679" lon="5.67837">
        <ele>370</ele>
        <time>2014-06-28T06:25:53.000Z</time>
      </trkpt>
      <trkpt lat="45.15678" lon="5.67834">
        <ele>370</ele>
        <time>2014-06-28T06:25:54.000Z</time>
      </trkpt>
      <trkpt lat="45.15678" lon="5.67832">
        <ele>370</ele>
        <time>2014-06-28T06:25:55.000Z</time>
      </trkpt>
      <trkpt lat="45.15678" lon="5.6783">
        <ele>370</ele>
        <time>2014-06-28T06:25:56.000Z</time>
      </trkpt>
      <trkpt lat="45.15678" lon="5.67828">
        <ele>371</ele>
        <time>2014-06-28T06:25:57.000Z</time>
      </trkpt>
      <trkpt lat="45.15679" lon="5.67826">
        <ele>371</ele>
        <time>2014-06-28T06:25:58.000Z</time>
      </trkpt>
      <trkpt lat="45.15679" lon="5.67823">
        <ele>371</ele>
        <time>2014-06-28T06:25:59.000Z</time>
      </trkpt>
      <trkpt lat="45.15679" lon="5.67821">
        <ele>371</ele>
        <time>2014-06-28T06:26:00.000Z</time>
      </trkpt>
      <trkpt lat="45.15679" lon="5.67818">
        <ele>371</ele>
        <time>2014-06-28T06:26:01.000Z</time>
      </trkpt>
      <trkpt lat="45.15679" lon="5.67816">
        <ele>371</ele>
        <time>2014-06-28T06:26:02.000Z</time>
      </trkpt>
      <trkpt lat="45.15679" lon="5.67813">
        <ele>372</ele>
        <time>2014-06-28T06:26:03.000Z</time>
      </trkpt>
      <trkpt lat="45.15679" lon="5.67811">
        <ele>372</ele>
        <time>2014-06-28T06:26:04.000Z</time>
      </trkpt>
      <trkpt lat="45.15679" lon="5.67808">
        <ele>372</ele>
        <time>2014-06-28T06:26:05.000Z</time>
      </trkpt>
      <trkpt lat="45.15679" lon="5.67806">
        <ele>372</ele>
        <time>2014-06-28T06:26:06.000Z</time>
      </trkpt>
      <trkpt lat="45.15678" lon="5.67803">
        <ele>372</ele>
        <time>2014-06-28T06:26:07.000Z</time>
      </trkpt>
      <trkpt lat="45.15678" lon="5.67801">
        <ele>372</ele>
        <time>2014-06-28T06:26:08.000Z</time>
      </trkpt>
      <trkpt lat="45.15678" lon="5.67798">
        <ele>373</ele>
        <time>2014-06-28T06:26:09.000Z</time>
      </trkpt>
      <trkpt lat="45.15678" lon="5.67796">
        <ele>373</ele>
        <time>2014-06-28T06:26:10.000Z</time>
      </trkpt>
      <trkpt lat="45.15678" lon="5.67793">
        <ele>373</ele>
        <time>2014-06-28T06:26:11.000Z</time>
      </trkpt>
      <trkpt lat="45.15678" lon="5.67791">
        <ele>373</ele>
        <time>2014-06-28T06:26:12.000Z</time>
      </trkpt>
      <trkpt lat="45.15678" lon="5.6779">
        <ele>374</ele>
        <time>2014-06-28T06:26:13.000Z</time>
      </trkpt>
      <trkpt lat="45.15678" lon="5.67788">
        <ele>374</ele>
        <time>2014-06-28T06:26:14.000Z</time>
      </trkpt>
      <trkpt lat="45.15678" lon="5.67785">
        <ele>374</ele>
        <time>2014-06-28T06:26:15.000Z</time>
      </trkpt>
      <trkpt lat="45.15677" lon="5.67783">
        <ele>374</ele>
        <time>2014-06-28T06:26:16.000Z</time>
      </trkpt>
      <trkpt lat="45.15677" lon="5.6778">
        <ele>374</ele>
        <time>2014-06-28T06:26:17.000Z</time>
      </trkpt>
      <trkpt lat="45.15677" lon="5.67778">
        <ele>375</ele>
        <time>2014-06-28T06:26:18.000Z</time>
      </trkpt>
      <trkpt lat="45.15677" lon="5.67775">
        <ele>375</ele>
        <time>2014-06-28T06:26:19.000Z</time>
      </trkpt>
      <trkpt lat="45.15677" lon="5.67773">
        <ele>375</ele>
        <time>2014-06-28T06:26:20.000Z</time>
      </trkpt>
      <trkpt lat="45.15677" lon="5.6777">
        <ele>375</ele>
        <time>2014-06-28T06:26:21.000Z</time>
      </trkpt>
      <trkpt lat="45.15677" lon="5.67768">
        <ele>376</ele>
        <time>2014-06-28T06:26:22.000Z</time>
      </trkpt>
      <trkpt lat="45.15677" lon="5.67765">
        <ele>376</ele>
        <time>2014-06-28T06:26:23.000Z</time>
      </trkpt>
      <trkpt lat="45.15677" lon="5.67762">
        <ele>376</ele>
        <time>2014-06-28T06:26:24.000Z</time>
      </trkpt>
      <trkpt lat="45.15677" lon="5.67759">
        <ele>376</ele>
        <time>2014-06-28T06:26:25.000Z</time>
      </trkpt>
      <trkpt lat="45.15677" lon="5.67757">
        <ele>376</ele>
        <time>2014-06-28T06:26:26.000Z</time>
      </trkpt>
      <trkpt lat="45.15677" lon="5.67755">
        <ele>376</ele>
        <time>2014-06-28T06:26:27.000Z</time>
      </trkpt>
      <trkpt lat="45.15677" lon="5.67752">
        <ele>376</ele>
        <time>2014-06-28T06:26:28.000Z</time>
      </trkpt>
      <trkpt lat="45.15678" lon="5.67749">
        <ele>377</ele>
        <time>2014-06-28T06:26:29.000Z</time>
      </trkpt>
      <trkpt lat="45.15678" lon="5.67747">
        <ele>377</ele>
        <time>2014-06-28T06:26:30.000Z</time>
      </trkpt>
      <trkpt lat="45.15678" lon="5.67744">
        <ele>377</ele>
        <time>2014-06-28T06:26:31.000Z</time>
      </trkpt>
      <trkpt lat="45.15678" lon="5.67742">
        <ele>377</ele>
        <time>2014-06-28T06:26:32.000Z</time>
      </trkpt>
      <trkpt lat="45.15678" lon="5.67739">
        <ele>377</ele>
        <time>2014-06-28T06:26:33.000Z</time>
      </trkpt>
      <trkpt lat="45.15678" lon="5.67737">
        <ele>378</ele>
        <time>2014-06-28T06:26:34.000Z</time>
      </trkpt>
      <trkpt lat="45.15677" lon="5.67734">
        <ele>378</ele>
        <time>2014-06-28T06:26:35.000Z</time>
      </trkpt>
      <trkpt lat="45.15677" lon="5.67731">
        <ele>378</ele>
        <time>2014-06-28T06:26:36.000Z</time>
      </trkpt>
      <trkpt lat="45.15677" lon="5.67728">
        <ele>378</ele>
        <time>2014-06-28T06:26:37.000Z</time>
      </trkpt>
      <trkpt lat="45.15676" lon="5.67725">
        <ele>379</ele>
        <time>2014-06-28T06:26:38.000Z</time>
      </trkpt>
      <trkpt lat="45.15676" lon="5.67722">
        <ele>379</ele>
        <time>2014-06-28T06:26:39.000Z</time>
      </trkpt>
      <trkpt lat="45.15676" lon="5.67719">
        <ele>380</ele>
        <time>2014-06-28T06:26:40.000Z</time>
      </trkpt>
      <trkpt lat="45.15676" lon="5.67716">
        <ele>380</ele>
        <time>2014-06-28T06:26:41.000Z</time>
      </trkpt>
      <trkpt lat="45.15676" lon="5.67714">
        <ele>380</ele>
        <time>2014-06-28T06:26:42.000Z</time>
      </trkpt>
      <trkpt lat="45.15676" lon="5.67711">
        <ele>381</ele>
        <time>2014-06-28T06:26:43.000Z</time>
      </trkpt>
      <trkpt lat="45.15675" lon="5.67708">
        <ele>381</ele>
        <time>2014-06-28T06:26:44.000Z</time>
      </trkpt>
      <trkpt lat="45.15675" lon="5.67705">
        <ele>381</ele>
        <time>2014-06-28T06:26:45.000Z</time>
      </trkpt>
      <trkpt lat="45.15675" lon="5.67703">
        <ele>382</ele>
        <time>2014-06-28T06:26:46.000Z</time>
      </trkpt>
      <trkpt lat="45.15675" lon="5.677">
        <ele>382</ele>
        <time>2014-06-28T06:26:47.000Z</time>
      </trkpt>
      <trkpt lat="45.15675" lon="5.67697">
        <ele>382</ele>
        <time>2014-06-28T06:26:48.000Z</time>
      </trkpt>
      <trkpt lat="45.15675" lon="5.67694">
        <ele>382</ele>
        <time>2014-06-28T06:26:49.000Z</time>
      </trkpt>
      <trkpt lat="45.15675" lon="5.67692">
        <ele>382</ele>
        <time>2014-06-28T06:26:50.000Z</time>
      </trkpt>
      <trkpt lat="45.15675" lon="5.67689">
        <ele>383</ele>
        <time>2014-06-28T06:26:51.000Z</time>
      </trkpt>
      <trkpt lat="45.15675" lon="5.67687">
        <ele>383</ele>
        <time>2014-06-28T06:26:52.000Z</time>
      </trkpt>
      <trkpt lat="45.15675" lon="5.67684">
        <ele>383</ele>
        <time>2014-06-28T06:26:53.000Z</time>
      </trkpt>
      <trkpt lat="45.15675" lon="5.67681">
        <ele>383</ele>
        <time>2014-06-28T06:26:54.000Z</time>
      </trkpt>
      <trkpt lat="45.15675" lon="5.67678">
        <ele>383</ele>
        <time>2014-06-28T06:26:55.000Z</time>
      </trkpt>
      <trkpt lat="45.15675" lon="5.67676">
        <ele>383</ele>
        <time>2014-06-28T06:26:56.000Z</time>
      </trkpt>
      <trkpt lat="45.15674" lon="5.67673">
        <ele>384</ele>
        <time>2014-06-28T06:26:57.000Z</time>
      </trkpt>
      <trkpt lat="45.15674" lon="5.67671">
        <ele>384</ele>
        <time>2014-06-28T06:26:58.000Z</time>
      </trkpt>
      <trkpt lat="45.15674" lon="5.67668">
        <ele>384</ele>
        <time>2014-06-28T06:26:59.000Z</time>
      </trkpt>
      <trkpt lat="45.15674" lon="5.67666">
        <ele>384</ele>
        <time>2014-06-28T06:27:00.000Z</time>
      </trkpt>
      <trkpt lat="45.15673" lon="5.67663">
        <ele>384</ele>
        <time>2014-06-28T06:27:01.000Z</time>
      </trkpt>
      <trkpt lat="45.15673" lon="5.67661">
        <ele>384</ele>
        <time>2014-06-28T06:27:02.000Z</time>
      </trkpt>
      <trkpt lat="45.15672" lon="5.67659">
        <ele>385</ele>
        <time>2014-06-28T06:27:03.000Z</time>
      </trkpt>
      <trkpt lat="45.15671" lon="5.67657">
        <ele>385</ele>
        <time>2014-06-28T06:27:04.000Z</time>
      </trkpt>
      <trkpt lat="45.1567" lon="5.67654">
        <ele>385</ele>
        <time>2014-06-28T06:27:05.000Z</time>
      </trkpt>
      <trkpt lat="45.15669" lon="5.67652">
        <ele>385</ele>
        <time>2014-06-28T06:27:06.000Z</time>
      </trkpt>
      <trkpt lat="45.15669" lon="5.67649">
        <ele>385</ele>
        <time>2014-06-28T06:27:07.000Z</time>
      </trkpt>
      <trkpt lat="45.15668" lon="5.67647">
        <ele>385</ele>
        <time>2014-06-28T06:27:08.000Z</time>
      </trkpt>
      <trkpt lat="45.15667" lon="5.67645">
        <ele>386</ele>
        <time>2014-06-28T06:27:09.000Z</time>
      </trkpt>
      <trkpt lat="45.15665" lon="5.67642">
        <ele>386</ele>
        <time>2014-06-28T06:27:10.000Z</time>
      </trkpt>
      <trkpt lat="45.15664" lon="5.6764">
        <ele>386</ele>
        <time>2014-06-28T06:27:11.000Z</time>
      </trkpt>
      <trkpt lat="45.15663" lon="5.67638">
        <ele>386</ele>
        <time>2014-06-28T06:27:12.000Z</time>
      </trkpt>
      <trkpt lat="45.15662" lon="5.67635">
        <ele>387</ele>
        <time>2014-06-28T06:27:13.000Z</time>
      </trkpt>
      <trkpt lat="45.15661" lon="5.67633">
        <ele>387</ele>
        <time>2014-06-28T06:27:14.000Z</time>
      </trkpt>
      <trkpt lat="45.1566" lon="5.67631">
        <ele>387</ele>
        <time>2014-06-28T06:27:15.000Z</time>
      </trkpt>
      <trkpt lat="45.15659" lon="5.67628">
        <ele>387</ele>
        <time>2014-06-28T06:27:16.000Z</time>
      </trkpt>
      <trkpt lat="45.15658" lon="5.67626">
        <ele>388</ele>
        <time>2014-06-28T06:27:17.000Z</time>
      </trkpt>
      <trkpt lat="45.15657" lon="5.67623">
        <ele>388</ele>
        <time>2014-06-28T06:27:18.000Z</time>
      </trkpt>
      <trkpt lat="45.15656" lon="5.67621">
        <ele>388</ele>
        <time>2014-06-28T06:27:19.000Z</time>
      </trkpt>
      <trkpt lat="45.15655" lon="5.67619">
        <ele>388</ele>
        <time>2014-06-28T06:27:20.000Z</time>
      </trkpt>
      <trkpt lat="45.15654" lon="5.67617">
        <ele>389</ele>
        <time>2014-06-28T06:27:21.000Z</time>
      </trkpt>
      <trkpt lat="45.15653" lon="5.67615">
        <ele>389</ele>
        <time>2014-06-28T06:27:22.000Z</time>
      </trkpt>
      <trkpt lat="45.15652" lon="5.67612">
        <ele>389</ele>
        <time>2014-06-28T06:27:23.000Z</time>
      </trkpt>
      <trkpt lat="45.15651" lon="5.6761">
        <ele>390</ele>
        <time>2014-06-28T06:27:24.000Z</time>
      </trkpt>
      <trkpt lat="45.1565" lon="5.67607">
        <ele>390</ele>
        <time>2014-06-28T06:27:25.000Z</time>
      </trkpt>
      <trkpt lat="45.15649" lon="5.67605">
        <ele>390</ele>
        <time>2014-06-28T06:27:26.000Z</time>
      </trkpt>
      <trkpt lat="45.15648" lon="5.67603">
        <ele>390</ele>
        <time>2014-06-28T06:27:27.000Z</time>
      </trkpt>
      <trkpt lat="45.15647" lon="5.676">
        <ele>390</ele>
        <time>2014-06-28T06:27:28.000Z</time>
      </trkpt>
      <trkpt lat="45.15647" lon="5.67598">
        <ele>390</ele>
        <time>2014-06-28T06:27:29.000Z</time>
      </trkpt>
      <trkpt lat="45.15646" lon="5.67595">
        <ele>390</ele>
        <time>2014-06-28T06:27:30.000Z</time>
      </trkpt>
      <trkpt lat="45.15646" lon="5.67593">
        <ele>391</ele>
        <time>2014-06-28T06:27:31.000Z</time>
      </trkpt>
      <trkpt lat="45.15645" lon="5.67591">
        <ele>391</ele>
        <time>2014-06-28T06:27:32.000Z</time>
      </trkpt>
      <trkpt lat="45.15645" lon="5.67589">
        <ele>391</ele>
        <time>2014-06-28T06:27:33.000Z</time>
      </trkpt>
      <trkpt lat="45.15645" lon="5.67586">
        <ele>391</ele>
        <time>2014-06-28T06:27:34.000Z</time>
      </trkpt>
      <trkpt lat="45.15645" lon="5.67584">
        <ele>392</ele>
        <time>2014-06-28T06:27:35.000Z</time>
      </trkpt>
      <trkpt lat="45.15646" lon="5.67582">
        <ele>392</ele>
        <time>2014-06-28T06:27:36.000Z</time>
      </trkpt>
      <trkpt lat="45.15646" lon="5.67579">
        <ele>392</ele>
        <time>2014-06-28T06:27:37.000Z</time>
      </trkpt>
      <trkpt lat="45.15646" lon="5.67576">
        <ele>393</ele>
        <time>2014-06-28T06:27:38.000Z</time>
      </trkpt>
      <trkpt lat="45.15647" lon="5.67574">
        <ele>393</ele>
        <time>2014-06-28T06:27:39.000Z</time>
      </trkpt>
      <trkpt lat="45.15648" lon="5.67571">
        <ele>393</ele>
        <time>2014-06-28T06:27:40.000Z</time>
      </trkpt>
      <trkpt lat="45.15648" lon="5.67569">
        <ele>394</ele>
        <time>2014-06-28T06:27:41.000Z</time>
      </trkpt>
      <trkpt lat="45.15649" lon="5.67566">
        <ele>394</ele>
        <time>2014-06-28T06:27:42.000Z</time>
      </trkpt>
      <trkpt lat="45.15649" lon="5.67564">
        <ele>394</ele>
        <time>2014-06-28T06:27:43.000Z</time>
      </trkpt>
      <trkpt lat="45.15649" lon="5.67561">
        <ele>394</ele>
        <time>2014-06-28T06:27:44.000Z</time>
      </trkpt>
      <trkpt lat="45.1565" lon="5.67559">
        <ele>395</ele>
        <time>2014-06-28T06:27:45.000Z</time>
      </trkpt>
      <trkpt lat="45.1565" lon="5.67557">
        <ele>395</ele>
        <time>2014-06-28T06:27:46.000Z</time>
      </trkpt>
      <trkpt lat="45.1565" lon="5.67554">
        <ele>395</ele>
        <time>2014-06-28T06:27:47.000Z</time>
      </trkpt>
      <trkpt lat="45.1565" lon="5.67552">
        <ele>395</ele>
        <time>2014-06-28T06:27:48.000Z</time>
      </trkpt>
      <trkpt lat="45.1565" lon="5.6755">
        <ele>395</ele>
        <time>2014-06-28T06:27:49.000Z</time>
      </trkpt>
      <trkpt lat="45.15651" lon="5.67548">
        <ele>395</ele>
        <time>2014-06-28T06:27:50.000Z</time>
      </trkpt>
      <trkpt lat="45.15651" lon="5.67545">
        <ele>395</ele>
        <time>2014-06-28T06:27:51.000Z</time>
      </trkpt>
      <trkpt lat="45.15651" lon="5.67543">
        <ele>395</ele>
        <time>2014-06-28T06:27:52.000Z</time>
      </trkpt>
      <trkpt lat="45.15652" lon="5.67542">
        <ele>396</ele>
        <time>2014-06-28T06:27:53.000Z</time>
      </trkpt>
      <trkpt lat="45.15653" lon="5.6754">
        <ele>396</ele>
        <time>2014-06-28T06:27:54.000Z</time>
      </trkpt>
      <trkpt lat="45.15653" lon="5.67538">
        <ele>396</ele>
        <time>2014-06-28T06:27:55.000Z</time>
      </trkpt>
      <trkpt lat="45.15654" lon="5.67536">
        <ele>396</ele>
        <time>2014-06-28T06:27:56.000Z</time>
      </trkpt>
      <trkpt lat="45.15654" lon="5.67533">
        <ele>396</ele>
        <time>2014-06-28T06:27:57.000Z</time>
      </trkpt>
      <trkpt lat="45.15655" lon="5.67531">
        <ele>396</ele>
        <time>2014-06-28T06:27:58.000Z</time>
      </trkpt>
      <trkpt lat="45.15654" lon="5.67528">
        <ele>397</ele>
        <time>2014-06-28T06:27:59.000Z</time>
      </trkpt>
      <trkpt lat="45.15653" lon="5.67526">
        <ele>397</ele>
        <time>2014-06-28T06:28:00.000Z</time>
      </trkpt>
      <trkpt lat="45.15651" lon="5.67523">
        <ele>397</ele>
        <time>2014-06-28T06:28:01.000Z</time>
      </trkpt>
      <trkpt lat="45.1565" lon="5.67521">
        <ele>397</ele>
        <time>2014-06-28T06:28:02.000Z</time>
      </trkpt>
      <trkpt lat="45.15648" lon="5.67519">
        <ele>398</ele>
        <time>2014-06-28T06:28:03.000Z</time>
      </trkpt>
      <trkpt lat="45.15645" lon="5.67517">
        <ele>398</ele>
        <time>2014-06-28T06:28:04.000Z</time>
      </trkpt>
      <trkpt lat="45.15643" lon="5.67516">
        <ele>398</ele>
        <time>2014-06-28T06:28:05.000Z</time>
      </trkpt>
      <trkpt lat="45.15641" lon="5.67515">
        <ele>398</ele>
        <time>2014-06-28T06:28:06.000Z</time>
      </trkpt>
      <trkpt lat="45.15639" lon="5.67514">
        <ele>398</ele>
        <time>2014-06-28T06:28:07.000Z</time>
      </trkpt>
      <trkpt lat="45.15636" lon="5.67513">
        <ele>399</ele>
        <time>2014-06-28T06:28:08.000Z</time>
      </trkpt>
      <trkpt lat="45.15634" lon="5.67512">
        <ele>399</ele>
        <time>2014-06-28T06:28:09.000Z</time>
      </trkpt>
      <trkpt lat="45.15632" lon="5.67511">
        <ele>399</ele>
        <time>2014-06-28T06:28:10.000Z</time>
      </trkpt>
      <trkpt lat="45.15629" lon="5.6751">
        <ele>399</ele>
        <time>2014-06-28T06:28:11.000Z</time>
      </trkpt>
      <trkpt lat="45.15627" lon="5.67509">
        <ele>400</ele>
        <time>2014-06-28T06:28:12.000Z</time>
      </trkpt>
      <trkpt lat="45.15625" lon="5.67508">
        <ele>400</ele>
        <time>2014-06-28T06:28:13.000Z</time>
      </trkpt>
      <trkpt lat="45.15622" lon="5.67507">
        <ele>400</ele>
        <time>2014-06-28T06:28:14.000Z</time>
      </trkpt>
      <trkpt lat="45.1562" lon="5.67506">
        <ele>400</ele>
        <time>2014-06-28T06:28:15.000Z</time>
      </trkpt>
      <trkpt lat="45.15618" lon="5.67505">
        <ele>400</ele>
        <time>2014-06-28T06:28:16.000Z</time>
      </trkpt>
      <trkpt lat="45.15615" lon="5.67505">
        <ele>400</ele>
        <time>2014-06-28T06:28:17.000Z</time>
      </trkpt>
      <trkpt lat="45.15613" lon="5.67504">
        <ele>401</ele>
        <time>2014-06-28T06:28:18.000Z</time>
      </trkpt>
      <trkpt lat="45.15611" lon="5.67504">
        <ele>401</ele>
        <time>2014-06-28T06:28:19.000Z</time>
      </trkpt>
      <trkpt lat="45.15608" lon="5.67504">
        <ele>401</ele>
        <time>2014-06-28T06:28:20.000Z</time>
      </trkpt>
      <trkpt lat="45.15606" lon="5.67504">
        <ele>401</ele>
        <time>2014-06-28T06:28:21.000Z</time>
      </trkpt>
      <trkpt lat="45.15604" lon="5.67504">
        <ele>402</ele>
        <time>2014-06-28T06:28:22.000Z</time>
      </trkpt>
      <trkpt lat="45.15602" lon="5.67504">
        <ele>402</ele>
        <time>2014-06-28T06:28:23.000Z</time>
      </trkpt>
      <trkpt lat="45.156" lon="5.67503">
        <ele>402</ele>
        <time>2014-06-28T06:28:24.000Z</time>
      </trkpt>
      <trkpt lat="45.15598" lon="5.67503">
        <ele>402</ele>
        <time>2014-06-28T06:28:25.000Z</time>
      </trkpt>
      <trkpt lat="45.15596" lon="5.67503">
        <ele>402</ele>
        <time>2014-06-28T06:28:26.000Z</time>
      </trkpt>
      <trkpt lat="45.15594" lon="5.67502">
        <ele>402</ele>
        <time>2014-06-28T06:28:27.000Z</time>
      </trkpt>
      <trkpt lat="45.15592" lon="5.67501">
        <ele>402</ele>
        <time>2014-06-28T06:28:28.000Z</time>
      </trkpt>
      <trkpt lat="45.1559" lon="5.675">
        <ele>402</ele>
        <time>2014-06-28T06:28:29.000Z</time>
      </trkpt>
      <trkpt lat="45.15587" lon="5.67499">
        <ele>402</ele>
        <time>2014-06-28T06:28:30.000Z</time>
      </trkpt>
      <trkpt lat="45.15585" lon="5.67498">
        <ele>402</ele>
        <time>2014-06-28T06:28:31.000Z</time>
      </trkpt>
      <trkpt lat="45.15583" lon="5.67498">
        <ele>402</ele>
        <time>2014-06-28T06:28:32.000Z</time>
      </trkpt>
      <trkpt lat="45.15581" lon="5.67497">
        <ele>402</ele>
        <time>2014-06-28T06:28:33.000Z</time>
      </trkpt>
      <trkpt lat="45.15578" lon="5.67496">
        <ele>403</ele>
        <time>2014-06-28T06:28:34.000Z</time>
      </trkpt>
      <trkpt lat="45.15576" lon="5.67495">
        <ele>403</ele>
        <time>2014-06-28T06:28:35.000Z</time>
      </trkpt>
      <trkpt lat="45.15574" lon="5.67495">
        <ele>403</ele>
        <time>2014-06-28T06:28:36.000Z</time>
      </trkpt>
      <trkpt lat="45.15571" lon="5.67494">
        <ele>403</ele>
        <time>2014-06-28T06:28:37.000Z</time>
      </trkpt>
      <trkpt lat="45.15569" lon="5.67493">
        <ele>403</ele>
        <time>2014-06-28T06:28:38.000Z</time>
      </trkpt>
      <trkpt lat="45.15567" lon="5.67492">
        <ele>403</ele>
        <time>2014-06-28T06:28:39.000Z</time>
      </trkpt>
      <trkpt lat="45.15564" lon="5.67492">
        <ele>403</ele>
        <time>2014-06-28T06:28:40.000Z</time>
      </trkpt>
      <trkpt lat="45.15562" lon="5.67491">
        <ele>403</ele>
        <time>2014-06-28T06:28:41.000Z</time>
      </trkpt>
      <trkpt lat="45.1556" lon="5.6749">
        <ele>403</ele>
        <time>2014-06-28T06:28:42.000Z</time>
      </trkpt>
      <trkpt lat="45.15558" lon="5.67489">
        <ele>404</ele>
        <time>2014-06-28T06:28:43.000Z</time>
      </trkpt>
      <trkpt lat="45.15556" lon="5.67487">
        <ele>404</ele>
        <time>2014-06-28T06:28:44.000Z</time>
      </trkpt>
      <trkpt lat="45.15554" lon="5.67486">
        <ele>404</ele>
        <time>2014-06-28T06:28:45.000Z</time>
      </trkpt>
      <trkpt lat="45.15552" lon="5.67484">
        <ele>404</ele>
        <time>2014-06-28T06:28:46.000Z</time>
      </trkpt>
      <trkpt lat="45.15551" lon="5.67482">
        <ele>404</ele>
        <time>2014-06-28T06:28:47.000Z</time>
      </trkpt>
      <trkpt lat="45.15549" lon="5.6748">
        <ele>404</ele>
        <time>2014-06-28T06:28:48.000Z</time>
      </trkpt>
      <trkpt lat="45.15549" lon="5.67478">
        <ele>404</ele>
        <time>2014-06-28T06:28:49.000Z</time>
      </trkpt>
      <trkpt lat="45.15548" lon="5.67475">
        <ele>404</ele>
        <time>2014-06-28T06:28:50.000Z</time>
      </trkpt>
      <trkpt lat="45.15547" lon="5.67473">
        <ele>405</ele>
        <time>2014-06-28T06:28:51.000Z</time>
      </trkpt>
      <trkpt lat="45.15546" lon="5.6747">
        <ele>405</ele>
        <time>2014-06-28T06:28:52.000Z</time>
      </trkpt>
      <trkpt lat="45.15544" lon="5.67468">
        <ele>405</ele>
        <time>2014-06-28T06:28:53.000Z</time>
      </trkpt>
      <trkpt lat="45.15543" lon="5.67466">
        <ele>405</ele>
        <time>2014-06-28T06:28:54.000Z</time>
      </trkpt>
      <trkpt lat="45.15541" lon="5.67464">
        <ele>405</ele>
        <time>2014-06-28T06:28:55.000Z</time>
      </trkpt>
      <trkpt lat="45.15539" lon="5.67463">
        <ele>405</ele>
        <time>2014-06-28T06:28:56.000Z</time>
      </trkpt>
      <trkpt lat="45.15537" lon="5.67462">
        <ele>405</ele>
        <time>2014-06-28T06:28:57.000Z</time>
      </trkpt>
      <trkpt lat="45.15535" lon="5.67461">
        <ele>406</ele>
        <time>2014-06-28T06:28:58.000Z</time>
      </trkpt>
      <trkpt lat="45.15534" lon="5.6746">
        <ele>406</ele>
        <time>2014-06-28T06:28:59.000Z</time>
      </trkpt>
      <trkpt lat="45.15532" lon="5.67459">
        <ele>406</ele>
        <time>2014-06-28T06:29:00.000Z</time>
      </trkpt>
      <trkpt lat="45.1553" lon="5.67457">
        <ele>406</ele>
        <time>2014-06-28T06:29:01.000Z</time>
      </trkpt>
      <trkpt lat="45.15528" lon="5.67456">
        <ele>407</ele>
        <time>2014-06-28T06:29:02.000Z</time>
      </trkpt>
      <trkpt lat="45.15526" lon="5.67455">
        <ele>407</ele>
        <time>2014-06-28T06:29:03.000Z</time>
      </trkpt>
      <trkpt lat="45.15523" lon="5.67454">
        <ele>407</ele>
        <time>2014-06-28T06:29:04.000Z</time>
      </trkpt>
      <trkpt lat="45.15521" lon="5.67452">
        <ele>407</ele>
        <time>2014-06-28T06:29:05.000Z</time>
      </trkpt>
      <trkpt lat="45.15519" lon="5.67451">
        <ele>407</ele>
        <time>2014-06-28T06:29:06.000Z</time>
      </trkpt>
      <trkpt lat="45.15516" lon="5.6745">
        <ele>407</ele>
        <time>2014-06-28T06:29:07.000Z</time>
      </trkpt>
      <trkpt lat="45.15514" lon="5.67449">
        <ele>407</ele>
        <time>2014-06-28T06:29:08.000Z</time>
      </trkpt>
      <trkpt lat="45.15512" lon="5.67448">
        <ele>407</ele>
        <time>2014-06-28T06:29:09.000Z</time>
      </trkpt>
      <trkpt lat="45.1551" lon="5.67448">
        <ele>408</ele>
        <time>2014-06-28T06:29:10.000Z</time>
      </trkpt>
      <trkpt lat="45.15508" lon="5.67447">
        <ele>408</ele>
        <time>2014-06-28T06:29:11.000Z</time>
      </trkpt>
      <trkpt lat="45.15507" lon="5.67447">
        <ele>408</ele>
        <time>2014-06-28T06:29:12.000Z</time>
      </trkpt>
      <trkpt lat="45.15505" lon="5.67447">
        <ele>408</ele>
        <time>2014-06-28T06:29:13.000Z</time>
      </trkpt>
      <trkpt lat="45.15504" lon="5.67447">
        <ele>408</ele>
        <time>2014-06-28T06:29:14.000Z</time>
      </trkpt>
      <trkpt lat="45.15503" lon="5.67447">
        <ele>408</ele>
        <time>2014-06-28T06:29:15.000Z</time>
      </trkpt>
      <trkpt lat="45.15502" lon="5.67447">
        <ele>408</ele>
        <time>2014-06-28T06:29:16.000Z</time>
      </trkpt>
      <trkpt lat="45.15502" lon="5.67447">
        <ele>408</ele>
        <time>2014-06-28T06:29:17.000Z</time>
      </trkpt>
      <trkpt lat="45.15502" lon="5.67447">
        <ele>408</ele>
        <time>2014-06-28T06:29:18.000Z</time>
      </trkpt>
      <trkpt lat="45.15502" lon="5.67447">
        <ele>408</ele>
        <time>2014-06-28T06:29:19.000Z</time>
      </trkpt>
      <trkpt lat="45.15502" lon="5.67448">
        <ele>408</ele>
        <time>2014-06-28T06:29:20.000Z</time>
      </trkpt>
      <trkpt lat="45.15502" lon="5.67448">
        <ele>408</ele>
        <time>2014-06-28T06:29:21.000Z</time>
      </trkpt>
      <trkpt lat="45.15502" lon="5.67448">
        <ele>408</ele>
        <time>2014-06-28T06:29:22.000Z</time>
      </trkpt>
      <trkpt lat="45.15502" lon="5.67448">
        <ele>408</ele>
        <time>2014-06-28T06:29:23.000Z</time>
      </trkpt>
      <trkpt lat="45.15502" lon="5.67448">
        <ele>408</ele>
        <time>2014-06-28T06:29:24.000Z</time>
      </trkpt>
      <trkpt lat="45.15502" lon="5.67448">
        <ele>408</ele>
        <time>2014-06-28T06:29:25.000Z</time>
      </trkpt>
      <trkpt lat="45.15502" lon="5.67448">
        <ele>408</ele>
        <time>2014-06-28T06:29:26.000Z</time>
      </trkpt>
      <trkpt lat="45.15502" lon="5.67447">
        <ele>408</ele>
        <time>2014-06-28T06:29:27.000Z</time>
      </trkpt>
      <trkpt lat="45.15502" lon="5.67448">
        <ele>408</ele>
        <time>2014-06-28T06:29:28.000Z</time>
      </trkpt>
      <trkpt lat="45.15502" lon="5.67448">
        <ele>408</ele>
        <time>2014-06-28T06:29:29.000Z</time>
      </trkpt>
      <trkpt lat="45.15503" lon="5.67448">
        <ele>408</ele>
        <time>2014-06-28T06:29:30.000Z</time>
      </trkpt>
      <trkpt lat="45.15503" lon="5.67448">
        <ele>408</ele>
        <time>2014-06-28T06:29:31.000Z</time>
      </trkpt>
      <trkpt lat="45.15503" lon="5.67448">
        <ele>408</ele>
        <time>2014-06-28T06:29:32.000Z</time>
      </trkpt>
      <trkpt lat="45.15503" lon="5.67448">
        <ele>408</ele>
        <time>2014-06-28T06:29:33.000Z</time>
      </trkpt>
      <trkpt lat="45.15503" lon="5.67448">
        <ele>408</ele>
        <time>2014-06-28T06:29:34.000Z</time>
      </trkpt>
      <trkpt lat="45.15503" lon="5.67448">
        <ele>408</ele>
        <time>2014-06-28T06:29:35.000Z</time>
      </trkpt>
      <trkpt lat="45.15503" lon="5.67448">
        <ele>408</ele>
        <time>2014-06-28T06:29:36.000Z</time>
      </trkpt>
      <trkpt lat="45.15503" lon="5.67448">
        <ele>408</ele>
        <time>2014-06-28T06:29:37.000Z</time>
      </trkpt>
      <trkpt lat="45.15503" lon="5.67448">
        <ele>408</ele>
        <time>2014-06-28T06:29:38.000Z</time>
      </trkpt>
      <trkpt lat="45.15503" lon="5.67448">
        <ele>408</ele>
        <time>2014-06-28T06:29:39.000Z</time>
      </trkpt>
      <trkpt lat="45.15503" lon="5.67448">
        <ele>408</ele>
        <time>2014-06-28T06:29:40.000Z</time>
      </trkpt>
      <trkpt lat="45.15503" lon="5.67448">
        <ele>408</ele>
        <time>2014-06-28T06:29:41.000Z</time>
      </trkpt>
      <trkpt lat="45.15503" lon="5.67448">
        <ele>408</ele>
        <time>2014-06-28T06:29:42.000Z</time>
      </trkpt>
      <trkpt lat="45.15503" lon="5.67448">
        <ele>408</ele>
        <time>2014-06-28T06:29:43.000Z</time>
      </trkpt>
      <trkpt lat="45.15503" lon="5.67448">
        <ele>408</ele>
        <time>2014-06-28T06:29:44.000Z</time>
      </trkpt>
      <trkpt lat="45.15503" lon="5.67448">
        <ele>408</ele>
        <time>2014-06-28T06:29:45.000Z</time>
      </trkpt>
      <trkpt lat="45.15502" lon="5.67448">
        <ele>408</ele>
        <time>2014-06-28T06:29:46.000Z</time>
      </trkpt>
      <trkpt lat="45.15501" lon="5.67447">
        <ele>408</ele>
        <time>2014-06-28T06:29:47.000Z</time>
      </trkpt>
      <trkpt lat="45.15501" lon="5.67447">
        <ele>408</ele>
        <time>2014-06-28T06:29:48.000Z</time>
      </trkpt>
      <trkpt lat="45.15501" lon="5.67447">
        <ele>408</ele>
        <time>2014-06-28T06:29:49.000Z</time>
      </trkpt>
      <trkpt lat="45.15501" lon="5.67447">
        <ele>408</ele>
        <time>2014-06-28T06:29:50.000Z</time>
      </trkpt>
      <trkpt lat="45.15501" lon="5.67447">
        <ele>408</ele>
        <time>2014-06-28T06:29:51.000Z</time>
      </trkpt>
      <trkpt lat="45.15501" lon="5.67447">
        <ele>408</ele>
        <time>2014-06-28T06:29:52.000Z</time>
      </trkpt>
      <trkpt lat="45.15501" lon="5.67447">
        <ele>408</ele>
        <time>2014-06-28T06:29:53.000Z</time>
      </trkpt>
      <trkpt lat="45.15501" lon="5.67447">
        <ele>409</ele>
        <time>2014-06-28T06:29:54.000Z</time>
      </trkpt>
      <trkpt lat="45.15501" lon="5.67447">
        <ele>409</ele>
        <time>2014-06-28T06:29:55.000Z</time>
      </trkpt>
      <trkpt lat="45.15501" lon="5.67447">
        <ele>409</ele>
        <time>2014-06-28T06:29:56.000Z</time>
      </trkpt>
      <trkpt lat="45.15501" lon="5.67447">
        <ele>409</ele>
        <time>2014-06-28T06:29:57.000Z</time>
      </trkpt>
      <trkpt lat="45.15502" lon="5.67447">
        <ele>409</ele>
        <time>2014-06-28T06:29:58.000Z</time>
      </trkpt>
      <trkpt lat="45.15502" lon="5.67448">
        <ele>409</ele>
        <time>2014-06-28T06:29:59.000Z</time>
      </trkpt>
      <trkpt lat="45.15502" lon="5.67448">
        <ele>409</ele>
        <time>2014-06-28T06:30:00.000Z</time>
      </trkpt>
      <trkpt lat="45.15502" lon="5.67449">
        <ele>409</ele>
        <time>2014-06-28T06:30:01.000Z</time>
      </trkpt>
      <trkpt lat="45.15502" lon="5.67449">
        <ele>409</ele>
        <time>2014-06-28T06:30:02.000Z</time>
      </trkpt>
      <trkpt lat="45.15502" lon="5.67449">
        <ele>409</ele>
        <time>2014-06-28T06:30:03.000Z</time>
      </trkpt>
      <trkpt lat="45.15502" lon="5.67449">
        <ele>409</ele>
        <time>2014-06-28T06:30:04.000Z</time>
      </trkpt>
      <trkpt lat="45.15501" lon="5.67449">
        <ele>409</ele>
        <time>2014-06-28T06:30:05.000Z</time>
      </trkpt>
      <trkpt lat="45.15501" lon="5.67449">
        <ele>409</ele>
        <time>2014-06-28T06:30:06.000Z</time>
      </trkpt>
      <trkpt lat="45.15501" lon="5.67449">
        <ele>409</ele>
        <time>2014-06-28T06:30:07.000Z</time>
      </trkpt>
      <trkpt lat="45.155" lon="5.6745">
        <ele>409</ele>
        <time>2014-06-28T06:30:08.000Z</time>
      </trkpt>
      <trkpt lat="45.15498" lon="5.6745">
        <ele>410</ele>
        <time>2014-06-28T06:30:09.000Z</time>
      </trkpt>
      <trkpt lat="45.15497" lon="5.6745">
        <ele>410</ele>
        <time>2014-06-28T06:30:10.000Z</time>
      </trkpt>
      <trkpt lat="45.15495" lon="5.6745">
        <ele>410</ele>
        <time>2014-06-28T06:30:11.000Z</time>
      </trkpt>
      <trkpt lat="45.15494" lon="5.6745">
        <ele>410</ele>
        <time>2014-06-28T06:30:12.000Z</time>
      </trkpt>
      <trkpt lat="45.15492" lon="5.6745">
        <ele>410</ele>
        <time>2014-06-28T06:30:13.000Z</time>
      </trkpt>
      <trkpt lat="45.1549" lon="5.6745">
        <ele>410</ele>
        <time>2014-06-28T06:30:14.000Z</time>
      </trkpt>
      <trkpt lat="45.15489" lon="5.6745">
        <ele>410</ele>
        <time>2014-06-28T06:30:15.000Z</time>
      </trkpt>
      <trkpt lat="45.15487" lon="5.6745">
        <ele>410</ele>
        <time>2014-06-28T06:30:16.000Z</time>
      </trkpt>
      <trkpt lat="45.15485" lon="5.6745">
        <ele>410</ele>
        <time>2014-06-28T06:30:17.000Z</time>
      </trkpt>
      <trkpt lat="45.15484" lon="5.6745">
        <ele>410</ele>
        <time>2014-06-28T06:30:18.000Z</time>
      </trkpt>
      <trkpt lat="45.15482" lon="5.6745">
        <ele>410</ele>
        <time>2014-06-28T06:30:19.000Z</time>
      </trkpt>
      <trkpt lat="45.1548" lon="5.6745">
        <ele>411</ele>
        <time>2014-06-28T06:30:20.000Z</time>
      </trkpt>
      <trkpt lat="45.15479" lon="5.6745">
        <ele>411</ele>
        <time>2014-06-28T06:30:21.000Z</time>
      </trkpt>
      <trkpt lat="45.15477" lon="5.6745">
        <ele>411</ele>
        <time>2014-06-28T06:30:22.000Z</time>
      </trkpt>
      <trkpt lat="45.15475" lon="5.6745">
        <ele>411</ele>
        <time>2014-06-28T06:30:23.000Z</time>
      </trkpt>
      <trkpt lat="45.15473" lon="5.6745">
        <ele>411</ele>
        <time>2014-06-28T06:30:24.000Z</time>
      </trkpt>
      <trkpt lat="45.15472" lon="5.67449">
        <ele>412</ele>
        <time>2014-06-28T06:30:25.000Z</time>
      </trkpt>
      <trkpt lat="45.1547" lon="5.67449">
        <ele>412</ele>
        <time>2014-06-28T06:30:26.000Z</time>
      </trkpt>
      <trkpt lat="45.15469" lon="5.67448">
        <ele>412</ele>
        <time>2014-06-28T06:30:27.000Z</time>
      </trkpt>
      <trkpt lat="45.15467" lon="5.67448">
        <ele>412</ele>
        <time>2014-06-28T06:30:28.000Z</time>
      </trkpt>
      <trkpt lat="45.15465" lon="5.67448">
        <ele>412</ele>
        <time>2014-06-28T06:30:29.000Z</time>
      </trkpt>
      <trkpt lat="45.15463" lon="5.67447">
        <ele>412</ele>
        <time>2014-06-28T06:30:30.000Z</time>
      </trkpt>
      <trkpt lat="45.15462" lon="5.67447">
        <ele>412</ele>
        <time>2014-06-28T06:30:31.000Z</time>
      </trkpt>
      <trkpt lat="45.1546" lon="5.67447">
        <ele>413</ele>
        <time>2014-06-28T06:30:32.000Z</time>
      </trkpt>
      <trkpt lat="45.15459" lon="5.67446">
        <ele>413</ele>
        <time>2014-06-28T06:30:33.000Z</time>
      </trkpt>
      <trkpt lat="45.15457" lon="5.67447">
        <ele>413</ele>
        <time>2014-06-28T06:30:34.000Z</time>
      </trkpt>
      <trkpt lat="45.15456" lon="5.67447">
        <ele>413</ele>
        <time>2014-06-28T06:30:35.000Z</time>
      </trkpt>
      <trkpt lat="45.15455" lon="5.67447">
        <ele>413</ele>
        <time>2014-06-28T06:30:36.000Z</time>
      </trkpt>
      <trkpt lat="45.15453" lon="5.67447">
        <ele>413</ele>
        <time>2014-06-28T06:30:37.000Z</time>
      </trkpt>
      <trkpt lat="45.15451" lon="5.67447">
        <ele>414</ele>
        <time>2014-06-28T06:30:38.000Z</time>
      </trkpt>
      <trkpt lat="45.1545" lon="5.67447">
        <ele>414</ele>
        <time>2014-06-28T06:30:39.000Z</time>
      </trkpt>
      <trkpt lat="45.15449" lon="5.67447">
        <ele>414</ele>
        <time>2014-06-28T06:30:40.000Z</time>
      </trkpt>
      <trkpt lat="45.15447" lon="5.67448">
        <ele>414</ele>
        <time>2014-06-28T06:30:41.000Z</time>
      </trkpt>
      <trkpt lat="45.15446" lon="5.67448">
        <ele>415</ele>
        <time>2014-06-28T06:30:42.000Z</time>
      </trkpt>
      <trkpt lat="45.15445" lon="5.67449">
        <ele>415</ele>
        <time>2014-06-28T06:30:43.000Z</time>
      </trkpt>
      <trkpt lat="45.15443" lon="5.67449">
        <ele>415</ele>
        <time>2014-06-28T06:30:44.000Z</time>
      </trkpt>
      <trkpt lat="45.15441" lon="5.67449">
        <ele>415</ele>
        <time>2014-06-28T06:30:45.000Z</time>
      </trkpt>
      <trkpt lat="45.15439" lon="5.6745">
        <ele>416</ele>
        <time>2014-06-28T06:30:46.000Z</time>
      </trkpt>
      <trkpt lat="45.15437" lon="5.6745">
        <ele>416</ele>
        <time>2014-06-28T06:30:47.000Z</time>
      </trkpt>
      <trkpt lat="45.15435" lon="5.6745">
        <ele>416</ele>
        <time>2014-06-28T06:30:48.000Z</time>
      </trkpt>
      <trkpt lat="45.15433" lon="5.67451">
        <ele>417</ele>
        <time>2014-06-28T06:30:49.000Z</time>
      </trkpt>
      <trkpt lat="45.15431" lon="5.67451">
        <ele>417</ele>
        <time>2014-06-28T06:30:50.000Z</time>
      </trkpt>
      <trkpt lat="45.15429" lon="5.67452">
        <ele>417</ele>
        <time>2014-06-28T06:30:51.000Z</time>
      </trkpt>
      <trkpt lat="45.15427" lon="5.67452">
        <ele>418</ele>
        <time>2014-06-28T06:30:52.000Z</time>
      </trkpt>
      <trkpt lat="45.15425" lon="5.67453">
        <ele>418</ele>
        <time>2014-06-28T06:30:53.000Z</time>
      </trkpt>
      <trkpt lat="45.15423" lon="5.67453">
        <ele>418</ele>
        <time>2014-06-28T06:30:54.000Z</time>
      </trkpt>
      <trkpt lat="45.15421" lon="5.67453">
        <ele>418</ele>
        <time>2014-06-28T06:30:55.000Z</time>
      </trkpt>
      <trkpt lat="45.15419" lon="5.67453">
        <ele>419</ele>
        <time>2014-06-28T06:30:56.000Z</time>
      </trkpt>
      <trkpt lat="45.15418" lon="5.67453">
        <ele>419</ele>
        <time>2014-06-28T06:30:57.000Z</time>
      </trkpt>
      <trkpt lat="45.15416" lon="5.67454">
        <ele>419</ele>
        <time>2014-06-28T06:30:58.000Z</time>
      </trkpt>
      <trkpt lat="45.15414" lon="5.67454">
        <ele>420</ele>
        <time>2014-06-28T06:30:59.000Z</time>
      </trkpt>
      <trkpt lat="45.15412" lon="5.67454">
        <ele>420</ele>
        <time>2014-06-28T06:31:00.000Z</time>
      </trkpt>
      <trkpt lat="45.1541" lon="5.67454">
        <ele>421</ele>
        <time>2014-06-28T06:31:01.000Z</time>
      </trkpt>
      <trkpt lat="45.15408" lon="5.67453">
        <ele>421</ele>
        <time>2014-06-28T06:31:02.000Z</time>
      </trkpt>
      <trkpt lat="45.15406" lon="5.67453">
        <ele>422</ele>
        <time>2014-06-28T06:31:03.000Z</time>
      </trkpt>
      <trkpt lat="45.15404" lon="5.67452">
        <ele>422</ele>
        <time>2014-06-28T06:31:04.000Z</time>
      </trkpt>
      <trkpt lat="45.15402" lon="5.67452">
        <ele>422</ele>
        <time>2014-06-28T06:31:05.000Z</time>
      </trkpt>
      <trkpt lat="45.154" lon="5.67452">
        <ele>423</ele>
        <time>2014-06-28T06:31:06.000Z</time>
      </trkpt>
      <trkpt lat="45.15398" lon="5.67452">
        <ele>423</ele>
        <time>2014-06-28T06:31:07.000Z</time>
      </trkpt>
      <trkpt lat="45.15395" lon="5.67452">
        <ele>423</ele>
        <time>2014-06-28T06:31:08.000Z</time>
      </trkpt>
      <trkpt lat="45.15393" lon="5.67452">
        <ele>423</ele>
        <time>2014-06-28T06:31:09.000Z</time>
      </trkpt>
      <trkpt lat="45.1539" lon="5.67452">
        <ele>424</ele>
        <time>2014-06-28T06:31:10.000Z</time>
      </trkpt>
      <trkpt lat="45.15388" lon="5.67451">
        <ele>424</ele>
        <time>2014-06-28T06:31:11.000Z</time>
      </trkpt>
      <trkpt lat="45.15385" lon="5.67451">
        <ele>424</ele>
        <time>2014-06-28T06:31:12.000Z</time>
      </trkpt>
      <trkpt lat="45.15383" lon="5.67451">
        <ele>424</ele>
        <time>2014-06-28T06:31:13.000Z</time>
      </trkpt>
      <trkpt lat="45.1538" lon="5.67452">
        <ele>425</ele>
        <time>2014-06-28T06:31:14.000Z</time>
      </trkpt>
      <trkpt lat="45.15377" lon="5.67453">
        <ele>425</ele>
        <time>2014-06-28T06:31:15.000Z</time>
      </trkpt>
      <trkpt lat="45.15375" lon="5.67453">
        <ele>425</ele>
        <time>2014-06-28T06:31:16.000Z</time>
      </trkpt>
      <trkpt lat="45.15372" lon="5.67454">
        <ele>425</ele>
        <time>2014-06-28T06:31:17.000Z</time>
      </trkpt>
      <trkpt lat="45.15369" lon="5.67455">
        <ele>426</ele>
        <time>2014-06-28T06:31:18.000Z</time>
      </trkpt>
      <trkpt lat="45.15366" lon="5.67456">
        <ele>426</ele>
        <time>2014-06-28T06:31:19.000Z</time>
      </trkpt>
      <trkpt lat="45.15363" lon="5.67456">
        <ele>426</ele>
        <time>2014-06-28T06:31:20.000Z</time>
      </trkpt>
      <trkpt lat="45.15361" lon="5.67457">
        <ele>426</ele>
        <time>2014-06-28T06:31:21.000Z</time>
      </trkpt>
      <trkpt lat="45.15358" lon="5.67457">
        <ele>426</ele>
        <time>2014-06-28T06:31:22.000Z</time>
      </trkpt>
      <trkpt lat="45.15356" lon="5.67458">
        <ele>427</ele>
        <time>2014-06-28T06:31:23.000Z</time>
      </trkpt>
      <trkpt lat="45.15353" lon="5.67459">
        <ele>427</ele>
        <time>2014-06-28T06:31:24.000Z</time>
      </trkpt>
      <trkpt lat="45.1535" lon="5.6746">
        <ele>427</ele>
        <time>2014-06-28T06:31:25.000Z</time>
      </trkpt>
      <trkpt lat="45.15348" lon="5.67461">
        <ele>427</ele>
        <time>2014-06-28T06:31:26.000Z</time>
      </trkpt>
      <trkpt lat="45.15345" lon="5.67462">
        <ele>427</ele>
        <time>2014-06-28T06:31:27.000Z</time>
      </trkpt>
      <trkpt lat="45.15343" lon="5.67463">
        <ele>427</ele>
        <time>2014-06-28T06:31:28.000Z</time>
      </trkpt>
      <trkpt lat="45.1534" lon="5.67464">
        <ele>427</ele>
        <time>2014-06-28T06:31:29.000Z</time>
      </trkpt>
      <trkpt lat="45.15338" lon="5.67464">
        <ele>427</ele>
        <time>2014-06-28T06:31:30.000Z</time>
      </trkpt>
      <trkpt lat="45.15336" lon="5.67464">
        <ele>427</ele>
        <time>2014-06-28T06:31:31.000Z</time>
      </trkpt>
      <trkpt lat="45.15334" lon="5.67465">
        <ele>427</ele>
        <time>2014-06-28T06:31:32.000Z</time>
      </trkpt>
      <trkpt lat="45.15331" lon="5.67465">
        <ele>427</ele>
        <time>2014-06-28T06:31:33.000Z</time>
      </trkpt>
      <trkpt lat="45.15329" lon="5.67466">
        <ele>427</ele>
        <time>2014-06-28T06:31:34.000Z</time>
      </trkpt>
      <trkpt lat="45.15327" lon="5.67467">
        <ele>427</ele>
        <time>2014-06-28T06:31:35.000Z</time>
      </trkpt>
      <trkpt lat="45.15325" lon="5.67467">
        <ele>427</ele>
        <time>2014-06-28T06:31:36.000Z</time>
      </trkpt>
      <trkpt lat="45.15323" lon="5.67467">
        <ele>427</ele>
        <time>2014-06-28T06:31:37.000Z</time>
      </trkpt>
      <trkpt lat="45.1532" lon="5.67467">
        <ele>427</ele>
        <time>2014-06-28T06:31:38.000Z</time>
      </trkpt>
      <trkpt lat="45.15318" lon="5.67467">
        <ele>427</ele>
        <time>2014-06-28T06:31:39.000Z</time>
      </trkpt>
      <trkpt lat="45.15315" lon="5.67466">
        <ele>427</ele>
        <time>2014-06-28T06:31:40.000Z</time>
      </trkpt>
      <trkpt lat="45.15313" lon="5.67466">
        <ele>427</ele>
        <time>2014-06-28T06:31:41.000Z</time>
      </trkpt>
      <trkpt lat="45.15311" lon="5.67465">
        <ele>427</ele>
        <time>2014-06-28T06:31:42.000Z</time>
      </trkpt>
      <trkpt lat="45.15309" lon="5.67465">
        <ele>427</ele>
        <time>2014-06-28T06:31:43.000Z</time>
      </trkpt>
      <trkpt lat="45.15307" lon="5.67465">
        <ele>427</ele>
        <time>2014-06-28T06:31:44.000Z</time>
      </trkpt>
      <trkpt lat="45.15305" lon="5.67465">
        <ele>427</ele>
        <time>2014-06-28T06:31:45.000Z</time>
      </trkpt>
      <trkpt lat="45.15303" lon="5.67465">
        <ele>427</ele>
        <time>2014-06-28T06:31:46.000Z</time>
      </trkpt>
      <trkpt lat="45.15301" lon="5.67466">
        <ele>427</ele>
        <time>2014-06-28T06:31:47.000Z</time>
      </trkpt>
      <trkpt lat="45.15299" lon="5.67466">
        <ele>427</ele>
        <time>2014-06-28T06:31:48.000Z</time>
      </trkpt>
      <trkpt lat="45.15297" lon="5.67467">
        <ele>427</ele>
        <time>2014-06-28T06:31:49.000Z</time>
      </trkpt>
      <trkpt lat="45.15295" lon="5.67467">
        <ele>427</ele>
        <time>2014-06-28T06:31:50.000Z</time>
      </trkpt>
      <trkpt lat="45.15293" lon="5.67467">
        <ele>427</ele>
        <time>2014-06-28T06:31:51.000Z</time>
      </trkpt>
      <trkpt lat="45.15291" lon="5.67468">
        <ele>426</ele>
        <time>2014-06-28T06:31:52.000Z</time>
      </trkpt>
      <trkpt lat="45.15289" lon="5.67468">
        <ele>426</ele>
        <time>2014-06-28T06:31:53.000Z</time>
      </trkpt>
      <trkpt lat="45.15287" lon="5.67469">
        <ele>426</ele>
        <time>2014-06-28T06:31:54.000Z</time>
      </trkpt>
      <trkpt lat="45.15285" lon="5.67469">
        <ele>426</ele>
        <time>2014-06-28T06:31:55.000Z</time>
      </trkpt>
      <trkpt lat="45.15283" lon="5.6747">
        <ele>426</ele>
        <time>2014-06-28T06:31:56.000Z</time>
      </trkpt>
      <trkpt lat="45.15281" lon="5.6747">
        <ele>426</ele>
        <time>2014-06-28T06:31:57.000Z</time>
      </trkpt>
      <trkpt lat="45.15279" lon="5.6747">
        <ele>426</ele>
        <time>2014-06-28T06:31:58.000Z</time>
      </trkpt>
      <trkpt lat="45.15277" lon="5.67471">
        <ele>426</ele>
        <time>2014-06-28T06:31:59.000Z</time>
      </trkpt>
      <trkpt lat="45.15275" lon="5.67471">
        <ele>426</ele>
        <time>2014-06-28T06:32:00.000Z</time>
      </trkpt>
      <trkpt lat="45.15274" lon="5.6747">
        <ele>427</ele>
        <time>2014-06-28T06:32:01.000Z</time>
      </trkpt>
      <trkpt lat="45.15272" lon="5.6747">
        <ele>427</ele>
        <time>2014-06-28T06:32:02.000Z</time>
      </trkpt>
      <trkpt lat="45.1527" lon="5.67469">
        <ele>427</ele>
        <time>2014-06-28T06:32:03.000Z</time>
      </trkpt>
      <trkpt lat="45.15268" lon="5.67469">
        <ele>427</ele>
        <time>2014-06-28T06:32:04.000Z</time>
      </trkpt>
      <trkpt lat="45.15266" lon="5.67469">
        <ele>427</ele>
        <time>2014-06-28T06:32:05.000Z</time>
      </trkpt>
      <trkpt lat="45.15265" lon="5.67468">
        <ele>427</ele>
        <time>2014-06-28T06:32:06.000Z</time>
      </trkpt>
      <trkpt lat="45.15263" lon="5.67467">
        <ele>427</ele>
        <time>2014-06-28T06:32:07.000Z</time>
      </trkpt>
      <trkpt lat="45.15262" lon="5.67466">
        <ele>428</ele>
        <time>2014-06-28T06:32:08.000Z</time>
      </trkpt>
      <trkpt lat="45.1526" lon="5.67465">
        <ele>428</ele>
        <time>2014-06-28T06:32:09.000Z</time>
      </trkpt>
      <trkpt lat="45.15258" lon="5.67464">
        <ele>428</ele>
        <time>2014-06-28T06:32:10.000Z</time>
      </trkpt>
      <trkpt lat="45.15257" lon="5.67463">
        <ele>428</ele>
        <time>2014-06-28T06:32:11.000Z</time>
      </trkpt>
      <trkpt lat="45.15255" lon="5.67461">
        <ele>428</ele>
        <time>2014-06-28T06:32:12.000Z</time>
      </trkpt>
      <trkpt lat="45.15254" lon="5.6746">
        <ele>428</ele>
        <time>2014-06-28T06:32:13.000Z</time>
      </trkpt>
      <trkpt lat="45.15252" lon="5.67459">
        <ele>429</ele>
        <time>2014-06-28T06:32:14.000Z</time>
      </trkpt>
      <trkpt lat="45.1525" lon="5.67457">
        <ele>429</ele>
        <time>2014-06-28T06:32:15.000Z</time>
      </trkpt>
      <trkpt lat="45.15249" lon="5.67456">
        <ele>429</ele>
        <time>2014-06-28T06:32:16.000Z</time>
      </trkpt>
      <trkpt lat="45.15247" lon="5.67455">
        <ele>429</ele>
        <time>2014-06-28T06:32:17.000Z</time>
      </trkpt>
      <trkpt lat="45.15245" lon="5.67454">
        <ele>429</ele>
        <time>2014-06-28T06:32:18.000Z</time>
      </trkpt>
      <trkpt lat="45.15244" lon="5.67452">
        <ele>430</ele>
        <time>2014-06-28T06:32:19.000Z</time>
      </trkpt>
      <trkpt lat="45.15242" lon="5.67451">
        <ele>430</ele>
        <time>2014-06-28T06:32:20.000Z</time>
      </trkpt>
      <trkpt lat="45.15241" lon="5.6745">
        <ele>430</ele>
        <time>2014-06-28T06:32:21.000Z</time>
      </trkpt>
      <trkpt lat="45.15239" lon="5.67449">
        <ele>430</ele>
        <time>2014-06-28T06:32:22.000Z</time>
      </trkpt>
      <trkpt lat="45.15237" lon="5.67447">
        <ele>430</ele>
        <time>2014-06-28T06:32:23.000Z</time>
      </trkpt>
      <trkpt lat="45.15236" lon="5.67446">
        <ele>430</ele>
        <time>2014-06-28T06:32:24.000Z</time>
      </trkpt>
      <trkpt lat="45.15234" lon="5.67444">
        <ele>430</ele>
        <time>2014-06-28T06:32:25.000Z</time>
      </trkpt>
      <trkpt lat="45.15232" lon="5.67443">
        <ele>431</ele>
        <time>2014-06-28T06:32:26.000Z</time>
      </trkpt>
      <trkpt lat="45.15231" lon="5.67441">
        <ele>431</ele>
        <time>2014-06-28T06:32:27.000Z</time>
      </trkpt>
      <trkpt lat="45.15229" lon="5.67439">
        <ele>431</ele>
        <time>2014-06-28T06:32:28.000Z</time>
      </trkpt>
      <trkpt lat="45.15227" lon="5.67438">
        <ele>431</ele>
        <time>2014-06-28T06:32:29.000Z</time>
      </trkpt>
      <trkpt lat="45.15225" lon="5.67437">
        <ele>431</ele>
        <time>2014-06-28T06:32:30.000Z</time>
      </trkpt>
      <trkpt lat="45.15224" lon="5.67435">
        <ele>431</ele>
        <time>2014-06-28T06:32:31.000Z</time>
      </trkpt>
      <trkpt lat="45.15222" lon="5.67434">
        <ele>432</ele>
        <time>2014-06-28T06:32:32.000Z</time>
      </trkpt>
      <trkpt lat="45.15221" lon="5.67431">
        <ele>432</ele>
        <time>2014-06-28T06:32:33.000Z</time>
      </trkpt>
      <trkpt lat="45.1522" lon="5.6743">
        <ele>432</ele>
        <time>2014-06-28T06:32:34.000Z</time>
      </trkpt>
      <trkpt lat="45.15218" lon="5.67428">
        <ele>432</ele>
        <time>2014-06-28T06:32:35.000Z</time>
      </trkpt>
      <trkpt lat="45.15217" lon="5.67426">
        <ele>432</ele>
        <time>2014-06-28T06:32:36.000Z</time>
      </trkpt>
      <trkpt lat="45.15215" lon="5.67425">
        <ele>433</ele>
        <time>2014-06-28T06:32:37.000Z</time>
      </trkpt>
      <trkpt lat="45.15214" lon="5.67423">
        <ele>433</ele>
        <time>2014-06-28T06:32:38.000Z</time>
      </trkpt>
      <trkpt lat="45.15213" lon="5.67421">
        <ele>433</ele>
        <time>2014-06-28T06:32:39.000Z</time>
      </trkpt>
      <trkpt lat="45.15212" lon="5.6742">
        <ele>433</ele>
        <time>2014-06-28T06:32:40.000Z</time>
      </trkpt>
      <trkpt lat="45.1521" lon="5.67418">
        <ele>433</ele>
        <time>2014-06-28T06:32:41.000Z</time>
      </trkpt>
      <trkpt lat="45.15208" lon="5.67417">
        <ele>433</ele>
        <time>2014-06-28T06:32:42.000Z</time>
      </trkpt>
      <trkpt lat="45.15207" lon="5.67415">
        <ele>434</ele>
        <time>2014-06-28T06:32:43.000Z</time>
      </trkpt>
      <trkpt lat="45.15205" lon="5.67414">
        <ele>434</ele>
        <time>2014-06-28T06:32:44.000Z</time>
      </trkpt>
      <trkpt lat="45.15204" lon="5.67413">
        <ele>434</ele>
        <time>2014-06-28T06:32:45.000Z</time>
      </trkpt>
      <trkpt lat="45.15202" lon="5.67412">
        <ele>434</ele>
        <time>2014-06-28T06:32:46.000Z</time>
      </trkpt>
      <trkpt lat="45.152" lon="5.6741">
        <ele>434</ele>
        <time>2014-06-28T06:32:47.000Z</time>
      </trkpt>
      <trkpt lat="45.15198" lon="5.67409">
        <ele>434</ele>
        <time>2014-06-28T06:32:48.000Z</time>
      </trkpt>
      <trkpt lat="45.15197" lon="5.67408">
        <ele>434</ele>
        <time>2014-06-28T06:32:49.000Z</time>
      </trkpt>
      <trkpt lat="45.15194" lon="5.67406">
        <ele>434</ele>
        <time>2014-06-28T06:32:50.000Z</time>
      </trkpt>
      <trkpt lat="45.15192" lon="5.67406">
        <ele>435</ele>
        <time>2014-06-28T06:32:51.000Z</time>
      </trkpt>
      <trkpt lat="45.1519" lon="5.67405">
        <ele>435</ele>
        <time>2014-06-28T06:32:52.000Z</time>
      </trkpt>
      <trkpt lat="45.15188" lon="5.67404">
        <ele>435</ele>
        <time>2014-06-28T06:32:53.000Z</time>
      </trkpt>
      <trkpt lat="45.15186" lon="5.67404">
        <ele>435</ele>
        <time>2014-06-28T06:32:54.000Z</time>
      </trkpt>
      <trkpt lat="45.15184" lon="5.67403">
        <ele>434</ele>
        <time>2014-06-28T06:32:55.000Z</time>
      </trkpt>
      <trkpt lat="45.15183" lon="5.67402">
        <ele>434</ele>
        <time>2014-06-28T06:32:56.000Z</time>
      </trkpt>
      <trkpt lat="45.15181" lon="5.67401">
        <ele>434</ele>
        <time>2014-06-28T06:32:57.000Z</time>
      </trkpt>
      <trkpt lat="45.15179" lon="5.67401">
        <ele>434</ele>
        <time>2014-06-28T06:32:58.000Z</time>
      </trkpt>
      <trkpt lat="45.15177" lon="5.674">
        <ele>434</ele>
        <time>2014-06-28T06:32:59.000Z</time>
      </trkpt>
      <trkpt lat="45.15174" lon="5.674">
        <ele>434</ele>
        <time>2014-06-28T06:33:00.000Z</time>
      </trkpt>
      <trkpt lat="45.15172" lon="5.674">
        <ele>434</ele>
        <time>2014-06-28T06:33:01.000Z</time>
      </trkpt>
      <trkpt lat="45.1517" lon="5.674">
        <ele>434</ele>
        <time>2014-06-28T06:33:02.000Z</time>
      </trkpt>
      <trkpt lat="45.15168" lon="5.67399">
        <ele>434</ele>
        <time>2014-06-28T06:33:03.000Z</time>
      </trkpt>
      <trkpt lat="45.15166" lon="5.67399">
        <ele>434</ele>
        <time>2014-06-28T06:33:04.000Z</time>
      </trkpt>
      <trkpt lat="45.15164" lon="5.67397">
        <ele>434</ele>
        <time>2014-06-28T06:33:05.000Z</time>
      </trkpt>
      <trkpt lat="45.15163" lon="5.67396">
        <ele>434</ele>
        <time>2014-06-28T06:33:06.000Z</time>
      </trkpt>
      <trkpt lat="45.15162" lon="5.67394">
        <ele>434</ele>
        <time>2014-06-28T06:33:07.000Z</time>
      </trkpt>
      <trkpt lat="45.15161" lon="5.67393">
        <ele>435</ele>
        <time>2014-06-28T06:33:08.000Z</time>
      </trkpt>
      <trkpt lat="45.15161" lon="5.67392">
        <ele>435</ele>
        <time>2014-06-28T06:33:09.000Z</time>
      </trkpt>
      <trkpt lat="45.1516" lon="5.6739">
        <ele>435</ele>
        <time>2014-06-28T06:33:10.000Z</time>
      </trkpt>
      <trkpt lat="45.1516" lon="5.67389">
        <ele>436</ele>
        <time>2014-06-28T06:33:11.000Z</time>
      </trkpt>
      <trkpt lat="45.1516" lon="5.67387">
        <ele>436</ele>
        <time>2014-06-28T06:33:12.000Z</time>
      </trkpt>
      <trkpt lat="45.15159" lon="5.67386">
        <ele>436</ele>
        <time>2014-06-28T06:33:13.000Z</time>
      </trkpt>
      <trkpt lat="45.15159" lon="5.67385">
        <ele>436</ele>
        <time>2014-06-28T06:33:14.000Z</time>
      </trkpt>
      <trkpt lat="45.15159" lon="5.67383">
        <ele>436</ele>
        <time>2014-06-28T06:33:15.000Z</time>
      </trkpt>
      <trkpt lat="45.15159" lon="5.67381">
        <ele>437</ele>
        <time>2014-06-28T06:33:16.000Z</time>
      </trkpt>
      <trkpt lat="45.15159" lon="5.6738">
        <ele>437</ele>
        <time>2014-06-28T06:33:17.000Z</time>
      </trkpt>
      <trkpt lat="45.15158" lon="5.67379">
        <ele>437</ele>
        <time>2014-06-28T06:33:18.000Z</time>
      </trkpt>
      <trkpt lat="45.15158" lon="5.67377">
        <ele>437</ele>
        <time>2014-06-28T06:33:19.000Z</time>
      </trkpt>
      <trkpt lat="45.15158" lon="5.67376">
        <ele>438</ele>
        <time>2014-06-28T06:33:20.000Z</time>
      </trkpt>
      <trkpt lat="45.15157" lon="5.67375">
        <ele>438</ele>
        <time>2014-06-28T06:33:21.000Z</time>
      </trkpt>
      <trkpt lat="45.15157" lon="5.67374">
        <ele>438</ele>
        <time>2014-06-28T06:33:22.000Z</time>
      </trkpt>
      <trkpt lat="45.15156" lon="5.67372">
        <ele>439</ele>
        <time>2014-06-28T06:33:23.000Z</time>
      </trkpt>
      <trkpt lat="45.15156" lon="5.67371">
        <ele>439</ele>
        <time>2014-06-28T06:33:24.000Z</time>
      </trkpt>
      <trkpt lat="45.15156" lon="5.67369">
        <ele>439</ele>
        <time>2014-06-28T06:33:25.000Z</time>
      </trkpt>
      <trkpt lat="45.15155" lon="5.67368">
        <ele>439</ele>
        <time>2014-06-28T06:33:26.000Z</time>
      </trkpt>
      <trkpt lat="45.15155" lon="5.67366">
        <ele>440</ele>
        <time>2014-06-28T06:33:27.000Z</time>
      </trkpt>
      <trkpt lat="45.15154" lon="5.67365">
        <ele>440</ele>
        <time>2014-06-28T06:33:28.000Z</time>
      </trkpt>
      <trkpt lat="45.15154" lon="5.67363">
        <ele>440</ele>
        <time>2014-06-28T06:33:29.000Z</time>
      </trkpt>
      <trkpt lat="45.15153" lon="5.67361">
        <ele>441</ele>
        <time>2014-06-28T06:33:30.000Z</time>
      </trkpt>
      <trkpt lat="45.15153" lon="5.6736">
        <ele>441</ele>
        <time>2014-06-28T06:33:31.000Z</time>
      </trkpt>
      <trkpt lat="45.15152" lon="5.67358">
        <ele>441</ele>
        <time>2014-06-28T06:33:32.000Z</time>
      </trkpt>
      <trkpt lat="45.15151" lon="5.67356">
        <ele>442</ele>
        <time>2014-06-28T06:33:33.000Z</time>
      </trkpt>
      <trkpt lat="45.15151" lon="5.67354">
        <ele>442</ele>
        <time>2014-06-28T06:33:34.000Z</time>
      </trkpt>
      <trkpt lat="45.1515" lon="5.67353">
        <ele>443</ele>
        <time>2014-06-28T06:33:35.000Z</time>
      </trkpt>
      <trkpt lat="45.15149" lon="5.67351">
        <ele>443</ele>
        <time>2014-06-28T06:33:36.000Z</time>
      </trkpt>
      <trkpt lat="45.15148" lon="5.67349">
        <ele>443</ele>
        <time>2014-06-28T06:33:37.000Z</time>
      </trkpt>
      <trkpt lat="45.15148" lon="5.67347">
        <ele>444</ele>
        <time>2014-06-28T06:33:38.000Z</time>
      </trkpt>
      <trkpt lat="45.15147" lon="5.67345">
        <ele>444</ele>
        <time>2014-06-28T06:33:39.000Z</time>
      </trkpt>
      <trkpt lat="45.15146" lon="5.67344">
        <ele>445</ele>
        <time>2014-06-28T06:33:40.000Z</time>
      </trkpt>
      <trkpt lat="45.15146" lon="5.67342">
        <ele>445</ele>
        <time>2014-06-28T06:33:41.000Z</time>
      </trkpt>
      <trkpt lat="45.15145" lon="5.67341">
        <ele>446</ele>
        <time>2014-06-28T06:33:42.000Z</time>
      </trkpt>
      <trkpt lat="45.15144" lon="5.6734">
        <ele>446</ele>
        <time>2014-06-28T06:33:43.000Z</time>
      </trkpt>
      <trkpt lat="45.15143" lon="5.67338">
        <ele>446</ele>
        <time>2014-06-28T06:33:44.000Z</time>
      </trkpt>
      <trkpt lat="45.15143" lon="5.67337">
        <ele>447</ele>
        <time>2014-06-28T06:33:45.000Z</time>
      </trkpt>
      <trkpt lat="45.15142" lon="5.67335">
        <ele>447</ele>
        <time>2014-06-28T06:33:46.000Z</time>
      </trkpt>
      <trkpt lat="45.15141" lon="5.67334">
        <ele>448</ele>
        <time>2014-06-28T06:33:47.000Z</time>
      </trkpt>
      <trkpt lat="45.1514" lon="5.67332">
        <ele>448</ele>
        <time>2014-06-28T06:33:48.000Z</time>
      </trkpt>
      <trkpt lat="45.1514" lon="5.67331">
        <ele>449</ele>
        <time>2014-06-28T06:33:49.000Z</time>
      </trkpt>
      <trkpt lat="45.15139" lon="5.6733">
        <ele>449</ele>
        <time>2014-06-28T06:33:50.000Z</time>
      </trkpt>
      <trkpt lat="45.15139" lon="5.67329">
        <ele>449</ele>
        <time>2014-06-28T06:33:51.000Z</time>
      </trkpt>
      <trkpt lat="45.15138" lon="5.67328">
        <ele>450</ele>
        <time>2014-06-28T06:33:52.000Z</time>
      </trkpt>
      <trkpt lat="45.15137" lon="5.67327">
        <ele>450</ele>
        <time>2014-06-28T06:33:53.000Z</time>
      </trkpt>
      <trkpt lat="45.15136" lon="5.67326">
        <ele>451</ele>
        <time>2014-06-28T06:33:54.000Z</time>
      </trkpt>
      <trkpt lat="45.15135" lon="5.67325">
        <ele>451</ele>
        <time>2014-06-28T06:33:55.000Z</time>
      </trkpt>
      <trkpt lat="45.15135" lon="5.67323">
        <ele>451</ele>
        <time>2014-06-28T06:33:56.000Z</time>
      </trkpt>
      <trkpt lat="45.15134" lon="5.67322">
        <ele>452</ele>
        <time>2014-06-28T06:33:57.000Z</time>
      </trkpt>
      <trkpt lat="45.15133" lon="5.67321">
        <ele>452</ele>
        <time>2014-06-28T06:33:58.000Z</time>
      </trkpt>
      <trkpt lat="45.15132" lon="5.6732">
        <ele>453</ele>
        <time>2014-06-28T06:33:59.000Z</time>
      </trkpt>
      <trkpt lat="45.15131" lon="5.67318">
        <ele>453</ele>
        <time>2014-06-28T06:34:00.000Z</time>
      </trkpt>
      <trkpt lat="45.1513" lon="5.67317">
        <ele>453</ele>
        <time>2014-06-28T06:34:01.000Z</time>
      </trkpt>
      <trkpt lat="45.15129" lon="5.67316">
        <ele>454</ele>
        <time>2014-06-28T06:34:02.000Z</time>
      </trkpt>
      <trkpt lat="45.15128" lon="5.67315">
        <ele>454</ele>
        <time>2014-06-28T06:34:03.000Z</time>
      </trkpt>
      <trkpt lat="45.15127" lon="5.67313">
        <ele>455</ele>
        <time>2014-06-28T06:34:04.000Z</time>
      </trkpt>
      <trkpt lat="45.15126" lon="5.67312">
        <ele>455</ele>
        <time>2014-06-28T06:34:05.000Z</time>
      </trkpt>
      <trkpt lat="45.15125" lon="5.6731">
        <ele>456</ele>
        <time>2014-06-28T06:34:06.000Z</time>
      </trkpt>
      <trkpt lat="45.15125" lon="5.67308">
        <ele>456</ele>
        <time>2014-06-28T06:34:07.000Z</time>
      </trkpt>
      <trkpt lat="45.15124" lon="5.67306">
        <ele>457</ele>
        <time>2014-06-28T06:34:08.000Z</time>
      </trkpt>
      <trkpt lat="45.15124" lon="5.67304">
        <ele>458</ele>
        <time>2014-06-28T06:34:09.000Z</time>
      </trkpt>
      <trkpt lat="45.15123" lon="5.67303">
        <ele>458</ele>
        <time>2014-06-28T06:34:10.000Z</time>
      </trkpt>
      <trkpt lat="45.15123" lon="5.67301">
        <ele>459</ele>
        <time>2014-06-28T06:34:11.000Z</time>
      </trkpt>
      <trkpt lat="45.15124" lon="5.673">
        <ele>459</ele>
        <time>2014-06-28T06:34:12.000Z</time>
      </trkpt>
      <trkpt lat="45.15124" lon="5.67298">
        <ele>460</ele>
        <time>2014-06-28T06:34:13.000Z</time>
      </trkpt>
      <trkpt lat="45.15125" lon="5.67297">
        <ele>460</ele>
        <time>2014-06-28T06:34:14.000Z</time>
      </trkpt>
      <trkpt lat="45.15125" lon="5.67296">
        <ele>460</ele>
        <time>2014-06-28T06:34:15.000Z</time>
      </trkpt>
      <trkpt lat="45.15125" lon="5.67296">
        <ele>461</ele>
        <time>2014-06-28T06:34:16.000Z</time>
      </trkpt>
      <trkpt lat="45.15126" lon="5.67295">
        <ele>461</ele>
        <time>2014-06-28T06:34:17.000Z</time>
      </trkpt>
      <trkpt lat="45.15126" lon="5.67294">
        <ele>462</ele>
        <time>2014-06-28T06:34:18.000Z</time>
      </trkpt>
      <trkpt lat="45.15126" lon="5.67293">
        <ele>462</ele>
        <time>2014-06-28T06:34:19.000Z</time>
      </trkpt>
      <trkpt lat="45.15127" lon="5.67292">
        <ele>462</ele>
        <time>2014-06-28T06:34:20.000Z</time>
      </trkpt>
      <trkpt lat="45.15128" lon="5.67292">
        <ele>463</ele>
        <time>2014-06-28T06:34:21.000Z</time>
      </trkpt>
      <trkpt lat="45.15129" lon="5.67291">
        <ele>463</ele>
        <time>2014-06-28T06:34:22.000Z</time>
      </trkpt>
      <trkpt lat="45.15129" lon="5.67291">
        <ele>463</ele>
        <time>2014-06-28T06:34:23.000Z</time>
      </trkpt>
      <trkpt lat="45.1513" lon="5.6729">
        <ele>464</ele>
        <time>2014-06-28T06:34:24.000Z</time>
      </trkpt>
      <trkpt lat="45.15132" lon="5.67288">
        <ele>464</ele>
        <time>2014-06-28T06:34:25.000Z</time>
      </trkpt>
      <trkpt lat="45.15133" lon="5.67287">
        <ele>465</ele>
        <time>2014-06-28T06:34:26.000Z</time>
      </trkpt>
      <trkpt lat="45.15134" lon="5.67285">
        <ele>465</ele>
        <time>2014-06-28T06:34:27.000Z</time>
      </trkpt>
      <trkpt lat="45.15136" lon="5.67284">
        <ele>465</ele>
        <time>2014-06-28T06:34:28.000Z</time>
      </trkpt>
      <trkpt lat="45.15137" lon="5.67283">
        <ele>466</ele>
        <time>2014-06-28T06:34:29.000Z</time>
      </trkpt>
      <trkpt lat="45.15138" lon="5.67282">
        <ele>466</ele>
        <time>2014-06-28T06:34:30.000Z</time>
      </trkpt>
      <trkpt lat="45.15139" lon="5.67281">
        <ele>466</ele>
        <time>2014-06-28T06:34:31.000Z</time>
      </trkpt>
      <trkpt lat="45.15141" lon="5.6728">
        <ele>467</ele>
        <time>2014-06-28T06:34:32.000Z</time>
      </trkpt>
      <trkpt lat="45.15142" lon="5.67279">
        <ele>467</ele>
        <time>2014-06-28T06:34:33.000Z</time>
      </trkpt>
      <trkpt lat="45.15143" lon="5.67278">
        <ele>467</ele>
        <time>2014-06-28T06:34:34.000Z</time>
      </trkpt>
      <trkpt lat="45.15144" lon="5.67277">
        <ele>467</ele>
        <time>2014-06-28T06:34:35.000Z</time>
      </trkpt>
      <trkpt lat="45.15145" lon="5.67275">
        <ele>467</ele>
        <time>2014-06-28T06:34:36.000Z</time>
      </trkpt>
      <trkpt lat="45.15146" lon="5.67274">
        <ele>467</ele>
        <time>2014-06-28T06:34:37.000Z</time>
      </trkpt>
      <trkpt lat="45.15147" lon="5.67272">
        <ele>467</ele>
        <time>2014-06-28T06:34:38.000Z</time>
      </trkpt>
      <trkpt lat="45.15148" lon="5.67271">
        <ele>468</ele>
        <time>2014-06-28T06:34:39.000Z</time>
      </trkpt>
      <trkpt lat="45.15148" lon="5.67269">
        <ele>468</ele>
        <time>2014-06-28T06:34:40.000Z</time>
      </trkpt>
      <trkpt lat="45.15148" lon="5.67267">
        <ele>468</ele>
        <time>2014-06-28T06:34:41.000Z</time>
      </trkpt>
      <trkpt lat="45.15149" lon="5.67265">
        <ele>468</ele>
        <time>2014-06-28T06:34:42.000Z</time>
      </trkpt>
      <trkpt lat="45.15149" lon="5.67263">
        <ele>468</ele>
        <time>2014-06-28T06:34:43.000Z</time>
      </trkpt>
      <trkpt lat="45.15149" lon="5.67262">
        <ele>468</ele>
        <time>2014-06-28T06:34:44.000Z</time>
      </trkpt>
      <trkpt lat="45.1515" lon="5.6726">
        <ele>468</ele>
        <time>2014-06-28T06:34:45.000Z</time>
      </trkpt>
      <trkpt lat="45.1515" lon="5.67258">
        <ele>468</ele>
        <time>2014-06-28T06:34:46.000Z</time>
      </trkpt>
      <trkpt lat="45.1515" lon="5.67257">
        <ele>468</ele>
        <time>2014-06-28T06:34:47.000Z</time>
      </trkpt>
      <trkpt lat="45.15149" lon="5.67255">
        <ele>469</ele>
        <time>2014-06-28T06:34:48.000Z</time>
      </trkpt>
      <trkpt lat="45.15149" lon="5.67253">
        <ele>469</ele>
        <time>2014-06-28T06:34:49.000Z</time>
      </trkpt>
      <trkpt lat="45.15149" lon="5.67252">
        <ele>469</ele>
        <time>2014-06-28T06:34:50.000Z</time>
      </trkpt>
      <trkpt lat="45.15148" lon="5.6725">
        <ele>469</ele>
        <time>2014-06-28T06:34:51.000Z</time>
      </trkpt>
      <trkpt lat="45.15148" lon="5.67249">
        <ele>469</ele>
        <time>2014-06-28T06:34:52.000Z</time>
      </trkpt>
      <trkpt lat="45.15148" lon="5.67247">
        <ele>470</ele>
        <time>2014-06-28T06:34:53.000Z</time>
      </trkpt>
      <trkpt lat="45.15147" lon="5.67245">
        <ele>470</ele>
        <time>2014-06-28T06:34:54.000Z</time>
      </trkpt>
      <trkpt lat="45.15147" lon="5.67244">
        <ele>470</ele>
        <time>2014-06-28T06:34:55.000Z</time>
      </trkpt>
      <trkpt lat="45.15146" lon="5.67242">
        <ele>470</ele>
        <time>2014-06-28T06:34:56.000Z</time>
      </trkpt>
      <trkpt lat="45.15146" lon="5.6724">
        <ele>471</ele>
        <time>2014-06-28T06:34:57.000Z</time>
      </trkpt>
      <trkpt lat="45.15145" lon="5.67238">
        <ele>471</ele>
        <time>2014-06-28T06:34:58.000Z</time>
      </trkpt>
      <trkpt lat="45.15145" lon="5.67237">
        <ele>471</ele>
        <time>2014-06-28T06:34:59.000Z</time>
      </trkpt>
      <trkpt lat="45.15144" lon="5.67235">
        <ele>472</ele>
        <time>2014-06-28T06:35:00.000Z</time>
      </trkpt>
      <trkpt lat="45.15144" lon="5.67233">
        <ele>472</ele>
        <time>2014-06-28T06:35:01.000Z</time>
      </trkpt>
      <trkpt lat="45.15143" lon="5.67232">
        <ele>472</ele>
        <time>2014-06-28T06:35:02.000Z</time>
      </trkpt>
      <trkpt lat="45.15142" lon="5.67231">
        <ele>473</ele>
        <time>2014-06-28T06:35:03.000Z</time>
      </trkpt>
      <trkpt lat="45.15142" lon="5.67229">
        <ele>473</ele>
        <time>2014-06-28T06:35:04.000Z</time>
      </trkpt>
      <trkpt lat="45.15141" lon="5.67228">
        <ele>473</ele>
        <time>2014-06-28T06:35:05.000Z</time>
      </trkpt>
      <trkpt lat="45.1514" lon="5.67226">
        <ele>474</ele>
        <time>2014-06-28T06:35:06.000Z</time>
      </trkpt>
      <trkpt lat="45.15139" lon="5.67225">
        <ele>474</ele>
        <time>2014-06-28T06:35:07.000Z</time>
      </trkpt>
      <trkpt lat="45.15138" lon="5.67223">
        <ele>474</ele>
        <time>2014-06-28T06:35:08.000Z</time>
      </trkpt>
      <trkpt lat="45.15136" lon="5.67222">
        <ele>474</ele>
        <time>2014-06-28T06:35:09.000Z</time>
      </trkpt>
      <trkpt lat="45.15135" lon="5.6722">
        <ele>475</ele>
        <time>2014-06-28T06:35:10.000Z</time>
      </trkpt>
      <trkpt lat="45.15134" lon="5.67219">
        <ele>475</ele>
        <time>2014-06-28T06:35:11.000Z</time>
      </trkpt>
      <trkpt lat="45.15133" lon="5.67218">
        <ele>475</ele>
        <time>2014-06-28T06:35:12.000Z</time>
      </trkpt>
      <trkpt lat="45.15131" lon="5.67217">
        <ele>476</ele>
        <time>2014-06-28T06:35:13.000Z</time>
      </trkpt>
      <trkpt lat="45.1513" lon="5.67216">
        <ele>476</ele>
        <time>2014-06-28T06:35:14.000Z</time>
      </trkpt>
      <trkpt lat="45.15129" lon="5.67216">
        <ele>477</ele>
        <time>2014-06-28T06:35:15.000Z</time>
      </trkpt>
      <trkpt lat="45.15128" lon="5.67215">
        <ele>477</ele>
        <time>2014-06-28T06:35:16.000Z</time>
      </trkpt>
      <trkpt lat="45.15127" lon="5.67213">
        <ele>477</ele>
        <time>2014-06-28T06:35:17.000Z</time>
      </trkpt>
      <trkpt lat="45.15126" lon="5.67212">
        <ele>478</ele>
        <time>2014-06-28T06:35:18.000Z</time>
      </trkpt>
      <trkpt lat="45.15125" lon="5.67211">
        <ele>478</ele>
        <time>2014-06-28T06:35:19.000Z</time>
      </trkpt>
      <trkpt lat="45.15124" lon="5.67209">
        <ele>479</ele>
        <time>2014-06-28T06:35:20.000Z</time>
      </trkpt>
      <trkpt lat="45.15123" lon="5.67208">
        <ele>479</ele>
        <time>2014-06-28T06:35:21.000Z</time>
      </trkpt>
      <trkpt lat="45.15122" lon="5.67206">
        <ele>480</ele>
        <time>2014-06-28T06:35:22.000Z</time>
      </trkpt>
      <trkpt lat="45.15122" lon="5.67205">
        <ele>480</ele>
        <time>2014-06-28T06:35:23.000Z</time>
      </trkpt>
      <trkpt lat="45.15121" lon="5.67203">
        <ele>480</ele>
        <time>2014-06-28T06:35:24.000Z</time>
      </trkpt>
      <trkpt lat="45.1512" lon="5.67202">
        <ele>481</ele>
        <time>2014-06-28T06:35:25.000Z</time>
      </trkpt>
      <trkpt lat="45.1512" lon="5.672">
        <ele>481</ele>
        <time>2014-06-28T06:35:26.000Z</time>
      </trkpt>
      <trkpt lat="45.15119" lon="5.67198">
        <ele>481</ele>
        <time>2014-06-28T06:35:27.000Z</time>
      </trkpt>
      <trkpt lat="45.15119" lon="5.67196">
        <ele>482</ele>
        <time>2014-06-28T06:35:28.000Z</time>
      </trkpt>
      <trkpt lat="45.15118" lon="5.67194">
        <ele>482</ele>
        <time>2014-06-28T06:35:29.000Z</time>
      </trkpt>
      <trkpt lat="45.15117" lon="5.67193">
        <ele>482</ele>
        <time>2014-06-28T06:35:30.000Z</time>
      </trkpt>
      <trkpt lat="45.15116" lon="5.67191">
        <ele>483</ele>
        <time>2014-06-28T06:35:31.000Z</time>
      </trkpt>
      <trkpt lat="45.15114" lon="5.67189">
        <ele>483</ele>
        <time>2014-06-28T06:35:32.000Z</time>
      </trkpt>
      <trkpt lat="45.15113" lon="5.67186">
        <ele>483</ele>
        <time>2014-06-28T06:35:33.000Z</time>
      </trkpt>
      <trkpt lat="45.15111" lon="5.67184">
        <ele>484</ele>
        <time>2014-06-28T06:35:34.000Z</time>
      </trkpt>
      <trkpt lat="45.1511" lon="5.67182">
        <ele>484</ele>
        <time>2014-06-28T06:35:35.000Z</time>
      </trkpt>
      <trkpt lat="45.15108" lon="5.6718">
        <ele>484</ele>
        <time>2014-06-28T06:35:36.000Z</time>
      </trkpt>
      <trkpt lat="45.15107" lon="5.67178">
        <ele>485</ele>
        <time>2014-06-28T06:35:37.000Z</time>
      </trkpt>
      <trkpt lat="45.15105" lon="5.67176">
        <ele>485</ele>
        <time>2014-06-28T06:35:38.000Z</time>
      </trkpt>
      <trkpt lat="45.15104" lon="5.67175">
        <ele>485</ele>
        <time>2014-06-28T06:35:39.000Z</time>
      </trkpt>
      <trkpt lat="45.15103" lon="5.67173">
        <ele>486</ele>
        <time>2014-06-28T06:35:40.000Z</time>
      </trkpt>
      <trkpt lat="45.15102" lon="5.67172">
        <ele>486</ele>
        <time>2014-06-28T06:35:41.000Z</time>
      </trkpt>
      <trkpt lat="45.151" lon="5.67171">
        <ele>486</ele>
        <time>2014-06-28T06:35:42.000Z</time>
      </trkpt>
      <trkpt lat="45.15099" lon="5.67169">
        <ele>486</ele>
        <time>2014-06-28T06:35:43.000Z</time>
      </trkpt>
      <trkpt lat="45.15098" lon="5.67168">
        <ele>486</ele>
        <time>2014-06-28T06:35:44.000Z</time>
      </trkpt>
      <trkpt lat="45.15096" lon="5.67167">
        <ele>486</ele>
        <time>2014-06-28T06:35:45.000Z</time>
      </trkpt>
      <trkpt lat="45.15095" lon="5.67166">
        <ele>487</ele>
        <time>2014-06-28T06:35:46.000Z</time>
      </trkpt>
      <trkpt lat="45.15093" lon="5.67165">
        <ele>487</ele>
        <time>2014-06-28T06:35:47.000Z</time>
      </trkpt>
      <trkpt lat="45.15092" lon="5.67164">
        <ele>487</ele>
        <time>2014-06-28T06:35:48.000Z</time>
      </trkpt>
      <trkpt lat="45.15091" lon="5.67163">
        <ele>487</ele>
        <time>2014-06-28T06:35:49.000Z</time>
      </trkpt>
      <trkpt lat="45.1509" lon="5.67162">
        <ele>487</ele>
        <time>2014-06-28T06:35:50.000Z</time>
      </trkpt>
      <trkpt lat="45.15088" lon="5.67161">
        <ele>488</ele>
        <time>2014-06-28T06:35:51.000Z</time>
      </trkpt>
      <trkpt lat="45.15086" lon="5.67161">
        <ele>488</ele>
        <time>2014-06-28T06:35:52.000Z</time>
      </trkpt>
      <trkpt lat="45.15085" lon="5.6716">
        <ele>488</ele>
        <time>2014-06-28T06:35:53.000Z</time>
      </trkpt>
      <trkpt lat="45.15083" lon="5.67159">
        <ele>488</ele>
        <time>2014-06-28T06:35:54.000Z</time>
      </trkpt>
      <trkpt lat="45.15081" lon="5.67158">
        <ele>488</ele>
        <time>2014-06-28T06:35:55.000Z</time>
      </trkpt>
      <trkpt lat="45.1508" lon="5.67158">
        <ele>489</ele>
        <time>2014-06-28T06:35:56.000Z</time>
      </trkpt>
      <trkpt lat="45.15078" lon="5.67157">
        <ele>489</ele>
        <time>2014-06-28T06:35:57.000Z</time>
      </trkpt>
      <trkpt lat="45.15077" lon="5.67157">
        <ele>489</ele>
        <time>2014-06-28T06:35:58.000Z</time>
      </trkpt>
      <trkpt lat="45.15075" lon="5.67156">
        <ele>489</ele>
        <time>2014-06-28T06:35:59.000Z</time>
      </trkpt>
      <trkpt lat="45.15074" lon="5.67155">
        <ele>490</ele>
        <time>2014-06-28T06:36:00.000Z</time>
      </trkpt>
      <trkpt lat="45.15073" lon="5.67154">
        <ele>490</ele>
        <time>2014-06-28T06:36:01.000Z</time>
      </trkpt>
      <trkpt lat="45.15072" lon="5.67153">
        <ele>490</ele>
        <time>2014-06-28T06:36:02.000Z</time>
      </trkpt>
      <trkpt lat="45.15071" lon="5.67153">
        <ele>491</ele>
        <time>2014-06-28T06:36:03.000Z</time>
      </trkpt>
      <trkpt lat="45.1507" lon="5.67152">
        <ele>491</ele>
        <time>2014-06-28T06:36:04.000Z</time>
      </trkpt>
      <trkpt lat="45.1507" lon="5.67152">
        <ele>491</ele>
        <time>2014-06-28T06:36:05.000Z</time>
      </trkpt>
      <trkpt lat="45.15069" lon="5.67151">
        <ele>492</ele>
        <time>2014-06-28T06:36:06.000Z</time>
      </trkpt>
      <trkpt lat="45.15068" lon="5.6715">
        <ele>492</ele>
        <time>2014-06-28T06:36:07.000Z</time>
      </trkpt>
      <trkpt lat="45.15068" lon="5.67149">
        <ele>492</ele>
        <time>2014-06-28T06:36:08.000Z</time>
      </trkpt>
      <trkpt lat="45.15067" lon="5.67147">
        <ele>492</ele>
        <time>2014-06-28T06:36:09.000Z</time>
      </trkpt>
      <trkpt lat="45.15067" lon="5.67146">
        <ele>493</ele>
        <time>2014-06-28T06:36:10.000Z</time>
      </trkpt>
      <trkpt lat="45.15067" lon="5.67144">
        <ele>493</ele>
        <time>2014-06-28T06:36:11.000Z</time>
      </trkpt>
      <trkpt lat="45.15067" lon="5.67142">
        <ele>494</ele>
        <time>2014-06-28T06:36:12.000Z</time>
      </trkpt>
      <trkpt lat="45.15069" lon="5.6714">
        <ele>494</ele>
        <time>2014-06-28T06:36:13.000Z</time>
      </trkpt>
      <trkpt lat="45.1507" lon="5.67139">
        <ele>495</ele>
        <time>2014-06-28T06:36:14.000Z</time>
      </trkpt>
      <trkpt lat="45.15072" lon="5.67138">
        <ele>495</ele>
        <time>2014-06-28T06:36:15.000Z</time>
      </trkpt>
      <trkpt lat="45.15074" lon="5.67136">
        <ele>496</ele>
        <time>2014-06-28T06:36:16.000Z</time>
      </trkpt>
      <trkpt lat="45.15075" lon="5.67134">
        <ele>496</ele>
        <time>2014-06-28T06:36:17.000Z</time>
      </trkpt>
      <trkpt lat="45.15076" lon="5.67133">
        <ele>497</ele>
        <time>2014-06-28T06:36:18.000Z</time>
      </trkpt>
      <trkpt lat="45.15078" lon="5.67131">
        <ele>497</ele>
        <time>2014-06-28T06:36:19.000Z</time>
      </trkpt>
      <trkpt lat="45.15079" lon="5.67129">
        <ele>497</ele>
        <time>2014-06-28T06:36:20.000Z</time>
      </trkpt>
      <trkpt lat="45.15081" lon="5.67128">
        <ele>498</ele>
        <time>2014-06-28T06:36:21.000Z</time>
      </trkpt>
      <trkpt lat="45.15082" lon="5.67127">
        <ele>498</ele>
        <time>2014-06-28T06:36:22.000Z</time>
      </trkpt>
      <trkpt lat="45.15084" lon="5.67126">
        <ele>498</ele>
        <time>2014-06-28T06:36:23.000Z</time>
      </trkpt>
      <trkpt lat="45.15085" lon="5.67125">
        <ele>499</ele>
        <time>2014-06-28T06:36:24.000Z</time>
      </trkpt>
      <trkpt lat="45.15087" lon="5.67124">
        <ele>499</ele>
        <time>2014-06-28T06:36:25.000Z</time>
      </trkpt>
      <trkpt lat="45.15088" lon="5.67123">
        <ele>499</ele>
        <time>2014-06-28T06:36:26.000Z</time>
      </trkpt>
      <trkpt lat="45.15089" lon="5.67123">
        <ele>500</ele>
        <time>2014-06-28T06:36:27.000Z</time>
      </trkpt>
      <trkpt lat="45.15091" lon="5.67123">
        <ele>500</ele>
        <time>2014-06-28T06:36:28.000Z</time>
      </trkpt>
      <trkpt lat="45.15092" lon="5.67124">
        <ele>500</ele>
        <time>2014-06-28T06:36:29.000Z</time>
      </trkpt>
      <trkpt lat="45.15093" lon="5.67123">
        <ele>500</ele>
        <time>2014-06-28T06:36:30.000Z</time>
      </trkpt>
      <trkpt lat="45.15095" lon="5.67124">
        <ele>501</ele>
        <time>2014-06-28T06:36:31.000Z</time>
      </trkpt>
      <trkpt lat="45.15096" lon="5.67124">
        <ele>501</ele>
        <time>2014-06-28T06:36:32.000Z</time>
      </trkpt>
      <trkpt lat="45.15097" lon="5.67124">
        <ele>501</ele>
        <time>2014-06-28T06:36:33.000Z</time>
      </trkpt>
      <trkpt lat="45.15098" lon="5.67124">
        <ele>501</ele>
        <time>2014-06-28T06:36:34.000Z</time>
      </trkpt>
      <trkpt lat="45.15099" lon="5.67124">
        <ele>502</ele>
        <time>2014-06-28T06:36:35.000Z</time>
      </trkpt>
      <trkpt lat="45.15099" lon="5.67124">
        <ele>502</ele>
        <time>2014-06-28T06:36:36.000Z</time>
      </trkpt>
      <trkpt lat="45.15099" lon="5.67124">
        <ele>503</ele>
        <time>2014-06-28T06:36:37.000Z</time>
      </trkpt>
      <trkpt lat="45.151" lon="5.67125">
        <ele>503</ele>
        <time>2014-06-28T06:36:38.000Z</time>
      </trkpt>
      <trkpt lat="45.15101" lon="5.67125">
        <ele>504</ele>
        <time>2014-06-28T06:36:39.000Z</time>
      </trkpt>
      <trkpt lat="45.15102" lon="5.67125">
        <ele>504</ele>
        <time>2014-06-28T06:36:40.000Z</time>
      </trkpt>
      <trkpt lat="45.15102" lon="5.67125">
        <ele>504</ele>
        <time>2014-06-28T06:36:41.000Z</time>
      </trkpt>
      <trkpt lat="45.15103" lon="5.67125">
        <ele>505</ele>
        <time>2014-06-28T06:36:42.000Z</time>
      </trkpt>
      <trkpt lat="45.15104" lon="5.67125">
        <ele>505</ele>
        <time>2014-06-28T06:36:43.000Z</time>
      </trkpt>
      <trkpt lat="45.15105" lon="5.67125">
        <ele>505</ele>
        <time>2014-06-28T06:36:44.000Z</time>
      </trkpt>
      <trkpt lat="45.15106" lon="5.67125">
        <ele>505</ele>
        <time>2014-06-28T06:36:45.000Z</time>
      </trkpt>
      <trkpt lat="45.15108" lon="5.67124">
        <ele>506</ele>
        <time>2014-06-28T06:36:46.000Z</time>
      </trkpt>
      <trkpt lat="45.1511" lon="5.67124">
        <ele>506</ele>
        <time>2014-06-28T06:36:47.000Z</time>
      </trkpt>
      <trkpt lat="45.15111" lon="5.67123">
        <ele>506</ele>
        <time>2014-06-28T06:36:48.000Z</time>
      </trkpt>
      <trkpt lat="45.15113" lon="5.67123">
        <ele>506</ele>
        <time>2014-06-28T06:36:49.000Z</time>
      </trkpt>
      <trkpt lat="45.15114" lon="5.67122">
        <ele>506</ele>
        <time>2014-06-28T06:36:50.000Z</time>
      </trkpt>
      <trkpt lat="45.15116" lon="5.67121">
        <ele>507</ele>
        <time>2014-06-28T06:36:51.000Z</time>
      </trkpt>
      <trkpt lat="45.15118" lon="5.6712">
        <ele>507</ele>
        <time>2014-06-28T06:36:52.000Z</time>
      </trkpt>
      <trkpt lat="45.15119" lon="5.67119">
        <ele>507</ele>
        <time>2014-06-28T06:36:53.000Z</time>
      </trkpt>
      <trkpt lat="45.15121" lon="5.67118">
        <ele>507</ele>
        <time>2014-06-28T06:36:54.000Z</time>
      </trkpt>
      <trkpt lat="45.15123" lon="5.67117">
        <ele>507</ele>
        <time>2014-06-28T06:36:55.000Z</time>
      </trkpt>
      <trkpt lat="45.15124" lon="5.67116">
        <ele>507</ele>
        <time>2014-06-28T06:36:56.000Z</time>
      </trkpt>
      <trkpt lat="45.15125" lon="5.67115">
        <ele>508</ele>
        <time>2014-06-28T06:36:57.000Z</time>
      </trkpt>
      <trkpt lat="45.15127" lon="5.67115">
        <ele>508</ele>
        <time>2014-06-28T06:36:58.000Z</time>
      </trkpt>
      <trkpt lat="45.15129" lon="5.67114">
        <ele>508</ele>
        <time>2014-06-28T06:36:59.000Z</time>
      </trkpt>
      <trkpt lat="45.1513" lon="5.67114">
        <ele>508</ele>
        <time>2014-06-28T06:37:00.000Z</time>
      </trkpt>
      <trkpt lat="45.15132" lon="5.67114">
        <ele>508</ele>
        <time>2014-06-28T06:37:01.000Z</time>
      </trkpt>
      <trkpt lat="45.15133" lon="5.67114">
        <ele>508</ele>
        <time>2014-06-28T06:37:02.000Z</time>
      </trkpt>
      <trkpt lat="45.15135" lon="5.67114">
        <ele>509</ele>
        <time>2014-06-28T06:37:03.000Z</time>
      </trkpt>
      <trkpt lat="45.15137" lon="5.67114">
        <ele>509</ele>
        <time>2014-06-28T06:37:04.000Z</time>
      </trkpt>
      <trkpt lat="45.15138" lon="5.67115">
        <ele>509</ele>
        <time>2014-06-28T06:37:05.000Z</time>
      </trkpt>
      <trkpt lat="45.15139" lon="5.67115">
        <ele>509</ele>
        <time>2014-06-28T06:37:06.000Z</time>
      </trkpt>
      <trkpt lat="45.15141" lon="5.67116">
        <ele>509</ele>
        <time>2014-06-28T06:37:07.000Z</time>
      </trkpt>
      <trkpt lat="45.15142" lon="5.67116">
        <ele>510</ele>
        <time>2014-06-28T06:37:08.000Z</time>
      </trkpt>
      <trkpt lat="45.15143" lon="5.67117">
        <ele>510</ele>
        <time>2014-06-28T06:37:09.000Z</time>
      </trkpt>
      <trkpt lat="45.15144" lon="5.67117">
        <ele>510</ele>
        <time>2014-06-28T06:37:10.000Z</time>
      </trkpt>
      <trkpt lat="45.15145" lon="5.67117">
        <ele>510</ele>
        <time>2014-06-28T06:37:11.000Z</time>
      </trkpt>
      <trkpt lat="45.15146" lon="5.67117">
        <ele>510</ele>
        <time>2014-06-28T06:37:12.000Z</time>
      </trkpt>
      <trkpt lat="45.15148" lon="5.67116">
        <ele>511</ele>
        <time>2014-06-28T06:37:13.000Z</time>
      </trkpt>
      <trkpt lat="45.15149" lon="5.67116">
        <ele>511</ele>
        <time>2014-06-28T06:37:14.000Z</time>
      </trkpt>
      <trkpt lat="45.1515" lon="5.67115">
        <ele>511</ele>
        <time>2014-06-28T06:37:15.000Z</time>
      </trkpt>
      <trkpt lat="45.15152" lon="5.67115">
        <ele>511</ele>
        <time>2014-06-28T06:37:16.000Z</time>
      </trkpt>
      <trkpt lat="45.15153" lon="5.67115">
        <ele>511</ele>
        <time>2014-06-28T06:37:17.000Z</time>
      </trkpt>
      <trkpt lat="45.15155" lon="5.67114">
        <ele>511</ele>
        <time>2014-06-28T06:37:18.000Z</time>
      </trkpt>
      <trkpt lat="45.15156" lon="5.67112">
        <ele>512</ele>
        <time>2014-06-28T06:37:19.000Z</time>
      </trkpt>
      <trkpt lat="45.15157" lon="5.67111">
        <ele>512</ele>
        <time>2014-06-28T06:37:20.000Z</time>
      </trkpt>
      <trkpt lat="45.15158" lon="5.67109">
        <ele>512</ele>
        <time>2014-06-28T06:37:21.000Z</time>
      </trkpt>
      <trkpt lat="45.15159" lon="5.67108">
        <ele>512</ele>
        <time>2014-06-28T06:37:22.000Z</time>
      </trkpt>
      <trkpt lat="45.15159" lon="5.67106">
        <ele>512</ele>
        <time>2014-06-28T06:37:23.000Z</time>
      </trkpt>
      <trkpt lat="45.1516" lon="5.67105">
        <ele>512</ele>
        <time>2014-06-28T06:37:24.000Z</time>
      </trkpt>
      <trkpt lat="45.15161" lon="5.67103">
        <ele>513</ele>
        <time>2014-06-28T06:37:25.000Z</time>
      </trkpt>
      <trkpt lat="45.15161" lon="5.67101">
        <ele>513</ele>
        <time>2014-06-28T06:37:26.000Z</time>
      </trkpt>
      <trkpt lat="45.15161" lon="5.67099">
        <ele>513</ele>
        <time>2014-06-28T06:37:27.000Z</time>
      </trkpt>
      <trkpt lat="45.15161" lon="5.67098">
        <ele>514</ele>
        <time>2014-06-28T06:37:28.000Z</time>
      </trkpt>
      <trkpt lat="45.1516" lon="5.67097">
        <ele>514</ele>
        <time>2014-06-28T06:37:29.000Z</time>
      </trkpt>
      <trkpt lat="45.15159" lon="5.67095">
        <ele>514</ele>
        <time>2014-06-28T06:37:30.000Z</time>
      </trkpt>
      <trkpt lat="45.15158" lon="5.67094">
        <ele>515</ele>
        <time>2014-06-28T06:37:31.000Z</time>
      </trkpt>
      <trkpt lat="45.15157" lon="5.67093">
        <ele>515</ele>
        <time>2014-06-28T06:37:32.000Z</time>
      </trkpt>
      <trkpt lat="45.15156" lon="5.67092">
        <ele>516</ele>
        <time>2014-06-28T06:37:33.000Z</time>
      </trkpt>
      <trkpt lat="45.15155" lon="5.67092">
        <ele>516</ele>
        <time>2014-06-28T06:37:34.000Z</time>
      </trkpt>
      <trkpt lat="45.15153" lon="5.67091">
        <ele>517</ele>
        <time>2014-06-28T06:37:35.000Z</time>
      </trkpt>
      <trkpt lat="45.15152" lon="5.6709">
        <ele>517</ele>
        <time>2014-06-28T06:37:36.000Z</time>
      </trkpt>
      <trkpt lat="45.1515" lon="5.67089">
        <ele>518</ele>
        <time>2014-06-28T06:37:37.000Z</time>
      </trkpt>
      <trkpt lat="45.15149" lon="5.67088">
        <ele>519</ele>
        <time>2014-06-28T06:37:38.000Z</time>
      </trkpt>
      <trkpt lat="45.15148" lon="5.67088">
        <ele>519</ele>
        <time>2014-06-28T06:37:39.000Z</time>
      </trkpt>
      <trkpt lat="45.15146" lon="5.67087">
        <ele>520</ele>
        <time>2014-06-28T06:37:40.000Z</time>
      </trkpt>
      <trkpt lat="45.15145" lon="5.67087">
        <ele>520</ele>
        <time>2014-06-28T06:37:41.000Z</time>
      </trkpt>
      <trkpt lat="45.15144" lon="5.67086">
        <ele>521</ele>
        <time>2014-06-28T06:37:42.000Z</time>
      </trkpt>
      <trkpt lat="45.15142" lon="5.67085">
        <ele>521</ele>
        <time>2014-06-28T06:37:43.000Z</time>
      </trkpt>
      <trkpt lat="45.1514" lon="5.67085">
        <ele>522</ele>
        <time>2014-06-28T06:37:44.000Z</time>
      </trkpt>
      <trkpt lat="45.15139" lon="5.67085">
        <ele>522</ele>
        <time>2014-06-28T06:37:45.000Z</time>
      </trkpt>
      <trkpt lat="45.15138" lon="5.67085">
        <ele>522</ele>
        <time>2014-06-28T06:37:46.000Z</time>
      </trkpt>
      <trkpt lat="45.15136" lon="5.67084">
        <ele>523</ele>
        <time>2014-06-28T06:37:47.000Z</time>
      </trkpt>
      <trkpt lat="45.15135" lon="5.67084">
        <ele>523</ele>
        <time>2014-06-28T06:37:48.000Z</time>
      </trkpt>
      <trkpt lat="45.15133" lon="5.67084">
        <ele>524</ele>
        <time>2014-06-28T06:37:49.000Z</time>
      </trkpt>
      <trkpt lat="45.15132" lon="5.67083">
        <ele>524</ele>
        <time>2014-06-28T06:37:50.000Z</time>
      </trkpt>
      <trkpt lat="45.1513" lon="5.67082">
        <ele>525</ele>
        <time>2014-06-28T06:37:51.000Z</time>
      </trkpt>
      <trkpt lat="45.15128" lon="5.6708">
        <ele>525</ele>
        <time>2014-06-28T06:37:52.000Z</time>
      </trkpt>
      <trkpt lat="45.15127" lon="5.67078">
        <ele>525</ele>
        <time>2014-06-28T06:37:53.000Z</time>
      </trkpt>
      <trkpt lat="45.15126" lon="5.67076">
        <ele>526</ele>
        <time>2014-06-28T06:37:54.000Z</time>
      </trkpt>
      <trkpt lat="45.15125" lon="5.67075">
        <ele>526</ele>
        <time>2014-06-28T06:37:55.000Z</time>
      </trkpt>
      <trkpt lat="45.15124" lon="5.67074">
        <ele>527</ele>
        <time>2014-06-28T06:37:56.000Z</time>
      </trkpt>
      <trkpt lat="45.15123" lon="5.67073">
        <ele>527</ele>
        <time>2014-06-28T06:37:57.000Z</time>
      </trkpt>
      <trkpt lat="45.15122" lon="5.67072">
        <ele>527</ele>
        <time>2014-06-28T06:37:58.000Z</time>
      </trkpt>
      <trkpt lat="45.15121" lon="5.6707">
        <ele>528</ele>
        <time>2014-06-28T06:37:59.000Z</time>
      </trkpt>
      <trkpt lat="45.1512" lon="5.67069">
        <ele>528</ele>
        <time>2014-06-28T06:38:00.000Z</time>
      </trkpt>
      <trkpt lat="45.15119" lon="5.67068">
        <ele>528</ele>
        <time>2014-06-28T06:38:01.000Z</time>
      </trkpt>
      <trkpt lat="45.15118" lon="5.67066">
        <ele>529</ele>
        <time>2014-06-28T06:38:02.000Z</time>
      </trkpt>
      <trkpt lat="45.15117" lon="5.67066">
        <ele>529</ele>
        <time>2014-06-28T06:38:03.000Z</time>
      </trkpt>
      <trkpt lat="45.15116" lon="5.67065">
        <ele>529</ele>
        <time>2014-06-28T06:38:04.000Z</time>
      </trkpt>
      <trkpt lat="45.15115" lon="5.67064">
        <ele>529</ele>
        <time>2014-06-28T06:38:05.000Z</time>
      </trkpt>
      <trkpt lat="45.15113" lon="5.67064">
        <ele>530</ele>
        <time>2014-06-28T06:38:06.000Z</time>
      </trkpt>
      <trkpt lat="45.15112" lon="5.67063">
        <ele>530</ele>
        <time>2014-06-28T06:38:07.000Z</time>
      </trkpt>
      <trkpt lat="45.15111" lon="5.67063">
        <ele>530</ele>
        <time>2014-06-28T06:38:08.000Z</time>
      </trkpt>
      <trkpt lat="45.15109" lon="5.67062">
        <ele>531</ele>
        <time>2014-06-28T06:38:09.000Z</time>
      </trkpt>
      <trkpt lat="45.15108" lon="5.67061">
        <ele>531</ele>
        <time>2014-06-28T06:38:10.000Z</time>
      </trkpt>
      <trkpt lat="45.15106" lon="5.6706">
        <ele>531</ele>
        <time>2014-06-28T06:38:11.000Z</time>
      </trkpt>
      <trkpt lat="45.15105" lon="5.67059">
        <ele>531</ele>
        <time>2014-06-28T06:38:12.000Z</time>
      </trkpt>
      <trkpt lat="45.15104" lon="5.67058">
        <ele>532</ele>
        <time>2014-06-28T06:38:13.000Z</time>
      </trkpt>
      <trkpt lat="45.15102" lon="5.67057">
        <ele>532</ele>
        <time>2014-06-28T06:38:14.000Z</time>
      </trkpt>
      <trkpt lat="45.15101" lon="5.67056">
        <ele>532</ele>
        <time>2014-06-28T06:38:15.000Z</time>
      </trkpt>
      <trkpt lat="45.151" lon="5.67055">
        <ele>533</ele>
        <time>2014-06-28T06:38:16.000Z</time>
      </trkpt>
      <trkpt lat="45.15098" lon="5.67054">
        <ele>533</ele>
        <time>2014-06-28T06:38:17.000Z</time>
      </trkpt>
      <trkpt lat="45.15097" lon="5.67053">
        <ele>533</ele>
        <time>2014-06-28T06:38:18.000Z</time>
      </trkpt>
      <trkpt lat="45.15096" lon="5.67052">
        <ele>533</ele>
        <time>2014-06-28T06:38:19.000Z</time>
      </trkpt>
      <trkpt lat="45.15094" lon="5.6705">
        <ele>533</ele>
        <time>2014-06-28T06:38:20.000Z</time>
      </trkpt>
      <trkpt lat="45.15092" lon="5.67049">
        <ele>534</ele>
        <time>2014-06-28T06:38:21.000Z</time>
      </trkpt>
      <trkpt lat="45.15091" lon="5.67048">
        <ele>534</ele>
        <time>2014-06-28T06:38:22.000Z</time>
      </trkpt>
      <trkpt lat="45.1509" lon="5.67046">
        <ele>534</ele>
        <time>2014-06-28T06:38:23.000Z</time>
      </trkpt>
      <trkpt lat="45.15088" lon="5.67045">
        <ele>534</ele>
        <time>2014-06-28T06:38:24.000Z</time>
      </trkpt>
      <trkpt lat="45.15087" lon="5.67044">
        <ele>535</ele>
        <time>2014-06-28T06:38:25.000Z</time>
      </trkpt>
      <trkpt lat="45.15086" lon="5.67042">
        <ele>535</ele>
        <time>2014-06-28T06:38:26.000Z</time>
      </trkpt>
      <trkpt lat="45.15084" lon="5.67041">
        <ele>535</ele>
        <time>2014-06-28T06:38:27.000Z</time>
      </trkpt>
      <trkpt lat="45.15083" lon="5.67039">
        <ele>536</ele>
        <time>2014-06-28T06:38:28.000Z</time>
      </trkpt>
      <trkpt lat="45.15082" lon="5.67037">
        <ele>536</ele>
        <time>2014-06-28T06:38:29.000Z</time>
      </trkpt>
      <trkpt lat="45.15081" lon="5.67035">
        <ele>536</ele>
        <time>2014-06-28T06:38:30.000Z</time>
      </trkpt>
      <trkpt lat="45.1508" lon="5.67033">
        <ele>536</ele>
        <time>2014-06-28T06:38:31.000Z</time>
      </trkpt>
      <trkpt lat="45.15078" lon="5.67032">
        <ele>537</ele>
        <time>2014-06-28T06:38:32.000Z</time>
      </trkpt>
      <trkpt lat="45.15077" lon="5.67031">
        <ele>537</ele>
        <time>2014-06-28T06:38:33.000Z</time>
      </trkpt>
      <trkpt lat="45.15076" lon="5.67029">
        <ele>537</ele>
        <time>2014-06-28T06:38:34.000Z</time>
      </trkpt>
      <trkpt lat="45.15074" lon="5.67028">
        <ele>538</ele>
        <time>2014-06-28T06:38:35.000Z</time>
      </trkpt>
      <trkpt lat="45.15073" lon="5.67026">
        <ele>538</ele>
        <time>2014-06-28T06:38:36.000Z</time>
      </trkpt>
      <trkpt lat="45.15072" lon="5.67025">
        <ele>538</ele>
        <time>2014-06-28T06:38:37.000Z</time>
      </trkpt>
      <trkpt lat="45.1507" lon="5.67024">
        <ele>538</ele>
        <time>2014-06-28T06:38:38.000Z</time>
      </trkpt>
      <trkpt lat="45.15069" lon="5.67023">
        <ele>539</ele>
        <time>2014-06-28T06:38:39.000Z</time>
      </trkpt>
      <trkpt lat="45.15068" lon="5.67022">
        <ele>539</ele>
        <time>2014-06-28T06:38:40.000Z</time>
      </trkpt>
      <trkpt lat="45.15067" lon="5.67021">
        <ele>539</ele>
        <time>2014-06-28T06:38:41.000Z</time>
      </trkpt>
      <trkpt lat="45.15065" lon="5.6702">
        <ele>539</ele>
        <time>2014-06-28T06:38:42.000Z</time>
      </trkpt>
      <trkpt lat="45.15064" lon="5.67019">
        <ele>540</ele>
        <time>2014-06-28T06:38:43.000Z</time>
      </trkpt>
      <trkpt lat="45.15063" lon="5.67017">
        <ele>540</ele>
        <time>2014-06-28T06:38:44.000Z</time>
      </trkpt>
      <trkpt lat="45.15062" lon="5.67016">
        <ele>540</ele>
        <time>2014-06-28T06:38:45.000Z</time>
      </trkpt>
      <trkpt lat="45.15061" lon="5.67014">
        <ele>541</ele>
        <time>2014-06-28T06:38:46.000Z</time>
      </trkpt>
      <trkpt lat="45.1506" lon="5.67013">
        <ele>541</ele>
        <time>2014-06-28T06:38:47.000Z</time>
      </trkpt>
      <trkpt lat="45.15059" lon="5.67011">
        <ele>542</ele>
        <time>2014-06-28T06:38:48.000Z</time>
      </trkpt>
      <trkpt lat="45.15057" lon="5.6701">
        <ele>542</ele>
        <time>2014-06-28T06:38:49.000Z</time>
      </trkpt>
      <trkpt lat="45.15056" lon="5.67008">
        <ele>542</ele>
        <time>2014-06-28T06:38:50.000Z</time>
      </trkpt>
      <trkpt lat="45.15055" lon="5.67007">
        <ele>543</ele>
        <time>2014-06-28T06:38:51.000Z</time>
      </trkpt>
      <trkpt lat="45.15054" lon="5.67006">
        <ele>543</ele>
        <time>2014-06-28T06:38:52.000Z</time>
      </trkpt>
      <trkpt lat="45.15052" lon="5.67005">
        <ele>543</ele>
        <time>2014-06-28T06:38:53.000Z</time>
      </trkpt>
      <trkpt lat="45.15051" lon="5.67004">
        <ele>544</ele>
        <time>2014-06-28T06:38:54.000Z</time>
      </trkpt>
      <trkpt lat="45.1505" lon="5.67003">
        <ele>544</ele>
        <time>2014-06-28T06:38:55.000Z</time>
      </trkpt>
      <trkpt lat="45.15048" lon="5.67002">
        <ele>544</ele>
        <time>2014-06-28T06:38:56.000Z</time>
      </trkpt>
      <trkpt lat="45.15047" lon="5.67001">
        <ele>544</ele>
        <time>2014-06-28T06:38:57.000Z</time>
      </trkpt>
      <trkpt lat="45.15046" lon="5.67">
        <ele>545</ele>
        <time>2014-06-28T06:38:58.000Z</time>
      </trkpt>
      <trkpt lat="45.15044" lon="5.66999">
        <ele>545</ele>
        <time>2014-06-28T06:38:59.000Z</time>
      </trkpt>
      <trkpt lat="45.15043" lon="5.66998">
        <ele>545</ele>
        <time>2014-06-28T06:39:00.000Z</time>
      </trkpt>
      <trkpt lat="45.15042" lon="5.66997">
        <ele>545</ele>
        <time>2014-06-28T06:39:01.000Z</time>
      </trkpt>
      <trkpt lat="45.1504" lon="5.66996">
        <ele>546</ele>
        <time>2014-06-28T06:39:02.000Z</time>
      </trkpt>
      <trkpt lat="45.15039" lon="5.66995">
        <ele>546</ele>
        <time>2014-06-28T06:39:03.000Z</time>
      </trkpt>
      <trkpt lat="45.15037" lon="5.66994">
        <ele>546</ele>
        <time>2014-06-28T06:39:04.000Z</time>
      </trkpt>
      <trkpt lat="45.15035" lon="5.66992">
        <ele>546</ele>
        <time>2014-06-28T06:39:05.000Z</time>
      </trkpt>
      <trkpt lat="45.15034" lon="5.66991">
        <ele>546</ele>
        <time>2014-06-28T06:39:06.000Z</time>
      </trkpt>
      <trkpt lat="45.15032" lon="5.6699">
        <ele>547</ele>
        <time>2014-06-28T06:39:07.000Z</time>
      </trkpt>
      <trkpt lat="45.15031" lon="5.66989">
        <ele>547</ele>
        <time>2014-06-28T06:39:08.000Z</time>
      </trkpt>
      <trkpt lat="45.15029" lon="5.66987">
        <ele>547</ele>
        <time>2014-06-28T06:39:09.000Z</time>
      </trkpt>
      <trkpt lat="45.15028" lon="5.66986">
        <ele>547</ele>
        <time>2014-06-28T06:39:10.000Z</time>
      </trkpt>
      <trkpt lat="45.15027" lon="5.66986">
        <ele>547</ele>
        <time>2014-06-28T06:39:11.000Z</time>
      </trkpt>
      <trkpt lat="45.15025" lon="5.66985">
        <ele>548</ele>
        <time>2014-06-28T06:39:12.000Z</time>
      </trkpt>
      <trkpt lat="45.15024" lon="5.66984">
        <ele>548</ele>
        <time>2014-06-28T06:39:13.000Z</time>
      </trkpt>
      <trkpt lat="45.15023" lon="5.66983">
        <ele>548</ele>
        <time>2014-06-28T06:39:14.000Z</time>
      </trkpt>
      <trkpt lat="45.15022" lon="5.66982">
        <ele>549</ele>
        <time>2014-06-28T06:39:15.000Z</time>
      </trkpt>
      <trkpt lat="45.15021" lon="5.66982">
        <ele>549</ele>
        <time>2014-06-28T06:39:16.000Z</time>
      </trkpt>
      <trkpt lat="45.1502" lon="5.66981">
        <ele>549</ele>
        <time>2014-06-28T06:39:17.000Z</time>
      </trkpt>
      <trkpt lat="45.15019" lon="5.66981">
        <ele>550</ele>
        <time>2014-06-28T06:39:18.000Z</time>
      </trkpt>
      <trkpt lat="45.15019" lon="5.66982">
        <ele>550</ele>
        <time>2014-06-28T06:39:19.000Z</time>
      </trkpt>
      <trkpt lat="45.15018" lon="5.66982">
        <ele>550</ele>
        <time>2014-06-28T06:39:20.000Z</time>
      </trkpt>
      <trkpt lat="45.15018" lon="5.66982">
        <ele>551</ele>
        <time>2014-06-28T06:39:21.000Z</time>
      </trkpt>
      <trkpt lat="45.15018" lon="5.66981">
        <ele>551</ele>
        <time>2014-06-28T06:39:22.000Z</time>
      </trkpt>
      <trkpt lat="45.15018" lon="5.66981">
        <ele>551</ele>
        <time>2014-06-28T06:39:23.000Z</time>
      </trkpt>
      <trkpt lat="45.15018" lon="5.66981">
        <ele>552</ele>
        <time>2014-06-28T06:39:24.000Z</time>
      </trkpt>
      <trkpt lat="45.15018" lon="5.66981">
        <ele>552</ele>
        <time>2014-06-28T06:39:25.000Z</time>
      </trkpt>
      <trkpt lat="45.15018" lon="5.66981">
        <ele>552</ele>
        <time>2014-06-28T06:39:26.000Z</time>
      </trkpt>
      <trkpt lat="45.15018" lon="5.66981">
        <ele>553</ele>
        <time>2014-06-28T06:39:27.000Z</time>
      </trkpt>
      <trkpt lat="45.15018" lon="5.66981">
        <ele>553</ele>
        <time>2014-06-28T06:39:28.000Z</time>
      </trkpt>
      <trkpt lat="45.15018" lon="5.66981">
        <ele>553</ele>
        <time>2014-06-28T06:39:29.000Z</time>
      </trkpt>
      <trkpt lat="45.15018" lon="5.66981">
        <ele>553</ele>
        <time>2014-06-28T06:39:30.000Z</time>
      </trkpt>
      <trkpt lat="45.15018" lon="5.66982">
        <ele>554</ele>
        <time>2014-06-28T06:39:31.000Z</time>
      </trkpt>
      <trkpt lat="45.15019" lon="5.66982">
        <ele>554</ele>
        <time>2014-06-28T06:39:32.000Z</time>
      </trkpt>
      <trkpt lat="45.15019" lon="5.66982">
        <ele>554</ele>
        <time>2014-06-28T06:39:33.000Z</time>
      </trkpt>
      <trkpt lat="45.15019" lon="5.66982">
        <ele>554</ele>
        <time>2014-06-28T06:39:34.000Z</time>
      </trkpt>
      <trkpt lat="45.15019" lon="5.66982">
        <ele>554</ele>
        <time>2014-06-28T06:39:35.000Z</time>
      </trkpt>
      <trkpt lat="45.15019" lon="5.66982">
        <ele>554</ele>
        <time>2014-06-28T06:39:36.000Z</time>
      </trkpt>
      <trkpt lat="45.15019" lon="5.66982">
        <ele>555</ele>
        <time>2014-06-28T06:39:37.000Z</time>
      </trkpt>
      <trkpt lat="45.15019" lon="5.66982">
        <ele>555</ele>
        <time>2014-06-28T06:39:38.000Z</time>
      </trkpt>
      <trkpt lat="45.15019" lon="5.66982">
        <ele>555</ele>
        <time>2014-06-28T06:39:39.000Z</time>
      </trkpt>
      <trkpt lat="45.15019" lon="5.66982">
        <ele>555</ele>
        <time>2014-06-28T06:39:40.000Z</time>
      </trkpt>
      <trkpt lat="45.1502" lon="5.66982">
        <ele>555</ele>
        <time>2014-06-28T06:39:41.000Z</time>
      </trkpt>
      <trkpt lat="45.1502" lon="5.66982">
        <ele>555</ele>
        <time>2014-06-28T06:39:42.000Z</time>
      </trkpt>
      <trkpt lat="45.1502" lon="5.66982">
        <ele>555</ele>
        <time>2014-06-28T06:39:43.000Z</time>
      </trkpt>
      <trkpt lat="45.1502" lon="5.66982">
        <ele>555</ele>
        <time>2014-06-28T06:39:44.000Z</time>
      </trkpt>
      <trkpt lat="45.1502" lon="5.66982">
        <ele>555</ele>
        <time>2014-06-28T06:39:45.000Z</time>
      </trkpt>
      <trkpt lat="45.1502" lon="5.66982">
        <ele>555</ele>
        <time>2014-06-28T06:39:46.000Z</time>
      </trkpt>
      <trkpt lat="45.1502" lon="5.66982">
        <ele>555</ele>
        <time>2014-06-28T06:39:47.000Z</time>
      </trkpt>
      <trkpt lat="45.1502" lon="5.66982">
        <ele>555</ele>
        <time>2014-06-28T06:39:48.000Z</time>
      </trkpt>
      <trkpt lat="45.1502" lon="5.66982">
        <ele>555</ele>
        <time>2014-06-28T06:39:49.000Z</time>
      </trkpt>
      <trkpt lat="45.1502" lon="5.66982">
        <ele>555</ele>
        <time>2014-06-28T06:39:50.000Z</time>
      </trkpt>
      <trkpt lat="45.1502" lon="5.66982">
        <ele>555</ele>
        <time>2014-06-28T06:39:51.000Z</time>
      </trkpt>
      <trkpt lat="45.1502" lon="5.66982">
        <ele>555</ele>
        <time>2014-06-28T06:39:52.000Z</time>
      </trkpt>
      <trkpt lat="45.1502" lon="5.66982">
        <ele>555</ele>
        <time>2014-06-28T06:39:53.000Z</time>
      </trkpt>
      <trkpt lat="45.1502" lon="5.66982">
        <ele>556</ele>
        <time>2014-06-28T06:39:54.000Z</time>
      </trkpt>
      <trkpt lat="45.1502" lon="5.66982">
        <ele>556</ele>
        <time>2014-06-28T06:39:55.000Z</time>
      </trkpt>
      <trkpt lat="45.1502" lon="5.66982">
        <ele>556</ele>
        <time>2014-06-28T06:39:56.000Z</time>
      </trkpt>
      <trkpt lat="45.1502" lon="5.66982">
        <ele>556</ele>
        <time>2014-06-28T06:39:57.000Z</time>
      </trkpt>
      <trkpt lat="45.1502" lon="5.66982">
        <ele>556</ele>
        <time>2014-06-28T06:39:58.000Z</time>
      </trkpt>
      <trkpt lat="45.1502" lon="5.66982">
        <ele>556</ele>
        <time>2014-06-28T06:39:59.000Z</time>
      </trkpt>
      <trkpt lat="45.1502" lon="5.66982">
        <ele>556</ele>
        <time>2014-06-28T06:40:00.000Z</time>
      </trkpt>
      <trkpt lat="45.1502" lon="5.66982">
        <ele>556</ele>
        <time>2014-06-28T06:40:01.000Z</time>
      </trkpt>
      <trkpt lat="45.1502" lon="5.66982">
        <ele>556</ele>
        <time>2014-06-28T06:40:02.000Z</time>
      </trkpt>
      <trkpt lat="45.1502" lon="5.66982">
        <ele>556</ele>
        <time>2014-06-28T06:40:03.000Z</time>
      </trkpt>
      <trkpt lat="45.1502" lon="5.66982">
        <ele>556</ele>
        <time>2014-06-28T06:40:04.000Z</time>
      </trkpt>
      <trkpt lat="45.1502" lon="5.66982">
        <ele>556</ele>
        <time>2014-06-28T06:40:05.000Z</time>
      </trkpt>
      <trkpt lat="45.1502" lon="5.66982">
        <ele>556</ele>
        <time>2014-06-28T06:40:06.000Z</time>
      </trkpt>
      <trkpt lat="45.1502" lon="5.66982">
        <ele>556</ele>
        <time>2014-06-28T06:40:07.000Z</time>
      </trkpt>
      <trkpt lat="45.1502" lon="5.66982">
        <ele>556</ele>
        <time>2014-06-28T06:40:08.000Z</time>
      </trkpt>
      <trkpt lat="45.1502" lon="5.66982">
        <ele>556</ele>
        <time>2014-06-28T06:40:09.000Z</time>
      </trkpt>
      <trkpt lat="45.1502" lon="5.66982">
        <ele>556</ele>
        <time>2014-06-28T06:40:10.000Z</time>
      </trkpt>
      <trkpt lat="45.1502" lon="5.66982">
        <ele>556</ele>
        <time>2014-06-28T06:40:11.000Z</time>
      </trkpt>
      <trkpt lat="45.1502" lon="5.66982">
        <ele>556</ele>
        <time>2014-06-28T06:40:12.000Z</time>
      </trkpt>
      <trkpt lat="45.1502" lon="5.66982">
        <ele>556</ele>
        <time>2014-06-28T06:40:13.000Z</time>
      </trkpt>
      <trkpt lat="45.15021" lon="5.66982">
        <ele>556</ele>
        <time>2014-06-28T06:40:14.000Z</time>
      </trkpt>
      <trkpt lat="45.15021" lon="5.66982">
        <ele>556</ele>
        <time>2014-06-28T06:40:15.000Z</time>
      </trkpt>
      <trkpt lat="45.15021" lon="5.66982">
        <ele>556</ele>
        <time>2014-06-28T06:40:16.000Z</time>
      </trkpt>
      <trkpt lat="45.1502" lon="5.66982">
        <ele>556</ele>
        <time>2014-06-28T06:40:17.000Z</time>
      </trkpt>
      <trkpt lat="45.1502" lon="5.66982">
        <ele>556</ele>
        <time>2014-06-28T06:40:18.000Z</time>
      </trkpt>
      <trkpt lat="45.1502" lon="5.66982">
        <ele>556</ele>
        <time>2014-06-28T06:40:19.000Z</time>
      </trkpt>
      <trkpt lat="45.1502" lon="5.66982">
        <ele>556</ele>
        <time>2014-06-28T06:40:20.000Z</time>
      </trkpt>
      <trkpt lat="45.1502" lon="5.66982">
        <ele>556</ele>
        <time>2014-06-28T06:40:21.000Z</time>
      </trkpt>
      <trkpt lat="45.1502" lon="5.66982">
        <ele>556</ele>
        <time>2014-06-28T06:40:22.000Z</time>
      </trkpt>
      <trkpt lat="45.1502" lon="5.66982">
        <ele>555</ele>
        <time>2014-06-28T06:40:23.000Z</time>
      </trkpt>
      <trkpt lat="45.1502" lon="5.66982">
        <ele>555</ele>
        <time>2014-06-28T06:40:24.000Z</time>
      </trkpt>
      <trkpt lat="45.1502" lon="5.66982">
        <ele>555</ele>
        <time>2014-06-28T06:40:25.000Z</time>
      </trkpt>
      <trkpt lat="45.1502" lon="5.66982">
        <ele>555</ele>
        <time>2014-06-28T06:40:26.000Z</time>
      </trkpt>
      <trkpt lat="45.1502" lon="5.66982">
        <ele>555</ele>
        <time>2014-06-28T06:40:27.000Z</time>
      </trkpt>
      <trkpt lat="45.1502" lon="5.66981">
        <ele>555</ele>
        <time>2014-06-28T06:40:28.000Z</time>
      </trkpt>
      <trkpt lat="45.1502" lon="5.66981">
        <ele>555</ele>
        <time>2014-06-28T06:40:29.000Z</time>
      </trkpt>
      <trkpt lat="45.1502" lon="5.66981">
        <ele>556</ele>
        <time>2014-06-28T06:40:30.000Z</time>
      </trkpt>
      <trkpt lat="45.1502" lon="5.66981">
        <ele>556</ele>
        <time>2014-06-28T06:40:31.000Z</time>
      </trkpt>
      <trkpt lat="45.1502" lon="5.66981">
        <ele>556</ele>
        <time>2014-06-28T06:40:32.000Z</time>
      </trkpt>
      <trkpt lat="45.1502" lon="5.66981">
        <ele>556</ele>
        <time>2014-06-28T06:40:33.000Z</time>
      </trkpt>
      <trkpt lat="45.1502" lon="5.66981">
        <ele>556</ele>
        <time>2014-06-28T06:40:34.000Z</time>
      </trkpt>
      <trkpt lat="45.1502" lon="5.66981">
        <ele>556</ele>
        <time>2014-06-28T06:40:35.000Z</time>
      </trkpt>
      <trkpt lat="45.1502" lon="5.66981">
        <ele>556</ele>
        <time>2014-06-28T06:40:36.000Z</time>
      </trkpt>
      <trkpt lat="45.1502" lon="5.66981">
        <ele>556</ele>
        <time>2014-06-28T06:40:37.000Z</time>
      </trkpt>
      <trkpt lat="45.1502" lon="5.66981">
        <ele>556</ele>
        <time>2014-06-28T06:40:38.000Z</time>
      </trkpt>
      <trkpt lat="45.1502" lon="5.66981">
        <ele>556</ele>
        <time>2014-06-28T06:40:39.000Z</time>
      </trkpt>
      <trkpt lat="45.1502" lon="5.66981">
        <ele>556</ele>
        <time>2014-06-28T06:40:40.000Z</time>
      </trkpt>
      <trkpt lat="45.1502" lon="5.66981">
        <ele>556</ele>
        <time>2014-06-28T06:40:41.000Z</time>
      </trkpt>
      <trkpt lat="45.1502" lon="5.66981">
        <ele>556</ele>
        <time>2014-06-28T06:40:42.000Z</time>
      </trkpt>
      <trkpt lat="45.1502" lon="5.66981">
        <ele>556</ele>
        <time>2014-06-28T06:40:43.000Z</time>
      </trkpt>
      <trkpt lat="45.1502" lon="5.66981">
        <ele>556</ele>
        <time>2014-06-28T06:40:44.000Z</time>
      </trkpt>
      <trkpt lat="45.1502" lon="5.66981">
        <ele>556</ele>
        <time>2014-06-28T06:40:45.000Z</time>
      </trkpt>
      <trkpt lat="45.1502" lon="5.66981">
        <ele>556</ele>
        <time>2014-06-28T06:40:46.000Z</time>
      </trkpt>
      <trkpt lat="45.1502" lon="5.66981">
        <ele>556</ele>
        <time>2014-06-28T06:40:47.000Z</time>
      </trkpt>
      <trkpt lat="45.1502" lon="5.66981">
        <ele>556</ele>
        <time>2014-06-28T06:40:48.000Z</time>
      </trkpt>
      <trkpt lat="45.1502" lon="5.66981">
        <ele>556</ele>
        <time>2014-06-28T06:40:49.000Z</time>
      </trkpt>
      <trkpt lat="45.1502" lon="5.66981">
        <ele>556</ele>
        <time>2014-06-28T06:40:50.000Z</time>
      </trkpt>
      <trkpt lat="45.1502" lon="5.66981">
        <ele>556</ele>
        <time>2014-06-28T06:40:51.000Z</time>
      </trkpt>
      <trkpt lat="45.1502" lon="5.6698">
        <ele>557</ele>
        <time>2014-06-28T06:40:52.000Z</time>
      </trkpt>
      <trkpt lat="45.1502" lon="5.6698">
        <ele>557</ele>
        <time>2014-06-28T06:40:53.000Z</time>
      </trkpt>
      <trkpt lat="45.1502" lon="5.6698">
        <ele>557</ele>
        <time>2014-06-28T06:40:54.000Z</time>
      </trkpt>
      <trkpt lat="45.1502" lon="5.6698">
        <ele>557</ele>
        <time>2014-06-28T06:40:55.000Z</time>
      </trkpt>
      <trkpt lat="45.1502" lon="5.6698">
        <ele>557</ele>
        <time>2014-06-28T06:40:56.000Z</time>
      </trkpt>
      <trkpt lat="45.1502" lon="5.6698">
        <ele>557</ele>
        <time>2014-06-28T06:40:57.000Z</time>
      </trkpt>
      <trkpt lat="45.15019" lon="5.6698">
        <ele>557</ele>
        <time>2014-06-28T06:40:58.000Z</time>
      </trkpt>
      <trkpt lat="45.15019" lon="5.6698">
        <ele>557</ele>
        <time>2014-06-28T06:40:59.000Z</time>
      </trkpt>
      <trkpt lat="45.15019" lon="5.6698">
        <ele>557</ele>
        <time>2014-06-28T06:41:00.000Z</time>
      </trkpt>
      <trkpt lat="45.15019" lon="5.66979">
        <ele>557</ele>
        <time>2014-06-28T06:41:01.000Z</time>
      </trkpt>
      <trkpt lat="45.15019" lon="5.66979">
        <ele>557</ele>
        <time>2014-06-28T06:41:02.000Z</time>
      </trkpt>
      <trkpt lat="45.15019" lon="5.66979">
        <ele>557</ele>
        <time>2014-06-28T06:41:03.000Z</time>
      </trkpt>
      <trkpt lat="45.15019" lon="5.66979">
        <ele>557</ele>
        <time>2014-06-28T06:41:04.000Z</time>
      </trkpt>
      <trkpt lat="45.15019" lon="5.66979">
        <ele>557</ele>
        <time>2014-06-28T06:41:05.000Z</time>
      </trkpt>
      <trkpt lat="45.15019" lon="5.66979">
        <ele>557</ele>
        <time>2014-06-28T06:41:06.000Z</time>
      </trkpt>
      <trkpt lat="45.15019" lon="5.66979">
        <ele>557</ele>
        <time>2014-06-28T06:41:07.000Z</time>
      </trkpt>
      <trkpt lat="45.15019" lon="5.66979">
        <ele>557</ele>
        <time>2014-06-28T06:41:08.000Z</time>
      </trkpt>
      <trkpt lat="45.15019" lon="5.66979">
        <ele>557</ele>
        <time>2014-06-28T06:41:09.000Z</time>
      </trkpt>
      <trkpt lat="45.15019" lon="5.66979">
        <ele>557</ele>
        <time>2014-06-28T06:41:10.000Z</time>
      </trkpt>
      <trkpt lat="45.15019" lon="5.66979">
        <ele>557</ele>
        <time>2014-06-28T06:41:11.000Z</time>
      </trkpt>
      <trkpt lat="45.15019" lon="5.66979">
        <ele>557</ele>
        <time>2014-06-28T06:41:12.000Z</time>
      </trkpt>
      <trkpt lat="45.15019" lon="5.66979">
        <ele>557</ele>
        <time>2014-06-28T06:41:13.000Z</time>
      </trkpt>
      <trkpt lat="45.15019" lon="5.66979">
        <ele>557</ele>
        <time>2014-06-28T06:41:14.000Z</time>
      </trkpt>
      <trkpt lat="45.15019" lon="5.66979">
        <ele>557</ele>
        <time>2014-06-28T06:41:15.000Z</time>
      </trkpt>
      <trkpt lat="45.15019" lon="5.66979">
        <ele>557</ele>
        <time>2014-06-28T06:41:16.000Z</time>
      </trkpt>
      <trkpt lat="45.15019" lon="5.66979">
        <ele>557</ele>
        <time>2014-06-28T06:41:17.000Z</time>
      </trkpt>
      <trkpt lat="45.15019" lon="5.66979">
        <ele>557</ele>
        <time>2014-06-28T06:41:18.000Z</time>
      </trkpt>
      <trkpt lat="45.15019" lon="5.66979">
        <ele>557</ele>
        <time>2014-06-28T06:41:19.000Z</time>
      </trkpt>
      <trkpt lat="45.15019" lon="5.66979">
        <ele>557</ele>
        <time>2014-06-28T06:41:20.000Z</time>
      </trkpt>
      <trkpt lat="45.15019" lon="5.6698">
        <ele>557</ele>
        <time>2014-06-28T06:41:21.000Z</time>
      </trkpt>
      <trkpt lat="45.15019" lon="5.6698">
        <ele>557</ele>
        <time>2014-06-28T06:41:22.000Z</time>
      </trkpt>
      <trkpt lat="45.1502" lon="5.6698">
        <ele>557</ele>
        <time>2014-06-28T06:41:23.000Z</time>
      </trkpt>
      <trkpt lat="45.1502" lon="5.6698">
        <ele>557</ele>
        <time>2014-06-28T06:41:24.000Z</time>
      </trkpt>
      <trkpt lat="45.1502" lon="5.6698">
        <ele>557</ele>
        <time>2014-06-28T06:41:25.000Z</time>
      </trkpt>
      <trkpt lat="45.1502" lon="5.6698">
        <ele>557</ele>
        <time>2014-06-28T06:41:26.000Z</time>
      </trkpt>
      <trkpt lat="45.1502" lon="5.6698">
        <ele>557</ele>
        <time>2014-06-28T06:41:27.000Z</time>
      </trkpt>
      <trkpt lat="45.1502" lon="5.6698">
        <ele>557</ele>
        <time>2014-06-28T06:41:28.000Z</time>
      </trkpt>
      <trkpt lat="45.1502" lon="5.6698">
        <ele>557</ele>
        <time>2014-06-28T06:41:29.000Z</time>
      </trkpt>
      <trkpt lat="45.15019" lon="5.6698">
        <ele>557</ele>
        <time>2014-06-28T06:41:30.000Z</time>
      </trkpt>
      <trkpt lat="45.15019" lon="5.6698">
        <ele>557</ele>
        <time>2014-06-28T06:41:31.000Z</time>
      </trkpt>
      <trkpt lat="45.15019" lon="5.6698">
        <ele>557</ele>
        <time>2014-06-28T06:41:32.000Z</time>
      </trkpt>
      <trkpt lat="45.1502" lon="5.6698">
        <ele>557</ele>
        <time>2014-06-28T06:41:33.000Z</time>
      </trkpt>
      <trkpt lat="45.1502" lon="5.6698">
        <ele>557</ele>
        <time>2014-06-28T06:41:34.000Z</time>
      </trkpt>
      <trkpt lat="45.1502" lon="5.6698">
        <ele>557</ele>
        <time>2014-06-28T06:41:35.000Z</time>
      </trkpt>
      <trkpt lat="45.1502" lon="5.6698">
        <ele>557</ele>
        <time>2014-06-28T06:41:36.000Z</time>
      </trkpt>
      <trkpt lat="45.1502" lon="5.6698">
        <ele>557</ele>
        <time>2014-06-28T06:41:37.000Z</time>
      </trkpt>
      <trkpt lat="45.1502" lon="5.6698">
        <ele>557</ele>
        <time>2014-06-28T06:41:38.000Z</time>
      </trkpt>
      <trkpt lat="45.15019" lon="5.6698">
        <ele>557</ele>
        <time>2014-06-28T06:41:39.000Z</time>
      </trkpt>
      <trkpt lat="45.1502" lon="5.6698">
        <ele>557</ele>
        <time>2014-06-28T06:41:40.000Z</time>
      </trkpt>
      <trkpt lat="45.1502" lon="5.6698">
        <ele>557</ele>
        <time>2014-06-28T06:41:41.000Z</time>
      </trkpt>
      <trkpt lat="45.1502" lon="5.6698">
        <ele>557</ele>
        <time>2014-06-28T06:41:42.000Z</time>
      </trkpt>
      <trkpt lat="45.1502" lon="5.6698">
        <ele>557</ele>
        <time>2014-06-28T06:41:43.000Z</time>
      </trkpt>
      <trkpt lat="45.1502" lon="5.6698">
        <ele>557</ele>
        <time>2014-06-28T06:41:44.000Z</time>
      </trkpt>
      <trkpt lat="45.1502" lon="5.6698">
        <ele>557</ele>
        <time>2014-06-28T06:41:45.000Z</time>
      </trkpt>
      <trkpt lat="45.1502" lon="5.6698">
        <ele>557</ele>
        <time>2014-06-28T06:41:46.000Z</time>
      </trkpt>
      <trkpt lat="45.1502" lon="5.6698">
        <ele>558</ele>
        <time>2014-06-28T06:41:47.000Z</time>
      </trkpt>
      <trkpt lat="45.15019" lon="5.6698">
        <ele>558</ele>
        <time>2014-06-28T06:41:48.000Z</time>
      </trkpt>
      <trkpt lat="45.15019" lon="5.66979">
        <ele>558</ele>
        <time>2014-06-28T06:41:49.000Z</time>
      </trkpt>
      <trkpt lat="45.15019" lon="5.66979">
        <ele>558</ele>
        <time>2014-06-28T06:41:50.000Z</time>
      </trkpt>
      <trkpt lat="45.15019" lon="5.66978">
        <ele>558</ele>
        <time>2014-06-28T06:41:51.000Z</time>
      </trkpt>
      <trkpt lat="45.15019" lon="5.66978">
        <ele>558</ele>
        <time>2014-06-28T06:41:52.000Z</time>
      </trkpt>
      <trkpt lat="45.15019" lon="5.66978">
        <ele>558</ele>
        <time>2014-06-28T06:41:53.000Z</time>
      </trkpt>
      <trkpt lat="45.15018" lon="5.66978">
        <ele>558</ele>
        <time>2014-06-28T06:41:54.000Z</time>
      </trkpt>
      <trkpt lat="45.15018" lon="5.66978">
        <ele>558</ele>
        <time>2014-06-28T06:41:55.000Z</time>
      </trkpt>
      <trkpt lat="45.15017" lon="5.66978">
        <ele>558</ele>
        <time>2014-06-28T06:41:56.000Z</time>
      </trkpt>
      <trkpt lat="45.15017" lon="5.66978">
        <ele>558</ele>
        <time>2014-06-28T06:41:57.000Z</time>
      </trkpt>
      <trkpt lat="45.15017" lon="5.66978">
        <ele>558</ele>
        <time>2014-06-28T06:41:58.000Z</time>
      </trkpt>
      <trkpt lat="45.15017" lon="5.66978">
        <ele>558</ele>
        <time>2014-06-28T06:41:59.000Z</time>
      </trkpt>
      <trkpt lat="45.15017" lon="5.66977">
        <ele>558</ele>
        <time>2014-06-28T06:42:00.000Z</time>
      </trkpt>
      <trkpt lat="45.15017" lon="5.66977">
        <ele>559</ele>
        <time>2014-06-28T06:42:01.000Z</time>
      </trkpt>
      <trkpt lat="45.15017" lon="5.66977">
        <ele>559</ele>
        <time>2014-06-28T06:42:02.000Z</time>
      </trkpt>
      <trkpt lat="45.15017" lon="5.66977">
        <ele>559</ele>
        <time>2014-06-28T06:42:03.000Z</time>
      </trkpt>
      <trkpt lat="45.15017" lon="5.66977">
        <ele>559</ele>
        <time>2014-06-28T06:42:04.000Z</time>
      </trkpt>
      <trkpt lat="45.15017" lon="5.66977">
        <ele>559</ele>
        <time>2014-06-28T06:42:05.000Z</time>
      </trkpt>
      <trkpt lat="45.15016" lon="5.66976">
        <ele>559</ele>
        <time>2014-06-28T06:42:06.000Z</time>
      </trkpt>
      <trkpt lat="45.15016" lon="5.66976">
        <ele>559</ele>
        <time>2014-06-28T06:42:07.000Z</time>
      </trkpt>
      <trkpt lat="45.15016" lon="5.66976">
        <ele>559</ele>
        <time>2014-06-28T06:42:08.000Z</time>
      </trkpt>
      <trkpt lat="45.15016" lon="5.66976">
        <ele>559</ele>
        <time>2014-06-28T06:42:09.000Z</time>
      </trkpt>
      <trkpt lat="45.15016" lon="5.66976">
        <ele>559</ele>
        <time>2014-06-28T06:42:10.000Z</time>
      </trkpt>
      <trkpt lat="45.15016" lon="5.66976">
        <ele>559</ele>
        <time>2014-06-28T06:42:11.000Z</time>
      </trkpt>
      <trkpt lat="45.15016" lon="5.66976">
        <ele>559</ele>
        <time>2014-06-28T06:42:12.000Z</time>
      </trkpt>
      <trkpt lat="45.15016" lon="5.66976">
        <ele>559</ele>
        <time>2014-06-28T06:42:13.000Z</time>
      </trkpt>
      <trkpt lat="45.15016" lon="5.66976">
        <ele>559</ele>
        <time>2014-06-28T06:42:14.000Z</time>
      </trkpt>
      <trkpt lat="45.15016" lon="5.66976">
        <ele>560</ele>
        <time>2014-06-28T06:42:15.000Z</time>
      </trkpt>
      <trkpt lat="45.15016" lon="5.66976">
        <ele>560</ele>
        <time>2014-06-28T06:42:16.000Z</time>
      </trkpt>
      <trkpt lat="45.15016" lon="5.66976">
        <ele>560</ele>
        <time>2014-06-28T06:42:17.000Z</time>
      </trkpt>
      <trkpt lat="45.15016" lon="5.66976">
        <ele>560</ele>
        <time>2014-06-28T06:42:18.000Z</time>
      </trkpt>
      <trkpt lat="45.15016" lon="5.66976">
        <ele>560</ele>
        <time>2014-06-28T06:42:19.000Z</time>
      </trkpt>
      <trkpt lat="45.15016" lon="5.66977">
        <ele>560</ele>
        <time>2014-06-28T06:42:20.000Z</time>
      </trkpt>
      <trkpt lat="45.15015" lon="5.66977">
        <ele>560</ele>
        <time>2014-06-28T06:42:21.000Z</time>
      </trkpt>
      <trkpt lat="45.15015" lon="5.66977">
        <ele>561</ele>
        <time>2014-06-28T06:42:22.000Z</time>
      </trkpt>
      <trkpt lat="45.15014" lon="5.66976">
        <ele>561</ele>
        <time>2014-06-28T06:42:23.000Z</time>
      </trkpt>
      <trkpt lat="45.15015" lon="5.66976">
        <ele>561</ele>
        <time>2014-06-28T06:42:24.000Z</time>
      </trkpt>
      <trkpt lat="45.15015" lon="5.66976">
        <ele>561</ele>
        <time>2014-06-28T06:42:25.000Z</time>
      </trkpt>
      <trkpt lat="45.15016" lon="5.66976">
        <ele>561</ele>
        <time>2014-06-28T06:42:26.000Z</time>
      </trkpt>
      <trkpt lat="45.15017" lon="5.66976">
        <ele>561</ele>
        <time>2014-06-28T06:42:27.000Z</time>
      </trkpt>
      <trkpt lat="45.15018" lon="5.66976">
        <ele>561</ele>
        <time>2014-06-28T06:42:28.000Z</time>
      </trkpt>
      <trkpt lat="45.15019" lon="5.66977">
        <ele>562</ele>
        <time>2014-06-28T06:42:29.000Z</time>
      </trkpt>
      <trkpt lat="45.1502" lon="5.66977">
        <ele>562</ele>
        <time>2014-06-28T06:42:30.000Z</time>
      </trkpt>
      <trkpt lat="45.15022" lon="5.66977">
        <ele>562</ele>
        <time>2014-06-28T06:42:31.000Z</time>
      </trkpt>
      <trkpt lat="45.15023" lon="5.66977">
        <ele>562</ele>
        <time>2014-06-28T06:42:32.000Z</time>
      </trkpt>
      <trkpt lat="45.15024" lon="5.66977">
        <ele>562</ele>
        <time>2014-06-28T06:42:33.000Z</time>
      </trkpt>
      <trkpt lat="45.15026" lon="5.66977">
        <ele>562</ele>
        <time>2014-06-28T06:42:34.000Z</time>
      </trkpt>
      <trkpt lat="45.15027" lon="5.66976">
        <ele>562</ele>
        <time>2014-06-28T06:42:35.000Z</time>
      </trkpt>
      <trkpt lat="45.15029" lon="5.66976">
        <ele>562</ele>
        <time>2014-06-28T06:42:36.000Z</time>
      </trkpt>
      <trkpt lat="45.1503" lon="5.66975">
        <ele>562</ele>
        <time>2014-06-28T06:42:37.000Z</time>
      </trkpt>
      <trkpt lat="45.15032" lon="5.66975">
        <ele>562</ele>
        <time>2014-06-28T06:42:38.000Z</time>
      </trkpt>
      <trkpt lat="45.15033" lon="5.66975">
        <ele>562</ele>
        <time>2014-06-28T06:42:39.000Z</time>
      </trkpt>
      <trkpt lat="45.15035" lon="5.66974">
        <ele>562</ele>
        <time>2014-06-28T06:42:40.000Z</time>
      </trkpt>
      <trkpt lat="45.15037" lon="5.66974">
        <ele>562</ele>
        <time>2014-06-28T06:42:41.000Z</time>
      </trkpt>
      <trkpt lat="45.15038" lon="5.66974">
        <ele>562</ele>
        <time>2014-06-28T06:42:42.000Z</time>
      </trkpt>
      <trkpt lat="45.15039" lon="5.66974">
        <ele>562</ele>
        <time>2014-06-28T06:42:43.000Z</time>
      </trkpt>
      <trkpt lat="45.15041" lon="5.66973">
        <ele>562</ele>
        <time>2014-06-28T06:42:44.000Z</time>
      </trkpt>
      <trkpt lat="45.15042" lon="5.66973">
        <ele>562</ele>
        <time>2014-06-28T06:42:45.000Z</time>
      </trkpt>
      <trkpt lat="45.15043" lon="5.66972">
        <ele>562</ele>
        <time>2014-06-28T06:42:46.000Z</time>
      </trkpt>
      <trkpt lat="45.15045" lon="5.66972">
        <ele>562</ele>
        <time>2014-06-28T06:42:47.000Z</time>
      </trkpt>
      <trkpt lat="45.15046" lon="5.66972">
        <ele>562</ele>
        <time>2014-06-28T06:42:48.000Z</time>
      </trkpt>
      <trkpt lat="45.15048" lon="5.66972">
        <ele>562</ele>
        <time>2014-06-28T06:42:49.000Z</time>
      </trkpt>
      <trkpt lat="45.15049" lon="5.66972">
        <ele>562</ele>
        <time>2014-06-28T06:42:50.000Z</time>
      </trkpt>
      <trkpt lat="45.15049" lon="5.66972">
        <ele>562</ele>
        <time>2014-06-28T06:42:51.000Z</time>
      </trkpt>
      <trkpt lat="45.1505" lon="5.66971">
        <ele>562</ele>
        <time>2014-06-28T06:42:52.000Z</time>
      </trkpt>
      <trkpt lat="45.15051" lon="5.66971">
        <ele>563</ele>
        <time>2014-06-28T06:42:53.000Z</time>
      </trkpt>
      <trkpt lat="45.15051" lon="5.66971">
        <ele>563</ele>
        <time>2014-06-28T06:42:54.000Z</time>
      </trkpt>
      <trkpt lat="45.15052" lon="5.66971">
        <ele>563</ele>
        <time>2014-06-28T06:42:55.000Z</time>
      </trkpt>
      <trkpt lat="45.15053" lon="5.66971">
        <ele>563</ele>
        <time>2014-06-28T06:42:56.000Z</time>
      </trkpt>
      <trkpt lat="45.15055" lon="5.66971">
        <ele>563</ele>
        <time>2014-06-28T06:42:57.000Z</time>
      </trkpt>
      <trkpt lat="45.15056" lon="5.66971">
        <ele>563</ele>
        <time>2014-06-28T06:42:58.000Z</time>
      </trkpt>
      <trkpt lat="45.15057" lon="5.66971">
        <ele>563</ele>
        <time>2014-06-28T06:42:59.000Z</time>
      </trkpt>
      <trkpt lat="45.15058" lon="5.66971">
        <ele>563</ele>
        <time>2014-06-28T06:43:00.000Z</time>
      </trkpt>
      <trkpt lat="45.15059" lon="5.66971">
        <ele>563</ele>
        <time>2014-06-28T06:43:01.000Z</time>
      </trkpt>
      <trkpt lat="45.1506" lon="5.66971">
        <ele>563</ele>
        <time>2014-06-28T06:43:02.000Z</time>
      </trkpt>
      <trkpt lat="45.15061" lon="5.66971">
        <ele>563</ele>
        <time>2014-06-28T06:43:03.000Z</time>
      </trkpt>
      <trkpt lat="45.15062" lon="5.66971">
        <ele>563</ele>
        <time>2014-06-28T06:43:04.000Z</time>
      </trkpt>
      <trkpt lat="45.15063" lon="5.66971">
        <ele>563</ele>
        <time>2014-06-28T06:43:05.000Z</time>
      </trkpt>
      <trkpt lat="45.15064" lon="5.66971">
        <ele>563</ele>
        <time>2014-06-28T06:43:06.000Z</time>
      </trkpt>
      <trkpt lat="45.15065" lon="5.66971">
        <ele>563</ele>
        <time>2014-06-28T06:43:07.000Z</time>
      </trkpt>
      <trkpt lat="45.15066" lon="5.66971">
        <ele>564</ele>
        <time>2014-06-28T06:43:08.000Z</time>
      </trkpt>
      <trkpt lat="45.15067" lon="5.66971">
        <ele>564</ele>
        <time>2014-06-28T06:43:09.000Z</time>
      </trkpt>
      <trkpt lat="45.15068" lon="5.66971">
        <ele>564</ele>
        <time>2014-06-28T06:43:10.000Z</time>
      </trkpt>
      <trkpt lat="45.1507" lon="5.66971">
        <ele>564</ele>
        <time>2014-06-28T06:43:11.000Z</time>
      </trkpt>
      <trkpt lat="45.15071" lon="5.66972">
        <ele>564</ele>
        <time>2014-06-28T06:43:12.000Z</time>
      </trkpt>
      <trkpt lat="45.15073" lon="5.66971">
        <ele>565</ele>
        <time>2014-06-28T06:43:13.000Z</time>
      </trkpt>
      <trkpt lat="45.15074" lon="5.66971">
        <ele>565</ele>
        <time>2014-06-28T06:43:14.000Z</time>
      </trkpt>
      <trkpt lat="45.15076" lon="5.66971">
        <ele>565</ele>
        <time>2014-06-28T06:43:15.000Z</time>
      </trkpt>
      <trkpt lat="45.15077" lon="5.66971">
        <ele>565</ele>
        <time>2014-06-28T06:43:16.000Z</time>
      </trkpt>
      <trkpt lat="45.15079" lon="5.66971">
        <ele>565</ele>
        <time>2014-06-28T06:43:17.000Z</time>
      </trkpt>
      <trkpt lat="45.1508" lon="5.6697">
        <ele>566</ele>
        <time>2014-06-28T06:43:18.000Z</time>
      </trkpt>
      <trkpt lat="45.15082" lon="5.6697">
        <ele>566</ele>
        <time>2014-06-28T06:43:19.000Z</time>
      </trkpt>
      <trkpt lat="45.15084" lon="5.6697">
        <ele>566</ele>
        <time>2014-06-28T06:43:20.000Z</time>
      </trkpt>
      <trkpt lat="45.15086" lon="5.6697">
        <ele>566</ele>
        <time>2014-06-28T06:43:21.000Z</time>
      </trkpt>
      <trkpt lat="45.15088" lon="5.6697">
        <ele>567</ele>
        <time>2014-06-28T06:43:22.000Z</time>
      </trkpt>
      <trkpt lat="45.1509" lon="5.6697">
        <ele>567</ele>
        <time>2014-06-28T06:43:23.000Z</time>
      </trkpt>
      <trkpt lat="45.15092" lon="5.6697">
        <ele>567</ele>
        <time>2014-06-28T06:43:24.000Z</time>
      </trkpt>
      <trkpt lat="45.15094" lon="5.66971">
        <ele>567</ele>
        <time>2014-06-28T06:43:25.000Z</time>
      </trkpt>
      <trkpt lat="45.15096" lon="5.66972">
        <ele>568</ele>
        <time>2014-06-28T06:43:26.000Z</time>
      </trkpt>
      <trkpt lat="45.15098" lon="5.66973">
        <ele>568</ele>
        <time>2014-06-28T06:43:27.000Z</time>
      </trkpt>
      <trkpt lat="45.151" lon="5.66973">
        <ele>568</ele>
        <time>2014-06-28T06:43:28.000Z</time>
      </trkpt>
      <trkpt lat="45.15101" lon="5.66974">
        <ele>568</ele>
        <time>2014-06-28T06:43:29.000Z</time>
      </trkpt>
      <trkpt lat="45.15103" lon="5.66976">
        <ele>568</ele>
        <time>2014-06-28T06:43:30.000Z</time>
      </trkpt>
      <trkpt lat="45.15105" lon="5.66976">
        <ele>569</ele>
        <time>2014-06-28T06:43:31.000Z</time>
      </trkpt>
      <trkpt lat="45.15107" lon="5.66977">
        <ele>569</ele>
        <time>2014-06-28T06:43:32.000Z</time>
      </trkpt>
      <trkpt lat="45.15109" lon="5.66978">
        <ele>569</ele>
        <time>2014-06-28T06:43:33.000Z</time>
      </trkpt>
      <trkpt lat="45.15111" lon="5.66979">
        <ele>569</ele>
        <time>2014-06-28T06:43:34.000Z</time>
      </trkpt>
      <trkpt lat="45.15113" lon="5.6698">
        <ele>569</ele>
        <time>2014-06-28T06:43:35.000Z</time>
      </trkpt>
      <trkpt lat="45.15115" lon="5.6698">
        <ele>569</ele>
        <time>2014-06-28T06:43:36.000Z</time>
      </trkpt>
      <trkpt lat="45.15117" lon="5.66981">
        <ele>569</ele>
        <time>2014-06-28T06:43:37.000Z</time>
      </trkpt>
      <trkpt lat="45.15119" lon="5.66982">
        <ele>569</ele>
        <time>2014-06-28T06:43:38.000Z</time>
      </trkpt>
      <trkpt lat="45.15121" lon="5.66983">
        <ele>569</ele>
        <time>2014-06-28T06:43:39.000Z</time>
      </trkpt>
      <trkpt lat="45.15123" lon="5.66984">
        <ele>569</ele>
        <time>2014-06-28T06:43:40.000Z</time>
      </trkpt>
      <trkpt lat="45.15125" lon="5.66985">
        <ele>569</ele>
        <time>2014-06-28T06:43:41.000Z</time>
      </trkpt>
      <trkpt lat="45.15126" lon="5.66986">
        <ele>569</ele>
        <time>2014-06-28T06:43:42.000Z</time>
      </trkpt>
      <trkpt lat="45.15129" lon="5.66986">
        <ele>569</ele>
        <time>2014-06-28T06:43:43.000Z</time>
      </trkpt>
      <trkpt lat="45.15131" lon="5.66987">
        <ele>569</ele>
        <time>2014-06-28T06:43:44.000Z</time>
      </trkpt>
      <trkpt lat="45.15133" lon="5.66988">
        <ele>569</ele>
        <time>2014-06-28T06:43:45.000Z</time>
      </trkpt>
      <trkpt lat="45.15135" lon="5.66989">
        <ele>569</ele>
        <time>2014-06-28T06:43:46.000Z</time>
      </trkpt>
      <trkpt lat="45.15137" lon="5.6699">
        <ele>569</ele>
        <time>2014-06-28T06:43:47.000Z</time>
      </trkpt>
      <trkpt lat="45.15138" lon="5.6699">
        <ele>569</ele>
        <time>2014-06-28T06:43:48.000Z</time>
      </trkpt>
      <trkpt lat="45.1514" lon="5.66991">
        <ele>569</ele>
        <time>2014-06-28T06:43:49.000Z</time>
      </trkpt>
      <trkpt lat="45.15142" lon="5.66992">
        <ele>569</ele>
        <time>2014-06-28T06:43:50.000Z</time>
      </trkpt>
      <trkpt lat="45.15143" lon="5.66992">
        <ele>570</ele>
        <time>2014-06-28T06:43:51.000Z</time>
      </trkpt>
      <trkpt lat="45.15145" lon="5.66993">
        <ele>570</ele>
        <time>2014-06-28T06:43:52.000Z</time>
      </trkpt>
      <trkpt lat="45.15146" lon="5.66993">
        <ele>570</ele>
        <time>2014-06-28T06:43:53.000Z</time>
      </trkpt>
      <trkpt lat="45.15148" lon="5.66993">
        <ele>570</ele>
        <time>2014-06-28T06:43:54.000Z</time>
      </trkpt>
      <trkpt lat="45.15149" lon="5.66993">
        <ele>570</ele>
        <time>2014-06-28T06:43:55.000Z</time>
      </trkpt>
      <trkpt lat="45.15151" lon="5.66994">
        <ele>570</ele>
        <time>2014-06-28T06:43:56.000Z</time>
      </trkpt>
      <trkpt lat="45.15152" lon="5.66994">
        <ele>570</ele>
        <time>2014-06-28T06:43:57.000Z</time>
      </trkpt>
      <trkpt lat="45.15154" lon="5.66993">
        <ele>570</ele>
        <time>2014-06-28T06:43:58.000Z</time>
      </trkpt>
      <trkpt lat="45.15156" lon="5.66993">
        <ele>570</ele>
        <time>2014-06-28T06:43:59.000Z</time>
      </trkpt>
      <trkpt lat="45.15157" lon="5.66992">
        <ele>570</ele>
        <time>2014-06-28T06:44:00.000Z</time>
      </trkpt>
      <trkpt lat="45.15158" lon="5.66992">
        <ele>571</ele>
        <time>2014-06-28T06:44:01.000Z</time>
      </trkpt>
      <trkpt lat="45.15159" lon="5.66991">
        <ele>571</ele>
        <time>2014-06-28T06:44:02.000Z</time>
      </trkpt>
      <trkpt lat="45.1516" lon="5.66991">
        <ele>571</ele>
        <time>2014-06-28T06:44:03.000Z</time>
      </trkpt>
      <trkpt lat="45.15161" lon="5.6699">
        <ele>571</ele>
        <time>2014-06-28T06:44:04.000Z</time>
      </trkpt>
      <trkpt lat="45.15161" lon="5.6699">
        <ele>571</ele>
        <time>2014-06-28T06:44:05.000Z</time>
      </trkpt>
      <trkpt lat="45.15162" lon="5.66989">
        <ele>571</ele>
        <time>2014-06-28T06:44:06.000Z</time>
      </trkpt>
      <trkpt lat="45.15163" lon="5.66988">
        <ele>571</ele>
        <time>2014-06-28T06:44:07.000Z</time>
      </trkpt>
      <trkpt lat="45.15163" lon="5.66988">
        <ele>572</ele>
        <time>2014-06-28T06:44:08.000Z</time>
      </trkpt>
      <trkpt lat="45.15164" lon="5.66988">
        <ele>572</ele>
        <time>2014-06-28T06:44:09.000Z</time>
      </trkpt>
      <trkpt lat="45.15164" lon="5.66989">
        <ele>572</ele>
        <time>2014-06-28T06:44:10.000Z</time>
      </trkpt>
      <trkpt lat="45.15164" lon="5.66989">
        <ele>572</ele>
        <time>2014-06-28T06:44:11.000Z</time>
      </trkpt>
      <trkpt lat="45.15164" lon="5.66989">
        <ele>573</ele>
        <time>2014-06-28T06:44:12.000Z</time>
      </trkpt>
      <trkpt lat="45.15164" lon="5.66988">
        <ele>573</ele>
        <time>2014-06-28T06:44:13.000Z</time>
      </trkpt>
      <trkpt lat="45.15164" lon="5.66987">
        <ele>573</ele>
        <time>2014-06-28T06:44:14.000Z</time>
      </trkpt>
      <trkpt lat="45.15164" lon="5.66987">
        <ele>574</ele>
        <time>2014-06-28T06:44:15.000Z</time>
      </trkpt>
      <trkpt lat="45.15165" lon="5.66986">
        <ele>574</ele>
        <time>2014-06-28T06:44:16.000Z</time>
      </trkpt>
      <trkpt lat="45.15165" lon="5.66986">
        <ele>574</ele>
        <time>2014-06-28T06:44:17.000Z</time>
      </trkpt>
      <trkpt lat="45.15165" lon="5.66985">
        <ele>574</ele>
        <time>2014-06-28T06:44:18.000Z</time>
      </trkpt>
      <trkpt lat="45.15165" lon="5.66985">
        <ele>575</ele>
        <time>2014-06-28T06:44:19.000Z</time>
      </trkpt>
      <trkpt lat="45.15165" lon="5.66984">
        <ele>575</ele>
        <time>2014-06-28T06:44:20.000Z</time>
      </trkpt>
      <trkpt lat="45.15165" lon="5.66984">
        <ele>575</ele>
        <time>2014-06-28T06:44:21.000Z</time>
      </trkpt>
      <trkpt lat="45.15165" lon="5.66983">
        <ele>575</ele>
        <time>2014-06-28T06:44:22.000Z</time>
      </trkpt>
      <trkpt lat="45.15165" lon="5.66981">
        <ele>575</ele>
        <time>2014-06-28T06:44:23.000Z</time>
      </trkpt>
      <trkpt lat="45.15165" lon="5.6698">
        <ele>576</ele>
        <time>2014-06-28T06:44:24.000Z</time>
      </trkpt>
      <trkpt lat="45.15165" lon="5.66978">
        <ele>576</ele>
        <time>2014-06-28T06:44:25.000Z</time>
      </trkpt>
      <trkpt lat="45.15165" lon="5.66977">
        <ele>576</ele>
        <time>2014-06-28T06:44:26.000Z</time>
      </trkpt>
      <trkpt lat="45.15165" lon="5.66976">
        <ele>576</ele>
        <time>2014-06-28T06:44:27.000Z</time>
      </trkpt>
      <trkpt lat="45.15165" lon="5.66974">
        <ele>577</ele>
        <time>2014-06-28T06:44:28.000Z</time>
      </trkpt>
      <trkpt lat="45.15164" lon="5.66973">
        <ele>577</ele>
        <time>2014-06-28T06:44:29.000Z</time>
      </trkpt>
      <trkpt lat="45.15163" lon="5.66971">
        <ele>577</ele>
        <time>2014-06-28T06:44:30.000Z</time>
      </trkpt>
      <trkpt lat="45.15163" lon="5.66969">
        <ele>577</ele>
        <time>2014-06-28T06:44:31.000Z</time>
      </trkpt>
      <trkpt lat="45.15162" lon="5.66967">
        <ele>577</ele>
        <time>2014-06-28T06:44:32.000Z</time>
      </trkpt>
      <trkpt lat="45.15162" lon="5.66965">
        <ele>578</ele>
        <time>2014-06-28T06:44:33.000Z</time>
      </trkpt>
      <trkpt lat="45.15161" lon="5.66963">
        <ele>578</ele>
        <time>2014-06-28T06:44:34.000Z</time>
      </trkpt>
      <trkpt lat="45.1516" lon="5.66961">
        <ele>578</ele>
        <time>2014-06-28T06:44:35.000Z</time>
      </trkpt>
      <trkpt lat="45.15159" lon="5.66959">
        <ele>579</ele>
        <time>2014-06-28T06:44:36.000Z</time>
      </trkpt>
      <trkpt lat="45.15158" lon="5.66957">
        <ele>579</ele>
        <time>2014-06-28T06:44:37.000Z</time>
      </trkpt>
      <trkpt lat="45.15158" lon="5.66955">
        <ele>579</ele>
        <time>2014-06-28T06:44:38.000Z</time>
      </trkpt>
      <trkpt lat="45.15157" lon="5.66953">
        <ele>580</ele>
        <time>2014-06-28T06:44:39.000Z</time>
      </trkpt>
      <trkpt lat="45.15155" lon="5.6695">
        <ele>580</ele>
        <time>2014-06-28T06:44:40.000Z</time>
      </trkpt>
      <trkpt lat="45.15154" lon="5.66948">
        <ele>581</ele>
        <time>2014-06-28T06:44:41.000Z</time>
      </trkpt>
      <trkpt lat="45.15154" lon="5.66946">
        <ele>581</ele>
        <time>2014-06-28T06:44:42.000Z</time>
      </trkpt>
      <trkpt lat="45.15153" lon="5.66945">
        <ele>581</ele>
        <time>2014-06-28T06:44:43.000Z</time>
      </trkpt>
      <trkpt lat="45.15152" lon="5.66943">
        <ele>582</ele>
        <time>2014-06-28T06:44:44.000Z</time>
      </trkpt>
      <trkpt lat="45.15151" lon="5.66941">
        <ele>582</ele>
        <time>2014-06-28T06:44:45.000Z</time>
      </trkpt>
      <trkpt lat="45.1515" lon="5.6694">
        <ele>582</ele>
        <time>2014-06-28T06:44:46.000Z</time>
      </trkpt>
      <trkpt lat="45.15149" lon="5.66938">
        <ele>583</ele>
        <time>2014-06-28T06:44:47.000Z</time>
      </trkpt>
      <trkpt lat="45.15147" lon="5.66936">
        <ele>583</ele>
        <time>2014-06-28T06:44:48.000Z</time>
      </trkpt>
      <trkpt lat="45.15146" lon="5.66935">
        <ele>584</ele>
        <time>2014-06-28T06:44:49.000Z</time>
      </trkpt>
      <trkpt lat="45.15145" lon="5.66934">
        <ele>584</ele>
        <time>2014-06-28T06:44:50.000Z</time>
      </trkpt>
      <trkpt lat="45.15144" lon="5.66932">
        <ele>584</ele>
        <time>2014-06-28T06:44:51.000Z</time>
      </trkpt>
      <trkpt lat="45.15143" lon="5.6693">
        <ele>585</ele>
        <time>2014-06-28T06:44:52.000Z</time>
      </trkpt>
      <trkpt lat="45.15142" lon="5.66928">
        <ele>585</ele>
        <time>2014-06-28T06:44:53.000Z</time>
      </trkpt>
      <trkpt lat="45.15141" lon="5.66926">
        <ele>585</ele>
        <time>2014-06-28T06:44:54.000Z</time>
      </trkpt>
      <trkpt lat="45.1514" lon="5.66924">
        <ele>586</ele>
        <time>2014-06-28T06:44:55.000Z</time>
      </trkpt>
      <trkpt lat="45.15139" lon="5.66922">
        <ele>586</ele>
        <time>2014-06-28T06:44:56.000Z</time>
      </trkpt>
      <trkpt lat="45.15138" lon="5.6692">
        <ele>586</ele>
        <time>2014-06-28T06:44:57.000Z</time>
      </trkpt>
      <trkpt lat="45.15137" lon="5.66918">
        <ele>587</ele>
        <time>2014-06-28T06:44:58.000Z</time>
      </trkpt>
      <trkpt lat="45.15137" lon="5.66917">
        <ele>587</ele>
        <time>2014-06-28T06:44:59.000Z</time>
      </trkpt>
      <trkpt lat="45.15136" lon="5.66915">
        <ele>587</ele>
        <time>2014-06-28T06:45:00.000Z</time>
      </trkpt>
      <trkpt lat="45.15135" lon="5.66914">
        <ele>588</ele>
        <time>2014-06-28T06:45:01.000Z</time>
      </trkpt>
      <trkpt lat="45.15135" lon="5.66912">
        <ele>588</ele>
        <time>2014-06-28T06:45:02.000Z</time>
      </trkpt>
      <trkpt lat="45.15134" lon="5.66911">
        <ele>588</ele>
        <time>2014-06-28T06:45:03.000Z</time>
      </trkpt>
      <trkpt lat="45.15133" lon="5.6691">
        <ele>589</ele>
        <time>2014-06-28T06:45:04.000Z</time>
      </trkpt>
      <trkpt lat="45.15132" lon="5.66908">
        <ele>589</ele>
        <time>2014-06-28T06:45:05.000Z</time>
      </trkpt>
      <trkpt lat="45.15132" lon="5.66907">
        <ele>589</ele>
        <time>2014-06-28T06:45:06.000Z</time>
      </trkpt>
      <trkpt lat="45.15131" lon="5.66905">
        <ele>590</ele>
        <time>2014-06-28T06:45:07.000Z</time>
      </trkpt>
      <trkpt lat="45.15131" lon="5.66904">
        <ele>590</ele>
        <time>2014-06-28T06:45:08.000Z</time>
      </trkpt>
      <trkpt lat="45.1513" lon="5.66902">
        <ele>590</ele>
        <time>2014-06-28T06:45:09.000Z</time>
      </trkpt>
      <trkpt lat="45.1513" lon="5.66901">
        <ele>590</ele>
        <time>2014-06-28T06:45:10.000Z</time>
      </trkpt>
      <trkpt lat="45.15129" lon="5.669">
        <ele>591</ele>
        <time>2014-06-28T06:45:11.000Z</time>
      </trkpt>
      <trkpt lat="45.15129" lon="5.66899">
        <ele>591</ele>
        <time>2014-06-28T06:45:12.000Z</time>
      </trkpt>
      <trkpt lat="45.15129" lon="5.66898">
        <ele>591</ele>
        <time>2014-06-28T06:45:13.000Z</time>
      </trkpt>
      <trkpt lat="45.15128" lon="5.66896">
        <ele>592</ele>
        <time>2014-06-28T06:45:14.000Z</time>
      </trkpt>
      <trkpt lat="45.15127" lon="5.66895">
        <ele>592</ele>
        <time>2014-06-28T06:45:15.000Z</time>
      </trkpt>
      <trkpt lat="45.15127" lon="5.66893">
        <ele>593</ele>
        <time>2014-06-28T06:45:16.000Z</time>
      </trkpt>
      <trkpt lat="45.15127" lon="5.66892">
        <ele>593</ele>
        <time>2014-06-28T06:45:17.000Z</time>
      </trkpt>
      <trkpt lat="45.15126" lon="5.6689">
        <ele>593</ele>
        <time>2014-06-28T06:45:18.000Z</time>
      </trkpt>
      <trkpt lat="45.15126" lon="5.66889">
        <ele>594</ele>
        <time>2014-06-28T06:45:19.000Z</time>
      </trkpt>
      <trkpt lat="45.15126" lon="5.66888">
        <ele>594</ele>
        <time>2014-06-28T06:45:20.000Z</time>
      </trkpt>
      <trkpt lat="45.15125" lon="5.66886">
        <ele>594</ele>
        <time>2014-06-28T06:45:21.000Z</time>
      </trkpt>
      <trkpt lat="45.15125" lon="5.66885">
        <ele>595</ele>
        <time>2014-06-28T06:45:22.000Z</time>
      </trkpt>
      <trkpt lat="45.15124" lon="5.66884">
        <ele>595</ele>
        <time>2014-06-28T06:45:23.000Z</time>
      </trkpt>
      <trkpt lat="45.15124" lon="5.66883">
        <ele>596</ele>
        <time>2014-06-28T06:45:24.000Z</time>
      </trkpt>
      <trkpt lat="45.15123" lon="5.66882">
        <ele>596</ele>
        <time>2014-06-28T06:45:25.000Z</time>
      </trkpt>
      <trkpt lat="45.15123" lon="5.66881">
        <ele>596</ele>
        <time>2014-06-28T06:45:26.000Z</time>
      </trkpt>
      <trkpt lat="45.15122" lon="5.6688">
        <ele>597</ele>
        <time>2014-06-28T06:45:27.000Z</time>
      </trkpt>
      <trkpt lat="45.15122" lon="5.66879">
        <ele>597</ele>
        <time>2014-06-28T06:45:28.000Z</time>
      </trkpt>
      <trkpt lat="45.15121" lon="5.66878">
        <ele>597</ele>
        <time>2014-06-28T06:45:29.000Z</time>
      </trkpt>
      <trkpt lat="45.15121" lon="5.66877">
        <ele>598</ele>
        <time>2014-06-28T06:45:30.000Z</time>
      </trkpt>
      <trkpt lat="45.1512" lon="5.66876">
        <ele>598</ele>
        <time>2014-06-28T06:45:31.000Z</time>
      </trkpt>
      <trkpt lat="45.1512" lon="5.66875">
        <ele>599</ele>
        <time>2014-06-28T06:45:32.000Z</time>
      </trkpt>
      <trkpt lat="45.15119" lon="5.66874">
        <ele>599</ele>
        <time>2014-06-28T06:45:33.000Z</time>
      </trkpt>
      <trkpt lat="45.15118" lon="5.66873">
        <ele>600</ele>
        <time>2014-06-28T06:45:34.000Z</time>
      </trkpt>
      <trkpt lat="45.15118" lon="5.66871">
        <ele>600</ele>
        <time>2014-06-28T06:45:35.000Z</time>
      </trkpt>
      <trkpt lat="45.15117" lon="5.6687">
        <ele>601</ele>
        <time>2014-06-28T06:45:36.000Z</time>
      </trkpt>
      <trkpt lat="45.15116" lon="5.66869">
        <ele>601</ele>
        <time>2014-06-28T06:45:37.000Z</time>
      </trkpt>
      <trkpt lat="45.15116" lon="5.66868">
        <ele>601</ele>
        <time>2014-06-28T06:45:38.000Z</time>
      </trkpt>
      <trkpt lat="45.15115" lon="5.66867">
        <ele>602</ele>
        <time>2014-06-28T06:45:39.000Z</time>
      </trkpt>
      <trkpt lat="45.15114" lon="5.66866">
        <ele>602</ele>
        <time>2014-06-28T06:45:40.000Z</time>
      </trkpt>
      <trkpt lat="45.15113" lon="5.66865">
        <ele>603</ele>
        <time>2014-06-28T06:45:41.000Z</time>
      </trkpt>
      <trkpt lat="45.15112" lon="5.66865">
        <ele>603</ele>
        <time>2014-06-28T06:45:42.000Z</time>
      </trkpt>
      <trkpt lat="45.15111" lon="5.66864">
        <ele>603</ele>
        <time>2014-06-28T06:45:43.000Z</time>
      </trkpt>
      <trkpt lat="45.15111" lon="5.66863">
        <ele>604</ele>
        <time>2014-06-28T06:45:44.000Z</time>
      </trkpt>
      <trkpt lat="45.15109" lon="5.66863">
        <ele>604</ele>
        <time>2014-06-28T06:45:45.000Z</time>
      </trkpt>
      <trkpt lat="45.15108" lon="5.66862">
        <ele>605</ele>
        <time>2014-06-28T06:45:46.000Z</time>
      </trkpt>
      <trkpt lat="45.15107" lon="5.66861">
        <ele>605</ele>
        <time>2014-06-28T06:45:47.000Z</time>
      </trkpt>
      <trkpt lat="45.15106" lon="5.6686">
        <ele>606</ele>
        <time>2014-06-28T06:45:48.000Z</time>
      </trkpt>
      <trkpt lat="45.15105" lon="5.66859">
        <ele>606</ele>
        <time>2014-06-28T06:45:49.000Z</time>
      </trkpt>
      <trkpt lat="45.15104" lon="5.66858">
        <ele>607</ele>
        <time>2014-06-28T06:45:50.000Z</time>
      </trkpt>
      <trkpt lat="45.15103" lon="5.66857">
        <ele>607</ele>
        <time>2014-06-28T06:45:51.000Z</time>
      </trkpt>
      <trkpt lat="45.15102" lon="5.66856">
        <ele>608</ele>
        <time>2014-06-28T06:45:52.000Z</time>
      </trkpt>
      <trkpt lat="45.15101" lon="5.66855">
        <ele>608</ele>
        <time>2014-06-28T06:45:53.000Z</time>
      </trkpt>
      <trkpt lat="45.15101" lon="5.66854">
        <ele>608</ele>
        <time>2014-06-28T06:45:54.000Z</time>
      </trkpt>
      <trkpt lat="45.151" lon="5.66853">
        <ele>609</ele>
        <time>2014-06-28T06:45:55.000Z</time>
      </trkpt>
      <trkpt lat="45.15099" lon="5.66852">
        <ele>609</ele>
        <time>2014-06-28T06:45:56.000Z</time>
      </trkpt>
      <trkpt lat="45.15098" lon="5.66851">
        <ele>610</ele>
        <time>2014-06-28T06:45:57.000Z</time>
      </trkpt>
      <trkpt lat="45.15097" lon="5.6685">
        <ele>610</ele>
        <time>2014-06-28T06:45:58.000Z</time>
      </trkpt>
      <trkpt lat="45.15096" lon="5.66849">
        <ele>611</ele>
        <time>2014-06-28T06:45:59.000Z</time>
      </trkpt>
      <trkpt lat="45.15095" lon="5.66848">
        <ele>611</ele>
        <time>2014-06-28T06:46:00.000Z</time>
      </trkpt>
      <trkpt lat="45.15094" lon="5.66847">
        <ele>612</ele>
        <time>2014-06-28T06:46:01.000Z</time>
      </trkpt>
      <trkpt lat="45.15093" lon="5.66847">
        <ele>612</ele>
        <time>2014-06-28T06:46:02.000Z</time>
      </trkpt>
      <trkpt lat="45.15091" lon="5.66846">
        <ele>612</ele>
        <time>2014-06-28T06:46:03.000Z</time>
      </trkpt>
      <trkpt lat="45.1509" lon="5.66845">
        <ele>613</ele>
        <time>2014-06-28T06:46:04.000Z</time>
      </trkpt>
      <trkpt lat="45.15089" lon="5.66845">
        <ele>613</ele>
        <time>2014-06-28T06:46:05.000Z</time>
      </trkpt>
      <trkpt lat="45.15088" lon="5.66844">
        <ele>613</ele>
        <time>2014-06-28T06:46:06.000Z</time>
      </trkpt>
      <trkpt lat="45.15087" lon="5.66843">
        <ele>614</ele>
        <time>2014-06-28T06:46:07.000Z</time>
      </trkpt>
      <trkpt lat="45.15086" lon="5.66842">
        <ele>614</ele>
        <time>2014-06-28T06:46:08.000Z</time>
      </trkpt>
      <trkpt lat="45.15085" lon="5.66841">
        <ele>615</ele>
        <time>2014-06-28T06:46:09.000Z</time>
      </trkpt>
      <trkpt lat="45.15085" lon="5.6684">
        <ele>615</ele>
        <time>2014-06-28T06:46:10.000Z</time>
      </trkpt>
      <trkpt lat="45.15084" lon="5.66839">
        <ele>615</ele>
        <time>2014-06-28T06:46:11.000Z</time>
      </trkpt>
      <trkpt lat="45.15083" lon="5.66838">
        <ele>616</ele>
        <time>2014-06-28T06:46:12.000Z</time>
      </trkpt>
      <trkpt lat="45.15083" lon="5.66837">
        <ele>616</ele>
        <time>2014-06-28T06:46:13.000Z</time>
      </trkpt>
      <trkpt lat="45.15082" lon="5.66836">
        <ele>617</ele>
        <time>2014-06-28T06:46:14.000Z</time>
      </trkpt>
      <trkpt lat="45.15081" lon="5.66835">
        <ele>617</ele>
        <time>2014-06-28T06:46:15.000Z</time>
      </trkpt>
      <trkpt lat="45.1508" lon="5.66834">
        <ele>617</ele>
        <time>2014-06-28T06:46:16.000Z</time>
      </trkpt>
      <trkpt lat="45.15079" lon="5.66832">
        <ele>618</ele>
        <time>2014-06-28T06:46:17.000Z</time>
      </trkpt>
      <trkpt lat="45.15079" lon="5.66831">
        <ele>618</ele>
        <time>2014-06-28T06:46:18.000Z</time>
      </trkpt>
      <trkpt lat="45.15078" lon="5.66829">
        <ele>618</ele>
        <time>2014-06-28T06:46:19.000Z</time>
      </trkpt>
      <trkpt lat="45.15078" lon="5.66828">
        <ele>618</ele>
        <time>2014-06-28T06:46:20.000Z</time>
      </trkpt>
      <trkpt lat="45.15077" lon="5.66827">
        <ele>619</ele>
        <time>2014-06-28T06:46:21.000Z</time>
      </trkpt>
      <trkpt lat="45.15076" lon="5.66826">
        <ele>619</ele>
        <time>2014-06-28T06:46:22.000Z</time>
      </trkpt>
      <trkpt lat="45.15076" lon="5.66825">
        <ele>620</ele>
        <time>2014-06-28T06:46:23.000Z</time>
      </trkpt>
      <trkpt lat="45.15075" lon="5.66823">
        <ele>620</ele>
        <time>2014-06-28T06:46:24.000Z</time>
      </trkpt>
      <trkpt lat="45.15075" lon="5.66822">
        <ele>620</ele>
        <time>2014-06-28T06:46:25.000Z</time>
      </trkpt>
      <trkpt lat="45.15074" lon="5.66821">
        <ele>621</ele>
        <time>2014-06-28T06:46:26.000Z</time>
      </trkpt>
      <trkpt lat="45.15073" lon="5.6682">
        <ele>621</ele>
        <time>2014-06-28T06:46:27.000Z</time>
      </trkpt>
      <trkpt lat="45.15073" lon="5.66819">
        <ele>622</ele>
        <time>2014-06-28T06:46:28.000Z</time>
      </trkpt>
      <trkpt lat="45.15072" lon="5.66818">
        <ele>622</ele>
        <time>2014-06-28T06:46:29.000Z</time>
      </trkpt>
      <trkpt lat="45.15071" lon="5.66816">
        <ele>623</ele>
        <time>2014-06-28T06:46:30.000Z</time>
      </trkpt>
      <trkpt lat="45.1507" lon="5.66815">
        <ele>623</ele>
        <time>2014-06-28T06:46:31.000Z</time>
      </trkpt>
      <trkpt lat="45.1507" lon="5.66814">
        <ele>624</ele>
        <time>2014-06-28T06:46:32.000Z</time>
      </trkpt>
      <trkpt lat="45.15069" lon="5.66813">
        <ele>624</ele>
        <time>2014-06-28T06:46:33.000Z</time>
      </trkpt>
      <trkpt lat="45.15069" lon="5.66811">
        <ele>624</ele>
        <time>2014-06-28T06:46:34.000Z</time>
      </trkpt>
      <trkpt lat="45.15068" lon="5.6681">
        <ele>625</ele>
        <time>2014-06-28T06:46:35.000Z</time>
      </trkpt>
      <trkpt lat="45.15067" lon="5.66809">
        <ele>625</ele>
        <time>2014-06-28T06:46:36.000Z</time>
      </trkpt>
      <trkpt lat="45.15066" lon="5.66808">
        <ele>625</ele>
        <time>2014-06-28T06:46:37.000Z</time>
      </trkpt>
      <trkpt lat="45.15065" lon="5.66806">
        <ele>626</ele>
        <time>2014-06-28T06:46:38.000Z</time>
      </trkpt>
      <trkpt lat="45.15064" lon="5.66804">
        <ele>626</ele>
        <time>2014-06-28T06:46:39.000Z</time>
      </trkpt>
      <trkpt lat="45.15063" lon="5.66802">
        <ele>626</ele>
        <time>2014-06-28T06:46:40.000Z</time>
      </trkpt>
      <trkpt lat="45.15062" lon="5.668">
        <ele>626</ele>
        <time>2014-06-28T06:46:41.000Z</time>
      </trkpt>
      <trkpt lat="45.15061" lon="5.66799">
        <ele>627</ele>
        <time>2014-06-28T06:46:42.000Z</time>
      </trkpt>
      <trkpt lat="45.1506" lon="5.66797">
        <ele>627</ele>
        <time>2014-06-28T06:46:43.000Z</time>
      </trkpt>
      <trkpt lat="45.15059" lon="5.66795">
        <ele>627</ele>
        <time>2014-06-28T06:46:44.000Z</time>
      </trkpt>
      <trkpt lat="45.15058" lon="5.66794">
        <ele>627</ele>
        <time>2014-06-28T06:46:45.000Z</time>
      </trkpt>
      <trkpt lat="45.15057" lon="5.66793">
        <ele>627</ele>
        <time>2014-06-28T06:46:46.000Z</time>
      </trkpt>
      <trkpt lat="45.15056" lon="5.66792">
        <ele>628</ele>
        <time>2014-06-28T06:46:47.000Z</time>
      </trkpt>
      <trkpt lat="45.15055" lon="5.66791">
        <ele>628</ele>
        <time>2014-06-28T06:46:48.000Z</time>
      </trkpt>
      <trkpt lat="45.15053" lon="5.6679">
        <ele>628</ele>
        <time>2014-06-28T06:46:49.000Z</time>
      </trkpt>
      <trkpt lat="45.15052" lon="5.66789">
        <ele>628</ele>
        <time>2014-06-28T06:46:50.000Z</time>
      </trkpt>
      <trkpt lat="45.15051" lon="5.66789">
        <ele>628</ele>
        <time>2014-06-28T06:46:51.000Z</time>
      </trkpt>
      <trkpt lat="45.1505" lon="5.66788">
        <ele>628</ele>
        <time>2014-06-28T06:46:52.000Z</time>
      </trkpt>
      <trkpt lat="45.1505" lon="5.66787">
        <ele>629</ele>
        <time>2014-06-28T06:46:53.000Z</time>
      </trkpt>
      <trkpt lat="45.1505" lon="5.66787">
        <ele>629</ele>
        <time>2014-06-28T06:46:54.000Z</time>
      </trkpt>
      <trkpt lat="45.1505" lon="5.66787">
        <ele>629</ele>
        <time>2014-06-28T06:46:55.000Z</time>
      </trkpt>
      <trkpt lat="45.1505" lon="5.66786">
        <ele>629</ele>
        <time>2014-06-28T06:46:56.000Z</time>
      </trkpt>
      <trkpt lat="45.1505" lon="5.66786">
        <ele>629</ele>
        <time>2014-06-28T06:46:57.000Z</time>
      </trkpt>
      <trkpt lat="45.1505" lon="5.66787">
        <ele>630</ele>
        <time>2014-06-28T06:46:58.000Z</time>
      </trkpt>
      <trkpt lat="45.1505" lon="5.66787">
        <ele>630</ele>
        <time>2014-06-28T06:46:59.000Z</time>
      </trkpt>
      <trkpt lat="45.15051" lon="5.66787">
        <ele>630</ele>
        <time>2014-06-28T06:47:00.000Z</time>
      </trkpt>
      <trkpt lat="45.15051" lon="5.66787">
        <ele>630</ele>
        <time>2014-06-28T06:47:01.000Z</time>
      </trkpt>
      <trkpt lat="45.15051" lon="5.66787">
        <ele>630</ele>
        <time>2014-06-28T06:47:02.000Z</time>
      </trkpt>
      <trkpt lat="45.15051" lon="5.66787">
        <ele>630</ele>
        <time>2014-06-28T06:47:03.000Z</time>
      </trkpt>
      <trkpt lat="45.15052" lon="5.66788">
        <ele>630</ele>
        <time>2014-06-28T06:47:04.000Z</time>
      </trkpt>
      <trkpt lat="45.15052" lon="5.66788">
        <ele>630</ele>
        <time>2014-06-28T06:47:05.000Z</time>
      </trkpt>
      <trkpt lat="45.15052" lon="5.66788">
        <ele>630</ele>
        <time>2014-06-28T06:47:06.000Z</time>
      </trkpt>
      <trkpt lat="45.15053" lon="5.66788">
        <ele>630</ele>
        <time>2014-06-28T06:47:07.000Z</time>
      </trkpt>
      <trkpt lat="45.15053" lon="5.66788">
        <ele>630</ele>
        <time>2014-06-28T06:47:08.000Z</time>
      </trkpt>
      <trkpt lat="45.15054" lon="5.66788">
        <ele>630</ele>
        <time>2014-06-28T06:47:09.000Z</time>
      </trkpt>
      <trkpt lat="45.15054" lon="5.66788">
        <ele>630</ele>
        <time>2014-06-28T06:47:10.000Z</time>
      </trkpt>
      <trkpt lat="45.15054" lon="5.66788">
        <ele>630</ele>
        <time>2014-06-28T06:47:11.000Z</time>
      </trkpt>
      <trkpt lat="45.15055" lon="5.66788">
        <ele>630</ele>
        <time>2014-06-28T06:47:12.000Z</time>
      </trkpt>
      <trkpt lat="45.15055" lon="5.66788">
        <ele>630</ele>
        <time>2014-06-28T06:47:13.000Z</time>
      </trkpt>
      <trkpt lat="45.15055" lon="5.66787">
        <ele>630</ele>
        <time>2014-06-28T06:47:14.000Z</time>
      </trkpt>
      <trkpt lat="45.15055" lon="5.66787">
        <ele>630</ele>
        <time>2014-06-28T06:47:15.000Z</time>
      </trkpt>
      <trkpt lat="45.15056" lon="5.66787">
        <ele>630</ele>
        <time>2014-06-28T06:47:16.000Z</time>
      </trkpt>
      <trkpt lat="45.15056" lon="5.66786">
        <ele>630</ele>
        <time>2014-06-28T06:47:17.000Z</time>
      </trkpt>
      <trkpt lat="45.15057" lon="5.66786">
        <ele>630</ele>
        <time>2014-06-28T06:47:18.000Z</time>
      </trkpt>
      <trkpt lat="45.15058" lon="5.66786">
        <ele>630</ele>
        <time>2014-06-28T06:47:19.000Z</time>
      </trkpt>
      <trkpt lat="45.15059" lon="5.66785">
        <ele>630</ele>
        <time>2014-06-28T06:47:20.000Z</time>
      </trkpt>
      <trkpt lat="45.1506" lon="5.66784">
        <ele>630</ele>
        <time>2014-06-28T06:47:21.000Z</time>
      </trkpt>
      <trkpt lat="45.15061" lon="5.66784">
        <ele>630</ele>
        <time>2014-06-28T06:47:22.000Z</time>
      </trkpt>
      <trkpt lat="45.15062" lon="5.66783">
        <ele>630</ele>
        <time>2014-06-28T06:47:23.000Z</time>
      </trkpt>
      <trkpt lat="45.15063" lon="5.66783">
        <ele>630</ele>
        <time>2014-06-28T06:47:24.000Z</time>
      </trkpt>
      <trkpt lat="45.15064" lon="5.66783">
        <ele>630</ele>
        <time>2014-06-28T06:47:25.000Z</time>
      </trkpt>
      <trkpt lat="45.15064" lon="5.66783">
        <ele>630</ele>
        <time>2014-06-28T06:47:26.000Z</time>
      </trkpt>
      <trkpt lat="45.15065" lon="5.66783">
        <ele>631</ele>
        <time>2014-06-28T06:47:27.000Z</time>
      </trkpt>
      <trkpt lat="45.15066" lon="5.66783">
        <ele>631</ele>
        <time>2014-06-28T06:47:28.000Z</time>
      </trkpt>
      <trkpt lat="45.15067" lon="5.66783">
        <ele>631</ele>
        <time>2014-06-28T06:47:29.000Z</time>
      </trkpt>
      <trkpt lat="45.15067" lon="5.66782">
        <ele>631</ele>
        <time>2014-06-28T06:47:30.000Z</time>
      </trkpt>
      <trkpt lat="45.15068" lon="5.66782">
        <ele>631</ele>
        <time>2014-06-28T06:47:31.000Z</time>
      </trkpt>
      <trkpt lat="45.15069" lon="5.66782">
        <ele>631</ele>
        <time>2014-06-28T06:47:32.000Z</time>
      </trkpt>
      <trkpt lat="45.1507" lon="5.66782">
        <ele>631</ele>
        <time>2014-06-28T06:47:33.000Z</time>
      </trkpt>
      <trkpt lat="45.15071" lon="5.66781">
        <ele>631</ele>
        <time>2014-06-28T06:47:34.000Z</time>
      </trkpt>
      <trkpt lat="45.15072" lon="5.66781">
        <ele>631</ele>
        <time>2014-06-28T06:47:35.000Z</time>
      </trkpt>
      <trkpt lat="45.15073" lon="5.6678">
        <ele>631</ele>
        <time>2014-06-28T06:47:36.000Z</time>
      </trkpt>
      <trkpt lat="45.15074" lon="5.6678">
        <ele>631</ele>
        <time>2014-06-28T06:47:37.000Z</time>
      </trkpt>
      <trkpt lat="45.15075" lon="5.6678">
        <ele>631</ele>
        <time>2014-06-28T06:47:38.000Z</time>
      </trkpt>
      <trkpt lat="45.15075" lon="5.66779">
        <ele>631</ele>
        <time>2014-06-28T06:47:39.000Z</time>
      </trkpt>
      <trkpt lat="45.15076" lon="5.66779">
        <ele>631</ele>
        <time>2014-06-28T06:47:40.000Z</time>
      </trkpt>
      <trkpt lat="45.15077" lon="5.66779">
        <ele>631</ele>
        <time>2014-06-28T06:47:41.000Z</time>
      </trkpt>
      <trkpt lat="45.15078" lon="5.66779">
        <ele>631</ele>
        <time>2014-06-28T06:47:42.000Z</time>
      </trkpt>
      <trkpt lat="45.15079" lon="5.66779">
        <ele>632</ele>
        <time>2014-06-28T06:47:43.000Z</time>
      </trkpt>
      <trkpt lat="45.1508" lon="5.66778">
        <ele>632</ele>
        <time>2014-06-28T06:47:44.000Z</time>
      </trkpt>
      <trkpt lat="45.15081" lon="5.66778">
        <ele>632</ele>
        <time>2014-06-28T06:47:45.000Z</time>
      </trkpt>
      <trkpt lat="45.15082" lon="5.66778">
        <ele>632</ele>
        <time>2014-06-28T06:47:46.000Z</time>
      </trkpt>
      <trkpt lat="45.15083" lon="5.66778">
        <ele>632</ele>
        <time>2014-06-28T06:47:47.000Z</time>
      </trkpt>
      <trkpt lat="45.15084" lon="5.66778">
        <ele>632</ele>
        <time>2014-06-28T06:47:48.000Z</time>
      </trkpt>
      <trkpt lat="45.15085" lon="5.66778">
        <ele>632</ele>
        <time>2014-06-28T06:47:49.000Z</time>
      </trkpt>
      <trkpt lat="45.15085" lon="5.66778">
        <ele>633</ele>
        <time>2014-06-28T06:47:50.000Z</time>
      </trkpt>
      <trkpt lat="45.15086" lon="5.66777">
        <ele>633</ele>
        <time>2014-06-28T06:47:51.000Z</time>
      </trkpt>
      <trkpt lat="45.15087" lon="5.66777">
        <ele>633</ele>
        <time>2014-06-28T06:47:52.000Z</time>
      </trkpt>
      <trkpt lat="45.15088" lon="5.66777">
        <ele>633</ele>
        <time>2014-06-28T06:47:53.000Z</time>
      </trkpt>
      <trkpt lat="45.15089" lon="5.66777">
        <ele>633</ele>
        <time>2014-06-28T06:47:54.000Z</time>
      </trkpt>
      <trkpt lat="45.1509" lon="5.66777">
        <ele>633</ele>
        <time>2014-06-28T06:47:55.000Z</time>
      </trkpt>
      <trkpt lat="45.15091" lon="5.66777">
        <ele>634</ele>
        <time>2014-06-28T06:47:56.000Z</time>
      </trkpt>
      <trkpt lat="45.15092" lon="5.66776">
        <ele>634</ele>
        <time>2014-06-28T06:47:57.000Z</time>
      </trkpt>
      <trkpt lat="45.15093" lon="5.66776">
        <ele>634</ele>
        <time>2014-06-28T06:47:58.000Z</time>
      </trkpt>
      <trkpt lat="45.15093" lon="5.66776">
        <ele>634</ele>
        <time>2014-06-28T06:47:59.000Z</time>
      </trkpt>
      <trkpt lat="45.15094" lon="5.66776">
        <ele>634</ele>
        <time>2014-06-28T06:48:00.000Z</time>
      </trkpt>
      <trkpt lat="45.15095" lon="5.66776">
        <ele>634</ele>
        <time>2014-06-28T06:48:01.000Z</time>
      </trkpt>
      <trkpt lat="45.15096" lon="5.66775">
        <ele>635</ele>
        <time>2014-06-28T06:48:02.000Z</time>
      </trkpt>
      <trkpt lat="45.15096" lon="5.66775">
        <ele>635</ele>
        <time>2014-06-28T06:48:03.000Z</time>
      </trkpt>
      <trkpt lat="45.15097" lon="5.66775">
        <ele>635</ele>
        <time>2014-06-28T06:48:04.000Z</time>
      </trkpt>
      <trkpt lat="45.15098" lon="5.66775">
        <ele>635</ele>
        <time>2014-06-28T06:48:05.000Z</time>
      </trkpt>
      <trkpt lat="45.15099" lon="5.66775">
        <ele>635</ele>
        <time>2014-06-28T06:48:06.000Z</time>
      </trkpt>
      <trkpt lat="45.15099" lon="5.66774">
        <ele>635</ele>
        <time>2014-06-28T06:48:07.000Z</time>
      </trkpt>
      <trkpt lat="45.151" lon="5.66774">
        <ele>635</ele>
        <time>2014-06-28T06:48:08.000Z</time>
      </trkpt>
      <trkpt lat="45.15101" lon="5.66774">
        <ele>636</ele>
        <time>2014-06-28T06:48:09.000Z</time>
      </trkpt>
      <trkpt lat="45.15101" lon="5.66774">
        <ele>636</ele>
        <time>2014-06-28T06:48:10.000Z</time>
      </trkpt>
      <trkpt lat="45.15102" lon="5.66774">
        <ele>636</ele>
        <time>2014-06-28T06:48:11.000Z</time>
      </trkpt>
      <trkpt lat="45.15102" lon="5.66774">
        <ele>636</ele>
        <time>2014-06-28T06:48:12.000Z</time>
      </trkpt>
      <trkpt lat="45.15102" lon="5.66774">
        <ele>636</ele>
        <time>2014-06-28T06:48:13.000Z</time>
      </trkpt>
      <trkpt lat="45.15103" lon="5.66774">
        <ele>636</ele>
        <time>2014-06-28T06:48:14.000Z</time>
      </trkpt>
      <trkpt lat="45.15103" lon="5.66775">
        <ele>637</ele>
        <time>2014-06-28T06:48:15.000Z</time>
      </trkpt>
      <trkpt lat="45.15104" lon="5.66775">
        <ele>637</ele>
        <time>2014-06-28T06:48:16.000Z</time>
      </trkpt>
      <trkpt lat="45.15105" lon="5.66775">
        <ele>637</ele>
        <time>2014-06-28T06:48:17.000Z</time>
      </trkpt>
      <trkpt lat="45.15106" lon="5.66776">
        <ele>638</ele>
        <time>2014-06-28T06:48:18.000Z</time>
      </trkpt>
      <trkpt lat="45.15106" lon="5.66776">
        <ele>638</ele>
        <time>2014-06-28T06:48:19.000Z</time>
      </trkpt>
      <trkpt lat="45.15107" lon="5.66777">
        <ele>638</ele>
        <time>2014-06-28T06:48:20.000Z</time>
      </trkpt>
      <trkpt lat="45.15108" lon="5.66777">
        <ele>639</ele>
        <time>2014-06-28T06:48:21.000Z</time>
      </trkpt>
      <trkpt lat="45.15109" lon="5.66777">
        <ele>639</ele>
        <time>2014-06-28T06:48:22.000Z</time>
      </trkpt>
      <trkpt lat="45.1511" lon="5.66777">
        <ele>640</ele>
        <time>2014-06-28T06:48:23.000Z</time>
      </trkpt>
      <trkpt lat="45.15111" lon="5.66777">
        <ele>640</ele>
        <time>2014-06-28T06:48:24.000Z</time>
      </trkpt>
      <trkpt lat="45.15112" lon="5.66777">
        <ele>641</ele>
        <time>2014-06-28T06:48:25.000Z</time>
      </trkpt>
      <trkpt lat="45.15112" lon="5.66777">
        <ele>641</ele>
        <time>2014-06-28T06:48:26.000Z</time>
      </trkpt>
      <trkpt lat="45.15113" lon="5.66778">
        <ele>641</ele>
        <time>2014-06-28T06:48:27.000Z</time>
      </trkpt>
      <trkpt lat="45.15114" lon="5.66778">
        <ele>642</ele>
        <time>2014-06-28T06:48:28.000Z</time>
      </trkpt>
      <trkpt lat="45.15114" lon="5.66778">
        <ele>642</ele>
        <time>2014-06-28T06:48:29.000Z</time>
      </trkpt>
      <trkpt lat="45.15115" lon="5.66779">
        <ele>642</ele>
        <time>2014-06-28T06:48:30.000Z</time>
      </trkpt>
      <trkpt lat="45.15116" lon="5.66779">
        <ele>643</ele>
        <time>2014-06-28T06:48:31.000Z</time>
      </trkpt>
      <trkpt lat="45.15116" lon="5.66779">
        <ele>643</ele>
        <time>2014-06-28T06:48:32.000Z</time>
      </trkpt>
      <trkpt lat="45.15117" lon="5.6678">
        <ele>643</ele>
        <time>2014-06-28T06:48:33.000Z</time>
      </trkpt>
      <trkpt lat="45.15118" lon="5.6678">
        <ele>644</ele>
        <time>2014-06-28T06:48:34.000Z</time>
      </trkpt>
      <trkpt lat="45.15119" lon="5.66781">
        <ele>644</ele>
        <time>2014-06-28T06:48:35.000Z</time>
      </trkpt>
      <trkpt lat="45.1512" lon="5.66781">
        <ele>644</ele>
        <time>2014-06-28T06:48:36.000Z</time>
      </trkpt>
      <trkpt lat="45.1512" lon="5.66781">
        <ele>644</ele>
        <time>2014-06-28T06:48:37.000Z</time>
      </trkpt>
      <trkpt lat="45.15121" lon="5.66782">
        <ele>645</ele>
        <time>2014-06-28T06:48:38.000Z</time>
      </trkpt>
      <trkpt lat="45.15122" lon="5.66782">
        <ele>645</ele>
        <time>2014-06-28T06:48:39.000Z</time>
      </trkpt>
      <trkpt lat="45.15122" lon="5.66783">
        <ele>645</ele>
        <time>2014-06-28T06:48:40.000Z</time>
      </trkpt>
      <trkpt lat="45.15123" lon="5.66784">
        <ele>645</ele>
        <time>2014-06-28T06:48:41.000Z</time>
      </trkpt>
      <trkpt lat="45.15124" lon="5.66785">
        <ele>645</ele>
        <time>2014-06-28T06:48:42.000Z</time>
      </trkpt>
      <trkpt lat="45.15125" lon="5.66786">
        <ele>646</ele>
        <time>2014-06-28T06:48:43.000Z</time>
      </trkpt>
      <trkpt lat="45.15125" lon="5.66786">
        <ele>646</ele>
        <time>2014-06-28T06:48:44.000Z</time>
      </trkpt>
      <trkpt lat="45.15126" lon="5.66787">
        <ele>646</ele>
        <time>2014-06-28T06:48:45.000Z</time>
      </trkpt>
      <trkpt lat="45.15127" lon="5.66788">
        <ele>646</ele>
        <time>2014-06-28T06:48:46.000Z</time>
      </trkpt>
      <trkpt lat="45.15128" lon="5.66788">
        <ele>646</ele>
        <time>2014-06-28T06:48:47.000Z</time>
      </trkpt>
      <trkpt lat="45.15129" lon="5.66789">
        <ele>646</ele>
        <time>2014-06-28T06:48:48.000Z</time>
      </trkpt>
      <trkpt lat="45.1513" lon="5.66789">
        <ele>646</ele>
        <time>2014-06-28T06:48:49.000Z</time>
      </trkpt>
      <trkpt lat="45.1513" lon="5.6679">
        <ele>647</ele>
        <time>2014-06-28T06:48:50.000Z</time>
      </trkpt>
      <trkpt lat="45.15132" lon="5.6679">
        <ele>647</ele>
        <time>2014-06-28T06:48:51.000Z</time>
      </trkpt>
      <trkpt lat="45.15133" lon="5.6679">
        <ele>647</ele>
        <time>2014-06-28T06:48:52.000Z</time>
      </trkpt>
      <trkpt lat="45.15134" lon="5.6679">
        <ele>647</ele>
        <time>2014-06-28T06:48:53.000Z</time>
      </trkpt>
      <trkpt lat="45.15135" lon="5.66791">
        <ele>648</ele>
        <time>2014-06-28T06:48:54.000Z</time>
      </trkpt>
      <trkpt lat="45.15135" lon="5.66791">
        <ele>648</ele>
        <time>2014-06-28T06:48:55.000Z</time>
      </trkpt>
      <trkpt lat="45.15136" lon="5.66792">
        <ele>648</ele>
        <time>2014-06-28T06:48:56.000Z</time>
      </trkpt>
      <trkpt lat="45.15137" lon="5.66792">
        <ele>648</ele>
        <time>2014-06-28T06:48:57.000Z</time>
      </trkpt>
      <trkpt lat="45.15137" lon="5.66793">
        <ele>649</ele>
        <time>2014-06-28T06:48:58.000Z</time>
      </trkpt>
      <trkpt lat="45.15138" lon="5.66793">
        <ele>649</ele>
        <time>2014-06-28T06:48:59.000Z</time>
      </trkpt>
      <trkpt lat="45.15139" lon="5.66794">
        <ele>649</ele>
        <time>2014-06-28T06:49:00.000Z</time>
      </trkpt>
      <trkpt lat="45.15139" lon="5.66794">
        <ele>649</ele>
        <time>2014-06-28T06:49:01.000Z</time>
      </trkpt>
      <trkpt lat="45.1514" lon="5.66795">
        <ele>649</ele>
        <time>2014-06-28T06:49:02.000Z</time>
      </trkpt>
      <trkpt lat="45.1514" lon="5.66795">
        <ele>649</ele>
        <time>2014-06-28T06:49:03.000Z</time>
      </trkpt>
      <trkpt lat="45.15141" lon="5.66795">
        <ele>649</ele>
        <time>2014-06-28T06:49:04.000Z</time>
      </trkpt>
      <trkpt lat="45.15141" lon="5.66796">
        <ele>649</ele>
        <time>2014-06-28T06:49:05.000Z</time>
      </trkpt>
      <trkpt lat="45.15142" lon="5.66797">
        <ele>650</ele>
        <time>2014-06-28T06:49:06.000Z</time>
      </trkpt>
      <trkpt lat="45.15143" lon="5.66797">
        <ele>650</ele>
        <time>2014-06-28T06:49:07.000Z</time>
      </trkpt>
      <trkpt lat="45.15143" lon="5.66798">
        <ele>650</ele>
        <time>2014-06-28T06:49:08.000Z</time>
      </trkpt>
      <trkpt lat="45.15144" lon="5.66799">
        <ele>650</ele>
        <time>2014-06-28T06:49:09.000Z</time>
      </trkpt>
      <trkpt lat="45.15145" lon="5.66799">
        <ele>650</ele>
        <time>2014-06-28T06:49:10.000Z</time>
      </trkpt>
      <trkpt lat="45.15145" lon="5.66799">
        <ele>651</ele>
        <time>2014-06-28T06:49:11.000Z</time>
      </trkpt>
      <trkpt lat="45.15146" lon="5.668">
        <ele>651</ele>
        <time>2014-06-28T06:49:12.000Z</time>
      </trkpt>
      <trkpt lat="45.15146" lon="5.66801">
        <ele>651</ele>
        <time>2014-06-28T06:49:13.000Z</time>
      </trkpt>
      <trkpt lat="45.15147" lon="5.66801">
        <ele>651</ele>
        <time>2014-06-28T06:49:14.000Z</time>
      </trkpt>
      <trkpt lat="45.15148" lon="5.66802">
        <ele>651</ele>
        <time>2014-06-28T06:49:15.000Z</time>
      </trkpt>
      <trkpt lat="45.15149" lon="5.66803">
        <ele>652</ele>
        <time>2014-06-28T06:49:16.000Z</time>
      </trkpt>
      <trkpt lat="45.15151" lon="5.66803">
        <ele>652</ele>
        <time>2014-06-28T06:49:17.000Z</time>
      </trkpt>
      <trkpt lat="45.15152" lon="5.66804">
        <ele>652</ele>
        <time>2014-06-28T06:49:18.000Z</time>
      </trkpt>
      <trkpt lat="45.15152" lon="5.66804">
        <ele>652</ele>
        <time>2014-06-28T06:49:19.000Z</time>
      </trkpt>
      <trkpt lat="45.15153" lon="5.66804">
        <ele>653</ele>
        <time>2014-06-28T06:49:20.000Z</time>
      </trkpt>
      <trkpt lat="45.15154" lon="5.66804">
        <ele>653</ele>
        <time>2014-06-28T06:49:21.000Z</time>
      </trkpt>
      <trkpt lat="45.15155" lon="5.66803">
        <ele>654</ele>
        <time>2014-06-28T06:49:22.000Z</time>
      </trkpt>
      <trkpt lat="45.15156" lon="5.66803">
        <ele>654</ele>
        <time>2014-06-28T06:49:23.000Z</time>
      </trkpt>
      <trkpt lat="45.15156" lon="5.66803">
        <ele>655</ele>
        <time>2014-06-28T06:49:24.000Z</time>
      </trkpt>
      <trkpt lat="45.15156" lon="5.66803">
        <ele>655</ele>
        <time>2014-06-28T06:49:25.000Z</time>
      </trkpt>
      <trkpt lat="45.15157" lon="5.66803">
        <ele>656</ele>
        <time>2014-06-28T06:49:26.000Z</time>
      </trkpt>
      <trkpt lat="45.15157" lon="5.66803">
        <ele>656</ele>
        <time>2014-06-28T06:49:27.000Z</time>
      </trkpt>
      <trkpt lat="45.15157" lon="5.66803">
        <ele>656</ele>
        <time>2014-06-28T06:49:28.000Z</time>
      </trkpt>
      <trkpt lat="45.15157" lon="5.66803">
        <ele>656</ele>
        <time>2014-06-28T06:49:29.000Z</time>
      </trkpt>
      <trkpt lat="45.15158" lon="5.66803">
        <ele>656</ele>
        <time>2014-06-28T06:49:30.000Z</time>
      </trkpt>
      <trkpt lat="45.15158" lon="5.66803">
        <ele>657</ele>
        <time>2014-06-28T06:49:31.000Z</time>
      </trkpt>
      <trkpt lat="45.15158" lon="5.66803">
        <ele>657</ele>
        <time>2014-06-28T06:49:32.000Z</time>
      </trkpt>
      <trkpt lat="45.15159" lon="5.66803">
        <ele>657</ele>
        <time>2014-06-28T06:49:33.000Z</time>
      </trkpt>
      <trkpt lat="45.15159" lon="5.66803">
        <ele>657</ele>
        <time>2014-06-28T06:49:34.000Z</time>
      </trkpt>
      <trkpt lat="45.15159" lon="5.66803">
        <ele>657</ele>
        <time>2014-06-28T06:49:35.000Z</time>
      </trkpt>
      <trkpt lat="45.15159" lon="5.66803">
        <ele>657</ele>
        <time>2014-06-28T06:49:36.000Z</time>
      </trkpt>
      <trkpt lat="45.1516" lon="5.66803">
        <ele>657</ele>
        <time>2014-06-28T06:49:37.000Z</time>
      </trkpt>
      <trkpt lat="45.1516" lon="5.66803">
        <ele>657</ele>
        <time>2014-06-28T06:49:38.000Z</time>
      </trkpt>
      <trkpt lat="45.1516" lon="5.66803">
        <ele>657</ele>
        <time>2014-06-28T06:49:39.000Z</time>
      </trkpt>
      <trkpt lat="45.1516" lon="5.66803">
        <ele>657</ele>
        <time>2014-06-28T06:49:40.000Z</time>
      </trkpt>
      <trkpt lat="45.15161" lon="5.66804">
        <ele>657</ele>
        <time>2014-06-28T06:49:41.000Z</time>
      </trkpt>
      <trkpt lat="45.15161" lon="5.66804">
        <ele>658</ele>
        <time>2014-06-28T06:49:42.000Z</time>
      </trkpt>
      <trkpt lat="45.15161" lon="5.66804">
        <ele>658</ele>
        <time>2014-06-28T06:49:43.000Z</time>
      </trkpt>
      <trkpt lat="45.15161" lon="5.66804">
        <ele>658</ele>
        <time>2014-06-28T06:49:44.000Z</time>
      </trkpt>
      <trkpt lat="45.15161" lon="5.66804">
        <ele>658</ele>
        <time>2014-06-28T06:49:45.000Z</time>
      </trkpt>
      <trkpt lat="45.15161" lon="5.66804">
        <ele>658</ele>
        <time>2014-06-28T06:49:46.000Z</time>
      </trkpt>
      <trkpt lat="45.15161" lon="5.66804">
        <ele>658</ele>
        <time>2014-06-28T06:49:47.000Z</time>
      </trkpt>
      <trkpt lat="45.15161" lon="5.66804">
        <ele>658</ele>
        <time>2014-06-28T06:49:48.000Z</time>
      </trkpt>
      <trkpt lat="45.15162" lon="5.66804">
        <ele>658</ele>
        <time>2014-06-28T06:49:49.000Z</time>
      </trkpt>
      <trkpt lat="45.15162" lon="5.66804">
        <ele>658</ele>
        <time>2014-06-28T06:49:50.000Z</time>
      </trkpt>
      <trkpt lat="45.15162" lon="5.66805">
        <ele>658</ele>
        <time>2014-06-28T06:49:51.000Z</time>
      </trkpt>
      <trkpt lat="45.15162" lon="5.66805">
        <ele>658</ele>
        <time>2014-06-28T06:49:52.000Z</time>
      </trkpt>
      <trkpt lat="45.15162" lon="5.66805">
        <ele>658</ele>
        <time>2014-06-28T06:49:53.000Z</time>
      </trkpt>
      <trkpt lat="45.15162" lon="5.66805">
        <ele>658</ele>
        <time>2014-06-28T06:49:54.000Z</time>
      </trkpt>
      <trkpt lat="45.15162" lon="5.66805">
        <ele>658</ele>
        <time>2014-06-28T06:49:55.000Z</time>
      </trkpt>
      <trkpt lat="45.15162" lon="5.66805">
        <ele>658</ele>
        <time>2014-06-28T06:49:56.000Z</time>
      </trkpt>
      <trkpt lat="45.15162" lon="5.66805">
        <ele>658</ele>
        <time>2014-06-28T06:49:57.000Z</time>
      </trkpt>
      <trkpt lat="45.15162" lon="5.66806">
        <ele>658</ele>
        <time>2014-06-28T06:49:58.000Z</time>
      </trkpt>
      <trkpt lat="45.15162" lon="5.66806">
        <ele>658</ele>
        <time>2014-06-28T06:49:59.000Z</time>
      </trkpt>
      <trkpt lat="45.15162" lon="5.66806">
        <ele>658</ele>
        <time>2014-06-28T06:50:00.000Z</time>
      </trkpt>
      <trkpt lat="45.15161" lon="5.66806">
        <ele>658</ele>
        <time>2014-06-28T06:50:01.000Z</time>
      </trkpt>
      <trkpt lat="45.15161" lon="5.66805">
        <ele>658</ele>
        <time>2014-06-28T06:50:02.000Z</time>
      </trkpt>
      <trkpt lat="45.15161" lon="5.66805">
        <ele>658</ele>
        <time>2014-06-28T06:50:03.000Z</time>
      </trkpt>
      <trkpt lat="45.1516" lon="5.66804">
        <ele>658</ele>
        <time>2014-06-28T06:50:04.000Z</time>
      </trkpt>
      <trkpt lat="45.1516" lon="5.66803">
        <ele>658</ele>
        <time>2014-06-28T06:50:05.000Z</time>
      </trkpt>
      <trkpt lat="45.15159" lon="5.66802">
        <ele>659</ele>
        <time>2014-06-28T06:50:06.000Z</time>
      </trkpt>
      <trkpt lat="45.15159" lon="5.668">
        <ele>659</ele>
        <time>2014-06-28T06:50:07.000Z</time>
      </trkpt>
      <trkpt lat="45.15158" lon="5.66799">
        <ele>659</ele>
        <time>2014-06-28T06:50:08.000Z</time>
      </trkpt>
      <trkpt lat="45.15158" lon="5.66797">
        <ele>659</ele>
        <time>2014-06-28T06:50:09.000Z</time>
      </trkpt>
      <trkpt lat="45.15157" lon="5.66795">
        <ele>659</ele>
        <time>2014-06-28T06:50:10.000Z</time>
      </trkpt>
      <trkpt lat="45.15157" lon="5.66794">
        <ele>659</ele>
        <time>2014-06-28T06:50:11.000Z</time>
      </trkpt>
      <trkpt lat="45.15156" lon="5.66792">
        <ele>659</ele>
        <time>2014-06-28T06:50:12.000Z</time>
      </trkpt>
      <trkpt lat="45.15156" lon="5.66791">
        <ele>659</ele>
        <time>2014-06-28T06:50:13.000Z</time>
      </trkpt>
      <trkpt lat="45.15156" lon="5.66789">
        <ele>660</ele>
        <time>2014-06-28T06:50:14.000Z</time>
      </trkpt>
      <trkpt lat="45.15155" lon="5.66788">
        <ele>660</ele>
        <time>2014-06-28T06:50:15.000Z</time>
      </trkpt>
      <trkpt lat="45.15155" lon="5.66787">
        <ele>660</ele>
        <time>2014-06-28T06:50:16.000Z</time>
      </trkpt>
      <trkpt lat="45.15154" lon="5.66786">
        <ele>660</ele>
        <time>2014-06-28T06:50:17.000Z</time>
      </trkpt>
      <trkpt lat="45.15154" lon="5.66785">
        <ele>660</ele>
        <time>2014-06-28T06:50:18.000Z</time>
      </trkpt>
      <trkpt lat="45.15154" lon="5.66784">
        <ele>660</ele>
        <time>2014-06-28T06:50:19.000Z</time>
      </trkpt>
      <trkpt lat="45.15154" lon="5.66783">
        <ele>660</ele>
        <time>2014-06-28T06:50:20.000Z</time>
      </trkpt>
      <trkpt lat="45.15154" lon="5.66782">
        <ele>660</ele>
        <time>2014-06-28T06:50:21.000Z</time>
      </trkpt>
      <trkpt lat="45.15154" lon="5.66782">
        <ele>661</ele>
        <time>2014-06-28T06:50:22.000Z</time>
      </trkpt>
      <trkpt lat="45.15154" lon="5.66782">
        <ele>661</ele>
        <time>2014-06-28T06:50:23.000Z</time>
      </trkpt>
      <trkpt lat="45.15154" lon="5.66781">
        <ele>661</ele>
        <time>2014-06-28T06:50:24.000Z</time>
      </trkpt>
      <trkpt lat="45.15153" lon="5.66781">
        <ele>661</ele>
        <time>2014-06-28T06:50:25.000Z</time>
      </trkpt>
      <trkpt lat="45.15153" lon="5.6678">
        <ele>661</ele>
        <time>2014-06-28T06:50:26.000Z</time>
      </trkpt>
      <trkpt lat="45.15152" lon="5.6678">
        <ele>662</ele>
        <time>2014-06-28T06:50:27.000Z</time>
      </trkpt>
      <trkpt lat="45.15152" lon="5.66779">
        <ele>662</ele>
        <time>2014-06-28T06:50:28.000Z</time>
      </trkpt>
      <trkpt lat="45.15152" lon="5.66778">
        <ele>662</ele>
        <time>2014-06-28T06:50:29.000Z</time>
      </trkpt>
      <trkpt lat="45.15152" lon="5.66777">
        <ele>662</ele>
        <time>2014-06-28T06:50:30.000Z</time>
      </trkpt>
      <trkpt lat="45.15152" lon="5.66777">
        <ele>662</ele>
        <time>2014-06-28T06:50:31.000Z</time>
      </trkpt>
      <trkpt lat="45.15151" lon="5.66776">
        <ele>662</ele>
        <time>2014-06-28T06:50:32.000Z</time>
      </trkpt>
      <trkpt lat="45.15151" lon="5.66775">
        <ele>663</ele>
        <time>2014-06-28T06:50:33.000Z</time>
      </trkpt>
      <trkpt lat="45.15151" lon="5.66775">
        <ele>663</ele>
        <time>2014-06-28T06:50:34.000Z</time>
      </trkpt>
      <trkpt lat="45.15151" lon="5.66775">
        <ele>663</ele>
        <time>2014-06-28T06:50:35.000Z</time>
      </trkpt>
      <trkpt lat="45.1515" lon="5.66775">
        <ele>663</ele>
        <time>2014-06-28T06:50:36.000Z</time>
      </trkpt>
      <trkpt lat="45.1515" lon="5.66775">
        <ele>664</ele>
        <time>2014-06-28T06:50:37.000Z</time>
      </trkpt>
      <trkpt lat="45.15149" lon="5.66774">
        <ele>664</ele>
        <time>2014-06-28T06:50:38.000Z</time>
      </trkpt>
      <trkpt lat="45.15149" lon="5.66774">
        <ele>664</ele>
        <time>2014-06-28T06:50:39.000Z</time>
      </trkpt>
      <trkpt lat="45.15149" lon="5.66774">
        <ele>664</ele>
        <time>2014-06-28T06:50:40.000Z</time>
      </trkpt>
      <trkpt lat="45.15148" lon="5.66773">
        <ele>664</ele>
        <time>2014-06-28T06:50:41.000Z</time>
      </trkpt>
      <trkpt lat="45.15148" lon="5.66773">
        <ele>665</ele>
        <time>2014-06-28T06:50:42.000Z</time>
      </trkpt>
      <trkpt lat="45.15147" lon="5.66772">
        <ele>665</ele>
        <time>2014-06-28T06:50:43.000Z</time>
      </trkpt>
      <trkpt lat="45.15147" lon="5.66771">
        <ele>665</ele>
        <time>2014-06-28T06:50:44.000Z</time>
      </trkpt>
      <trkpt lat="45.15146" lon="5.6677">
        <ele>666</ele>
        <time>2014-06-28T06:50:45.000Z</time>
      </trkpt>
      <trkpt lat="45.15146" lon="5.66768">
        <ele>666</ele>
        <time>2014-06-28T06:50:46.000Z</time>
      </trkpt>
      <trkpt lat="45.15146" lon="5.66767">
        <ele>666</ele>
        <time>2014-06-28T06:50:47.000Z</time>
      </trkpt>
      <trkpt lat="45.15145" lon="5.66765">
        <ele>666</ele>
        <time>2014-06-28T06:50:48.000Z</time>
      </trkpt>
      <trkpt lat="45.15144" lon="5.66764">
        <ele>667</ele>
        <time>2014-06-28T06:50:49.000Z</time>
      </trkpt>
      <trkpt lat="45.15143" lon="5.66763">
        <ele>667</ele>
        <time>2014-06-28T06:50:50.000Z</time>
      </trkpt>
      <trkpt lat="45.15143" lon="5.66761">
        <ele>668</ele>
        <time>2014-06-28T06:50:51.000Z</time>
      </trkpt>
      <trkpt lat="45.15142" lon="5.6676">
        <ele>668</ele>
        <time>2014-06-28T06:50:52.000Z</time>
      </trkpt>
      <trkpt lat="45.15142" lon="5.66759">
        <ele>668</ele>
        <time>2014-06-28T06:50:53.000Z</time>
      </trkpt>
      <trkpt lat="45.15142" lon="5.66758">
        <ele>669</ele>
        <time>2014-06-28T06:50:54.000Z</time>
      </trkpt>
      <trkpt lat="45.15141" lon="5.66757">
        <ele>669</ele>
        <time>2014-06-28T06:50:55.000Z</time>
      </trkpt>
      <trkpt lat="45.15141" lon="5.66757">
        <ele>670</ele>
        <time>2014-06-28T06:50:56.000Z</time>
      </trkpt>
      <trkpt lat="45.1514" lon="5.66756">
        <ele>670</ele>
        <time>2014-06-28T06:50:57.000Z</time>
      </trkpt>
      <trkpt lat="45.1514" lon="5.66756">
        <ele>670</ele>
        <time>2014-06-28T06:50:58.000Z</time>
      </trkpt>
      <trkpt lat="45.15139" lon="5.66755">
        <ele>671</ele>
        <time>2014-06-28T06:50:59.000Z</time>
      </trkpt>
      <trkpt lat="45.15139" lon="5.66753">
        <ele>671</ele>
        <time>2014-06-28T06:51:00.000Z</time>
      </trkpt>
      <trkpt lat="45.15139" lon="5.66752">
        <ele>672</ele>
        <time>2014-06-28T06:51:01.000Z</time>
      </trkpt>
      <trkpt lat="45.15139" lon="5.66751">
        <ele>672</ele>
        <time>2014-06-28T06:51:02.000Z</time>
      </trkpt>
      <trkpt lat="45.15138" lon="5.6675">
        <ele>672</ele>
        <time>2014-06-28T06:51:03.000Z</time>
      </trkpt>
      <trkpt lat="45.15138" lon="5.66749">
        <ele>673</ele>
        <time>2014-06-28T06:51:04.000Z</time>
      </trkpt>
      <trkpt lat="45.15138" lon="5.66748">
        <ele>673</ele>
        <time>2014-06-28T06:51:05.000Z</time>
      </trkpt>
      <trkpt lat="45.15138" lon="5.66747">
        <ele>674</ele>
        <time>2014-06-28T06:51:06.000Z</time>
      </trkpt>
      <trkpt lat="45.15138" lon="5.66747">
        <ele>674</ele>
        <time>2014-06-28T06:51:07.000Z</time>
      </trkpt>
      <trkpt lat="45.15138" lon="5.66746">
        <ele>674</ele>
        <time>2014-06-28T06:51:08.000Z</time>
      </trkpt>
      <trkpt lat="45.15138" lon="5.66745">
        <ele>675</ele>
        <time>2014-06-28T06:51:09.000Z</time>
      </trkpt>
      <trkpt lat="45.15138" lon="5.66744">
        <ele>675</ele>
        <time>2014-06-28T06:51:10.000Z</time>
      </trkpt>
      <trkpt lat="45.15138" lon="5.66743">
        <ele>676</ele>
        <time>2014-06-28T06:51:11.000Z</time>
      </trkpt>
      <trkpt lat="45.15138" lon="5.66742">
        <ele>676</ele>
        <time>2014-06-28T06:51:12.000Z</time>
      </trkpt>
      <trkpt lat="45.15138" lon="5.66742">
        <ele>676</ele>
        <time>2014-06-28T06:51:13.000Z</time>
      </trkpt>
      <trkpt lat="45.15138" lon="5.66741">
        <ele>677</ele>
        <time>2014-06-28T06:51:14.000Z</time>
      </trkpt>
      <trkpt lat="45.15138" lon="5.6674">
        <ele>677</ele>
        <time>2014-06-28T06:51:15.000Z</time>
      </trkpt>
      <trkpt lat="45.15138" lon="5.66739">
        <ele>677</ele>
        <time>2014-06-28T06:51:16.000Z</time>
      </trkpt>
      <trkpt lat="45.15138" lon="5.66739">
        <ele>677</ele>
        <time>2014-06-28T06:51:17.000Z</time>
      </trkpt>
      <trkpt lat="45.15138" lon="5.66738">
        <ele>678</ele>
        <time>2014-06-28T06:51:18.000Z</time>
      </trkpt>
      <trkpt lat="45.15138" lon="5.66737">
        <ele>678</ele>
        <time>2014-06-28T06:51:19.000Z</time>
      </trkpt>
      <trkpt lat="45.15138" lon="5.66737">
        <ele>678</ele>
        <time>2014-06-28T06:51:20.000Z</time>
      </trkpt>
      <trkpt lat="45.15138" lon="5.66736">
        <ele>679</ele>
        <time>2014-06-28T06:51:21.000Z</time>
      </trkpt>
      <trkpt lat="45.15138" lon="5.66736">
        <ele>679</ele>
        <time>2014-06-28T06:51:22.000Z</time>
      </trkpt>
      <trkpt lat="45.15139" lon="5.66735">
        <ele>679</ele>
        <time>2014-06-28T06:51:23.000Z</time>
      </trkpt>
      <trkpt lat="45.15139" lon="5.66735">
        <ele>679</ele>
        <time>2014-06-28T06:51:24.000Z</time>
      </trkpt>
      <trkpt lat="45.15139" lon="5.66735">
        <ele>680</ele>
        <time>2014-06-28T06:51:25.000Z</time>
      </trkpt>
      <trkpt lat="45.15139" lon="5.66734">
        <ele>680</ele>
        <time>2014-06-28T06:51:26.000Z</time>
      </trkpt>
      <trkpt lat="45.1514" lon="5.66734">
        <ele>680</ele>
        <time>2014-06-28T06:51:27.000Z</time>
      </trkpt>
      <trkpt lat="45.1514" lon="5.66733">
        <ele>680</ele>
        <time>2014-06-28T06:51:28.000Z</time>
      </trkpt>
      <trkpt lat="45.1514" lon="5.66733">
        <ele>680</ele>
        <time>2014-06-28T06:51:29.000Z</time>
      </trkpt>
      <trkpt lat="45.1514" lon="5.66732">
        <ele>680</ele>
        <time>2014-06-28T06:51:30.000Z</time>
      </trkpt>
      <trkpt lat="45.15141" lon="5.66732">
        <ele>680</ele>
        <time>2014-06-28T06:51:31.000Z</time>
      </trkpt>
      <trkpt lat="45.15141" lon="5.66731">
        <ele>680</ele>
        <time>2014-06-28T06:51:32.000Z</time>
      </trkpt>
      <trkpt lat="45.15141" lon="5.6673">
        <ele>680</ele>
        <time>2014-06-28T06:51:33.000Z</time>
      </trkpt>
      <trkpt lat="45.15141" lon="5.6673">
        <ele>680</ele>
        <time>2014-06-28T06:51:34.000Z</time>
      </trkpt>
      <trkpt lat="45.15141" lon="5.66729">
        <ele>680</ele>
        <time>2014-06-28T06:51:35.000Z</time>
      </trkpt>
      <trkpt lat="45.15141" lon="5.66729">
        <ele>680</ele>
        <time>2014-06-28T06:51:36.000Z</time>
      </trkpt>
      <trkpt lat="45.15141" lon="5.66728">
        <ele>681</ele>
        <time>2014-06-28T06:51:37.000Z</time>
      </trkpt>
      <trkpt lat="45.15141" lon="5.66728">
        <ele>681</ele>
        <time>2014-06-28T06:51:38.000Z</time>
      </trkpt>
      <trkpt lat="45.15142" lon="5.66727">
        <ele>681</ele>
        <time>2014-06-28T06:51:39.000Z</time>
      </trkpt>
      <trkpt lat="45.15142" lon="5.66726">
        <ele>681</ele>
        <time>2014-06-28T06:51:40.000Z</time>
      </trkpt>
      <trkpt lat="45.15142" lon="5.66725">
        <ele>681</ele>
        <time>2014-06-28T06:51:41.000Z</time>
      </trkpt>
      <trkpt lat="45.15142" lon="5.66725">
        <ele>681</ele>
        <time>2014-06-28T06:51:42.000Z</time>
      </trkpt>
      <trkpt lat="45.15142" lon="5.66724">
        <ele>682</ele>
        <time>2014-06-28T06:51:43.000Z</time>
      </trkpt>
      <trkpt lat="45.15142" lon="5.66724">
        <ele>682</ele>
        <time>2014-06-28T06:51:44.000Z</time>
      </trkpt>
      <trkpt lat="45.15142" lon="5.66724">
        <ele>682</ele>
        <time>2014-06-28T06:51:45.000Z</time>
      </trkpt>
      <trkpt lat="45.15142" lon="5.66724">
        <ele>682</ele>
        <time>2014-06-28T06:51:46.000Z</time>
      </trkpt>
      <trkpt lat="45.15142" lon="5.66724">
        <ele>682</ele>
        <time>2014-06-28T06:51:47.000Z</time>
      </trkpt>
      <trkpt lat="45.15142" lon="5.66724">
        <ele>682</ele>
        <time>2014-06-28T06:51:48.000Z</time>
      </trkpt>
      <trkpt lat="45.15142" lon="5.66723">
        <ele>683</ele>
        <time>2014-06-28T06:51:49.000Z</time>
      </trkpt>
      <trkpt lat="45.15142" lon="5.66723">
        <ele>683</ele>
        <time>2014-06-28T06:51:50.000Z</time>
      </trkpt>
      <trkpt lat="45.15142" lon="5.66723">
        <ele>684</ele>
        <time>2014-06-28T06:51:51.000Z</time>
      </trkpt>
      <trkpt lat="45.15143" lon="5.66723">
        <ele>684</ele>
        <time>2014-06-28T06:51:52.000Z</time>
      </trkpt>
      <trkpt lat="45.15143" lon="5.66723">
        <ele>684</ele>
        <time>2014-06-28T06:51:53.000Z</time>
      </trkpt>
      <trkpt lat="45.15143" lon="5.66723">
        <ele>685</ele>
        <time>2014-06-28T06:51:54.000Z</time>
      </trkpt>
      <trkpt lat="45.15143" lon="5.66723">
        <ele>685</ele>
        <time>2014-06-28T06:51:55.000Z</time>
      </trkpt>
      <trkpt lat="45.15143" lon="5.66723">
        <ele>685</ele>
        <time>2014-06-28T06:51:56.000Z</time>
      </trkpt>
      <trkpt lat="45.15143" lon="5.66723">
        <ele>685</ele>
        <time>2014-06-28T06:51:57.000Z</time>
      </trkpt>
      <trkpt lat="45.15143" lon="5.66723">
        <ele>685</ele>
        <time>2014-06-28T06:51:58.000Z</time>
      </trkpt>
      <trkpt lat="45.15143" lon="5.66723">
        <ele>686</ele>
        <time>2014-06-28T06:51:59.000Z</time>
      </trkpt>
      <trkpt lat="45.15143" lon="5.66723">
        <ele>686</ele>
        <time>2014-06-28T06:52:00.000Z</time>
      </trkpt>
      <trkpt lat="45.15143" lon="5.66723">
        <ele>686</ele>
        <time>2014-06-28T06:52:01.000Z</time>
      </trkpt>
      <trkpt lat="45.15143" lon="5.66722">
        <ele>686</ele>
        <time>2014-06-28T06:52:02.000Z</time>
      </trkpt>
      <trkpt lat="45.15143" lon="5.66722">
        <ele>686</ele>
        <time>2014-06-28T06:52:03.000Z</time>
      </trkpt>
      <trkpt lat="45.15143" lon="5.66722">
        <ele>686</ele>
        <time>2014-06-28T06:52:04.000Z</time>
      </trkpt>
      <trkpt lat="45.15143" lon="5.66722">
        <ele>686</ele>
        <time>2014-06-28T06:52:05.000Z</time>
      </trkpt>
      <trkpt lat="45.15143" lon="5.66722">
        <ele>686</ele>
        <time>2014-06-28T06:52:06.000Z</time>
      </trkpt>
      <trkpt lat="45.15143" lon="5.66722">
        <ele>686</ele>
        <time>2014-06-28T06:52:07.000Z</time>
      </trkpt>
      <trkpt lat="45.15143" lon="5.66722">
        <ele>686</ele>
        <time>2014-06-28T06:52:08.000Z</time>
      </trkpt>
      <trkpt lat="45.15143" lon="5.66722">
        <ele>687</ele>
        <time>2014-06-28T06:52:09.000Z</time>
      </trkpt>
      <trkpt lat="45.15143" lon="5.66722">
        <ele>687</ele>
        <time>2014-06-28T06:52:10.000Z</time>
      </trkpt>
      <trkpt lat="45.15143" lon="5.66722">
        <ele>687</ele>
        <time>2014-06-28T06:52:11.000Z</time>
      </trkpt>
      <trkpt lat="45.15143" lon="5.66722">
        <ele>687</ele>
        <time>2014-06-28T06:52:12.000Z</time>
      </trkpt>
      <trkpt lat="45.15143" lon="5.66722">
        <ele>687</ele>
        <time>2014-06-28T06:52:13.000Z</time>
      </trkpt>
      <trkpt lat="45.15144" lon="5.66722">
        <ele>687</ele>
        <time>2014-06-28T06:52:14.000Z</time>
      </trkpt>
      <trkpt lat="45.15144" lon="5.66722">
        <ele>687</ele>
        <time>2014-06-28T06:52:15.000Z</time>
      </trkpt>
      <trkpt lat="45.15144" lon="5.66722">
        <ele>687</ele>
        <time>2014-06-28T06:52:16.000Z</time>
      </trkpt>
      <trkpt lat="45.15144" lon="5.66722">
        <ele>687</ele>
        <time>2014-06-28T06:52:17.000Z</time>
      </trkpt>
      <trkpt lat="45.15144" lon="5.66722">
        <ele>687</ele>
        <time>2014-06-28T06:52:18.000Z</time>
      </trkpt>
      <trkpt lat="45.15144" lon="5.66722">
        <ele>687</ele>
        <time>2014-06-28T06:52:19.000Z</time>
      </trkpt>
      <trkpt lat="45.15144" lon="5.66722">
        <ele>687</ele>
        <time>2014-06-28T06:52:20.000Z</time>
      </trkpt>
      <trkpt lat="45.15143" lon="5.66722">
        <ele>687</ele>
        <time>2014-06-28T06:52:21.000Z</time>
      </trkpt>
      <trkpt lat="45.15143" lon="5.66722">
        <ele>687</ele>
        <time>2014-06-28T06:52:22.000Z</time>
      </trkpt>
      <trkpt lat="45.15143" lon="5.66722">
        <ele>687</ele>
        <time>2014-06-28T06:52:23.000Z</time>
      </trkpt>
      <trkpt lat="45.15144" lon="5.66722">
        <ele>687</ele>
        <time>2014-06-28T06:52:24.000Z</time>
      </trkpt>
      <trkpt lat="45.15144" lon="5.66722">
        <ele>687</ele>
        <time>2014-06-28T06:52:25.000Z</time>
      </trkpt>
      <trkpt lat="45.15143" lon="5.66722">
        <ele>687</ele>
        <time>2014-06-28T06:52:26.000Z</time>
      </trkpt>
      <trkpt lat="45.15143" lon="5.66722">
        <ele>687</ele>
        <time>2014-06-28T06:52:27.000Z</time>
      </trkpt>
      <trkpt lat="45.15142" lon="5.66721">
        <ele>687</ele>
        <time>2014-06-28T06:52:28.000Z</time>
      </trkpt>
      <trkpt lat="45.15142" lon="5.66721">
        <ele>687</ele>
        <time>2014-06-28T06:52:29.000Z</time>
      </trkpt>
      <trkpt lat="45.15142" lon="5.6672">
        <ele>687</ele>
        <time>2014-06-28T06:52:30.000Z</time>
      </trkpt>
      <trkpt lat="45.15142" lon="5.66719">
        <ele>688</ele>
        <time>2014-06-28T06:52:31.000Z</time>
      </trkpt>
      <trkpt lat="45.15142" lon="5.66718">
        <ele>688</ele>
        <time>2014-06-28T06:52:32.000Z</time>
      </trkpt>
      <trkpt lat="45.15142" lon="5.66718">
        <ele>688</ele>
        <time>2014-06-28T06:52:33.000Z</time>
      </trkpt>
      <trkpt lat="45.15142" lon="5.66717">
        <ele>688</ele>
        <time>2014-06-28T06:52:34.000Z</time>
      </trkpt>
      <trkpt lat="45.15142" lon="5.66716">
        <ele>688</ele>
        <time>2014-06-28T06:52:35.000Z</time>
      </trkpt>
      <trkpt lat="45.15142" lon="5.66715">
        <ele>688</ele>
        <time>2014-06-28T06:52:36.000Z</time>
      </trkpt>
      <trkpt lat="45.15142" lon="5.66714">
        <ele>688</ele>
        <time>2014-06-28T06:52:37.000Z</time>
      </trkpt>
      <trkpt lat="45.15142" lon="5.66713">
        <ele>689</ele>
        <time>2014-06-28T06:52:38.000Z</time>
      </trkpt>
      <trkpt lat="45.15142" lon="5.66712">
        <ele>689</ele>
        <time>2014-06-28T06:52:39.000Z</time>
      </trkpt>
      <trkpt lat="45.15142" lon="5.66712">
        <ele>689</ele>
        <time>2014-06-28T06:52:40.000Z</time>
      </trkpt>
      <trkpt lat="45.15142" lon="5.66711">
        <ele>689</ele>
        <time>2014-06-28T06:52:41.000Z</time>
      </trkpt>
      <trkpt lat="45.15142" lon="5.66711">
        <ele>689</ele>
        <time>2014-06-28T06:52:42.000Z</time>
      </trkpt>
      <trkpt lat="45.15142" lon="5.6671">
        <ele>689</ele>
        <time>2014-06-28T06:52:43.000Z</time>
      </trkpt>
      <trkpt lat="45.15141" lon="5.66709">
        <ele>690</ele>
        <time>2014-06-28T06:52:44.000Z</time>
      </trkpt>
      <trkpt lat="45.15141" lon="5.66709">
        <ele>690</ele>
        <time>2014-06-28T06:52:45.000Z</time>
      </trkpt>
      <trkpt lat="45.15142" lon="5.66708">
        <ele>690</ele>
        <time>2014-06-28T06:52:46.000Z</time>
      </trkpt>
      <trkpt lat="45.15142" lon="5.66708">
        <ele>690</ele>
        <time>2014-06-28T06:52:47.000Z</time>
      </trkpt>
      <trkpt lat="45.15142" lon="5.66707">
        <ele>690</ele>
        <time>2014-06-28T06:52:48.000Z</time>
      </trkpt>
      <trkpt lat="45.15142" lon="5.66707">
        <ele>690</ele>
        <time>2014-06-28T06:52:49.000Z</time>
      </trkpt>
      <trkpt lat="45.15143" lon="5.66706">
        <ele>691</ele>
        <time>2014-06-28T06:52:50.000Z</time>
      </trkpt>
      <trkpt lat="45.15143" lon="5.66705">
        <ele>691</ele>
        <time>2014-06-28T06:52:51.000Z</time>
      </trkpt>
      <trkpt lat="45.15143" lon="5.66704">
        <ele>691</ele>
        <time>2014-06-28T06:52:52.000Z</time>
      </trkpt>
      <trkpt lat="45.15142" lon="5.66703">
        <ele>691</ele>
        <time>2014-06-28T06:52:53.000Z</time>
      </trkpt>
      <trkpt lat="45.15142" lon="5.66702">
        <ele>691</ele>
        <time>2014-06-28T06:52:54.000Z</time>
      </trkpt>
      <trkpt lat="45.15142" lon="5.66701">
        <ele>691</ele>
        <time>2014-06-28T06:52:55.000Z</time>
      </trkpt>
      <trkpt lat="45.15141" lon="5.66701">
        <ele>692</ele>
        <time>2014-06-28T06:52:56.000Z</time>
      </trkpt>
      <trkpt lat="45.15141" lon="5.667">
        <ele>692</ele>
        <time>2014-06-28T06:52:57.000Z</time>
      </trkpt>
      <trkpt lat="45.15141" lon="5.667">
        <ele>692</ele>
        <time>2014-06-28T06:52:58.000Z</time>
      </trkpt>
      <trkpt lat="45.1514" lon="5.66699">
        <ele>692</ele>
        <time>2014-06-28T06:52:59.000Z</time>
      </trkpt>
      <trkpt lat="45.1514" lon="5.66698">
        <ele>693</ele>
        <time>2014-06-28T06:53:00.000Z</time>
      </trkpt>
      <trkpt lat="45.1514" lon="5.66697">
        <ele>693</ele>
        <time>2014-06-28T06:53:01.000Z</time>
      </trkpt>
      <trkpt lat="45.15139" lon="5.66697">
        <ele>693</ele>
        <time>2014-06-28T06:53:02.000Z</time>
      </trkpt>
      <trkpt lat="45.15139" lon="5.66696">
        <ele>693</ele>
        <time>2014-06-28T06:53:03.000Z</time>
      </trkpt>
      <trkpt lat="45.15139" lon="5.66695">
        <ele>693</ele>
        <time>2014-06-28T06:53:04.000Z</time>
      </trkpt>
      <trkpt lat="45.15138" lon="5.66695">
        <ele>694</ele>
        <time>2014-06-28T06:53:05.000Z</time>
      </trkpt>
      <trkpt lat="45.15138" lon="5.66694">
        <ele>694</ele>
        <time>2014-06-28T06:53:06.000Z</time>
      </trkpt>
      <trkpt lat="45.15138" lon="5.66693">
        <ele>694</ele>
        <time>2014-06-28T06:53:07.000Z</time>
      </trkpt>
      <trkpt lat="45.15138" lon="5.66692">
        <ele>695</ele>
        <time>2014-06-28T06:53:08.000Z</time>
      </trkpt>
      <trkpt lat="45.15138" lon="5.66692">
        <ele>695</ele>
        <time>2014-06-28T06:53:09.000Z</time>
      </trkpt>
      <trkpt lat="45.15138" lon="5.66691">
        <ele>695</ele>
        <time>2014-06-28T06:53:10.000Z</time>
      </trkpt>
      <trkpt lat="45.15138" lon="5.66691">
        <ele>696</ele>
        <time>2014-06-28T06:53:11.000Z</time>
      </trkpt>
      <trkpt lat="45.15138" lon="5.6669">
        <ele>696</ele>
        <time>2014-06-28T06:53:12.000Z</time>
      </trkpt>
      <trkpt lat="45.15138" lon="5.66689">
        <ele>696</ele>
        <time>2014-06-28T06:53:13.000Z</time>
      </trkpt>
      <trkpt lat="45.15137" lon="5.66688">
        <ele>697</ele>
        <time>2014-06-28T06:53:14.000Z</time>
      </trkpt>
      <trkpt lat="45.15137" lon="5.66687">
        <ele>697</ele>
        <time>2014-06-28T06:53:15.000Z</time>
      </trkpt>
      <trkpt lat="45.15137" lon="5.66687">
        <ele>698</ele>
        <time>2014-06-28T06:53:16.000Z</time>
      </trkpt>
      <trkpt lat="45.15136" lon="5.66686">
        <ele>698</ele>
        <time>2014-06-28T06:53:17.000Z</time>
      </trkpt>
      <trkpt lat="45.15136" lon="5.66686">
        <ele>698</ele>
        <time>2014-06-28T06:53:18.000Z</time>
      </trkpt>
      <trkpt lat="45.15136" lon="5.66686">
        <ele>699</ele>
        <time>2014-06-28T06:53:19.000Z</time>
      </trkpt>
      <trkpt lat="45.15135" lon="5.66686">
        <ele>699</ele>
        <time>2014-06-28T06:53:20.000Z</time>
      </trkpt>
      <trkpt lat="45.15135" lon="5.66685">
        <ele>699</ele>
        <time>2014-06-28T06:53:21.000Z</time>
      </trkpt>
      <trkpt lat="45.15135" lon="5.66685">
        <ele>700</ele>
        <time>2014-06-28T06:53:22.000Z</time>
      </trkpt>
      <trkpt lat="45.15135" lon="5.66684">
        <ele>700</ele>
        <time>2014-06-28T06:53:23.000Z</time>
      </trkpt>
      <trkpt lat="45.15135" lon="5.66683">
        <ele>700</ele>
        <time>2014-06-28T06:53:24.000Z</time>
      </trkpt>
      <trkpt lat="45.15134" lon="5.66682">
        <ele>700</ele>
        <time>2014-06-28T06:53:25.000Z</time>
      </trkpt>
      <trkpt lat="45.15134" lon="5.66681">
        <ele>701</ele>
        <time>2014-06-28T06:53:26.000Z</time>
      </trkpt>
      <trkpt lat="45.15133" lon="5.66681">
        <ele>701</ele>
        <time>2014-06-28T06:53:27.000Z</time>
      </trkpt>
      <trkpt lat="45.15133" lon="5.6668">
        <ele>701</ele>
        <time>2014-06-28T06:53:28.000Z</time>
      </trkpt>
      <trkpt lat="45.15133" lon="5.66679">
        <ele>702</ele>
        <time>2014-06-28T06:53:29.000Z</time>
      </trkpt>
      <trkpt lat="45.15132" lon="5.66678">
        <ele>702</ele>
        <time>2014-06-28T06:53:30.000Z</time>
      </trkpt>
      <trkpt lat="45.15132" lon="5.66677">
        <ele>703</ele>
        <time>2014-06-28T06:53:31.000Z</time>
      </trkpt>
      <trkpt lat="45.15132" lon="5.66676">
        <ele>703</ele>
        <time>2014-06-28T06:53:32.000Z</time>
      </trkpt>
      <trkpt lat="45.15132" lon="5.66676">
        <ele>703</ele>
        <time>2014-06-28T06:53:33.000Z</time>
      </trkpt>
      <trkpt lat="45.15133" lon="5.66675">
        <ele>704</ele>
        <time>2014-06-28T06:53:34.000Z</time>
      </trkpt>
      <trkpt lat="45.15133" lon="5.66674">
        <ele>705</ele>
        <time>2014-06-28T06:53:35.000Z</time>
      </trkpt>
      <trkpt lat="45.15133" lon="5.66674">
        <ele>705</ele>
        <time>2014-06-28T06:53:36.000Z</time>
      </trkpt>
      <trkpt lat="45.15133" lon="5.66673">
        <ele>706</ele>
        <time>2014-06-28T06:53:37.000Z</time>
      </trkpt>
      <trkpt lat="45.15133" lon="5.66672">
        <ele>706</ele>
        <time>2014-06-28T06:53:38.000Z</time>
      </trkpt>
      <trkpt lat="45.15133" lon="5.66672">
        <ele>707</ele>
        <time>2014-06-28T06:53:39.000Z</time>
      </trkpt>
      <trkpt lat="45.15133" lon="5.66672">
        <ele>707</ele>
        <time>2014-06-28T06:53:40.000Z</time>
      </trkpt>
      <trkpt lat="45.15133" lon="5.66672">
        <ele>708</ele>
        <time>2014-06-28T06:53:41.000Z</time>
      </trkpt>
      <trkpt lat="45.15133" lon="5.66671">
        <ele>708</ele>
        <time>2014-06-28T06:53:42.000Z</time>
      </trkpt>
      <trkpt lat="45.15133" lon="5.66671">
        <ele>708</ele>
        <time>2014-06-28T06:53:43.000Z</time>
      </trkpt>
      <trkpt lat="45.15133" lon="5.66671">
        <ele>709</ele>
        <time>2014-06-28T06:53:44.000Z</time>
      </trkpt>
      <trkpt lat="45.15133" lon="5.66671">
        <ele>709</ele>
        <time>2014-06-28T06:53:45.000Z</time>
      </trkpt>
      <trkpt lat="45.15133" lon="5.6667">
        <ele>710</ele>
        <time>2014-06-28T06:53:46.000Z</time>
      </trkpt>
      <trkpt lat="45.15133" lon="5.6667">
        <ele>710</ele>
        <time>2014-06-28T06:53:47.000Z</time>
      </trkpt>
      <trkpt lat="45.15132" lon="5.66669">
        <ele>711</ele>
        <time>2014-06-28T06:53:48.000Z</time>
      </trkpt>
      <trkpt lat="45.15132" lon="5.66669">
        <ele>711</ele>
        <time>2014-06-28T06:53:49.000Z</time>
      </trkpt>
      <trkpt lat="45.15132" lon="5.66668">
        <ele>712</ele>
        <time>2014-06-28T06:53:50.000Z</time>
      </trkpt>
      <trkpt lat="45.15132" lon="5.66668">
        <ele>712</ele>
        <time>2014-06-28T06:53:51.000Z</time>
      </trkpt>
      <trkpt lat="45.15132" lon="5.66667">
        <ele>712</ele>
        <time>2014-06-28T06:53:52.000Z</time>
      </trkpt>
      <trkpt lat="45.15132" lon="5.66667">
        <ele>713</ele>
        <time>2014-06-28T06:53:53.000Z</time>
      </trkpt>
      <trkpt lat="45.15132" lon="5.66666">
        <ele>713</ele>
        <time>2014-06-28T06:53:54.000Z</time>
      </trkpt>
      <trkpt lat="45.15132" lon="5.66666">
        <ele>714</ele>
        <time>2014-06-28T06:53:55.000Z</time>
      </trkpt>
      <trkpt lat="45.15132" lon="5.66666">
        <ele>714</ele>
        <time>2014-06-28T06:53:56.000Z</time>
      </trkpt>
      <trkpt lat="45.15132" lon="5.66665">
        <ele>714</ele>
        <time>2014-06-28T06:53:57.000Z</time>
      </trkpt>
      <trkpt lat="45.15132" lon="5.66665">
        <ele>715</ele>
        <time>2014-06-28T06:53:58.000Z</time>
      </trkpt>
      <trkpt lat="45.15132" lon="5.66665">
        <ele>715</ele>
        <time>2014-06-28T06:53:59.000Z</time>
      </trkpt>
      <trkpt lat="45.15132" lon="5.66664">
        <ele>715</ele>
        <time>2014-06-28T06:54:00.000Z</time>
      </trkpt>
      <trkpt lat="45.15132" lon="5.66664">
        <ele>715</ele>
        <time>2014-06-28T06:54:01.000Z</time>
      </trkpt>
      <trkpt lat="45.15132" lon="5.66663">
        <ele>716</ele>
        <time>2014-06-28T06:54:02.000Z</time>
      </trkpt>
      <trkpt lat="45.15131" lon="5.66662">
        <ele>716</ele>
        <time>2014-06-28T06:54:03.000Z</time>
      </trkpt>
      <trkpt lat="45.15131" lon="5.66661">
        <ele>716</ele>
        <time>2014-06-28T06:54:04.000Z</time>
      </trkpt>
      <trkpt lat="45.15131" lon="5.6666">
        <ele>716</ele>
        <time>2014-06-28T06:54:05.000Z</time>
      </trkpt>
      <trkpt lat="45.15131" lon="5.6666">
        <ele>717</ele>
        <time>2014-06-28T06:54:06.000Z</time>
      </trkpt>
      <trkpt lat="45.15131" lon="5.66659">
        <ele>717</ele>
        <time>2014-06-28T06:54:07.000Z</time>
      </trkpt>
      <trkpt lat="45.15131" lon="5.66658">
        <ele>717</ele>
        <time>2014-06-28T06:54:08.000Z</time>
      </trkpt>
      <trkpt lat="45.1513" lon="5.66657">
        <ele>717</ele>
        <time>2014-06-28T06:54:09.000Z</time>
      </trkpt>
      <trkpt lat="45.1513" lon="5.66657">
        <ele>718</ele>
        <time>2014-06-28T06:54:10.000Z</time>
      </trkpt>
      <trkpt lat="45.1513" lon="5.66656">
        <ele>718</ele>
        <time>2014-06-28T06:54:11.000Z</time>
      </trkpt>
      <trkpt lat="45.1513" lon="5.66655">
        <ele>718</ele>
        <time>2014-06-28T06:54:12.000Z</time>
      </trkpt>
      <trkpt lat="45.1513" lon="5.66655">
        <ele>718</ele>
        <time>2014-06-28T06:54:13.000Z</time>
      </trkpt>
      <trkpt lat="45.1513" lon="5.66654">
        <ele>719</ele>
        <time>2014-06-28T06:54:14.000Z</time>
      </trkpt>
      <trkpt lat="45.1513" lon="5.66654">
        <ele>719</ele>
        <time>2014-06-28T06:54:15.000Z</time>
      </trkpt>
      <trkpt lat="45.1513" lon="5.66653">
        <ele>719</ele>
        <time>2014-06-28T06:54:16.000Z</time>
      </trkpt>
      <trkpt lat="45.15131" lon="5.66652">
        <ele>720</ele>
        <time>2014-06-28T06:54:17.000Z</time>
      </trkpt>
      <trkpt lat="45.15131" lon="5.66652">
        <ele>720</ele>
        <time>2014-06-28T06:54:18.000Z</time>
      </trkpt>
      <trkpt lat="45.15131" lon="5.66651">
        <ele>720</ele>
        <time>2014-06-28T06:54:19.000Z</time>
      </trkpt>
      <trkpt lat="45.1513" lon="5.6665">
        <ele>721</ele>
        <time>2014-06-28T06:54:20.000Z</time>
      </trkpt>
      <trkpt lat="45.1513" lon="5.66649">
        <ele>721</ele>
        <time>2014-06-28T06:54:21.000Z</time>
      </trkpt>
      <trkpt lat="45.1513" lon="5.66649">
        <ele>721</ele>
        <time>2014-06-28T06:54:22.000Z</time>
      </trkpt>
      <trkpt lat="45.1513" lon="5.66648">
        <ele>722</ele>
        <time>2014-06-28T06:54:23.000Z</time>
      </trkpt>
      <trkpt lat="45.1513" lon="5.66648">
        <ele>722</ele>
        <time>2014-06-28T06:54:24.000Z</time>
      </trkpt>
      <trkpt lat="45.1513" lon="5.66647">
        <ele>722</ele>
        <time>2014-06-28T06:54:25.000Z</time>
      </trkpt>
      <trkpt lat="45.15129" lon="5.66647">
        <ele>722</ele>
        <time>2014-06-28T06:54:26.000Z</time>
      </trkpt>
      <trkpt lat="45.15129" lon="5.66646">
        <ele>723</ele>
        <time>2014-06-28T06:54:27.000Z</time>
      </trkpt>
      <trkpt lat="45.15129" lon="5.66645">
        <ele>723</ele>
        <time>2014-06-28T06:54:28.000Z</time>
      </trkpt>
      <trkpt lat="45.15129" lon="5.66644">
        <ele>723</ele>
        <time>2014-06-28T06:54:29.000Z</time>
      </trkpt>
      <trkpt lat="45.15129" lon="5.66643">
        <ele>723</ele>
        <time>2014-06-28T06:54:30.000Z</time>
      </trkpt>
      <trkpt lat="45.15128" lon="5.66643">
        <ele>724</ele>
        <time>2014-06-28T06:54:31.000Z</time>
      </trkpt>
      <trkpt lat="45.15128" lon="5.66642">
        <ele>724</ele>
        <time>2014-06-28T06:54:32.000Z</time>
      </trkpt>
      <trkpt lat="45.15128" lon="5.66641">
        <ele>724</ele>
        <time>2014-06-28T06:54:33.000Z</time>
      </trkpt>
      <trkpt lat="45.15129" lon="5.66639">
        <ele>724</ele>
        <time>2014-06-28T06:54:34.000Z</time>
      </trkpt>
      <trkpt lat="45.15128" lon="5.66638">
        <ele>724</ele>
        <time>2014-06-28T06:54:35.000Z</time>
      </trkpt>
      <trkpt lat="45.15128" lon="5.66637">
        <ele>724</ele>
        <time>2014-06-28T06:54:36.000Z</time>
      </trkpt>
      <trkpt lat="45.15128" lon="5.66635">
        <ele>724</ele>
        <time>2014-06-28T06:54:37.000Z</time>
      </trkpt>
      <trkpt lat="45.15127" lon="5.66634">
        <ele>724</ele>
        <time>2014-06-28T06:54:38.000Z</time>
      </trkpt>
      <trkpt lat="45.15127" lon="5.66633">
        <ele>725</ele>
        <time>2014-06-28T06:54:39.000Z</time>
      </trkpt>
      <trkpt lat="45.15126" lon="5.66632">
        <ele>725</ele>
        <time>2014-06-28T06:54:40.000Z</time>
      </trkpt>
      <trkpt lat="45.15126" lon="5.6663">
        <ele>725</ele>
        <time>2014-06-28T06:54:41.000Z</time>
      </trkpt>
      <trkpt lat="45.15125" lon="5.66629">
        <ele>725</ele>
        <time>2014-06-28T06:54:42.000Z</time>
      </trkpt>
      <trkpt lat="45.15125" lon="5.66628">
        <ele>725</ele>
        <time>2014-06-28T06:54:43.000Z</time>
      </trkpt>
      <trkpt lat="45.15125" lon="5.66627">
        <ele>725</ele>
        <time>2014-06-28T06:54:44.000Z</time>
      </trkpt>
      <trkpt lat="45.15125" lon="5.66625">
        <ele>725</ele>
        <time>2014-06-28T06:54:45.000Z</time>
      </trkpt>
      <trkpt lat="45.15124" lon="5.66624">
        <ele>725</ele>
        <time>2014-06-28T06:54:46.000Z</time>
      </trkpt>
      <trkpt lat="45.15124" lon="5.66622">
        <ele>726</ele>
        <time>2014-06-28T06:54:47.000Z</time>
      </trkpt>
      <trkpt lat="45.15124" lon="5.66621">
        <ele>726</ele>
        <time>2014-06-28T06:54:48.000Z</time>
      </trkpt>
      <trkpt lat="45.15123" lon="5.66619">
        <ele>726</ele>
        <time>2014-06-28T06:54:49.000Z</time>
      </trkpt>
      <trkpt lat="45.15123" lon="5.66618">
        <ele>726</ele>
        <time>2014-06-28T06:54:50.000Z</time>
      </trkpt>
      <trkpt lat="45.15122" lon="5.66616">
        <ele>726</ele>
        <time>2014-06-28T06:54:51.000Z</time>
      </trkpt>
      <trkpt lat="45.15122" lon="5.66615">
        <ele>727</ele>
        <time>2014-06-28T06:54:52.000Z</time>
      </trkpt>
      <trkpt lat="45.15121" lon="5.66614">
        <ele>727</ele>
        <time>2014-06-28T06:54:53.000Z</time>
      </trkpt>
      <trkpt lat="45.15121" lon="5.66612">
        <ele>727</ele>
        <time>2014-06-28T06:54:54.000Z</time>
      </trkpt>
      <trkpt lat="45.15121" lon="5.6661">
        <ele>728</ele>
        <time>2014-06-28T06:54:55.000Z</time>
      </trkpt>
      <trkpt lat="45.15121" lon="5.66609">
        <ele>728</ele>
        <time>2014-06-28T06:54:56.000Z</time>
      </trkpt>
      <trkpt lat="45.1512" lon="5.66607">
        <ele>728</ele>
        <time>2014-06-28T06:54:57.000Z</time>
      </trkpt>
      <trkpt lat="45.1512" lon="5.66606">
        <ele>729</ele>
        <time>2014-06-28T06:54:58.000Z</time>
      </trkpt>
      <trkpt lat="45.15119" lon="5.66605">
        <ele>729</ele>
        <time>2014-06-28T06:54:59.000Z</time>
      </trkpt>
      <trkpt lat="45.15119" lon="5.66604">
        <ele>729</ele>
        <time>2014-06-28T06:55:00.000Z</time>
      </trkpt>
      <trkpt lat="45.15119" lon="5.66603">
        <ele>730</ele>
        <time>2014-06-28T06:55:01.000Z</time>
      </trkpt>
      <trkpt lat="45.15119" lon="5.66601">
        <ele>730</ele>
        <time>2014-06-28T06:55:02.000Z</time>
      </trkpt>
      <trkpt lat="45.15119" lon="5.666">
        <ele>730</ele>
        <time>2014-06-28T06:55:03.000Z</time>
      </trkpt>
      <trkpt lat="45.15119" lon="5.66599">
        <ele>731</ele>
        <time>2014-06-28T06:55:04.000Z</time>
      </trkpt>
      <trkpt lat="45.15118" lon="5.66599">
        <ele>731</ele>
        <time>2014-06-28T06:55:05.000Z</time>
      </trkpt>
      <trkpt lat="45.15118" lon="5.66598">
        <ele>731</ele>
        <time>2014-06-28T06:55:06.000Z</time>
      </trkpt>
      <trkpt lat="45.15117" lon="5.66597">
        <ele>731</ele>
        <time>2014-06-28T06:55:07.000Z</time>
      </trkpt>
      <trkpt lat="45.15117" lon="5.66596">
        <ele>732</ele>
        <time>2014-06-28T06:55:08.000Z</time>
      </trkpt>
      <trkpt lat="45.15116" lon="5.66595">
        <ele>732</ele>
        <time>2014-06-28T06:55:09.000Z</time>
      </trkpt>
      <trkpt lat="45.15116" lon="5.66594">
        <ele>732</ele>
        <time>2014-06-28T06:55:10.000Z</time>
      </trkpt>
      <trkpt lat="45.15115" lon="5.66593">
        <ele>733</ele>
        <time>2014-06-28T06:55:11.000Z</time>
      </trkpt>
      <trkpt lat="45.15114" lon="5.66592">
        <ele>733</ele>
        <time>2014-06-28T06:55:12.000Z</time>
      </trkpt>
      <trkpt lat="45.15114" lon="5.66591">
        <ele>733</ele>
        <time>2014-06-28T06:55:13.000Z</time>
      </trkpt>
      <trkpt lat="45.15113" lon="5.66591">
        <ele>734</ele>
        <time>2014-06-28T06:55:14.000Z</time>
      </trkpt>
      <trkpt lat="45.15113" lon="5.6659">
        <ele>734</ele>
        <time>2014-06-28T06:55:15.000Z</time>
      </trkpt>
      <trkpt lat="45.15112" lon="5.66589">
        <ele>735</ele>
        <time>2014-06-28T06:55:16.000Z</time>
      </trkpt>
      <trkpt lat="45.15112" lon="5.66588">
        <ele>735</ele>
        <time>2014-06-28T06:55:17.000Z</time>
      </trkpt>
      <trkpt lat="45.15111" lon="5.66588">
        <ele>736</ele>
        <time>2014-06-28T06:55:18.000Z</time>
      </trkpt>
      <trkpt lat="45.15111" lon="5.66587">
        <ele>736</ele>
        <time>2014-06-28T06:55:19.000Z</time>
      </trkpt>
      <trkpt lat="45.1511" lon="5.66586">
        <ele>736</ele>
        <time>2014-06-28T06:55:20.000Z</time>
      </trkpt>
      <trkpt lat="45.1511" lon="5.66585">
        <ele>737</ele>
        <time>2014-06-28T06:55:21.000Z</time>
      </trkpt>
      <trkpt lat="45.1511" lon="5.66584">
        <ele>737</ele>
        <time>2014-06-28T06:55:22.000Z</time>
      </trkpt>
      <trkpt lat="45.15109" lon="5.66583">
        <ele>738</ele>
        <time>2014-06-28T06:55:23.000Z</time>
      </trkpt>
      <trkpt lat="45.15109" lon="5.66582">
        <ele>738</ele>
        <time>2014-06-28T06:55:24.000Z</time>
      </trkpt>
      <trkpt lat="45.15109" lon="5.66581">
        <ele>739</ele>
        <time>2014-06-28T06:55:25.000Z</time>
      </trkpt>
      <trkpt lat="45.15108" lon="5.6658">
        <ele>739</ele>
        <time>2014-06-28T06:55:26.000Z</time>
      </trkpt>
      <trkpt lat="45.15108" lon="5.66579">
        <ele>740</ele>
        <time>2014-06-28T06:55:27.000Z</time>
      </trkpt>
      <trkpt lat="45.15108" lon="5.66578">
        <ele>740</ele>
        <time>2014-06-28T06:55:28.000Z</time>
      </trkpt>
      <trkpt lat="45.15107" lon="5.66577">
        <ele>741</ele>
        <time>2014-06-28T06:55:29.000Z</time>
      </trkpt>
      <trkpt lat="45.15107" lon="5.66576">
        <ele>741</ele>
        <time>2014-06-28T06:55:30.000Z</time>
      </trkpt>
      <trkpt lat="45.15107" lon="5.66575">
        <ele>741</ele>
        <time>2014-06-28T06:55:31.000Z</time>
      </trkpt>
      <trkpt lat="45.15107" lon="5.66574">
        <ele>742</ele>
        <time>2014-06-28T06:55:32.000Z</time>
      </trkpt>
      <trkpt lat="45.15106" lon="5.66573">
        <ele>742</ele>
        <time>2014-06-28T06:55:33.000Z</time>
      </trkpt>
      <trkpt lat="45.15106" lon="5.66572">
        <ele>743</ele>
        <time>2014-06-28T06:55:34.000Z</time>
      </trkpt>
      <trkpt lat="45.15106" lon="5.66571">
        <ele>743</ele>
        <time>2014-06-28T06:55:35.000Z</time>
      </trkpt>
      <trkpt lat="45.15105" lon="5.66569">
        <ele>743</ele>
        <time>2014-06-28T06:55:36.000Z</time>
      </trkpt>
      <trkpt lat="45.15105" lon="5.66568">
        <ele>744</ele>
        <time>2014-06-28T06:55:37.000Z</time>
      </trkpt>
      <trkpt lat="45.15105" lon="5.66567">
        <ele>744</ele>
        <time>2014-06-28T06:55:38.000Z</time>
      </trkpt>
      <trkpt lat="45.15105" lon="5.66567">
        <ele>745</ele>
        <time>2014-06-28T06:55:39.000Z</time>
      </trkpt>
      <trkpt lat="45.15104" lon="5.66566">
        <ele>745</ele>
        <time>2014-06-28T06:55:40.000Z</time>
      </trkpt>
      <trkpt lat="45.15104" lon="5.66565">
        <ele>745</ele>
        <time>2014-06-28T06:55:41.000Z</time>
      </trkpt>
      <trkpt lat="45.15104" lon="5.66564">
        <ele>745</ele>
        <time>2014-06-28T06:55:42.000Z</time>
      </trkpt>
      <trkpt lat="45.15104" lon="5.66563">
        <ele>746</ele>
        <time>2014-06-28T06:55:43.000Z</time>
      </trkpt>
      <trkpt lat="45.15103" lon="5.66562">
        <ele>746</ele>
        <time>2014-06-28T06:55:44.000Z</time>
      </trkpt>
      <trkpt lat="45.15103" lon="5.66562">
        <ele>746</ele>
        <time>2014-06-28T06:55:45.000Z</time>
      </trkpt>
      <trkpt lat="45.15103" lon="5.66561">
        <ele>746</ele>
        <time>2014-06-28T06:55:46.000Z</time>
      </trkpt>
      <trkpt lat="45.15102" lon="5.6656">
        <ele>747</ele>
        <time>2014-06-28T06:55:47.000Z</time>
      </trkpt>
      <trkpt lat="45.15102" lon="5.66559">
        <ele>747</ele>
        <time>2014-06-28T06:55:48.000Z</time>
      </trkpt>
      <trkpt lat="45.15102" lon="5.66558">
        <ele>747</ele>
        <time>2014-06-28T06:55:49.000Z</time>
      </trkpt>
      <trkpt lat="45.15101" lon="5.66557">
        <ele>747</ele>
        <time>2014-06-28T06:55:50.000Z</time>
      </trkpt>
      <trkpt lat="45.15101" lon="5.66557">
        <ele>747</ele>
        <time>2014-06-28T06:55:51.000Z</time>
      </trkpt>
      <trkpt lat="45.15101" lon="5.66556">
        <ele>748</ele>
        <time>2014-06-28T06:55:52.000Z</time>
      </trkpt>
      <trkpt lat="45.15101" lon="5.66555">
        <ele>748</ele>
        <time>2014-06-28T06:55:53.000Z</time>
      </trkpt>
      <trkpt lat="45.151" lon="5.66554">
        <ele>748</ele>
        <time>2014-06-28T06:55:54.000Z</time>
      </trkpt>
      <trkpt lat="45.151" lon="5.66553">
        <ele>748</ele>
        <time>2014-06-28T06:55:55.000Z</time>
      </trkpt>
      <trkpt lat="45.151" lon="5.66553">
        <ele>748</ele>
        <time>2014-06-28T06:55:56.000Z</time>
      </trkpt>
      <trkpt lat="45.15099" lon="5.66552">
        <ele>748</ele>
        <time>2014-06-28T06:55:57.000Z</time>
      </trkpt>
      <trkpt lat="45.15099" lon="5.66551">
        <ele>748</ele>
        <time>2014-06-28T06:55:58.000Z</time>
      </trkpt>
      <trkpt lat="45.15099" lon="5.6655">
        <ele>749</ele>
        <time>2014-06-28T06:55:59.000Z</time>
      </trkpt>
      <trkpt lat="45.15098" lon="5.66549">
        <ele>749</ele>
        <time>2014-06-28T06:56:00.000Z</time>
      </trkpt>
      <trkpt lat="45.15098" lon="5.66548">
        <ele>749</ele>
        <time>2014-06-28T06:56:01.000Z</time>
      </trkpt>
      <trkpt lat="45.15098" lon="5.66547">
        <ele>749</ele>
        <time>2014-06-28T06:56:02.000Z</time>
      </trkpt>
      <trkpt lat="45.15097" lon="5.66546">
        <ele>750</ele>
        <time>2014-06-28T06:56:03.000Z</time>
      </trkpt>
      <trkpt lat="45.15097" lon="5.66545">
        <ele>750</ele>
        <time>2014-06-28T06:56:04.000Z</time>
      </trkpt>
      <trkpt lat="45.15097" lon="5.66544">
        <ele>751</ele>
        <time>2014-06-28T06:56:05.000Z</time>
      </trkpt>
      <trkpt lat="45.15097" lon="5.66543">
        <ele>751</ele>
        <time>2014-06-28T06:56:06.000Z</time>
      </trkpt>
      <trkpt lat="45.15096" lon="5.66543">
        <ele>751</ele>
        <time>2014-06-28T06:56:07.000Z</time>
      </trkpt>
      <trkpt lat="45.15096" lon="5.66542">
        <ele>751</ele>
        <time>2014-06-28T06:56:08.000Z</time>
      </trkpt>
      <trkpt lat="45.15096" lon="5.66541">
        <ele>751</ele>
        <time>2014-06-28T06:56:09.000Z</time>
      </trkpt>
      <trkpt lat="45.15095" lon="5.66539">
        <ele>752</ele>
        <time>2014-06-28T06:56:10.000Z</time>
      </trkpt>
      <trkpt lat="45.15095" lon="5.66538">
        <ele>752</ele>
        <time>2014-06-28T06:56:11.000Z</time>
      </trkpt>
      <trkpt lat="45.15095" lon="5.66537">
        <ele>752</ele>
        <time>2014-06-28T06:56:12.000Z</time>
      </trkpt>
      <trkpt lat="45.15095" lon="5.66536">
        <ele>752</ele>
        <time>2014-06-28T06:56:13.000Z</time>
      </trkpt>
      <trkpt lat="45.15095" lon="5.66535">
        <ele>753</ele>
        <time>2014-06-28T06:56:14.000Z</time>
      </trkpt>
      <trkpt lat="45.15094" lon="5.66533">
        <ele>753</ele>
        <time>2014-06-28T06:56:15.000Z</time>
      </trkpt>
      <trkpt lat="45.15094" lon="5.66532">
        <ele>753</ele>
        <time>2014-06-28T06:56:16.000Z</time>
      </trkpt>
      <trkpt lat="45.15094" lon="5.66531">
        <ele>754</ele>
        <time>2014-06-28T06:56:17.000Z</time>
      </trkpt>
      <trkpt lat="45.15093" lon="5.6653">
        <ele>754</ele>
        <time>2014-06-28T06:56:18.000Z</time>
      </trkpt>
      <trkpt lat="45.15093" lon="5.6653">
        <ele>755</ele>
        <time>2014-06-28T06:56:19.000Z</time>
      </trkpt>
      <trkpt lat="45.15092" lon="5.66529">
        <ele>755</ele>
        <time>2014-06-28T06:56:20.000Z</time>
      </trkpt>
      <trkpt lat="45.15092" lon="5.66528">
        <ele>755</ele>
        <time>2014-06-28T06:56:21.000Z</time>
      </trkpt>
      <trkpt lat="45.15092" lon="5.66528">
        <ele>756</ele>
        <time>2014-06-28T06:56:22.000Z</time>
      </trkpt>
      <trkpt lat="45.15092" lon="5.66527">
        <ele>756</ele>
        <time>2014-06-28T06:56:23.000Z</time>
      </trkpt>
      <trkpt lat="45.15091" lon="5.66526">
        <ele>757</ele>
        <time>2014-06-28T06:56:24.000Z</time>
      </trkpt>
      <trkpt lat="45.15091" lon="5.66526">
        <ele>757</ele>
        <time>2014-06-28T06:56:25.000Z</time>
      </trkpt>
      <trkpt lat="45.1509" lon="5.66525">
        <ele>757</ele>
        <time>2014-06-28T06:56:26.000Z</time>
      </trkpt>
      <trkpt lat="45.1509" lon="5.66524">
        <ele>757</ele>
        <time>2014-06-28T06:56:27.000Z</time>
      </trkpt>
      <trkpt lat="45.15089" lon="5.66523">
        <ele>758</ele>
        <time>2014-06-28T06:56:28.000Z</time>
      </trkpt>
      <trkpt lat="45.15089" lon="5.66522">
        <ele>758</ele>
        <time>2014-06-28T06:56:29.000Z</time>
      </trkpt>
      <trkpt lat="45.15089" lon="5.66521">
        <ele>758</ele>
        <time>2014-06-28T06:56:30.000Z</time>
      </trkpt>
      <trkpt lat="45.15088" lon="5.66521">
        <ele>758</ele>
        <time>2014-06-28T06:56:31.000Z</time>
      </trkpt>
      <trkpt lat="45.15088" lon="5.6652">
        <ele>759</ele>
        <time>2014-06-28T06:56:32.000Z</time>
      </trkpt>
      <trkpt lat="45.15087" lon="5.66519">
        <ele>759</ele>
        <time>2014-06-28T06:56:33.000Z</time>
      </trkpt>
      <trkpt lat="45.15087" lon="5.66518">
        <ele>759</ele>
        <time>2014-06-28T06:56:34.000Z</time>
      </trkpt>
      <trkpt lat="45.15086" lon="5.66517">
        <ele>759</ele>
        <time>2014-06-28T06:56:35.000Z</time>
      </trkpt>
      <trkpt lat="45.15085" lon="5.66516">
        <ele>759</ele>
        <time>2014-06-28T06:56:36.000Z</time>
      </trkpt>
      <trkpt lat="45.15084" lon="5.66515">
        <ele>759</ele>
        <time>2014-06-28T06:56:37.000Z</time>
      </trkpt>
      <trkpt lat="45.15083" lon="5.66514">
        <ele>759</ele>
        <time>2014-06-28T06:56:38.000Z</time>
      </trkpt>
      <trkpt lat="45.15082" lon="5.66513">
        <ele>759</ele>
        <time>2014-06-28T06:56:39.000Z</time>
      </trkpt>
      <trkpt lat="45.15081" lon="5.66512">
        <ele>759</ele>
        <time>2014-06-28T06:56:40.000Z</time>
      </trkpt>
      <trkpt lat="45.15081" lon="5.66511">
        <ele>760</ele>
        <time>2014-06-28T06:56:41.000Z</time>
      </trkpt>
      <trkpt lat="45.1508" lon="5.66511">
        <ele>760</ele>
        <time>2014-06-28T06:56:42.000Z</time>
      </trkpt>
      <trkpt lat="45.15079" lon="5.6651">
        <ele>760</ele>
        <time>2014-06-28T06:56:43.000Z</time>
      </trkpt>
      <trkpt lat="45.15079" lon="5.6651">
        <ele>760</ele>
        <time>2014-06-28T06:56:44.000Z</time>
      </trkpt>
      <trkpt lat="45.15078" lon="5.6651">
        <ele>761</ele>
        <time>2014-06-28T06:56:45.000Z</time>
      </trkpt>
      <trkpt lat="45.15077" lon="5.66509">
        <ele>761</ele>
        <time>2014-06-28T06:56:46.000Z</time>
      </trkpt>
      <trkpt lat="45.15076" lon="5.66508">
        <ele>762</ele>
        <time>2014-06-28T06:56:47.000Z</time>
      </trkpt>
      <trkpt lat="45.15074" lon="5.66507">
        <ele>762</ele>
        <time>2014-06-28T06:56:48.000Z</time>
      </trkpt>
      <trkpt lat="45.15073" lon="5.66506">
        <ele>763</ele>
        <time>2014-06-28T06:56:49.000Z</time>
      </trkpt>
      <trkpt lat="45.15072" lon="5.66504">
        <ele>763</ele>
        <time>2014-06-28T06:56:50.000Z</time>
      </trkpt>
      <trkpt lat="45.15072" lon="5.66503">
        <ele>763</ele>
        <time>2014-06-28T06:56:51.000Z</time>
      </trkpt>
      <trkpt lat="45.15071" lon="5.66502">
        <ele>764</ele>
        <time>2014-06-28T06:56:52.000Z</time>
      </trkpt>
      <trkpt lat="45.1507" lon="5.66501">
        <ele>764</ele>
        <time>2014-06-28T06:56:53.000Z</time>
      </trkpt>
      <trkpt lat="45.1507" lon="5.665">
        <ele>764</ele>
        <time>2014-06-28T06:56:54.000Z</time>
      </trkpt>
      <trkpt lat="45.15069" lon="5.66499">
        <ele>765</ele>
        <time>2014-06-28T06:56:55.000Z</time>
      </trkpt>
      <trkpt lat="45.15068" lon="5.66497">
        <ele>765</ele>
        <time>2014-06-28T06:56:56.000Z</time>
      </trkpt>
      <trkpt lat="45.15068" lon="5.66496">
        <ele>765</ele>
        <time>2014-06-28T06:56:57.000Z</time>
      </trkpt>
      <trkpt lat="45.15067" lon="5.66495">
        <ele>766</ele>
        <time>2014-06-28T06:56:58.000Z</time>
      </trkpt>
      <trkpt lat="45.15067" lon="5.66495">
        <ele>766</ele>
        <time>2014-06-28T06:56:59.000Z</time>
      </trkpt>
      <trkpt lat="45.15066" lon="5.66494">
        <ele>766</ele>
        <time>2014-06-28T06:57:00.000Z</time>
      </trkpt>
      <trkpt lat="45.15066" lon="5.66493">
        <ele>767</ele>
        <time>2014-06-28T06:57:01.000Z</time>
      </trkpt>
      <trkpt lat="45.15065" lon="5.66492">
        <ele>767</ele>
        <time>2014-06-28T06:57:02.000Z</time>
      </trkpt>
      <trkpt lat="45.15065" lon="5.66491">
        <ele>768</ele>
        <time>2014-06-28T06:57:03.000Z</time>
      </trkpt>
      <trkpt lat="45.15064" lon="5.66491">
        <ele>768</ele>
        <time>2014-06-28T06:57:04.000Z</time>
      </trkpt>
      <trkpt lat="45.15064" lon="5.6649">
        <ele>768</ele>
        <time>2014-06-28T06:57:05.000Z</time>
      </trkpt>
      <trkpt lat="45.15063" lon="5.66489">
        <ele>769</ele>
        <time>2014-06-28T06:57:06.000Z</time>
      </trkpt>
      <trkpt lat="45.15062" lon="5.66488">
        <ele>769</ele>
        <time>2014-06-28T06:57:07.000Z</time>
      </trkpt>
      <trkpt lat="45.15062" lon="5.66488">
        <ele>769</ele>
        <time>2014-06-28T06:57:08.000Z</time>
      </trkpt>
      <trkpt lat="45.15061" lon="5.66487">
        <ele>770</ele>
        <time>2014-06-28T06:57:09.000Z</time>
      </trkpt>
      <trkpt lat="45.1506" lon="5.66486">
        <ele>770</ele>
        <time>2014-06-28T06:57:10.000Z</time>
      </trkpt>
      <trkpt lat="45.15059" lon="5.66485">
        <ele>770</ele>
        <time>2014-06-28T06:57:11.000Z</time>
      </trkpt>
      <trkpt lat="45.15058" lon="5.66485">
        <ele>770</ele>
        <time>2014-06-28T06:57:12.000Z</time>
      </trkpt>
      <trkpt lat="45.15057" lon="5.66484">
        <ele>771</ele>
        <time>2014-06-28T06:57:13.000Z</time>
      </trkpt>
      <trkpt lat="45.15056" lon="5.66484">
        <ele>771</ele>
        <time>2014-06-28T06:57:14.000Z</time>
      </trkpt>
      <trkpt lat="45.15056" lon="5.66484">
        <ele>771</ele>
        <time>2014-06-28T06:57:15.000Z</time>
      </trkpt>
      <trkpt lat="45.15056" lon="5.66484">
        <ele>772</ele>
        <time>2014-06-28T06:57:16.000Z</time>
      </trkpt>
      <trkpt lat="45.15056" lon="5.66484">
        <ele>772</ele>
        <time>2014-06-28T06:57:17.000Z</time>
      </trkpt>
      <trkpt lat="45.15056" lon="5.66483">
        <ele>772</ele>
        <time>2014-06-28T06:57:18.000Z</time>
      </trkpt>
      <trkpt lat="45.15056" lon="5.66483">
        <ele>772</ele>
        <time>2014-06-28T06:57:19.000Z</time>
      </trkpt>
      <trkpt lat="45.15056" lon="5.66483">
        <ele>772</ele>
        <time>2014-06-28T06:57:20.000Z</time>
      </trkpt>
      <trkpt lat="45.15056" lon="5.66483">
        <ele>772</ele>
        <time>2014-06-28T06:57:21.000Z</time>
      </trkpt>
      <trkpt lat="45.15056" lon="5.66483">
        <ele>772</ele>
        <time>2014-06-28T06:57:22.000Z</time>
      </trkpt>
      <trkpt lat="45.15056" lon="5.66483">
        <ele>772</ele>
        <time>2014-06-28T06:57:23.000Z</time>
      </trkpt>
      <trkpt lat="45.15056" lon="5.66483">
        <ele>773</ele>
        <time>2014-06-28T06:57:24.000Z</time>
      </trkpt>
      <trkpt lat="45.15056" lon="5.66483">
        <ele>773</ele>
        <time>2014-06-28T06:57:25.000Z</time>
      </trkpt>
      <trkpt lat="45.15056" lon="5.66483">
        <ele>773</ele>
        <time>2014-06-28T06:57:26.000Z</time>
      </trkpt>
      <trkpt lat="45.15056" lon="5.66483">
        <ele>773</ele>
        <time>2014-06-28T06:57:27.000Z</time>
      </trkpt>
      <trkpt lat="45.15056" lon="5.66482">
        <ele>773</ele>
        <time>2014-06-28T06:57:28.000Z</time>
      </trkpt>
      <trkpt lat="45.15056" lon="5.66482">
        <ele>773</ele>
        <time>2014-06-28T06:57:29.000Z</time>
      </trkpt>
      <trkpt lat="45.15056" lon="5.66482">
        <ele>773</ele>
        <time>2014-06-28T06:57:30.000Z</time>
      </trkpt>
      <trkpt lat="45.15056" lon="5.66482">
        <ele>773</ele>
        <time>2014-06-28T06:57:31.000Z</time>
      </trkpt>
      <trkpt lat="45.15056" lon="5.66482">
        <ele>773</ele>
        <time>2014-06-28T06:57:32.000Z</time>
      </trkpt>
      <trkpt lat="45.15056" lon="5.66482">
        <ele>773</ele>
        <time>2014-06-28T06:57:33.000Z</time>
      </trkpt>
      <trkpt lat="45.15056" lon="5.66482">
        <ele>773</ele>
        <time>2014-06-28T06:57:34.000Z</time>
      </trkpt>
      <trkpt lat="45.15056" lon="5.66482">
        <ele>773</ele>
        <time>2014-06-28T06:57:35.000Z</time>
      </trkpt>
      <trkpt lat="45.15057" lon="5.66482">
        <ele>773</ele>
        <time>2014-06-28T06:57:36.000Z</time>
      </trkpt>
      <trkpt lat="45.15057" lon="5.66482">
        <ele>773</ele>
        <time>2014-06-28T06:57:37.000Z</time>
      </trkpt>
      <trkpt lat="45.15057" lon="5.66482">
        <ele>773</ele>
        <time>2014-06-28T06:57:38.000Z</time>
      </trkpt>
      <trkpt lat="45.15057" lon="5.66482">
        <ele>773</ele>
        <time>2014-06-28T06:57:39.000Z</time>
      </trkpt>
      <trkpt lat="45.15058" lon="5.66483">
        <ele>772</ele>
        <time>2014-06-28T06:57:40.000Z</time>
      </trkpt>
      <trkpt lat="45.15058" lon="5.66483">
        <ele>772</ele>
        <time>2014-06-28T06:57:41.000Z</time>
      </trkpt>
      <trkpt lat="45.15058" lon="5.66484">
        <ele>772</ele>
        <time>2014-06-28T06:57:42.000Z</time>
      </trkpt>
      <trkpt lat="45.15059" lon="5.66484">
        <ele>772</ele>
        <time>2014-06-28T06:57:43.000Z</time>
      </trkpt>
      <trkpt lat="45.15059" lon="5.66484">
        <ele>772</ele>
        <time>2014-06-28T06:57:44.000Z</time>
      </trkpt>
      <trkpt lat="45.1506" lon="5.66484">
        <ele>772</ele>
        <time>2014-06-28T06:57:45.000Z</time>
      </trkpt>
      <trkpt lat="45.1506" lon="5.66483">
        <ele>772</ele>
        <time>2014-06-28T06:57:46.000Z</time>
      </trkpt>
      <trkpt lat="45.15061" lon="5.66483">
        <ele>772</ele>
        <time>2014-06-28T06:57:47.000Z</time>
      </trkpt>
      <trkpt lat="45.15061" lon="5.66483">
        <ele>772</ele>
        <time>2014-06-28T06:57:48.000Z</time>
      </trkpt>
      <trkpt lat="45.15062" lon="5.66483">
        <ele>772</ele>
        <time>2014-06-28T06:57:49.000Z</time>
      </trkpt>
      <trkpt lat="45.15062" lon="5.66483">
        <ele>772</ele>
        <time>2014-06-28T06:57:50.000Z</time>
      </trkpt>
      <trkpt lat="45.15062" lon="5.66483">
        <ele>772</ele>
        <time>2014-06-28T06:57:51.000Z</time>
      </trkpt>
      <trkpt lat="45.15062" lon="5.66483">
        <ele>772</ele>
        <time>2014-06-28T06:57:52.000Z</time>
      </trkpt>
      <trkpt lat="45.15062" lon="5.66482">
        <ele>771</ele>
        <time>2014-06-28T06:57:53.000Z</time>
      </trkpt>
      <trkpt lat="45.15062" lon="5.66482">
        <ele>771</ele>
        <time>2014-06-28T06:57:54.000Z</time>
      </trkpt>
      <trkpt lat="45.15062" lon="5.66482">
        <ele>771</ele>
        <time>2014-06-28T06:57:55.000Z</time>
      </trkpt>
      <trkpt lat="45.15062" lon="5.66482">
        <ele>771</ele>
        <time>2014-06-28T06:57:56.000Z</time>
      </trkpt>
      <trkpt lat="45.15062" lon="5.66482">
        <ele>771</ele>
        <time>2014-06-28T06:57:57.000Z</time>
      </trkpt>
      <trkpt lat="45.15062" lon="5.66482">
        <ele>771</ele>
        <time>2014-06-28T06:57:58.000Z</time>
      </trkpt>
      <trkpt lat="45.15062" lon="5.66482">
        <ele>771</ele>
        <time>2014-06-28T06:57:59.000Z</time>
      </trkpt>
      <trkpt lat="45.15062" lon="5.66482">
        <ele>771</ele>
        <time>2014-06-28T06:58:00.000Z</time>
      </trkpt>
      <trkpt lat="45.15062" lon="5.66482">
        <ele>771</ele>
        <time>2014-06-28T06:58:01.000Z</time>
      </trkpt>
      <trkpt lat="45.15062" lon="5.66482">
        <ele>771</ele>
        <time>2014-06-28T06:58:02.000Z</time>
      </trkpt>
      <trkpt lat="45.15063" lon="5.66482">
        <ele>771</ele>
        <time>2014-06-28T06:58:03.000Z</time>
      </trkpt>
      <trkpt lat="45.15063" lon="5.66481">
        <ele>771</ele>
        <time>2014-06-28T06:58:04.000Z</time>
      </trkpt>
      <trkpt lat="45.15063" lon="5.66481">
        <ele>771</ele>
        <time>2014-06-28T06:58:05.000Z</time>
      </trkpt>
      <trkpt lat="45.15063" lon="5.66481">
        <ele>771</ele>
        <time>2014-06-28T06:58:06.000Z</time>
      </trkpt>
      <trkpt lat="45.15063" lon="5.66481">
        <ele>771</ele>
        <time>2014-06-28T06:58:07.000Z</time>
      </trkpt>
      <trkpt lat="45.15063" lon="5.6648">
        <ele>771</ele>
        <time>2014-06-28T06:58:08.000Z</time>
      </trkpt>
      <trkpt lat="45.15063" lon="5.6648">
        <ele>771</ele>
        <time>2014-06-28T06:58:09.000Z</time>
      </trkpt>
      <trkpt lat="45.15063" lon="5.6648">
        <ele>771</ele>
        <time>2014-06-28T06:58:10.000Z</time>
      </trkpt>
      <trkpt lat="45.15063" lon="5.6648">
        <ele>771</ele>
        <time>2014-06-28T06:58:11.000Z</time>
      </trkpt>
      <trkpt lat="45.15063" lon="5.6648">
        <ele>771</ele>
        <time>2014-06-28T06:58:12.000Z</time>
      </trkpt>
      <trkpt lat="45.15063" lon="5.6648">
        <ele>771</ele>
        <time>2014-06-28T06:58:13.000Z</time>
      </trkpt>
      <trkpt lat="45.15063" lon="5.6648">
        <ele>771</ele>
        <time>2014-06-28T06:58:14.000Z</time>
      </trkpt>
      <trkpt lat="45.15062" lon="5.6648">
        <ele>771</ele>
        <time>2014-06-28T06:58:15.000Z</time>
      </trkpt>
      <trkpt lat="45.15062" lon="5.6648">
        <ele>771</ele>
        <time>2014-06-28T06:58:16.000Z</time>
      </trkpt>
      <trkpt lat="45.15062" lon="5.6648">
        <ele>771</ele>
        <time>2014-06-28T06:58:17.000Z</time>
      </trkpt>
      <trkpt lat="45.15062" lon="5.6648">
        <ele>771</ele>
        <time>2014-06-28T06:58:18.000Z</time>
      </trkpt>
      <trkpt lat="45.15062" lon="5.6648">
        <ele>771</ele>
        <time>2014-06-28T06:58:19.000Z</time>
      </trkpt>
      <trkpt lat="45.15062" lon="5.6648">
        <ele>771</ele>
        <time>2014-06-28T06:58:20.000Z</time>
      </trkpt>
      <trkpt lat="45.15062" lon="5.6648">
        <ele>771</ele>
        <time>2014-06-28T06:58:21.000Z</time>
      </trkpt>
      <trkpt lat="45.15062" lon="5.6648">
        <ele>771</ele>
        <time>2014-06-28T06:58:22.000Z</time>
      </trkpt>
      <trkpt lat="45.15062" lon="5.6648">
        <ele>771</ele>
        <time>2014-06-28T06:58:23.000Z</time>
      </trkpt>
      <trkpt lat="45.15062" lon="5.6648">
        <ele>771</ele>
        <time>2014-06-28T06:58:24.000Z</time>
      </trkpt>
      <trkpt lat="45.15062" lon="5.6648">
        <ele>771</ele>
        <time>2014-06-28T06:58:25.000Z</time>
      </trkpt>
      <trkpt lat="45.15062" lon="5.6648">
        <ele>771</ele>
        <time>2014-06-28T06:58:26.000Z</time>
      </trkpt>
      <trkpt lat="45.15062" lon="5.6648">
        <ele>771</ele>
        <time>2014-06-28T06:58:27.000Z</time>
      </trkpt>
      <trkpt lat="45.15062" lon="5.6648">
        <ele>770</ele>
        <time>2014-06-28T06:58:28.000Z</time>
      </trkpt>
      <trkpt lat="45.15062" lon="5.66481">
        <ele>770</ele>
        <time>2014-06-28T06:58:29.000Z</time>
      </trkpt>
      <trkpt lat="45.15062" lon="5.66481">
        <ele>770</ele>
        <time>2014-06-28T06:58:30.000Z</time>
      </trkpt>
      <trkpt lat="45.1506" lon="5.66481">
        <ele>770</ele>
        <time>2014-06-28T06:58:31.000Z</time>
      </trkpt>
      <trkpt lat="45.15059" lon="5.66481">
        <ele>770</ele>
        <time>2014-06-28T06:58:32.000Z</time>
      </trkpt>
      <trkpt lat="45.15058" lon="5.6648">
        <ele>770</ele>
        <time>2014-06-28T06:58:33.000Z</time>
      </trkpt>
      <trkpt lat="45.15057" lon="5.6648">
        <ele>770</ele>
        <time>2014-06-28T06:58:34.000Z</time>
      </trkpt>
      <trkpt lat="45.15057" lon="5.6648">
        <ele>770</ele>
        <time>2014-06-28T06:58:35.000Z</time>
      </trkpt>
      <trkpt lat="45.15057" lon="5.66481">
        <ele>770</ele>
        <time>2014-06-28T06:58:36.000Z</time>
      </trkpt>
      <trkpt lat="45.15057" lon="5.66481">
        <ele>770</ele>
        <time>2014-06-28T06:58:37.000Z</time>
      </trkpt>
      <trkpt lat="45.15057" lon="5.66481">
        <ele>770</ele>
        <time>2014-06-28T06:58:38.000Z</time>
      </trkpt>
      <trkpt lat="45.15057" lon="5.66481">
        <ele>770</ele>
        <time>2014-06-28T06:58:39.000Z</time>
      </trkpt>
      <trkpt lat="45.15057" lon="5.66481">
        <ele>770</ele>
        <time>2014-06-28T06:58:40.000Z</time>
      </trkpt>
      <trkpt lat="45.15057" lon="5.66481">
        <ele>770</ele>
        <time>2014-06-28T06:58:41.000Z</time>
      </trkpt>
      <trkpt lat="45.15057" lon="5.66481">
        <ele>770</ele>
        <time>2014-06-28T06:58:42.000Z</time>
      </trkpt>
      <trkpt lat="45.15057" lon="5.66481">
        <ele>770</ele>
        <time>2014-06-28T06:58:43.000Z</time>
      </trkpt>
      <trkpt lat="45.15057" lon="5.66481">
        <ele>770</ele>
        <time>2014-06-28T06:58:44.000Z</time>
      </trkpt>
      <trkpt lat="45.15057" lon="5.66481">
        <ele>770</ele>
        <time>2014-06-28T06:58:45.000Z</time>
      </trkpt>
      <trkpt lat="45.15057" lon="5.66481">
        <ele>770</ele>
        <time>2014-06-28T06:58:46.000Z</time>
      </trkpt>
      <trkpt lat="45.15057" lon="5.66481">
        <ele>770</ele>
        <time>2014-06-28T06:58:47.000Z</time>
      </trkpt>
      <trkpt lat="45.15057" lon="5.66481">
        <ele>770</ele>
        <time>2014-06-28T06:58:48.000Z</time>
      </trkpt>
      <trkpt lat="45.15057" lon="5.66481">
        <ele>770</ele>
        <time>2014-06-28T06:58:49.000Z</time>
      </trkpt>
      <trkpt lat="45.15057" lon="5.66481">
        <ele>770</ele>
        <time>2014-06-28T06:58:50.000Z</time>
      </trkpt>
      <trkpt lat="45.15057" lon="5.66481">
        <ele>770</ele>
        <time>2014-06-28T06:58:51.000Z</time>
      </trkpt>
      <trkpt lat="45.15057" lon="5.66481">
        <ele>770</ele>
        <time>2014-06-28T06:58:52.000Z</time>
      </trkpt>
      <trkpt lat="45.15057" lon="5.66481">
        <ele>770</ele>
        <time>2014-06-28T06:58:53.000Z</time>
      </trkpt>
      <trkpt lat="45.15058" lon="5.66481">
        <ele>770</ele>
        <time>2014-06-28T06:58:54.000Z</time>
      </trkpt>
      <trkpt lat="45.15058" lon="5.66481">
        <ele>770</ele>
        <time>2014-06-28T06:58:55.000Z</time>
      </trkpt>
      <trkpt lat="45.15058" lon="5.6648">
        <ele>771</ele>
        <time>2014-06-28T06:58:56.000Z</time>
      </trkpt>
      <trkpt lat="45.15059" lon="5.6648">
        <ele>771</ele>
        <time>2014-06-28T06:58:57.000Z</time>
      </trkpt>
      <trkpt lat="45.15059" lon="5.66479">
        <ele>771</ele>
        <time>2014-06-28T06:58:58.000Z</time>
      </trkpt>
      <trkpt lat="45.1506" lon="5.66478">
        <ele>771</ele>
        <time>2014-06-28T06:58:59.000Z</time>
      </trkpt>
      <trkpt lat="45.1506" lon="5.66479">
        <ele>771</ele>
        <time>2014-06-28T06:59:00.000Z</time>
      </trkpt>
      <trkpt lat="45.15059" lon="5.66478">
        <ele>771</ele>
        <time>2014-06-28T06:59:01.000Z</time>
      </trkpt>
      <trkpt lat="45.15059" lon="5.66478">
        <ele>771</ele>
        <time>2014-06-28T06:59:02.000Z</time>
      </trkpt>
      <trkpt lat="45.15059" lon="5.66477">
        <ele>771</ele>
        <time>2014-06-28T06:59:03.000Z</time>
      </trkpt>
      <trkpt lat="45.15059" lon="5.66477">
        <ele>771</ele>
        <time>2014-06-28T06:59:04.000Z</time>
      </trkpt>
      <trkpt lat="45.15059" lon="5.66477">
        <ele>771</ele>
        <time>2014-06-28T06:59:05.000Z</time>
      </trkpt>
      <trkpt lat="45.15059" lon="5.66477">
        <ele>771</ele>
        <time>2014-06-28T06:59:06.000Z</time>
      </trkpt>
      <trkpt lat="45.15059" lon="5.66477">
        <ele>771</ele>
        <time>2014-06-28T06:59:07.000Z</time>
      </trkpt>
      <trkpt lat="45.15059" lon="5.66477">
        <ele>771</ele>
        <time>2014-06-28T06:59:08.000Z</time>
      </trkpt>
      <trkpt lat="45.15059" lon="5.66477">
        <ele>771</ele>
        <time>2014-06-28T06:59:09.000Z</time>
      </trkpt>
      <trkpt lat="45.15059" lon="5.66477">
        <ele>771</ele>
        <time>2014-06-28T06:59:10.000Z</time>
      </trkpt>
      <trkpt lat="45.15059" lon="5.66477">
        <ele>771</ele>
        <time>2014-06-28T06:59:11.000Z</time>
      </trkpt>
      <trkpt lat="45.15059" lon="5.66477">
        <ele>771</ele>
        <time>2014-06-28T06:59:12.000Z</time>
      </trkpt>
      <trkpt lat="45.15059" lon="5.66477">
        <ele>771</ele>
        <time>2014-06-28T06:59:13.000Z</time>
      </trkpt>
      <trkpt lat="45.15059" lon="5.66476">
        <ele>771</ele>
        <time>2014-06-28T06:59:14.000Z</time>
      </trkpt>
      <trkpt lat="45.15059" lon="5.66476">
        <ele>771</ele>
        <time>2014-06-28T06:59:15.000Z</time>
      </trkpt>
      <trkpt lat="45.15059" lon="5.66477">
        <ele>771</ele>
        <time>2014-06-28T06:59:16.000Z</time>
      </trkpt>
      <trkpt lat="45.15059" lon="5.66477">
        <ele>771</ele>
        <time>2014-06-28T06:59:17.000Z</time>
      </trkpt>
      <trkpt lat="45.15058" lon="5.66477">
        <ele>771</ele>
        <time>2014-06-28T06:59:18.000Z</time>
      </trkpt>
      <trkpt lat="45.15058" lon="5.66477">
        <ele>771</ele>
        <time>2014-06-28T06:59:19.000Z</time>
      </trkpt>
      <trkpt lat="45.15058" lon="5.66477">
        <ele>771</ele>
        <time>2014-06-28T06:59:20.000Z</time>
      </trkpt>
      <trkpt lat="45.15058" lon="5.66477">
        <ele>771</ele>
        <time>2014-06-28T06:59:21.000Z</time>
      </trkpt>
      <trkpt lat="45.15058" lon="5.66478">
        <ele>771</ele>
        <time>2014-06-28T06:59:22.000Z</time>
      </trkpt>
      <trkpt lat="45.15058" lon="5.66477">
        <ele>771</ele>
        <time>2014-06-28T06:59:23.000Z</time>
      </trkpt>
      <trkpt lat="45.15058" lon="5.66478">
        <ele>771</ele>
        <time>2014-06-28T06:59:24.000Z</time>
      </trkpt>
      <trkpt lat="45.15058" lon="5.66478">
        <ele>771</ele>
        <time>2014-06-28T06:59:25.000Z</time>
      </trkpt>
      <trkpt lat="45.15058" lon="5.66478">
        <ele>771</ele>
        <time>2014-06-28T06:59:26.000Z</time>
      </trkpt>
      <trkpt lat="45.15058" lon="5.66478">
        <ele>771</ele>
        <time>2014-06-28T06:59:27.000Z</time>
      </trkpt>
      <trkpt lat="45.15058" lon="5.66478">
        <ele>771</ele>
        <time>2014-06-28T06:59:28.000Z</time>
      </trkpt>
      <trkpt lat="45.15058" lon="5.66478">
        <ele>771</ele>
        <time>2014-06-28T06:59:29.000Z</time>
      </trkpt>
      <trkpt lat="45.15058" lon="5.66478">
        <ele>771</ele>
        <time>2014-06-28T06:59:30.000Z</time>
      </trkpt>
      <trkpt lat="45.15058" lon="5.66478">
        <ele>771</ele>
        <time>2014-06-28T06:59:31.000Z</time>
      </trkpt>
      <trkpt lat="45.15058" lon="5.66478">
        <ele>771</ele>
        <time>2014-06-28T06:59:32.000Z</time>
      </trkpt>
      <trkpt lat="45.15058" lon="5.66478">
        <ele>771</ele>
        <time>2014-06-28T06:59:33.000Z</time>
      </trkpt>
      <trkpt lat="45.15058" lon="5.66478">
        <ele>771</ele>
        <time>2014-06-28T06:59:34.000Z</time>
      </trkpt>
      <trkpt lat="45.15058" lon="5.66478">
        <ele>771</ele>
        <time>2014-06-28T06:59:35.000Z</time>
      </trkpt>
      <trkpt lat="45.15058" lon="5.66478">
        <ele>771</ele>
        <time>2014-06-28T06:59:36.000Z</time>
      </trkpt>
      <trkpt lat="45.15058" lon="5.66478">
        <ele>771</ele>
        <time>2014-06-28T06:59:37.000Z</time>
      </trkpt>
      <trkpt lat="45.15058" lon="5.66478">
        <ele>771</ele>
        <time>2014-06-28T06:59:38.000Z</time>
      </trkpt>
      <trkpt lat="45.15058" lon="5.66478">
        <ele>771</ele>
        <time>2014-06-28T06:59:39.000Z</time>
      </trkpt>
      <trkpt lat="45.15058" lon="5.66478">
        <ele>771</ele>
        <time>2014-06-28T06:59:40.000Z</time>
      </trkpt>
      <trkpt lat="45.15058" lon="5.66478">
        <ele>771</ele>
        <time>2014-06-28T06:59:41.000Z</time>
      </trkpt>
      <trkpt lat="45.15058" lon="5.66478">
        <ele>772</ele>
        <time>2014-06-28T06:59:42.000Z</time>
      </trkpt>
      <trkpt lat="45.15058" lon="5.66479">
        <ele>772</ele>
        <time>2014-06-28T06:59:43.000Z</time>
      </trkpt>
      <trkpt lat="45.15057" lon="5.66478">
        <ele>772</ele>
        <time>2014-06-28T06:59:44.000Z</time>
      </trkpt>
      <trkpt lat="45.15057" lon="5.66478">
        <ele>772</ele>
        <time>2014-06-28T06:59:45.000Z</time>
      </trkpt>
      <trkpt lat="45.15057" lon="5.66478">
        <ele>772</ele>
        <time>2014-06-28T06:59:46.000Z</time>
      </trkpt>
      <trkpt lat="45.15057" lon="5.66478">
        <ele>772</ele>
        <time>2014-06-28T06:59:47.000Z</time>
      </trkpt>
      <trkpt lat="45.15057" lon="5.66478">
        <ele>772</ele>
        <time>2014-06-28T06:59:48.000Z</time>
      </trkpt>
      <trkpt lat="45.15057" lon="5.66478">
        <ele>772</ele>
        <time>2014-06-28T06:59:49.000Z</time>
      </trkpt>
      <trkpt lat="45.15057" lon="5.66478">
        <ele>772</ele>
        <time>2014-06-28T06:59:50.000Z</time>
      </trkpt>
      <trkpt lat="45.15057" lon="5.66478">
        <ele>772</ele>
        <time>2014-06-28T06:59:51.000Z</time>
      </trkpt>
      <trkpt lat="45.15057" lon="5.66478">
        <ele>772</ele>
        <time>2014-06-28T06:59:52.000Z</time>
      </trkpt>
      <trkpt lat="45.15057" lon="5.66478">
        <ele>772</ele>
        <time>2014-06-28T06:59:53.000Z</time>
      </trkpt>
      <trkpt lat="45.15057" lon="5.66478">
        <ele>772</ele>
        <time>2014-06-28T06:59:54.000Z</time>
      </trkpt>
      <trkpt lat="45.15057" lon="5.66478">
        <ele>772</ele>
        <time>2014-06-28T06:59:55.000Z</time>
      </trkpt>
      <trkpt lat="45.15057" lon="5.66478">
        <ele>772</ele>
        <time>2014-06-28T06:59:56.000Z</time>
      </trkpt>
      <trkpt lat="45.15057" lon="5.66478">
        <ele>772</ele>
        <time>2014-06-28T06:59:57.000Z</time>
      </trkpt>
      <trkpt lat="45.15057" lon="5.66478">
        <ele>772</ele>
        <time>2014-06-28T06:59:58.000Z</time>
      </trkpt>
      <trkpt lat="45.15057" lon="5.66477">
        <ele>772</ele>
        <time>2014-06-28T06:59:59.000Z</time>
      </trkpt>
      <trkpt lat="45.15057" lon="5.66477">
        <ele>773</ele>
        <time>2014-06-28T07:00:00.000Z</time>
      </trkpt>
      <trkpt lat="45.15057" lon="5.66477">
        <ele>773</ele>
        <time>2014-06-28T07:00:01.000Z</time>
      </trkpt>
      <trkpt lat="45.15057" lon="5.66477">
        <ele>773</ele>
        <time>2014-06-28T07:00:02.000Z</time>
      </trkpt>
      <trkpt lat="45.15057" lon="5.66477">
        <ele>773</ele>
        <time>2014-06-28T07:00:03.000Z</time>
      </trkpt>
      <trkpt lat="45.15057" lon="5.66477">
        <ele>773</ele>
        <time>2014-06-28T07:00:04.000Z</time>
      </trkpt>
      <trkpt lat="45.15057" lon="5.66477">
        <ele>773</ele>
        <time>2014-06-28T07:00:05.000Z</time>
      </trkpt>
      <trkpt lat="45.15057" lon="5.66477">
        <ele>773</ele>
        <time>2014-06-28T07:00:06.000Z</time>
      </trkpt>
      <trkpt lat="45.15057" lon="5.66477">
        <ele>773</ele>
        <time>2014-06-28T07:00:07.000Z</time>
      </trkpt>
      <trkpt lat="45.15057" lon="5.66477">
        <ele>773</ele>
        <time>2014-06-28T07:00:08.000Z</time>
      </trkpt>
      <trkpt lat="45.15057" lon="5.66477">
        <ele>773</ele>
        <time>2014-06-28T07:00:09.000Z</time>
      </trkpt>
      <trkpt lat="45.15057" lon="5.66477">
        <ele>773</ele>
        <time>2014-06-28T07:00:10.000Z</time>
      </trkpt>
      <trkpt lat="45.15057" lon="5.66477">
        <ele>773</ele>
        <time>2014-06-28T07:00:11.000Z</time>
      </trkpt>
      <trkpt lat="45.15057" lon="5.66477">
        <ele>773</ele>
        <time>2014-06-28T07:00:12.000Z</time>
      </trkpt>
      <trkpt lat="45.15057" lon="5.66477">
        <ele>773</ele>
        <time>2014-06-28T07:00:13.000Z</time>
      </trkpt>
      <trkpt lat="45.15057" lon="5.66477">
        <ele>773</ele>
        <time>2014-06-28T07:00:14.000Z</time>
      </trkpt>
      <trkpt lat="45.15057" lon="5.66477">
        <ele>773</ele>
        <time>2014-06-28T07:00:15.000Z</time>
      </trkpt>
      <trkpt lat="45.15057" lon="5.66477">
        <ele>773</ele>
        <time>2014-06-28T07:00:16.000Z</time>
      </trkpt>
      <trkpt lat="45.15057" lon="5.66477">
        <ele>773</ele>
        <time>2014-06-28T07:00:17.000Z</time>
      </trkpt>
      <trkpt lat="45.15057" lon="5.66477">
        <ele>773</ele>
        <time>2014-06-28T07:00:18.000Z</time>
      </trkpt>
      <trkpt lat="45.15057" lon="5.66478">
        <ele>773</ele>
        <time>2014-06-28T07:00:19.000Z</time>
      </trkpt>
      <trkpt lat="45.15057" lon="5.66478">
        <ele>773</ele>
        <time>2014-06-28T07:00:20.000Z</time>
      </trkpt>
      <trkpt lat="45.15057" lon="5.66478">
        <ele>773</ele>
        <time>2014-06-28T07:00:21.000Z</time>
      </trkpt>
      <trkpt lat="45.15057" lon="5.66478">
        <ele>773</ele>
        <time>2014-06-28T07:00:22.000Z</time>
      </trkpt>
      <trkpt lat="45.15057" lon="5.66477">
        <ele>773</ele>
        <time>2014-06-28T07:00:23.000Z</time>
      </trkpt>
      <trkpt lat="45.15057" lon="5.66477">
        <ele>773</ele>
        <time>2014-06-28T07:00:24.000Z</time>
      </trkpt>
      <trkpt lat="45.15057" lon="5.66477">
        <ele>773</ele>
        <time>2014-06-28T07:00:25.000Z</time>
      </trkpt>
      <trkpt lat="45.15057" lon="5.66477">
        <ele>773</ele>
        <time>2014-06-28T07:00:26.000Z</time>
      </trkpt>
      <trkpt lat="45.15057" lon="5.66477">
        <ele>773</ele>
        <time>2014-06-28T07:00:27.000Z</time>
      </trkpt>
      <trkpt lat="45.15057" lon="5.66477">
        <ele>773</ele>
        <time>2014-06-28T07:00:28.000Z</time>
      </trkpt>
      <trkpt lat="45.15057" lon="5.66477">
        <ele>773</ele>
        <time>2014-06-28T07:00:29.000Z</time>
      </trkpt>
      <trkpt lat="45.15057" lon="5.66477">
        <ele>773</ele>
        <time>2014-06-28T07:00:30.000Z</time>
      </trkpt>
      <trkpt lat="45.15057" lon="5.66477">
        <ele>773</ele>
        <time>2014-06-28T07:00:31.000Z</time>
      </trkpt>
      <trkpt lat="45.15057" lon="5.66477">
        <ele>773</ele>
        <time>2014-06-28T07:00:32.000Z</time>
      </trkpt>
      <trkpt lat="45.15057" lon="5.66478">
        <ele>773</ele>
        <time>2014-06-28T07:00:33.000Z</time>
      </trkpt>
      <trkpt lat="45.15057" lon="5.66478">
        <ele>773</ele>
        <time>2014-06-28T07:00:34.000Z</time>
      </trkpt>
      <trkpt lat="45.15057" lon="5.66478">
        <ele>773</ele>
        <time>2014-06-28T07:00:35.000Z</time>
      </trkpt>
      <trkpt lat="45.15057" lon="5.66478">
        <ele>773</ele>
        <time>2014-06-28T07:00:36.000Z</time>
      </trkpt>
      <trkpt lat="45.15057" lon="5.66478">
        <ele>773</ele>
        <time>2014-06-28T07:00:37.000Z</time>
      </trkpt>
      <trkpt lat="45.15056" lon="5.66478">
        <ele>773</ele>
        <time>2014-06-28T07:00:38.000Z</time>
      </trkpt>
      <trkpt lat="45.15056" lon="5.66478">
        <ele>773</ele>
        <time>2014-06-28T07:00:39.000Z</time>
      </trkpt>
      <trkpt lat="45.15056" lon="5.66478">
        <ele>773</ele>
        <time>2014-06-28T07:00:40.000Z</time>
      </trkpt>
      <trkpt lat="45.15057" lon="5.66479">
        <ele>773</ele>
        <time>2014-06-28T07:00:41.000Z</time>
      </trkpt>
      <trkpt lat="45.15057" lon="5.66479">
        <ele>773</ele>
        <time>2014-06-28T07:00:42.000Z</time>
      </trkpt>
      <trkpt lat="45.15057" lon="5.66479">
        <ele>773</ele>
        <time>2014-06-28T07:00:43.000Z</time>
      </trkpt>
      <trkpt lat="45.15057" lon="5.66479">
        <ele>773</ele>
        <time>2014-06-28T07:00:44.000Z</time>
      </trkpt>
      <trkpt lat="45.15057" lon="5.66479">
        <ele>773</ele>
        <time>2014-06-28T07:00:45.000Z</time>
      </trkpt>
      <trkpt lat="45.15057" lon="5.66479">
        <ele>774</ele>
        <time>2014-06-28T07:00:46.000Z</time>
      </trkpt>
      <trkpt lat="45.15057" lon="5.66479">
        <ele>774</ele>
        <time>2014-06-28T07:00:47.000Z</time>
      </trkpt>
      <trkpt lat="45.15057" lon="5.66479">
        <ele>774</ele>
        <time>2014-06-28T07:00:48.000Z</time>
      </trkpt>
      <trkpt lat="45.15057" lon="5.66479">
        <ele>774</ele>
        <time>2014-06-28T07:00:49.000Z</time>
      </trkpt>
      <trkpt lat="45.15057" lon="5.66479">
        <ele>774</ele>
        <time>2014-06-28T07:00:50.000Z</time>
      </trkpt>
      <trkpt lat="45.15057" lon="5.66479">
        <ele>774</ele>
        <time>2014-06-28T07:00:51.000Z</time>
      </trkpt>
      <trkpt lat="45.15057" lon="5.66479">
        <ele>774</ele>
        <time>2014-06-28T07:00:52.000Z</time>
      </trkpt>
      <trkpt lat="45.15057" lon="5.66479">
        <ele>774</ele>
        <time>2014-06-28T07:00:53.000Z</time>
      </trkpt>
      <trkpt lat="45.15057" lon="5.66479">
        <ele>774</ele>
        <time>2014-06-28T07:00:54.000Z</time>
      </trkpt>
      <trkpt lat="45.15057" lon="5.66479">
        <ele>774</ele>
        <time>2014-06-28T07:00:55.000Z</time>
      </trkpt>
      <trkpt lat="45.15057" lon="5.66479">
        <ele>774</ele>
        <time>2014-06-28T07:00:56.000Z</time>
      </trkpt>
      <trkpt lat="45.15057" lon="5.66479">
        <ele>774</ele>
        <time>2014-06-28T07:00:57.000Z</time>
      </trkpt>
      <trkpt lat="45.15057" lon="5.6648">
        <ele>774</ele>
        <time>2014-06-28T07:00:58.000Z</time>
      </trkpt>
      <trkpt lat="45.15057" lon="5.66479">
        <ele>775</ele>
        <time>2014-06-28T07:00:59.000Z</time>
      </trkpt>
      <trkpt lat="45.15057" lon="5.66479">
        <ele>775</ele>
        <time>2014-06-28T07:01:00.000Z</time>
      </trkpt>
      <trkpt lat="45.15057" lon="5.66479">
        <ele>775</ele>
        <time>2014-06-28T07:01:01.000Z</time>
      </trkpt>
      <trkpt lat="45.15057" lon="5.6648">
        <ele>775</ele>
        <time>2014-06-28T07:01:02.000Z</time>
      </trkpt>
      <trkpt lat="45.15057" lon="5.6648">
        <ele>775</ele>
        <time>2014-06-28T07:01:03.000Z</time>
      </trkpt>
      <trkpt lat="45.15057" lon="5.6648">
        <ele>775</ele>
        <time>2014-06-28T07:01:04.000Z</time>
      </trkpt>
      <trkpt lat="45.15056" lon="5.66479">
        <ele>775</ele>
        <time>2014-06-28T07:01:05.000Z</time>
      </trkpt>
      <trkpt lat="45.15056" lon="5.66479">
        <ele>775</ele>
        <time>2014-06-28T07:01:06.000Z</time>
      </trkpt>
      <trkpt lat="45.15055" lon="5.66479">
        <ele>775</ele>
        <time>2014-06-28T07:01:07.000Z</time>
      </trkpt>
      <trkpt lat="45.15055" lon="5.66479">
        <ele>775</ele>
        <time>2014-06-28T07:01:08.000Z</time>
      </trkpt>
      <trkpt lat="45.15055" lon="5.66479">
        <ele>775</ele>
        <time>2014-06-28T07:01:09.000Z</time>
      </trkpt>
      <trkpt lat="45.15055" lon="5.66479">
        <ele>775</ele>
        <time>2014-06-28T07:01:10.000Z</time>
      </trkpt>
      <trkpt lat="45.15054" lon="5.66478">
        <ele>775</ele>
        <time>2014-06-28T07:01:11.000Z</time>
      </trkpt>
      <trkpt lat="45.15054" lon="5.66478">
        <ele>775</ele>
        <time>2014-06-28T07:01:12.000Z</time>
      </trkpt>
      <trkpt lat="45.15054" lon="5.66478">
        <ele>774</ele>
        <time>2014-06-28T07:01:13.000Z</time>
      </trkpt>
      <trkpt lat="45.15054" lon="5.66478">
        <ele>774</ele>
        <time>2014-06-28T07:01:14.000Z</time>
      </trkpt>
      <trkpt lat="45.15054" lon="5.66479">
        <ele>774</ele>
        <time>2014-06-28T07:01:15.000Z</time>
      </trkpt>
      <trkpt lat="45.15054" lon="5.66479">
        <ele>774</ele>
        <time>2014-06-28T07:01:16.000Z</time>
      </trkpt>
      <trkpt lat="45.15054" lon="5.66479">
        <ele>774</ele>
        <time>2014-06-28T07:01:17.000Z</time>
      </trkpt>
      <trkpt lat="45.15054" lon="5.66479">
        <ele>774</ele>
        <time>2014-06-28T07:01:18.000Z</time>
      </trkpt>
      <trkpt lat="45.15054" lon="5.66479">
        <ele>774</ele>
        <time>2014-06-28T07:01:19.000Z</time>
      </trkpt>
      <trkpt lat="45.15054" lon="5.66479">
        <ele>774</ele>
        <time>2014-06-28T07:01:20.000Z</time>
      </trkpt>
      <trkpt lat="45.15054" lon="5.66479">
        <ele>774</ele>
        <time>2014-06-28T07:01:21.000Z</time>
      </trkpt>
      <trkpt lat="45.15054" lon="5.66479">
        <ele>774</ele>
        <time>2014-06-28T07:01:22.000Z</time>
      </trkpt>
      <trkpt lat="45.15053" lon="5.66478">
        <ele>774</ele>
        <time>2014-06-28T07:01:23.000Z</time>
      </trkpt>
      <trkpt lat="45.15053" lon="5.66478">
        <ele>774</ele>
        <time>2014-06-28T07:01:24.000Z</time>
      </trkpt>
      <trkpt lat="45.15053" lon="5.66477">
        <ele>774</ele>
        <time>2014-06-28T07:01:25.000Z</time>
      </trkpt>
      <trkpt lat="45.15052" lon="5.66477">
        <ele>774</ele>
        <time>2014-06-28T07:01:26.000Z</time>
      </trkpt>
      <trkpt lat="45.15052" lon="5.66476">
        <ele>774</ele>
        <time>2014-06-28T07:01:27.000Z</time>
      </trkpt>
      <trkpt lat="45.15051" lon="5.66476">
        <ele>774</ele>
        <time>2014-06-28T07:01:28.000Z</time>
      </trkpt>
      <trkpt lat="45.15051" lon="5.66476">
        <ele>774</ele>
        <time>2014-06-28T07:01:29.000Z</time>
      </trkpt>
      <trkpt lat="45.15051" lon="5.66476">
        <ele>774</ele>
        <time>2014-06-28T07:01:30.000Z</time>
      </trkpt>
      <trkpt lat="45.15051" lon="5.66476">
        <ele>774</ele>
        <time>2014-06-28T07:01:31.000Z</time>
      </trkpt>
      <trkpt lat="45.15051" lon="5.66476">
        <ele>774</ele>
        <time>2014-06-28T07:01:32.000Z</time>
      </trkpt>
      <trkpt lat="45.15051" lon="5.66476">
        <ele>774</ele>
        <time>2014-06-28T07:01:33.000Z</time>
      </trkpt>
      <trkpt lat="45.15051" lon="5.66476">
        <ele>774</ele>
        <time>2014-06-28T07:01:34.000Z</time>
      </trkpt>
      <trkpt lat="45.15051" lon="5.66475">
        <ele>775</ele>
        <time>2014-06-28T07:01:35.000Z</time>
      </trkpt>
      <trkpt lat="45.15051" lon="5.66475">
        <ele>775</ele>
        <time>2014-06-28T07:01:36.000Z</time>
      </trkpt>
      <trkpt lat="45.15051" lon="5.66475">
        <ele>775</ele>
        <time>2014-06-28T07:01:37.000Z</time>
      </trkpt>
      <trkpt lat="45.15051" lon="5.66475">
        <ele>774</ele>
        <time>2014-06-28T07:01:38.000Z</time>
      </trkpt>
      <trkpt lat="45.15051" lon="5.66475">
        <ele>774</ele>
        <time>2014-06-28T07:01:39.000Z</time>
      </trkpt>
      <trkpt lat="45.15051" lon="5.66474">
        <ele>774</ele>
        <time>2014-06-28T07:01:40.000Z</time>
      </trkpt>
      <trkpt lat="45.15051" lon="5.66473">
        <ele>774</ele>
        <time>2014-06-28T07:01:41.000Z</time>
      </trkpt>
      <trkpt lat="45.15051" lon="5.66472">
        <ele>774</ele>
        <time>2014-06-28T07:01:42.000Z</time>
      </trkpt>
      <trkpt lat="45.15051" lon="5.6647">
        <ele>774</ele>
        <time>2014-06-28T07:01:43.000Z</time>
      </trkpt>
      <trkpt lat="45.1505" lon="5.66468">
        <ele>774</ele>
        <time>2014-06-28T07:01:44.000Z</time>
      </trkpt>
      <trkpt lat="45.15051" lon="5.66466">
        <ele>774</ele>
        <time>2014-06-28T07:01:45.000Z</time>
      </trkpt>
      <trkpt lat="45.15051" lon="5.66465">
        <ele>774</ele>
        <time>2014-06-28T07:01:46.000Z</time>
      </trkpt>
      <trkpt lat="45.15051" lon="5.66463">
        <ele>774</ele>
        <time>2014-06-28T07:01:47.000Z</time>
      </trkpt>
      <trkpt lat="45.15051" lon="5.66461">
        <ele>774</ele>
        <time>2014-06-28T07:01:48.000Z</time>
      </trkpt>
      <trkpt lat="45.15051" lon="5.66459">
        <ele>775</ele>
        <time>2014-06-28T07:01:49.000Z</time>
      </trkpt>
      <trkpt lat="45.15051" lon="5.66457">
        <ele>775</ele>
        <time>2014-06-28T07:01:50.000Z</time>
      </trkpt>
      <trkpt lat="45.15051" lon="5.66455">
        <ele>775</ele>
        <time>2014-06-28T07:01:51.000Z</time>
      </trkpt>
      <trkpt lat="45.15051" lon="5.66454">
        <ele>775</ele>
        <time>2014-06-28T07:01:52.000Z</time>
      </trkpt>
      <trkpt lat="45.15051" lon="5.66452">
        <ele>775</ele>
        <time>2014-06-28T07:01:53.000Z</time>
      </trkpt>
      <trkpt lat="45.15051" lon="5.6645">
        <ele>775</ele>
        <time>2014-06-28T07:01:54.000Z</time>
      </trkpt>
      <trkpt lat="45.1505" lon="5.66448">
        <ele>775</ele>
        <time>2014-06-28T07:01:55.000Z</time>
      </trkpt>
      <trkpt lat="45.1505" lon="5.66446">
        <ele>775</ele>
        <time>2014-06-28T07:01:56.000Z</time>
      </trkpt>
      <trkpt lat="45.15049" lon="5.66444">
        <ele>775</ele>
        <time>2014-06-28T07:01:57.000Z</time>
      </trkpt>
      <trkpt lat="45.15049" lon="5.66443">
        <ele>776</ele>
        <time>2014-06-28T07:01:58.000Z</time>
      </trkpt>
      <trkpt lat="45.15049" lon="5.66441">
        <ele>776</ele>
        <time>2014-06-28T07:01:59.000Z</time>
      </trkpt>
      <trkpt lat="45.1505" lon="5.66439">
        <ele>776</ele>
        <time>2014-06-28T07:02:00.000Z</time>
      </trkpt>
      <trkpt lat="45.1505" lon="5.66438">
        <ele>776</ele>
        <time>2014-06-28T07:02:01.000Z</time>
      </trkpt>
      <trkpt lat="45.1505" lon="5.66436">
        <ele>776</ele>
        <time>2014-06-28T07:02:02.000Z</time>
      </trkpt>
      <trkpt lat="45.1505" lon="5.66435">
        <ele>776</ele>
        <time>2014-06-28T07:02:03.000Z</time>
      </trkpt>
      <trkpt lat="45.15051" lon="5.66433">
        <ele>776</ele>
        <time>2014-06-28T07:02:04.000Z</time>
      </trkpt>
      <trkpt lat="45.15051" lon="5.66431">
        <ele>777</ele>
        <time>2014-06-28T07:02:05.000Z</time>
      </trkpt>
      <trkpt lat="45.15052" lon="5.66429">
        <ele>777</ele>
        <time>2014-06-28T07:02:06.000Z</time>
      </trkpt>
      <trkpt lat="45.15052" lon="5.66427">
        <ele>777</ele>
        <time>2014-06-28T07:02:07.000Z</time>
      </trkpt>
      <trkpt lat="45.15052" lon="5.66425">
        <ele>777</ele>
        <time>2014-06-28T07:02:08.000Z</time>
      </trkpt>
      <trkpt lat="45.15053" lon="5.66423">
        <ele>777</ele>
        <time>2014-06-28T07:02:09.000Z</time>
      </trkpt>
      <trkpt lat="45.15053" lon="5.66421">
        <ele>777</ele>
        <time>2014-06-28T07:02:10.000Z</time>
      </trkpt>
      <trkpt lat="45.15054" lon="5.66418">
        <ele>777</ele>
        <time>2014-06-28T07:02:11.000Z</time>
      </trkpt>
      <trkpt lat="45.15054" lon="5.66416">
        <ele>777</ele>
        <time>2014-06-28T07:02:12.000Z</time>
      </trkpt>
      <trkpt lat="45.15055" lon="5.66414">
        <ele>778</ele>
        <time>2014-06-28T07:02:13.000Z</time>
      </trkpt>
      <trkpt lat="45.15055" lon="5.66411">
        <ele>778</ele>
        <time>2014-06-28T07:02:14.000Z</time>
      </trkpt>
      <trkpt lat="45.15056" lon="5.66409">
        <ele>778</ele>
        <time>2014-06-28T07:02:15.000Z</time>
      </trkpt>
      <trkpt lat="45.15057" lon="5.66406">
        <ele>778</ele>
        <time>2014-06-28T07:02:16.000Z</time>
      </trkpt>
      <trkpt lat="45.15058" lon="5.66404">
        <ele>778</ele>
        <time>2014-06-28T07:02:17.000Z</time>
      </trkpt>
      <trkpt lat="45.15058" lon="5.66402">
        <ele>778</ele>
        <time>2014-06-28T07:02:18.000Z</time>
      </trkpt>
      <trkpt lat="45.15059" lon="5.66399">
        <ele>778</ele>
        <time>2014-06-28T07:02:19.000Z</time>
      </trkpt>
      <trkpt lat="45.1506" lon="5.66397">
        <ele>778</ele>
        <time>2014-06-28T07:02:20.000Z</time>
      </trkpt>
      <trkpt lat="45.1506" lon="5.66394">
        <ele>779</ele>
        <time>2014-06-28T07:02:21.000Z</time>
      </trkpt>
      <trkpt lat="45.1506" lon="5.66391">
        <ele>779</ele>
        <time>2014-06-28T07:02:22.000Z</time>
      </trkpt>
      <trkpt lat="45.15061" lon="5.66388">
        <ele>779</ele>
        <time>2014-06-28T07:02:23.000Z</time>
      </trkpt>
      <trkpt lat="45.15061" lon="5.66385">
        <ele>779</ele>
        <time>2014-06-28T07:02:24.000Z</time>
      </trkpt>
      <trkpt lat="45.15062" lon="5.66382">
        <ele>779</ele>
        <time>2014-06-28T07:02:25.000Z</time>
      </trkpt>
      <trkpt lat="45.15062" lon="5.6638">
        <ele>780</ele>
        <time>2014-06-28T07:02:26.000Z</time>
      </trkpt>
      <trkpt lat="45.15063" lon="5.66377">
        <ele>780</ele>
        <time>2014-06-28T07:02:27.000Z</time>
      </trkpt>
      <trkpt lat="45.15064" lon="5.66374">
        <ele>780</ele>
        <time>2014-06-28T07:02:28.000Z</time>
      </trkpt>
      <trkpt lat="45.15065" lon="5.66371">
        <ele>780</ele>
        <time>2014-06-28T07:02:29.000Z</time>
      </trkpt>
      <trkpt lat="45.15066" lon="5.66369">
        <ele>780</ele>
        <time>2014-06-28T07:02:30.000Z</time>
      </trkpt>
      <trkpt lat="45.15068" lon="5.66366">
        <ele>780</ele>
        <time>2014-06-28T07:02:31.000Z</time>
      </trkpt>
      <trkpt lat="45.15069" lon="5.66364">
        <ele>781</ele>
        <time>2014-06-28T07:02:32.000Z</time>
      </trkpt>
      <trkpt lat="45.1507" lon="5.66362">
        <ele>781</ele>
        <time>2014-06-28T07:02:33.000Z</time>
      </trkpt>
      <trkpt lat="45.15072" lon="5.6636">
        <ele>781</ele>
        <time>2014-06-28T07:02:34.000Z</time>
      </trkpt>
      <trkpt lat="45.15073" lon="5.66358">
        <ele>781</ele>
        <time>2014-06-28T07:02:35.000Z</time>
      </trkpt>
      <trkpt lat="45.15075" lon="5.66355">
        <ele>781</ele>
        <time>2014-06-28T07:02:36.000Z</time>
      </trkpt>
      <trkpt lat="45.15076" lon="5.66353">
        <ele>781</ele>
        <time>2014-06-28T07:02:37.000Z</time>
      </trkpt>
      <trkpt lat="45.15078" lon="5.66352">
        <ele>782</ele>
        <time>2014-06-28T07:02:38.000Z</time>
      </trkpt>
      <trkpt lat="45.1508" lon="5.66351">
        <ele>782</ele>
        <time>2014-06-28T07:02:39.000Z</time>
      </trkpt>
      <trkpt lat="45.15082" lon="5.6635">
        <ele>783</ele>
        <time>2014-06-28T07:02:40.000Z</time>
      </trkpt>
      <trkpt lat="45.15084" lon="5.6635">
        <ele>783</ele>
        <time>2014-06-28T07:02:41.000Z</time>
      </trkpt>
      <trkpt lat="45.15086" lon="5.66349">
        <ele>783</ele>
        <time>2014-06-28T07:02:42.000Z</time>
      </trkpt>
      <trkpt lat="45.15087" lon="5.66349">
        <ele>784</ele>
        <time>2014-06-28T07:02:43.000Z</time>
      </trkpt>
      <trkpt lat="45.15089" lon="5.66349">
        <ele>784</ele>
        <time>2014-06-28T07:02:44.000Z</time>
      </trkpt>
      <trkpt lat="45.15091" lon="5.6635">
        <ele>785</ele>
        <time>2014-06-28T07:02:45.000Z</time>
      </trkpt>
      <trkpt lat="45.15093" lon="5.6635">
        <ele>785</ele>
        <time>2014-06-28T07:02:46.000Z</time>
      </trkpt>
      <trkpt lat="45.15094" lon="5.6635">
        <ele>785</ele>
        <time>2014-06-28T07:02:47.000Z</time>
      </trkpt>
      <trkpt lat="45.15095" lon="5.6635">
        <ele>786</ele>
        <time>2014-06-28T07:02:48.000Z</time>
      </trkpt>
      <trkpt lat="45.15097" lon="5.6635">
        <ele>786</ele>
        <time>2014-06-28T07:02:49.000Z</time>
      </trkpt>
      <trkpt lat="45.15098" lon="5.66351">
        <ele>786</ele>
        <time>2014-06-28T07:02:50.000Z</time>
      </trkpt>
      <trkpt lat="45.151" lon="5.66351">
        <ele>787</ele>
        <time>2014-06-28T07:02:51.000Z</time>
      </trkpt>
      <trkpt lat="45.15101" lon="5.66351">
        <ele>787</ele>
        <time>2014-06-28T07:02:52.000Z</time>
      </trkpt>
      <trkpt lat="45.15103" lon="5.66351">
        <ele>787</ele>
        <time>2014-06-28T07:02:53.000Z</time>
      </trkpt>
      <trkpt lat="45.15105" lon="5.66351">
        <ele>788</ele>
        <time>2014-06-28T07:02:54.000Z</time>
      </trkpt>
      <trkpt lat="45.15106" lon="5.6635">
        <ele>788</ele>
        <time>2014-06-28T07:02:55.000Z</time>
      </trkpt>
      <trkpt lat="45.15108" lon="5.6635">
        <ele>788</ele>
        <time>2014-06-28T07:02:56.000Z</time>
      </trkpt>
      <trkpt lat="45.1511" lon="5.66349">
        <ele>789</ele>
        <time>2014-06-28T07:02:57.000Z</time>
      </trkpt>
      <trkpt lat="45.15111" lon="5.66348">
        <ele>789</ele>
        <time>2014-06-28T07:02:58.000Z</time>
      </trkpt>
      <trkpt lat="45.15113" lon="5.66346">
        <ele>789</ele>
        <time>2014-06-28T07:02:59.000Z</time>
      </trkpt>
      <trkpt lat="45.15114" lon="5.66345">
        <ele>789</ele>
        <time>2014-06-28T07:03:00.000Z</time>
      </trkpt>
      <trkpt lat="45.15115" lon="5.66343">
        <ele>790</ele>
        <time>2014-06-28T07:03:01.000Z</time>
      </trkpt>
      <trkpt lat="45.15116" lon="5.66341">
        <ele>790</ele>
        <time>2014-06-28T07:03:02.000Z</time>
      </trkpt>
      <trkpt lat="45.15116" lon="5.66339">
        <ele>790</ele>
        <time>2014-06-28T07:03:03.000Z</time>
      </trkpt>
      <trkpt lat="45.15116" lon="5.66337">
        <ele>791</ele>
        <time>2014-06-28T07:03:04.000Z</time>
      </trkpt>
      <trkpt lat="45.15116" lon="5.66334">
        <ele>791</ele>
        <time>2014-06-28T07:03:05.000Z</time>
      </trkpt>
      <trkpt lat="45.15116" lon="5.66331">
        <ele>791</ele>
        <time>2014-06-28T07:03:06.000Z</time>
      </trkpt>
      <trkpt lat="45.15117" lon="5.66329">
        <ele>792</ele>
        <time>2014-06-28T07:03:07.000Z</time>
      </trkpt>
      <trkpt lat="45.15117" lon="5.66326">
        <ele>792</ele>
        <time>2014-06-28T07:03:08.000Z</time>
      </trkpt>
      <trkpt lat="45.15117" lon="5.66324">
        <ele>792</ele>
        <time>2014-06-28T07:03:09.000Z</time>
      </trkpt>
      <trkpt lat="45.15117" lon="5.66322">
        <ele>792</ele>
        <time>2014-06-28T07:03:10.000Z</time>
      </trkpt>
      <trkpt lat="45.15118" lon="5.66319">
        <ele>793</ele>
        <time>2014-06-28T07:03:11.000Z</time>
      </trkpt>
      <trkpt lat="45.15118" lon="5.66317">
        <ele>793</ele>
        <time>2014-06-28T07:03:12.000Z</time>
      </trkpt>
      <trkpt lat="45.15118" lon="5.66314">
        <ele>793</ele>
        <time>2014-06-28T07:03:13.000Z</time>
      </trkpt>
      <trkpt lat="45.15118" lon="5.66312">
        <ele>793</ele>
        <time>2014-06-28T07:03:14.000Z</time>
      </trkpt>
      <trkpt lat="45.15118" lon="5.66309">
        <ele>794</ele>
        <time>2014-06-28T07:03:15.000Z</time>
      </trkpt>
      <trkpt lat="45.15118" lon="5.66306">
        <ele>794</ele>
        <time>2014-06-28T07:03:16.000Z</time>
      </trkpt>
      <trkpt lat="45.15118" lon="5.66304">
        <ele>794</ele>
        <time>2014-06-28T07:03:17.000Z</time>
      </trkpt>
      <trkpt lat="45.15118" lon="5.66301">
        <ele>794</ele>
        <time>2014-06-28T07:03:18.000Z</time>
      </trkpt>
      <trkpt lat="45.15118" lon="5.66298">
        <ele>794</ele>
        <time>2014-06-28T07:03:19.000Z</time>
      </trkpt>
      <trkpt lat="45.15117" lon="5.66296">
        <ele>794</ele>
        <time>2014-06-28T07:03:20.000Z</time>
      </trkpt>
      <trkpt lat="45.15117" lon="5.66293">
        <ele>795</ele>
        <time>2014-06-28T07:03:21.000Z</time>
      </trkpt>
      <trkpt lat="45.15116" lon="5.66291">
        <ele>795</ele>
        <time>2014-06-28T07:03:22.000Z</time>
      </trkpt>
      <trkpt lat="45.15115" lon="5.66289">
        <ele>795</ele>
        <time>2014-06-28T07:03:23.000Z</time>
      </trkpt>
      <trkpt lat="45.15114" lon="5.66287">
        <ele>795</ele>
        <time>2014-06-28T07:03:24.000Z</time>
      </trkpt>
      <trkpt lat="45.15113" lon="5.66285">
        <ele>795</ele>
        <time>2014-06-28T07:03:25.000Z</time>
      </trkpt>
      <trkpt lat="45.15112" lon="5.66284">
        <ele>795</ele>
        <time>2014-06-28T07:03:26.000Z</time>
      </trkpt>
      <trkpt lat="45.15111" lon="5.66282">
        <ele>795</ele>
        <time>2014-06-28T07:03:27.000Z</time>
      </trkpt>
      <trkpt lat="45.1511" lon="5.6628">
        <ele>795</ele>
        <time>2014-06-28T07:03:28.000Z</time>
      </trkpt>
      <trkpt lat="45.15109" lon="5.66278">
        <ele>795</ele>
        <time>2014-06-28T07:03:29.000Z</time>
      </trkpt>
      <trkpt lat="45.15108" lon="5.66277">
        <ele>796</ele>
        <time>2014-06-28T07:03:30.000Z</time>
      </trkpt>
      <trkpt lat="45.15107" lon="5.66275">
        <ele>796</ele>
        <time>2014-06-28T07:03:31.000Z</time>
      </trkpt>
      <trkpt lat="45.15107" lon="5.66273">
        <ele>796</ele>
        <time>2014-06-28T07:03:32.000Z</time>
      </trkpt>
      <trkpt lat="45.15106" lon="5.6627">
        <ele>796</ele>
        <time>2014-06-28T07:03:33.000Z</time>
      </trkpt>
      <trkpt lat="45.15105" lon="5.66267">
        <ele>797</ele>
        <time>2014-06-28T07:03:34.000Z</time>
      </trkpt>
      <trkpt lat="45.15106" lon="5.66264">
        <ele>797</ele>
        <time>2014-06-28T07:03:35.000Z</time>
      </trkpt>
      <trkpt lat="45.15106" lon="5.66261">
        <ele>797</ele>
        <time>2014-06-28T07:03:36.000Z</time>
      </trkpt>
      <trkpt lat="45.15106" lon="5.66259">
        <ele>797</ele>
        <time>2014-06-28T07:03:37.000Z</time>
      </trkpt>
      <trkpt lat="45.15107" lon="5.66256">
        <ele>797</ele>
        <time>2014-06-28T07:03:38.000Z</time>
      </trkpt>
      <trkpt lat="45.15107" lon="5.66253">
        <ele>797</ele>
        <time>2014-06-28T07:03:39.000Z</time>
      </trkpt>
      <trkpt lat="45.15108" lon="5.66251">
        <ele>798</ele>
        <time>2014-06-28T07:03:40.000Z</time>
      </trkpt>
      <trkpt lat="45.15109" lon="5.66249">
        <ele>798</ele>
        <time>2014-06-28T07:03:41.000Z</time>
      </trkpt>
      <trkpt lat="45.1511" lon="5.66247">
        <ele>798</ele>
        <time>2014-06-28T07:03:42.000Z</time>
      </trkpt>
      <trkpt lat="45.15112" lon="5.66245">
        <ele>798</ele>
        <time>2014-06-28T07:03:43.000Z</time>
      </trkpt>
      <trkpt lat="45.15113" lon="5.66243">
        <ele>798</ele>
        <time>2014-06-28T07:03:44.000Z</time>
      </trkpt>
      <trkpt lat="45.15115" lon="5.66243">
        <ele>798</ele>
        <time>2014-06-28T07:03:45.000Z</time>
      </trkpt>
      <trkpt lat="45.15116" lon="5.66242">
        <ele>798</ele>
        <time>2014-06-28T07:03:46.000Z</time>
      </trkpt>
      <trkpt lat="45.15117" lon="5.66241">
        <ele>798</ele>
        <time>2014-06-28T07:03:47.000Z</time>
      </trkpt>
      <trkpt lat="45.15118" lon="5.66241">
        <ele>798</ele>
        <time>2014-06-28T07:03:48.000Z</time>
      </trkpt>
      <trkpt lat="45.15119" lon="5.6624">
        <ele>798</ele>
        <time>2014-06-28T07:03:49.000Z</time>
      </trkpt>
      <trkpt lat="45.1512" lon="5.66239">
        <ele>799</ele>
        <time>2014-06-28T07:03:50.000Z</time>
      </trkpt>
      <trkpt lat="45.15121" lon="5.66238">
        <ele>799</ele>
        <time>2014-06-28T07:03:51.000Z</time>
      </trkpt>
      <trkpt lat="45.15123" lon="5.66237">
        <ele>799</ele>
        <time>2014-06-28T07:03:52.000Z</time>
      </trkpt>
      <trkpt lat="45.15125" lon="5.66236">
        <ele>799</ele>
        <time>2014-06-28T07:03:53.000Z</time>
      </trkpt>
      <trkpt lat="45.15126" lon="5.66235">
        <ele>800</ele>
        <time>2014-06-28T07:03:54.000Z</time>
      </trkpt>
      <trkpt lat="45.15128" lon="5.66234">
        <ele>800</ele>
        <time>2014-06-28T07:03:55.000Z</time>
      </trkpt>
      <trkpt lat="45.1513" lon="5.66233">
        <ele>800</ele>
        <time>2014-06-28T07:03:56.000Z</time>
      </trkpt>
      <trkpt lat="45.15131" lon="5.66232">
        <ele>800</ele>
        <time>2014-06-28T07:03:57.000Z</time>
      </trkpt>
      <trkpt lat="45.15132" lon="5.66231">
        <ele>801</ele>
        <time>2014-06-28T07:03:58.000Z</time>
      </trkpt>
      <trkpt lat="45.15133" lon="5.66229">
        <ele>801</ele>
        <time>2014-06-28T07:03:59.000Z</time>
      </trkpt>
      <trkpt lat="45.15133" lon="5.66228">
        <ele>801</ele>
        <time>2014-06-28T07:04:00.000Z</time>
      </trkpt>
      <trkpt lat="45.15133" lon="5.66227">
        <ele>801</ele>
        <time>2014-06-28T07:04:01.000Z</time>
      </trkpt>
      <trkpt lat="45.15132" lon="5.66226">
        <ele>802</ele>
        <time>2014-06-28T07:04:02.000Z</time>
      </trkpt>
      <trkpt lat="45.1513" lon="5.66226">
        <ele>802</ele>
        <time>2014-06-28T07:04:03.000Z</time>
      </trkpt>
      <trkpt lat="45.15129" lon="5.66225">
        <ele>802</ele>
        <time>2014-06-28T07:04:04.000Z</time>
      </trkpt>
      <trkpt lat="45.15128" lon="5.66224">
        <ele>802</ele>
        <time>2014-06-28T07:04:05.000Z</time>
      </trkpt>
      <trkpt lat="45.15126" lon="5.66224">
        <ele>802</ele>
        <time>2014-06-28T07:04:06.000Z</time>
      </trkpt>
      <trkpt lat="45.15125" lon="5.66223">
        <ele>803</ele>
        <time>2014-06-28T07:04:07.000Z</time>
      </trkpt>
      <trkpt lat="45.15123" lon="5.66222">
        <ele>803</ele>
        <time>2014-06-28T07:04:08.000Z</time>
      </trkpt>
      <trkpt lat="45.15121" lon="5.66221">
        <ele>803</ele>
        <time>2014-06-28T07:04:09.000Z</time>
      </trkpt>
      <trkpt lat="45.1512" lon="5.6622">
        <ele>803</ele>
        <time>2014-06-28T07:04:10.000Z</time>
      </trkpt>
      <trkpt lat="45.15118" lon="5.6622">
        <ele>803</ele>
        <time>2014-06-28T07:04:11.000Z</time>
      </trkpt>
      <trkpt lat="45.15116" lon="5.66219">
        <ele>804</ele>
        <time>2014-06-28T07:04:12.000Z</time>
      </trkpt>
      <trkpt lat="45.15114" lon="5.66218">
        <ele>804</ele>
        <time>2014-06-28T07:04:13.000Z</time>
      </trkpt>
      <trkpt lat="45.15112" lon="5.66217">
        <ele>804</ele>
        <time>2014-06-28T07:04:14.000Z</time>
      </trkpt>
      <trkpt lat="45.1511" lon="5.66216">
        <ele>804</ele>
        <time>2014-06-28T07:04:15.000Z</time>
      </trkpt>
      <trkpt lat="45.15109" lon="5.66215">
        <ele>804</ele>
        <time>2014-06-28T07:04:16.000Z</time>
      </trkpt>
      <trkpt lat="45.15107" lon="5.66215">
        <ele>805</ele>
        <time>2014-06-28T07:04:17.000Z</time>
      </trkpt>
      <trkpt lat="45.15105" lon="5.66214">
        <ele>805</ele>
        <time>2014-06-28T07:04:18.000Z</time>
      </trkpt>
      <trkpt lat="45.15104" lon="5.66213">
        <ele>805</ele>
        <time>2014-06-28T07:04:19.000Z</time>
      </trkpt>
      <trkpt lat="45.15102" lon="5.66212">
        <ele>806</ele>
        <time>2014-06-28T07:04:20.000Z</time>
      </trkpt>
      <trkpt lat="45.15101" lon="5.66211">
        <ele>806</ele>
        <time>2014-06-28T07:04:21.000Z</time>
      </trkpt>
      <trkpt lat="45.151" lon="5.6621">
        <ele>806</ele>
        <time>2014-06-28T07:04:22.000Z</time>
      </trkpt>
      <trkpt lat="45.15099" lon="5.66208">
        <ele>807</ele>
        <time>2014-06-28T07:04:23.000Z</time>
      </trkpt>
      <trkpt lat="45.15098" lon="5.66207">
        <ele>807</ele>
        <time>2014-06-28T07:04:24.000Z</time>
      </trkpt>
      <trkpt lat="45.15097" lon="5.66205">
        <ele>807</ele>
        <time>2014-06-28T07:04:25.000Z</time>
      </trkpt>
      <trkpt lat="45.15096" lon="5.66204">
        <ele>807</ele>
        <time>2014-06-28T07:04:26.000Z</time>
      </trkpt>
      <trkpt lat="45.15095" lon="5.66203">
        <ele>808</ele>
        <time>2014-06-28T07:04:27.000Z</time>
      </trkpt>
      <trkpt lat="45.15093" lon="5.66201">
        <ele>808</ele>
        <time>2014-06-28T07:04:28.000Z</time>
      </trkpt>
      <trkpt lat="45.15092" lon="5.662">
        <ele>808</ele>
        <time>2014-06-28T07:04:29.000Z</time>
      </trkpt>
      <trkpt lat="45.1509" lon="5.66199">
        <ele>808</ele>
        <time>2014-06-28T07:04:30.000Z</time>
      </trkpt>
      <trkpt lat="45.15089" lon="5.66198">
        <ele>809</ele>
        <time>2014-06-28T07:04:31.000Z</time>
      </trkpt>
      <trkpt lat="45.15088" lon="5.66198">
        <ele>809</ele>
        <time>2014-06-28T07:04:32.000Z</time>
      </trkpt>
      <trkpt lat="45.15087" lon="5.66197">
        <ele>809</ele>
        <time>2014-06-28T07:04:33.000Z</time>
      </trkpt>
      <trkpt lat="45.15086" lon="5.66197">
        <ele>809</ele>
        <time>2014-06-28T07:04:34.000Z</time>
      </trkpt>
      <trkpt lat="45.15085" lon="5.66196">
        <ele>810</ele>
        <time>2014-06-28T07:04:35.000Z</time>
      </trkpt>
      <trkpt lat="45.15084" lon="5.66196">
        <ele>810</ele>
        <time>2014-06-28T07:04:36.000Z</time>
      </trkpt>
      <trkpt lat="45.15082" lon="5.66197">
        <ele>810</ele>
        <time>2014-06-28T07:04:37.000Z</time>
      </trkpt>
      <trkpt lat="45.15081" lon="5.66197">
        <ele>811</ele>
        <time>2014-06-28T07:04:38.000Z</time>
      </trkpt>
      <trkpt lat="45.1508" lon="5.66199">
        <ele>811</ele>
        <time>2014-06-28T07:04:39.000Z</time>
      </trkpt>
      <trkpt lat="45.15079" lon="5.66201">
        <ele>812</ele>
        <time>2014-06-28T07:04:40.000Z</time>
      </trkpt>
      <trkpt lat="45.15077" lon="5.66202">
        <ele>812</ele>
        <time>2014-06-28T07:04:41.000Z</time>
      </trkpt>
      <trkpt lat="45.15076" lon="5.66203">
        <ele>813</ele>
        <time>2014-06-28T07:04:42.000Z</time>
      </trkpt>
      <trkpt lat="45.15074" lon="5.66203">
        <ele>813</ele>
        <time>2014-06-28T07:04:43.000Z</time>
      </trkpt>
      <trkpt lat="45.15073" lon="5.66203">
        <ele>813</ele>
        <time>2014-06-28T07:04:44.000Z</time>
      </trkpt>
      <trkpt lat="45.15072" lon="5.66202">
        <ele>813</ele>
        <time>2014-06-28T07:04:45.000Z</time>
      </trkpt>
      <trkpt lat="45.1507" lon="5.66202">
        <ele>814</ele>
        <time>2014-06-28T07:04:46.000Z</time>
      </trkpt>
      <trkpt lat="45.15068" lon="5.66202">
        <ele>814</ele>
        <time>2014-06-28T07:04:47.000Z</time>
      </trkpt>
      <trkpt lat="45.15067" lon="5.66202">
        <ele>814</ele>
        <time>2014-06-28T07:04:48.000Z</time>
      </trkpt>
      <trkpt lat="45.15065" lon="5.66203">
        <ele>814</ele>
        <time>2014-06-28T07:04:49.000Z</time>
      </trkpt>
      <trkpt lat="45.15064" lon="5.66204">
        <ele>815</ele>
        <time>2014-06-28T07:04:50.000Z</time>
      </trkpt>
      <trkpt lat="45.15062" lon="5.66204">
        <ele>815</ele>
        <time>2014-06-28T07:04:51.000Z</time>
      </trkpt>
      <trkpt lat="45.1506" lon="5.66203">
        <ele>815</ele>
        <time>2014-06-28T07:04:52.000Z</time>
      </trkpt>
      <trkpt lat="45.15058" lon="5.66202">
        <ele>815</ele>
        <time>2014-06-28T07:04:53.000Z</time>
      </trkpt>
      <trkpt lat="45.15057" lon="5.66202">
        <ele>815</ele>
        <time>2014-06-28T07:04:54.000Z</time>
      </trkpt>
      <trkpt lat="45.15055" lon="5.662">
        <ele>815</ele>
        <time>2014-06-28T07:04:55.000Z</time>
      </trkpt>
      <trkpt lat="45.15055" lon="5.662">
        <ele>816</ele>
        <time>2014-06-28T07:04:56.000Z</time>
      </trkpt>
      <trkpt lat="45.15054" lon="5.66199">
        <ele>816</ele>
        <time>2014-06-28T07:04:57.000Z</time>
      </trkpt>
      <trkpt lat="45.15054" lon="5.66199">
        <ele>816</ele>
        <time>2014-06-28T07:04:58.000Z</time>
      </trkpt>
      <trkpt lat="45.15053" lon="5.66198">
        <ele>816</ele>
        <time>2014-06-28T07:04:59.000Z</time>
      </trkpt>
      <trkpt lat="45.15053" lon="5.66197">
        <ele>816</ele>
        <time>2014-06-28T07:05:00.000Z</time>
      </trkpt>
      <trkpt lat="45.15052" lon="5.66195">
        <ele>816</ele>
        <time>2014-06-28T07:05:01.000Z</time>
      </trkpt>
      <trkpt lat="45.15052" lon="5.66194">
        <ele>816</ele>
        <time>2014-06-28T07:05:02.000Z</time>
      </trkpt>
      <trkpt lat="45.15051" lon="5.66194">
        <ele>816</ele>
        <time>2014-06-28T07:05:03.000Z</time>
      </trkpt>
      <trkpt lat="45.15051" lon="5.66194">
        <ele>816</ele>
        <time>2014-06-28T07:05:04.000Z</time>
      </trkpt>
      <trkpt lat="45.15051" lon="5.66194">
        <ele>816</ele>
        <time>2014-06-28T07:05:05.000Z</time>
      </trkpt>
      <trkpt lat="45.15051" lon="5.66194">
        <ele>816</ele>
        <time>2014-06-28T07:05:06.000Z</time>
      </trkpt>
      <trkpt lat="45.15051" lon="5.66194">
        <ele>817</ele>
        <time>2014-06-28T07:05:07.000Z</time>
      </trkpt>
      <trkpt lat="45.15051" lon="5.66194">
        <ele>817</ele>
        <time>2014-06-28T07:05:08.000Z</time>
      </trkpt>
      <trkpt lat="45.15051" lon="5.66194">
        <ele>817</ele>
        <time>2014-06-28T07:05:09.000Z</time>
      </trkpt>
      <trkpt lat="45.15051" lon="5.66194">
        <ele>817</ele>
        <time>2014-06-28T07:05:10.000Z</time>
      </trkpt>
      <trkpt lat="45.15051" lon="5.66194">
        <ele>817</ele>
        <time>2014-06-28T07:05:11.000Z</time>
      </trkpt>
      <trkpt lat="45.15051" lon="5.66194">
        <ele>817</ele>
        <time>2014-06-28T07:05:12.000Z</time>
      </trkpt>
      <trkpt lat="45.15051" lon="5.66193">
        <ele>817</ele>
        <time>2014-06-28T07:05:13.000Z</time>
      </trkpt>
      <trkpt lat="45.15051" lon="5.66193">
        <ele>818</ele>
        <time>2014-06-28T07:05:14.000Z</time>
      </trkpt>
      <trkpt lat="45.15051" lon="5.66193">
        <ele>818</ele>
        <time>2014-06-28T07:05:15.000Z</time>
      </trkpt>
      <trkpt lat="45.1505" lon="5.66193">
        <ele>818</ele>
        <time>2014-06-28T07:05:16.000Z</time>
      </trkpt>
      <trkpt lat="45.1505" lon="5.66193">
        <ele>818</ele>
        <time>2014-06-28T07:05:17.000Z</time>
      </trkpt>
      <trkpt lat="45.15049" lon="5.66194">
        <ele>818</ele>
        <time>2014-06-28T07:05:18.000Z</time>
      </trkpt>
      <trkpt lat="45.15049" lon="5.66194">
        <ele>818</ele>
        <time>2014-06-28T07:05:19.000Z</time>
      </trkpt>
      <trkpt lat="45.15048" lon="5.66194">
        <ele>819</ele>
        <time>2014-06-28T07:05:20.000Z</time>
      </trkpt>
      <trkpt lat="45.15048" lon="5.66193">
        <ele>819</ele>
        <time>2014-06-28T07:05:21.000Z</time>
      </trkpt>
      <trkpt lat="45.15047" lon="5.66192">
        <ele>819</ele>
        <time>2014-06-28T07:05:22.000Z</time>
      </trkpt>
      <trkpt lat="45.15046" lon="5.66191">
        <ele>819</ele>
        <time>2014-06-28T07:05:23.000Z</time>
      </trkpt>
      <trkpt lat="45.15045" lon="5.66191">
        <ele>819</ele>
        <time>2014-06-28T07:05:24.000Z</time>
      </trkpt>
      <trkpt lat="45.15044" lon="5.6619">
        <ele>819</ele>
        <time>2014-06-28T07:05:25.000Z</time>
      </trkpt>
      <trkpt lat="45.15044" lon="5.66189">
        <ele>820</ele>
        <time>2014-06-28T07:05:26.000Z</time>
      </trkpt>
      <trkpt lat="45.15043" lon="5.66188">
        <ele>820</ele>
        <time>2014-06-28T07:05:27.000Z</time>
      </trkpt>
      <trkpt lat="45.15042" lon="5.66188">
        <ele>820</ele>
        <time>2014-06-28T07:05:28.000Z</time>
      </trkpt>
      <trkpt lat="45.15041" lon="5.66186">
        <ele>820</ele>
        <time>2014-06-28T07:05:29.000Z</time>
      </trkpt>
      <trkpt lat="45.1504" lon="5.66185">
        <ele>820</ele>
        <time>2014-06-28T07:05:30.000Z</time>
      </trkpt>
      <trkpt lat="45.15039" lon="5.66184">
        <ele>820</ele>
        <time>2014-06-28T07:05:31.000Z</time>
      </trkpt>
      <trkpt lat="45.15037" lon="5.66183">
        <ele>820</ele>
        <time>2014-06-28T07:05:32.000Z</time>
      </trkpt>
      <trkpt lat="45.15036" lon="5.66182">
        <ele>821</ele>
        <time>2014-06-28T07:05:33.000Z</time>
      </trkpt>
      <trkpt lat="45.15034" lon="5.66181">
        <ele>821</ele>
        <time>2014-06-28T07:05:34.000Z</time>
      </trkpt>
      <trkpt lat="45.15032" lon="5.6618">
        <ele>821</ele>
        <time>2014-06-28T07:05:35.000Z</time>
      </trkpt>
      <trkpt lat="45.15031" lon="5.6618">
        <ele>821</ele>
        <time>2014-06-28T07:05:36.000Z</time>
      </trkpt>
      <trkpt lat="45.15029" lon="5.66179">
        <ele>821</ele>
        <time>2014-06-28T07:05:37.000Z</time>
      </trkpt>
      <trkpt lat="45.15027" lon="5.66179">
        <ele>821</ele>
        <time>2014-06-28T07:05:38.000Z</time>
      </trkpt>
      <trkpt lat="45.15026" lon="5.66178">
        <ele>821</ele>
        <time>2014-06-28T07:05:39.000Z</time>
      </trkpt>
      <trkpt lat="45.15025" lon="5.66178">
        <ele>821</ele>
        <time>2014-06-28T07:05:40.000Z</time>
      </trkpt>
      <trkpt lat="45.15024" lon="5.66178">
        <ele>822</ele>
        <time>2014-06-28T07:05:41.000Z</time>
      </trkpt>
      <trkpt lat="45.15022" lon="5.66179">
        <ele>822</ele>
        <time>2014-06-28T07:05:42.000Z</time>
      </trkpt>
      <trkpt lat="45.15021" lon="5.66179">
        <ele>822</ele>
        <time>2014-06-28T07:05:43.000Z</time>
      </trkpt>
      <trkpt lat="45.1502" lon="5.66179">
        <ele>822</ele>
        <time>2014-06-28T07:05:44.000Z</time>
      </trkpt>
      <trkpt lat="45.15018" lon="5.6618">
        <ele>822</ele>
        <time>2014-06-28T07:05:45.000Z</time>
      </trkpt>
      <trkpt lat="45.15017" lon="5.6618">
        <ele>822</ele>
        <time>2014-06-28T07:05:46.000Z</time>
      </trkpt>
      <trkpt lat="45.15016" lon="5.66181">
        <ele>822</ele>
        <time>2014-06-28T07:05:47.000Z</time>
      </trkpt>
      <trkpt lat="45.15015" lon="5.66182">
        <ele>822</ele>
        <time>2014-06-28T07:05:48.000Z</time>
      </trkpt>
      <trkpt lat="45.15014" lon="5.66182">
        <ele>822</ele>
        <time>2014-06-28T07:05:49.000Z</time>
      </trkpt>
      <trkpt lat="45.15012" lon="5.66183">
        <ele>823</ele>
        <time>2014-06-28T07:05:50.000Z</time>
      </trkpt>
      <trkpt lat="45.15011" lon="5.66184">
        <ele>823</ele>
        <time>2014-06-28T07:05:51.000Z</time>
      </trkpt>
      <trkpt lat="45.1501" lon="5.66185">
        <ele>823</ele>
        <time>2014-06-28T07:05:52.000Z</time>
      </trkpt>
      <trkpt lat="45.15009" lon="5.66186">
        <ele>823</ele>
        <time>2014-06-28T07:05:53.000Z</time>
      </trkpt>
      <trkpt lat="45.15008" lon="5.66187">
        <ele>824</ele>
        <time>2014-06-28T07:05:54.000Z</time>
      </trkpt>
      <trkpt lat="45.15007" lon="5.66188">
        <ele>824</ele>
        <time>2014-06-28T07:05:55.000Z</time>
      </trkpt>
      <trkpt lat="45.15005" lon="5.66188">
        <ele>824</ele>
        <time>2014-06-28T07:05:56.000Z</time>
      </trkpt>
      <trkpt lat="45.15004" lon="5.66189">
        <ele>825</ele>
        <time>2014-06-28T07:05:57.000Z</time>
      </trkpt>
      <trkpt lat="45.15003" lon="5.66189">
        <ele>825</ele>
        <time>2014-06-28T07:05:58.000Z</time>
      </trkpt>
      <trkpt lat="45.15001" lon="5.66189">
        <ele>825</ele>
        <time>2014-06-28T07:05:59.000Z</time>
      </trkpt>
      <trkpt lat="45.15" lon="5.66189">
        <ele>825</ele>
        <time>2014-06-28T07:06:00.000Z</time>
      </trkpt>
      <trkpt lat="45.15" lon="5.66189">
        <ele>825</ele>
        <time>2014-06-28T07:06:01.000Z</time>
      </trkpt>
      <trkpt lat="45.14999" lon="5.66189">
        <ele>825</ele>
        <time>2014-06-28T07:06:02.000Z</time>
      </trkpt>
      <trkpt lat="45.14999" lon="5.66189">
        <ele>826</ele>
        <time>2014-06-28T07:06:03.000Z</time>
      </trkpt>
      <trkpt lat="45.14999" lon="5.66189">
        <ele>826</ele>
        <time>2014-06-28T07:06:04.000Z</time>
      </trkpt>
      <trkpt lat="45.14999" lon="5.66189">
        <ele>826</ele>
        <time>2014-06-28T07:06:05.000Z</time>
      </trkpt>
      <trkpt lat="45.14998" lon="5.66189">
        <ele>826</ele>
        <time>2014-06-28T07:06:06.000Z</time>
      </trkpt>
      <trkpt lat="45.14997" lon="5.66189">
        <ele>827</ele>
        <time>2014-06-28T07:06:07.000Z</time>
      </trkpt>
      <trkpt lat="45.14997" lon="5.66189">
        <ele>827</ele>
        <time>2014-06-28T07:06:08.000Z</time>
      </trkpt>
      <trkpt lat="45.14997" lon="5.66189">
        <ele>827</ele>
        <time>2014-06-28T07:06:09.000Z</time>
      </trkpt>
      <trkpt lat="45.14997" lon="5.66189">
        <ele>827</ele>
        <time>2014-06-28T07:06:10.000Z</time>
      </trkpt>
      <trkpt lat="45.14996" lon="5.66189">
        <ele>827</ele>
        <time>2014-06-28T07:06:11.000Z</time>
      </trkpt>
      <trkpt lat="45.14996" lon="5.66189">
        <ele>827</ele>
        <time>2014-06-28T07:06:12.000Z</time>
      </trkpt>
      <trkpt lat="45.14996" lon="5.66189">
        <ele>827</ele>
        <time>2014-06-28T07:06:13.000Z</time>
      </trkpt>
      <trkpt lat="45.14996" lon="5.66189">
        <ele>828</ele>
        <time>2014-06-28T07:06:14.000Z</time>
      </trkpt>
      <trkpt lat="45.14996" lon="5.66189">
        <ele>828</ele>
        <time>2014-06-28T07:06:15.000Z</time>
      </trkpt>
      <trkpt lat="45.14996" lon="5.66189">
        <ele>828</ele>
        <time>2014-06-28T07:06:16.000Z</time>
      </trkpt>
      <trkpt lat="45.14995" lon="5.66189">
        <ele>828</ele>
        <time>2014-06-28T07:06:17.000Z</time>
      </trkpt>
      <trkpt lat="45.14995" lon="5.66189">
        <ele>828</ele>
        <time>2014-06-28T07:06:18.000Z</time>
      </trkpt>
      <trkpt lat="45.14994" lon="5.66189">
        <ele>828</ele>
        <time>2014-06-28T07:06:19.000Z</time>
      </trkpt>
      <trkpt lat="45.14994" lon="5.66189">
        <ele>828</ele>
        <time>2014-06-28T07:06:20.000Z</time>
      </trkpt>
      <trkpt lat="45.14993" lon="5.66188">
        <ele>828</ele>
        <time>2014-06-28T07:06:21.000Z</time>
      </trkpt>
      <trkpt lat="45.14993" lon="5.66188">
        <ele>829</ele>
        <time>2014-06-28T07:06:22.000Z</time>
      </trkpt>
      <trkpt lat="45.14993" lon="5.66187">
        <ele>829</ele>
        <time>2014-06-28T07:06:23.000Z</time>
      </trkpt>
      <trkpt lat="45.14993" lon="5.66187">
        <ele>829</ele>
        <time>2014-06-28T07:06:24.000Z</time>
      </trkpt>
      <trkpt lat="45.14993" lon="5.66187">
        <ele>829</ele>
        <time>2014-06-28T07:06:25.000Z</time>
      </trkpt>
      <trkpt lat="45.14993" lon="5.66187">
        <ele>829</ele>
        <time>2014-06-28T07:06:26.000Z</time>
      </trkpt>
      <trkpt lat="45.14993" lon="5.66187">
        <ele>829</ele>
        <time>2014-06-28T07:06:27.000Z</time>
      </trkpt>
      <trkpt lat="45.14993" lon="5.66186">
        <ele>830</ele>
        <time>2014-06-28T07:06:28.000Z</time>
      </trkpt>
      <trkpt lat="45.14993" lon="5.66186">
        <ele>830</ele>
        <time>2014-06-28T07:06:29.000Z</time>
      </trkpt>
      <trkpt lat="45.14993" lon="5.66187">
        <ele>830</ele>
        <time>2014-06-28T07:06:30.000Z</time>
      </trkpt>
      <trkpt lat="45.14993" lon="5.66187">
        <ele>831</ele>
        <time>2014-06-28T07:06:31.000Z</time>
      </trkpt>
      <trkpt lat="45.14993" lon="5.66187">
        <ele>831</ele>
        <time>2014-06-28T07:06:32.000Z</time>
      </trkpt>
      <trkpt lat="45.14993" lon="5.66187">
        <ele>831</ele>
        <time>2014-06-28T07:06:33.000Z</time>
      </trkpt>
      <trkpt lat="45.14993" lon="5.66187">
        <ele>832</ele>
        <time>2014-06-28T07:06:34.000Z</time>
      </trkpt>
      <trkpt lat="45.14992" lon="5.66186">
        <ele>832</ele>
        <time>2014-06-28T07:06:35.000Z</time>
      </trkpt>
      <trkpt lat="45.14992" lon="5.66186">
        <ele>832</ele>
        <time>2014-06-28T07:06:36.000Z</time>
      </trkpt>
      <trkpt lat="45.14992" lon="5.66186">
        <ele>832</ele>
        <time>2014-06-28T07:06:37.000Z</time>
      </trkpt>
      <trkpt lat="45.14992" lon="5.66186">
        <ele>832</ele>
        <time>2014-06-28T07:06:38.000Z</time>
      </trkpt>
      <trkpt lat="45.14992" lon="5.66186">
        <ele>832</ele>
        <time>2014-06-28T07:06:39.000Z</time>
      </trkpt>
      <trkpt lat="45.14992" lon="5.66186">
        <ele>832</ele>
        <time>2014-06-28T07:06:40.000Z</time>
      </trkpt>
      <trkpt lat="45.14992" lon="5.66186">
        <ele>832</ele>
        <time>2014-06-28T07:06:41.000Z</time>
      </trkpt>
      <trkpt lat="45.14992" lon="5.66186">
        <ele>832</ele>
        <time>2014-06-28T07:06:42.000Z</time>
      </trkpt>
      <trkpt lat="45.14992" lon="5.66186">
        <ele>832</ele>
        <time>2014-06-28T07:06:43.000Z</time>
      </trkpt>
      <trkpt lat="45.14991" lon="5.66186">
        <ele>833</ele>
        <time>2014-06-28T07:06:44.000Z</time>
      </trkpt>
      <trkpt lat="45.14991" lon="5.66185">
        <ele>833</ele>
        <time>2014-06-28T07:06:45.000Z</time>
      </trkpt>
      <trkpt lat="45.14991" lon="5.66185">
        <ele>833</ele>
        <time>2014-06-28T07:06:46.000Z</time>
      </trkpt>
      <trkpt lat="45.14991" lon="5.66186">
        <ele>833</ele>
        <time>2014-06-28T07:06:47.000Z</time>
      </trkpt>
      <trkpt lat="45.14991" lon="5.66186">
        <ele>833</ele>
        <time>2014-06-28T07:06:48.000Z</time>
      </trkpt>
      <trkpt lat="45.14991" lon="5.66186">
        <ele>833</ele>
        <time>2014-06-28T07:06:49.000Z</time>
      </trkpt>
      <trkpt lat="45.14991" lon="5.66186">
        <ele>833</ele>
        <time>2014-06-28T07:06:50.000Z</time>
      </trkpt>
      <trkpt lat="45.14992" lon="5.66186">
        <ele>833</ele>
        <time>2014-06-28T07:06:51.000Z</time>
      </trkpt>
      <trkpt lat="45.14992" lon="5.66186">
        <ele>832</ele>
        <time>2014-06-28T07:06:52.000Z</time>
      </trkpt>
      <trkpt lat="45.14992" lon="5.66186">
        <ele>832</ele>
        <time>2014-06-28T07:06:53.000Z</time>
      </trkpt>
      <trkpt lat="45.14992" lon="5.66185">
        <ele>832</ele>
        <time>2014-06-28T07:06:54.000Z</time>
      </trkpt>
      <trkpt lat="45.14992" lon="5.66185">
        <ele>832</ele>
        <time>2014-06-28T07:06:55.000Z</time>
      </trkpt>
      <trkpt lat="45.14992" lon="5.66185">
        <ele>832</ele>
        <time>2014-06-28T07:06:56.000Z</time>
      </trkpt>
      <trkpt lat="45.14992" lon="5.66185">
        <ele>832</ele>
        <time>2014-06-28T07:06:57.000Z</time>
      </trkpt>
      <trkpt lat="45.14992" lon="5.66185">
        <ele>832</ele>
        <time>2014-06-28T07:06:58.000Z</time>
      </trkpt>
      <trkpt lat="45.14992" lon="5.66185">
        <ele>832</ele>
        <time>2014-06-28T07:06:59.000Z</time>
      </trkpt>
      <trkpt lat="45.14992" lon="5.66185">
        <ele>832</ele>
        <time>2014-06-28T07:07:00.000Z</time>
      </trkpt>
      <trkpt lat="45.14992" lon="5.66185">
        <ele>832</ele>
        <time>2014-06-28T07:07:01.000Z</time>
      </trkpt>
      <trkpt lat="45.14992" lon="5.66185">
        <ele>832</ele>
        <time>2014-06-28T07:07:02.000Z</time>
      </trkpt>
      <trkpt lat="45.14992" lon="5.66185">
        <ele>832</ele>
        <time>2014-06-28T07:07:03.000Z</time>
      </trkpt>
      <trkpt lat="45.14992" lon="5.66185">
        <ele>832</ele>
        <time>2014-06-28T07:07:04.000Z</time>
      </trkpt>
      <trkpt lat="45.14992" lon="5.66185">
        <ele>832</ele>
        <time>2014-06-28T07:07:05.000Z</time>
      </trkpt>
      <trkpt lat="45.14992" lon="5.66185">
        <ele>832</ele>
        <time>2014-06-28T07:07:06.000Z</time>
      </trkpt>
      <trkpt lat="45.14992" lon="5.66184">
        <ele>832</ele>
        <time>2014-06-28T07:07:07.000Z</time>
      </trkpt>
      <trkpt lat="45.14992" lon="5.66184">
        <ele>832</ele>
        <time>2014-06-28T07:07:08.000Z</time>
      </trkpt>
      <trkpt lat="45.14992" lon="5.66184">
        <ele>832</ele>
        <time>2014-06-28T07:07:09.000Z</time>
      </trkpt>
      <trkpt lat="45.14992" lon="5.66184">
        <ele>832</ele>
        <time>2014-06-28T07:07:10.000Z</time>
      </trkpt>
      <trkpt lat="45.14992" lon="5.66184">
        <ele>832</ele>
        <time>2014-06-28T07:07:11.000Z</time>
      </trkpt>
      <trkpt lat="45.14992" lon="5.66184">
        <ele>832</ele>
        <time>2014-06-28T07:07:12.000Z</time>
      </trkpt>
      <trkpt lat="45.14992" lon="5.66184">
        <ele>832</ele>
        <time>2014-06-28T07:07:13.000Z</time>
      </trkpt>
      <trkpt lat="45.14992" lon="5.66184">
        <ele>832</ele>
        <time>2014-06-28T07:07:14.000Z</time>
      </trkpt>
      <trkpt lat="45.14992" lon="5.66184">
        <ele>832</ele>
        <time>2014-06-28T07:07:15.000Z</time>
      </trkpt>
      <trkpt lat="45.14992" lon="5.66183">
        <ele>832</ele>
        <time>2014-06-28T07:07:16.000Z</time>
      </trkpt>
      <trkpt lat="45.14992" lon="5.66183">
        <ele>832</ele>
        <time>2014-06-28T07:07:17.000Z</time>
      </trkpt>
      <trkpt lat="45.14992" lon="5.66183">
        <ele>832</ele>
        <time>2014-06-28T07:07:18.000Z</time>
      </trkpt>
      <trkpt lat="45.14992" lon="5.66183">
        <ele>832</ele>
        <time>2014-06-28T07:07:19.000Z</time>
      </trkpt>
      <trkpt lat="45.14992" lon="5.66183">
        <ele>832</ele>
        <time>2014-06-28T07:07:20.000Z</time>
      </trkpt>
      <trkpt lat="45.14992" lon="5.66183">
        <ele>832</ele>
        <time>2014-06-28T07:07:21.000Z</time>
      </trkpt>
      <trkpt lat="45.14992" lon="5.66183">
        <ele>832</ele>
        <time>2014-06-28T07:07:22.000Z</time>
      </trkpt>
      <trkpt lat="45.14992" lon="5.66183">
        <ele>832</ele>
        <time>2014-06-28T07:07:23.000Z</time>
      </trkpt>
      <trkpt lat="45.14992" lon="5.66183">
        <ele>832</ele>
        <time>2014-06-28T07:07:24.000Z</time>
      </trkpt>
      <trkpt lat="45.14992" lon="5.66182">
        <ele>832</ele>
        <time>2014-06-28T07:07:25.000Z</time>
      </trkpt>
      <trkpt lat="45.14992" lon="5.66182">
        <ele>832</ele>
        <time>2014-06-28T07:07:26.000Z</time>
      </trkpt>
      <trkpt lat="45.14992" lon="5.66182">
        <ele>832</ele>
        <time>2014-06-28T07:07:27.000Z</time>
      </trkpt>
      <trkpt lat="45.14992" lon="5.66182">
        <ele>831</ele>
        <time>2014-06-28T07:07:28.000Z</time>
      </trkpt>
      <trkpt lat="45.14992" lon="5.66182">
        <ele>831</ele>
        <time>2014-06-28T07:07:29.000Z</time>
      </trkpt>
      <trkpt lat="45.14992" lon="5.66182">
        <ele>831</ele>
        <time>2014-06-28T07:07:30.000Z</time>
      </trkpt>
      <trkpt lat="45.14992" lon="5.66182">
        <ele>831</ele>
        <time>2014-06-28T07:07:31.000Z</time>
      </trkpt>
      <trkpt lat="45.14992" lon="5.66182">
        <ele>831</ele>
        <time>2014-06-28T07:07:32.000Z</time>
      </trkpt>
      <trkpt lat="45.14992" lon="5.66182">
        <ele>831</ele>
        <time>2014-06-28T07:07:33.000Z</time>
      </trkpt>
      <trkpt lat="45.14992" lon="5.66182">
        <ele>831</ele>
        <time>2014-06-28T07:07:34.000Z</time>
      </trkpt>
      <trkpt lat="45.14992" lon="5.66182">
        <ele>831</ele>
        <time>2014-06-28T07:07:35.000Z</time>
      </trkpt>
      <trkpt lat="45.14992" lon="5.66182">
        <ele>831</ele>
        <time>2014-06-28T07:07:36.000Z</time>
      </trkpt>
      <trkpt lat="45.14992" lon="5.66182">
        <ele>831</ele>
        <time>2014-06-28T07:07:37.000Z</time>
      </trkpt>
      <trkpt lat="45.14992" lon="5.66182">
        <ele>831</ele>
        <time>2014-06-28T07:07:38.000Z</time>
      </trkpt>
      <trkpt lat="45.14992" lon="5.66182">
        <ele>831</ele>
        <time>2014-06-28T07:07:39.000Z</time>
      </trkpt>
      <trkpt lat="45.14992" lon="5.66182">
        <ele>831</ele>
        <time>2014-06-28T07:07:40.000Z</time>
      </trkpt>
      <trkpt lat="45.14992" lon="5.66182">
        <ele>831</ele>
        <time>2014-06-28T07:07:41.000Z</time>
      </trkpt>
      <trkpt lat="45.14992" lon="5.66182">
        <ele>831</ele>
        <time>2014-06-28T07:07:42.000Z</time>
      </trkpt>
      <trkpt lat="45.14992" lon="5.66182">
        <ele>831</ele>
        <time>2014-06-28T07:07:43.000Z</time>
      </trkpt>
      <trkpt lat="45.14992" lon="5.66182">
        <ele>831</ele>
        <time>2014-06-28T07:07:44.000Z</time>
      </trkpt>
      <trkpt lat="45.14992" lon="5.66182">
        <ele>831</ele>
        <time>2014-06-28T07:07:45.000Z</time>
      </trkpt>
      <trkpt lat="45.14992" lon="5.66182">
        <ele>831</ele>
        <time>2014-06-28T07:07:46.000Z</time>
      </trkpt>
      <trkpt lat="45.14992" lon="5.66182">
        <ele>831</ele>
        <time>2014-06-28T07:07:47.000Z</time>
      </trkpt>
      <trkpt lat="45.14992" lon="5.66182">
        <ele>831</ele>
        <time>2014-06-28T07:07:48.000Z</time>
      </trkpt>
      <trkpt lat="45.14992" lon="5.66182">
        <ele>831</ele>
        <time>2014-06-28T07:07:49.000Z</time>
      </trkpt>
      <trkpt lat="45.14992" lon="5.66182">
        <ele>831</ele>
        <time>2014-06-28T07:07:50.000Z</time>
      </trkpt>
      <trkpt lat="45.14992" lon="5.66182">
        <ele>831</ele>
        <time>2014-06-28T07:07:51.000Z</time>
      </trkpt>
      <trkpt lat="45.14992" lon="5.66182">
        <ele>831</ele>
        <time>2014-06-28T07:07:52.000Z</time>
      </trkpt>
      <trkpt lat="45.14992" lon="5.66182">
        <ele>831</ele>
        <time>2014-06-28T07:07:53.000Z</time>
      </trkpt>
      <trkpt lat="45.14992" lon="5.66182">
        <ele>831</ele>
        <time>2014-06-28T07:07:54.000Z</time>
      </trkpt>
      <trkpt lat="45.14992" lon="5.66183">
        <ele>831</ele>
        <time>2014-06-28T07:07:55.000Z</time>
      </trkpt>
      <trkpt lat="45.14992" lon="5.66183">
        <ele>831</ele>
        <time>2014-06-28T07:07:56.000Z</time>
      </trkpt>
      <trkpt lat="45.14992" lon="5.66183">
        <ele>831</ele>
        <time>2014-06-28T07:07:57.000Z</time>
      </trkpt>
      <trkpt lat="45.14992" lon="5.66183">
        <ele>831</ele>
        <time>2014-06-28T07:07:58.000Z</time>
      </trkpt>
      <trkpt lat="45.14992" lon="5.66183">
        <ele>831</ele>
        <time>2014-06-28T07:07:59.000Z</time>
      </trkpt>
      <trkpt lat="45.14992" lon="5.66183">
        <ele>831</ele>
        <time>2014-06-28T07:08:00.000Z</time>
      </trkpt>
      <trkpt lat="45.14992" lon="5.66183">
        <ele>831</ele>
        <time>2014-06-28T07:08:01.000Z</time>
      </trkpt>
      <trkpt lat="45.14992" lon="5.66183">
        <ele>831</ele>
        <time>2014-06-28T07:08:02.000Z</time>
      </trkpt>
      <trkpt lat="45.14992" lon="5.66183">
        <ele>831</ele>
        <time>2014-06-28T07:08:03.000Z</time>
      </trkpt>
      <trkpt lat="45.14992" lon="5.66183">
        <ele>831</ele>
        <time>2014-06-28T07:08:04.000Z</time>
      </trkpt>
      <trkpt lat="45.14992" lon="5.66183">
        <ele>831</ele>
        <time>2014-06-28T07:08:05.000Z</time>
      </trkpt>
      <trkpt lat="45.14992" lon="5.66183">
        <ele>831</ele>
        <time>2014-06-28T07:08:06.000Z</time>
      </trkpt>
      <trkpt lat="45.14992" lon="5.66183">
        <ele>831</ele>
        <time>2014-06-28T07:08:07.000Z</time>
      </trkpt>
      <trkpt lat="45.14992" lon="5.66183">
        <ele>831</ele>
        <time>2014-06-28T07:08:08.000Z</time>
      </trkpt>
      <trkpt lat="45.14991" lon="5.66183">
        <ele>831</ele>
        <time>2014-06-28T07:08:09.000Z</time>
      </trkpt>
      <trkpt lat="45.14992" lon="5.66183">
        <ele>831</ele>
        <time>2014-06-28T07:08:10.000Z</time>
      </trkpt>
      <trkpt lat="45.14992" lon="5.66184">
        <ele>831</ele>
        <time>2014-06-28T07:08:11.000Z</time>
      </trkpt>
      <trkpt lat="45.14992" lon="5.66184">
        <ele>831</ele>
        <time>2014-06-28T07:08:12.000Z</time>
      </trkpt>
      <trkpt lat="45.14992" lon="5.66184">
        <ele>831</ele>
        <time>2014-06-28T07:08:13.000Z</time>
      </trkpt>
      <trkpt lat="45.14992" lon="5.66184">
        <ele>831</ele>
        <time>2014-06-28T07:08:14.000Z</time>
      </trkpt>
      <trkpt lat="45.14992" lon="5.66184">
        <ele>831</ele>
        <time>2014-06-28T07:08:15.000Z</time>
      </trkpt>
      <trkpt lat="45.14992" lon="5.66184">
        <ele>831</ele>
        <time>2014-06-28T07:08:16.000Z</time>
      </trkpt>
      <trkpt lat="45.14992" lon="5.66184">
        <ele>831</ele>
        <time>2014-06-28T07:08:17.000Z</time>
      </trkpt>
      <trkpt lat="45.14992" lon="5.66184">
        <ele>831</ele>
        <time>2014-06-28T07:08:18.000Z</time>
      </trkpt>
      <trkpt lat="45.14992" lon="5.66184">
        <ele>831</ele>
        <time>2014-06-28T07:08:19.000Z</time>
      </trkpt>
      <trkpt lat="45.14992" lon="5.66184">
        <ele>831</ele>
        <time>2014-06-28T07:08:20.000Z</time>
      </trkpt>
      <trkpt lat="45.14992" lon="5.66184">
        <ele>831</ele>
        <time>2014-06-28T07:08:21.000Z</time>
      </trkpt>
      <trkpt lat="45.14991" lon="5.66184">
        <ele>831</ele>
        <time>2014-06-28T07:08:22.000Z</time>
      </trkpt>
      <trkpt lat="45.14991" lon="5.66184">
        <ele>831</ele>
        <time>2014-06-28T07:08:23.000Z</time>
      </trkpt>
      <trkpt lat="45.14992" lon="5.66185">
        <ele>831</ele>
        <time>2014-06-28T07:08:24.000Z</time>
      </trkpt>
      <trkpt lat="45.14991" lon="5.66185">
        <ele>831</ele>
        <time>2014-06-28T07:08:25.000Z</time>
      </trkpt>
      <trkpt lat="45.14992" lon="5.66185">
        <ele>831</ele>
        <time>2014-06-28T07:08:26.000Z</time>
      </trkpt>
      <trkpt lat="45.14992" lon="5.66185">
        <ele>831</ele>
        <time>2014-06-28T07:08:27.000Z</time>
      </trkpt>
      <trkpt lat="45.14992" lon="5.66185">
        <ele>831</ele>
        <time>2014-06-28T07:08:28.000Z</time>
      </trkpt>
      <trkpt lat="45.14992" lon="5.66185">
        <ele>831</ele>
        <time>2014-06-28T07:08:29.000Z</time>
      </trkpt>
      <trkpt lat="45.14992" lon="5.66185">
        <ele>831</ele>
        <time>2014-06-28T07:08:30.000Z</time>
      </trkpt>
      <trkpt lat="45.14992" lon="5.66185">
        <ele>831</ele>
        <time>2014-06-28T07:08:31.000Z</time>
      </trkpt>
      <trkpt lat="45.14992" lon="5.66185">
        <ele>832</ele>
        <time>2014-06-28T07:08:32.000Z</time>
      </trkpt>
      <trkpt lat="45.14992" lon="5.66185">
        <ele>832</ele>
        <time>2014-06-28T07:08:33.000Z</time>
      </trkpt>
      <trkpt lat="45.14992" lon="5.66185">
        <ele>832</ele>
        <time>2014-06-28T07:08:34.000Z</time>
      </trkpt>
      <trkpt lat="45.14992" lon="5.66185">
        <ele>832</ele>
        <time>2014-06-28T07:08:35.000Z</time>
      </trkpt>
      <trkpt lat="45.14992" lon="5.66186">
        <ele>832</ele>
        <time>2014-06-28T07:08:36.000Z</time>
      </trkpt>
      <trkpt lat="45.14992" lon="5.66186">
        <ele>832</ele>
        <time>2014-06-28T07:08:37.000Z</time>
      </trkpt>
      <trkpt lat="45.14992" lon="5.66186">
        <ele>832</ele>
        <time>2014-06-28T07:08:38.000Z</time>
      </trkpt>
      <trkpt lat="45.14992" lon="5.66186">
        <ele>832</ele>
        <time>2014-06-28T07:08:39.000Z</time>
      </trkpt>
      <trkpt lat="45.14992" lon="5.66186">
        <ele>832</ele>
        <time>2014-06-28T07:08:40.000Z</time>
      </trkpt>
      <trkpt lat="45.14992" lon="5.66186">
        <ele>832</ele>
        <time>2014-06-28T07:08:41.000Z</time>
      </trkpt>
      <trkpt lat="45.14992" lon="5.66186">
        <ele>832</ele>
        <time>2014-06-28T07:08:42.000Z</time>
      </trkpt>
      <trkpt lat="45.14992" lon="5.66186">
        <ele>832</ele>
        <time>2014-06-28T07:08:43.000Z</time>
      </trkpt>
      <trkpt lat="45.14992" lon="5.66186">
        <ele>832</ele>
        <time>2014-06-28T07:08:44.000Z</time>
      </trkpt>
      <trkpt lat="45.14992" lon="5.66186">
        <ele>832</ele>
        <time>2014-06-28T07:08:45.000Z</time>
      </trkpt>
      <trkpt lat="45.14992" lon="5.66186">
        <ele>832</ele>
        <time>2014-06-28T07:08:46.000Z</time>
      </trkpt>
      <trkpt lat="45.14992" lon="5.66186">
        <ele>832</ele>
        <time>2014-06-28T07:08:47.000Z</time>
      </trkpt>
      <trkpt lat="45.14992" lon="5.66186">
        <ele>832</ele>
        <time>2014-06-28T07:08:48.000Z</time>
      </trkpt>
      <trkpt lat="45.14992" lon="5.66187">
        <ele>832</ele>
        <time>2014-06-28T07:08:49.000Z</time>
      </trkpt>
      <trkpt lat="45.14991" lon="5.66187">
        <ele>832</ele>
        <time>2014-06-28T07:08:50.000Z</time>
      </trkpt>
      <trkpt lat="45.14992" lon="5.66187">
        <ele>832</ele>
        <time>2014-06-28T07:08:51.000Z</time>
      </trkpt>
      <trkpt lat="45.14992" lon="5.66187">
        <ele>832</ele>
        <time>2014-06-28T07:08:52.000Z</time>
      </trkpt>
      <trkpt lat="45.14991" lon="5.66187">
        <ele>831</ele>
        <time>2014-06-28T07:08:53.000Z</time>
      </trkpt>
      <trkpt lat="45.14991" lon="5.66187">
        <ele>831</ele>
        <time>2014-06-28T07:08:54.000Z</time>
      </trkpt>
      <trkpt lat="45.14991" lon="5.66187">
        <ele>831</ele>
        <time>2014-06-28T07:08:55.000Z</time>
      </trkpt>
      <trkpt lat="45.14991" lon="5.66186">
        <ele>831</ele>
        <time>2014-06-28T07:08:56.000Z</time>
      </trkpt>
      <trkpt lat="45.14991" lon="5.66186">
        <ele>831</ele>
        <time>2014-06-28T07:08:57.000Z</time>
      </trkpt>
      <trkpt lat="45.14991" lon="5.66186">
        <ele>831</ele>
        <time>2014-06-28T07:08:58.000Z</time>
      </trkpt>
      <trkpt lat="45.14991" lon="5.66186">
        <ele>831</ele>
        <time>2014-06-28T07:08:59.000Z</time>
      </trkpt>
      <trkpt lat="45.14991" lon="5.66186">
        <ele>831</ele>
        <time>2014-06-28T07:09:00.000Z</time>
      </trkpt>
      <trkpt lat="45.14991" lon="5.66186">
        <ele>831</ele>
        <time>2014-06-28T07:09:01.000Z</time>
      </trkpt>
      <trkpt lat="45.14991" lon="5.66186">
        <ele>831</ele>
        <time>2014-06-28T07:09:02.000Z</time>
      </trkpt>
      <trkpt lat="45.14991" lon="5.66186">
        <ele>831</ele>
        <time>2014-06-28T07:09:03.000Z</time>
      </trkpt>
      <trkpt lat="45.14991" lon="5.66185">
        <ele>831</ele>
        <time>2014-06-28T07:09:04.000Z</time>
      </trkpt>
      <trkpt lat="45.14991" lon="5.66185">
        <ele>831</ele>
        <time>2014-06-28T07:09:05.000Z</time>
      </trkpt>
      <trkpt lat="45.14991" lon="5.66185">
        <ele>831</ele>
        <time>2014-06-28T07:09:06.000Z</time>
      </trkpt>
      <trkpt lat="45.14992" lon="5.66185">
        <ele>831</ele>
        <time>2014-06-28T07:09:07.000Z</time>
      </trkpt>
      <trkpt lat="45.14992" lon="5.66185">
        <ele>831</ele>
        <time>2014-06-28T07:09:08.000Z</time>
      </trkpt>
      <trkpt lat="45.14992" lon="5.66185">
        <ele>831</ele>
        <time>2014-06-28T07:09:09.000Z</time>
      </trkpt>
      <trkpt lat="45.14992" lon="5.66185">
        <ele>831</ele>
        <time>2014-06-28T07:09:10.000Z</time>
      </trkpt>
      <trkpt lat="45.14993" lon="5.66185">
        <ele>831</ele>
        <time>2014-06-28T07:09:11.000Z</time>
      </trkpt>
      <trkpt lat="45.14993" lon="5.66185">
        <ele>831</ele>
        <time>2014-06-28T07:09:12.000Z</time>
      </trkpt>
      <trkpt lat="45.14993" lon="5.66185">
        <ele>831</ele>
        <time>2014-06-28T07:09:13.000Z</time>
      </trkpt>
      <trkpt lat="45.14993" lon="5.66185">
        <ele>831</ele>
        <time>2014-06-28T07:09:14.000Z</time>
      </trkpt>
      <trkpt lat="45.14993" lon="5.66185">
        <ele>831</ele>
        <time>2014-06-28T07:09:15.000Z</time>
      </trkpt>
      <trkpt lat="45.14993" lon="5.66185">
        <ele>831</ele>
        <time>2014-06-28T07:09:16.000Z</time>
      </trkpt>
      <trkpt lat="45.14993" lon="5.66185">
        <ele>830</ele>
        <time>2014-06-28T07:09:17.000Z</time>
      </trkpt>
      <trkpt lat="45.14993" lon="5.66185">
        <ele>830</ele>
        <time>2014-06-28T07:09:18.000Z</time>
      </trkpt>
      <trkpt lat="45.14993" lon="5.66185">
        <ele>830</ele>
        <time>2014-06-28T07:09:19.000Z</time>
      </trkpt>
      <trkpt lat="45.14993" lon="5.66185">
        <ele>830</ele>
        <time>2014-06-28T07:09:20.000Z</time>
      </trkpt>
      <trkpt lat="45.14993" lon="5.66185">
        <ele>830</ele>
        <time>2014-06-28T07:09:21.000Z</time>
      </trkpt>
      <trkpt lat="45.14993" lon="5.66185">
        <ele>830</ele>
        <time>2014-06-28T07:09:22.000Z</time>
      </trkpt>
      <trkpt lat="45.14993" lon="5.66185">
        <ele>830</ele>
        <time>2014-06-28T07:09:23.000Z</time>
      </trkpt>
      <trkpt lat="45.14993" lon="5.66185">
        <ele>830</ele>
        <time>2014-06-28T07:09:24.000Z</time>
      </trkpt>
      <trkpt lat="45.14993" lon="5.66185">
        <ele>830</ele>
        <time>2014-06-28T07:09:25.000Z</time>
      </trkpt>
      <trkpt lat="45.14993" lon="5.66185">
        <ele>830</ele>
        <time>2014-06-28T07:09:26.000Z</time>
      </trkpt>
      <trkpt lat="45.14993" lon="5.66185">
        <ele>830</ele>
        <time>2014-06-28T07:09:27.000Z</time>
      </trkpt>
      <trkpt lat="45.14992" lon="5.66185">
        <ele>830</ele>
        <time>2014-06-28T07:09:28.000Z</time>
      </trkpt>
      <trkpt lat="45.14992" lon="5.66185">
        <ele>830</ele>
        <time>2014-06-28T07:09:29.000Z</time>
      </trkpt>
      <trkpt lat="45.14992" lon="5.66185">
        <ele>830</ele>
        <time>2014-06-28T07:09:30.000Z</time>
      </trkpt>
      <trkpt lat="45.14992" lon="5.66185">
        <ele>830</ele>
        <time>2014-06-28T07:09:31.000Z</time>
      </trkpt>
      <trkpt lat="45.14992" lon="5.66185">
        <ele>830</ele>
        <time>2014-06-28T07:09:32.000Z</time>
      </trkpt>
      <trkpt lat="45.14993" lon="5.66185">
        <ele>830</ele>
        <time>2014-06-28T07:09:33.000Z</time>
      </trkpt>
      <trkpt lat="45.14993" lon="5.66184">
        <ele>830</ele>
        <time>2014-06-28T07:09:34.000Z</time>
      </trkpt>
      <trkpt lat="45.14993" lon="5.66184">
        <ele>830</ele>
        <time>2014-06-28T07:09:35.000Z</time>
      </trkpt>
      <trkpt lat="45.14994" lon="5.66184">
        <ele>830</ele>
        <time>2014-06-28T07:09:36.000Z</time>
      </trkpt>
      <trkpt lat="45.14994" lon="5.66184">
        <ele>830</ele>
        <time>2014-06-28T07:09:37.000Z</time>
      </trkpt>
      <trkpt lat="45.14994" lon="5.66184">
        <ele>830</ele>
        <time>2014-06-28T07:09:38.000Z</time>
      </trkpt>
      <trkpt lat="45.14994" lon="5.66184">
        <ele>830</ele>
        <time>2014-06-28T07:09:39.000Z</time>
      </trkpt>
      <trkpt lat="45.14994" lon="5.66184">
        <ele>830</ele>
        <time>2014-06-28T07:09:40.000Z</time>
      </trkpt>
      <trkpt lat="45.14994" lon="5.66185">
        <ele>830</ele>
        <time>2014-06-28T07:09:41.000Z</time>
      </trkpt>
      <trkpt lat="45.14994" lon="5.66185">
        <ele>830</ele>
        <time>2014-06-28T07:09:42.000Z</time>
      </trkpt>
      <trkpt lat="45.14994" lon="5.66185">
        <ele>830</ele>
        <time>2014-06-28T07:09:43.000Z</time>
      </trkpt>
      <trkpt lat="45.14994" lon="5.66185">
        <ele>830</ele>
        <time>2014-06-28T07:09:44.000Z</time>
      </trkpt>
      <trkpt lat="45.14994" lon="5.66185">
        <ele>830</ele>
        <time>2014-06-28T07:09:45.000Z</time>
      </trkpt>
      <trkpt lat="45.14994" lon="5.66185">
        <ele>830</ele>
        <time>2014-06-28T07:09:46.000Z</time>
      </trkpt>
      <trkpt lat="45.14994" lon="5.66185">
        <ele>830</ele>
        <time>2014-06-28T07:09:47.000Z</time>
      </trkpt>
      <trkpt lat="45.14994" lon="5.66185">
        <ele>830</ele>
        <time>2014-06-28T07:09:48.000Z</time>
      </trkpt>
      <trkpt lat="45.14994" lon="5.66185">
        <ele>830</ele>
        <time>2014-06-28T07:09:49.000Z</time>
      </trkpt>
      <trkpt lat="45.14994" lon="5.66185">
        <ele>830</ele>
        <time>2014-06-28T07:09:50.000Z</time>
      </trkpt>
      <trkpt lat="45.14994" lon="5.66185">
        <ele>830</ele>
        <time>2014-06-28T07:09:51.000Z</time>
      </trkpt>
      <trkpt lat="45.14994" lon="5.66185">
        <ele>830</ele>
        <time>2014-06-28T07:09:52.000Z</time>
      </trkpt>
      <trkpt lat="45.14994" lon="5.66185">
        <ele>830</ele>
        <time>2014-06-28T07:09:53.000Z</time>
      </trkpt>
      <trkpt lat="45.14994" lon="5.66185">
        <ele>830</ele>
        <time>2014-06-28T07:09:54.000Z</time>
      </trkpt>
      <trkpt lat="45.14994" lon="5.66185">
        <ele>830</ele>
        <time>2014-06-28T07:09:55.000Z</time>
      </trkpt>
      <trkpt lat="45.14994" lon="5.66185">
        <ele>830</ele>
        <time>2014-06-28T07:09:56.000Z</time>
      </trkpt>
      <trkpt lat="45.14994" lon="5.66185">
        <ele>830</ele>
        <time>2014-06-28T07:09:57.000Z</time>
      </trkpt>
      <trkpt lat="45.14994" lon="5.66185">
        <ele>829</ele>
        <time>2014-06-28T07:09:58.000Z</time>
      </trkpt>
      <trkpt lat="45.14994" lon="5.66185">
        <ele>829</ele>
        <time>2014-06-28T07:09:59.000Z</time>
      </trkpt>
      <trkpt lat="45.14994" lon="5.66186">
        <ele>829</ele>
        <time>2014-06-28T07:10:00.000Z</time>
      </trkpt>
      <trkpt lat="45.14994" lon="5.66186">
        <ele>829</ele>
        <time>2014-06-28T07:10:01.000Z</time>
      </trkpt>
      <trkpt lat="45.14994" lon="5.66185">
        <ele>829</ele>
        <time>2014-06-28T07:10:02.000Z</time>
      </trkpt>
      <trkpt lat="45.14994" lon="5.66186">
        <ele>829</ele>
        <time>2014-06-28T07:10:03.000Z</time>
      </trkpt>
      <trkpt lat="45.14994" lon="5.66186">
        <ele>829</ele>
        <time>2014-06-28T07:10:04.000Z</time>
      </trkpt>
      <trkpt lat="45.14994" lon="5.66186">
        <ele>829</ele>
        <time>2014-06-28T07:10:05.000Z</time>
      </trkpt>
      <trkpt lat="45.14994" lon="5.66185">
        <ele>829</ele>
        <time>2014-06-28T07:10:06.000Z</time>
      </trkpt>
      <trkpt lat="45.14994" lon="5.66185">
        <ele>829</ele>
        <time>2014-06-28T07:10:07.000Z</time>
      </trkpt>
      <trkpt lat="45.14994" lon="5.66185">
        <ele>829</ele>
        <time>2014-06-28T07:10:08.000Z</time>
      </trkpt>
      <trkpt lat="45.14994" lon="5.66185">
        <ele>829</ele>
        <time>2014-06-28T07:10:09.000Z</time>
      </trkpt>
      <trkpt lat="45.14994" lon="5.66185">
        <ele>829</ele>
        <time>2014-06-28T07:10:10.000Z</time>
      </trkpt>
      <trkpt lat="45.14995" lon="5.66185">
        <ele>829</ele>
        <time>2014-06-28T07:10:11.000Z</time>
      </trkpt>
      <trkpt lat="45.14995" lon="5.66185">
        <ele>830</ele>
        <time>2014-06-28T07:10:12.000Z</time>
      </trkpt>
      <trkpt lat="45.14995" lon="5.66185">
        <ele>830</ele>
        <time>2014-06-28T07:10:13.000Z</time>
      </trkpt>
      <trkpt lat="45.14995" lon="5.66185">
        <ele>830</ele>
        <time>2014-06-28T07:10:14.000Z</time>
      </trkpt>
      <trkpt lat="45.14995" lon="5.66185">
        <ele>830</ele>
        <time>2014-06-28T07:10:15.000Z</time>
      </trkpt>
      <trkpt lat="45.14994" lon="5.66185">
        <ele>830</ele>
        <time>2014-06-28T07:10:16.000Z</time>
      </trkpt>
      <trkpt lat="45.14995" lon="5.66185">
        <ele>830</ele>
        <time>2014-06-28T07:10:17.000Z</time>
      </trkpt>
      <trkpt lat="45.14995" lon="5.66185">
        <ele>830</ele>
        <time>2014-06-28T07:10:18.000Z</time>
      </trkpt>
      <trkpt lat="45.14995" lon="5.66185">
        <ele>830</ele>
        <time>2014-06-28T07:10:19.000Z</time>
      </trkpt>
      <trkpt lat="45.14995" lon="5.66185">
        <ele>830</ele>
        <time>2014-06-28T07:10:20.000Z</time>
      </trkpt>
      <trkpt lat="45.14995" lon="5.66185">
        <ele>830</ele>
        <time>2014-06-28T07:10:21.000Z</time>
      </trkpt>
      <trkpt lat="45.14995" lon="5.66185">
        <ele>830</ele>
        <time>2014-06-28T07:10:22.000Z</time>
      </trkpt>
      <trkpt lat="45.14995" lon="5.66185">
        <ele>830</ele>
        <time>2014-06-28T07:10:23.000Z</time>
      </trkpt>
      <trkpt lat="45.14995" lon="5.66185">
        <ele>830</ele>
        <time>2014-06-28T07:10:24.000Z</time>
      </trkpt>
      <trkpt lat="45.14995" lon="5.66185">
        <ele>830</ele>
        <time>2014-06-28T07:10:25.000Z</time>
      </trkpt>
      <trkpt lat="45.14995" lon="5.66185">
        <ele>830</ele>
        <time>2014-06-28T07:10:26.000Z</time>
      </trkpt>
      <trkpt lat="45.14995" lon="5.66185">
        <ele>830</ele>
        <time>2014-06-28T07:10:27.000Z</time>
      </trkpt>
      <trkpt lat="45.14995" lon="5.66185">
        <ele>830</ele>
        <time>2014-06-28T07:10:28.000Z</time>
      </trkpt>
      <trkpt lat="45.14995" lon="5.66185">
        <ele>830</ele>
        <time>2014-06-28T07:10:29.000Z</time>
      </trkpt>
      <trkpt lat="45.14995" lon="5.66185">
        <ele>830</ele>
        <time>2014-06-28T07:10:30.000Z</time>
      </trkpt>
      <trkpt lat="45.14995" lon="5.66185">
        <ele>830</ele>
        <time>2014-06-28T07:10:31.000Z</time>
      </trkpt>
      <trkpt lat="45.14995" lon="5.66185">
        <ele>830</ele>
        <time>2014-06-28T07:10:32.000Z</time>
      </trkpt>
      <trkpt lat="45.14995" lon="5.66185">
        <ele>830</ele>
        <time>2014-06-28T07:10:33.000Z</time>
      </trkpt>
      <trkpt lat="45.14995" lon="5.66185">
        <ele>830</ele>
        <time>2014-06-28T07:10:34.000Z</time>
      </trkpt>
      <trkpt lat="45.14995" lon="5.66185">
        <ele>830</ele>
        <time>2014-06-28T07:10:35.000Z</time>
      </trkpt>
      <trkpt lat="45.14995" lon="5.66185">
        <ele>830</ele>
        <time>2014-06-28T07:10:36.000Z</time>
      </trkpt>
      <trkpt lat="45.14995" lon="5.66185">
        <ele>829</ele>
        <time>2014-06-28T07:10:37.000Z</time>
      </trkpt>
      <trkpt lat="45.14995" lon="5.66184">
        <ele>829</ele>
        <time>2014-06-28T07:10:38.000Z</time>
      </trkpt>
      <trkpt lat="45.14995" lon="5.66184">
        <ele>829</ele>
        <time>2014-06-28T07:10:39.000Z</time>
      </trkpt>
      <trkpt lat="45.14995" lon="5.66185">
        <ele>829</ele>
        <time>2014-06-28T07:10:40.000Z</time>
      </trkpt>
      <trkpt lat="45.14995" lon="5.66185">
        <ele>829</ele>
        <time>2014-06-28T07:10:41.000Z</time>
      </trkpt>
      <trkpt lat="45.14994" lon="5.66184">
        <ele>829</ele>
        <time>2014-06-28T07:10:42.000Z</time>
      </trkpt>
      <trkpt lat="45.14994" lon="5.66184">
        <ele>830</ele>
        <time>2014-06-28T07:10:43.000Z</time>
      </trkpt>
      <trkpt lat="45.14994" lon="5.66184">
        <ele>830</ele>
        <time>2014-06-28T07:10:44.000Z</time>
      </trkpt>
      <trkpt lat="45.14994" lon="5.66184">
        <ele>829</ele>
        <time>2014-06-28T07:10:45.000Z</time>
      </trkpt>
      <trkpt lat="45.14994" lon="5.66184">
        <ele>829</ele>
        <time>2014-06-28T07:10:46.000Z</time>
      </trkpt>
      <trkpt lat="45.14994" lon="5.66184">
        <ele>829</ele>
        <time>2014-06-28T07:10:47.000Z</time>
      </trkpt>
      <trkpt lat="45.14994" lon="5.66184">
        <ele>829</ele>
        <time>2014-06-28T07:10:48.000Z</time>
      </trkpt>
      <trkpt lat="45.14994" lon="5.66184">
        <ele>829</ele>
        <time>2014-06-28T07:10:49.000Z</time>
      </trkpt>
      <trkpt lat="45.14994" lon="5.66184">
        <ele>829</ele>
        <time>2014-06-28T07:10:50.000Z</time>
      </trkpt>
      <trkpt lat="45.14994" lon="5.66184">
        <ele>829</ele>
        <time>2014-06-28T07:10:51.000Z</time>
      </trkpt>
      <trkpt lat="45.14994" lon="5.66184">
        <ele>829</ele>
        <time>2014-06-28T07:10:52.000Z</time>
      </trkpt>
      <trkpt lat="45.14994" lon="5.66184">
        <ele>829</ele>
        <time>2014-06-28T07:10:53.000Z</time>
      </trkpt>
      <trkpt lat="45.14994" lon="5.66183">
        <ele>829</ele>
        <time>2014-06-28T07:10:54.000Z</time>
      </trkpt>
      <trkpt lat="45.14994" lon="5.66182">
        <ele>829</ele>
        <time>2014-06-28T07:10:55.000Z</time>
      </trkpt>
      <trkpt lat="45.14994" lon="5.66182">
        <ele>829</ele>
        <time>2014-06-28T07:10:56.000Z</time>
      </trkpt>
      <trkpt lat="45.14993" lon="5.66182">
        <ele>829</ele>
        <time>2014-06-28T07:10:57.000Z</time>
      </trkpt>
      <trkpt lat="45.14993" lon="5.66182">
        <ele>829</ele>
        <time>2014-06-28T07:10:58.000Z</time>
      </trkpt>
      <trkpt lat="45.14992" lon="5.66181">
        <ele>829</ele>
        <time>2014-06-28T07:10:59.000Z</time>
      </trkpt>
      <trkpt lat="45.14992" lon="5.66181">
        <ele>829</ele>
        <time>2014-06-28T07:11:00.000Z</time>
      </trkpt>
      <trkpt lat="45.14992" lon="5.6618">
        <ele>829</ele>
        <time>2014-06-28T07:11:01.000Z</time>
      </trkpt>
      <trkpt lat="45.14991" lon="5.66179">
        <ele>830</ele>
        <time>2014-06-28T07:11:02.000Z</time>
      </trkpt>
      <trkpt lat="45.14991" lon="5.66178">
        <ele>830</ele>
        <time>2014-06-28T07:11:03.000Z</time>
      </trkpt>
      <trkpt lat="45.1499" lon="5.66177">
        <ele>830</ele>
        <time>2014-06-28T07:11:04.000Z</time>
      </trkpt>
      <trkpt lat="45.1499" lon="5.66177">
        <ele>830</ele>
        <time>2014-06-28T07:11:05.000Z</time>
      </trkpt>
      <trkpt lat="45.14989" lon="5.66176">
        <ele>830</ele>
        <time>2014-06-28T07:11:06.000Z</time>
      </trkpt>
      <trkpt lat="45.14989" lon="5.66174">
        <ele>830</ele>
        <time>2014-06-28T07:11:07.000Z</time>
      </trkpt>
      <trkpt lat="45.14988" lon="5.66173">
        <ele>830</ele>
        <time>2014-06-28T07:11:08.000Z</time>
      </trkpt>
      <trkpt lat="45.14988" lon="5.66173">
        <ele>830</ele>
        <time>2014-06-28T07:11:09.000Z</time>
      </trkpt>
      <trkpt lat="45.14988" lon="5.66172">
        <ele>830</ele>
        <time>2014-06-28T07:11:10.000Z</time>
      </trkpt>
      <trkpt lat="45.14988" lon="5.66171">
        <ele>830</ele>
        <time>2014-06-28T07:11:11.000Z</time>
      </trkpt>
      <trkpt lat="45.14988" lon="5.6617">
        <ele>831</ele>
        <time>2014-06-28T07:11:12.000Z</time>
      </trkpt>
      <trkpt lat="45.14988" lon="5.66169">
        <ele>831</ele>
        <time>2014-06-28T07:11:13.000Z</time>
      </trkpt>
      <trkpt lat="45.14988" lon="5.66168">
        <ele>831</ele>
        <time>2014-06-28T07:11:14.000Z</time>
      </trkpt>
      <trkpt lat="45.14989" lon="5.66167">
        <ele>831</ele>
        <time>2014-06-28T07:11:15.000Z</time>
      </trkpt>
      <trkpt lat="45.14989" lon="5.66166">
        <ele>831</ele>
        <time>2014-06-28T07:11:16.000Z</time>
      </trkpt>
      <trkpt lat="45.14989" lon="5.66165">
        <ele>831</ele>
        <time>2014-06-28T07:11:17.000Z</time>
      </trkpt>
      <trkpt lat="45.14989" lon="5.66164">
        <ele>831</ele>
        <time>2014-06-28T07:11:18.000Z</time>
      </trkpt>
      <trkpt lat="45.14989" lon="5.66163">
        <ele>832</ele>
        <time>2014-06-28T07:11:19.000Z</time>
      </trkpt>
      <trkpt lat="45.14988" lon="5.66162">
        <ele>832</ele>
        <time>2014-06-28T07:11:20.000Z</time>
      </trkpt>
      <trkpt lat="45.14988" lon="5.6616">
        <ele>832</ele>
        <time>2014-06-28T07:11:21.000Z</time>
      </trkpt>
      <trkpt lat="45.14988" lon="5.66159">
        <ele>832</ele>
        <time>2014-06-28T07:11:22.000Z</time>
      </trkpt>
      <trkpt lat="45.14988" lon="5.66157">
        <ele>833</ele>
        <time>2014-06-28T07:11:23.000Z</time>
      </trkpt>
      <trkpt lat="45.14988" lon="5.66156">
        <ele>833</ele>
        <time>2014-06-28T07:11:24.000Z</time>
      </trkpt>
      <trkpt lat="45.14988" lon="5.66154">
        <ele>833</ele>
        <time>2014-06-28T07:11:25.000Z</time>
      </trkpt>
      <trkpt lat="45.14987" lon="5.66152">
        <ele>833</ele>
        <time>2014-06-28T07:11:26.000Z</time>
      </trkpt>
      <trkpt lat="45.14987" lon="5.66151">
        <ele>833</ele>
        <time>2014-06-28T07:11:27.000Z</time>
      </trkpt>
      <trkpt lat="45.14988" lon="5.6615">
        <ele>834</ele>
        <time>2014-06-28T07:11:28.000Z</time>
      </trkpt>
      <trkpt lat="45.14988" lon="5.66149">
        <ele>834</ele>
        <time>2014-06-28T07:11:29.000Z</time>
      </trkpt>
      <trkpt lat="45.14988" lon="5.66147">
        <ele>834</ele>
        <time>2014-06-28T07:11:30.000Z</time>
      </trkpt>
      <trkpt lat="45.14988" lon="5.66146">
        <ele>834</ele>
        <time>2014-06-28T07:11:31.000Z</time>
      </trkpt>
      <trkpt lat="45.14987" lon="5.66145">
        <ele>834</ele>
        <time>2014-06-28T07:11:32.000Z</time>
      </trkpt>
      <trkpt lat="45.14987" lon="5.66143">
        <ele>835</ele>
        <time>2014-06-28T07:11:33.000Z</time>
      </trkpt>
      <trkpt lat="45.14987" lon="5.66142">
        <ele>835</ele>
        <time>2014-06-28T07:11:34.000Z</time>
      </trkpt>
      <trkpt lat="45.14987" lon="5.66141">
        <ele>835</ele>
        <time>2014-06-28T07:11:35.000Z</time>
      </trkpt>
      <trkpt lat="45.14987" lon="5.66139">
        <ele>835</ele>
        <time>2014-06-28T07:11:36.000Z</time>
      </trkpt>
      <trkpt lat="45.14987" lon="5.66138">
        <ele>835</ele>
        <time>2014-06-28T07:11:37.000Z</time>
      </trkpt>
      <trkpt lat="45.14987" lon="5.66137">
        <ele>836</ele>
        <time>2014-06-28T07:11:38.000Z</time>
      </trkpt>
      <trkpt lat="45.14986" lon="5.66136">
        <ele>836</ele>
        <time>2014-06-28T07:11:39.000Z</time>
      </trkpt>
      <trkpt lat="45.14986" lon="5.66136">
        <ele>836</ele>
        <time>2014-06-28T07:11:40.000Z</time>
      </trkpt>
      <trkpt lat="45.14986" lon="5.66135">
        <ele>836</ele>
        <time>2014-06-28T07:11:41.000Z</time>
      </trkpt>
      <trkpt lat="45.14985" lon="5.66134">
        <ele>837</ele>
        <time>2014-06-28T07:11:42.000Z</time>
      </trkpt>
      <trkpt lat="45.14985" lon="5.66133">
        <ele>837</ele>
        <time>2014-06-28T07:11:43.000Z</time>
      </trkpt>
      <trkpt lat="45.14985" lon="5.66132">
        <ele>837</ele>
        <time>2014-06-28T07:11:44.000Z</time>
      </trkpt>
      <trkpt lat="45.14985" lon="5.66131">
        <ele>838</ele>
        <time>2014-06-28T07:11:45.000Z</time>
      </trkpt>
      <trkpt lat="45.14985" lon="5.66129">
        <ele>838</ele>
        <time>2014-06-28T07:11:46.000Z</time>
      </trkpt>
      <trkpt lat="45.14985" lon="5.66128">
        <ele>838</ele>
        <time>2014-06-28T07:11:47.000Z</time>
      </trkpt>
      <trkpt lat="45.14984" lon="5.66127">
        <ele>839</ele>
        <time>2014-06-28T07:11:48.000Z</time>
      </trkpt>
      <trkpt lat="45.14984" lon="5.66126">
        <ele>839</ele>
        <time>2014-06-28T07:11:49.000Z</time>
      </trkpt>
      <trkpt lat="45.14984" lon="5.66125">
        <ele>839</ele>
        <time>2014-06-28T07:11:50.000Z</time>
      </trkpt>
      <trkpt lat="45.14985" lon="5.66123">
        <ele>839</ele>
        <time>2014-06-28T07:11:51.000Z</time>
      </trkpt>
      <trkpt lat="45.14985" lon="5.66122">
        <ele>840</ele>
        <time>2014-06-28T07:11:52.000Z</time>
      </trkpt>
      <trkpt lat="45.14985" lon="5.66121">
        <ele>840</ele>
        <time>2014-06-28T07:11:53.000Z</time>
      </trkpt>
      <trkpt lat="45.14985" lon="5.6612">
        <ele>840</ele>
        <time>2014-06-28T07:11:54.000Z</time>
      </trkpt>
      <trkpt lat="45.14985" lon="5.66119">
        <ele>840</ele>
        <time>2014-06-28T07:11:55.000Z</time>
      </trkpt>
      <trkpt lat="45.14985" lon="5.66118">
        <ele>841</ele>
        <time>2014-06-28T07:11:56.000Z</time>
      </trkpt>
      <trkpt lat="45.14985" lon="5.66117">
        <ele>841</ele>
        <time>2014-06-28T07:11:57.000Z</time>
      </trkpt>
      <trkpt lat="45.14984" lon="5.66116">
        <ele>841</ele>
        <time>2014-06-28T07:11:58.000Z</time>
      </trkpt>
      <trkpt lat="45.14984" lon="5.66115">
        <ele>841</ele>
        <time>2014-06-28T07:11:59.000Z</time>
      </trkpt>
      <trkpt lat="45.14984" lon="5.66113">
        <ele>842</ele>
        <time>2014-06-28T07:12:00.000Z</time>
      </trkpt>
      <trkpt lat="45.14984" lon="5.66112">
        <ele>842</ele>
        <time>2014-06-28T07:12:01.000Z</time>
      </trkpt>
      <trkpt lat="45.14983" lon="5.6611">
        <ele>842</ele>
        <time>2014-06-28T07:12:02.000Z</time>
      </trkpt>
      <trkpt lat="45.14983" lon="5.66109">
        <ele>842</ele>
        <time>2014-06-28T07:12:03.000Z</time>
      </trkpt>
      <trkpt lat="45.14983" lon="5.66108">
        <ele>842</ele>
        <time>2014-06-28T07:12:04.000Z</time>
      </trkpt>
      <trkpt lat="45.14983" lon="5.66106">
        <ele>843</ele>
        <time>2014-06-28T07:12:05.000Z</time>
      </trkpt>
      <trkpt lat="45.14983" lon="5.66105">
        <ele>843</ele>
        <time>2014-06-28T07:12:06.000Z</time>
      </trkpt>
      <trkpt lat="45.14983" lon="5.66104">
        <ele>843</ele>
        <time>2014-06-28T07:12:07.000Z</time>
      </trkpt>
      <trkpt lat="45.14984" lon="5.66102">
        <ele>844</ele>
        <time>2014-06-28T07:12:08.000Z</time>
      </trkpt>
      <trkpt lat="45.14984" lon="5.66101">
        <ele>844</ele>
        <time>2014-06-28T07:12:09.000Z</time>
      </trkpt>
      <trkpt lat="45.14984" lon="5.661">
        <ele>844</ele>
        <time>2014-06-28T07:12:10.000Z</time>
      </trkpt>
      <trkpt lat="45.14984" lon="5.66099">
        <ele>844</ele>
        <time>2014-06-28T07:12:11.000Z</time>
      </trkpt>
      <trkpt lat="45.14984" lon="5.66097">
        <ele>844</ele>
        <time>2014-06-28T07:12:12.000Z</time>
      </trkpt>
      <trkpt lat="45.14984" lon="5.66096">
        <ele>845</ele>
        <time>2014-06-28T07:12:13.000Z</time>
      </trkpt>
      <trkpt lat="45.14984" lon="5.66095">
        <ele>845</ele>
        <time>2014-06-28T07:12:14.000Z</time>
      </trkpt>
      <trkpt lat="45.14984" lon="5.66094">
        <ele>845</ele>
        <time>2014-06-28T07:12:15.000Z</time>
      </trkpt>
      <trkpt lat="45.14984" lon="5.66093">
        <ele>845</ele>
        <time>2014-06-28T07:12:16.000Z</time>
      </trkpt>
      <trkpt lat="45.14984" lon="5.66091">
        <ele>846</ele>
        <time>2014-06-28T07:12:17.000Z</time>
      </trkpt>
      <trkpt lat="45.14984" lon="5.6609">
        <ele>846</ele>
        <time>2014-06-28T07:12:18.000Z</time>
      </trkpt>
      <trkpt lat="45.14984" lon="5.66089">
        <ele>846</ele>
        <time>2014-06-28T07:12:19.000Z</time>
      </trkpt>
      <trkpt lat="45.14985" lon="5.66087">
        <ele>847</ele>
        <time>2014-06-28T07:12:20.000Z</time>
      </trkpt>
      <trkpt lat="45.14985" lon="5.66086">
        <ele>847</ele>
        <time>2014-06-28T07:12:21.000Z</time>
      </trkpt>
      <trkpt lat="45.14985" lon="5.66085">
        <ele>847</ele>
        <time>2014-06-28T07:12:22.000Z</time>
      </trkpt>
      <trkpt lat="45.14985" lon="5.66083">
        <ele>848</ele>
        <time>2014-06-28T07:12:23.000Z</time>
      </trkpt>
      <trkpt lat="45.14985" lon="5.66082">
        <ele>848</ele>
        <time>2014-06-28T07:12:24.000Z</time>
      </trkpt>
      <trkpt lat="45.14985" lon="5.66081">
        <ele>848</ele>
        <time>2014-06-28T07:12:25.000Z</time>
      </trkpt>
      <trkpt lat="45.14985" lon="5.6608">
        <ele>848</ele>
        <time>2014-06-28T07:12:26.000Z</time>
      </trkpt>
      <trkpt lat="45.14985" lon="5.66079">
        <ele>849</ele>
        <time>2014-06-28T07:12:27.000Z</time>
      </trkpt>
      <trkpt lat="45.14986" lon="5.66077">
        <ele>849</ele>
        <time>2014-06-28T07:12:28.000Z</time>
      </trkpt>
      <trkpt lat="45.14986" lon="5.66076">
        <ele>849</ele>
        <time>2014-06-28T07:12:29.000Z</time>
      </trkpt>
      <trkpt lat="45.14986" lon="5.66074">
        <ele>850</ele>
        <time>2014-06-28T07:12:30.000Z</time>
      </trkpt>
      <trkpt lat="45.14986" lon="5.66073">
        <ele>850</ele>
        <time>2014-06-28T07:12:31.000Z</time>
      </trkpt>
      <trkpt lat="45.14987" lon="5.66071">
        <ele>850</ele>
        <time>2014-06-28T07:12:32.000Z</time>
      </trkpt>
      <trkpt lat="45.14986" lon="5.6607">
        <ele>850</ele>
        <time>2014-06-28T07:12:33.000Z</time>
      </trkpt>
      <trkpt lat="45.14986" lon="5.66068">
        <ele>851</ele>
        <time>2014-06-28T07:12:34.000Z</time>
      </trkpt>
      <trkpt lat="45.14986" lon="5.66067">
        <ele>851</ele>
        <time>2014-06-28T07:12:35.000Z</time>
      </trkpt>
      <trkpt lat="45.14986" lon="5.66066">
        <ele>851</ele>
        <time>2014-06-28T07:12:36.000Z</time>
      </trkpt>
      <trkpt lat="45.14986" lon="5.66065">
        <ele>851</ele>
        <time>2014-06-28T07:12:37.000Z</time>
      </trkpt>
      <trkpt lat="45.14986" lon="5.66064">
        <ele>851</ele>
        <time>2014-06-28T07:12:38.000Z</time>
      </trkpt>
      <trkpt lat="45.14986" lon="5.66063">
        <ele>851</ele>
        <time>2014-06-28T07:12:39.000Z</time>
      </trkpt>
      <trkpt lat="45.14986" lon="5.66062">
        <ele>851</ele>
        <time>2014-06-28T07:12:40.000Z</time>
      </trkpt>
      <trkpt lat="45.14987" lon="5.66061">
        <ele>851</ele>
        <time>2014-06-28T07:12:41.000Z</time>
      </trkpt>
      <trkpt lat="45.14987" lon="5.6606">
        <ele>852</ele>
        <time>2014-06-28T07:12:42.000Z</time>
      </trkpt>
      <trkpt lat="45.14987" lon="5.66058">
        <ele>852</ele>
        <time>2014-06-28T07:12:43.000Z</time>
      </trkpt>
      <trkpt lat="45.14987" lon="5.66057">
        <ele>852</ele>
        <time>2014-06-28T07:12:44.000Z</time>
      </trkpt>
      <trkpt lat="45.14987" lon="5.66056">
        <ele>852</ele>
        <time>2014-06-28T07:12:45.000Z</time>
      </trkpt>
      <trkpt lat="45.14986" lon="5.66054">
        <ele>852</ele>
        <time>2014-06-28T07:12:46.000Z</time>
      </trkpt>
      <trkpt lat="45.14986" lon="5.66053">
        <ele>852</ele>
        <time>2014-06-28T07:12:47.000Z</time>
      </trkpt>
      <trkpt lat="45.14986" lon="5.66051">
        <ele>853</ele>
        <time>2014-06-28T07:12:48.000Z</time>
      </trkpt>
      <trkpt lat="45.14986" lon="5.6605">
        <ele>853</ele>
        <time>2014-06-28T07:12:49.000Z</time>
      </trkpt>
      <trkpt lat="45.14986" lon="5.66048">
        <ele>853</ele>
        <time>2014-06-28T07:12:50.000Z</time>
      </trkpt>
      <trkpt lat="45.14986" lon="5.66046">
        <ele>853</ele>
        <time>2014-06-28T07:12:51.000Z</time>
      </trkpt>
      <trkpt lat="45.14986" lon="5.66044">
        <ele>853</ele>
        <time>2014-06-28T07:12:52.000Z</time>
      </trkpt>
      <trkpt lat="45.14986" lon="5.66042">
        <ele>853</ele>
        <time>2014-06-28T07:12:53.000Z</time>
      </trkpt>
      <trkpt lat="45.14986" lon="5.66041">
        <ele>853</ele>
        <time>2014-06-28T07:12:54.000Z</time>
      </trkpt>
      <trkpt lat="45.14986" lon="5.66039">
        <ele>854</ele>
        <time>2014-06-28T07:12:55.000Z</time>
      </trkpt>
      <trkpt lat="45.14986" lon="5.66037">
        <ele>854</ele>
        <time>2014-06-28T07:12:56.000Z</time>
      </trkpt>
      <trkpt lat="45.14987" lon="5.66036">
        <ele>854</ele>
        <time>2014-06-28T07:12:57.000Z</time>
      </trkpt>
      <trkpt lat="45.14987" lon="5.66034">
        <ele>855</ele>
        <time>2014-06-28T07:12:58.000Z</time>
      </trkpt>
      <trkpt lat="45.14987" lon="5.66033">
        <ele>855</ele>
        <time>2014-06-28T07:12:59.000Z</time>
      </trkpt>
      <trkpt lat="45.14987" lon="5.66031">
        <ele>856</ele>
        <time>2014-06-28T07:13:00.000Z</time>
      </trkpt>
      <trkpt lat="45.14986" lon="5.66029">
        <ele>856</ele>
        <time>2014-06-28T07:13:01.000Z</time>
      </trkpt>
      <trkpt lat="45.14986" lon="5.66028">
        <ele>856</ele>
        <time>2014-06-28T07:13:02.000Z</time>
      </trkpt>
      <trkpt lat="45.14986" lon="5.66026">
        <ele>857</ele>
        <time>2014-06-28T07:13:03.000Z</time>
      </trkpt>
      <trkpt lat="45.14986" lon="5.66024">
        <ele>857</ele>
        <time>2014-06-28T07:13:04.000Z</time>
      </trkpt>
      <trkpt lat="45.14986" lon="5.66023">
        <ele>858</ele>
        <time>2014-06-28T07:13:05.000Z</time>
      </trkpt>
      <trkpt lat="45.14985" lon="5.66021">
        <ele>858</ele>
        <time>2014-06-28T07:13:06.000Z</time>
      </trkpt>
      <trkpt lat="45.14985" lon="5.6602">
        <ele>858</ele>
        <time>2014-06-28T07:13:07.000Z</time>
      </trkpt>
      <trkpt lat="45.14985" lon="5.66018">
        <ele>859</ele>
        <time>2014-06-28T07:13:08.000Z</time>
      </trkpt>
      <trkpt lat="45.14985" lon="5.66017">
        <ele>859</ele>
        <time>2014-06-28T07:13:09.000Z</time>
      </trkpt>
      <trkpt lat="45.14985" lon="5.66016">
        <ele>860</ele>
        <time>2014-06-28T07:13:10.000Z</time>
      </trkpt>
      <trkpt lat="45.14985" lon="5.66015">
        <ele>860</ele>
        <time>2014-06-28T07:13:11.000Z</time>
      </trkpt>
      <trkpt lat="45.14985" lon="5.66014">
        <ele>861</ele>
        <time>2014-06-28T07:13:12.000Z</time>
      </trkpt>
      <trkpt lat="45.14985" lon="5.66012">
        <ele>861</ele>
        <time>2014-06-28T07:13:13.000Z</time>
      </trkpt>
      <trkpt lat="45.14985" lon="5.66011">
        <ele>862</ele>
        <time>2014-06-28T07:13:14.000Z</time>
      </trkpt>
      <trkpt lat="45.14986" lon="5.66009">
        <ele>862</ele>
        <time>2014-06-28T07:13:15.000Z</time>
      </trkpt>
      <trkpt lat="45.14986" lon="5.66008">
        <ele>863</ele>
        <time>2014-06-28T07:13:16.000Z</time>
      </trkpt>
      <trkpt lat="45.14986" lon="5.66006">
        <ele>863</ele>
        <time>2014-06-28T07:13:17.000Z</time>
      </trkpt>
      <trkpt lat="45.14986" lon="5.66005">
        <ele>864</ele>
        <time>2014-06-28T07:13:18.000Z</time>
      </trkpt>
      <trkpt lat="45.14985" lon="5.66003">
        <ele>864</ele>
        <time>2014-06-28T07:13:19.000Z</time>
      </trkpt>
      <trkpt lat="45.14985" lon="5.66002">
        <ele>865</ele>
        <time>2014-06-28T07:13:20.000Z</time>
      </trkpt>
      <trkpt lat="45.14985" lon="5.66">
        <ele>865</ele>
        <time>2014-06-28T07:13:21.000Z</time>
      </trkpt>
      <trkpt lat="45.14986" lon="5.65998">
        <ele>865</ele>
        <time>2014-06-28T07:13:22.000Z</time>
      </trkpt>
      <trkpt lat="45.14986" lon="5.65997">
        <ele>865</ele>
        <time>2014-06-28T07:13:23.000Z</time>
      </trkpt>
      <trkpt lat="45.14986" lon="5.65995">
        <ele>866</ele>
        <time>2014-06-28T07:13:24.000Z</time>
      </trkpt>
      <trkpt lat="45.14986" lon="5.65994">
        <ele>866</ele>
        <time>2014-06-28T07:13:25.000Z</time>
      </trkpt>
      <trkpt lat="45.14986" lon="5.65993">
        <ele>866</ele>
        <time>2014-06-28T07:13:26.000Z</time>
      </trkpt>
      <trkpt lat="45.14986" lon="5.65991">
        <ele>866</ele>
        <time>2014-06-28T07:13:27.000Z</time>
      </trkpt>
      <trkpt lat="45.14986" lon="5.6599">
        <ele>867</ele>
        <time>2014-06-28T07:13:28.000Z</time>
      </trkpt>
      <trkpt lat="45.14986" lon="5.65988">
        <ele>867</ele>
        <time>2014-06-28T07:13:29.000Z</time>
      </trkpt>
      <trkpt lat="45.14987" lon="5.65987">
        <ele>867</ele>
        <time>2014-06-28T07:13:30.000Z</time>
      </trkpt>
      <trkpt lat="45.14987" lon="5.65986">
        <ele>867</ele>
        <time>2014-06-28T07:13:31.000Z</time>
      </trkpt>
      <trkpt lat="45.14988" lon="5.65984">
        <ele>867</ele>
        <time>2014-06-28T07:13:32.000Z</time>
      </trkpt>
      <trkpt lat="45.14988" lon="5.65983">
        <ele>868</ele>
        <time>2014-06-28T07:13:33.000Z</time>
      </trkpt>
      <trkpt lat="45.14988" lon="5.65982">
        <ele>868</ele>
        <time>2014-06-28T07:13:34.000Z</time>
      </trkpt>
      <trkpt lat="45.14989" lon="5.65981">
        <ele>868</ele>
        <time>2014-06-28T07:13:35.000Z</time>
      </trkpt>
      <trkpt lat="45.14989" lon="5.6598">
        <ele>868</ele>
        <time>2014-06-28T07:13:36.000Z</time>
      </trkpt>
      <trkpt lat="45.1499" lon="5.65979">
        <ele>869</ele>
        <time>2014-06-28T07:13:37.000Z</time>
      </trkpt>
      <trkpt lat="45.1499" lon="5.65978">
        <ele>869</ele>
        <time>2014-06-28T07:13:38.000Z</time>
      </trkpt>
      <trkpt lat="45.1499" lon="5.65977">
        <ele>869</ele>
        <time>2014-06-28T07:13:39.000Z</time>
      </trkpt>
      <trkpt lat="45.1499" lon="5.65975">
        <ele>869</ele>
        <time>2014-06-28T07:13:40.000Z</time>
      </trkpt>
      <trkpt lat="45.1499" lon="5.65974">
        <ele>870</ele>
        <time>2014-06-28T07:13:41.000Z</time>
      </trkpt>
      <trkpt lat="45.14991" lon="5.65973">
        <ele>870</ele>
        <time>2014-06-28T07:13:42.000Z</time>
      </trkpt>
      <trkpt lat="45.14991" lon="5.65972">
        <ele>870</ele>
        <time>2014-06-28T07:13:43.000Z</time>
      </trkpt>
      <trkpt lat="45.14991" lon="5.6597">
        <ele>870</ele>
        <time>2014-06-28T07:13:44.000Z</time>
      </trkpt>
      <trkpt lat="45.14991" lon="5.65969">
        <ele>871</ele>
        <time>2014-06-28T07:13:45.000Z</time>
      </trkpt>
      <trkpt lat="45.14992" lon="5.65967">
        <ele>871</ele>
        <time>2014-06-28T07:13:46.000Z</time>
      </trkpt>
      <trkpt lat="45.14992" lon="5.65966">
        <ele>871</ele>
        <time>2014-06-28T07:13:47.000Z</time>
      </trkpt>
      <trkpt lat="45.14991" lon="5.65965">
        <ele>872</ele>
        <time>2014-06-28T07:13:48.000Z</time>
      </trkpt>
      <trkpt lat="45.14992" lon="5.65964">
        <ele>872</ele>
        <time>2014-06-28T07:13:49.000Z</time>
      </trkpt>
      <trkpt lat="45.14992" lon="5.65963">
        <ele>872</ele>
        <time>2014-06-28T07:13:50.000Z</time>
      </trkpt>
      <trkpt lat="45.14992" lon="5.65962">
        <ele>873</ele>
        <time>2014-06-28T07:13:51.000Z</time>
      </trkpt>
      <trkpt lat="45.14992" lon="5.65961">
        <ele>873</ele>
        <time>2014-06-28T07:13:52.000Z</time>
      </trkpt>
      <trkpt lat="45.14992" lon="5.6596">
        <ele>874</ele>
        <time>2014-06-28T07:13:53.000Z</time>
      </trkpt>
      <trkpt lat="45.14993" lon="5.65959">
        <ele>874</ele>
        <time>2014-06-28T07:13:54.000Z</time>
      </trkpt>
      <trkpt lat="45.14993" lon="5.65957">
        <ele>875</ele>
        <time>2014-06-28T07:13:55.000Z</time>
      </trkpt>
      <trkpt lat="45.14993" lon="5.65956">
        <ele>875</ele>
        <time>2014-06-28T07:13:56.000Z</time>
      </trkpt>
      <trkpt lat="45.14994" lon="5.65954">
        <ele>875</ele>
        <time>2014-06-28T07:13:57.000Z</time>
      </trkpt>
      <trkpt lat="45.14994" lon="5.65953">
        <ele>876</ele>
        <time>2014-06-28T07:13:58.000Z</time>
      </trkpt>
      <trkpt lat="45.14995" lon="5.65951">
        <ele>876</ele>
        <time>2014-06-28T07:13:59.000Z</time>
      </trkpt>
      <trkpt lat="45.14995" lon="5.65949">
        <ele>877</ele>
        <time>2014-06-28T07:14:00.000Z</time>
      </trkpt>
      <trkpt lat="45.14996" lon="5.65948">
        <ele>877</ele>
        <time>2014-06-28T07:14:01.000Z</time>
      </trkpt>
      <trkpt lat="45.14996" lon="5.65947">
        <ele>877</ele>
        <time>2014-06-28T07:14:02.000Z</time>
      </trkpt>
      <trkpt lat="45.14997" lon="5.65945">
        <ele>878</ele>
        <time>2014-06-28T07:14:03.000Z</time>
      </trkpt>
      <trkpt lat="45.14997" lon="5.65944">
        <ele>878</ele>
        <time>2014-06-28T07:14:04.000Z</time>
      </trkpt>
      <trkpt lat="45.14997" lon="5.65942">
        <ele>879</ele>
        <time>2014-06-28T07:14:05.000Z</time>
      </trkpt>
      <trkpt lat="45.14997" lon="5.65941">
        <ele>879</ele>
        <time>2014-06-28T07:14:06.000Z</time>
      </trkpt>
      <trkpt lat="45.14998" lon="5.65939">
        <ele>880</ele>
        <time>2014-06-28T07:14:07.000Z</time>
      </trkpt>
      <trkpt lat="45.14998" lon="5.65938">
        <ele>880</ele>
        <time>2014-06-28T07:14:08.000Z</time>
      </trkpt>
      <trkpt lat="45.14999" lon="5.65936">
        <ele>881</ele>
        <time>2014-06-28T07:14:09.000Z</time>
      </trkpt>
      <trkpt lat="45.14999" lon="5.65934">
        <ele>882</ele>
        <time>2014-06-28T07:14:10.000Z</time>
      </trkpt>
      <trkpt lat="45.14999" lon="5.65933">
        <ele>882</ele>
        <time>2014-06-28T07:14:11.000Z</time>
      </trkpt>
      <trkpt lat="45.14998" lon="5.65932">
        <ele>883</ele>
        <time>2014-06-28T07:14:12.000Z</time>
      </trkpt>
      <trkpt lat="45.14998" lon="5.65931">
        <ele>883</ele>
        <time>2014-06-28T07:14:13.000Z</time>
      </trkpt>
      <trkpt lat="45.14998" lon="5.6593">
        <ele>884</ele>
        <time>2014-06-28T07:14:14.000Z</time>
      </trkpt>
      <trkpt lat="45.14998" lon="5.65929">
        <ele>885</ele>
        <time>2014-06-28T07:14:15.000Z</time>
      </trkpt>
      <trkpt lat="45.14999" lon="5.65928">
        <ele>885</ele>
        <time>2014-06-28T07:14:16.000Z</time>
      </trkpt>
      <trkpt lat="45.14999" lon="5.65927">
        <ele>886</ele>
        <time>2014-06-28T07:14:17.000Z</time>
      </trkpt>
      <trkpt lat="45.14999" lon="5.65927">
        <ele>886</ele>
        <time>2014-06-28T07:14:18.000Z</time>
      </trkpt>
      <trkpt lat="45.14999" lon="5.65927">
        <ele>886</ele>
        <time>2014-06-28T07:14:19.000Z</time>
      </trkpt>
      <trkpt lat="45.14999" lon="5.65926">
        <ele>887</ele>
        <time>2014-06-28T07:14:20.000Z</time>
      </trkpt>
      <trkpt lat="45.14999" lon="5.65926">
        <ele>887</ele>
        <time>2014-06-28T07:14:21.000Z</time>
      </trkpt>
      <trkpt lat="45.15" lon="5.65925">
        <ele>887</ele>
        <time>2014-06-28T07:14:22.000Z</time>
      </trkpt>
      <trkpt lat="45.15" lon="5.65925">
        <ele>888</ele>
        <time>2014-06-28T07:14:23.000Z</time>
      </trkpt>
      <trkpt lat="45.15001" lon="5.65924">
        <ele>888</ele>
        <time>2014-06-28T07:14:24.000Z</time>
      </trkpt>
      <trkpt lat="45.15001" lon="5.65924">
        <ele>888</ele>
        <time>2014-06-28T07:14:25.000Z</time>
      </trkpt>
      <trkpt lat="45.15001" lon="5.65924">
        <ele>889</ele>
        <time>2014-06-28T07:14:26.000Z</time>
      </trkpt>
      <trkpt lat="45.15001" lon="5.65924">
        <ele>889</ele>
        <time>2014-06-28T07:14:27.000Z</time>
      </trkpt>
      <trkpt lat="45.15001" lon="5.65924">
        <ele>889</ele>
        <time>2014-06-28T07:14:28.000Z</time>
      </trkpt>
      <trkpt lat="45.15" lon="5.65924">
        <ele>890</ele>
        <time>2014-06-28T07:14:29.000Z</time>
      </trkpt>
      <trkpt lat="45.15" lon="5.65925">
        <ele>890</ele>
        <time>2014-06-28T07:14:30.000Z</time>
      </trkpt>
      <trkpt lat="45.15" lon="5.65925">
        <ele>890</ele>
        <time>2014-06-28T07:14:31.000Z</time>
      </trkpt>
      <trkpt lat="45.15" lon="5.65925">
        <ele>891</ele>
        <time>2014-06-28T07:14:32.000Z</time>
      </trkpt>
      <trkpt lat="45.15" lon="5.65925">
        <ele>891</ele>
        <time>2014-06-28T07:14:33.000Z</time>
      </trkpt>
      <trkpt lat="45.15" lon="5.65924">
        <ele>891</ele>
        <time>2014-06-28T07:14:34.000Z</time>
      </trkpt>
      <trkpt lat="45.15" lon="5.65924">
        <ele>891</ele>
        <time>2014-06-28T07:14:35.000Z</time>
      </trkpt>
      <trkpt lat="45.15" lon="5.65924">
        <ele>891</ele>
        <time>2014-06-28T07:14:36.000Z</time>
      </trkpt>
      <trkpt lat="45.15001" lon="5.65924">
        <ele>891</ele>
        <time>2014-06-28T07:14:37.000Z</time>
      </trkpt>
      <trkpt lat="45.15001" lon="5.65925">
        <ele>892</ele>
        <time>2014-06-28T07:14:38.000Z</time>
      </trkpt>
      <trkpt lat="45.15001" lon="5.65925">
        <ele>892</ele>
        <time>2014-06-28T07:14:39.000Z</time>
      </trkpt>
      <trkpt lat="45.15001" lon="5.65925">
        <ele>892</ele>
        <time>2014-06-28T07:14:40.000Z</time>
      </trkpt>
      <trkpt lat="45.15001" lon="5.65925">
        <ele>892</ele>
        <time>2014-06-28T07:14:41.000Z</time>
      </trkpt>
      <trkpt lat="45.15002" lon="5.65925">
        <ele>892</ele>
        <time>2014-06-28T07:14:42.000Z</time>
      </trkpt>
      <trkpt lat="45.15002" lon="5.65925">
        <ele>893</ele>
        <time>2014-06-28T07:14:43.000Z</time>
      </trkpt>
      <trkpt lat="45.15002" lon="5.65925">
        <ele>893</ele>
        <time>2014-06-28T07:14:44.000Z</time>
      </trkpt>
      <trkpt lat="45.15003" lon="5.65925">
        <ele>893</ele>
        <time>2014-06-28T07:14:45.000Z</time>
      </trkpt>
      <trkpt lat="45.15003" lon="5.65925">
        <ele>893</ele>
        <time>2014-06-28T07:14:46.000Z</time>
      </trkpt>
      <trkpt lat="45.15003" lon="5.65925">
        <ele>893</ele>
        <time>2014-06-28T07:14:47.000Z</time>
      </trkpt>
      <trkpt lat="45.15003" lon="5.65925">
        <ele>893</ele>
        <time>2014-06-28T07:14:48.000Z</time>
      </trkpt>
      <trkpt lat="45.15003" lon="5.65925">
        <ele>893</ele>
        <time>2014-06-28T07:14:49.000Z</time>
      </trkpt>
      <trkpt lat="45.15003" lon="5.65925">
        <ele>894</ele>
        <time>2014-06-28T07:14:50.000Z</time>
      </trkpt>
      <trkpt lat="45.15003" lon="5.65925">
        <ele>894</ele>
        <time>2014-06-28T07:14:51.000Z</time>
      </trkpt>
      <trkpt lat="45.15003" lon="5.65925">
        <ele>894</ele>
        <time>2014-06-28T07:14:52.000Z</time>
      </trkpt>
      <trkpt lat="45.15003" lon="5.65925">
        <ele>894</ele>
        <time>2014-06-28T07:14:53.000Z</time>
      </trkpt>
      <trkpt lat="45.15003" lon="5.65925">
        <ele>894</ele>
        <time>2014-06-28T07:14:54.000Z</time>
      </trkpt>
      <trkpt lat="45.15003" lon="5.65925">
        <ele>894</ele>
        <time>2014-06-28T07:14:55.000Z</time>
      </trkpt>
      <trkpt lat="45.15003" lon="5.65925">
        <ele>894</ele>
        <time>2014-06-28T07:14:56.000Z</time>
      </trkpt>
      <trkpt lat="45.15003" lon="5.65925">
        <ele>894</ele>
        <time>2014-06-28T07:14:57.000Z</time>
      </trkpt>
      <trkpt lat="45.15003" lon="5.65925">
        <ele>895</ele>
        <time>2014-06-28T07:14:58.000Z</time>
      </trkpt>
      <trkpt lat="45.15003" lon="5.65924">
        <ele>895</ele>
        <time>2014-06-28T07:14:59.000Z</time>
      </trkpt>
      <trkpt lat="45.15003" lon="5.65924">
        <ele>895</ele>
        <time>2014-06-28T07:15:00.000Z</time>
      </trkpt>
      <trkpt lat="45.15003" lon="5.65924">
        <ele>895</ele>
        <time>2014-06-28T07:15:01.000Z</time>
      </trkpt>
      <trkpt lat="45.15003" lon="5.65924">
        <ele>895</ele>
        <time>2014-06-28T07:15:02.000Z</time>
      </trkpt>
      <trkpt lat="45.15003" lon="5.65925">
        <ele>895</ele>
        <time>2014-06-28T07:15:03.000Z</time>
      </trkpt>
      <trkpt lat="45.15003" lon="5.65925">
        <ele>895</ele>
        <time>2014-06-28T07:15:04.000Z</time>
      </trkpt>
      <trkpt lat="45.15003" lon="5.65925">
        <ele>896</ele>
        <time>2014-06-28T07:15:05.000Z</time>
      </trkpt>
      <trkpt lat="45.15003" lon="5.65925">
        <ele>896</ele>
        <time>2014-06-28T07:15:06.000Z</time>
      </trkpt>
      <trkpt lat="45.15003" lon="5.65925">
        <ele>896</ele>
        <time>2014-06-28T07:15:07.000Z</time>
      </trkpt>
      <trkpt lat="45.15003" lon="5.65925">
        <ele>896</ele>
        <time>2014-06-28T07:15:08.000Z</time>
      </trkpt>
      <trkpt lat="45.15003" lon="5.65925">
        <ele>896</ele>
        <time>2014-06-28T07:15:09.000Z</time>
      </trkpt>
      <trkpt lat="45.15004" lon="5.65925">
        <ele>896</ele>
        <time>2014-06-28T07:15:10.000Z</time>
      </trkpt>
      <trkpt lat="45.15003" lon="5.65925">
        <ele>896</ele>
        <time>2014-06-28T07:15:11.000Z</time>
      </trkpt>
      <trkpt lat="45.15003" lon="5.65925">
        <ele>897</ele>
        <time>2014-06-28T07:15:12.000Z</time>
      </trkpt>
      <trkpt lat="45.15003" lon="5.65924">
        <ele>897</ele>
        <time>2014-06-28T07:15:13.000Z</time>
      </trkpt>
      <trkpt lat="45.15003" lon="5.65924">
        <ele>897</ele>
        <time>2014-06-28T07:15:14.000Z</time>
      </trkpt>
      <trkpt lat="45.15003" lon="5.65924">
        <ele>897</ele>
        <time>2014-06-28T07:15:15.000Z</time>
      </trkpt>
      <trkpt lat="45.15003" lon="5.65923">
        <ele>897</ele>
        <time>2014-06-28T07:15:16.000Z</time>
      </trkpt>
      <trkpt lat="45.15004" lon="5.65922">
        <ele>897</ele>
        <time>2014-06-28T07:15:17.000Z</time>
      </trkpt>
      <trkpt lat="45.15005" lon="5.65922">
        <ele>897</ele>
        <time>2014-06-28T07:15:18.000Z</time>
      </trkpt>
      <trkpt lat="45.15005" lon="5.6592">
        <ele>897</ele>
        <time>2014-06-28T07:15:19.000Z</time>
      </trkpt>
      <trkpt lat="45.15007" lon="5.65919">
        <ele>897</ele>
        <time>2014-06-28T07:15:20.000Z</time>
      </trkpt>
      <trkpt lat="45.15008" lon="5.65917">
        <ele>897</ele>
        <time>2014-06-28T07:15:21.000Z</time>
      </trkpt>
      <trkpt lat="45.15009" lon="5.65915">
        <ele>897</ele>
        <time>2014-06-28T07:15:22.000Z</time>
      </trkpt>
      <trkpt lat="45.15009" lon="5.65914">
        <ele>897</ele>
        <time>2014-06-28T07:15:23.000Z</time>
      </trkpt>
      <trkpt lat="45.1501" lon="5.65913">
        <ele>897</ele>
        <time>2014-06-28T07:15:24.000Z</time>
      </trkpt>
      <trkpt lat="45.1501" lon="5.65911">
        <ele>897</ele>
        <time>2014-06-28T07:15:25.000Z</time>
      </trkpt>
      <trkpt lat="45.15011" lon="5.6591">
        <ele>897</ele>
        <time>2014-06-28T07:15:26.000Z</time>
      </trkpt>
      <trkpt lat="45.15011" lon="5.65909">
        <ele>897</ele>
        <time>2014-06-28T07:15:27.000Z</time>
      </trkpt>
      <trkpt lat="45.15011" lon="5.65908">
        <ele>897</ele>
        <time>2014-06-28T07:15:28.000Z</time>
      </trkpt>
      <trkpt lat="45.15011" lon="5.65907">
        <ele>897</ele>
        <time>2014-06-28T07:15:29.000Z</time>
      </trkpt>
      <trkpt lat="45.15011" lon="5.65906">
        <ele>897</ele>
        <time>2014-06-28T07:15:30.000Z</time>
      </trkpt>
      <trkpt lat="45.15011" lon="5.65904">
        <ele>897</ele>
        <time>2014-06-28T07:15:31.000Z</time>
      </trkpt>
      <trkpt lat="45.15011" lon="5.65903">
        <ele>897</ele>
        <time>2014-06-28T07:15:32.000Z</time>
      </trkpt>
      <trkpt lat="45.15011" lon="5.65901">
        <ele>897</ele>
        <time>2014-06-28T07:15:33.000Z</time>
      </trkpt>
      <trkpt lat="45.15012" lon="5.659">
        <ele>897</ele>
        <time>2014-06-28T07:15:34.000Z</time>
      </trkpt>
      <trkpt lat="45.15012" lon="5.65898">
        <ele>897</ele>
        <time>2014-06-28T07:15:35.000Z</time>
      </trkpt>
      <trkpt lat="45.15012" lon="5.65895">
        <ele>896</ele>
        <time>2014-06-28T07:15:36.000Z</time>
      </trkpt>
      <trkpt lat="45.15012" lon="5.65893">
        <ele>896</ele>
        <time>2014-06-28T07:15:37.000Z</time>
      </trkpt>
      <trkpt lat="45.15013" lon="5.65891">
        <ele>896</ele>
        <time>2014-06-28T07:15:38.000Z</time>
      </trkpt>
      <trkpt lat="45.15013" lon="5.65889">
        <ele>896</ele>
        <time>2014-06-28T07:15:39.000Z</time>
      </trkpt>
      <trkpt lat="45.15013" lon="5.65887">
        <ele>896</ele>
        <time>2014-06-28T07:15:40.000Z</time>
      </trkpt>
      <trkpt lat="45.15014" lon="5.65886">
        <ele>897</ele>
        <time>2014-06-28T07:15:41.000Z</time>
      </trkpt>
      <trkpt lat="45.15015" lon="5.65884">
        <ele>897</ele>
        <time>2014-06-28T07:15:42.000Z</time>
      </trkpt>
      <trkpt lat="45.15015" lon="5.65882">
        <ele>897</ele>
        <time>2014-06-28T07:15:43.000Z</time>
      </trkpt>
      <trkpt lat="45.15016" lon="5.65881">
        <ele>897</ele>
        <time>2014-06-28T07:15:44.000Z</time>
      </trkpt>
      <trkpt lat="45.15017" lon="5.6588">
        <ele>897</ele>
        <time>2014-06-28T07:15:45.000Z</time>
      </trkpt>
      <trkpt lat="45.15018" lon="5.65878">
        <ele>897</ele>
        <time>2014-06-28T07:15:46.000Z</time>
      </trkpt>
      <trkpt lat="45.15019" lon="5.65877">
        <ele>897</ele>
        <time>2014-06-28T07:15:47.000Z</time>
      </trkpt>
      <trkpt lat="45.15019" lon="5.65875">
        <ele>897</ele>
        <time>2014-06-28T07:15:48.000Z</time>
      </trkpt>
      <trkpt lat="45.1502" lon="5.65873">
        <ele>897</ele>
        <time>2014-06-28T07:15:49.000Z</time>
      </trkpt>
      <trkpt lat="45.1502" lon="5.65872">
        <ele>897</ele>
        <time>2014-06-28T07:15:50.000Z</time>
      </trkpt>
      <trkpt lat="45.1502" lon="5.65871">
        <ele>897</ele>
        <time>2014-06-28T07:15:51.000Z</time>
      </trkpt>
      <trkpt lat="45.1502" lon="5.65869">
        <ele>897</ele>
        <time>2014-06-28T07:15:52.000Z</time>
      </trkpt>
      <trkpt lat="45.15019" lon="5.65868">
        <ele>897</ele>
        <time>2014-06-28T07:15:53.000Z</time>
      </trkpt>
      <trkpt lat="45.15019" lon="5.65867">
        <ele>897</ele>
        <time>2014-06-28T07:15:54.000Z</time>
      </trkpt>
      <trkpt lat="45.15018" lon="5.65866">
        <ele>898</ele>
        <time>2014-06-28T07:15:55.000Z</time>
      </trkpt>
      <trkpt lat="45.15018" lon="5.65865">
        <ele>898</ele>
        <time>2014-06-28T07:15:56.000Z</time>
      </trkpt>
      <trkpt lat="45.15017" lon="5.65864">
        <ele>898</ele>
        <time>2014-06-28T07:15:57.000Z</time>
      </trkpt>
      <trkpt lat="45.15016" lon="5.65863">
        <ele>898</ele>
        <time>2014-06-28T07:15:58.000Z</time>
      </trkpt>
      <trkpt lat="45.15015" lon="5.65862">
        <ele>899</ele>
        <time>2014-06-28T07:15:59.000Z</time>
      </trkpt>
      <trkpt lat="45.15014" lon="5.65861">
        <ele>899</ele>
        <time>2014-06-28T07:16:00.000Z</time>
      </trkpt>
      <trkpt lat="45.15013" lon="5.65859">
        <ele>899</ele>
        <time>2014-06-28T07:16:01.000Z</time>
      </trkpt>
      <trkpt lat="45.15012" lon="5.65858">
        <ele>900</ele>
        <time>2014-06-28T07:16:02.000Z</time>
      </trkpt>
      <trkpt lat="45.15011" lon="5.65857">
        <ele>900</ele>
        <time>2014-06-28T07:16:03.000Z</time>
      </trkpt>
      <trkpt lat="45.1501" lon="5.65856">
        <ele>900</ele>
        <time>2014-06-28T07:16:04.000Z</time>
      </trkpt>
      <trkpt lat="45.15009" lon="5.65855">
        <ele>900</ele>
        <time>2014-06-28T07:16:05.000Z</time>
      </trkpt>
      <trkpt lat="45.15008" lon="5.65855">
        <ele>901</ele>
        <time>2014-06-28T07:16:06.000Z</time>
      </trkpt>
      <trkpt lat="45.15007" lon="5.65854">
        <ele>901</ele>
        <time>2014-06-28T07:16:07.000Z</time>
      </trkpt>
      <trkpt lat="45.15006" lon="5.65853">
        <ele>901</ele>
        <time>2014-06-28T07:16:08.000Z</time>
      </trkpt>
      <trkpt lat="45.15005" lon="5.65853">
        <ele>901</ele>
        <time>2014-06-28T07:16:09.000Z</time>
      </trkpt>
      <trkpt lat="45.15004" lon="5.65852">
        <ele>902</ele>
        <time>2014-06-28T07:16:10.000Z</time>
      </trkpt>
      <trkpt lat="45.15003" lon="5.65852">
        <ele>902</ele>
        <time>2014-06-28T07:16:11.000Z</time>
      </trkpt>
      <trkpt lat="45.15002" lon="5.65852">
        <ele>903</ele>
        <time>2014-06-28T07:16:12.000Z</time>
      </trkpt>
      <trkpt lat="45.15001" lon="5.65852">
        <ele>903</ele>
        <time>2014-06-28T07:16:13.000Z</time>
      </trkpt>
      <trkpt lat="45.15" lon="5.65852">
        <ele>904</ele>
        <time>2014-06-28T07:16:14.000Z</time>
      </trkpt>
      <trkpt lat="45.14999" lon="5.65852">
        <ele>904</ele>
        <time>2014-06-28T07:16:15.000Z</time>
      </trkpt>
      <trkpt lat="45.14998" lon="5.65852">
        <ele>904</ele>
        <time>2014-06-28T07:16:16.000Z</time>
      </trkpt>
      <trkpt lat="45.14997" lon="5.65853">
        <ele>905</ele>
        <time>2014-06-28T07:16:17.000Z</time>
      </trkpt>
      <trkpt lat="45.14996" lon="5.65853">
        <ele>905</ele>
        <time>2014-06-28T07:16:18.000Z</time>
      </trkpt>
      <trkpt lat="45.14995" lon="5.65853">
        <ele>905</ele>
        <time>2014-06-28T07:16:19.000Z</time>
      </trkpt>
      <trkpt lat="45.14994" lon="5.65853">
        <ele>906</ele>
        <time>2014-06-28T07:16:20.000Z</time>
      </trkpt>
      <trkpt lat="45.14993" lon="5.65852">
        <ele>906</ele>
        <time>2014-06-28T07:16:21.000Z</time>
      </trkpt>
      <trkpt lat="45.14992" lon="5.65852">
        <ele>907</ele>
        <time>2014-06-28T07:16:22.000Z</time>
      </trkpt>
      <trkpt lat="45.14992" lon="5.65852">
        <ele>907</ele>
        <time>2014-06-28T07:16:23.000Z</time>
      </trkpt>
      <trkpt lat="45.14991" lon="5.65852">
        <ele>907</ele>
        <time>2014-06-28T07:16:24.000Z</time>
      </trkpt>
      <trkpt lat="45.14991" lon="5.65851">
        <ele>908</ele>
        <time>2014-06-28T07:16:25.000Z</time>
      </trkpt>
      <trkpt lat="45.14991" lon="5.65851">
        <ele>908</ele>
        <time>2014-06-28T07:16:26.000Z</time>
      </trkpt>
      <trkpt lat="45.14991" lon="5.6585">
        <ele>908</ele>
        <time>2014-06-28T07:16:27.000Z</time>
      </trkpt>
      <trkpt lat="45.14991" lon="5.65849">
        <ele>908</ele>
        <time>2014-06-28T07:16:28.000Z</time>
      </trkpt>
      <trkpt lat="45.14992" lon="5.65847">
        <ele>908</ele>
        <time>2014-06-28T07:16:29.000Z</time>
      </trkpt>
      <trkpt lat="45.14992" lon="5.65846">
        <ele>908</ele>
        <time>2014-06-28T07:16:30.000Z</time>
      </trkpt>
      <trkpt lat="45.14992" lon="5.65845">
        <ele>908</ele>
        <time>2014-06-28T07:16:31.000Z</time>
      </trkpt>
      <trkpt lat="45.14993" lon="5.65843">
        <ele>908</ele>
        <time>2014-06-28T07:16:32.000Z</time>
      </trkpt>
      <trkpt lat="45.14993" lon="5.65842">
        <ele>909</ele>
        <time>2014-06-28T07:16:33.000Z</time>
      </trkpt>
      <trkpt lat="45.14993" lon="5.65841">
        <ele>909</ele>
        <time>2014-06-28T07:16:34.000Z</time>
      </trkpt>
      <trkpt lat="45.14994" lon="5.6584">
        <ele>909</ele>
        <time>2014-06-28T07:16:35.000Z</time>
      </trkpt>
      <trkpt lat="45.14995" lon="5.65839">
        <ele>909</ele>
        <time>2014-06-28T07:16:36.000Z</time>
      </trkpt>
      <trkpt lat="45.14995" lon="5.65837">
        <ele>909</ele>
        <time>2014-06-28T07:16:37.000Z</time>
      </trkpt>
      <trkpt lat="45.14996" lon="5.65836">
        <ele>909</ele>
        <time>2014-06-28T07:16:38.000Z</time>
      </trkpt>
      <trkpt lat="45.14996" lon="5.65835">
        <ele>909</ele>
        <time>2014-06-28T07:16:39.000Z</time>
      </trkpt>
      <trkpt lat="45.14996" lon="5.65834">
        <ele>909</ele>
        <time>2014-06-28T07:16:40.000Z</time>
      </trkpt>
      <trkpt lat="45.14997" lon="5.65833">
        <ele>909</ele>
        <time>2014-06-28T07:16:41.000Z</time>
      </trkpt>
      <trkpt lat="45.14997" lon="5.65831">
        <ele>910</ele>
        <time>2014-06-28T07:16:42.000Z</time>
      </trkpt>
      <trkpt lat="45.14997" lon="5.6583">
        <ele>910</ele>
        <time>2014-06-28T07:16:43.000Z</time>
      </trkpt>
      <trkpt lat="45.14997" lon="5.65829">
        <ele>910</ele>
        <time>2014-06-28T07:16:44.000Z</time>
      </trkpt>
      <trkpt lat="45.14997" lon="5.65828">
        <ele>911</ele>
        <time>2014-06-28T07:16:45.000Z</time>
      </trkpt>
      <trkpt lat="45.14997" lon="5.65826">
        <ele>911</ele>
        <time>2014-06-28T07:16:46.000Z</time>
      </trkpt>
      <trkpt lat="45.14997" lon="5.65825">
        <ele>911</ele>
        <time>2014-06-28T07:16:47.000Z</time>
      </trkpt>
      <trkpt lat="45.14997" lon="5.65824">
        <ele>912</ele>
        <time>2014-06-28T07:16:48.000Z</time>
      </trkpt>
      <trkpt lat="45.14996" lon="5.65823">
        <ele>912</ele>
        <time>2014-06-28T07:16:49.000Z</time>
      </trkpt>
      <trkpt lat="45.14995" lon="5.65822">
        <ele>913</ele>
        <time>2014-06-28T07:16:50.000Z</time>
      </trkpt>
      <trkpt lat="45.14994" lon="5.65821">
        <ele>913</ele>
        <time>2014-06-28T07:16:51.000Z</time>
      </trkpt>
      <trkpt lat="45.14993" lon="5.6582">
        <ele>914</ele>
        <time>2014-06-28T07:16:52.000Z</time>
      </trkpt>
      <trkpt lat="45.14993" lon="5.6582">
        <ele>914</ele>
        <time>2014-06-28T07:16:53.000Z</time>
      </trkpt>
      <trkpt lat="45.14992" lon="5.65819">
        <ele>915</ele>
        <time>2014-06-28T07:16:54.000Z</time>
      </trkpt>
      <trkpt lat="45.14991" lon="5.65818">
        <ele>915</ele>
        <time>2014-06-28T07:16:55.000Z</time>
      </trkpt>
      <trkpt lat="45.1499" lon="5.65818">
        <ele>916</ele>
        <time>2014-06-28T07:16:56.000Z</time>
      </trkpt>
      <trkpt lat="45.14989" lon="5.65817">
        <ele>917</ele>
        <time>2014-06-28T07:16:57.000Z</time>
      </trkpt>
      <trkpt lat="45.14987" lon="5.65818">
        <ele>917</ele>
        <time>2014-06-28T07:16:58.000Z</time>
      </trkpt>
      <trkpt lat="45.14986" lon="5.65818">
        <ele>918</ele>
        <time>2014-06-28T07:16:59.000Z</time>
      </trkpt>
      <trkpt lat="45.14985" lon="5.65818">
        <ele>918</ele>
        <time>2014-06-28T07:17:00.000Z</time>
      </trkpt>
      <trkpt lat="45.14984" lon="5.65818">
        <ele>919</ele>
        <time>2014-06-28T07:17:01.000Z</time>
      </trkpt>
      <trkpt lat="45.14982" lon="5.65818">
        <ele>920</ele>
        <time>2014-06-28T07:17:02.000Z</time>
      </trkpt>
      <trkpt lat="45.14981" lon="5.65818">
        <ele>920</ele>
        <time>2014-06-28T07:17:03.000Z</time>
      </trkpt>
      <trkpt lat="45.1498" lon="5.65817">
        <ele>921</ele>
        <time>2014-06-28T07:17:04.000Z</time>
      </trkpt>
      <trkpt lat="45.1498" lon="5.65817">
        <ele>921</ele>
        <time>2014-06-28T07:17:05.000Z</time>
      </trkpt>
      <trkpt lat="45.14979" lon="5.65816">
        <ele>921</ele>
        <time>2014-06-28T07:17:06.000Z</time>
      </trkpt>
      <trkpt lat="45.14979" lon="5.65815">
        <ele>921</ele>
        <time>2014-06-28T07:17:07.000Z</time>
      </trkpt>
      <trkpt lat="45.14979" lon="5.65814">
        <ele>922</ele>
        <time>2014-06-28T07:17:08.000Z</time>
      </trkpt>
      <trkpt lat="45.14979" lon="5.65813">
        <ele>922</ele>
        <time>2014-06-28T07:17:09.000Z</time>
      </trkpt>
      <trkpt lat="45.14979" lon="5.65812">
        <ele>922</ele>
        <time>2014-06-28T07:17:10.000Z</time>
      </trkpt>
      <trkpt lat="45.14979" lon="5.65811">
        <ele>922</ele>
        <time>2014-06-28T07:17:11.000Z</time>
      </trkpt>
      <trkpt lat="45.14979" lon="5.6581">
        <ele>922</ele>
        <time>2014-06-28T07:17:12.000Z</time>
      </trkpt>
      <trkpt lat="45.14979" lon="5.65809">
        <ele>922</ele>
        <time>2014-06-28T07:17:13.000Z</time>
      </trkpt>
      <trkpt lat="45.14979" lon="5.65808">
        <ele>923</ele>
        <time>2014-06-28T07:17:14.000Z</time>
      </trkpt>
      <trkpt lat="45.14979" lon="5.65807">
        <ele>923</ele>
        <time>2014-06-28T07:17:15.000Z</time>
      </trkpt>
      <trkpt lat="45.1498" lon="5.65807">
        <ele>923</ele>
        <time>2014-06-28T07:17:16.000Z</time>
      </trkpt>
      <trkpt lat="45.1498" lon="5.65806">
        <ele>923</ele>
        <time>2014-06-28T07:17:17.000Z</time>
      </trkpt>
      <trkpt lat="45.1498" lon="5.65805">
        <ele>924</ele>
        <time>2014-06-28T07:17:18.000Z</time>
      </trkpt>
      <trkpt lat="45.1498" lon="5.65804">
        <ele>924</ele>
        <time>2014-06-28T07:17:19.000Z</time>
      </trkpt>
      <trkpt lat="45.1498" lon="5.65803">
        <ele>924</ele>
        <time>2014-06-28T07:17:20.000Z</time>
      </trkpt>
      <trkpt lat="45.1498" lon="5.65802">
        <ele>925</ele>
        <time>2014-06-28T07:17:21.000Z</time>
      </trkpt>
      <trkpt lat="45.1498" lon="5.65801">
        <ele>925</ele>
        <time>2014-06-28T07:17:22.000Z</time>
      </trkpt>
      <trkpt lat="45.14981" lon="5.658">
        <ele>925</ele>
        <time>2014-06-28T07:17:23.000Z</time>
      </trkpt>
      <trkpt lat="45.14981" lon="5.658">
        <ele>926</ele>
        <time>2014-06-28T07:17:24.000Z</time>
      </trkpt>
      <trkpt lat="45.14981" lon="5.65799">
        <ele>926</ele>
        <time>2014-06-28T07:17:25.000Z</time>
      </trkpt>
      <trkpt lat="45.14981" lon="5.65798">
        <ele>926</ele>
        <time>2014-06-28T07:17:26.000Z</time>
      </trkpt>
      <trkpt lat="45.14981" lon="5.65797">
        <ele>926</ele>
        <time>2014-06-28T07:17:27.000Z</time>
      </trkpt>
      <trkpt lat="45.14981" lon="5.65796">
        <ele>927</ele>
        <time>2014-06-28T07:17:28.000Z</time>
      </trkpt>
      <trkpt lat="45.14981" lon="5.65795">
        <ele>927</ele>
        <time>2014-06-28T07:17:29.000Z</time>
      </trkpt>
      <trkpt lat="45.14981" lon="5.65795">
        <ele>927</ele>
        <time>2014-06-28T07:17:30.000Z</time>
      </trkpt>
      <trkpt lat="45.1498" lon="5.65794">
        <ele>928</ele>
        <time>2014-06-28T07:17:31.000Z</time>
      </trkpt>
      <trkpt lat="45.1498" lon="5.65793">
        <ele>928</ele>
        <time>2014-06-28T07:17:32.000Z</time>
      </trkpt>
      <trkpt lat="45.14979" lon="5.65793">
        <ele>929</ele>
        <time>2014-06-28T07:17:33.000Z</time>
      </trkpt>
      <trkpt lat="45.14979" lon="5.65792">
        <ele>929</ele>
        <time>2014-06-28T07:17:34.000Z</time>
      </trkpt>
      <trkpt lat="45.14978" lon="5.65792">
        <ele>930</ele>
        <time>2014-06-28T07:17:35.000Z</time>
      </trkpt>
      <trkpt lat="45.14977" lon="5.65791">
        <ele>930</ele>
        <time>2014-06-28T07:17:36.000Z</time>
      </trkpt>
      <trkpt lat="45.14977" lon="5.6579">
        <ele>931</ele>
        <time>2014-06-28T07:17:37.000Z</time>
      </trkpt>
      <trkpt lat="45.14976" lon="5.6579">
        <ele>931</ele>
        <time>2014-06-28T07:17:38.000Z</time>
      </trkpt>
      <trkpt lat="45.14976" lon="5.65789">
        <ele>931</ele>
        <time>2014-06-28T07:17:39.000Z</time>
      </trkpt>
      <trkpt lat="45.14975" lon="5.65789">
        <ele>932</ele>
        <time>2014-06-28T07:17:40.000Z</time>
      </trkpt>
      <trkpt lat="45.14974" lon="5.65788">
        <ele>932</ele>
        <time>2014-06-28T07:17:41.000Z</time>
      </trkpt>
      <trkpt lat="45.14974" lon="5.65788">
        <ele>932</ele>
        <time>2014-06-28T07:17:42.000Z</time>
      </trkpt>
      <trkpt lat="45.14973" lon="5.65788">
        <ele>933</ele>
        <time>2014-06-28T07:17:43.000Z</time>
      </trkpt>
      <trkpt lat="45.14973" lon="5.65789">
        <ele>933</ele>
        <time>2014-06-28T07:17:44.000Z</time>
      </trkpt>
      <trkpt lat="45.14972" lon="5.65789">
        <ele>934</ele>
        <time>2014-06-28T07:17:45.000Z</time>
      </trkpt>
      <trkpt lat="45.14972" lon="5.65789">
        <ele>934</ele>
        <time>2014-06-28T07:17:46.000Z</time>
      </trkpt>
      <trkpt lat="45.14971" lon="5.65789">
        <ele>935</ele>
        <time>2014-06-28T07:17:47.000Z</time>
      </trkpt>
      <trkpt lat="45.1497" lon="5.65789">
        <ele>935</ele>
        <time>2014-06-28T07:17:48.000Z</time>
      </trkpt>
      <trkpt lat="45.1497" lon="5.65789">
        <ele>935</ele>
        <time>2014-06-28T07:17:49.000Z</time>
      </trkpt>
      <trkpt lat="45.14969" lon="5.65789">
        <ele>936</ele>
        <time>2014-06-28T07:17:50.000Z</time>
      </trkpt>
      <trkpt lat="45.14968" lon="5.65788">
        <ele>936</ele>
        <time>2014-06-28T07:17:51.000Z</time>
      </trkpt>
      <trkpt lat="45.14967" lon="5.65788">
        <ele>937</ele>
        <time>2014-06-28T07:17:52.000Z</time>
      </trkpt>
      <trkpt lat="45.14966" lon="5.65788">
        <ele>937</ele>
        <time>2014-06-28T07:17:53.000Z</time>
      </trkpt>
      <trkpt lat="45.14966" lon="5.65788">
        <ele>937</ele>
        <time>2014-06-28T07:17:54.000Z</time>
      </trkpt>
      <trkpt lat="45.14965" lon="5.65788">
        <ele>938</ele>
        <time>2014-06-28T07:17:55.000Z</time>
      </trkpt>
      <trkpt lat="45.14964" lon="5.65787">
        <ele>938</ele>
        <time>2014-06-28T07:17:56.000Z</time>
      </trkpt>
      <trkpt lat="45.14964" lon="5.65787">
        <ele>938</ele>
        <time>2014-06-28T07:17:57.000Z</time>
      </trkpt>
      <trkpt lat="45.14963" lon="5.65787">
        <ele>938</ele>
        <time>2014-06-28T07:17:58.000Z</time>
      </trkpt>
      <trkpt lat="45.14962" lon="5.65788">
        <ele>939</ele>
        <time>2014-06-28T07:17:59.000Z</time>
      </trkpt>
      <trkpt lat="45.14961" lon="5.65788">
        <ele>939</ele>
        <time>2014-06-28T07:18:00.000Z</time>
      </trkpt>
      <trkpt lat="45.14961" lon="5.65788">
        <ele>939</ele>
        <time>2014-06-28T07:18:01.000Z</time>
      </trkpt>
      <trkpt lat="45.1496" lon="5.65788">
        <ele>939</ele>
        <time>2014-06-28T07:18:02.000Z</time>
      </trkpt>
      <trkpt lat="45.14959" lon="5.65788">
        <ele>940</ele>
        <time>2014-06-28T07:18:03.000Z</time>
      </trkpt>
      <trkpt lat="45.14958" lon="5.65788">
        <ele>940</ele>
        <time>2014-06-28T07:18:04.000Z</time>
      </trkpt>
      <trkpt lat="45.14958" lon="5.65788">
        <ele>940</ele>
        <time>2014-06-28T07:18:05.000Z</time>
      </trkpt>
      <trkpt lat="45.14958" lon="5.65787">
        <ele>940</ele>
        <time>2014-06-28T07:18:06.000Z</time>
      </trkpt>
      <trkpt lat="45.14958" lon="5.65787">
        <ele>940</ele>
        <time>2014-06-28T07:18:07.000Z</time>
      </trkpt>
      <trkpt lat="45.14958" lon="5.65787">
        <ele>941</ele>
        <time>2014-06-28T07:18:08.000Z</time>
      </trkpt>
      <trkpt lat="45.14959" lon="5.65787">
        <ele>941</ele>
        <time>2014-06-28T07:18:09.000Z</time>
      </trkpt>
      <trkpt lat="45.14959" lon="5.65786">
        <ele>941</ele>
        <time>2014-06-28T07:18:10.000Z</time>
      </trkpt>
      <trkpt lat="45.14959" lon="5.65786">
        <ele>941</ele>
        <time>2014-06-28T07:18:11.000Z</time>
      </trkpt>
      <trkpt lat="45.1496" lon="5.65786">
        <ele>941</ele>
        <time>2014-06-28T07:18:12.000Z</time>
      </trkpt>
      <trkpt lat="45.1496" lon="5.65785">
        <ele>942</ele>
        <time>2014-06-28T07:18:13.000Z</time>
      </trkpt>
      <trkpt lat="45.14961" lon="5.65784">
        <ele>942</ele>
        <time>2014-06-28T07:18:14.000Z</time>
      </trkpt>
      <trkpt lat="45.14961" lon="5.65784">
        <ele>942</ele>
        <time>2014-06-28T07:18:15.000Z</time>
      </trkpt>
      <trkpt lat="45.14961" lon="5.65783">
        <ele>942</ele>
        <time>2014-06-28T07:18:16.000Z</time>
      </trkpt>
      <trkpt lat="45.14962" lon="5.65782">
        <ele>942</ele>
        <time>2014-06-28T07:18:17.000Z</time>
      </trkpt>
      <trkpt lat="45.14962" lon="5.6578">
        <ele>942</ele>
        <time>2014-06-28T07:18:18.000Z</time>
      </trkpt>
      <trkpt lat="45.14963" lon="5.65779">
        <ele>942</ele>
        <time>2014-06-28T07:18:19.000Z</time>
      </trkpt>
      <trkpt lat="45.14963" lon="5.65778">
        <ele>942</ele>
        <time>2014-06-28T07:18:20.000Z</time>
      </trkpt>
      <trkpt lat="45.14964" lon="5.65776">
        <ele>942</ele>
        <time>2014-06-28T07:18:21.000Z</time>
      </trkpt>
      <trkpt lat="45.14964" lon="5.65775">
        <ele>942</ele>
        <time>2014-06-28T07:18:22.000Z</time>
      </trkpt>
      <trkpt lat="45.14964" lon="5.65774">
        <ele>942</ele>
        <time>2014-06-28T07:18:23.000Z</time>
      </trkpt>
      <trkpt lat="45.14965" lon="5.65773">
        <ele>943</ele>
        <time>2014-06-28T07:18:24.000Z</time>
      </trkpt>
      <trkpt lat="45.14965" lon="5.65772">
        <ele>943</ele>
        <time>2014-06-28T07:18:25.000Z</time>
      </trkpt>
      <trkpt lat="45.14965" lon="5.65771">
        <ele>943</ele>
        <time>2014-06-28T07:18:26.000Z</time>
      </trkpt>
      <trkpt lat="45.14965" lon="5.6577">
        <ele>943</ele>
        <time>2014-06-28T07:18:27.000Z</time>
      </trkpt>
      <trkpt lat="45.14965" lon="5.65769">
        <ele>944</ele>
        <time>2014-06-28T07:18:28.000Z</time>
      </trkpt>
      <trkpt lat="45.14965" lon="5.65769">
        <ele>944</ele>
        <time>2014-06-28T07:18:29.000Z</time>
      </trkpt>
      <trkpt lat="45.14964" lon="5.65769">
        <ele>944</ele>
        <time>2014-06-28T07:18:30.000Z</time>
      </trkpt>
      <trkpt lat="45.14964" lon="5.65768">
        <ele>944</ele>
        <time>2014-06-28T07:18:31.000Z</time>
      </trkpt>
      <trkpt lat="45.14963" lon="5.65768">
        <ele>945</ele>
        <time>2014-06-28T07:18:32.000Z</time>
      </trkpt>
      <trkpt lat="45.14962" lon="5.65768">
        <ele>945</ele>
        <time>2014-06-28T07:18:33.000Z</time>
      </trkpt>
      <trkpt lat="45.14962" lon="5.65768">
        <ele>945</ele>
        <time>2014-06-28T07:18:34.000Z</time>
      </trkpt>
      <trkpt lat="45.14961" lon="5.65768">
        <ele>945</ele>
        <time>2014-06-28T07:18:35.000Z</time>
      </trkpt>
      <trkpt lat="45.1496" lon="5.65768">
        <ele>946</ele>
        <time>2014-06-28T07:18:36.000Z</time>
      </trkpt>
      <trkpt lat="45.1496" lon="5.65768">
        <ele>946</ele>
        <time>2014-06-28T07:18:37.000Z</time>
      </trkpt>
      <trkpt lat="45.14959" lon="5.65768">
        <ele>946</ele>
        <time>2014-06-28T07:18:38.000Z</time>
      </trkpt>
      <trkpt lat="45.14959" lon="5.65767">
        <ele>947</ele>
        <time>2014-06-28T07:18:39.000Z</time>
      </trkpt>
      <trkpt lat="45.14958" lon="5.65767">
        <ele>947</ele>
        <time>2014-06-28T07:18:40.000Z</time>
      </trkpt>
      <trkpt lat="45.14958" lon="5.65766">
        <ele>947</ele>
        <time>2014-06-28T07:18:41.000Z</time>
      </trkpt>
      <trkpt lat="45.14958" lon="5.65765">
        <ele>947</ele>
        <time>2014-06-28T07:18:42.000Z</time>
      </trkpt>
      <trkpt lat="45.14958" lon="5.65764">
        <ele>947</ele>
        <time>2014-06-28T07:18:43.000Z</time>
      </trkpt>
      <trkpt lat="45.14958" lon="5.65763">
        <ele>947</ele>
        <time>2014-06-28T07:18:44.000Z</time>
      </trkpt>
      <trkpt lat="45.14958" lon="5.65762">
        <ele>947</ele>
        <time>2014-06-28T07:18:45.000Z</time>
      </trkpt>
      <trkpt lat="45.14958" lon="5.65761">
        <ele>947</ele>
        <time>2014-06-28T07:18:46.000Z</time>
      </trkpt>
      <trkpt lat="45.14958" lon="5.65761">
        <ele>947</ele>
        <time>2014-06-28T07:18:47.000Z</time>
      </trkpt>
      <trkpt lat="45.14957" lon="5.65761">
        <ele>948</ele>
        <time>2014-06-28T07:18:48.000Z</time>
      </trkpt>
      <trkpt lat="45.14957" lon="5.6576">
        <ele>948</ele>
        <time>2014-06-28T07:18:49.000Z</time>
      </trkpt>
      <trkpt lat="45.14956" lon="5.6576">
        <ele>948</ele>
        <time>2014-06-28T07:18:50.000Z</time>
      </trkpt>
      <trkpt lat="45.14956" lon="5.65761">
        <ele>948</ele>
        <time>2014-06-28T07:18:51.000Z</time>
      </trkpt>
      <trkpt lat="45.14956" lon="5.65761">
        <ele>949</ele>
        <time>2014-06-28T07:18:52.000Z</time>
      </trkpt>
      <trkpt lat="45.14955" lon="5.65761">
        <ele>949</ele>
        <time>2014-06-28T07:18:53.000Z</time>
      </trkpt>
      <trkpt lat="45.14955" lon="5.65761">
        <ele>949</ele>
        <time>2014-06-28T07:18:54.000Z</time>
      </trkpt>
      <trkpt lat="45.14954" lon="5.65761">
        <ele>950</ele>
        <time>2014-06-28T07:18:55.000Z</time>
      </trkpt>
      <trkpt lat="45.14954" lon="5.65761">
        <ele>950</ele>
        <time>2014-06-28T07:18:56.000Z</time>
      </trkpt>
      <trkpt lat="45.14953" lon="5.65761">
        <ele>950</ele>
        <time>2014-06-28T07:18:57.000Z</time>
      </trkpt>
      <trkpt lat="45.14952" lon="5.65761">
        <ele>951</ele>
        <time>2014-06-28T07:18:58.000Z</time>
      </trkpt>
      <trkpt lat="45.14952" lon="5.65761">
        <ele>951</ele>
        <time>2014-06-28T07:18:59.000Z</time>
      </trkpt>
      <trkpt lat="45.14951" lon="5.6576">
        <ele>951</ele>
        <time>2014-06-28T07:19:00.000Z</time>
      </trkpt>
      <trkpt lat="45.14951" lon="5.6576">
        <ele>952</ele>
        <time>2014-06-28T07:19:01.000Z</time>
      </trkpt>
      <trkpt lat="45.14951" lon="5.6576">
        <ele>952</ele>
        <time>2014-06-28T07:19:02.000Z</time>
      </trkpt>
      <trkpt lat="45.14951" lon="5.65759">
        <ele>952</ele>
        <time>2014-06-28T07:19:03.000Z</time>
      </trkpt>
      <trkpt lat="45.14951" lon="5.65759">
        <ele>953</ele>
        <time>2014-06-28T07:19:04.000Z</time>
      </trkpt>
      <trkpt lat="45.14951" lon="5.65758">
        <ele>953</ele>
        <time>2014-06-28T07:19:05.000Z</time>
      </trkpt>
      <trkpt lat="45.14951" lon="5.65758">
        <ele>953</ele>
        <time>2014-06-28T07:19:06.000Z</time>
      </trkpt>
      <trkpt lat="45.14951" lon="5.65757">
        <ele>953</ele>
        <time>2014-06-28T07:19:07.000Z</time>
      </trkpt>
      <trkpt lat="45.14951" lon="5.65756">
        <ele>953</ele>
        <time>2014-06-28T07:19:08.000Z</time>
      </trkpt>
      <trkpt lat="45.14951" lon="5.65756">
        <ele>954</ele>
        <time>2014-06-28T07:19:09.000Z</time>
      </trkpt>
      <trkpt lat="45.14951" lon="5.65755">
        <ele>954</ele>
        <time>2014-06-28T07:19:10.000Z</time>
      </trkpt>
      <trkpt lat="45.1495" lon="5.65754">
        <ele>954</ele>
        <time>2014-06-28T07:19:11.000Z</time>
      </trkpt>
      <trkpt lat="45.1495" lon="5.65753">
        <ele>954</ele>
        <time>2014-06-28T07:19:12.000Z</time>
      </trkpt>
      <trkpt lat="45.1495" lon="5.65752">
        <ele>955</ele>
        <time>2014-06-28T07:19:13.000Z</time>
      </trkpt>
      <trkpt lat="45.14951" lon="5.65751">
        <ele>955</ele>
        <time>2014-06-28T07:19:14.000Z</time>
      </trkpt>
      <trkpt lat="45.14951" lon="5.6575">
        <ele>955</ele>
        <time>2014-06-28T07:19:15.000Z</time>
      </trkpt>
      <trkpt lat="45.14951" lon="5.65749">
        <ele>956</ele>
        <time>2014-06-28T07:19:16.000Z</time>
      </trkpt>
      <trkpt lat="45.14951" lon="5.65749">
        <ele>956</ele>
        <time>2014-06-28T07:19:17.000Z</time>
      </trkpt>
      <trkpt lat="45.14951" lon="5.65749">
        <ele>956</ele>
        <time>2014-06-28T07:19:18.000Z</time>
      </trkpt>
      <trkpt lat="45.14951" lon="5.65749">
        <ele>957</ele>
        <time>2014-06-28T07:19:19.000Z</time>
      </trkpt>
      <trkpt lat="45.14952" lon="5.65749">
        <ele>957</ele>
        <time>2014-06-28T07:19:20.000Z</time>
      </trkpt>
      <trkpt lat="45.14952" lon="5.65749">
        <ele>957</ele>
        <time>2014-06-28T07:19:21.000Z</time>
      </trkpt>
      <trkpt lat="45.14952" lon="5.65748">
        <ele>958</ele>
        <time>2014-06-28T07:19:22.000Z</time>
      </trkpt>
      <trkpt lat="45.14952" lon="5.65748">
        <ele>958</ele>
        <time>2014-06-28T07:19:23.000Z</time>
      </trkpt>
      <trkpt lat="45.14952" lon="5.65748">
        <ele>958</ele>
        <time>2014-06-28T07:19:24.000Z</time>
      </trkpt>
      <trkpt lat="45.14952" lon="5.65748">
        <ele>958</ele>
        <time>2014-06-28T07:19:25.000Z</time>
      </trkpt>
      <trkpt lat="45.14952" lon="5.65748">
        <ele>958</ele>
        <time>2014-06-28T07:19:26.000Z</time>
      </trkpt>
      <trkpt lat="45.14952" lon="5.65748">
        <ele>959</ele>
        <time>2014-06-28T07:19:27.000Z</time>
      </trkpt>
      <trkpt lat="45.14952" lon="5.65748">
        <ele>959</ele>
        <time>2014-06-28T07:19:28.000Z</time>
      </trkpt>
      <trkpt lat="45.14952" lon="5.65748">
        <ele>959</ele>
        <time>2014-06-28T07:19:29.000Z</time>
      </trkpt>
      <trkpt lat="45.14951" lon="5.65748">
        <ele>959</ele>
        <time>2014-06-28T07:19:30.000Z</time>
      </trkpt>
      <trkpt lat="45.14951" lon="5.65748">
        <ele>959</ele>
        <time>2014-06-28T07:19:31.000Z</time>
      </trkpt>
      <trkpt lat="45.14951" lon="5.65748">
        <ele>959</ele>
        <time>2014-06-28T07:19:32.000Z</time>
      </trkpt>
      <trkpt lat="45.14951" lon="5.65748">
        <ele>959</ele>
        <time>2014-06-28T07:19:33.000Z</time>
      </trkpt>
      <trkpt lat="45.14951" lon="5.65748">
        <ele>960</ele>
        <time>2014-06-28T07:19:34.000Z</time>
      </trkpt>
      <trkpt lat="45.14951" lon="5.65748">
        <ele>960</ele>
        <time>2014-06-28T07:19:35.000Z</time>
      </trkpt>
      <trkpt lat="45.14951" lon="5.65748">
        <ele>960</ele>
        <time>2014-06-28T07:19:36.000Z</time>
      </trkpt>
      <trkpt lat="45.14951" lon="5.65748">
        <ele>960</ele>
        <time>2014-06-28T07:19:37.000Z</time>
      </trkpt>
      <trkpt lat="45.14951" lon="5.65748">
        <ele>960</ele>
        <time>2014-06-28T07:19:38.000Z</time>
      </trkpt>
      <trkpt lat="45.14951" lon="5.65747">
        <ele>960</ele>
        <time>2014-06-28T07:19:39.000Z</time>
      </trkpt>
      <trkpt lat="45.14952" lon="5.65747">
        <ele>960</ele>
        <time>2014-06-28T07:19:40.000Z</time>
      </trkpt>
      <trkpt lat="45.14952" lon="5.65747">
        <ele>960</ele>
        <time>2014-06-28T07:19:41.000Z</time>
      </trkpt>
      <trkpt lat="45.14952" lon="5.65747">
        <ele>960</ele>
        <time>2014-06-28T07:19:42.000Z</time>
      </trkpt>
      <trkpt lat="45.14952" lon="5.65747">
        <ele>960</ele>
        <time>2014-06-28T07:19:43.000Z</time>
      </trkpt>
      <trkpt lat="45.14952" lon="5.65747">
        <ele>960</ele>
        <time>2014-06-28T07:19:44.000Z</time>
      </trkpt>
      <trkpt lat="45.14952" lon="5.65747">
        <ele>960</ele>
        <time>2014-06-28T07:19:45.000Z</time>
      </trkpt>
      <trkpt lat="45.14952" lon="5.65747">
        <ele>960</ele>
        <time>2014-06-28T07:19:46.000Z</time>
      </trkpt>
      <trkpt lat="45.14952" lon="5.65747">
        <ele>960</ele>
        <time>2014-06-28T07:19:47.000Z</time>
      </trkpt>
      <trkpt lat="45.14952" lon="5.65747">
        <ele>960</ele>
        <time>2014-06-28T07:19:48.000Z</time>
      </trkpt>
      <trkpt lat="45.14952" lon="5.65747">
        <ele>960</ele>
        <time>2014-06-28T07:19:49.000Z</time>
      </trkpt>
      <trkpt lat="45.14952" lon="5.65747">
        <ele>960</ele>
        <time>2014-06-28T07:19:50.000Z</time>
      </trkpt>
      <trkpt lat="45.14952" lon="5.65747">
        <ele>960</ele>
        <time>2014-06-28T07:19:51.000Z</time>
      </trkpt>
      <trkpt lat="45.14952" lon="5.65747">
        <ele>961</ele>
        <time>2014-06-28T07:19:52.000Z</time>
      </trkpt>
      <trkpt lat="45.14952" lon="5.65747">
        <ele>961</ele>
        <time>2014-06-28T07:19:53.000Z</time>
      </trkpt>
      <trkpt lat="45.14951" lon="5.65747">
        <ele>961</ele>
        <time>2014-06-28T07:19:54.000Z</time>
      </trkpt>
      <trkpt lat="45.14952" lon="5.65747">
        <ele>961</ele>
        <time>2014-06-28T07:19:55.000Z</time>
      </trkpt>
      <trkpt lat="45.14952" lon="5.65747">
        <ele>961</ele>
        <time>2014-06-28T07:19:56.000Z</time>
      </trkpt>
      <trkpt lat="45.14952" lon="5.65747">
        <ele>961</ele>
        <time>2014-06-28T07:19:57.000Z</time>
      </trkpt>
      <trkpt lat="45.14952" lon="5.65747">
        <ele>961</ele>
        <time>2014-06-28T07:19:58.000Z</time>
      </trkpt>
      <trkpt lat="45.14952" lon="5.65747">
        <ele>961</ele>
        <time>2014-06-28T07:19:59.000Z</time>
      </trkpt>
      <trkpt lat="45.14952" lon="5.65748">
        <ele>961</ele>
        <time>2014-06-28T07:20:00.000Z</time>
      </trkpt>
      <trkpt lat="45.14952" lon="5.65748">
        <ele>961</ele>
        <time>2014-06-28T07:20:01.000Z</time>
      </trkpt>
      <trkpt lat="45.14952" lon="5.65747">
        <ele>961</ele>
        <time>2014-06-28T07:20:02.000Z</time>
      </trkpt>
      <trkpt lat="45.14952" lon="5.65747">
        <ele>961</ele>
        <time>2014-06-28T07:20:03.000Z</time>
      </trkpt>
      <trkpt lat="45.14952" lon="5.65747">
        <ele>961</ele>
        <time>2014-06-28T07:20:04.000Z</time>
      </trkpt>
      <trkpt lat="45.14952" lon="5.65747">
        <ele>961</ele>
        <time>2014-06-28T07:20:05.000Z</time>
      </trkpt>
      <trkpt lat="45.14951" lon="5.65747">
        <ele>961</ele>
        <time>2014-06-28T07:20:06.000Z</time>
      </trkpt>
      <trkpt lat="45.14951" lon="5.65747">
        <ele>961</ele>
        <time>2014-06-28T07:20:07.000Z</time>
      </trkpt>
      <trkpt lat="45.14951" lon="5.65747">
        <ele>961</ele>
        <time>2014-06-28T07:20:08.000Z</time>
      </trkpt>
      <trkpt lat="45.14951" lon="5.65747">
        <ele>961</ele>
        <time>2014-06-28T07:20:09.000Z</time>
      </trkpt>
      <trkpt lat="45.14951" lon="5.65747">
        <ele>961</ele>
        <time>2014-06-28T07:20:10.000Z</time>
      </trkpt>
      <trkpt lat="45.14951" lon="5.65747">
        <ele>961</ele>
        <time>2014-06-28T07:20:11.000Z</time>
      </trkpt>
      <trkpt lat="45.14951" lon="5.65747">
        <ele>961</ele>
        <time>2014-06-28T07:20:12.000Z</time>
      </trkpt>
      <trkpt lat="45.14951" lon="5.65747">
        <ele>961</ele>
        <time>2014-06-28T07:20:13.000Z</time>
      </trkpt>
      <trkpt lat="45.14951" lon="5.65747">
        <ele>961</ele>
        <time>2014-06-28T07:20:14.000Z</time>
      </trkpt>
      <trkpt lat="45.14951" lon="5.65747">
        <ele>961</ele>
        <time>2014-06-28T07:20:15.000Z</time>
      </trkpt>
      <trkpt lat="45.14951" lon="5.65747">
        <ele>961</ele>
        <time>2014-06-28T07:20:16.000Z</time>
      </trkpt>
      <trkpt lat="45.14951" lon="5.65747">
        <ele>961</ele>
        <time>2014-06-28T07:20:17.000Z</time>
      </trkpt>
      <trkpt lat="45.14951" lon="5.65747">
        <ele>961</ele>
        <time>2014-06-28T07:20:18.000Z</time>
      </trkpt>
      <trkpt lat="45.14951" lon="5.65747">
        <ele>961</ele>
        <time>2014-06-28T07:20:19.000Z</time>
      </trkpt>
      <trkpt lat="45.14951" lon="5.65747">
        <ele>961</ele>
        <time>2014-06-28T07:20:20.000Z</time>
      </trkpt>
      <trkpt lat="45.14951" lon="5.65747">
        <ele>961</ele>
        <time>2014-06-28T07:20:21.000Z</time>
      </trkpt>
      <trkpt lat="45.14951" lon="5.65747">
        <ele>961</ele>
        <time>2014-06-28T07:20:22.000Z</time>
      </trkpt>
      <trkpt lat="45.14951" lon="5.65747">
        <ele>961</ele>
        <time>2014-06-28T07:20:23.000Z</time>
      </trkpt>
      <trkpt lat="45.14951" lon="5.65747">
        <ele>961</ele>
        <time>2014-06-28T07:20:24.000Z</time>
      </trkpt>
      <trkpt lat="45.14951" lon="5.65747">
        <ele>962</ele>
        <time>2014-06-28T07:20:25.000Z</time>
      </trkpt>
      <trkpt lat="45.14951" lon="5.65746">
        <ele>962</ele>
        <time>2014-06-28T07:20:26.000Z</time>
      </trkpt>
      <trkpt lat="45.14951" lon="5.65746">
        <ele>962</ele>
        <time>2014-06-28T07:20:27.000Z</time>
      </trkpt>
      <trkpt lat="45.14952" lon="5.65745">
        <ele>962</ele>
        <time>2014-06-28T07:20:28.000Z</time>
      </trkpt>
      <trkpt lat="45.14952" lon="5.65744">
        <ele>962</ele>
        <time>2014-06-28T07:20:29.000Z</time>
      </trkpt>
      <trkpt lat="45.14953" lon="5.65743">
        <ele>962</ele>
        <time>2014-06-28T07:20:30.000Z</time>
      </trkpt>
      <trkpt lat="45.14953" lon="5.65742">
        <ele>962</ele>
        <time>2014-06-28T07:20:31.000Z</time>
      </trkpt>
      <trkpt lat="45.14954" lon="5.65742">
        <ele>962</ele>
        <time>2014-06-28T07:20:32.000Z</time>
      </trkpt>
      <trkpt lat="45.14954" lon="5.65741">
        <ele>962</ele>
        <time>2014-06-28T07:20:33.000Z</time>
      </trkpt>
      <trkpt lat="45.14954" lon="5.6574">
        <ele>962</ele>
        <time>2014-06-28T07:20:34.000Z</time>
      </trkpt>
      <trkpt lat="45.14954" lon="5.6574">
        <ele>962</ele>
        <time>2014-06-28T07:20:35.000Z</time>
      </trkpt>
      <trkpt lat="45.14954" lon="5.65739">
        <ele>962</ele>
        <time>2014-06-28T07:20:36.000Z</time>
      </trkpt>
      <trkpt lat="45.14954" lon="5.65738">
        <ele>963</ele>
        <time>2014-06-28T07:20:37.000Z</time>
      </trkpt>
      <trkpt lat="45.14954" lon="5.65738">
        <ele>963</ele>
        <time>2014-06-28T07:20:38.000Z</time>
      </trkpt>
      <trkpt lat="45.14955" lon="5.65737">
        <ele>963</ele>
        <time>2014-06-28T07:20:39.000Z</time>
      </trkpt>
      <trkpt lat="45.14955" lon="5.65736">
        <ele>963</ele>
        <time>2014-06-28T07:20:40.000Z</time>
      </trkpt>
      <trkpt lat="45.14955" lon="5.65736">
        <ele>964</ele>
        <time>2014-06-28T07:20:41.000Z</time>
      </trkpt>
      <trkpt lat="45.14956" lon="5.65735">
        <ele>964</ele>
        <time>2014-06-28T07:20:42.000Z</time>
      </trkpt>
      <trkpt lat="45.14956" lon="5.65734">
        <ele>964</ele>
        <time>2014-06-28T07:20:43.000Z</time>
      </trkpt>
      <trkpt lat="45.14957" lon="5.65733">
        <ele>964</ele>
        <time>2014-06-28T07:20:44.000Z</time>
      </trkpt>
      <trkpt lat="45.14957" lon="5.65732">
        <ele>964</ele>
        <time>2014-06-28T07:20:45.000Z</time>
      </trkpt>
      <trkpt lat="45.14958" lon="5.65732">
        <ele>964</ele>
        <time>2014-06-28T07:20:46.000Z</time>
      </trkpt>
      <trkpt lat="45.14959" lon="5.65731">
        <ele>964</ele>
        <time>2014-06-28T07:20:47.000Z</time>
      </trkpt>
      <trkpt lat="45.14959" lon="5.6573">
        <ele>964</ele>
        <time>2014-06-28T07:20:48.000Z</time>
      </trkpt>
      <trkpt lat="45.1496" lon="5.6573">
        <ele>964</ele>
        <time>2014-06-28T07:20:49.000Z</time>
      </trkpt>
      <trkpt lat="45.1496" lon="5.65729">
        <ele>964</ele>
        <time>2014-06-28T07:20:50.000Z</time>
      </trkpt>
      <trkpt lat="45.1496" lon="5.65728">
        <ele>964</ele>
        <time>2014-06-28T07:20:51.000Z</time>
      </trkpt>
      <trkpt lat="45.14961" lon="5.65726">
        <ele>964</ele>
        <time>2014-06-28T07:20:52.000Z</time>
      </trkpt>
      <trkpt lat="45.14961" lon="5.65725">
        <ele>964</ele>
        <time>2014-06-28T07:20:53.000Z</time>
      </trkpt>
      <trkpt lat="45.14962" lon="5.65724">
        <ele>965</ele>
        <time>2014-06-28T07:20:54.000Z</time>
      </trkpt>
      <trkpt lat="45.14962" lon="5.65723">
        <ele>965</ele>
        <time>2014-06-28T07:20:55.000Z</time>
      </trkpt>
      <trkpt lat="45.14963" lon="5.65722">
        <ele>965</ele>
        <time>2014-06-28T07:20:56.000Z</time>
      </trkpt>
      <trkpt lat="45.14963" lon="5.65721">
        <ele>965</ele>
        <time>2014-06-28T07:20:57.000Z</time>
      </trkpt>
      <trkpt lat="45.14963" lon="5.6572">
        <ele>965</ele>
        <time>2014-06-28T07:20:58.000Z</time>
      </trkpt>
      <trkpt lat="45.14963" lon="5.65718">
        <ele>965</ele>
        <time>2014-06-28T07:20:59.000Z</time>
      </trkpt>
      <trkpt lat="45.14963" lon="5.65717">
        <ele>965</ele>
        <time>2014-06-28T07:21:00.000Z</time>
      </trkpt>
      <trkpt lat="45.14964" lon="5.65716">
        <ele>966</ele>
        <time>2014-06-28T07:21:01.000Z</time>
      </trkpt>
      <trkpt lat="45.14964" lon="5.65715">
        <ele>966</ele>
        <time>2014-06-28T07:21:02.000Z</time>
      </trkpt>
      <trkpt lat="45.14965" lon="5.65714">
        <ele>966</ele>
        <time>2014-06-28T07:21:03.000Z</time>
      </trkpt>
      <trkpt lat="45.14965" lon="5.65713">
        <ele>966</ele>
        <time>2014-06-28T07:21:04.000Z</time>
      </trkpt>
      <trkpt lat="45.14965" lon="5.65712">
        <ele>966</ele>
        <time>2014-06-28T07:21:05.000Z</time>
      </trkpt>
      <trkpt lat="45.14965" lon="5.6571">
        <ele>966</ele>
        <time>2014-06-28T07:21:06.000Z</time>
      </trkpt>
      <trkpt lat="45.14965" lon="5.65709">
        <ele>966</ele>
        <time>2014-06-28T07:21:07.000Z</time>
      </trkpt>
      <trkpt lat="45.14966" lon="5.65708">
        <ele>966</ele>
        <time>2014-06-28T07:21:08.000Z</time>
      </trkpt>
      <trkpt lat="45.14966" lon="5.65706">
        <ele>966</ele>
        <time>2014-06-28T07:21:09.000Z</time>
      </trkpt>
      <trkpt lat="45.14967" lon="5.65705">
        <ele>966</ele>
        <time>2014-06-28T07:21:10.000Z</time>
      </trkpt>
      <trkpt lat="45.14967" lon="5.65704">
        <ele>966</ele>
        <time>2014-06-28T07:21:11.000Z</time>
      </trkpt>
      <trkpt lat="45.14967" lon="5.65702">
        <ele>966</ele>
        <time>2014-06-28T07:21:12.000Z</time>
      </trkpt>
      <trkpt lat="45.14968" lon="5.65701">
        <ele>967</ele>
        <time>2014-06-28T07:21:13.000Z</time>
      </trkpt>
      <trkpt lat="45.14969" lon="5.657">
        <ele>967</ele>
        <time>2014-06-28T07:21:14.000Z</time>
      </trkpt>
      <trkpt lat="45.14969" lon="5.657">
        <ele>967</ele>
        <time>2014-06-28T07:21:15.000Z</time>
      </trkpt>
      <trkpt lat="45.1497" lon="5.65699">
        <ele>967</ele>
        <time>2014-06-28T07:21:16.000Z</time>
      </trkpt>
      <trkpt lat="45.1497" lon="5.65698">
        <ele>968</ele>
        <time>2014-06-28T07:21:17.000Z</time>
      </trkpt>
      <trkpt lat="45.1497" lon="5.65697">
        <ele>968</ele>
        <time>2014-06-28T07:21:18.000Z</time>
      </trkpt>
      <trkpt lat="45.14971" lon="5.65696">
        <ele>968</ele>
        <time>2014-06-28T07:21:19.000Z</time>
      </trkpt>
      <trkpt lat="45.14971" lon="5.65696">
        <ele>969</ele>
        <time>2014-06-28T07:21:20.000Z</time>
      </trkpt>
      <trkpt lat="45.14971" lon="5.65695">
        <ele>969</ele>
        <time>2014-06-28T07:21:21.000Z</time>
      </trkpt>
      <trkpt lat="45.14971" lon="5.65694">
        <ele>969</ele>
        <time>2014-06-28T07:21:22.000Z</time>
      </trkpt>
      <trkpt lat="45.14971" lon="5.65694">
        <ele>970</ele>
        <time>2014-06-28T07:21:23.000Z</time>
      </trkpt>
      <trkpt lat="45.14971" lon="5.65694">
        <ele>970</ele>
        <time>2014-06-28T07:21:24.000Z</time>
      </trkpt>
      <trkpt lat="45.14971" lon="5.65694">
        <ele>971</ele>
        <time>2014-06-28T07:21:25.000Z</time>
      </trkpt>
      <trkpt lat="45.14971" lon="5.65694">
        <ele>971</ele>
        <time>2014-06-28T07:21:26.000Z</time>
      </trkpt>
      <trkpt lat="45.14971" lon="5.65694">
        <ele>972</ele>
        <time>2014-06-28T07:21:27.000Z</time>
      </trkpt>
      <trkpt lat="45.1497" lon="5.65693">
        <ele>973</ele>
        <time>2014-06-28T07:21:28.000Z</time>
      </trkpt>
      <trkpt lat="45.1497" lon="5.65693">
        <ele>973</ele>
        <time>2014-06-28T07:21:29.000Z</time>
      </trkpt>
      <trkpt lat="45.1497" lon="5.65693">
        <ele>973</ele>
        <time>2014-06-28T07:21:30.000Z</time>
      </trkpt>
      <trkpt lat="45.1497" lon="5.65692">
        <ele>974</ele>
        <time>2014-06-28T07:21:31.000Z</time>
      </trkpt>
      <trkpt lat="45.1497" lon="5.65692">
        <ele>974</ele>
        <time>2014-06-28T07:21:32.000Z</time>
      </trkpt>
      <trkpt lat="45.1497" lon="5.65692">
        <ele>975</ele>
        <time>2014-06-28T07:21:33.000Z</time>
      </trkpt>
      <trkpt lat="45.1497" lon="5.65691">
        <ele>975</ele>
        <time>2014-06-28T07:21:34.000Z</time>
      </trkpt>
      <trkpt lat="45.1497" lon="5.65691">
        <ele>976</ele>
        <time>2014-06-28T07:21:35.000Z</time>
      </trkpt>
      <trkpt lat="45.14971" lon="5.6569">
        <ele>976</ele>
        <time>2014-06-28T07:21:36.000Z</time>
      </trkpt>
      <trkpt lat="45.14971" lon="5.65689">
        <ele>976</ele>
        <time>2014-06-28T07:21:37.000Z</time>
      </trkpt>
      <trkpt lat="45.14971" lon="5.65689">
        <ele>976</ele>
        <time>2014-06-28T07:21:38.000Z</time>
      </trkpt>
      <trkpt lat="45.14972" lon="5.65689">
        <ele>977</ele>
        <time>2014-06-28T07:21:39.000Z</time>
      </trkpt>
      <trkpt lat="45.14973" lon="5.65688">
        <ele>977</ele>
        <time>2014-06-28T07:21:40.000Z</time>
      </trkpt>
      <trkpt lat="45.14973" lon="5.65688">
        <ele>977</ele>
        <time>2014-06-28T07:21:41.000Z</time>
      </trkpt>
      <trkpt lat="45.14974" lon="5.65688">
        <ele>977</ele>
        <time>2014-06-28T07:21:42.000Z</time>
      </trkpt>
      <trkpt lat="45.14974" lon="5.65687">
        <ele>977</ele>
        <time>2014-06-28T07:21:43.000Z</time>
      </trkpt>
      <trkpt lat="45.14975" lon="5.65686">
        <ele>977</ele>
        <time>2014-06-28T07:21:44.000Z</time>
      </trkpt>
      <trkpt lat="45.14975" lon="5.65685">
        <ele>977</ele>
        <time>2014-06-28T07:21:45.000Z</time>
      </trkpt>
      <trkpt lat="45.14975" lon="5.65684">
        <ele>978</ele>
        <time>2014-06-28T07:21:46.000Z</time>
      </trkpt>
      <trkpt lat="45.14975" lon="5.65683">
        <ele>978</ele>
        <time>2014-06-28T07:21:47.000Z</time>
      </trkpt>
      <trkpt lat="45.14976" lon="5.65682">
        <ele>978</ele>
        <time>2014-06-28T07:21:48.000Z</time>
      </trkpt>
      <trkpt lat="45.14976" lon="5.65681">
        <ele>978</ele>
        <time>2014-06-28T07:21:49.000Z</time>
      </trkpt>
      <trkpt lat="45.14976" lon="5.6568">
        <ele>978</ele>
        <time>2014-06-28T07:21:50.000Z</time>
      </trkpt>
      <trkpt lat="45.14976" lon="5.65679">
        <ele>978</ele>
        <time>2014-06-28T07:21:51.000Z</time>
      </trkpt>
      <trkpt lat="45.14977" lon="5.65678">
        <ele>978</ele>
        <time>2014-06-28T07:21:52.000Z</time>
      </trkpt>
      <trkpt lat="45.14977" lon="5.65677">
        <ele>978</ele>
        <time>2014-06-28T07:21:53.000Z</time>
      </trkpt>
      <trkpt lat="45.14978" lon="5.65676">
        <ele>978</ele>
        <time>2014-06-28T07:21:54.000Z</time>
      </trkpt>
      <trkpt lat="45.14978" lon="5.65675">
        <ele>978</ele>
        <time>2014-06-28T07:21:55.000Z</time>
      </trkpt>
      <trkpt lat="45.14978" lon="5.65674">
        <ele>978</ele>
        <time>2014-06-28T07:21:56.000Z</time>
      </trkpt>
      <trkpt lat="45.14978" lon="5.65673">
        <ele>978</ele>
        <time>2014-06-28T07:21:57.000Z</time>
      </trkpt>
      <trkpt lat="45.14979" lon="5.65671">
        <ele>979</ele>
        <time>2014-06-28T07:21:58.000Z</time>
      </trkpt>
      <trkpt lat="45.14979" lon="5.65671">
        <ele>979</ele>
        <time>2014-06-28T07:21:59.000Z</time>
      </trkpt>
      <trkpt lat="45.14979" lon="5.6567">
        <ele>979</ele>
        <time>2014-06-28T07:22:00.000Z</time>
      </trkpt>
      <trkpt lat="45.1498" lon="5.65669">
        <ele>979</ele>
        <time>2014-06-28T07:22:01.000Z</time>
      </trkpt>
      <trkpt lat="45.1498" lon="5.65668">
        <ele>979</ele>
        <time>2014-06-28T07:22:02.000Z</time>
      </trkpt>
      <trkpt lat="45.1498" lon="5.65667">
        <ele>979</ele>
        <time>2014-06-28T07:22:03.000Z</time>
      </trkpt>
      <trkpt lat="45.1498" lon="5.65666">
        <ele>979</ele>
        <time>2014-06-28T07:22:04.000Z</time>
      </trkpt>
      <trkpt lat="45.1498" lon="5.65665">
        <ele>980</ele>
        <time>2014-06-28T07:22:05.000Z</time>
      </trkpt>
      <trkpt lat="45.14981" lon="5.65664">
        <ele>980</ele>
        <time>2014-06-28T07:22:06.000Z</time>
      </trkpt>
      <trkpt lat="45.14981" lon="5.65662">
        <ele>980</ele>
        <time>2014-06-28T07:22:07.000Z</time>
      </trkpt>
      <trkpt lat="45.14982" lon="5.65661">
        <ele>980</ele>
        <time>2014-06-28T07:22:08.000Z</time>
      </trkpt>
      <trkpt lat="45.14982" lon="5.6566">
        <ele>980</ele>
        <time>2014-06-28T07:22:09.000Z</time>
      </trkpt>
      <trkpt lat="45.14982" lon="5.6566">
        <ele>980</ele>
        <time>2014-06-28T07:22:10.000Z</time>
      </trkpt>
      <trkpt lat="45.14983" lon="5.65659">
        <ele>981</ele>
        <time>2014-06-28T07:22:11.000Z</time>
      </trkpt>
      <trkpt lat="45.14983" lon="5.65658">
        <ele>981</ele>
        <time>2014-06-28T07:22:12.000Z</time>
      </trkpt>
      <trkpt lat="45.14983" lon="5.65656">
        <ele>981</ele>
        <time>2014-06-28T07:22:13.000Z</time>
      </trkpt>
      <trkpt lat="45.14983" lon="5.65655">
        <ele>981</ele>
        <time>2014-06-28T07:22:14.000Z</time>
      </trkpt>
      <trkpt lat="45.14983" lon="5.65654">
        <ele>981</ele>
        <time>2014-06-28T07:22:15.000Z</time>
      </trkpt>
      <trkpt lat="45.14983" lon="5.65653">
        <ele>981</ele>
        <time>2014-06-28T07:22:16.000Z</time>
      </trkpt>
      <trkpt lat="45.14983" lon="5.65652">
        <ele>981</ele>
        <time>2014-06-28T07:22:17.000Z</time>
      </trkpt>
      <trkpt lat="45.14983" lon="5.6565">
        <ele>982</ele>
        <time>2014-06-28T07:22:18.000Z</time>
      </trkpt>
      <trkpt lat="45.14982" lon="5.65649">
        <ele>982</ele>
        <time>2014-06-28T07:22:19.000Z</time>
      </trkpt>
      <trkpt lat="45.14982" lon="5.65648">
        <ele>982</ele>
        <time>2014-06-28T07:22:20.000Z</time>
      </trkpt>
      <trkpt lat="45.14982" lon="5.65647">
        <ele>983</ele>
        <time>2014-06-28T07:22:21.000Z</time>
      </trkpt>
      <trkpt lat="45.14982" lon="5.65646">
        <ele>983</ele>
        <time>2014-06-28T07:22:22.000Z</time>
      </trkpt>
      <trkpt lat="45.14982" lon="5.65645">
        <ele>983</ele>
        <time>2014-06-28T07:22:23.000Z</time>
      </trkpt>
      <trkpt lat="45.14982" lon="5.65644">
        <ele>983</ele>
        <time>2014-06-28T07:22:24.000Z</time>
      </trkpt>
      <trkpt lat="45.14983" lon="5.65643">
        <ele>984</ele>
        <time>2014-06-28T07:22:25.000Z</time>
      </trkpt>
      <trkpt lat="45.14982" lon="5.65642">
        <ele>984</ele>
        <time>2014-06-28T07:22:26.000Z</time>
      </trkpt>
      <trkpt lat="45.14982" lon="5.65641">
        <ele>984</ele>
        <time>2014-06-28T07:22:27.000Z</time>
      </trkpt>
      <trkpt lat="45.14982" lon="5.65641">
        <ele>985</ele>
        <time>2014-06-28T07:22:28.000Z</time>
      </trkpt>
      <trkpt lat="45.14982" lon="5.6564">
        <ele>985</ele>
        <time>2014-06-28T07:22:29.000Z</time>
      </trkpt>
      <trkpt lat="45.14982" lon="5.65639">
        <ele>985</ele>
        <time>2014-06-28T07:22:30.000Z</time>
      </trkpt>
      <trkpt lat="45.14982" lon="5.65638">
        <ele>986</ele>
        <time>2014-06-28T07:22:31.000Z</time>
      </trkpt>
      <trkpt lat="45.14982" lon="5.65637">
        <ele>986</ele>
        <time>2014-06-28T07:22:32.000Z</time>
      </trkpt>
      <trkpt lat="45.14982" lon="5.65636">
        <ele>986</ele>
        <time>2014-06-28T07:22:33.000Z</time>
      </trkpt>
      <trkpt lat="45.14982" lon="5.65635">
        <ele>987</ele>
        <time>2014-06-28T07:22:34.000Z</time>
      </trkpt>
      <trkpt lat="45.14982" lon="5.65634">
        <ele>987</ele>
        <time>2014-06-28T07:22:35.000Z</time>
      </trkpt>
      <trkpt lat="45.14981" lon="5.65633">
        <ele>987</ele>
        <time>2014-06-28T07:22:36.000Z</time>
      </trkpt>
      <trkpt lat="45.14981" lon="5.65633">
        <ele>988</ele>
        <time>2014-06-28T07:22:37.000Z</time>
      </trkpt>
      <trkpt lat="45.14981" lon="5.65632">
        <ele>988</ele>
        <time>2014-06-28T07:22:38.000Z</time>
      </trkpt>
      <trkpt lat="45.14981" lon="5.65631">
        <ele>988</ele>
        <time>2014-06-28T07:22:39.000Z</time>
      </trkpt>
      <trkpt lat="45.14981" lon="5.6563">
        <ele>988</ele>
        <time>2014-06-28T07:22:40.000Z</time>
      </trkpt>
      <trkpt lat="45.14981" lon="5.6563">
        <ele>989</ele>
        <time>2014-06-28T07:22:41.000Z</time>
      </trkpt>
      <trkpt lat="45.14981" lon="5.65629">
        <ele>989</ele>
        <time>2014-06-28T07:22:42.000Z</time>
      </trkpt>
      <trkpt lat="45.14981" lon="5.65629">
        <ele>989</ele>
        <time>2014-06-28T07:22:43.000Z</time>
      </trkpt>
      <trkpt lat="45.14981" lon="5.65628">
        <ele>990</ele>
        <time>2014-06-28T07:22:44.000Z</time>
      </trkpt>
      <trkpt lat="45.14981" lon="5.65628">
        <ele>990</ele>
        <time>2014-06-28T07:22:45.000Z</time>
      </trkpt>
      <trkpt lat="45.1498" lon="5.65627">
        <ele>990</ele>
        <time>2014-06-28T07:22:46.000Z</time>
      </trkpt>
      <trkpt lat="45.1498" lon="5.65626">
        <ele>991</ele>
        <time>2014-06-28T07:22:47.000Z</time>
      </trkpt>
      <trkpt lat="45.1498" lon="5.65625">
        <ele>991</ele>
        <time>2014-06-28T07:22:48.000Z</time>
      </trkpt>
      <trkpt lat="45.1498" lon="5.65624">
        <ele>991</ele>
        <time>2014-06-28T07:22:49.000Z</time>
      </trkpt>
      <trkpt lat="45.14979" lon="5.65623">
        <ele>992</ele>
        <time>2014-06-28T07:22:50.000Z</time>
      </trkpt>
      <trkpt lat="45.14979" lon="5.65622">
        <ele>992</ele>
        <time>2014-06-28T07:22:51.000Z</time>
      </trkpt>
      <trkpt lat="45.14979" lon="5.65621">
        <ele>992</ele>
        <time>2014-06-28T07:22:52.000Z</time>
      </trkpt>
      <trkpt lat="45.14978" lon="5.6562">
        <ele>992</ele>
        <time>2014-06-28T07:22:53.000Z</time>
      </trkpt>
      <trkpt lat="45.14978" lon="5.65619">
        <ele>993</ele>
        <time>2014-06-28T07:22:54.000Z</time>
      </trkpt>
      <trkpt lat="45.14978" lon="5.65619">
        <ele>993</ele>
        <time>2014-06-28T07:22:55.000Z</time>
      </trkpt>
      <trkpt lat="45.14978" lon="5.65619">
        <ele>993</ele>
        <time>2014-06-28T07:22:56.000Z</time>
      </trkpt>
      <trkpt lat="45.14978" lon="5.65618">
        <ele>993</ele>
        <time>2014-06-28T07:22:57.000Z</time>
      </trkpt>
      <trkpt lat="45.14978" lon="5.65617">
        <ele>994</ele>
        <time>2014-06-28T07:22:58.000Z</time>
      </trkpt>
      <trkpt lat="45.14978" lon="5.65616">
        <ele>994</ele>
        <time>2014-06-28T07:22:59.000Z</time>
      </trkpt>
      <trkpt lat="45.14978" lon="5.65615">
        <ele>994</ele>
        <time>2014-06-28T07:23:00.000Z</time>
      </trkpt>
      <trkpt lat="45.14978" lon="5.65614">
        <ele>994</ele>
        <time>2014-06-28T07:23:01.000Z</time>
      </trkpt>
      <trkpt lat="45.14978" lon="5.65613">
        <ele>995</ele>
        <time>2014-06-28T07:23:02.000Z</time>
      </trkpt>
      <trkpt lat="45.14978" lon="5.65611">
        <ele>995</ele>
        <time>2014-06-28T07:23:03.000Z</time>
      </trkpt>
      <trkpt lat="45.14978" lon="5.6561">
        <ele>995</ele>
        <time>2014-06-28T07:23:04.000Z</time>
      </trkpt>
      <trkpt lat="45.14978" lon="5.65608">
        <ele>995</ele>
        <time>2014-06-28T07:23:05.000Z</time>
      </trkpt>
      <trkpt lat="45.14978" lon="5.65607">
        <ele>995</ele>
        <time>2014-06-28T07:23:06.000Z</time>
      </trkpt>
      <trkpt lat="45.14977" lon="5.65606">
        <ele>996</ele>
        <time>2014-06-28T07:23:07.000Z</time>
      </trkpt>
      <trkpt lat="45.14977" lon="5.65605">
        <ele>996</ele>
        <time>2014-06-28T07:23:08.000Z</time>
      </trkpt>
      <trkpt lat="45.14977" lon="5.65604">
        <ele>996</ele>
        <time>2014-06-28T07:23:09.000Z</time>
      </trkpt>
      <trkpt lat="45.14977" lon="5.65603">
        <ele>996</ele>
        <time>2014-06-28T07:23:10.000Z</time>
      </trkpt>
      <trkpt lat="45.14977" lon="5.65602">
        <ele>997</ele>
        <time>2014-06-28T07:23:11.000Z</time>
      </trkpt>
      <trkpt lat="45.14976" lon="5.65601">
        <ele>997</ele>
        <time>2014-06-28T07:23:12.000Z</time>
      </trkpt>
      <trkpt lat="45.14976" lon="5.656">
        <ele>997</ele>
        <time>2014-06-28T07:23:13.000Z</time>
      </trkpt>
      <trkpt lat="45.14976" lon="5.65599">
        <ele>997</ele>
        <time>2014-06-28T07:23:14.000Z</time>
      </trkpt>
      <trkpt lat="45.14975" lon="5.65597">
        <ele>997</ele>
        <time>2014-06-28T07:23:15.000Z</time>
      </trkpt>
      <trkpt lat="45.14975" lon="5.65596">
        <ele>998</ele>
        <time>2014-06-28T07:23:16.000Z</time>
      </trkpt>
      <trkpt lat="45.14974" lon="5.65595">
        <ele>998</ele>
        <time>2014-06-28T07:23:17.000Z</time>
      </trkpt>
      <trkpt lat="45.14973" lon="5.65593">
        <ele>998</ele>
        <time>2014-06-28T07:23:18.000Z</time>
      </trkpt>
      <trkpt lat="45.14972" lon="5.65592">
        <ele>998</ele>
        <time>2014-06-28T07:23:19.000Z</time>
      </trkpt>
      <trkpt lat="45.14972" lon="5.65591">
        <ele>998</ele>
        <time>2014-06-28T07:23:20.000Z</time>
      </trkpt>
      <trkpt lat="45.14971" lon="5.6559">
        <ele>999</ele>
        <time>2014-06-28T07:23:21.000Z</time>
      </trkpt>
      <trkpt lat="45.1497" lon="5.65589">
        <ele>999</ele>
        <time>2014-06-28T07:23:22.000Z</time>
      </trkpt>
      <trkpt lat="45.1497" lon="5.65588">
        <ele>999</ele>
        <time>2014-06-28T07:23:23.000Z</time>
      </trkpt>
      <trkpt lat="45.14969" lon="5.65587">
        <ele>999</ele>
        <time>2014-06-28T07:23:24.000Z</time>
      </trkpt>
      <trkpt lat="45.14969" lon="5.65586">
        <ele>1000</ele>
        <time>2014-06-28T07:23:25.000Z</time>
      </trkpt>
      <trkpt lat="45.14969" lon="5.65585">
        <ele>1000</ele>
        <time>2014-06-28T07:23:26.000Z</time>
      </trkpt>
      <trkpt lat="45.14969" lon="5.65583">
        <ele>1000</ele>
        <time>2014-06-28T07:23:27.000Z</time>
      </trkpt>
      <trkpt lat="45.14969" lon="5.65582">
        <ele>1000</ele>
        <time>2014-06-28T07:23:28.000Z</time>
      </trkpt>
      <trkpt lat="45.14969" lon="5.65581">
        <ele>1000</ele>
        <time>2014-06-28T07:23:29.000Z</time>
      </trkpt>
      <trkpt lat="45.14969" lon="5.65579">
        <ele>1001</ele>
        <time>2014-06-28T07:23:30.000Z</time>
      </trkpt>
      <trkpt lat="45.1497" lon="5.65578">
        <ele>1001</ele>
        <time>2014-06-28T07:23:31.000Z</time>
      </trkpt>
      <trkpt lat="45.14971" lon="5.65576">
        <ele>1001</ele>
        <time>2014-06-28T07:23:32.000Z</time>
      </trkpt>
      <trkpt lat="45.14971" lon="5.65575">
        <ele>1001</ele>
        <time>2014-06-28T07:23:33.000Z</time>
      </trkpt>
      <trkpt lat="45.14972" lon="5.65573">
        <ele>1002</ele>
        <time>2014-06-28T07:23:34.000Z</time>
      </trkpt>
      <trkpt lat="45.14973" lon="5.65572">
        <ele>1002</ele>
        <time>2014-06-28T07:23:35.000Z</time>
      </trkpt>
      <trkpt lat="45.14973" lon="5.65571">
        <ele>1002</ele>
        <time>2014-06-28T07:23:36.000Z</time>
      </trkpt>
      <trkpt lat="45.14973" lon="5.65569">
        <ele>1002</ele>
        <time>2014-06-28T07:23:37.000Z</time>
      </trkpt>
      <trkpt lat="45.14974" lon="5.65568">
        <ele>1003</ele>
        <time>2014-06-28T07:23:38.000Z</time>
      </trkpt>
      <trkpt lat="45.14974" lon="5.65566">
        <ele>1003</ele>
        <time>2014-06-28T07:23:39.000Z</time>
      </trkpt>
      <trkpt lat="45.14974" lon="5.65565">
        <ele>1004</ele>
        <time>2014-06-28T07:23:40.000Z</time>
      </trkpt>
      <trkpt lat="45.14974" lon="5.65564">
        <ele>1004</ele>
        <time>2014-06-28T07:23:41.000Z</time>
      </trkpt>
      <trkpt lat="45.14974" lon="5.65562">
        <ele>1004</ele>
        <time>2014-06-28T07:23:42.000Z</time>
      </trkpt>
      <trkpt lat="45.14974" lon="5.65561">
        <ele>1004</ele>
        <time>2014-06-28T07:23:43.000Z</time>
      </trkpt>
      <trkpt lat="45.14974" lon="5.6556">
        <ele>1005</ele>
        <time>2014-06-28T07:23:44.000Z</time>
      </trkpt>
      <trkpt lat="45.14974" lon="5.65558">
        <ele>1005</ele>
        <time>2014-06-28T07:23:45.000Z</time>
      </trkpt>
      <trkpt lat="45.14973" lon="5.65557">
        <ele>1005</ele>
        <time>2014-06-28T07:23:46.000Z</time>
      </trkpt>
      <trkpt lat="45.14974" lon="5.65556">
        <ele>1006</ele>
        <time>2014-06-28T07:23:47.000Z</time>
      </trkpt>
      <trkpt lat="45.14973" lon="5.65555">
        <ele>1006</ele>
        <time>2014-06-28T07:23:48.000Z</time>
      </trkpt>
      <trkpt lat="45.14973" lon="5.65554">
        <ele>1006</ele>
        <time>2014-06-28T07:23:49.000Z</time>
      </trkpt>
      <trkpt lat="45.14973" lon="5.65553">
        <ele>1006</ele>
        <time>2014-06-28T07:23:50.000Z</time>
      </trkpt>
      <trkpt lat="45.14973" lon="5.65551">
        <ele>1007</ele>
        <time>2014-06-28T07:23:51.000Z</time>
      </trkpt>
      <trkpt lat="45.14973" lon="5.6555">
        <ele>1007</ele>
        <time>2014-06-28T07:23:52.000Z</time>
      </trkpt>
      <trkpt lat="45.14973" lon="5.65548">
        <ele>1007</ele>
        <time>2014-06-28T07:23:53.000Z</time>
      </trkpt>
      <trkpt lat="45.14973" lon="5.65547">
        <ele>1008</ele>
        <time>2014-06-28T07:23:54.000Z</time>
      </trkpt>
      <trkpt lat="45.14973" lon="5.65546">
        <ele>1008</ele>
        <time>2014-06-28T07:23:55.000Z</time>
      </trkpt>
      <trkpt lat="45.14973" lon="5.65545">
        <ele>1008</ele>
        <time>2014-06-28T07:23:56.000Z</time>
      </trkpt>
      <trkpt lat="45.14974" lon="5.65544">
        <ele>1008</ele>
        <time>2014-06-28T07:23:57.000Z</time>
      </trkpt>
      <trkpt lat="45.14974" lon="5.65544">
        <ele>1009</ele>
        <time>2014-06-28T07:23:58.000Z</time>
      </trkpt>
      <trkpt lat="45.14974" lon="5.65543">
        <ele>1009</ele>
        <time>2014-06-28T07:23:59.000Z</time>
      </trkpt>
      <trkpt lat="45.14974" lon="5.65542">
        <ele>1009</ele>
        <time>2014-06-28T07:24:00.000Z</time>
      </trkpt>
      <trkpt lat="45.14974" lon="5.65542">
        <ele>1009</ele>
        <time>2014-06-28T07:24:01.000Z</time>
      </trkpt>
      <trkpt lat="45.14974" lon="5.65541">
        <ele>1010</ele>
        <time>2014-06-28T07:24:02.000Z</time>
      </trkpt>
      <trkpt lat="45.14974" lon="5.6554">
        <ele>1010</ele>
        <time>2014-06-28T07:24:03.000Z</time>
      </trkpt>
      <trkpt lat="45.14974" lon="5.65539">
        <ele>1010</ele>
        <time>2014-06-28T07:24:04.000Z</time>
      </trkpt>
      <trkpt lat="45.14974" lon="5.65538">
        <ele>1011</ele>
        <time>2014-06-28T07:24:05.000Z</time>
      </trkpt>
      <trkpt lat="45.14973" lon="5.65537">
        <ele>1011</ele>
        <time>2014-06-28T07:24:06.000Z</time>
      </trkpt>
      <trkpt lat="45.14973" lon="5.65535">
        <ele>1011</ele>
        <time>2014-06-28T07:24:07.000Z</time>
      </trkpt>
      <trkpt lat="45.14973" lon="5.65534">
        <ele>1012</ele>
        <time>2014-06-28T07:24:08.000Z</time>
      </trkpt>
      <trkpt lat="45.14973" lon="5.65534">
        <ele>1012</ele>
        <time>2014-06-28T07:24:09.000Z</time>
      </trkpt>
      <trkpt lat="45.14973" lon="5.65533">
        <ele>1012</ele>
        <time>2014-06-28T07:24:10.000Z</time>
      </trkpt>
      <trkpt lat="45.14973" lon="5.65532">
        <ele>1013</ele>
        <time>2014-06-28T07:24:11.000Z</time>
      </trkpt>
      <trkpt lat="45.14973" lon="5.65531">
        <ele>1013</ele>
        <time>2014-06-28T07:24:12.000Z</time>
      </trkpt>
      <trkpt lat="45.14973" lon="5.6553">
        <ele>1014</ele>
        <time>2014-06-28T07:24:13.000Z</time>
      </trkpt>
      <trkpt lat="45.14973" lon="5.65529">
        <ele>1014</ele>
        <time>2014-06-28T07:24:14.000Z</time>
      </trkpt>
      <trkpt lat="45.14972" lon="5.65528">
        <ele>1015</ele>
        <time>2014-06-28T07:24:15.000Z</time>
      </trkpt>
      <trkpt lat="45.14972" lon="5.65527">
        <ele>1015</ele>
        <time>2014-06-28T07:24:16.000Z</time>
      </trkpt>
      <trkpt lat="45.14972" lon="5.65526">
        <ele>1015</ele>
        <time>2014-06-28T07:24:17.000Z</time>
      </trkpt>
      <trkpt lat="45.14971" lon="5.65525">
        <ele>1016</ele>
        <time>2014-06-28T07:24:18.000Z</time>
      </trkpt>
      <trkpt lat="45.14971" lon="5.65524">
        <ele>1016</ele>
        <time>2014-06-28T07:24:19.000Z</time>
      </trkpt>
      <trkpt lat="45.14971" lon="5.65524">
        <ele>1017</ele>
        <time>2014-06-28T07:24:20.000Z</time>
      </trkpt>
      <trkpt lat="45.14971" lon="5.65523">
        <ele>1017</ele>
        <time>2014-06-28T07:24:21.000Z</time>
      </trkpt>
      <trkpt lat="45.14971" lon="5.65523">
        <ele>1018</ele>
        <time>2014-06-28T07:24:22.000Z</time>
      </trkpt>
      <trkpt lat="45.14971" lon="5.65522">
        <ele>1018</ele>
        <time>2014-06-28T07:24:23.000Z</time>
      </trkpt>
      <trkpt lat="45.1497" lon="5.65521">
        <ele>1019</ele>
        <time>2014-06-28T07:24:24.000Z</time>
      </trkpt>
      <trkpt lat="45.14969" lon="5.6552">
        <ele>1019</ele>
        <time>2014-06-28T07:24:25.000Z</time>
      </trkpt>
      <trkpt lat="45.14969" lon="5.6552">
        <ele>1020</ele>
        <time>2014-06-28T07:24:26.000Z</time>
      </trkpt>
      <trkpt lat="45.14968" lon="5.65519">
        <ele>1020</ele>
        <time>2014-06-28T07:24:27.000Z</time>
      </trkpt>
      <trkpt lat="45.14967" lon="5.65519">
        <ele>1021</ele>
        <time>2014-06-28T07:24:28.000Z</time>
      </trkpt>
      <trkpt lat="45.14966" lon="5.65518">
        <ele>1021</ele>
        <time>2014-06-28T07:24:29.000Z</time>
      </trkpt>
      <trkpt lat="45.14966" lon="5.65517">
        <ele>1022</ele>
        <time>2014-06-28T07:24:30.000Z</time>
      </trkpt>
      <trkpt lat="45.14965" lon="5.65517">
        <ele>1022</ele>
        <time>2014-06-28T07:24:31.000Z</time>
      </trkpt>
      <trkpt lat="45.14964" lon="5.65516">
        <ele>1023</ele>
        <time>2014-06-28T07:24:32.000Z</time>
      </trkpt>
      <trkpt lat="45.14964" lon="5.65516">
        <ele>1023</ele>
        <time>2014-06-28T07:24:33.000Z</time>
      </trkpt>
      <trkpt lat="45.14963" lon="5.65515">
        <ele>1024</ele>
        <time>2014-06-28T07:24:34.000Z</time>
      </trkpt>
      <trkpt lat="45.14962" lon="5.65515">
        <ele>1024</ele>
        <time>2014-06-28T07:24:35.000Z</time>
      </trkpt>
      <trkpt lat="45.14962" lon="5.65514">
        <ele>1024</ele>
        <time>2014-06-28T07:24:36.000Z</time>
      </trkpt>
      <trkpt lat="45.14961" lon="5.65514">
        <ele>1025</ele>
        <time>2014-06-28T07:24:37.000Z</time>
      </trkpt>
      <trkpt lat="45.1496" lon="5.65513">
        <ele>1025</ele>
        <time>2014-06-28T07:24:38.000Z</time>
      </trkpt>
      <trkpt lat="45.1496" lon="5.65512">
        <ele>1026</ele>
        <time>2014-06-28T07:24:39.000Z</time>
      </trkpt>
      <trkpt lat="45.14959" lon="5.65512">
        <ele>1026</ele>
        <time>2014-06-28T07:24:40.000Z</time>
      </trkpt>
      <trkpt lat="45.14958" lon="5.65511">
        <ele>1026</ele>
        <time>2014-06-28T07:24:41.000Z</time>
      </trkpt>
      <trkpt lat="45.14958" lon="5.6551">
        <ele>1027</ele>
        <time>2014-06-28T07:24:42.000Z</time>
      </trkpt>
      <trkpt lat="45.14957" lon="5.65509">
        <ele>1027</ele>
        <time>2014-06-28T07:24:43.000Z</time>
      </trkpt>
      <trkpt lat="45.14956" lon="5.65509">
        <ele>1027</ele>
        <time>2014-06-28T07:24:44.000Z</time>
      </trkpt>
      <trkpt lat="45.14956" lon="5.65508">
        <ele>1027</ele>
        <time>2014-06-28T07:24:45.000Z</time>
      </trkpt>
      <trkpt lat="45.14956" lon="5.65507">
        <ele>1028</ele>
        <time>2014-06-28T07:24:46.000Z</time>
      </trkpt>
      <trkpt lat="45.14956" lon="5.65506">
        <ele>1028</ele>
        <time>2014-06-28T07:24:47.000Z</time>
      </trkpt>
      <trkpt lat="45.14955" lon="5.65506">
        <ele>1028</ele>
        <time>2014-06-28T07:24:48.000Z</time>
      </trkpt>
      <trkpt lat="45.14955" lon="5.65505">
        <ele>1028</ele>
        <time>2014-06-28T07:24:49.000Z</time>
      </trkpt>
      <trkpt lat="45.14955" lon="5.65504">
        <ele>1028</ele>
        <time>2014-06-28T07:24:50.000Z</time>
      </trkpt>
      <trkpt lat="45.14955" lon="5.65503">
        <ele>1029</ele>
        <time>2014-06-28T07:24:51.000Z</time>
      </trkpt>
      <trkpt lat="45.14955" lon="5.65502">
        <ele>1029</ele>
        <time>2014-06-28T07:24:52.000Z</time>
      </trkpt>
      <trkpt lat="45.14954" lon="5.65501">
        <ele>1029</ele>
        <time>2014-06-28T07:24:53.000Z</time>
      </trkpt>
      <trkpt lat="45.14954" lon="5.65501">
        <ele>1029</ele>
        <time>2014-06-28T07:24:54.000Z</time>
      </trkpt>
      <trkpt lat="45.14954" lon="5.655">
        <ele>1030</ele>
        <time>2014-06-28T07:24:55.000Z</time>
      </trkpt>
      <trkpt lat="45.14954" lon="5.65499">
        <ele>1030</ele>
        <time>2014-06-28T07:24:56.000Z</time>
      </trkpt>
      <trkpt lat="45.14953" lon="5.65498">
        <ele>1030</ele>
        <time>2014-06-28T07:24:57.000Z</time>
      </trkpt>
      <trkpt lat="45.14953" lon="5.65497">
        <ele>1030</ele>
        <time>2014-06-28T07:24:58.000Z</time>
      </trkpt>
      <trkpt lat="45.14952" lon="5.65496">
        <ele>1031</ele>
        <time>2014-06-28T07:24:59.000Z</time>
      </trkpt>
      <trkpt lat="45.14951" lon="5.65495">
        <ele>1031</ele>
        <time>2014-06-28T07:25:00.000Z</time>
      </trkpt>
      <trkpt lat="45.14951" lon="5.65494">
        <ele>1031</ele>
        <time>2014-06-28T07:25:01.000Z</time>
      </trkpt>
      <trkpt lat="45.1495" lon="5.65493">
        <ele>1031</ele>
        <time>2014-06-28T07:25:02.000Z</time>
      </trkpt>
      <trkpt lat="45.14949" lon="5.65492">
        <ele>1031</ele>
        <time>2014-06-28T07:25:03.000Z</time>
      </trkpt>
      <trkpt lat="45.14949" lon="5.65491">
        <ele>1031</ele>
        <time>2014-06-28T07:25:04.000Z</time>
      </trkpt>
      <trkpt lat="45.14948" lon="5.6549">
        <ele>1031</ele>
        <time>2014-06-28T07:25:05.000Z</time>
      </trkpt>
      <trkpt lat="45.14947" lon="5.6549">
        <ele>1032</ele>
        <time>2014-06-28T07:25:06.000Z</time>
      </trkpt>
      <trkpt lat="45.14947" lon="5.65489">
        <ele>1032</ele>
        <time>2014-06-28T07:25:07.000Z</time>
      </trkpt>
      <trkpt lat="45.14946" lon="5.65488">
        <ele>1032</ele>
        <time>2014-06-28T07:25:08.000Z</time>
      </trkpt>
      <trkpt lat="45.14946" lon="5.65487">
        <ele>1032</ele>
        <time>2014-06-28T07:25:09.000Z</time>
      </trkpt>
      <trkpt lat="45.14945" lon="5.65487">
        <ele>1032</ele>
        <time>2014-06-28T07:25:10.000Z</time>
      </trkpt>
      <trkpt lat="45.14945" lon="5.65486">
        <ele>1032</ele>
        <time>2014-06-28T07:25:11.000Z</time>
      </trkpt>
      <trkpt lat="45.14944" lon="5.65485">
        <ele>1032</ele>
        <time>2014-06-28T07:25:12.000Z</time>
      </trkpt>
      <trkpt lat="45.14943" lon="5.65484">
        <ele>1032</ele>
        <time>2014-06-28T07:25:13.000Z</time>
      </trkpt>
      <trkpt lat="45.14943" lon="5.65484">
        <ele>1033</ele>
        <time>2014-06-28T07:25:14.000Z</time>
      </trkpt>
      <trkpt lat="45.14942" lon="5.65483">
        <ele>1033</ele>
        <time>2014-06-28T07:25:15.000Z</time>
      </trkpt>
      <trkpt lat="45.14941" lon="5.65482">
        <ele>1033</ele>
        <time>2014-06-28T07:25:16.000Z</time>
      </trkpt>
      <trkpt lat="45.14941" lon="5.65481">
        <ele>1033</ele>
        <time>2014-06-28T07:25:17.000Z</time>
      </trkpt>
      <trkpt lat="45.1494" lon="5.65481">
        <ele>1033</ele>
        <time>2014-06-28T07:25:18.000Z</time>
      </trkpt>
      <trkpt lat="45.1494" lon="5.6548">
        <ele>1034</ele>
        <time>2014-06-28T07:25:19.000Z</time>
      </trkpt>
      <trkpt lat="45.14939" lon="5.65479">
        <ele>1034</ele>
        <time>2014-06-28T07:25:20.000Z</time>
      </trkpt>
      <trkpt lat="45.14939" lon="5.65479">
        <ele>1034</ele>
        <time>2014-06-28T07:25:21.000Z</time>
      </trkpt>
      <trkpt lat="45.14938" lon="5.65478">
        <ele>1034</ele>
        <time>2014-06-28T07:25:22.000Z</time>
      </trkpt>
      <trkpt lat="45.14937" lon="5.65477">
        <ele>1034</ele>
        <time>2014-06-28T07:25:23.000Z</time>
      </trkpt>
      <trkpt lat="45.14937" lon="5.65476">
        <ele>1035</ele>
        <time>2014-06-28T07:25:24.000Z</time>
      </trkpt>
      <trkpt lat="45.14936" lon="5.65476">
        <ele>1035</ele>
        <time>2014-06-28T07:25:25.000Z</time>
      </trkpt>
      <trkpt lat="45.14936" lon="5.65475">
        <ele>1035</ele>
        <time>2014-06-28T07:25:26.000Z</time>
      </trkpt>
      <trkpt lat="45.14935" lon="5.65474">
        <ele>1036</ele>
        <time>2014-06-28T07:25:27.000Z</time>
      </trkpt>
      <trkpt lat="45.14935" lon="5.65473">
        <ele>1036</ele>
        <time>2014-06-28T07:25:28.000Z</time>
      </trkpt>
      <trkpt lat="45.14934" lon="5.65472">
        <ele>1036</ele>
        <time>2014-06-28T07:25:29.000Z</time>
      </trkpt>
      <trkpt lat="45.14934" lon="5.65472">
        <ele>1037</ele>
        <time>2014-06-28T07:25:30.000Z</time>
      </trkpt>
      <trkpt lat="45.14933" lon="5.65472">
        <ele>1037</ele>
        <time>2014-06-28T07:25:31.000Z</time>
      </trkpt>
      <trkpt lat="45.14932" lon="5.65472">
        <ele>1038</ele>
        <time>2014-06-28T07:25:32.000Z</time>
      </trkpt>
      <trkpt lat="45.14932" lon="5.65472">
        <ele>1039</ele>
        <time>2014-06-28T07:25:33.000Z</time>
      </trkpt>
      <trkpt lat="45.14932" lon="5.65472">
        <ele>1039</ele>
        <time>2014-06-28T07:25:34.000Z</time>
      </trkpt>
      <trkpt lat="45.14931" lon="5.65472">
        <ele>1040</ele>
        <time>2014-06-28T07:25:35.000Z</time>
      </trkpt>
      <trkpt lat="45.14931" lon="5.65472">
        <ele>1040</ele>
        <time>2014-06-28T07:25:36.000Z</time>
      </trkpt>
      <trkpt lat="45.14931" lon="5.65472">
        <ele>1041</ele>
        <time>2014-06-28T07:25:37.000Z</time>
      </trkpt>
      <trkpt lat="45.14931" lon="5.65472">
        <ele>1042</ele>
        <time>2014-06-28T07:25:38.000Z</time>
      </trkpt>
      <trkpt lat="45.14931" lon="5.65473">
        <ele>1042</ele>
        <time>2014-06-28T07:25:39.000Z</time>
      </trkpt>
      <trkpt lat="45.14931" lon="5.65474">
        <ele>1043</ele>
        <time>2014-06-28T07:25:40.000Z</time>
      </trkpt>
      <trkpt lat="45.14931" lon="5.65474">
        <ele>1043</ele>
        <time>2014-06-28T07:25:41.000Z</time>
      </trkpt>
      <trkpt lat="45.14931" lon="5.65474">
        <ele>1044</ele>
        <time>2014-06-28T07:25:42.000Z</time>
      </trkpt>
      <trkpt lat="45.14931" lon="5.65474">
        <ele>1044</ele>
        <time>2014-06-28T07:25:43.000Z</time>
      </trkpt>
      <trkpt lat="45.14931" lon="5.65474">
        <ele>1045</ele>
        <time>2014-06-28T07:25:44.000Z</time>
      </trkpt>
      <trkpt lat="45.14931" lon="5.65474">
        <ele>1045</ele>
        <time>2014-06-28T07:25:45.000Z</time>
      </trkpt>
      <trkpt lat="45.14931" lon="5.65474">
        <ele>1045</ele>
        <time>2014-06-28T07:25:46.000Z</time>
      </trkpt>
      <trkpt lat="45.14931" lon="5.65474">
        <ele>1046</ele>
        <time>2014-06-28T07:25:47.000Z</time>
      </trkpt>
      <trkpt lat="45.14931" lon="5.65474">
        <ele>1046</ele>
        <time>2014-06-28T07:25:48.000Z</time>
      </trkpt>
      <trkpt lat="45.14931" lon="5.65473">
        <ele>1046</ele>
        <time>2014-06-28T07:25:49.000Z</time>
      </trkpt>
      <trkpt lat="45.14931" lon="5.65473">
        <ele>1047</ele>
        <time>2014-06-28T07:25:50.000Z</time>
      </trkpt>
      <trkpt lat="45.14931" lon="5.65473">
        <ele>1047</ele>
        <time>2014-06-28T07:25:51.000Z</time>
      </trkpt>
      <trkpt lat="45.14931" lon="5.65473">
        <ele>1047</ele>
        <time>2014-06-28T07:25:52.000Z</time>
      </trkpt>
      <trkpt lat="45.14931" lon="5.65474">
        <ele>1047</ele>
        <time>2014-06-28T07:25:53.000Z</time>
      </trkpt>
      <trkpt lat="45.14931" lon="5.65474">
        <ele>1047</ele>
        <time>2014-06-28T07:25:54.000Z</time>
      </trkpt>
      <trkpt lat="45.14932" lon="5.65475">
        <ele>1048</ele>
        <time>2014-06-28T07:25:55.000Z</time>
      </trkpt>
      <trkpt lat="45.14932" lon="5.65475">
        <ele>1048</ele>
        <time>2014-06-28T07:25:56.000Z</time>
      </trkpt>
      <trkpt lat="45.14932" lon="5.65476">
        <ele>1048</ele>
        <time>2014-06-28T07:25:57.000Z</time>
      </trkpt>
      <trkpt lat="45.14933" lon="5.65476">
        <ele>1048</ele>
        <time>2014-06-28T07:25:58.000Z</time>
      </trkpt>
      <trkpt lat="45.14933" lon="5.65477">
        <ele>1048</ele>
        <time>2014-06-28T07:25:59.000Z</time>
      </trkpt>
      <trkpt lat="45.14933" lon="5.65477">
        <ele>1049</ele>
        <time>2014-06-28T07:26:00.000Z</time>
      </trkpt>
      <trkpt lat="45.14934" lon="5.65477">
        <ele>1049</ele>
        <time>2014-06-28T07:26:01.000Z</time>
      </trkpt>
      <trkpt lat="45.14934" lon="5.65477">
        <ele>1049</ele>
        <time>2014-06-28T07:26:02.000Z</time>
      </trkpt>
      <trkpt lat="45.14934" lon="5.65477">
        <ele>1049</ele>
        <time>2014-06-28T07:26:03.000Z</time>
      </trkpt>
      <trkpt lat="45.14934" lon="5.65477">
        <ele>1049</ele>
        <time>2014-06-28T07:26:04.000Z</time>
      </trkpt>
      <trkpt lat="45.14934" lon="5.65477">
        <ele>1050</ele>
        <time>2014-06-28T07:26:05.000Z</time>
      </trkpt>
      <trkpt lat="45.14934" lon="5.65477">
        <ele>1050</ele>
        <time>2014-06-28T07:26:06.000Z</time>
      </trkpt>
      <trkpt lat="45.14935" lon="5.65477">
        <ele>1050</ele>
        <time>2014-06-28T07:26:07.000Z</time>
      </trkpt>
      <trkpt lat="45.14935" lon="5.65477">
        <ele>1050</ele>
        <time>2014-06-28T07:26:08.000Z</time>
      </trkpt>
      <trkpt lat="45.14935" lon="5.65477">
        <ele>1050</ele>
        <time>2014-06-28T07:26:09.000Z</time>
      </trkpt>
      <trkpt lat="45.14935" lon="5.65477">
        <ele>1050</ele>
        <time>2014-06-28T07:26:10.000Z</time>
      </trkpt>
      <trkpt lat="45.14935" lon="5.65477">
        <ele>1050</ele>
        <time>2014-06-28T07:26:11.000Z</time>
      </trkpt>
      <trkpt lat="45.14935" lon="5.65477">
        <ele>1051</ele>
        <time>2014-06-28T07:26:12.000Z</time>
      </trkpt>
      <trkpt lat="45.14935" lon="5.65477">
        <ele>1051</ele>
        <time>2014-06-28T07:26:13.000Z</time>
      </trkpt>
      <trkpt lat="45.14936" lon="5.65477">
        <ele>1051</ele>
        <time>2014-06-28T07:26:14.000Z</time>
      </trkpt>
      <trkpt lat="45.14936" lon="5.65478">
        <ele>1051</ele>
        <time>2014-06-28T07:26:15.000Z</time>
      </trkpt>
      <trkpt lat="45.14936" lon="5.65478">
        <ele>1051</ele>
        <time>2014-06-28T07:26:16.000Z</time>
      </trkpt>
      <trkpt lat="45.14936" lon="5.65479">
        <ele>1051</ele>
        <time>2014-06-28T07:26:17.000Z</time>
      </trkpt>
      <trkpt lat="45.14936" lon="5.65479">
        <ele>1051</ele>
        <time>2014-06-28T07:26:18.000Z</time>
      </trkpt>
      <trkpt lat="45.14936" lon="5.6548">
        <ele>1052</ele>
        <time>2014-06-28T07:26:19.000Z</time>
      </trkpt>
      <trkpt lat="45.14936" lon="5.65481">
        <ele>1052</ele>
        <time>2014-06-28T07:26:20.000Z</time>
      </trkpt>
      <trkpt lat="45.14936" lon="5.65482">
        <ele>1052</ele>
        <time>2014-06-28T07:26:21.000Z</time>
      </trkpt>
      <trkpt lat="45.14936" lon="5.65483">
        <ele>1053</ele>
        <time>2014-06-28T07:26:22.000Z</time>
      </trkpt>
      <trkpt lat="45.14936" lon="5.65484">
        <ele>1053</ele>
        <time>2014-06-28T07:26:23.000Z</time>
      </trkpt>
      <trkpt lat="45.14936" lon="5.65486">
        <ele>1053</ele>
        <time>2014-06-28T07:26:24.000Z</time>
      </trkpt>
      <trkpt lat="45.14936" lon="5.65487">
        <ele>1054</ele>
        <time>2014-06-28T07:26:25.000Z</time>
      </trkpt>
      <trkpt lat="45.14936" lon="5.65488">
        <ele>1054</ele>
        <time>2014-06-28T07:26:26.000Z</time>
      </trkpt>
      <trkpt lat="45.14936" lon="5.65489">
        <ele>1054</ele>
        <time>2014-06-28T07:26:27.000Z</time>
      </trkpt>
      <trkpt lat="45.14936" lon="5.65491">
        <ele>1054</ele>
        <time>2014-06-28T07:26:28.000Z</time>
      </trkpt>
      <trkpt lat="45.14935" lon="5.65492">
        <ele>1054</ele>
        <time>2014-06-28T07:26:29.000Z</time>
      </trkpt>
      <trkpt lat="45.14935" lon="5.65493">
        <ele>1054</ele>
        <time>2014-06-28T07:26:30.000Z</time>
      </trkpt>
      <trkpt lat="45.14935" lon="5.65494">
        <ele>1054</ele>
        <time>2014-06-28T07:26:31.000Z</time>
      </trkpt>
      <trkpt lat="45.14934" lon="5.65495">
        <ele>1055</ele>
        <time>2014-06-28T07:26:32.000Z</time>
      </trkpt>
      <trkpt lat="45.14934" lon="5.65496">
        <ele>1055</ele>
        <time>2014-06-28T07:26:33.000Z</time>
      </trkpt>
      <trkpt lat="45.14933" lon="5.65498">
        <ele>1055</ele>
        <time>2014-06-28T07:26:34.000Z</time>
      </trkpt>
      <trkpt lat="45.14933" lon="5.65499">
        <ele>1055</ele>
        <time>2014-06-28T07:26:35.000Z</time>
      </trkpt>
      <trkpt lat="45.14933" lon="5.655">
        <ele>1055</ele>
        <time>2014-06-28T07:26:36.000Z</time>
      </trkpt>
      <trkpt lat="45.14933" lon="5.65501">
        <ele>1055</ele>
        <time>2014-06-28T07:26:37.000Z</time>
      </trkpt>
      <trkpt lat="45.14932" lon="5.65502">
        <ele>1055</ele>
        <time>2014-06-28T07:26:38.000Z</time>
      </trkpt>
      <trkpt lat="45.14932" lon="5.65503">
        <ele>1056</ele>
        <time>2014-06-28T07:26:39.000Z</time>
      </trkpt>
      <trkpt lat="45.14931" lon="5.65504">
        <ele>1056</ele>
        <time>2014-06-28T07:26:40.000Z</time>
      </trkpt>
      <trkpt lat="45.14931" lon="5.65505">
        <ele>1056</ele>
        <time>2014-06-28T07:26:41.000Z</time>
      </trkpt>
      <trkpt lat="45.14931" lon="5.65506">
        <ele>1056</ele>
        <time>2014-06-28T07:26:42.000Z</time>
      </trkpt>
      <trkpt lat="45.1493" lon="5.65506">
        <ele>1056</ele>
        <time>2014-06-28T07:26:43.000Z</time>
      </trkpt>
      <trkpt lat="45.14931" lon="5.65506">
        <ele>1056</ele>
        <time>2014-06-28T07:26:44.000Z</time>
      </trkpt>
      <trkpt lat="45.14931" lon="5.65506">
        <ele>1056</ele>
        <time>2014-06-28T07:26:45.000Z</time>
      </trkpt>
      <trkpt lat="45.14931" lon="5.65506">
        <ele>1056</ele>
        <time>2014-06-28T07:26:46.000Z</time>
      </trkpt>
      <trkpt lat="45.14932" lon="5.65506">
        <ele>1057</ele>
        <time>2014-06-28T07:26:47.000Z</time>
      </trkpt>
      <trkpt lat="45.14932" lon="5.65506">
        <ele>1057</ele>
        <time>2014-06-28T07:26:48.000Z</time>
      </trkpt>
      <trkpt lat="45.14933" lon="5.65506">
        <ele>1057</ele>
        <time>2014-06-28T07:26:49.000Z</time>
      </trkpt>
      <trkpt lat="45.14933" lon="5.65506">
        <ele>1057</ele>
        <time>2014-06-28T07:26:50.000Z</time>
      </trkpt>
      <trkpt lat="45.14933" lon="5.65506">
        <ele>1057</ele>
        <time>2014-06-28T07:26:51.000Z</time>
      </trkpt>
      <trkpt lat="45.14933" lon="5.65506">
        <ele>1058</ele>
        <time>2014-06-28T07:26:52.000Z</time>
      </trkpt>
      <trkpt lat="45.14934" lon="5.65506">
        <ele>1058</ele>
        <time>2014-06-28T07:26:53.000Z</time>
      </trkpt>
      <trkpt lat="45.14934" lon="5.65506">
        <ele>1058</ele>
        <time>2014-06-28T07:26:54.000Z</time>
      </trkpt>
      <trkpt lat="45.14934" lon="5.65505">
        <ele>1058</ele>
        <time>2014-06-28T07:26:55.000Z</time>
      </trkpt>
      <trkpt lat="45.14934" lon="5.65505">
        <ele>1058</ele>
        <time>2014-06-28T07:26:56.000Z</time>
      </trkpt>
      <trkpt lat="45.14935" lon="5.65505">
        <ele>1058</ele>
        <time>2014-06-28T07:26:57.000Z</time>
      </trkpt>
      <trkpt lat="45.14935" lon="5.65505">
        <ele>1058</ele>
        <time>2014-06-28T07:26:58.000Z</time>
      </trkpt>
      <trkpt lat="45.14935" lon="5.65504">
        <ele>1058</ele>
        <time>2014-06-28T07:26:59.000Z</time>
      </trkpt>
      <trkpt lat="45.14936" lon="5.65504">
        <ele>1058</ele>
        <time>2014-06-28T07:27:00.000Z</time>
      </trkpt>
      <trkpt lat="45.14936" lon="5.65503">
        <ele>1058</ele>
        <time>2014-06-28T07:27:01.000Z</time>
      </trkpt>
      <trkpt lat="45.14936" lon="5.65503">
        <ele>1058</ele>
        <time>2014-06-28T07:27:02.000Z</time>
      </trkpt>
      <trkpt lat="45.14936" lon="5.65502">
        <ele>1058</ele>
        <time>2014-06-28T07:27:03.000Z</time>
      </trkpt>
      <trkpt lat="45.14936" lon="5.65502">
        <ele>1058</ele>
        <time>2014-06-28T07:27:04.000Z</time>
      </trkpt>
      <trkpt lat="45.14936" lon="5.65501">
        <ele>1058</ele>
        <time>2014-06-28T07:27:05.000Z</time>
      </trkpt>
      <trkpt lat="45.14936" lon="5.65501">
        <ele>1058</ele>
        <time>2014-06-28T07:27:06.000Z</time>
      </trkpt>
      <trkpt lat="45.14937" lon="5.65501">
        <ele>1058</ele>
        <time>2014-06-28T07:27:07.000Z</time>
      </trkpt>
      <trkpt lat="45.14937" lon="5.655">
        <ele>1058</ele>
        <time>2014-06-28T07:27:08.000Z</time>
      </trkpt>
      <trkpt lat="45.14937" lon="5.655">
        <ele>1058</ele>
        <time>2014-06-28T07:27:09.000Z</time>
      </trkpt>
      <trkpt lat="45.14937" lon="5.655">
        <ele>1058</ele>
        <time>2014-06-28T07:27:10.000Z</time>
      </trkpt>
      <trkpt lat="45.14937" lon="5.655">
        <ele>1058</ele>
        <time>2014-06-28T07:27:11.000Z</time>
      </trkpt>
      <trkpt lat="45.14937" lon="5.65499">
        <ele>1058</ele>
        <time>2014-06-28T07:27:12.000Z</time>
      </trkpt>
      <trkpt lat="45.14937" lon="5.65499">
        <ele>1058</ele>
        <time>2014-06-28T07:27:13.000Z</time>
      </trkpt>
      <trkpt lat="45.14937" lon="5.65499">
        <ele>1058</ele>
        <time>2014-06-28T07:27:14.000Z</time>
      </trkpt>
      <trkpt lat="45.14938" lon="5.65499">
        <ele>1058</ele>
        <time>2014-06-28T07:27:15.000Z</time>
      </trkpt>
      <trkpt lat="45.14937" lon="5.65498">
        <ele>1058</ele>
        <time>2014-06-28T07:27:16.000Z</time>
      </trkpt>
      <trkpt lat="45.14938" lon="5.65498">
        <ele>1058</ele>
        <time>2014-06-28T07:27:17.000Z</time>
      </trkpt>
      <trkpt lat="45.14938" lon="5.65498">
        <ele>1058</ele>
        <time>2014-06-28T07:27:18.000Z</time>
      </trkpt>
      <trkpt lat="45.14938" lon="5.65498">
        <ele>1058</ele>
        <time>2014-06-28T07:27:19.000Z</time>
      </trkpt>
      <trkpt lat="45.14938" lon="5.65498">
        <ele>1058</ele>
        <time>2014-06-28T07:27:20.000Z</time>
      </trkpt>
      <trkpt lat="45.14938" lon="5.65497">
        <ele>1058</ele>
        <time>2014-06-28T07:27:21.000Z</time>
      </trkpt>
      <trkpt lat="45.14938" lon="5.65497">
        <ele>1058</ele>
        <time>2014-06-28T07:27:22.000Z</time>
      </trkpt>
      <trkpt lat="45.14938" lon="5.65497">
        <ele>1058</ele>
        <time>2014-06-28T07:27:23.000Z</time>
      </trkpt>
      <trkpt lat="45.14938" lon="5.65497">
        <ele>1058</ele>
        <time>2014-06-28T07:27:24.000Z</time>
      </trkpt>
      <trkpt lat="45.14938" lon="5.65497">
        <ele>1058</ele>
        <time>2014-06-28T07:27:25.000Z</time>
      </trkpt>
      <trkpt lat="45.14938" lon="5.65497">
        <ele>1058</ele>
        <time>2014-06-28T07:27:26.000Z</time>
      </trkpt>
      <trkpt lat="45.14938" lon="5.65496">
        <ele>1058</ele>
        <time>2014-06-28T07:27:27.000Z</time>
      </trkpt>
      <trkpt lat="45.14937" lon="5.65496">
        <ele>1058</ele>
        <time>2014-06-28T07:27:28.000Z</time>
      </trkpt>
      <trkpt lat="45.14937" lon="5.65496">
        <ele>1058</ele>
        <time>2014-06-28T07:27:29.000Z</time>
      </trkpt>
      <trkpt lat="45.14937" lon="5.65496">
        <ele>1058</ele>
        <time>2014-06-28T07:27:30.000Z</time>
      </trkpt>
      <trkpt lat="45.14937" lon="5.65496">
        <ele>1058</ele>
        <time>2014-06-28T07:27:31.000Z</time>
      </trkpt>
      <trkpt lat="45.14937" lon="5.65496">
        <ele>1058</ele>
        <time>2014-06-28T07:27:32.000Z</time>
      </trkpt>
      <trkpt lat="45.14937" lon="5.65496">
        <ele>1058</ele>
        <time>2014-06-28T07:27:33.000Z</time>
      </trkpt>
      <trkpt lat="45.14937" lon="5.65496">
        <ele>1058</ele>
        <time>2014-06-28T07:27:34.000Z</time>
      </trkpt>
      <trkpt lat="45.14937" lon="5.65496">
        <ele>1058</ele>
        <time>2014-06-28T07:27:35.000Z</time>
      </trkpt>
      <trkpt lat="45.14937" lon="5.65495">
        <ele>1058</ele>
        <time>2014-06-28T07:27:36.000Z</time>
      </trkpt>
      <trkpt lat="45.14937" lon="5.65495">
        <ele>1058</ele>
        <time>2014-06-28T07:27:37.000Z</time>
      </trkpt>
      <trkpt lat="45.14936" lon="5.65495">
        <ele>1058</ele>
        <time>2014-06-28T07:27:38.000Z</time>
      </trkpt>
      <trkpt lat="45.14936" lon="5.65495">
        <ele>1058</ele>
        <time>2014-06-28T07:27:39.000Z</time>
      </trkpt>
      <trkpt lat="45.14936" lon="5.65495">
        <ele>1058</ele>
        <time>2014-06-28T07:27:40.000Z</time>
      </trkpt>
      <trkpt lat="45.14936" lon="5.65495">
        <ele>1058</ele>
        <time>2014-06-28T07:27:41.000Z</time>
      </trkpt>
      <trkpt lat="45.14936" lon="5.65495">
        <ele>1058</ele>
        <time>2014-06-28T07:27:42.000Z</time>
      </trkpt>
      <trkpt lat="45.14936" lon="5.65495">
        <ele>1058</ele>
        <time>2014-06-28T07:27:43.000Z</time>
      </trkpt>
      <trkpt lat="45.14937" lon="5.65494">
        <ele>1058</ele>
        <time>2014-06-28T07:27:44.000Z</time>
      </trkpt>
      <trkpt lat="45.14937" lon="5.65494">
        <ele>1057</ele>
        <time>2014-06-28T07:27:45.000Z</time>
      </trkpt>
      <trkpt lat="45.14937" lon="5.65494">
        <ele>1057</ele>
        <time>2014-06-28T07:27:46.000Z</time>
      </trkpt>
      <trkpt lat="45.14937" lon="5.65494">
        <ele>1057</ele>
        <time>2014-06-28T07:27:47.000Z</time>
      </trkpt>
      <trkpt lat="45.14937" lon="5.65494">
        <ele>1058</ele>
        <time>2014-06-28T07:27:48.000Z</time>
      </trkpt>
      <trkpt lat="45.14937" lon="5.65494">
        <ele>1058</ele>
        <time>2014-06-28T07:27:49.000Z</time>
      </trkpt>
      <trkpt lat="45.14936" lon="5.65494">
        <ele>1058</ele>
        <time>2014-06-28T07:27:50.000Z</time>
      </trkpt>
      <trkpt lat="45.14936" lon="5.65494">
        <ele>1058</ele>
        <time>2014-06-28T07:27:51.000Z</time>
      </trkpt>
      <trkpt lat="45.14935" lon="5.65494">
        <ele>1058</ele>
        <time>2014-06-28T07:27:52.000Z</time>
      </trkpt>
      <trkpt lat="45.14935" lon="5.65494">
        <ele>1058</ele>
        <time>2014-06-28T07:27:53.000Z</time>
      </trkpt>
      <trkpt lat="45.14935" lon="5.65494">
        <ele>1058</ele>
        <time>2014-06-28T07:27:54.000Z</time>
      </trkpt>
      <trkpt lat="45.14935" lon="5.65494">
        <ele>1058</ele>
        <time>2014-06-28T07:27:55.000Z</time>
      </trkpt>
      <trkpt lat="45.14935" lon="5.65494">
        <ele>1058</ele>
        <time>2014-06-28T07:27:56.000Z</time>
      </trkpt>
      <trkpt lat="45.14934" lon="5.65494">
        <ele>1058</ele>
        <time>2014-06-28T07:27:57.000Z</time>
      </trkpt>
      <trkpt lat="45.14934" lon="5.65494">
        <ele>1058</ele>
        <time>2014-06-28T07:27:58.000Z</time>
      </trkpt>
      <trkpt lat="45.14934" lon="5.65494">
        <ele>1058</ele>
        <time>2014-06-28T07:27:59.000Z</time>
      </trkpt>
      <trkpt lat="45.14934" lon="5.65494">
        <ele>1058</ele>
        <time>2014-06-28T07:28:00.000Z</time>
      </trkpt>
      <trkpt lat="45.14935" lon="5.65494">
        <ele>1058</ele>
        <time>2014-06-28T07:28:01.000Z</time>
      </trkpt>
      <trkpt lat="45.14935" lon="5.65494">
        <ele>1058</ele>
        <time>2014-06-28T07:28:02.000Z</time>
      </trkpt>
      <trkpt lat="45.14935" lon="5.65494">
        <ele>1058</ele>
        <time>2014-06-28T07:28:03.000Z</time>
      </trkpt>
      <trkpt lat="45.14935" lon="5.65494">
        <ele>1058</ele>
        <time>2014-06-28T07:28:04.000Z</time>
      </trkpt>
      <trkpt lat="45.14935" lon="5.65494">
        <ele>1058</ele>
        <time>2014-06-28T07:28:05.000Z</time>
      </trkpt>
      <trkpt lat="45.14935" lon="5.65494">
        <ele>1058</ele>
        <time>2014-06-28T07:28:06.000Z</time>
      </trkpt>
      <trkpt lat="45.14935" lon="5.65494">
        <ele>1058</ele>
        <time>2014-06-28T07:28:07.000Z</time>
      </trkpt>
      <trkpt lat="45.14935" lon="5.65494">
        <ele>1058</ele>
        <time>2014-06-28T07:28:08.000Z</time>
      </trkpt>
      <trkpt lat="45.14935" lon="5.65494">
        <ele>1059</ele>
        <time>2014-06-28T07:28:09.000Z</time>
      </trkpt>
      <trkpt lat="45.14935" lon="5.65494">
        <ele>1059</ele>
        <time>2014-06-28T07:28:10.000Z</time>
      </trkpt>
      <trkpt lat="45.14935" lon="5.65494">
        <ele>1059</ele>
        <time>2014-06-28T07:28:11.000Z</time>
      </trkpt>
      <trkpt lat="45.14935" lon="5.65494">
        <ele>1059</ele>
        <time>2014-06-28T07:28:12.000Z</time>
      </trkpt>
      <trkpt lat="45.14935" lon="5.65494">
        <ele>1059</ele>
        <time>2014-06-28T07:28:13.000Z</time>
      </trkpt>
      <trkpt lat="45.14935" lon="5.65494">
        <ele>1059</ele>
        <time>2014-06-28T07:28:14.000Z</time>
      </trkpt>
      <trkpt lat="45.14935" lon="5.65494">
        <ele>1059</ele>
        <time>2014-06-28T07:28:15.000Z</time>
      </trkpt>
      <trkpt lat="45.14935" lon="5.65494">
        <ele>1059</ele>
        <time>2014-06-28T07:28:16.000Z</time>
      </trkpt>
      <trkpt lat="45.14935" lon="5.65494">
        <ele>1058</ele>
        <time>2014-06-28T07:28:17.000Z</time>
      </trkpt>
      <trkpt lat="45.14935" lon="5.65494">
        <ele>1058</ele>
        <time>2014-06-28T07:28:18.000Z</time>
      </trkpt>
      <trkpt lat="45.14935" lon="5.65494">
        <ele>1058</ele>
        <time>2014-06-28T07:28:19.000Z</time>
      </trkpt>
      <trkpt lat="45.14935" lon="5.65494">
        <ele>1058</ele>
        <time>2014-06-28T07:28:20.000Z</time>
      </trkpt>
      <trkpt lat="45.14935" lon="5.65494">
        <ele>1058</ele>
        <time>2014-06-28T07:28:21.000Z</time>
      </trkpt>
      <trkpt lat="45.14935" lon="5.65494">
        <ele>1058</ele>
        <time>2014-06-28T07:28:22.000Z</time>
      </trkpt>
      <trkpt lat="45.14935" lon="5.65494">
        <ele>1058</ele>
        <time>2014-06-28T07:28:23.000Z</time>
      </trkpt>
      <trkpt lat="45.14935" lon="5.65494">
        <ele>1058</ele>
        <time>2014-06-28T07:28:24.000Z</time>
      </trkpt>
      <trkpt lat="45.14935" lon="5.65494">
        <ele>1058</ele>
        <time>2014-06-28T07:28:25.000Z</time>
      </trkpt>
      <trkpt lat="45.14934" lon="5.65493">
        <ele>1058</ele>
        <time>2014-06-28T07:28:26.000Z</time>
      </trkpt>
      <trkpt lat="45.14933" lon="5.65493">
        <ele>1058</ele>
        <time>2014-06-28T07:28:27.000Z</time>
      </trkpt>
      <trkpt lat="45.14933" lon="5.65492">
        <ele>1058</ele>
        <time>2014-06-28T07:28:28.000Z</time>
      </trkpt>
      <trkpt lat="45.14932" lon="5.65491">
        <ele>1058</ele>
        <time>2014-06-28T07:28:29.000Z</time>
      </trkpt>
      <trkpt lat="45.14931" lon="5.6549">
        <ele>1058</ele>
        <time>2014-06-28T07:28:30.000Z</time>
      </trkpt>
      <trkpt lat="45.1493" lon="5.6549">
        <ele>1058</ele>
        <time>2014-06-28T07:28:31.000Z</time>
      </trkpt>
      <trkpt lat="45.14929" lon="5.65489">
        <ele>1058</ele>
        <time>2014-06-28T07:28:32.000Z</time>
      </trkpt>
      <trkpt lat="45.14928" lon="5.65489">
        <ele>1059</ele>
        <time>2014-06-28T07:28:33.000Z</time>
      </trkpt>
      <trkpt lat="45.14927" lon="5.65488">
        <ele>1059</ele>
        <time>2014-06-28T07:28:34.000Z</time>
      </trkpt>
      <trkpt lat="45.14927" lon="5.65487">
        <ele>1059</ele>
        <time>2014-06-28T07:28:35.000Z</time>
      </trkpt>
      <trkpt lat="45.14926" lon="5.65486">
        <ele>1059</ele>
        <time>2014-06-28T07:28:36.000Z</time>
      </trkpt>
      <trkpt lat="45.14925" lon="5.65486">
        <ele>1059</ele>
        <time>2014-06-28T07:28:37.000Z</time>
      </trkpt>
      <trkpt lat="45.14924" lon="5.65485">
        <ele>1059</ele>
        <time>2014-06-28T07:28:38.000Z</time>
      </trkpt>
      <trkpt lat="45.14923" lon="5.65484">
        <ele>1059</ele>
        <time>2014-06-28T07:28:39.000Z</time>
      </trkpt>
      <trkpt lat="45.14923" lon="5.65483">
        <ele>1059</ele>
        <time>2014-06-28T07:28:40.000Z</time>
      </trkpt>
      <trkpt lat="45.14922" lon="5.65482">
        <ele>1059</ele>
        <time>2014-06-28T07:28:41.000Z</time>
      </trkpt>
      <trkpt lat="45.14921" lon="5.65482">
        <ele>1060</ele>
        <time>2014-06-28T07:28:42.000Z</time>
      </trkpt>
      <trkpt lat="45.14921" lon="5.65481">
        <ele>1060</ele>
        <time>2014-06-28T07:28:43.000Z</time>
      </trkpt>
      <trkpt lat="45.1492" lon="5.6548">
        <ele>1060</ele>
        <time>2014-06-28T07:28:44.000Z</time>
      </trkpt>
      <trkpt lat="45.1492" lon="5.6548">
        <ele>1060</ele>
        <time>2014-06-28T07:28:45.000Z</time>
      </trkpt>
      <trkpt lat="45.14919" lon="5.65479">
        <ele>1060</ele>
        <time>2014-06-28T07:28:46.000Z</time>
      </trkpt>
      <trkpt lat="45.14918" lon="5.65479">
        <ele>1060</ele>
        <time>2014-06-28T07:28:47.000Z</time>
      </trkpt>
      <trkpt lat="45.14917" lon="5.65478">
        <ele>1061</ele>
        <time>2014-06-28T07:28:48.000Z</time>
      </trkpt>
      <trkpt lat="45.14917" lon="5.65478">
        <ele>1061</ele>
        <time>2014-06-28T07:28:49.000Z</time>
      </trkpt>
      <trkpt lat="45.14916" lon="5.65477">
        <ele>1061</ele>
        <time>2014-06-28T07:28:50.000Z</time>
      </trkpt>
      <trkpt lat="45.14916" lon="5.65477">
        <ele>1061</ele>
        <time>2014-06-28T07:28:51.000Z</time>
      </trkpt>
      <trkpt lat="45.14915" lon="5.65476">
        <ele>1061</ele>
        <time>2014-06-28T07:28:52.000Z</time>
      </trkpt>
      <trkpt lat="45.14914" lon="5.65474">
        <ele>1062</ele>
        <time>2014-06-28T07:28:53.000Z</time>
      </trkpt>
      <trkpt lat="45.14914" lon="5.65473">
        <ele>1062</ele>
        <time>2014-06-28T07:28:54.000Z</time>
      </trkpt>
      <trkpt lat="45.14913" lon="5.65472">
        <ele>1062</ele>
        <time>2014-06-28T07:28:55.000Z</time>
      </trkpt>
      <trkpt lat="45.14912" lon="5.65471">
        <ele>1062</ele>
        <time>2014-06-28T07:28:56.000Z</time>
      </trkpt>
      <trkpt lat="45.14911" lon="5.6547">
        <ele>1062</ele>
        <time>2014-06-28T07:28:57.000Z</time>
      </trkpt>
      <trkpt lat="45.14911" lon="5.6547">
        <ele>1063</ele>
        <time>2014-06-28T07:28:58.000Z</time>
      </trkpt>
      <trkpt lat="45.1491" lon="5.6547">
        <ele>1063</ele>
        <time>2014-06-28T07:28:59.000Z</time>
      </trkpt>
      <trkpt lat="45.14909" lon="5.6547">
        <ele>1063</ele>
        <time>2014-06-28T07:29:00.000Z</time>
      </trkpt>
      <trkpt lat="45.14909" lon="5.65471">
        <ele>1064</ele>
        <time>2014-06-28T07:29:01.000Z</time>
      </trkpt>
      <trkpt lat="45.14908" lon="5.65473">
        <ele>1064</ele>
        <time>2014-06-28T07:29:02.000Z</time>
      </trkpt>
      <trkpt lat="45.14907" lon="5.65474">
        <ele>1064</ele>
        <time>2014-06-28T07:29:03.000Z</time>
      </trkpt>
      <trkpt lat="45.14906" lon="5.65476">
        <ele>1065</ele>
        <time>2014-06-28T07:29:04.000Z</time>
      </trkpt>
      <trkpt lat="45.14906" lon="5.65478">
        <ele>1065</ele>
        <time>2014-06-28T07:29:05.000Z</time>
      </trkpt>
      <trkpt lat="45.14905" lon="5.6548">
        <ele>1065</ele>
        <time>2014-06-28T07:29:06.000Z</time>
      </trkpt>
      <trkpt lat="45.14904" lon="5.65481">
        <ele>1065</ele>
        <time>2014-06-28T07:29:07.000Z</time>
      </trkpt>
      <trkpt lat="45.14904" lon="5.65483">
        <ele>1066</ele>
        <time>2014-06-28T07:29:08.000Z</time>
      </trkpt>
      <trkpt lat="45.14903" lon="5.65484">
        <ele>1066</ele>
        <time>2014-06-28T07:29:09.000Z</time>
      </trkpt>
      <trkpt lat="45.14903" lon="5.65485">
        <ele>1066</ele>
        <time>2014-06-28T07:29:10.000Z</time>
      </trkpt>
      <trkpt lat="45.14902" lon="5.65486">
        <ele>1067</ele>
        <time>2014-06-28T07:29:11.000Z</time>
      </trkpt>
      <trkpt lat="45.14901" lon="5.65488">
        <ele>1067</ele>
        <time>2014-06-28T07:29:12.000Z</time>
      </trkpt>
      <trkpt lat="45.14901" lon="5.6549">
        <ele>1067</ele>
        <time>2014-06-28T07:29:13.000Z</time>
      </trkpt>
      <trkpt lat="45.149" lon="5.65491">
        <ele>1068</ele>
        <time>2014-06-28T07:29:14.000Z</time>
      </trkpt>
      <trkpt lat="45.149" lon="5.65493">
        <ele>1068</ele>
        <time>2014-06-28T07:29:15.000Z</time>
      </trkpt>
      <trkpt lat="45.14899" lon="5.65494">
        <ele>1068</ele>
        <time>2014-06-28T07:29:16.000Z</time>
      </trkpt>
      <trkpt lat="45.14898" lon="5.65495">
        <ele>1068</ele>
        <time>2014-06-28T07:29:17.000Z</time>
      </trkpt>
      <trkpt lat="45.14897" lon="5.65496">
        <ele>1069</ele>
        <time>2014-06-28T07:29:18.000Z</time>
      </trkpt>
      <trkpt lat="45.14896" lon="5.65498">
        <ele>1069</ele>
        <time>2014-06-28T07:29:19.000Z</time>
      </trkpt>
      <trkpt lat="45.14896" lon="5.65499">
        <ele>1069</ele>
        <time>2014-06-28T07:29:20.000Z</time>
      </trkpt>
      <trkpt lat="45.14895" lon="5.65501">
        <ele>1069</ele>
        <time>2014-06-28T07:29:21.000Z</time>
      </trkpt>
      <trkpt lat="45.14894" lon="5.65503">
        <ele>1070</ele>
        <time>2014-06-28T07:29:22.000Z</time>
      </trkpt>
      <trkpt lat="45.14894" lon="5.65504">
        <ele>1070</ele>
        <time>2014-06-28T07:29:23.000Z</time>
      </trkpt>
      <trkpt lat="45.14893" lon="5.65506">
        <ele>1070</ele>
        <time>2014-06-28T07:29:24.000Z</time>
      </trkpt>
      <trkpt lat="45.14892" lon="5.65507">
        <ele>1071</ele>
        <time>2014-06-28T07:29:25.000Z</time>
      </trkpt>
      <trkpt lat="45.14891" lon="5.65508">
        <ele>1071</ele>
        <time>2014-06-28T07:29:26.000Z</time>
      </trkpt>
      <trkpt lat="45.14891" lon="5.65509">
        <ele>1071</ele>
        <time>2014-06-28T07:29:27.000Z</time>
      </trkpt>
      <trkpt lat="45.1489" lon="5.6551">
        <ele>1072</ele>
        <time>2014-06-28T07:29:28.000Z</time>
      </trkpt>
      <trkpt lat="45.14889" lon="5.65511">
        <ele>1072</ele>
        <time>2014-06-28T07:29:29.000Z</time>
      </trkpt>
      <trkpt lat="45.14888" lon="5.65512">
        <ele>1073</ele>
        <time>2014-06-28T07:29:30.000Z</time>
      </trkpt>
      <trkpt lat="45.14888" lon="5.65513">
        <ele>1073</ele>
        <time>2014-06-28T07:29:31.000Z</time>
      </trkpt>
      <trkpt lat="45.14887" lon="5.65514">
        <ele>1073</ele>
        <time>2014-06-28T07:29:32.000Z</time>
      </trkpt>
      <trkpt lat="45.14886" lon="5.65515">
        <ele>1074</ele>
        <time>2014-06-28T07:29:33.000Z</time>
      </trkpt>
      <trkpt lat="45.14885" lon="5.65516">
        <ele>1074</ele>
        <time>2014-06-28T07:29:34.000Z</time>
      </trkpt>
      <trkpt lat="45.14884" lon="5.65517">
        <ele>1074</ele>
        <time>2014-06-28T07:29:35.000Z</time>
      </trkpt>
      <trkpt lat="45.14883" lon="5.65518">
        <ele>1075</ele>
        <time>2014-06-28T07:29:36.000Z</time>
      </trkpt>
      <trkpt lat="45.14883" lon="5.65519">
        <ele>1075</ele>
        <time>2014-06-28T07:29:37.000Z</time>
      </trkpt>
      <trkpt lat="45.14882" lon="5.65521">
        <ele>1076</ele>
        <time>2014-06-28T07:29:38.000Z</time>
      </trkpt>
      <trkpt lat="45.14882" lon="5.65522">
        <ele>1076</ele>
        <time>2014-06-28T07:29:39.000Z</time>
      </trkpt>
      <trkpt lat="45.14881" lon="5.65523">
        <ele>1076</ele>
        <time>2014-06-28T07:29:40.000Z</time>
      </trkpt>
      <trkpt lat="45.1488" lon="5.65524">
        <ele>1076</ele>
        <time>2014-06-28T07:29:41.000Z</time>
      </trkpt>
      <trkpt lat="45.14879" lon="5.65524">
        <ele>1077</ele>
        <time>2014-06-28T07:29:42.000Z</time>
      </trkpt>
      <trkpt lat="45.14879" lon="5.65525">
        <ele>1077</ele>
        <time>2014-06-28T07:29:43.000Z</time>
      </trkpt>
      <trkpt lat="45.14878" lon="5.65526">
        <ele>1078</ele>
        <time>2014-06-28T07:29:44.000Z</time>
      </trkpt>
      <trkpt lat="45.14877" lon="5.65526">
        <ele>1078</ele>
        <time>2014-06-28T07:29:45.000Z</time>
      </trkpt>
      <trkpt lat="45.14876" lon="5.65527">
        <ele>1078</ele>
        <time>2014-06-28T07:29:46.000Z</time>
      </trkpt>
      <trkpt lat="45.14874" lon="5.65528">
        <ele>1079</ele>
        <time>2014-06-28T07:29:47.000Z</time>
      </trkpt>
      <trkpt lat="45.14873" lon="5.65529">
        <ele>1079</ele>
        <time>2014-06-28T07:29:48.000Z</time>
      </trkpt>
      <trkpt lat="45.14872" lon="5.65529">
        <ele>1080</ele>
        <time>2014-06-28T07:29:49.000Z</time>
      </trkpt>
      <trkpt lat="45.14872" lon="5.6553">
        <ele>1080</ele>
        <time>2014-06-28T07:29:50.000Z</time>
      </trkpt>
      <trkpt lat="45.14871" lon="5.65531">
        <ele>1080</ele>
        <time>2014-06-28T07:29:51.000Z</time>
      </trkpt>
      <trkpt lat="45.1487" lon="5.65532">
        <ele>1080</ele>
        <time>2014-06-28T07:29:52.000Z</time>
      </trkpt>
      <trkpt lat="45.1487" lon="5.65533">
        <ele>1081</ele>
        <time>2014-06-28T07:29:53.000Z</time>
      </trkpt>
      <trkpt lat="45.14869" lon="5.65534">
        <ele>1081</ele>
        <time>2014-06-28T07:29:54.000Z</time>
      </trkpt>
      <trkpt lat="45.14868" lon="5.65535">
        <ele>1081</ele>
        <time>2014-06-28T07:29:55.000Z</time>
      </trkpt>
      <trkpt lat="45.14867" lon="5.65536">
        <ele>1082</ele>
        <time>2014-06-28T07:29:56.000Z</time>
      </trkpt>
      <trkpt lat="45.14867" lon="5.65537">
        <ele>1082</ele>
        <time>2014-06-28T07:29:57.000Z</time>
      </trkpt>
      <trkpt lat="45.14866" lon="5.65538">
        <ele>1082</ele>
        <time>2014-06-28T07:29:58.000Z</time>
      </trkpt>
      <trkpt lat="45.14865" lon="5.65539">
        <ele>1083</ele>
        <time>2014-06-28T07:29:59.000Z</time>
      </trkpt>
      <trkpt lat="45.14864" lon="5.65539">
        <ele>1083</ele>
        <time>2014-06-28T07:30:00.000Z</time>
      </trkpt>
      <trkpt lat="45.14863" lon="5.6554">
        <ele>1084</ele>
        <time>2014-06-28T07:30:01.000Z</time>
      </trkpt>
      <trkpt lat="45.14862" lon="5.65541">
        <ele>1084</ele>
        <time>2014-06-28T07:30:02.000Z</time>
      </trkpt>
      <trkpt lat="45.14861" lon="5.65542">
        <ele>1084</ele>
        <time>2014-06-28T07:30:03.000Z</time>
      </trkpt>
      <trkpt lat="45.1486" lon="5.65543">
        <ele>1085</ele>
        <time>2014-06-28T07:30:04.000Z</time>
      </trkpt>
      <trkpt lat="45.14858" lon="5.65544">
        <ele>1085</ele>
        <time>2014-06-28T07:30:05.000Z</time>
      </trkpt>
      <trkpt lat="45.14857" lon="5.65545">
        <ele>1085</ele>
        <time>2014-06-28T07:30:06.000Z</time>
      </trkpt>
      <trkpt lat="45.14855" lon="5.65546">
        <ele>1086</ele>
        <time>2014-06-28T07:30:07.000Z</time>
      </trkpt>
      <trkpt lat="45.14854" lon="5.65547">
        <ele>1086</ele>
        <time>2014-06-28T07:30:08.000Z</time>
      </trkpt>
      <trkpt lat="45.14853" lon="5.65547">
        <ele>1087</ele>
        <time>2014-06-28T07:30:09.000Z</time>
      </trkpt>
      <trkpt lat="45.14852" lon="5.65547">
        <ele>1087</ele>
        <time>2014-06-28T07:30:10.000Z</time>
      </trkpt>
      <trkpt lat="45.14852" lon="5.65546">
        <ele>1087</ele>
        <time>2014-06-28T07:30:11.000Z</time>
      </trkpt>
      <trkpt lat="45.14851" lon="5.65546">
        <ele>1088</ele>
        <time>2014-06-28T07:30:12.000Z</time>
      </trkpt>
      <trkpt lat="45.14851" lon="5.65545">
        <ele>1088</ele>
        <time>2014-06-28T07:30:13.000Z</time>
      </trkpt>
      <trkpt lat="45.14851" lon="5.65544">
        <ele>1088</ele>
        <time>2014-06-28T07:30:14.000Z</time>
      </trkpt>
      <trkpt lat="45.1485" lon="5.65543">
        <ele>1088</ele>
        <time>2014-06-28T07:30:15.000Z</time>
      </trkpt>
      <trkpt lat="45.1485" lon="5.65543">
        <ele>1088</ele>
        <time>2014-06-28T07:30:16.000Z</time>
      </trkpt>
      <trkpt lat="45.1485" lon="5.65541">
        <ele>1088</ele>
        <time>2014-06-28T07:30:17.000Z</time>
      </trkpt>
      <trkpt lat="45.14851" lon="5.6554">
        <ele>1088</ele>
        <time>2014-06-28T07:30:18.000Z</time>
      </trkpt>
      <trkpt lat="45.14851" lon="5.65538">
        <ele>1088</ele>
        <time>2014-06-28T07:30:19.000Z</time>
      </trkpt>
      <trkpt lat="45.14851" lon="5.65537">
        <ele>1088</ele>
        <time>2014-06-28T07:30:20.000Z</time>
      </trkpt>
      <trkpt lat="45.14851" lon="5.65535">
        <ele>1088</ele>
        <time>2014-06-28T07:30:21.000Z</time>
      </trkpt>
      <trkpt lat="45.14852" lon="5.65534">
        <ele>1088</ele>
        <time>2014-06-28T07:30:22.000Z</time>
      </trkpt>
      <trkpt lat="45.14852" lon="5.65533">
        <ele>1088</ele>
        <time>2014-06-28T07:30:23.000Z</time>
      </trkpt>
      <trkpt lat="45.14852" lon="5.65532">
        <ele>1088</ele>
        <time>2014-06-28T07:30:24.000Z</time>
      </trkpt>
      <trkpt lat="45.14852" lon="5.6553">
        <ele>1088</ele>
        <time>2014-06-28T07:30:25.000Z</time>
      </trkpt>
      <trkpt lat="45.14852" lon="5.65529">
        <ele>1088</ele>
        <time>2014-06-28T07:30:26.000Z</time>
      </trkpt>
      <trkpt lat="45.14851" lon="5.65528">
        <ele>1089</ele>
        <time>2014-06-28T07:30:27.000Z</time>
      </trkpt>
      <trkpt lat="45.14851" lon="5.65526">
        <ele>1089</ele>
        <time>2014-06-28T07:30:28.000Z</time>
      </trkpt>
      <trkpt lat="45.14851" lon="5.65525">
        <ele>1089</ele>
        <time>2014-06-28T07:30:29.000Z</time>
      </trkpt>
      <trkpt lat="45.14851" lon="5.65524">
        <ele>1089</ele>
        <time>2014-06-28T07:30:30.000Z</time>
      </trkpt>
      <trkpt lat="45.14851" lon="5.65523">
        <ele>1089</ele>
        <time>2014-06-28T07:30:31.000Z</time>
      </trkpt>
      <trkpt lat="45.14851" lon="5.65522">
        <ele>1090</ele>
        <time>2014-06-28T07:30:32.000Z</time>
      </trkpt>
      <trkpt lat="45.14851" lon="5.65521">
        <ele>1090</ele>
        <time>2014-06-28T07:30:33.000Z</time>
      </trkpt>
      <trkpt lat="45.14851" lon="5.65519">
        <ele>1090</ele>
        <time>2014-06-28T07:30:34.000Z</time>
      </trkpt>
      <trkpt lat="45.14851" lon="5.65518">
        <ele>1090</ele>
        <time>2014-06-28T07:30:35.000Z</time>
      </trkpt>
      <trkpt lat="45.14851" lon="5.65516">
        <ele>1090</ele>
        <time>2014-06-28T07:30:36.000Z</time>
      </trkpt>
      <trkpt lat="45.14851" lon="5.65516">
        <ele>1090</ele>
        <time>2014-06-28T07:30:37.000Z</time>
      </trkpt>
      <trkpt lat="45.14851" lon="5.65515">
        <ele>1090</ele>
        <time>2014-06-28T07:30:38.000Z</time>
      </trkpt>
      <trkpt lat="45.14851" lon="5.65514">
        <ele>1090</ele>
        <time>2014-06-28T07:30:39.000Z</time>
      </trkpt>
      <trkpt lat="45.14851" lon="5.65512">
        <ele>1091</ele>
        <time>2014-06-28T07:30:40.000Z</time>
      </trkpt>
      <trkpt lat="45.14851" lon="5.65511">
        <ele>1091</ele>
        <time>2014-06-28T07:30:41.000Z</time>
      </trkpt>
      <trkpt lat="45.14851" lon="5.6551">
        <ele>1091</ele>
        <time>2014-06-28T07:30:42.000Z</time>
      </trkpt>
      <trkpt lat="45.14851" lon="5.65509">
        <ele>1091</ele>
        <time>2014-06-28T07:30:43.000Z</time>
      </trkpt>
      <trkpt lat="45.14851" lon="5.65507">
        <ele>1091</ele>
        <time>2014-06-28T07:30:44.000Z</time>
      </trkpt>
      <trkpt lat="45.14851" lon="5.65506">
        <ele>1091</ele>
        <time>2014-06-28T07:30:45.000Z</time>
      </trkpt>
      <trkpt lat="45.1485" lon="5.65504">
        <ele>1091</ele>
        <time>2014-06-28T07:30:46.000Z</time>
      </trkpt>
      <trkpt lat="45.1485" lon="5.65503">
        <ele>1092</ele>
        <time>2014-06-28T07:30:47.000Z</time>
      </trkpt>
      <trkpt lat="45.14849" lon="5.65502">
        <ele>1092</ele>
        <time>2014-06-28T07:30:48.000Z</time>
      </trkpt>
      <trkpt lat="45.14848" lon="5.655">
        <ele>1092</ele>
        <time>2014-06-28T07:30:49.000Z</time>
      </trkpt>
      <trkpt lat="45.14847" lon="5.65499">
        <ele>1092</ele>
        <time>2014-06-28T07:30:50.000Z</time>
      </trkpt>
      <trkpt lat="45.14847" lon="5.65497">
        <ele>1092</ele>
        <time>2014-06-28T07:30:51.000Z</time>
      </trkpt>
      <trkpt lat="45.14846" lon="5.65496">
        <ele>1092</ele>
        <time>2014-06-28T07:30:52.000Z</time>
      </trkpt>
      <trkpt lat="45.14845" lon="5.65494">
        <ele>1092</ele>
        <time>2014-06-28T07:30:53.000Z</time>
      </trkpt>
      <trkpt lat="45.14844" lon="5.65494">
        <ele>1093</ele>
        <time>2014-06-28T07:30:54.000Z</time>
      </trkpt>
      <trkpt lat="45.14843" lon="5.65492">
        <ele>1093</ele>
        <time>2014-06-28T07:30:55.000Z</time>
      </trkpt>
      <trkpt lat="45.14842" lon="5.65492">
        <ele>1093</ele>
        <time>2014-06-28T07:30:56.000Z</time>
      </trkpt>
      <trkpt lat="45.14842" lon="5.65491">
        <ele>1093</ele>
        <time>2014-06-28T07:30:57.000Z</time>
      </trkpt>
      <trkpt lat="45.14841" lon="5.65492">
        <ele>1094</ele>
        <time>2014-06-28T07:30:58.000Z</time>
      </trkpt>
      <trkpt lat="45.14841" lon="5.65492">
        <ele>1094</ele>
        <time>2014-06-28T07:30:59.000Z</time>
      </trkpt>
      <trkpt lat="45.1484" lon="5.65492">
        <ele>1094</ele>
        <time>2014-06-28T07:31:00.000Z</time>
      </trkpt>
      <trkpt lat="45.14839" lon="5.65492">
        <ele>1095</ele>
        <time>2014-06-28T07:31:01.000Z</time>
      </trkpt>
      <trkpt lat="45.14838" lon="5.65492">
        <ele>1095</ele>
        <time>2014-06-28T07:31:02.000Z</time>
      </trkpt>
      <trkpt lat="45.14837" lon="5.65492">
        <ele>1096</ele>
        <time>2014-06-28T07:31:03.000Z</time>
      </trkpt>
      <trkpt lat="45.14836" lon="5.65491">
        <ele>1096</ele>
        <time>2014-06-28T07:31:04.000Z</time>
      </trkpt>
      <trkpt lat="45.14835" lon="5.65491">
        <ele>1096</ele>
        <time>2014-06-28T07:31:05.000Z</time>
      </trkpt>
      <trkpt lat="45.14835" lon="5.6549">
        <ele>1097</ele>
        <time>2014-06-28T07:31:06.000Z</time>
      </trkpt>
      <trkpt lat="45.14835" lon="5.65489">
        <ele>1097</ele>
        <time>2014-06-28T07:31:07.000Z</time>
      </trkpt>
      <trkpt lat="45.14835" lon="5.65488">
        <ele>1097</ele>
        <time>2014-06-28T07:31:08.000Z</time>
      </trkpt>
      <trkpt lat="45.14835" lon="5.65487">
        <ele>1097</ele>
        <time>2014-06-28T07:31:09.000Z</time>
      </trkpt>
      <trkpt lat="45.14835" lon="5.65487">
        <ele>1097</ele>
        <time>2014-06-28T07:31:10.000Z</time>
      </trkpt>
      <trkpt lat="45.14835" lon="5.65486">
        <ele>1097</ele>
        <time>2014-06-28T07:31:11.000Z</time>
      </trkpt>
      <trkpt lat="45.14835" lon="5.65485">
        <ele>1098</ele>
        <time>2014-06-28T07:31:12.000Z</time>
      </trkpt>
      <trkpt lat="45.14835" lon="5.65484">
        <ele>1098</ele>
        <time>2014-06-28T07:31:13.000Z</time>
      </trkpt>
      <trkpt lat="45.14834" lon="5.65483">
        <ele>1098</ele>
        <time>2014-06-28T07:31:14.000Z</time>
      </trkpt>
      <trkpt lat="45.14834" lon="5.65483">
        <ele>1098</ele>
        <time>2014-06-28T07:31:15.000Z</time>
      </trkpt>
      <trkpt lat="45.14833" lon="5.65482">
        <ele>1098</ele>
        <time>2014-06-28T07:31:16.000Z</time>
      </trkpt>
      <trkpt lat="45.14832" lon="5.65481">
        <ele>1099</ele>
        <time>2014-06-28T07:31:17.000Z</time>
      </trkpt>
      <trkpt lat="45.14832" lon="5.65481">
        <ele>1099</ele>
        <time>2014-06-28T07:31:18.000Z</time>
      </trkpt>
      <trkpt lat="45.14831" lon="5.6548">
        <ele>1099</ele>
        <time>2014-06-28T07:31:19.000Z</time>
      </trkpt>
      <trkpt lat="45.14831" lon="5.6548">
        <ele>1099</ele>
        <time>2014-06-28T07:31:20.000Z</time>
      </trkpt>
      <trkpt lat="45.1483" lon="5.65479">
        <ele>1100</ele>
        <time>2014-06-28T07:31:21.000Z</time>
      </trkpt>
      <trkpt lat="45.1483" lon="5.65479">
        <ele>1100</ele>
        <time>2014-06-28T07:31:22.000Z</time>
      </trkpt>
      <trkpt lat="45.14829" lon="5.65478">
        <ele>1100</ele>
        <time>2014-06-28T07:31:23.000Z</time>
      </trkpt>
      <trkpt lat="45.14828" lon="5.65478">
        <ele>1100</ele>
        <time>2014-06-28T07:31:24.000Z</time>
      </trkpt>
      <trkpt lat="45.14827" lon="5.65478">
        <ele>1101</ele>
        <time>2014-06-28T07:31:25.000Z</time>
      </trkpt>
      <trkpt lat="45.14827" lon="5.65477">
        <ele>1101</ele>
        <time>2014-06-28T07:31:26.000Z</time>
      </trkpt>
      <trkpt lat="45.14826" lon="5.65477">
        <ele>1101</ele>
        <time>2014-06-28T07:31:27.000Z</time>
      </trkpt>
      <trkpt lat="45.14826" lon="5.65476">
        <ele>1101</ele>
        <time>2014-06-28T07:31:28.000Z</time>
      </trkpt>
      <trkpt lat="45.14825" lon="5.65476">
        <ele>1101</ele>
        <time>2014-06-28T07:31:29.000Z</time>
      </trkpt>
      <trkpt lat="45.14825" lon="5.65476">
        <ele>1102</ele>
        <time>2014-06-28T07:31:30.000Z</time>
      </trkpt>
      <trkpt lat="45.14825" lon="5.65476">
        <ele>1102</ele>
        <time>2014-06-28T07:31:31.000Z</time>
      </trkpt>
      <trkpt lat="45.14824" lon="5.65476">
        <ele>1102</ele>
        <time>2014-06-28T07:31:32.000Z</time>
      </trkpt>
      <trkpt lat="45.14824" lon="5.65476">
        <ele>1102</ele>
        <time>2014-06-28T07:31:33.000Z</time>
      </trkpt>
      <trkpt lat="45.14824" lon="5.65476">
        <ele>1103</ele>
        <time>2014-06-28T07:31:34.000Z</time>
      </trkpt>
      <trkpt lat="45.14824" lon="5.65476">
        <ele>1103</ele>
        <time>2014-06-28T07:31:35.000Z</time>
      </trkpt>
      <trkpt lat="45.14824" lon="5.65476">
        <ele>1103</ele>
        <time>2014-06-28T07:31:36.000Z</time>
      </trkpt>
      <trkpt lat="45.14824" lon="5.65476">
        <ele>1103</ele>
        <time>2014-06-28T07:31:37.000Z</time>
      </trkpt>
      <trkpt lat="45.14824" lon="5.65476">
        <ele>1103</ele>
        <time>2014-06-28T07:31:38.000Z</time>
      </trkpt>
      <trkpt lat="45.14823" lon="5.65476">
        <ele>1104</ele>
        <time>2014-06-28T07:31:39.000Z</time>
      </trkpt>
      <trkpt lat="45.14823" lon="5.65476">
        <ele>1104</ele>
        <time>2014-06-28T07:31:40.000Z</time>
      </trkpt>
      <trkpt lat="45.14823" lon="5.65475">
        <ele>1104</ele>
        <time>2014-06-28T07:31:41.000Z</time>
      </trkpt>
      <trkpt lat="45.14823" lon="5.65475">
        <ele>1104</ele>
        <time>2014-06-28T07:31:42.000Z</time>
      </trkpt>
      <trkpt lat="45.14823" lon="5.65476">
        <ele>1104</ele>
        <time>2014-06-28T07:31:43.000Z</time>
      </trkpt>
      <trkpt lat="45.14823" lon="5.65476">
        <ele>1105</ele>
        <time>2014-06-28T07:31:44.000Z</time>
      </trkpt>
      <trkpt lat="45.14823" lon="5.65476">
        <ele>1105</ele>
        <time>2014-06-28T07:31:45.000Z</time>
      </trkpt>
      <trkpt lat="45.14823" lon="5.65477">
        <ele>1105</ele>
        <time>2014-06-28T07:31:46.000Z</time>
      </trkpt>
      <trkpt lat="45.14823" lon="5.65478">
        <ele>1106</ele>
        <time>2014-06-28T07:31:47.000Z</time>
      </trkpt>
      <trkpt lat="45.14823" lon="5.65479">
        <ele>1106</ele>
        <time>2014-06-28T07:31:48.000Z</time>
      </trkpt>
      <trkpt lat="45.14823" lon="5.6548">
        <ele>1106</ele>
        <time>2014-06-28T07:31:49.000Z</time>
      </trkpt>
      <trkpt lat="45.14823" lon="5.65481">
        <ele>1107</ele>
        <time>2014-06-28T07:31:50.000Z</time>
      </trkpt>
      <trkpt lat="45.14823" lon="5.65482">
        <ele>1107</ele>
        <time>2014-06-28T07:31:51.000Z</time>
      </trkpt>
      <trkpt lat="45.14823" lon="5.65484">
        <ele>1107</ele>
        <time>2014-06-28T07:31:52.000Z</time>
      </trkpt>
      <trkpt lat="45.14823" lon="5.65485">
        <ele>1108</ele>
        <time>2014-06-28T07:31:53.000Z</time>
      </trkpt>
      <trkpt lat="45.14823" lon="5.65486">
        <ele>1108</ele>
        <time>2014-06-28T07:31:54.000Z</time>
      </trkpt>
      <trkpt lat="45.14824" lon="5.65488">
        <ele>1108</ele>
        <time>2014-06-28T07:31:55.000Z</time>
      </trkpt>
      <trkpt lat="45.14824" lon="5.6549">
        <ele>1109</ele>
        <time>2014-06-28T07:31:56.000Z</time>
      </trkpt>
      <trkpt lat="45.14824" lon="5.65491">
        <ele>1109</ele>
        <time>2014-06-28T07:31:57.000Z</time>
      </trkpt>
      <trkpt lat="45.14824" lon="5.65492">
        <ele>1109</ele>
        <time>2014-06-28T07:31:58.000Z</time>
      </trkpt>
      <trkpt lat="45.14823" lon="5.65493">
        <ele>1109</ele>
        <time>2014-06-28T07:31:59.000Z</time>
      </trkpt>
      <trkpt lat="45.14823" lon="5.65493">
        <ele>1109</ele>
        <time>2014-06-28T07:32:00.000Z</time>
      </trkpt>
      <trkpt lat="45.14823" lon="5.65494">
        <ele>1110</ele>
        <time>2014-06-28T07:32:01.000Z</time>
      </trkpt>
      <trkpt lat="45.14823" lon="5.65494">
        <ele>1110</ele>
        <time>2014-06-28T07:32:02.000Z</time>
      </trkpt>
      <trkpt lat="45.14823" lon="5.65496">
        <ele>1110</ele>
        <time>2014-06-28T07:32:03.000Z</time>
      </trkpt>
      <trkpt lat="45.14822" lon="5.65497">
        <ele>1110</ele>
        <time>2014-06-28T07:32:04.000Z</time>
      </trkpt>
      <trkpt lat="45.14821" lon="5.65499">
        <ele>1110</ele>
        <time>2014-06-28T07:32:05.000Z</time>
      </trkpt>
      <trkpt lat="45.1482" lon="5.655">
        <ele>1110</ele>
        <time>2014-06-28T07:32:06.000Z</time>
      </trkpt>
      <trkpt lat="45.14819" lon="5.65502">
        <ele>1110</ele>
        <time>2014-06-28T07:32:07.000Z</time>
      </trkpt>
      <trkpt lat="45.14818" lon="5.65503">
        <ele>1111</ele>
        <time>2014-06-28T07:32:08.000Z</time>
      </trkpt>
      <trkpt lat="45.14818" lon="5.65504">
        <ele>1111</ele>
        <time>2014-06-28T07:32:09.000Z</time>
      </trkpt>
      <trkpt lat="45.14817" lon="5.65504">
        <ele>1111</ele>
        <time>2014-06-28T07:32:10.000Z</time>
      </trkpt>
      <trkpt lat="45.14817" lon="5.65504">
        <ele>1111</ele>
        <time>2014-06-28T07:32:11.000Z</time>
      </trkpt>
      <trkpt lat="45.14816" lon="5.65504">
        <ele>1111</ele>
        <time>2014-06-28T07:32:12.000Z</time>
      </trkpt>
      <trkpt lat="45.14816" lon="5.65504">
        <ele>1111</ele>
        <time>2014-06-28T07:32:13.000Z</time>
      </trkpt>
      <trkpt lat="45.14816" lon="5.65504">
        <ele>1111</ele>
        <time>2014-06-28T07:32:14.000Z</time>
      </trkpt>
      <trkpt lat="45.14815" lon="5.65504">
        <ele>1111</ele>
        <time>2014-06-28T07:32:15.000Z</time>
      </trkpt>
      <trkpt lat="45.14815" lon="5.65505">
        <ele>1111</ele>
        <time>2014-06-28T07:32:16.000Z</time>
      </trkpt>
      <trkpt lat="45.14815" lon="5.65505">
        <ele>1111</ele>
        <time>2014-06-28T07:32:17.000Z</time>
      </trkpt>
      <trkpt lat="45.14814" lon="5.65505">
        <ele>1111</ele>
        <time>2014-06-28T07:32:18.000Z</time>
      </trkpt>
      <trkpt lat="45.14814" lon="5.65505">
        <ele>1111</ele>
        <time>2014-06-28T07:32:19.000Z</time>
      </trkpt>
      <trkpt lat="45.14813" lon="5.65505">
        <ele>1111</ele>
        <time>2014-06-28T07:32:20.000Z</time>
      </trkpt>
      <trkpt lat="45.14812" lon="5.65506">
        <ele>1111</ele>
        <time>2014-06-28T07:32:21.000Z</time>
      </trkpt>
      <trkpt lat="45.14811" lon="5.65506">
        <ele>1111</ele>
        <time>2014-06-28T07:32:22.000Z</time>
      </trkpt>
      <trkpt lat="45.1481" lon="5.65506">
        <ele>1111</ele>
        <time>2014-06-28T07:32:23.000Z</time>
      </trkpt>
      <trkpt lat="45.14808" lon="5.65507">
        <ele>1111</ele>
        <time>2014-06-28T07:32:24.000Z</time>
      </trkpt>
      <trkpt lat="45.14807" lon="5.65507">
        <ele>1111</ele>
        <time>2014-06-28T07:32:25.000Z</time>
      </trkpt>
      <trkpt lat="45.14806" lon="5.65507">
        <ele>1112</ele>
        <time>2014-06-28T07:32:26.000Z</time>
      </trkpt>
      <trkpt lat="45.14804" lon="5.65507">
        <ele>1112</ele>
        <time>2014-06-28T07:32:27.000Z</time>
      </trkpt>
      <trkpt lat="45.14803" lon="5.65506">
        <ele>1112</ele>
        <time>2014-06-28T07:32:28.000Z</time>
      </trkpt>
      <trkpt lat="45.14801" lon="5.65506">
        <ele>1112</ele>
        <time>2014-06-28T07:32:29.000Z</time>
      </trkpt>
      <trkpt lat="45.14799" lon="5.65505">
        <ele>1112</ele>
        <time>2014-06-28T07:32:30.000Z</time>
      </trkpt>
      <trkpt lat="45.14797" lon="5.65505">
        <ele>1112</ele>
        <time>2014-06-28T07:32:31.000Z</time>
      </trkpt>
      <trkpt lat="45.14795" lon="5.65505">
        <ele>1112</ele>
        <time>2014-06-28T07:32:32.000Z</time>
      </trkpt>
      <trkpt lat="45.14794" lon="5.65504">
        <ele>1112</ele>
        <time>2014-06-28T07:32:33.000Z</time>
      </trkpt>
      <trkpt lat="45.14792" lon="5.65503">
        <ele>1112</ele>
        <time>2014-06-28T07:32:34.000Z</time>
      </trkpt>
      <trkpt lat="45.14791" lon="5.65502">
        <ele>1112</ele>
        <time>2014-06-28T07:32:35.000Z</time>
      </trkpt>
      <trkpt lat="45.1479" lon="5.65502">
        <ele>1112</ele>
        <time>2014-06-28T07:32:36.000Z</time>
      </trkpt>
      <trkpt lat="45.14789" lon="5.65501">
        <ele>1113</ele>
        <time>2014-06-28T07:32:37.000Z</time>
      </trkpt>
      <trkpt lat="45.14788" lon="5.65499">
        <ele>1113</ele>
        <time>2014-06-28T07:32:38.000Z</time>
      </trkpt>
      <trkpt lat="45.14787" lon="5.65498">
        <ele>1113</ele>
        <time>2014-06-28T07:32:39.000Z</time>
      </trkpt>
      <trkpt lat="45.14786" lon="5.65497">
        <ele>1113</ele>
        <time>2014-06-28T07:32:40.000Z</time>
      </trkpt>
      <trkpt lat="45.14785" lon="5.65496">
        <ele>1113</ele>
        <time>2014-06-28T07:32:41.000Z</time>
      </trkpt>
      <trkpt lat="45.14785" lon="5.65494">
        <ele>1114</ele>
        <time>2014-06-28T07:32:42.000Z</time>
      </trkpt>
      <trkpt lat="45.14784" lon="5.65493">
        <ele>1114</ele>
        <time>2014-06-28T07:32:43.000Z</time>
      </trkpt>
      <trkpt lat="45.14783" lon="5.65491">
        <ele>1114</ele>
        <time>2014-06-28T07:32:44.000Z</time>
      </trkpt>
      <trkpt lat="45.14783" lon="5.6549">
        <ele>1114</ele>
        <time>2014-06-28T07:32:45.000Z</time>
      </trkpt>
      <trkpt lat="45.14782" lon="5.65488">
        <ele>1115</ele>
        <time>2014-06-28T07:32:46.000Z</time>
      </trkpt>
      <trkpt lat="45.14781" lon="5.65487">
        <ele>1115</ele>
        <time>2014-06-28T07:32:47.000Z</time>
      </trkpt>
      <trkpt lat="45.1478" lon="5.65486">
        <ele>1115</ele>
        <time>2014-06-28T07:32:48.000Z</time>
      </trkpt>
      <trkpt lat="45.14779" lon="5.65484">
        <ele>1116</ele>
        <time>2014-06-28T07:32:49.000Z</time>
      </trkpt>
      <trkpt lat="45.14778" lon="5.65483">
        <ele>1116</ele>
        <time>2014-06-28T07:32:50.000Z</time>
      </trkpt>
      <trkpt lat="45.14778" lon="5.65481">
        <ele>1116</ele>
        <time>2014-06-28T07:32:51.000Z</time>
      </trkpt>
      <trkpt lat="45.14777" lon="5.6548">
        <ele>1116</ele>
        <time>2014-06-28T07:32:52.000Z</time>
      </trkpt>
      <trkpt lat="45.14776" lon="5.65478">
        <ele>1117</ele>
        <time>2014-06-28T07:32:53.000Z</time>
      </trkpt>
      <trkpt lat="45.14776" lon="5.65476">
        <ele>1117</ele>
        <time>2014-06-28T07:32:54.000Z</time>
      </trkpt>
      <trkpt lat="45.14775" lon="5.65474">
        <ele>1117</ele>
        <time>2014-06-28T07:32:55.000Z</time>
      </trkpt>
      <trkpt lat="45.14774" lon="5.65472">
        <ele>1117</ele>
        <time>2014-06-28T07:32:56.000Z</time>
      </trkpt>
      <trkpt lat="45.14773" lon="5.6547">
        <ele>1118</ele>
        <time>2014-06-28T07:32:57.000Z</time>
      </trkpt>
      <trkpt lat="45.14772" lon="5.65468">
        <ele>1118</ele>
        <time>2014-06-28T07:32:58.000Z</time>
      </trkpt>
      <trkpt lat="45.14771" lon="5.65466">
        <ele>1118</ele>
        <time>2014-06-28T07:32:59.000Z</time>
      </trkpt>
      <trkpt lat="45.1477" lon="5.65463">
        <ele>1119</ele>
        <time>2014-06-28T07:33:00.000Z</time>
      </trkpt>
      <trkpt lat="45.1477" lon="5.65461">
        <ele>1119</ele>
        <time>2014-06-28T07:33:01.000Z</time>
      </trkpt>
      <trkpt lat="45.14769" lon="5.65458">
        <ele>1119</ele>
        <time>2014-06-28T07:33:02.000Z</time>
      </trkpt>
      <trkpt lat="45.14769" lon="5.65457">
        <ele>1120</ele>
        <time>2014-06-28T07:33:03.000Z</time>
      </trkpt>
      <trkpt lat="45.14768" lon="5.65455">
        <ele>1120</ele>
        <time>2014-06-28T07:33:04.000Z</time>
      </trkpt>
      <trkpt lat="45.14768" lon="5.65453">
        <ele>1120</ele>
        <time>2014-06-28T07:33:05.000Z</time>
      </trkpt>
      <trkpt lat="45.14768" lon="5.65451">
        <ele>1120</ele>
        <time>2014-06-28T07:33:06.000Z</time>
      </trkpt>
      <trkpt lat="45.14768" lon="5.65449">
        <ele>1120</ele>
        <time>2014-06-28T07:33:07.000Z</time>
      </trkpt>
      <trkpt lat="45.14768" lon="5.65447">
        <ele>1121</ele>
        <time>2014-06-28T07:33:08.000Z</time>
      </trkpt>
      <trkpt lat="45.14768" lon="5.65445">
        <ele>1121</ele>
        <time>2014-06-28T07:33:09.000Z</time>
      </trkpt>
      <trkpt lat="45.14768" lon="5.65442">
        <ele>1121</ele>
        <time>2014-06-28T07:33:10.000Z</time>
      </trkpt>
      <trkpt lat="45.14767" lon="5.6544">
        <ele>1121</ele>
        <time>2014-06-28T07:33:11.000Z</time>
      </trkpt>
      <trkpt lat="45.14767" lon="5.65438">
        <ele>1121</ele>
        <time>2014-06-28T07:33:12.000Z</time>
      </trkpt>
      <trkpt lat="45.14767" lon="5.65436">
        <ele>1121</ele>
        <time>2014-06-28T07:33:13.000Z</time>
      </trkpt>
      <trkpt lat="45.14767" lon="5.65434">
        <ele>1122</ele>
        <time>2014-06-28T07:33:14.000Z</time>
      </trkpt>
      <trkpt lat="45.14766" lon="5.65432">
        <ele>1122</ele>
        <time>2014-06-28T07:33:15.000Z</time>
      </trkpt>
      <trkpt lat="45.14766" lon="5.6543">
        <ele>1122</ele>
        <time>2014-06-28T07:33:16.000Z</time>
      </trkpt>
      <trkpt lat="45.14766" lon="5.65428">
        <ele>1122</ele>
        <time>2014-06-28T07:33:17.000Z</time>
      </trkpt>
      <trkpt lat="45.14767" lon="5.65425">
        <ele>1123</ele>
        <time>2014-06-28T07:33:18.000Z</time>
      </trkpt>
      <trkpt lat="45.14768" lon="5.65423">
        <ele>1123</ele>
        <time>2014-06-28T07:33:19.000Z</time>
      </trkpt>
      <trkpt lat="45.14768" lon="5.65421">
        <ele>1123</ele>
        <time>2014-06-28T07:33:20.000Z</time>
      </trkpt>
      <trkpt lat="45.14769" lon="5.65419">
        <ele>1123</ele>
        <time>2014-06-28T07:33:21.000Z</time>
      </trkpt>
      <trkpt lat="45.14769" lon="5.65417">
        <ele>1124</ele>
        <time>2014-06-28T07:33:22.000Z</time>
      </trkpt>
      <trkpt lat="45.1477" lon="5.65415">
        <ele>1124</ele>
        <time>2014-06-28T07:33:23.000Z</time>
      </trkpt>
      <trkpt lat="45.1477" lon="5.65413">
        <ele>1124</ele>
        <time>2014-06-28T07:33:24.000Z</time>
      </trkpt>
      <trkpt lat="45.14769" lon="5.65411">
        <ele>1125</ele>
        <time>2014-06-28T07:33:25.000Z</time>
      </trkpt>
      <trkpt lat="45.14769" lon="5.65408">
        <ele>1125</ele>
        <time>2014-06-28T07:33:26.000Z</time>
      </trkpt>
      <trkpt lat="45.14769" lon="5.65406">
        <ele>1125</ele>
        <time>2014-06-28T07:33:27.000Z</time>
      </trkpt>
      <trkpt lat="45.14769" lon="5.65405">
        <ele>1126</ele>
        <time>2014-06-28T07:33:28.000Z</time>
      </trkpt>
      <trkpt lat="45.14769" lon="5.65403">
        <ele>1126</ele>
        <time>2014-06-28T07:33:29.000Z</time>
      </trkpt>
      <trkpt lat="45.14769" lon="5.65402">
        <ele>1126</ele>
        <time>2014-06-28T07:33:30.000Z</time>
      </trkpt>
      <trkpt lat="45.14769" lon="5.65401">
        <ele>1127</ele>
        <time>2014-06-28T07:33:31.000Z</time>
      </trkpt>
      <trkpt lat="45.14769" lon="5.65399">
        <ele>1127</ele>
        <time>2014-06-28T07:33:32.000Z</time>
      </trkpt>
      <trkpt lat="45.14769" lon="5.65398">
        <ele>1127</ele>
        <time>2014-06-28T07:33:33.000Z</time>
      </trkpt>
      <trkpt lat="45.14768" lon="5.65396">
        <ele>1128</ele>
        <time>2014-06-28T07:33:34.000Z</time>
      </trkpt>
      <trkpt lat="45.14768" lon="5.65395">
        <ele>1128</ele>
        <time>2014-06-28T07:33:35.000Z</time>
      </trkpt>
      <trkpt lat="45.14767" lon="5.65393">
        <ele>1129</ele>
        <time>2014-06-28T07:33:36.000Z</time>
      </trkpt>
      <trkpt lat="45.14767" lon="5.65392">
        <ele>1129</ele>
        <time>2014-06-28T07:33:37.000Z</time>
      </trkpt>
      <trkpt lat="45.14767" lon="5.65391">
        <ele>1129</ele>
        <time>2014-06-28T07:33:38.000Z</time>
      </trkpt>
      <trkpt lat="45.14766" lon="5.65389">
        <ele>1129</ele>
        <time>2014-06-28T07:33:39.000Z</time>
      </trkpt>
      <trkpt lat="45.14766" lon="5.65388">
        <ele>1130</ele>
        <time>2014-06-28T07:33:40.000Z</time>
      </trkpt>
      <trkpt lat="45.14766" lon="5.65387">
        <ele>1130</ele>
        <time>2014-06-28T07:33:41.000Z</time>
      </trkpt>
      <trkpt lat="45.14766" lon="5.65386">
        <ele>1130</ele>
        <time>2014-06-28T07:33:42.000Z</time>
      </trkpt>
      <trkpt lat="45.14766" lon="5.65385">
        <ele>1130</ele>
        <time>2014-06-28T07:33:43.000Z</time>
      </trkpt>
      <trkpt lat="45.14767" lon="5.65383">
        <ele>1131</ele>
        <time>2014-06-28T07:33:44.000Z</time>
      </trkpt>
      <trkpt lat="45.14767" lon="5.65382">
        <ele>1131</ele>
        <time>2014-06-28T07:33:45.000Z</time>
      </trkpt>
      <trkpt lat="45.14767" lon="5.6538">
        <ele>1131</ele>
        <time>2014-06-28T07:33:46.000Z</time>
      </trkpt>
      <trkpt lat="45.14767" lon="5.65379">
        <ele>1132</ele>
        <time>2014-06-28T07:33:47.000Z</time>
      </trkpt>
      <trkpt lat="45.14768" lon="5.65377">
        <ele>1132</ele>
        <time>2014-06-28T07:33:48.000Z</time>
      </trkpt>
      <trkpt lat="45.14769" lon="5.65375">
        <ele>1132</ele>
        <time>2014-06-28T07:33:49.000Z</time>
      </trkpt>
      <trkpt lat="45.14769" lon="5.65374">
        <ele>1133</ele>
        <time>2014-06-28T07:33:50.000Z</time>
      </trkpt>
      <trkpt lat="45.1477" lon="5.65372">
        <ele>1133</ele>
        <time>2014-06-28T07:33:51.000Z</time>
      </trkpt>
      <trkpt lat="45.1477" lon="5.6537">
        <ele>1134</ele>
        <time>2014-06-28T07:33:52.000Z</time>
      </trkpt>
      <trkpt lat="45.14771" lon="5.65369">
        <ele>1134</ele>
        <time>2014-06-28T07:33:53.000Z</time>
      </trkpt>
      <trkpt lat="45.14771" lon="5.65367">
        <ele>1134</ele>
        <time>2014-06-28T07:33:54.000Z</time>
      </trkpt>
      <trkpt lat="45.14771" lon="5.65365">
        <ele>1135</ele>
        <time>2014-06-28T07:33:55.000Z</time>
      </trkpt>
      <trkpt lat="45.14771" lon="5.65364">
        <ele>1135</ele>
        <time>2014-06-28T07:33:56.000Z</time>
      </trkpt>
      <trkpt lat="45.14771" lon="5.65362">
        <ele>1135</ele>
        <time>2014-06-28T07:33:57.000Z</time>
      </trkpt>
      <trkpt lat="45.14771" lon="5.65361">
        <ele>1136</ele>
        <time>2014-06-28T07:33:58.000Z</time>
      </trkpt>
      <trkpt lat="45.14771" lon="5.65359">
        <ele>1136</ele>
        <time>2014-06-28T07:33:59.000Z</time>
      </trkpt>
      <trkpt lat="45.14771" lon="5.65357">
        <ele>1136</ele>
        <time>2014-06-28T07:34:00.000Z</time>
      </trkpt>
      <trkpt lat="45.14771" lon="5.65356">
        <ele>1136</ele>
        <time>2014-06-28T07:34:01.000Z</time>
      </trkpt>
      <trkpt lat="45.14772" lon="5.65354">
        <ele>1136</ele>
        <time>2014-06-28T07:34:02.000Z</time>
      </trkpt>
      <trkpt lat="45.14772" lon="5.65353">
        <ele>1136</ele>
        <time>2014-06-28T07:34:03.000Z</time>
      </trkpt>
      <trkpt lat="45.14772" lon="5.65352">
        <ele>1137</ele>
        <time>2014-06-28T07:34:04.000Z</time>
      </trkpt>
      <trkpt lat="45.14773" lon="5.6535">
        <ele>1137</ele>
        <time>2014-06-28T07:34:05.000Z</time>
      </trkpt>
      <trkpt lat="45.14773" lon="5.65349">
        <ele>1137</ele>
        <time>2014-06-28T07:34:06.000Z</time>
      </trkpt>
      <trkpt lat="45.14773" lon="5.65348">
        <ele>1137</ele>
        <time>2014-06-28T07:34:07.000Z</time>
      </trkpt>
      <trkpt lat="45.14773" lon="5.65347">
        <ele>1138</ele>
        <time>2014-06-28T07:34:08.000Z</time>
      </trkpt>
      <trkpt lat="45.14773" lon="5.65347">
        <ele>1138</ele>
        <time>2014-06-28T07:34:09.000Z</time>
      </trkpt>
      <trkpt lat="45.14773" lon="5.65346">
        <ele>1138</ele>
        <time>2014-06-28T07:34:10.000Z</time>
      </trkpt>
      <trkpt lat="45.14772" lon="5.65345">
        <ele>1139</ele>
        <time>2014-06-28T07:34:11.000Z</time>
      </trkpt>
      <trkpt lat="45.14772" lon="5.65345">
        <ele>1139</ele>
        <time>2014-06-28T07:34:12.000Z</time>
      </trkpt>
      <trkpt lat="45.14772" lon="5.65346">
        <ele>1139</ele>
        <time>2014-06-28T07:34:13.000Z</time>
      </trkpt>
      <trkpt lat="45.14772" lon="5.65347">
        <ele>1139</ele>
        <time>2014-06-28T07:34:14.000Z</time>
      </trkpt>
      <trkpt lat="45.14772" lon="5.65348">
        <ele>1140</ele>
        <time>2014-06-28T07:34:15.000Z</time>
      </trkpt>
      <trkpt lat="45.14772" lon="5.65349">
        <ele>1140</ele>
        <time>2014-06-28T07:34:16.000Z</time>
      </trkpt>
      <trkpt lat="45.14772" lon="5.65351">
        <ele>1140</ele>
        <time>2014-06-28T07:34:17.000Z</time>
      </trkpt>
      <trkpt lat="45.14773" lon="5.65353">
        <ele>1141</ele>
        <time>2014-06-28T07:34:18.000Z</time>
      </trkpt>
      <trkpt lat="45.14773" lon="5.65354">
        <ele>1141</ele>
        <time>2014-06-28T07:34:19.000Z</time>
      </trkpt>
      <trkpt lat="45.14773" lon="5.65354">
        <ele>1141</ele>
        <time>2014-06-28T07:34:20.000Z</time>
      </trkpt>
      <trkpt lat="45.14772" lon="5.65354">
        <ele>1141</ele>
        <time>2014-06-28T07:34:21.000Z</time>
      </trkpt>
      <trkpt lat="45.14772" lon="5.65355">
        <ele>1142</ele>
        <time>2014-06-28T07:34:22.000Z</time>
      </trkpt>
      <trkpt lat="45.14772" lon="5.65355">
        <ele>1142</ele>
        <time>2014-06-28T07:34:23.000Z</time>
      </trkpt>
      <trkpt lat="45.14772" lon="5.65356">
        <ele>1142</ele>
        <time>2014-06-28T07:34:24.000Z</time>
      </trkpt>
      <trkpt lat="45.14772" lon="5.65356">
        <ele>1142</ele>
        <time>2014-06-28T07:34:25.000Z</time>
      </trkpt>
      <trkpt lat="45.14772" lon="5.65356">
        <ele>1142</ele>
        <time>2014-06-28T07:34:26.000Z</time>
      </trkpt>
      <trkpt lat="45.14772" lon="5.65356">
        <ele>1142</ele>
        <time>2014-06-28T07:34:27.000Z</time>
      </trkpt>
      <trkpt lat="45.14772" lon="5.65356">
        <ele>1142</ele>
        <time>2014-06-28T07:34:28.000Z</time>
      </trkpt>
      <trkpt lat="45.14772" lon="5.65356">
        <ele>1143</ele>
        <time>2014-06-28T07:34:29.000Z</time>
      </trkpt>
      <trkpt lat="45.14772" lon="5.65356">
        <ele>1143</ele>
        <time>2014-06-28T07:34:30.000Z</time>
      </trkpt>
      <trkpt lat="45.14771" lon="5.65356">
        <ele>1143</ele>
        <time>2014-06-28T07:34:31.000Z</time>
      </trkpt>
      <trkpt lat="45.14771" lon="5.65356">
        <ele>1143</ele>
        <time>2014-06-28T07:34:32.000Z</time>
      </trkpt>
      <trkpt lat="45.14771" lon="5.65356">
        <ele>1143</ele>
        <time>2014-06-28T07:34:33.000Z</time>
      </trkpt>
      <trkpt lat="45.14771" lon="5.65356">
        <ele>1143</ele>
        <time>2014-06-28T07:34:34.000Z</time>
      </trkpt>
      <trkpt lat="45.14771" lon="5.65356">
        <ele>1143</ele>
        <time>2014-06-28T07:34:35.000Z</time>
      </trkpt>
      <trkpt lat="45.14771" lon="5.65357">
        <ele>1143</ele>
        <time>2014-06-28T07:34:36.000Z</time>
      </trkpt>
      <trkpt lat="45.14771" lon="5.65357">
        <ele>1144</ele>
        <time>2014-06-28T07:34:37.000Z</time>
      </trkpt>
      <trkpt lat="45.14771" lon="5.65357">
        <ele>1144</ele>
        <time>2014-06-28T07:34:38.000Z</time>
      </trkpt>
      <trkpt lat="45.14771" lon="5.65357">
        <ele>1144</ele>
        <time>2014-06-28T07:34:39.000Z</time>
      </trkpt>
      <trkpt lat="45.14771" lon="5.65357">
        <ele>1144</ele>
        <time>2014-06-28T07:34:40.000Z</time>
      </trkpt>
      <trkpt lat="45.1477" lon="5.65357">
        <ele>1144</ele>
        <time>2014-06-28T07:34:41.000Z</time>
      </trkpt>
      <trkpt lat="45.1477" lon="5.65357">
        <ele>1145</ele>
        <time>2014-06-28T07:34:42.000Z</time>
      </trkpt>
      <trkpt lat="45.1477" lon="5.65357">
        <ele>1145</ele>
        <time>2014-06-28T07:34:43.000Z</time>
      </trkpt>
      <trkpt lat="45.14771" lon="5.65357">
        <ele>1145</ele>
        <time>2014-06-28T07:34:44.000Z</time>
      </trkpt>
      <trkpt lat="45.14771" lon="5.65357">
        <ele>1145</ele>
        <time>2014-06-28T07:34:45.000Z</time>
      </trkpt>
      <trkpt lat="45.14771" lon="5.65357">
        <ele>1145</ele>
        <time>2014-06-28T07:34:46.000Z</time>
      </trkpt>
      <trkpt lat="45.14771" lon="5.65357">
        <ele>1146</ele>
        <time>2014-06-28T07:34:47.000Z</time>
      </trkpt>
      <trkpt lat="45.14771" lon="5.65357">
        <ele>1146</ele>
        <time>2014-06-28T07:34:48.000Z</time>
      </trkpt>
      <trkpt lat="45.14771" lon="5.65357">
        <ele>1146</ele>
        <time>2014-06-28T07:34:49.000Z</time>
      </trkpt>
      <trkpt lat="45.14771" lon="5.65357">
        <ele>1146</ele>
        <time>2014-06-28T07:34:50.000Z</time>
      </trkpt>
      <trkpt lat="45.1477" lon="5.65358">
        <ele>1146</ele>
        <time>2014-06-28T07:34:51.000Z</time>
      </trkpt>
      <trkpt lat="45.1477" lon="5.65358">
        <ele>1146</ele>
        <time>2014-06-28T07:34:52.000Z</time>
      </trkpt>
      <trkpt lat="45.1477" lon="5.65358">
        <ele>1147</ele>
        <time>2014-06-28T07:34:53.000Z</time>
      </trkpt>
      <trkpt lat="45.1477" lon="5.65358">
        <ele>1147</ele>
        <time>2014-06-28T07:34:54.000Z</time>
      </trkpt>
      <trkpt lat="45.1477" lon="5.65358">
        <ele>1147</ele>
        <time>2014-06-28T07:34:55.000Z</time>
      </trkpt>
      <trkpt lat="45.1477" lon="5.65358">
        <ele>1147</ele>
        <time>2014-06-28T07:34:56.000Z</time>
      </trkpt>
      <trkpt lat="45.1477" lon="5.65358">
        <ele>1147</ele>
        <time>2014-06-28T07:34:57.000Z</time>
      </trkpt>
      <trkpt lat="45.1477" lon="5.65358">
        <ele>1147</ele>
        <time>2014-06-28T07:34:58.000Z</time>
      </trkpt>
      <trkpt lat="45.1477" lon="5.65358">
        <ele>1147</ele>
        <time>2014-06-28T07:34:59.000Z</time>
      </trkpt>
      <trkpt lat="45.14769" lon="5.65358">
        <ele>1147</ele>
        <time>2014-06-28T07:35:00.000Z</time>
      </trkpt>
      <trkpt lat="45.14769" lon="5.65358">
        <ele>1147</ele>
        <time>2014-06-28T07:35:01.000Z</time>
      </trkpt>
      <trkpt lat="45.14769" lon="5.65359">
        <ele>1147</ele>
        <time>2014-06-28T07:35:02.000Z</time>
      </trkpt>
      <trkpt lat="45.14769" lon="5.65359">
        <ele>1148</ele>
        <time>2014-06-28T07:35:03.000Z</time>
      </trkpt>
      <trkpt lat="45.14769" lon="5.65359">
        <ele>1148</ele>
        <time>2014-06-28T07:35:04.000Z</time>
      </trkpt>
      <trkpt lat="45.14769" lon="5.65359">
        <ele>1148</ele>
        <time>2014-06-28T07:35:05.000Z</time>
      </trkpt>
      <trkpt lat="45.14769" lon="5.65359">
        <ele>1148</ele>
        <time>2014-06-28T07:35:06.000Z</time>
      </trkpt>
      <trkpt lat="45.14769" lon="5.65359">
        <ele>1148</ele>
        <time>2014-06-28T07:35:07.000Z</time>
      </trkpt>
      <trkpt lat="45.14769" lon="5.65359">
        <ele>1148</ele>
        <time>2014-06-28T07:35:08.000Z</time>
      </trkpt>
      <trkpt lat="45.14769" lon="5.65359">
        <ele>1148</ele>
        <time>2014-06-28T07:35:09.000Z</time>
      </trkpt>
      <trkpt lat="45.14769" lon="5.65359">
        <ele>1148</ele>
        <time>2014-06-28T07:35:10.000Z</time>
      </trkpt>
      <trkpt lat="45.14769" lon="5.65359">
        <ele>1148</ele>
        <time>2014-06-28T07:35:11.000Z</time>
      </trkpt>
      <trkpt lat="45.14769" lon="5.65359">
        <ele>1148</ele>
        <time>2014-06-28T07:35:12.000Z</time>
      </trkpt>
      <trkpt lat="45.14769" lon="5.65359">
        <ele>1148</ele>
        <time>2014-06-28T07:35:13.000Z</time>
      </trkpt>
      <trkpt lat="45.14769" lon="5.6536">
        <ele>1148</ele>
        <time>2014-06-28T07:35:14.000Z</time>
      </trkpt>
      <trkpt lat="45.14769" lon="5.6536">
        <ele>1148</ele>
        <time>2014-06-28T07:35:15.000Z</time>
      </trkpt>
      <trkpt lat="45.14769" lon="5.65359">
        <ele>1148</ele>
        <time>2014-06-28T07:35:16.000Z</time>
      </trkpt>
      <trkpt lat="45.14769" lon="5.65359">
        <ele>1148</ele>
        <time>2014-06-28T07:35:17.000Z</time>
      </trkpt>
      <trkpt lat="45.14769" lon="5.65359">
        <ele>1148</ele>
        <time>2014-06-28T07:35:18.000Z</time>
      </trkpt>
      <trkpt lat="45.14769" lon="5.65358">
        <ele>1148</ele>
        <time>2014-06-28T07:35:19.000Z</time>
      </trkpt>
      <trkpt lat="45.1477" lon="5.65357">
        <ele>1148</ele>
        <time>2014-06-28T07:35:20.000Z</time>
      </trkpt>
      <trkpt lat="45.1477" lon="5.65357">
        <ele>1149</ele>
        <time>2014-06-28T07:35:21.000Z</time>
      </trkpt>
      <trkpt lat="45.1477" lon="5.65356">
        <ele>1149</ele>
        <time>2014-06-28T07:35:22.000Z</time>
      </trkpt>
      <trkpt lat="45.1477" lon="5.65355">
        <ele>1148</ele>
        <time>2014-06-28T07:35:23.000Z</time>
      </trkpt>
      <trkpt lat="45.14771" lon="5.65354">
        <ele>1148</ele>
        <time>2014-06-28T07:35:24.000Z</time>
      </trkpt>
      <trkpt lat="45.14772" lon="5.65353">
        <ele>1148</ele>
        <time>2014-06-28T07:35:25.000Z</time>
      </trkpt>
      <trkpt lat="45.14772" lon="5.65352">
        <ele>1148</ele>
        <time>2014-06-28T07:35:26.000Z</time>
      </trkpt>
      <trkpt lat="45.14772" lon="5.65351">
        <ele>1148</ele>
        <time>2014-06-28T07:35:27.000Z</time>
      </trkpt>
      <trkpt lat="45.14772" lon="5.6535">
        <ele>1148</ele>
        <time>2014-06-28T07:35:28.000Z</time>
      </trkpt>
      <trkpt lat="45.14772" lon="5.65349">
        <ele>1148</ele>
        <time>2014-06-28T07:35:29.000Z</time>
      </trkpt>
      <trkpt lat="45.14772" lon="5.65348">
        <ele>1148</ele>
        <time>2014-06-28T07:35:30.000Z</time>
      </trkpt>
      <trkpt lat="45.14772" lon="5.65347">
        <ele>1148</ele>
        <time>2014-06-28T07:35:31.000Z</time>
      </trkpt>
      <trkpt lat="45.14772" lon="5.65345">
        <ele>1148</ele>
        <time>2014-06-28T07:35:32.000Z</time>
      </trkpt>
      <trkpt lat="45.14772" lon="5.65344">
        <ele>1148</ele>
        <time>2014-06-28T07:35:33.000Z</time>
      </trkpt>
      <trkpt lat="45.14772" lon="5.65343">
        <ele>1148</ele>
        <time>2014-06-28T07:35:34.000Z</time>
      </trkpt>
      <trkpt lat="45.14772" lon="5.65342">
        <ele>1148</ele>
        <time>2014-06-28T07:35:35.000Z</time>
      </trkpt>
      <trkpt lat="45.14773" lon="5.65341">
        <ele>1148</ele>
        <time>2014-06-28T07:35:36.000Z</time>
      </trkpt>
      <trkpt lat="45.14773" lon="5.6534">
        <ele>1148</ele>
        <time>2014-06-28T07:35:37.000Z</time>
      </trkpt>
      <trkpt lat="45.14773" lon="5.6534">
        <ele>1148</ele>
        <time>2014-06-28T07:35:38.000Z</time>
      </trkpt>
      <trkpt lat="45.14774" lon="5.65339">
        <ele>1148</ele>
        <time>2014-06-28T07:35:39.000Z</time>
      </trkpt>
      <trkpt lat="45.14774" lon="5.65337">
        <ele>1149</ele>
        <time>2014-06-28T07:35:40.000Z</time>
      </trkpt>
      <trkpt lat="45.14774" lon="5.65336">
        <ele>1149</ele>
        <time>2014-06-28T07:35:41.000Z</time>
      </trkpt>
      <trkpt lat="45.14774" lon="5.65335">
        <ele>1149</ele>
        <time>2014-06-28T07:35:42.000Z</time>
      </trkpt>
      <trkpt lat="45.14775" lon="5.65334">
        <ele>1149</ele>
        <time>2014-06-28T07:35:43.000Z</time>
      </trkpt>
      <trkpt lat="45.14775" lon="5.65333">
        <ele>1149</ele>
        <time>2014-06-28T07:35:44.000Z</time>
      </trkpt>
      <trkpt lat="45.14776" lon="5.65332">
        <ele>1149</ele>
        <time>2014-06-28T07:35:45.000Z</time>
      </trkpt>
      <trkpt lat="45.14776" lon="5.65331">
        <ele>1149</ele>
        <time>2014-06-28T07:35:46.000Z</time>
      </trkpt>
      <trkpt lat="45.14777" lon="5.6533">
        <ele>1150</ele>
        <time>2014-06-28T07:35:47.000Z</time>
      </trkpt>
      <trkpt lat="45.14777" lon="5.65329">
        <ele>1150</ele>
        <time>2014-06-28T07:35:48.000Z</time>
      </trkpt>
      <trkpt lat="45.14778" lon="5.65329">
        <ele>1150</ele>
        <time>2014-06-28T07:35:49.000Z</time>
      </trkpt>
      <trkpt lat="45.14778" lon="5.65328">
        <ele>1150</ele>
        <time>2014-06-28T07:35:50.000Z</time>
      </trkpt>
      <trkpt lat="45.14778" lon="5.65327">
        <ele>1150</ele>
        <time>2014-06-28T07:35:51.000Z</time>
      </trkpt>
      <trkpt lat="45.14777" lon="5.65326">
        <ele>1150</ele>
        <time>2014-06-28T07:35:52.000Z</time>
      </trkpt>
      <trkpt lat="45.14777" lon="5.65325">
        <ele>1150</ele>
        <time>2014-06-28T07:35:53.000Z</time>
      </trkpt>
      <trkpt lat="45.14777" lon="5.65324">
        <ele>1150</ele>
        <time>2014-06-28T07:35:54.000Z</time>
      </trkpt>
      <trkpt lat="45.14777" lon="5.65322">
        <ele>1151</ele>
        <time>2014-06-28T07:35:55.000Z</time>
      </trkpt>
      <trkpt lat="45.14777" lon="5.65322">
        <ele>1151</ele>
        <time>2014-06-28T07:35:56.000Z</time>
      </trkpt>
      <trkpt lat="45.14776" lon="5.6532">
        <ele>1151</ele>
        <time>2014-06-28T07:35:57.000Z</time>
      </trkpt>
      <trkpt lat="45.14776" lon="5.65319">
        <ele>1151</ele>
        <time>2014-06-28T07:35:58.000Z</time>
      </trkpt>
      <trkpt lat="45.14776" lon="5.65317">
        <ele>1152</ele>
        <time>2014-06-28T07:35:59.000Z</time>
      </trkpt>
      <trkpt lat="45.14775" lon="5.65317">
        <ele>1152</ele>
        <time>2014-06-28T07:36:00.000Z</time>
      </trkpt>
      <trkpt lat="45.14774" lon="5.65316">
        <ele>1152</ele>
        <time>2014-06-28T07:36:01.000Z</time>
      </trkpt>
      <trkpt lat="45.14774" lon="5.65316">
        <ele>1153</ele>
        <time>2014-06-28T07:36:02.000Z</time>
      </trkpt>
      <trkpt lat="45.14773" lon="5.65315">
        <ele>1153</ele>
        <time>2014-06-28T07:36:03.000Z</time>
      </trkpt>
      <trkpt lat="45.14773" lon="5.65315">
        <ele>1153</ele>
        <time>2014-06-28T07:36:04.000Z</time>
      </trkpt>
      <trkpt lat="45.14772" lon="5.65314">
        <ele>1153</ele>
        <time>2014-06-28T07:36:05.000Z</time>
      </trkpt>
      <trkpt lat="45.14772" lon="5.65314">
        <ele>1154</ele>
        <time>2014-06-28T07:36:06.000Z</time>
      </trkpt>
      <trkpt lat="45.14772" lon="5.65314">
        <ele>1154</ele>
        <time>2014-06-28T07:36:07.000Z</time>
      </trkpt>
      <trkpt lat="45.14771" lon="5.65314">
        <ele>1154</ele>
        <time>2014-06-28T07:36:08.000Z</time>
      </trkpt>
      <trkpt lat="45.14771" lon="5.65314">
        <ele>1154</ele>
        <time>2014-06-28T07:36:09.000Z</time>
      </trkpt>
      <trkpt lat="45.14771" lon="5.65314">
        <ele>1154</ele>
        <time>2014-06-28T07:36:10.000Z</time>
      </trkpt>
      <trkpt lat="45.14771" lon="5.65314">
        <ele>1154</ele>
        <time>2014-06-28T07:36:11.000Z</time>
      </trkpt>
      <trkpt lat="45.14771" lon="5.65314">
        <ele>1154</ele>
        <time>2014-06-28T07:36:12.000Z</time>
      </trkpt>
      <trkpt lat="45.14771" lon="5.65314">
        <ele>1154</ele>
        <time>2014-06-28T07:36:13.000Z</time>
      </trkpt>
      <trkpt lat="45.1477" lon="5.65313">
        <ele>1154</ele>
        <time>2014-06-28T07:36:14.000Z</time>
      </trkpt>
      <trkpt lat="45.1477" lon="5.65313">
        <ele>1154</ele>
        <time>2014-06-28T07:36:15.000Z</time>
      </trkpt>
      <trkpt lat="45.1477" lon="5.65314">
        <ele>1154</ele>
        <time>2014-06-28T07:36:16.000Z</time>
      </trkpt>
      <trkpt lat="45.1477" lon="5.65314">
        <ele>1154</ele>
        <time>2014-06-28T07:36:17.000Z</time>
      </trkpt>
      <trkpt lat="45.1477" lon="5.65314">
        <ele>1154</ele>
        <time>2014-06-28T07:36:18.000Z</time>
      </trkpt>
      <trkpt lat="45.1477" lon="5.65314">
        <ele>1154</ele>
        <time>2014-06-28T07:36:19.000Z</time>
      </trkpt>
      <trkpt lat="45.1477" lon="5.65314">
        <ele>1154</ele>
        <time>2014-06-28T07:36:20.000Z</time>
      </trkpt>
      <trkpt lat="45.1477" lon="5.65314">
        <ele>1154</ele>
        <time>2014-06-28T07:36:21.000Z</time>
      </trkpt>
      <trkpt lat="45.14769" lon="5.65314">
        <ele>1154</ele>
        <time>2014-06-28T07:36:22.000Z</time>
      </trkpt>
      <trkpt lat="45.14769" lon="5.65314">
        <ele>1154</ele>
        <time>2014-06-28T07:36:23.000Z</time>
      </trkpt>
      <trkpt lat="45.14769" lon="5.65314">
        <ele>1154</ele>
        <time>2014-06-28T07:36:24.000Z</time>
      </trkpt>
      <trkpt lat="45.14769" lon="5.65314">
        <ele>1154</ele>
        <time>2014-06-28T07:36:25.000Z</time>
      </trkpt>
      <trkpt lat="45.14769" lon="5.65314">
        <ele>1154</ele>
        <time>2014-06-28T07:36:26.000Z</time>
      </trkpt>
      <trkpt lat="45.14769" lon="5.65314">
        <ele>1154</ele>
        <time>2014-06-28T07:36:27.000Z</time>
      </trkpt>
      <trkpt lat="45.14769" lon="5.65314">
        <ele>1155</ele>
        <time>2014-06-28T07:36:28.000Z</time>
      </trkpt>
      <trkpt lat="45.14769" lon="5.65314">
        <ele>1155</ele>
        <time>2014-06-28T07:36:29.000Z</time>
      </trkpt>
      <trkpt lat="45.14769" lon="5.65314">
        <ele>1155</ele>
        <time>2014-06-28T07:36:30.000Z</time>
      </trkpt>
      <trkpt lat="45.14769" lon="5.65314">
        <ele>1155</ele>
        <time>2014-06-28T07:36:31.000Z</time>
      </trkpt>
      <trkpt lat="45.14769" lon="5.65314">
        <ele>1155</ele>
        <time>2014-06-28T07:36:32.000Z</time>
      </trkpt>
      <trkpt lat="45.14769" lon="5.65314">
        <ele>1155</ele>
        <time>2014-06-28T07:36:33.000Z</time>
      </trkpt>
      <trkpt lat="45.14769" lon="5.65314">
        <ele>1155</ele>
        <time>2014-06-28T07:36:34.000Z</time>
      </trkpt>
      <trkpt lat="45.14769" lon="5.65314">
        <ele>1155</ele>
        <time>2014-06-28T07:36:35.000Z</time>
      </trkpt>
      <trkpt lat="45.14769" lon="5.65314">
        <ele>1155</ele>
        <time>2014-06-28T07:36:36.000Z</time>
      </trkpt>
      <trkpt lat="45.14769" lon="5.65314">
        <ele>1155</ele>
        <time>2014-06-28T07:36:37.000Z</time>
      </trkpt>
      <trkpt lat="45.14769" lon="5.65314">
        <ele>1155</ele>
        <time>2014-06-28T07:36:38.000Z</time>
      </trkpt>
      <trkpt lat="45.14769" lon="5.65314">
        <ele>1155</ele>
        <time>2014-06-28T07:36:39.000Z</time>
      </trkpt>
      <trkpt lat="45.14769" lon="5.65314">
        <ele>1155</ele>
        <time>2014-06-28T07:36:40.000Z</time>
      </trkpt>
      <trkpt lat="45.14769" lon="5.65314">
        <ele>1155</ele>
        <time>2014-06-28T07:36:41.000Z</time>
      </trkpt>
      <trkpt lat="45.14769" lon="5.65314">
        <ele>1155</ele>
        <time>2014-06-28T07:36:42.000Z</time>
      </trkpt>
      <trkpt lat="45.14769" lon="5.65314">
        <ele>1155</ele>
        <time>2014-06-28T07:36:43.000Z</time>
      </trkpt>
      <trkpt lat="45.14769" lon="5.65314">
        <ele>1155</ele>
        <time>2014-06-28T07:36:44.000Z</time>
      </trkpt>
      <trkpt lat="45.14769" lon="5.65314">
        <ele>1155</ele>
        <time>2014-06-28T07:36:45.000Z</time>
      </trkpt>
      <trkpt lat="45.14769" lon="5.65314">
        <ele>1155</ele>
        <time>2014-06-28T07:36:46.000Z</time>
      </trkpt>
      <trkpt lat="45.14769" lon="5.65314">
        <ele>1155</ele>
        <time>2014-06-28T07:36:47.000Z</time>
      </trkpt>
      <trkpt lat="45.14769" lon="5.65314">
        <ele>1155</ele>
        <time>2014-06-28T07:36:48.000Z</time>
      </trkpt>
      <trkpt lat="45.14769" lon="5.65314">
        <ele>1155</ele>
        <time>2014-06-28T07:36:49.000Z</time>
      </trkpt>
      <trkpt lat="45.14769" lon="5.65314">
        <ele>1155</ele>
        <time>2014-06-28T07:36:50.000Z</time>
      </trkpt>
      <trkpt lat="45.14769" lon="5.65314">
        <ele>1155</ele>
        <time>2014-06-28T07:36:51.000Z</time>
      </trkpt>
      <trkpt lat="45.14769" lon="5.65314">
        <ele>1155</ele>
        <time>2014-06-28T07:36:52.000Z</time>
      </trkpt>
      <trkpt lat="45.14769" lon="5.65314">
        <ele>1155</ele>
        <time>2014-06-28T07:36:53.000Z</time>
      </trkpt>
      <trkpt lat="45.14769" lon="5.65315">
        <ele>1155</ele>
        <time>2014-06-28T07:36:54.000Z</time>
      </trkpt>
      <trkpt lat="45.14769" lon="5.65315">
        <ele>1155</ele>
        <time>2014-06-28T07:36:55.000Z</time>
      </trkpt>
      <trkpt lat="45.14769" lon="5.65315">
        <ele>1155</ele>
        <time>2014-06-28T07:36:56.000Z</time>
      </trkpt>
      <trkpt lat="45.14769" lon="5.65315">
        <ele>1155</ele>
        <time>2014-06-28T07:36:57.000Z</time>
      </trkpt>
      <trkpt lat="45.14768" lon="5.65315">
        <ele>1155</ele>
        <time>2014-06-28T07:36:58.000Z</time>
      </trkpt>
      <trkpt lat="45.14769" lon="5.65315">
        <ele>1155</ele>
        <time>2014-06-28T07:36:59.000Z</time>
      </trkpt>
      <trkpt lat="45.14769" lon="5.65315">
        <ele>1155</ele>
        <time>2014-06-28T07:37:00.000Z</time>
      </trkpt>
      <trkpt lat="45.14768" lon="5.65315">
        <ele>1155</ele>
        <time>2014-06-28T07:37:01.000Z</time>
      </trkpt>
      <trkpt lat="45.14768" lon="5.65315">
        <ele>1155</ele>
        <time>2014-06-28T07:37:02.000Z</time>
      </trkpt>
      <trkpt lat="45.14768" lon="5.65315">
        <ele>1155</ele>
        <time>2014-06-28T07:37:03.000Z</time>
      </trkpt>
      <trkpt lat="45.14769" lon="5.65315">
        <ele>1155</ele>
        <time>2014-06-28T07:37:04.000Z</time>
      </trkpt>
      <trkpt lat="45.14769" lon="5.65315">
        <ele>1156</ele>
        <time>2014-06-28T07:37:05.000Z</time>
      </trkpt>
      <trkpt lat="45.14769" lon="5.65315">
        <ele>1156</ele>
        <time>2014-06-28T07:37:06.000Z</time>
      </trkpt>
      <trkpt lat="45.14768" lon="5.65315">
        <ele>1156</ele>
        <time>2014-06-28T07:37:07.000Z</time>
      </trkpt>
      <trkpt lat="45.14768" lon="5.65315">
        <ele>1156</ele>
        <time>2014-06-28T07:37:08.000Z</time>
      </trkpt>
      <trkpt lat="45.14769" lon="5.65315">
        <ele>1156</ele>
        <time>2014-06-28T07:37:09.000Z</time>
      </trkpt>
      <trkpt lat="45.14769" lon="5.65315">
        <ele>1156</ele>
        <time>2014-06-28T07:37:10.000Z</time>
      </trkpt>
      <trkpt lat="45.14769" lon="5.65315">
        <ele>1156</ele>
        <time>2014-06-28T07:37:11.000Z</time>
      </trkpt>
      <trkpt lat="45.14769" lon="5.65315">
        <ele>1156</ele>
        <time>2014-06-28T07:37:12.000Z</time>
      </trkpt>
      <trkpt lat="45.14769" lon="5.65315">
        <ele>1156</ele>
        <time>2014-06-28T07:37:13.000Z</time>
      </trkpt>
      <trkpt lat="45.14769" lon="5.65315">
        <ele>1156</ele>
        <time>2014-06-28T07:37:14.000Z</time>
      </trkpt>
      <trkpt lat="45.14769" lon="5.65316">
        <ele>1156</ele>
        <time>2014-06-28T07:37:15.000Z</time>
      </trkpt>
      <trkpt lat="45.14769" lon="5.65316">
        <ele>1156</ele>
        <time>2014-06-28T07:37:16.000Z</time>
      </trkpt>
      <trkpt lat="45.14769" lon="5.65316">
        <ele>1156</ele>
        <time>2014-06-28T07:37:17.000Z</time>
      </trkpt>
      <trkpt lat="45.14769" lon="5.65316">
        <ele>1156</ele>
        <time>2014-06-28T07:37:18.000Z</time>
      </trkpt>
      <trkpt lat="45.14769" lon="5.65316">
        <ele>1156</ele>
        <time>2014-06-28T07:37:19.000Z</time>
      </trkpt>
      <trkpt lat="45.14769" lon="5.65316">
        <ele>1156</ele>
        <time>2014-06-28T07:37:20.000Z</time>
      </trkpt>
      <trkpt lat="45.14769" lon="5.65316">
        <ele>1156</ele>
        <time>2014-06-28T07:37:21.000Z</time>
      </trkpt>
      <trkpt lat="45.14769" lon="5.65316">
        <ele>1156</ele>
        <time>2014-06-28T07:37:22.000Z</time>
      </trkpt>
      <trkpt lat="45.14769" lon="5.65316">
        <ele>1156</ele>
        <time>2014-06-28T07:37:23.000Z</time>
      </trkpt>
      <trkpt lat="45.14768" lon="5.65316">
        <ele>1156</ele>
        <time>2014-06-28T07:37:24.000Z</time>
      </trkpt>
      <trkpt lat="45.14768" lon="5.65316">
        <ele>1156</ele>
        <time>2014-06-28T07:37:25.000Z</time>
      </trkpt>
      <trkpt lat="45.14768" lon="5.65316">
        <ele>1156</ele>
        <time>2014-06-28T07:37:26.000Z</time>
      </trkpt>
      <trkpt lat="45.14768" lon="5.65316">
        <ele>1156</ele>
        <time>2014-06-28T07:37:27.000Z</time>
      </trkpt>
      <trkpt lat="45.14768" lon="5.65316">
        <ele>1156</ele>
        <time>2014-06-28T07:37:28.000Z</time>
      </trkpt>
      <trkpt lat="45.14768" lon="5.65316">
        <ele>1156</ele>
        <time>2014-06-28T07:37:29.000Z</time>
      </trkpt>
      <trkpt lat="45.14768" lon="5.65316">
        <ele>1156</ele>
        <time>2014-06-28T07:37:30.000Z</time>
      </trkpt>
      <trkpt lat="45.14768" lon="5.65316">
        <ele>1156</ele>
        <time>2014-06-28T07:37:31.000Z</time>
      </trkpt>
      <trkpt lat="45.14768" lon="5.65316">
        <ele>1156</ele>
        <time>2014-06-28T07:37:32.000Z</time>
      </trkpt>
      <trkpt lat="45.14769" lon="5.65315">
        <ele>1156</ele>
        <time>2014-06-28T07:37:33.000Z</time>
      </trkpt>
      <trkpt lat="45.14769" lon="5.65315">
        <ele>1156</ele>
        <time>2014-06-28T07:37:34.000Z</time>
      </trkpt>
      <trkpt lat="45.14769" lon="5.65315">
        <ele>1156</ele>
        <time>2014-06-28T07:37:35.000Z</time>
      </trkpt>
      <trkpt lat="45.14769" lon="5.65315">
        <ele>1156</ele>
        <time>2014-06-28T07:37:36.000Z</time>
      </trkpt>
      <trkpt lat="45.14769" lon="5.65315">
        <ele>1156</ele>
        <time>2014-06-28T07:37:37.000Z</time>
      </trkpt>
      <trkpt lat="45.14769" lon="5.65315">
        <ele>1157</ele>
        <time>2014-06-28T07:37:38.000Z</time>
      </trkpt>
      <trkpt lat="45.14769" lon="5.65314">
        <ele>1157</ele>
        <time>2014-06-28T07:37:39.000Z</time>
      </trkpt>
      <trkpt lat="45.14769" lon="5.65314">
        <ele>1157</ele>
        <time>2014-06-28T07:37:40.000Z</time>
      </trkpt>
      <trkpt lat="45.14769" lon="5.65314">
        <ele>1157</ele>
        <time>2014-06-28T07:37:41.000Z</time>
      </trkpt>
      <trkpt lat="45.14769" lon="5.65314">
        <ele>1157</ele>
        <time>2014-06-28T07:37:42.000Z</time>
      </trkpt>
      <trkpt lat="45.1477" lon="5.65314">
        <ele>1157</ele>
        <time>2014-06-28T07:37:43.000Z</time>
      </trkpt>
      <trkpt lat="45.1477" lon="5.65314">
        <ele>1157</ele>
        <time>2014-06-28T07:37:44.000Z</time>
      </trkpt>
      <trkpt lat="45.1477" lon="5.65313">
        <ele>1157</ele>
        <time>2014-06-28T07:37:45.000Z</time>
      </trkpt>
      <trkpt lat="45.1477" lon="5.65313">
        <ele>1157</ele>
        <time>2014-06-28T07:37:46.000Z</time>
      </trkpt>
      <trkpt lat="45.1477" lon="5.65313">
        <ele>1157</ele>
        <time>2014-06-28T07:37:47.000Z</time>
      </trkpt>
      <trkpt lat="45.1477" lon="5.65312">
        <ele>1157</ele>
        <time>2014-06-28T07:37:48.000Z</time>
      </trkpt>
      <trkpt lat="45.1477" lon="5.65312">
        <ele>1157</ele>
        <time>2014-06-28T07:37:49.000Z</time>
      </trkpt>
      <trkpt lat="45.1477" lon="5.65312">
        <ele>1157</ele>
        <time>2014-06-28T07:37:50.000Z</time>
      </trkpt>
      <trkpt lat="45.1477" lon="5.65312">
        <ele>1157</ele>
        <time>2014-06-28T07:37:51.000Z</time>
      </trkpt>
      <trkpt lat="45.1477" lon="5.65312">
        <ele>1158</ele>
        <time>2014-06-28T07:37:52.000Z</time>
      </trkpt>
      <trkpt lat="45.1477" lon="5.65312">
        <ele>1158</ele>
        <time>2014-06-28T07:37:53.000Z</time>
      </trkpt>
      <trkpt lat="45.1477" lon="5.65312">
        <ele>1159</ele>
        <time>2014-06-28T07:37:54.000Z</time>
      </trkpt>
      <trkpt lat="45.1477" lon="5.65312">
        <ele>1159</ele>
        <time>2014-06-28T07:37:55.000Z</time>
      </trkpt>
      <trkpt lat="45.1477" lon="5.65312">
        <ele>1160</ele>
        <time>2014-06-28T07:37:56.000Z</time>
      </trkpt>
      <trkpt lat="45.1477" lon="5.65312">
        <ele>1160</ele>
        <time>2014-06-28T07:37:57.000Z</time>
      </trkpt>
      <trkpt lat="45.1477" lon="5.65312">
        <ele>1160</ele>
        <time>2014-06-28T07:37:58.000Z</time>
      </trkpt>
      <trkpt lat="45.1477" lon="5.65312">
        <ele>1161</ele>
        <time>2014-06-28T07:37:59.000Z</time>
      </trkpt>
      <trkpt lat="45.1477" lon="5.65311">
        <ele>1161</ele>
        <time>2014-06-28T07:38:00.000Z</time>
      </trkpt>
      <trkpt lat="45.1477" lon="5.65311">
        <ele>1161</ele>
        <time>2014-06-28T07:38:01.000Z</time>
      </trkpt>
      <trkpt lat="45.1477" lon="5.65311">
        <ele>1161</ele>
        <time>2014-06-28T07:38:02.000Z</time>
      </trkpt>
      <trkpt lat="45.1477" lon="5.65311">
        <ele>1162</ele>
        <time>2014-06-28T07:38:03.000Z</time>
      </trkpt>
      <trkpt lat="45.1477" lon="5.65311">
        <ele>1162</ele>
        <time>2014-06-28T07:38:04.000Z</time>
      </trkpt>
      <trkpt lat="45.1477" lon="5.65311">
        <ele>1162</ele>
        <time>2014-06-28T07:38:05.000Z</time>
      </trkpt>
      <trkpt lat="45.14769" lon="5.65311">
        <ele>1162</ele>
        <time>2014-06-28T07:38:06.000Z</time>
      </trkpt>
      <trkpt lat="45.14769" lon="5.65311">
        <ele>1163</ele>
        <time>2014-06-28T07:38:07.000Z</time>
      </trkpt>
      <trkpt lat="45.14769" lon="5.6531">
        <ele>1163</ele>
        <time>2014-06-28T07:38:08.000Z</time>
      </trkpt>
      <trkpt lat="45.14769" lon="5.6531">
        <ele>1163</ele>
        <time>2014-06-28T07:38:09.000Z</time>
      </trkpt>
      <trkpt lat="45.14769" lon="5.6531">
        <ele>1163</ele>
        <time>2014-06-28T07:38:10.000Z</time>
      </trkpt>
      <trkpt lat="45.14769" lon="5.6531">
        <ele>1163</ele>
        <time>2014-06-28T07:38:11.000Z</time>
      </trkpt>
      <trkpt lat="45.14769" lon="5.6531">
        <ele>1163</ele>
        <time>2014-06-28T07:38:12.000Z</time>
      </trkpt>
      <trkpt lat="45.14769" lon="5.6531">
        <ele>1164</ele>
        <time>2014-06-28T07:38:13.000Z</time>
      </trkpt>
      <trkpt lat="45.14769" lon="5.65309">
        <ele>1164</ele>
        <time>2014-06-28T07:38:14.000Z</time>
      </trkpt>
      <trkpt lat="45.14769" lon="5.65309">
        <ele>1164</ele>
        <time>2014-06-28T07:38:15.000Z</time>
      </trkpt>
      <trkpt lat="45.14769" lon="5.65309">
        <ele>1164</ele>
        <time>2014-06-28T07:38:16.000Z</time>
      </trkpt>
      <trkpt lat="45.14769" lon="5.65309">
        <ele>1164</ele>
        <time>2014-06-28T07:38:17.000Z</time>
      </trkpt>
      <trkpt lat="45.14769" lon="5.65309">
        <ele>1164</ele>
        <time>2014-06-28T07:38:18.000Z</time>
      </trkpt>
      <trkpt lat="45.14769" lon="5.65308">
        <ele>1165</ele>
        <time>2014-06-28T07:38:19.000Z</time>
      </trkpt>
      <trkpt lat="45.14769" lon="5.65308">
        <ele>1165</ele>
        <time>2014-06-28T07:38:20.000Z</time>
      </trkpt>
      <trkpt lat="45.14769" lon="5.65308">
        <ele>1165</ele>
        <time>2014-06-28T07:38:21.000Z</time>
      </trkpt>
      <trkpt lat="45.14769" lon="5.65308">
        <ele>1165</ele>
        <time>2014-06-28T07:38:22.000Z</time>
      </trkpt>
      <trkpt lat="45.14769" lon="5.65308">
        <ele>1165</ele>
        <time>2014-06-28T07:38:23.000Z</time>
      </trkpt>
      <trkpt lat="45.14769" lon="5.65308">
        <ele>1165</ele>
        <time>2014-06-28T07:38:24.000Z</time>
      </trkpt>
      <trkpt lat="45.14769" lon="5.65308">
        <ele>1165</ele>
        <time>2014-06-28T07:38:25.000Z</time>
      </trkpt>
      <trkpt lat="45.14769" lon="5.65308">
        <ele>1165</ele>
        <time>2014-06-28T07:38:26.000Z</time>
      </trkpt>
      <trkpt lat="45.14769" lon="5.65308">
        <ele>1165</ele>
        <time>2014-06-28T07:38:27.000Z</time>
      </trkpt>
      <trkpt lat="45.14769" lon="5.65308">
        <ele>1165</ele>
        <time>2014-06-28T07:38:28.000Z</time>
      </trkpt>
      <trkpt lat="45.14769" lon="5.65308">
        <ele>1166</ele>
        <time>2014-06-28T07:38:29.000Z</time>
      </trkpt>
      <trkpt lat="45.14769" lon="5.65308">
        <ele>1166</ele>
        <time>2014-06-28T07:38:30.000Z</time>
      </trkpt>
      <trkpt lat="45.14769" lon="5.65308">
        <ele>1166</ele>
        <time>2014-06-28T07:38:31.000Z</time>
      </trkpt>
      <trkpt lat="45.14769" lon="5.65308">
        <ele>1166</ele>
        <time>2014-06-28T07:38:32.000Z</time>
      </trkpt>
      <trkpt lat="45.14769" lon="5.65308">
        <ele>1166</ele>
        <time>2014-06-28T07:38:33.000Z</time>
      </trkpt>
      <trkpt lat="45.14769" lon="5.65308">
        <ele>1166</ele>
        <time>2014-06-28T07:38:34.000Z</time>
      </trkpt>
      <trkpt lat="45.14769" lon="5.65308">
        <ele>1166</ele>
        <time>2014-06-28T07:38:35.000Z</time>
      </trkpt>
      <trkpt lat="45.14769" lon="5.65308">
        <ele>1166</ele>
        <time>2014-06-28T07:38:36.000Z</time>
      </trkpt>
      <trkpt lat="45.14769" lon="5.65307">
        <ele>1166</ele>
        <time>2014-06-28T07:38:37.000Z</time>
      </trkpt>
      <trkpt lat="45.14769" lon="5.65307">
        <ele>1166</ele>
        <time>2014-06-28T07:38:38.000Z</time>
      </trkpt>
      <trkpt lat="45.1477" lon="5.65307">
        <ele>1166</ele>
        <time>2014-06-28T07:38:39.000Z</time>
      </trkpt>
      <trkpt lat="45.1477" lon="5.65307">
        <ele>1166</ele>
        <time>2014-06-28T07:38:40.000Z</time>
      </trkpt>
      <trkpt lat="45.1477" lon="5.65307">
        <ele>1166</ele>
        <time>2014-06-28T07:38:41.000Z</time>
      </trkpt>
      <trkpt lat="45.1477" lon="5.65308">
        <ele>1166</ele>
        <time>2014-06-28T07:38:42.000Z</time>
      </trkpt>
      <trkpt lat="45.1477" lon="5.65308">
        <ele>1166</ele>
        <time>2014-06-28T07:38:43.000Z</time>
      </trkpt>
      <trkpt lat="45.14771" lon="5.65308">
        <ele>1166</ele>
        <time>2014-06-28T07:38:44.000Z</time>
      </trkpt>
      <trkpt lat="45.14771" lon="5.65308">
        <ele>1166</ele>
        <time>2014-06-28T07:38:45.000Z</time>
      </trkpt>
      <trkpt lat="45.14771" lon="5.65308">
        <ele>1166</ele>
        <time>2014-06-28T07:38:46.000Z</time>
      </trkpt>
      <trkpt lat="45.14771" lon="5.65308">
        <ele>1166</ele>
        <time>2014-06-28T07:38:47.000Z</time>
      </trkpt>
      <trkpt lat="45.14771" lon="5.65308">
        <ele>1166</ele>
        <time>2014-06-28T07:38:48.000Z</time>
      </trkpt>
      <trkpt lat="45.14771" lon="5.65307">
        <ele>1166</ele>
        <time>2014-06-28T07:38:49.000Z</time>
      </trkpt>
      <trkpt lat="45.14771" lon="5.65307">
        <ele>1166</ele>
        <time>2014-06-28T07:38:50.000Z</time>
      </trkpt>
      <trkpt lat="45.14771" lon="5.65307">
        <ele>1166</ele>
        <time>2014-06-28T07:38:51.000Z</time>
      </trkpt>
      <trkpt lat="45.14771" lon="5.65307">
        <ele>1166</ele>
        <time>2014-06-28T07:38:52.000Z</time>
      </trkpt>
      <trkpt lat="45.14771" lon="5.65307">
        <ele>1166</ele>
        <time>2014-06-28T07:38:53.000Z</time>
      </trkpt>
      <trkpt lat="45.14772" lon="5.65307">
        <ele>1166</ele>
        <time>2014-06-28T07:38:54.000Z</time>
      </trkpt>
      <trkpt lat="45.14772" lon="5.65307">
        <ele>1166</ele>
        <time>2014-06-28T07:38:55.000Z</time>
      </trkpt>
      <trkpt lat="45.14772" lon="5.65307">
        <ele>1166</ele>
        <time>2014-06-28T07:38:56.000Z</time>
      </trkpt>
      <trkpt lat="45.14772" lon="5.65306">
        <ele>1166</ele>
        <time>2014-06-28T07:38:57.000Z</time>
      </trkpt>
      <trkpt lat="45.14772" lon="5.65306">
        <ele>1166</ele>
        <time>2014-06-28T07:38:58.000Z</time>
      </trkpt>
      <trkpt lat="45.14772" lon="5.65306">
        <ele>1166</ele>
        <time>2014-06-28T07:38:59.000Z</time>
      </trkpt>
      <trkpt lat="45.14772" lon="5.65306">
        <ele>1166</ele>
        <time>2014-06-28T07:39:00.000Z</time>
      </trkpt>
      <trkpt lat="45.14772" lon="5.65306">
        <ele>1166</ele>
        <time>2014-06-28T07:39:01.000Z</time>
      </trkpt>
      <trkpt lat="45.14772" lon="5.65306">
        <ele>1166</ele>
        <time>2014-06-28T07:39:02.000Z</time>
      </trkpt>
      <trkpt lat="45.14772" lon="5.65306">
        <ele>1166</ele>
        <time>2014-06-28T07:39:03.000Z</time>
      </trkpt>
      <trkpt lat="45.14773" lon="5.65306">
        <ele>1166</ele>
        <time>2014-06-28T07:39:04.000Z</time>
      </trkpt>
      <trkpt lat="45.14773" lon="5.65306">
        <ele>1166</ele>
        <time>2014-06-28T07:39:05.000Z</time>
      </trkpt>
      <trkpt lat="45.14773" lon="5.65305">
        <ele>1166</ele>
        <time>2014-06-28T07:39:06.000Z</time>
      </trkpt>
      <trkpt lat="45.14773" lon="5.65305">
        <ele>1166</ele>
        <time>2014-06-28T07:39:07.000Z</time>
      </trkpt>
      <trkpt lat="45.14773" lon="5.65305">
        <ele>1166</ele>
        <time>2014-06-28T07:39:08.000Z</time>
      </trkpt>
      <trkpt lat="45.14773" lon="5.65305">
        <ele>1166</ele>
        <time>2014-06-28T07:39:09.000Z</time>
      </trkpt>
      <trkpt lat="45.14773" lon="5.65305">
        <ele>1166</ele>
        <time>2014-06-28T07:39:10.000Z</time>
      </trkpt>
      <trkpt lat="45.14773" lon="5.65305">
        <ele>1166</ele>
        <time>2014-06-28T07:39:11.000Z</time>
      </trkpt>
      <trkpt lat="45.14773" lon="5.65304">
        <ele>1166</ele>
        <time>2014-06-28T07:39:12.000Z</time>
      </trkpt>
      <trkpt lat="45.14773" lon="5.65304">
        <ele>1166</ele>
        <time>2014-06-28T07:39:13.000Z</time>
      </trkpt>
      <trkpt lat="45.14773" lon="5.65304">
        <ele>1166</ele>
        <time>2014-06-28T07:39:14.000Z</time>
      </trkpt>
      <trkpt lat="45.14773" lon="5.65304">
        <ele>1166</ele>
        <time>2014-06-28T07:39:15.000Z</time>
      </trkpt>
      <trkpt lat="45.14773" lon="5.65304">
        <ele>1166</ele>
        <time>2014-06-28T07:39:16.000Z</time>
      </trkpt>
      <trkpt lat="45.14773" lon="5.65304">
        <ele>1166</ele>
        <time>2014-06-28T07:39:17.000Z</time>
      </trkpt>
      <trkpt lat="45.14773" lon="5.65303">
        <ele>1165</ele>
        <time>2014-06-28T07:39:18.000Z</time>
      </trkpt>
      <trkpt lat="45.14772" lon="5.65303">
        <ele>1165</ele>
        <time>2014-06-28T07:39:19.000Z</time>
      </trkpt>
      <trkpt lat="45.14771" lon="5.65303">
        <ele>1165</ele>
        <time>2014-06-28T07:39:20.000Z</time>
      </trkpt>
      <trkpt lat="45.1477" lon="5.65303">
        <ele>1165</ele>
        <time>2014-06-28T07:39:21.000Z</time>
      </trkpt>
      <trkpt lat="45.14768" lon="5.65303">
        <ele>1164</ele>
        <time>2014-06-28T07:39:22.000Z</time>
      </trkpt>
      <trkpt lat="45.14767" lon="5.65303">
        <ele>1164</ele>
        <time>2014-06-28T07:39:23.000Z</time>
      </trkpt>
      <trkpt lat="45.14766" lon="5.65303">
        <ele>1164</ele>
        <time>2014-06-28T07:39:24.000Z</time>
      </trkpt>
      <trkpt lat="45.14765" lon="5.65304">
        <ele>1164</ele>
        <time>2014-06-28T07:39:25.000Z</time>
      </trkpt>
      <trkpt lat="45.14764" lon="5.65304">
        <ele>1164</ele>
        <time>2014-06-28T07:39:26.000Z</time>
      </trkpt>
      <trkpt lat="45.14763" lon="5.65305">
        <ele>1164</ele>
        <time>2014-06-28T07:39:27.000Z</time>
      </trkpt>
      <trkpt lat="45.14762" lon="5.65305">
        <ele>1164</ele>
        <time>2014-06-28T07:39:28.000Z</time>
      </trkpt>
      <trkpt lat="45.14761" lon="5.65306">
        <ele>1164</ele>
        <time>2014-06-28T07:39:29.000Z</time>
      </trkpt>
      <trkpt lat="45.1476" lon="5.65307">
        <ele>1164</ele>
        <time>2014-06-28T07:39:30.000Z</time>
      </trkpt>
      <trkpt lat="45.14758" lon="5.65308">
        <ele>1164</ele>
        <time>2014-06-28T07:39:31.000Z</time>
      </trkpt>
      <trkpt lat="45.14757" lon="5.65308">
        <ele>1164</ele>
        <time>2014-06-28T07:39:32.000Z</time>
      </trkpt>
      <trkpt lat="45.14756" lon="5.65309">
        <ele>1164</ele>
        <time>2014-06-28T07:39:33.000Z</time>
      </trkpt>
      <trkpt lat="45.14755" lon="5.6531">
        <ele>1164</ele>
        <time>2014-06-28T07:39:34.000Z</time>
      </trkpt>
      <trkpt lat="45.14754" lon="5.65311">
        <ele>1164</ele>
        <time>2014-06-28T07:39:35.000Z</time>
      </trkpt>
      <trkpt lat="45.14753" lon="5.65312">
        <ele>1164</ele>
        <time>2014-06-28T07:39:36.000Z</time>
      </trkpt>
      <trkpt lat="45.14752" lon="5.65313">
        <ele>1164</ele>
        <time>2014-06-28T07:39:37.000Z</time>
      </trkpt>
      <trkpt lat="45.14751" lon="5.65313">
        <ele>1164</ele>
        <time>2014-06-28T07:39:38.000Z</time>
      </trkpt>
      <trkpt lat="45.1475" lon="5.65314">
        <ele>1164</ele>
        <time>2014-06-28T07:39:39.000Z</time>
      </trkpt>
      <trkpt lat="45.14749" lon="5.65315">
        <ele>1164</ele>
        <time>2014-06-28T07:39:40.000Z</time>
      </trkpt>
      <trkpt lat="45.14748" lon="5.65316">
        <ele>1164</ele>
        <time>2014-06-28T07:39:41.000Z</time>
      </trkpt>
      <trkpt lat="45.14747" lon="5.65317">
        <ele>1165</ele>
        <time>2014-06-28T07:39:42.000Z</time>
      </trkpt>
      <trkpt lat="45.14746" lon="5.65317">
        <ele>1165</ele>
        <time>2014-06-28T07:39:43.000Z</time>
      </trkpt>
      <trkpt lat="45.14745" lon="5.65318">
        <ele>1165</ele>
        <time>2014-06-28T07:39:44.000Z</time>
      </trkpt>
      <trkpt lat="45.14744" lon="5.65319">
        <ele>1165</ele>
        <time>2014-06-28T07:39:45.000Z</time>
      </trkpt>
      <trkpt lat="45.14743" lon="5.6532">
        <ele>1166</ele>
        <time>2014-06-28T07:39:46.000Z</time>
      </trkpt>
      <trkpt lat="45.14742" lon="5.65322">
        <ele>1166</ele>
        <time>2014-06-28T07:39:47.000Z</time>
      </trkpt>
      <trkpt lat="45.14741" lon="5.65323">
        <ele>1166</ele>
        <time>2014-06-28T07:39:48.000Z</time>
      </trkpt>
      <trkpt lat="45.14739" lon="5.65325">
        <ele>1166</ele>
        <time>2014-06-28T07:39:49.000Z</time>
      </trkpt>
      <trkpt lat="45.14737" lon="5.65326">
        <ele>1166</ele>
        <time>2014-06-28T07:39:50.000Z</time>
      </trkpt>
      <trkpt lat="45.14736" lon="5.65327">
        <ele>1166</ele>
        <time>2014-06-28T07:39:51.000Z</time>
      </trkpt>
      <trkpt lat="45.14734" lon="5.65328">
        <ele>1166</ele>
        <time>2014-06-28T07:39:52.000Z</time>
      </trkpt>
      <trkpt lat="45.14733" lon="5.65329">
        <ele>1166</ele>
        <time>2014-06-28T07:39:53.000Z</time>
      </trkpt>
      <trkpt lat="45.14731" lon="5.6533">
        <ele>1167</ele>
        <time>2014-06-28T07:39:54.000Z</time>
      </trkpt>
      <trkpt lat="45.1473" lon="5.65331">
        <ele>1167</ele>
        <time>2014-06-28T07:39:55.000Z</time>
      </trkpt>
      <trkpt lat="45.14728" lon="5.65332">
        <ele>1167</ele>
        <time>2014-06-28T07:39:56.000Z</time>
      </trkpt>
      <trkpt lat="45.14727" lon="5.65332">
        <ele>1167</ele>
        <time>2014-06-28T07:39:57.000Z</time>
      </trkpt>
      <trkpt lat="45.14726" lon="5.65333">
        <ele>1167</ele>
        <time>2014-06-28T07:39:58.000Z</time>
      </trkpt>
      <trkpt lat="45.14726" lon="5.65333">
        <ele>1167</ele>
        <time>2014-06-28T07:39:59.000Z</time>
      </trkpt>
      <trkpt lat="45.14725" lon="5.65334">
        <ele>1167</ele>
        <time>2014-06-28T07:40:00.000Z</time>
      </trkpt>
      <trkpt lat="45.14725" lon="5.65333">
        <ele>1167</ele>
        <time>2014-06-28T07:40:01.000Z</time>
      </trkpt>
      <trkpt lat="45.14725" lon="5.65333">
        <ele>1166</ele>
        <time>2014-06-28T07:40:02.000Z</time>
      </trkpt>
      <trkpt lat="45.14725" lon="5.65332">
        <ele>1166</ele>
        <time>2014-06-28T07:40:03.000Z</time>
      </trkpt>
      <trkpt lat="45.14726" lon="5.65331">
        <ele>1166</ele>
        <time>2014-06-28T07:40:04.000Z</time>
      </trkpt>
      <trkpt lat="45.14726" lon="5.6533">
        <ele>1166</ele>
        <time>2014-06-28T07:40:05.000Z</time>
      </trkpt>
      <trkpt lat="45.14726" lon="5.65329">
        <ele>1166</ele>
        <time>2014-06-28T07:40:06.000Z</time>
      </trkpt>
      <trkpt lat="45.14726" lon="5.65328">
        <ele>1166</ele>
        <time>2014-06-28T07:40:07.000Z</time>
      </trkpt>
      <trkpt lat="45.14726" lon="5.65327">
        <ele>1166</ele>
        <time>2014-06-28T07:40:08.000Z</time>
      </trkpt>
      <trkpt lat="45.14726" lon="5.65325">
        <ele>1165</ele>
        <time>2014-06-28T07:40:09.000Z</time>
      </trkpt>
      <trkpt lat="45.14726" lon="5.65324">
        <ele>1165</ele>
        <time>2014-06-28T07:40:10.000Z</time>
      </trkpt>
      <trkpt lat="45.14727" lon="5.65323">
        <ele>1165</ele>
        <time>2014-06-28T07:40:11.000Z</time>
      </trkpt>
      <trkpt lat="45.14727" lon="5.65322">
        <ele>1165</ele>
        <time>2014-06-28T07:40:12.000Z</time>
      </trkpt>
      <trkpt lat="45.14727" lon="5.6532">
        <ele>1165</ele>
        <time>2014-06-28T07:40:13.000Z</time>
      </trkpt>
      <trkpt lat="45.14728" lon="5.65319">
        <ele>1165</ele>
        <time>2014-06-28T07:40:14.000Z</time>
      </trkpt>
      <trkpt lat="45.14728" lon="5.65317">
        <ele>1165</ele>
        <time>2014-06-28T07:40:15.000Z</time>
      </trkpt>
      <trkpt lat="45.14729" lon="5.65315">
        <ele>1165</ele>
        <time>2014-06-28T07:40:16.000Z</time>
      </trkpt>
      <trkpt lat="45.1473" lon="5.65313">
        <ele>1165</ele>
        <time>2014-06-28T07:40:17.000Z</time>
      </trkpt>
      <trkpt lat="45.14731" lon="5.65311">
        <ele>1165</ele>
        <time>2014-06-28T07:40:18.000Z</time>
      </trkpt>
      <trkpt lat="45.14732" lon="5.6531">
        <ele>1165</ele>
        <time>2014-06-28T07:40:19.000Z</time>
      </trkpt>
      <trkpt lat="45.14733" lon="5.65308">
        <ele>1165</ele>
        <time>2014-06-28T07:40:20.000Z</time>
      </trkpt>
      <trkpt lat="45.14733" lon="5.65306">
        <ele>1165</ele>
        <time>2014-06-28T07:40:21.000Z</time>
      </trkpt>
      <trkpt lat="45.14733" lon="5.65305">
        <ele>1165</ele>
        <time>2014-06-28T07:40:22.000Z</time>
      </trkpt>
      <trkpt lat="45.14733" lon="5.65304">
        <ele>1165</ele>
        <time>2014-06-28T07:40:23.000Z</time>
      </trkpt>
      <trkpt lat="45.14733" lon="5.65302">
        <ele>1165</ele>
        <time>2014-06-28T07:40:24.000Z</time>
      </trkpt>
      <trkpt lat="45.14733" lon="5.65301">
        <ele>1165</ele>
        <time>2014-06-28T07:40:25.000Z</time>
      </trkpt>
      <trkpt lat="45.14732" lon="5.65299">
        <ele>1165</ele>
        <time>2014-06-28T07:40:26.000Z</time>
      </trkpt>
      <trkpt lat="45.14732" lon="5.65297">
        <ele>1165</ele>
        <time>2014-06-28T07:40:27.000Z</time>
      </trkpt>
      <trkpt lat="45.14732" lon="5.65296">
        <ele>1165</ele>
        <time>2014-06-28T07:40:28.000Z</time>
      </trkpt>
      <trkpt lat="45.14732" lon="5.65294">
        <ele>1166</ele>
        <time>2014-06-28T07:40:29.000Z</time>
      </trkpt>
      <trkpt lat="45.14732" lon="5.65292">
        <ele>1166</ele>
        <time>2014-06-28T07:40:30.000Z</time>
      </trkpt>
      <trkpt lat="45.14732" lon="5.65291">
        <ele>1166</ele>
        <time>2014-06-28T07:40:31.000Z</time>
      </trkpt>
      <trkpt lat="45.14732" lon="5.65289">
        <ele>1166</ele>
        <time>2014-06-28T07:40:32.000Z</time>
      </trkpt>
      <trkpt lat="45.14732" lon="5.65288">
        <ele>1166</ele>
        <time>2014-06-28T07:40:33.000Z</time>
      </trkpt>
      <trkpt lat="45.14732" lon="5.65286">
        <ele>1166</ele>
        <time>2014-06-28T07:40:34.000Z</time>
      </trkpt>
      <trkpt lat="45.14733" lon="5.65284">
        <ele>1166</ele>
        <time>2014-06-28T07:40:35.000Z</time>
      </trkpt>
      <trkpt lat="45.14733" lon="5.65283">
        <ele>1166</ele>
        <time>2014-06-28T07:40:36.000Z</time>
      </trkpt>
      <trkpt lat="45.14734" lon="5.65281">
        <ele>1166</ele>
        <time>2014-06-28T07:40:37.000Z</time>
      </trkpt>
      <trkpt lat="45.14734" lon="5.65279">
        <ele>1166</ele>
        <time>2014-06-28T07:40:38.000Z</time>
      </trkpt>
      <trkpt lat="45.14735" lon="5.65278">
        <ele>1166</ele>
        <time>2014-06-28T07:40:39.000Z</time>
      </trkpt>
      <trkpt lat="45.14736" lon="5.65276">
        <ele>1166</ele>
        <time>2014-06-28T07:40:40.000Z</time>
      </trkpt>
      <trkpt lat="45.14737" lon="5.65274">
        <ele>1167</ele>
        <time>2014-06-28T07:40:41.000Z</time>
      </trkpt>
      <trkpt lat="45.14738" lon="5.65272">
        <ele>1167</ele>
        <time>2014-06-28T07:40:42.000Z</time>
      </trkpt>
      <trkpt lat="45.14738" lon="5.65271">
        <ele>1167</ele>
        <time>2014-06-28T07:40:43.000Z</time>
      </trkpt>
      <trkpt lat="45.14738" lon="5.65269">
        <ele>1167</ele>
        <time>2014-06-28T07:40:44.000Z</time>
      </trkpt>
      <trkpt lat="45.14739" lon="5.65267">
        <ele>1167</ele>
        <time>2014-06-28T07:40:45.000Z</time>
      </trkpt>
      <trkpt lat="45.14739" lon="5.65266">
        <ele>1168</ele>
        <time>2014-06-28T07:40:46.000Z</time>
      </trkpt>
      <trkpt lat="45.14739" lon="5.65265">
        <ele>1168</ele>
        <time>2014-06-28T07:40:47.000Z</time>
      </trkpt>
      <trkpt lat="45.14739" lon="5.65263">
        <ele>1168</ele>
        <time>2014-06-28T07:40:48.000Z</time>
      </trkpt>
      <trkpt lat="45.14738" lon="5.65261">
        <ele>1168</ele>
        <time>2014-06-28T07:40:49.000Z</time>
      </trkpt>
      <trkpt lat="45.14738" lon="5.65259">
        <ele>1169</ele>
        <time>2014-06-28T07:40:50.000Z</time>
      </trkpt>
      <trkpt lat="45.14738" lon="5.65258">
        <ele>1169</ele>
        <time>2014-06-28T07:40:51.000Z</time>
      </trkpt>
      <trkpt lat="45.14738" lon="5.65256">
        <ele>1169</ele>
        <time>2014-06-28T07:40:52.000Z</time>
      </trkpt>
      <trkpt lat="45.14738" lon="5.65255">
        <ele>1169</ele>
        <time>2014-06-28T07:40:53.000Z</time>
      </trkpt>
      <trkpt lat="45.14738" lon="5.65254">
        <ele>1170</ele>
        <time>2014-06-28T07:40:54.000Z</time>
      </trkpt>
      <trkpt lat="45.14738" lon="5.65252">
        <ele>1170</ele>
        <time>2014-06-28T07:40:55.000Z</time>
      </trkpt>
      <trkpt lat="45.14738" lon="5.6525">
        <ele>1170</ele>
        <time>2014-06-28T07:40:56.000Z</time>
      </trkpt>
      <trkpt lat="45.14737" lon="5.65248">
        <ele>1170</ele>
        <time>2014-06-28T07:40:57.000Z</time>
      </trkpt>
      <trkpt lat="45.14737" lon="5.65246">
        <ele>1170</ele>
        <time>2014-06-28T07:40:58.000Z</time>
      </trkpt>
      <trkpt lat="45.14737" lon="5.65245">
        <ele>1171</ele>
        <time>2014-06-28T07:40:59.000Z</time>
      </trkpt>
      <trkpt lat="45.14737" lon="5.65243">
        <ele>1171</ele>
        <time>2014-06-28T07:41:00.000Z</time>
      </trkpt>
      <trkpt lat="45.14737" lon="5.6524">
        <ele>1171</ele>
        <time>2014-06-28T07:41:01.000Z</time>
      </trkpt>
      <trkpt lat="45.14737" lon="5.65239">
        <ele>1171</ele>
        <time>2014-06-28T07:41:02.000Z</time>
      </trkpt>
      <trkpt lat="45.14738" lon="5.65236">
        <ele>1172</ele>
        <time>2014-06-28T07:41:03.000Z</time>
      </trkpt>
      <trkpt lat="45.14738" lon="5.65234">
        <ele>1172</ele>
        <time>2014-06-28T07:41:04.000Z</time>
      </trkpt>
      <trkpt lat="45.14738" lon="5.65232">
        <ele>1172</ele>
        <time>2014-06-28T07:41:05.000Z</time>
      </trkpt>
      <trkpt lat="45.14738" lon="5.6523">
        <ele>1172</ele>
        <time>2014-06-28T07:41:06.000Z</time>
      </trkpt>
      <trkpt lat="45.14738" lon="5.65229">
        <ele>1172</ele>
        <time>2014-06-28T07:41:07.000Z</time>
      </trkpt>
      <trkpt lat="45.14738" lon="5.65227">
        <ele>1173</ele>
        <time>2014-06-28T07:41:08.000Z</time>
      </trkpt>
      <trkpt lat="45.14739" lon="5.65224">
        <ele>1173</ele>
        <time>2014-06-28T07:41:09.000Z</time>
      </trkpt>
      <trkpt lat="45.14739" lon="5.65223">
        <ele>1173</ele>
        <time>2014-06-28T07:41:10.000Z</time>
      </trkpt>
      <trkpt lat="45.14739" lon="5.65221">
        <ele>1173</ele>
        <time>2014-06-28T07:41:11.000Z</time>
      </trkpt>
      <trkpt lat="45.1474" lon="5.65219">
        <ele>1174</ele>
        <time>2014-06-28T07:41:12.000Z</time>
      </trkpt>
      <trkpt lat="45.1474" lon="5.65218">
        <ele>1174</ele>
        <time>2014-06-28T07:41:13.000Z</time>
      </trkpt>
      <trkpt lat="45.14741" lon="5.65216">
        <ele>1174</ele>
        <time>2014-06-28T07:41:14.000Z</time>
      </trkpt>
      <trkpt lat="45.14741" lon="5.65214">
        <ele>1174</ele>
        <time>2014-06-28T07:41:15.000Z</time>
      </trkpt>
      <trkpt lat="45.14742" lon="5.65213">
        <ele>1175</ele>
        <time>2014-06-28T07:41:16.000Z</time>
      </trkpt>
      <trkpt lat="45.14742" lon="5.65212">
        <ele>1175</ele>
        <time>2014-06-28T07:41:17.000Z</time>
      </trkpt>
      <trkpt lat="45.14743" lon="5.6521">
        <ele>1175</ele>
        <time>2014-06-28T07:41:18.000Z</time>
      </trkpt>
      <trkpt lat="45.14743" lon="5.65209">
        <ele>1175</ele>
        <time>2014-06-28T07:41:19.000Z</time>
      </trkpt>
      <trkpt lat="45.14743" lon="5.65208">
        <ele>1176</ele>
        <time>2014-06-28T07:41:20.000Z</time>
      </trkpt>
      <trkpt lat="45.14743" lon="5.65208">
        <ele>1176</ele>
        <time>2014-06-28T07:41:21.000Z</time>
      </trkpt>
      <trkpt lat="45.14743" lon="5.65207">
        <ele>1177</ele>
        <time>2014-06-28T07:41:22.000Z</time>
      </trkpt>
      <trkpt lat="45.14743" lon="5.65207">
        <ele>1178</ele>
        <time>2014-06-28T07:41:23.000Z</time>
      </trkpt>
      <trkpt lat="45.14742" lon="5.65206">
        <ele>1179</ele>
        <time>2014-06-28T07:41:24.000Z</time>
      </trkpt>
      <trkpt lat="45.14742" lon="5.65206">
        <ele>1179</ele>
        <time>2014-06-28T07:41:25.000Z</time>
      </trkpt>
      <trkpt lat="45.14741" lon="5.65205">
        <ele>1180</ele>
        <time>2014-06-28T07:41:26.000Z</time>
      </trkpt>
      <trkpt lat="45.1474" lon="5.65204">
        <ele>1181</ele>
        <time>2014-06-28T07:41:27.000Z</time>
      </trkpt>
      <trkpt lat="45.14739" lon="5.65204">
        <ele>1182</ele>
        <time>2014-06-28T07:41:28.000Z</time>
      </trkpt>
      <trkpt lat="45.14737" lon="5.65204">
        <ele>1183</ele>
        <time>2014-06-28T07:41:29.000Z</time>
      </trkpt>
      <trkpt lat="45.14736" lon="5.65204">
        <ele>1184</ele>
        <time>2014-06-28T07:41:30.000Z</time>
      </trkpt>
      <trkpt lat="45.14735" lon="5.65204">
        <ele>1184</ele>
        <time>2014-06-28T07:41:31.000Z</time>
      </trkpt>
      <trkpt lat="45.14734" lon="5.65204">
        <ele>1185</ele>
        <time>2014-06-28T07:41:32.000Z</time>
      </trkpt>
      <trkpt lat="45.14733" lon="5.65204">
        <ele>1186</ele>
        <time>2014-06-28T07:41:33.000Z</time>
      </trkpt>
      <trkpt lat="45.14732" lon="5.65204">
        <ele>1187</ele>
        <time>2014-06-28T07:41:34.000Z</time>
      </trkpt>
      <trkpt lat="45.14731" lon="5.65205">
        <ele>1188</ele>
        <time>2014-06-28T07:41:35.000Z</time>
      </trkpt>
      <trkpt lat="45.1473" lon="5.65205">
        <ele>1188</ele>
        <time>2014-06-28T07:41:36.000Z</time>
      </trkpt>
      <trkpt lat="45.14729" lon="5.65205">
        <ele>1189</ele>
        <time>2014-06-28T07:41:37.000Z</time>
      </trkpt>
      <trkpt lat="45.14728" lon="5.65206">
        <ele>1190</ele>
        <time>2014-06-28T07:41:38.000Z</time>
      </trkpt>
      <trkpt lat="45.14727" lon="5.65206">
        <ele>1190</ele>
        <time>2014-06-28T07:41:39.000Z</time>
      </trkpt>
      <trkpt lat="45.14727" lon="5.65206">
        <ele>1191</ele>
        <time>2014-06-28T07:41:40.000Z</time>
      </trkpt>
      <trkpt lat="45.14726" lon="5.65206">
        <ele>1192</ele>
        <time>2014-06-28T07:41:41.000Z</time>
      </trkpt>
      <trkpt lat="45.14725" lon="5.65207">
        <ele>1192</ele>
        <time>2014-06-28T07:41:42.000Z</time>
      </trkpt>
      <trkpt lat="45.14724" lon="5.65207">
        <ele>1193</ele>
        <time>2014-06-28T07:41:43.000Z</time>
      </trkpt>
      <trkpt lat="45.14723" lon="5.65207">
        <ele>1194</ele>
        <time>2014-06-28T07:41:44.000Z</time>
      </trkpt>
      <trkpt lat="45.14722" lon="5.65208">
        <ele>1194</ele>
        <time>2014-06-28T07:41:45.000Z</time>
      </trkpt>
      <trkpt lat="45.14721" lon="5.65208">
        <ele>1195</ele>
        <time>2014-06-28T07:41:46.000Z</time>
      </trkpt>
      <trkpt lat="45.14721" lon="5.65209">
        <ele>1196</ele>
        <time>2014-06-28T07:41:47.000Z</time>
      </trkpt>
      <trkpt lat="45.1472" lon="5.65209">
        <ele>1197</ele>
        <time>2014-06-28T07:41:48.000Z</time>
      </trkpt>
      <trkpt lat="45.14719" lon="5.65209">
        <ele>1197</ele>
        <time>2014-06-28T07:41:49.000Z</time>
      </trkpt>
      <trkpt lat="45.14718" lon="5.6521">
        <ele>1198</ele>
        <time>2014-06-28T07:41:50.000Z</time>
      </trkpt>
      <trkpt lat="45.14717" lon="5.6521">
        <ele>1198</ele>
        <time>2014-06-28T07:41:51.000Z</time>
      </trkpt>
      <trkpt lat="45.14716" lon="5.65211">
        <ele>1199</ele>
        <time>2014-06-28T07:41:52.000Z</time>
      </trkpt>
      <trkpt lat="45.14715" lon="5.65212">
        <ele>1199</ele>
        <time>2014-06-28T07:41:53.000Z</time>
      </trkpt>
      <trkpt lat="45.14714" lon="5.65213">
        <ele>1200</ele>
        <time>2014-06-28T07:41:54.000Z</time>
      </trkpt>
      <trkpt lat="45.14713" lon="5.65213">
        <ele>1200</ele>
        <time>2014-06-28T07:41:55.000Z</time>
      </trkpt>
      <trkpt lat="45.14712" lon="5.65214">
        <ele>1201</ele>
        <time>2014-06-28T07:41:56.000Z</time>
      </trkpt>
      <trkpt lat="45.1471" lon="5.65215">
        <ele>1201</ele>
        <time>2014-06-28T07:41:57.000Z</time>
      </trkpt>
      <trkpt lat="45.14709" lon="5.65215">
        <ele>1201</ele>
        <time>2014-06-28T07:41:58.000Z</time>
      </trkpt>
      <trkpt lat="45.14708" lon="5.65215">
        <ele>1202</ele>
        <time>2014-06-28T07:41:59.000Z</time>
      </trkpt>
      <trkpt lat="45.14707" lon="5.65216">
        <ele>1202</ele>
        <time>2014-06-28T07:42:00.000Z</time>
      </trkpt>
      <trkpt lat="45.14706" lon="5.65217">
        <ele>1203</ele>
        <time>2014-06-28T07:42:01.000Z</time>
      </trkpt>
      <trkpt lat="45.14705" lon="5.65218">
        <ele>1203</ele>
        <time>2014-06-28T07:42:02.000Z</time>
      </trkpt>
      <trkpt lat="45.14704" lon="5.65218">
        <ele>1203</ele>
        <time>2014-06-28T07:42:03.000Z</time>
      </trkpt>
      <trkpt lat="45.14703" lon="5.65219">
        <ele>1204</ele>
        <time>2014-06-28T07:42:04.000Z</time>
      </trkpt>
      <trkpt lat="45.14701" lon="5.6522">
        <ele>1204</ele>
        <time>2014-06-28T07:42:05.000Z</time>
      </trkpt>
      <trkpt lat="45.147" lon="5.6522">
        <ele>1204</ele>
        <time>2014-06-28T07:42:06.000Z</time>
      </trkpt>
      <trkpt lat="45.14699" lon="5.65221">
        <ele>1205</ele>
        <time>2014-06-28T07:42:07.000Z</time>
      </trkpt>
      <trkpt lat="45.14698" lon="5.65222">
        <ele>1205</ele>
        <time>2014-06-28T07:42:08.000Z</time>
      </trkpt>
      <trkpt lat="45.14697" lon="5.65222">
        <ele>1205</ele>
        <time>2014-06-28T07:42:09.000Z</time>
      </trkpt>
      <trkpt lat="45.14696" lon="5.65223">
        <ele>1206</ele>
        <time>2014-06-28T07:42:10.000Z</time>
      </trkpt>
      <trkpt lat="45.14696" lon="5.65223">
        <ele>1206</ele>
        <time>2014-06-28T07:42:11.000Z</time>
      </trkpt>
      <trkpt lat="45.14695" lon="5.65223">
        <ele>1206</ele>
        <time>2014-06-28T07:42:12.000Z</time>
      </trkpt>
      <trkpt lat="45.14694" lon="5.65224">
        <ele>1207</ele>
        <time>2014-06-28T07:42:13.000Z</time>
      </trkpt>
      <trkpt lat="45.14693" lon="5.65224">
        <ele>1207</ele>
        <time>2014-06-28T07:42:14.000Z</time>
      </trkpt>
      <trkpt lat="45.14692" lon="5.65225">
        <ele>1207</ele>
        <time>2014-06-28T07:42:15.000Z</time>
      </trkpt>
      <trkpt lat="45.14691" lon="5.65226">
        <ele>1208</ele>
        <time>2014-06-28T07:42:16.000Z</time>
      </trkpt>
      <trkpt lat="45.14689" lon="5.65226">
        <ele>1208</ele>
        <time>2014-06-28T07:42:17.000Z</time>
      </trkpt>
      <trkpt lat="45.14688" lon="5.65228">
        <ele>1209</ele>
        <time>2014-06-28T07:42:18.000Z</time>
      </trkpt>
      <trkpt lat="45.14686" lon="5.65229">
        <ele>1209</ele>
        <time>2014-06-28T07:42:19.000Z</time>
      </trkpt>
      <trkpt lat="45.14685" lon="5.6523">
        <ele>1209</ele>
        <time>2014-06-28T07:42:20.000Z</time>
      </trkpt>
      <trkpt lat="45.14684" lon="5.6523">
        <ele>1210</ele>
        <time>2014-06-28T07:42:21.000Z</time>
      </trkpt>
      <trkpt lat="45.14683" lon="5.65231">
        <ele>1210</ele>
        <time>2014-06-28T07:42:22.000Z</time>
      </trkpt>
      <trkpt lat="45.14682" lon="5.65231">
        <ele>1210</ele>
        <time>2014-06-28T07:42:23.000Z</time>
      </trkpt>
      <trkpt lat="45.14681" lon="5.65232">
        <ele>1211</ele>
        <time>2014-06-28T07:42:24.000Z</time>
      </trkpt>
      <trkpt lat="45.1468" lon="5.65233">
        <ele>1211</ele>
        <time>2014-06-28T07:42:25.000Z</time>
      </trkpt>
      <trkpt lat="45.14679" lon="5.65233">
        <ele>1211</ele>
        <time>2014-06-28T07:42:26.000Z</time>
      </trkpt>
      <trkpt lat="45.14679" lon="5.65233">
        <ele>1211</ele>
        <time>2014-06-28T07:42:27.000Z</time>
      </trkpt>
      <trkpt lat="45.14678" lon="5.65233">
        <ele>1211</ele>
        <time>2014-06-28T07:42:28.000Z</time>
      </trkpt>
      <trkpt lat="45.14677" lon="5.65233">
        <ele>1211</ele>
        <time>2014-06-28T07:42:29.000Z</time>
      </trkpt>
      <trkpt lat="45.14675" lon="5.65234">
        <ele>1212</ele>
        <time>2014-06-28T07:42:30.000Z</time>
      </trkpt>
      <trkpt lat="45.14674" lon="5.65234">
        <ele>1212</ele>
        <time>2014-06-28T07:42:31.000Z</time>
      </trkpt>
      <trkpt lat="45.14673" lon="5.65234">
        <ele>1212</ele>
        <time>2014-06-28T07:42:32.000Z</time>
      </trkpt>
      <trkpt lat="45.14671" lon="5.65234">
        <ele>1212</ele>
        <time>2014-06-28T07:42:33.000Z</time>
      </trkpt>
      <trkpt lat="45.1467" lon="5.65233">
        <ele>1212</ele>
        <time>2014-06-28T07:42:34.000Z</time>
      </trkpt>
      <trkpt lat="45.14669" lon="5.65233">
        <ele>1212</ele>
        <time>2014-06-28T07:42:35.000Z</time>
      </trkpt>
      <trkpt lat="45.14668" lon="5.65232">
        <ele>1212</ele>
        <time>2014-06-28T07:42:36.000Z</time>
      </trkpt>
      <trkpt lat="45.14668" lon="5.65232">
        <ele>1212</ele>
        <time>2014-06-28T07:42:37.000Z</time>
      </trkpt>
      <trkpt lat="45.14668" lon="5.65231">
        <ele>1212</ele>
        <time>2014-06-28T07:42:38.000Z</time>
      </trkpt>
      <trkpt lat="45.14668" lon="5.6523">
        <ele>1212</ele>
        <time>2014-06-28T07:42:39.000Z</time>
      </trkpt>
      <trkpt lat="45.14668" lon="5.65229">
        <ele>1212</ele>
        <time>2014-06-28T07:42:40.000Z</time>
      </trkpt>
      <trkpt lat="45.14668" lon="5.65228">
        <ele>1212</ele>
        <time>2014-06-28T07:42:41.000Z</time>
      </trkpt>
      <trkpt lat="45.14668" lon="5.65228">
        <ele>1212</ele>
        <time>2014-06-28T07:42:42.000Z</time>
      </trkpt>
      <trkpt lat="45.14668" lon="5.65227">
        <ele>1212</ele>
        <time>2014-06-28T07:42:43.000Z</time>
      </trkpt>
      <trkpt lat="45.14669" lon="5.65225">
        <ele>1212</ele>
        <time>2014-06-28T07:42:44.000Z</time>
      </trkpt>
      <trkpt lat="45.14669" lon="5.65224">
        <ele>1211</ele>
        <time>2014-06-28T07:42:45.000Z</time>
      </trkpt>
      <trkpt lat="45.14669" lon="5.65223">
        <ele>1211</ele>
        <time>2014-06-28T07:42:46.000Z</time>
      </trkpt>
      <trkpt lat="45.1467" lon="5.65221">
        <ele>1211</ele>
        <time>2014-06-28T07:42:47.000Z</time>
      </trkpt>
      <trkpt lat="45.1467" lon="5.65221">
        <ele>1211</ele>
        <time>2014-06-28T07:42:48.000Z</time>
      </trkpt>
      <trkpt lat="45.1467" lon="5.6522">
        <ele>1211</ele>
        <time>2014-06-28T07:42:49.000Z</time>
      </trkpt>
      <trkpt lat="45.1467" lon="5.65219">
        <ele>1211</ele>
        <time>2014-06-28T07:42:50.000Z</time>
      </trkpt>
      <trkpt lat="45.1467" lon="5.65218">
        <ele>1211</ele>
        <time>2014-06-28T07:42:51.000Z</time>
      </trkpt>
      <trkpt lat="45.1467" lon="5.65217">
        <ele>1211</ele>
        <time>2014-06-28T07:42:52.000Z</time>
      </trkpt>
      <trkpt lat="45.14671" lon="5.65216">
        <ele>1211</ele>
        <time>2014-06-28T07:42:53.000Z</time>
      </trkpt>
      <trkpt lat="45.14671" lon="5.65215">
        <ele>1211</ele>
        <time>2014-06-28T07:42:54.000Z</time>
      </trkpt>
      <trkpt lat="45.14671" lon="5.65214">
        <ele>1211</ele>
        <time>2014-06-28T07:42:55.000Z</time>
      </trkpt>
      <trkpt lat="45.14671" lon="5.65213">
        <ele>1211</ele>
        <time>2014-06-28T07:42:56.000Z</time>
      </trkpt>
      <trkpt lat="45.14672" lon="5.65211">
        <ele>1211</ele>
        <time>2014-06-28T07:42:57.000Z</time>
      </trkpt>
      <trkpt lat="45.14672" lon="5.6521">
        <ele>1211</ele>
        <time>2014-06-28T07:42:58.000Z</time>
      </trkpt>
      <trkpt lat="45.14673" lon="5.65209">
        <ele>1211</ele>
        <time>2014-06-28T07:42:59.000Z</time>
      </trkpt>
      <trkpt lat="45.14673" lon="5.65207">
        <ele>1211</ele>
        <time>2014-06-28T07:43:00.000Z</time>
      </trkpt>
      <trkpt lat="45.14674" lon="5.65206">
        <ele>1211</ele>
        <time>2014-06-28T07:43:01.000Z</time>
      </trkpt>
      <trkpt lat="45.14674" lon="5.65204">
        <ele>1211</ele>
        <time>2014-06-28T07:43:02.000Z</time>
      </trkpt>
      <trkpt lat="45.14675" lon="5.65203">
        <ele>1211</ele>
        <time>2014-06-28T07:43:03.000Z</time>
      </trkpt>
      <trkpt lat="45.14675" lon="5.65202">
        <ele>1211</ele>
        <time>2014-06-28T07:43:04.000Z</time>
      </trkpt>
      <trkpt lat="45.14676" lon="5.652">
        <ele>1211</ele>
        <time>2014-06-28T07:43:05.000Z</time>
      </trkpt>
      <trkpt lat="45.14676" lon="5.65198">
        <ele>1210</ele>
        <time>2014-06-28T07:43:06.000Z</time>
      </trkpt>
      <trkpt lat="45.14677" lon="5.65197">
        <ele>1210</ele>
        <time>2014-06-28T07:43:07.000Z</time>
      </trkpt>
      <trkpt lat="45.14677" lon="5.65195">
        <ele>1210</ele>
        <time>2014-06-28T07:43:08.000Z</time>
      </trkpt>
      <trkpt lat="45.14678" lon="5.65194">
        <ele>1210</ele>
        <time>2014-06-28T07:43:09.000Z</time>
      </trkpt>
      <trkpt lat="45.14679" lon="5.65192">
        <ele>1210</ele>
        <time>2014-06-28T07:43:10.000Z</time>
      </trkpt>
      <trkpt lat="45.14679" lon="5.65191">
        <ele>1210</ele>
        <time>2014-06-28T07:43:11.000Z</time>
      </trkpt>
      <trkpt lat="45.1468" lon="5.65189">
        <ele>1210</ele>
        <time>2014-06-28T07:43:12.000Z</time>
      </trkpt>
      <trkpt lat="45.1468" lon="5.65188">
        <ele>1210</ele>
        <time>2014-06-28T07:43:13.000Z</time>
      </trkpt>
      <trkpt lat="45.14681" lon="5.65186">
        <ele>1210</ele>
        <time>2014-06-28T07:43:14.000Z</time>
      </trkpt>
      <trkpt lat="45.14681" lon="5.65185">
        <ele>1210</ele>
        <time>2014-06-28T07:43:15.000Z</time>
      </trkpt>
      <trkpt lat="45.14682" lon="5.65184">
        <ele>1210</ele>
        <time>2014-06-28T07:43:16.000Z</time>
      </trkpt>
      <trkpt lat="45.14682" lon="5.65182">
        <ele>1210</ele>
        <time>2014-06-28T07:43:17.000Z</time>
      </trkpt>
      <trkpt lat="45.14682" lon="5.65181">
        <ele>1210</ele>
        <time>2014-06-28T07:43:18.000Z</time>
      </trkpt>
      <trkpt lat="45.14683" lon="5.6518">
        <ele>1211</ele>
        <time>2014-06-28T07:43:19.000Z</time>
      </trkpt>
      <trkpt lat="45.14683" lon="5.65178">
        <ele>1211</ele>
        <time>2014-06-28T07:43:20.000Z</time>
      </trkpt>
      <trkpt lat="45.14683" lon="5.65177">
        <ele>1211</ele>
        <time>2014-06-28T07:43:21.000Z</time>
      </trkpt>
      <trkpt lat="45.14684" lon="5.65175">
        <ele>1211</ele>
        <time>2014-06-28T07:43:22.000Z</time>
      </trkpt>
      <trkpt lat="45.14684" lon="5.65174">
        <ele>1211</ele>
        <time>2014-06-28T07:43:23.000Z</time>
      </trkpt>
      <trkpt lat="45.14684" lon="5.65173">
        <ele>1211</ele>
        <time>2014-06-28T07:43:24.000Z</time>
      </trkpt>
      <trkpt lat="45.14684" lon="5.65171">
        <ele>1211</ele>
        <time>2014-06-28T07:43:25.000Z</time>
      </trkpt>
      <trkpt lat="45.14685" lon="5.6517">
        <ele>1211</ele>
        <time>2014-06-28T07:43:26.000Z</time>
      </trkpt>
      <trkpt lat="45.14685" lon="5.65168">
        <ele>1211</ele>
        <time>2014-06-28T07:43:27.000Z</time>
      </trkpt>
      <trkpt lat="45.14685" lon="5.65167">
        <ele>1211</ele>
        <time>2014-06-28T07:43:28.000Z</time>
      </trkpt>
      <trkpt lat="45.14686" lon="5.65165">
        <ele>1211</ele>
        <time>2014-06-28T07:43:29.000Z</time>
      </trkpt>
      <trkpt lat="45.14686" lon="5.65164">
        <ele>1211</ele>
        <time>2014-06-28T07:43:30.000Z</time>
      </trkpt>
      <trkpt lat="45.14687" lon="5.65162">
        <ele>1211</ele>
        <time>2014-06-28T07:43:31.000Z</time>
      </trkpt>
      <trkpt lat="45.14687" lon="5.65161">
        <ele>1211</ele>
        <time>2014-06-28T07:43:32.000Z</time>
      </trkpt>
      <trkpt lat="45.14687" lon="5.6516">
        <ele>1212</ele>
        <time>2014-06-28T07:43:33.000Z</time>
      </trkpt>
      <trkpt lat="45.14687" lon="5.65159">
        <ele>1212</ele>
        <time>2014-06-28T07:43:34.000Z</time>
      </trkpt>
      <trkpt lat="45.14686" lon="5.65158">
        <ele>1212</ele>
        <time>2014-06-28T07:43:35.000Z</time>
      </trkpt>
      <trkpt lat="45.14685" lon="5.65157">
        <ele>1213</ele>
        <time>2014-06-28T07:43:36.000Z</time>
      </trkpt>
      <trkpt lat="45.14685" lon="5.65157">
        <ele>1213</ele>
        <time>2014-06-28T07:43:37.000Z</time>
      </trkpt>
      <trkpt lat="45.14684" lon="5.65156">
        <ele>1214</ele>
        <time>2014-06-28T07:43:38.000Z</time>
      </trkpt>
      <trkpt lat="45.14683" lon="5.65156">
        <ele>1214</ele>
        <time>2014-06-28T07:43:39.000Z</time>
      </trkpt>
      <trkpt lat="45.14682" lon="5.65156">
        <ele>1215</ele>
        <time>2014-06-28T07:43:40.000Z</time>
      </trkpt>
      <trkpt lat="45.14681" lon="5.65156">
        <ele>1216</ele>
        <time>2014-06-28T07:43:41.000Z</time>
      </trkpt>
      <trkpt lat="45.1468" lon="5.65156">
        <ele>1216</ele>
        <time>2014-06-28T07:43:42.000Z</time>
      </trkpt>
      <trkpt lat="45.14679" lon="5.65156">
        <ele>1217</ele>
        <time>2014-06-28T07:43:43.000Z</time>
      </trkpt>
      <trkpt lat="45.14678" lon="5.65156">
        <ele>1218</ele>
        <time>2014-06-28T07:43:44.000Z</time>
      </trkpt>
      <trkpt lat="45.14677" lon="5.65157">
        <ele>1219</ele>
        <time>2014-06-28T07:43:45.000Z</time>
      </trkpt>
      <trkpt lat="45.14675" lon="5.65157">
        <ele>1219</ele>
        <time>2014-06-28T07:43:46.000Z</time>
      </trkpt>
      <trkpt lat="45.14674" lon="5.65158">
        <ele>1220</ele>
        <time>2014-06-28T07:43:47.000Z</time>
      </trkpt>
      <trkpt lat="45.14673" lon="5.65159">
        <ele>1220</ele>
        <time>2014-06-28T07:43:48.000Z</time>
      </trkpt>
      <trkpt lat="45.14671" lon="5.65159">
        <ele>1221</ele>
        <time>2014-06-28T07:43:49.000Z</time>
      </trkpt>
      <trkpt lat="45.14669" lon="5.6516">
        <ele>1221</ele>
        <time>2014-06-28T07:43:50.000Z</time>
      </trkpt>
      <trkpt lat="45.14668" lon="5.6516">
        <ele>1222</ele>
        <time>2014-06-28T07:43:51.000Z</time>
      </trkpt>
      <trkpt lat="45.14666" lon="5.65161">
        <ele>1222</ele>
        <time>2014-06-28T07:43:52.000Z</time>
      </trkpt>
      <trkpt lat="45.14665" lon="5.65161">
        <ele>1223</ele>
        <time>2014-06-28T07:43:53.000Z</time>
      </trkpt>
      <trkpt lat="45.14664" lon="5.65161">
        <ele>1223</ele>
        <time>2014-06-28T07:43:54.000Z</time>
      </trkpt>
      <trkpt lat="45.14662" lon="5.65162">
        <ele>1224</ele>
        <time>2014-06-28T07:43:55.000Z</time>
      </trkpt>
      <trkpt lat="45.14661" lon="5.65162">
        <ele>1224</ele>
        <time>2014-06-28T07:43:56.000Z</time>
      </trkpt>
      <trkpt lat="45.1466" lon="5.65162">
        <ele>1225</ele>
        <time>2014-06-28T07:43:57.000Z</time>
      </trkpt>
      <trkpt lat="45.14659" lon="5.65163">
        <ele>1225</ele>
        <time>2014-06-28T07:43:58.000Z</time>
      </trkpt>
      <trkpt lat="45.14658" lon="5.65163">
        <ele>1226</ele>
        <time>2014-06-28T07:43:59.000Z</time>
      </trkpt>
      <trkpt lat="45.14656" lon="5.65164">
        <ele>1226</ele>
        <time>2014-06-28T07:44:00.000Z</time>
      </trkpt>
      <trkpt lat="45.14655" lon="5.65165">
        <ele>1227</ele>
        <time>2014-06-28T07:44:01.000Z</time>
      </trkpt>
      <trkpt lat="45.14653" lon="5.65165">
        <ele>1227</ele>
        <time>2014-06-28T07:44:02.000Z</time>
      </trkpt>
      <trkpt lat="45.14652" lon="5.65166">
        <ele>1228</ele>
        <time>2014-06-28T07:44:03.000Z</time>
      </trkpt>
      <trkpt lat="45.14651" lon="5.65165">
        <ele>1228</ele>
        <time>2014-06-28T07:44:04.000Z</time>
      </trkpt>
      <trkpt lat="45.14649" lon="5.65165">
        <ele>1228</ele>
        <time>2014-06-28T07:44:05.000Z</time>
      </trkpt>
      <trkpt lat="45.14648" lon="5.65165">
        <ele>1228</ele>
        <time>2014-06-28T07:44:06.000Z</time>
      </trkpt>
      <trkpt lat="45.14647" lon="5.65164">
        <ele>1229</ele>
        <time>2014-06-28T07:44:07.000Z</time>
      </trkpt>
      <trkpt lat="45.14647" lon="5.65163">
        <ele>1229</ele>
        <time>2014-06-28T07:44:08.000Z</time>
      </trkpt>
      <trkpt lat="45.14647" lon="5.65162">
        <ele>1229</ele>
        <time>2014-06-28T07:44:09.000Z</time>
      </trkpt>
      <trkpt lat="45.14647" lon="5.65161">
        <ele>1229</ele>
        <time>2014-06-28T07:44:10.000Z</time>
      </trkpt>
      <trkpt lat="45.14647" lon="5.6516">
        <ele>1229</ele>
        <time>2014-06-28T07:44:11.000Z</time>
      </trkpt>
      <trkpt lat="45.14647" lon="5.65159">
        <ele>1229</ele>
        <time>2014-06-28T07:44:12.000Z</time>
      </trkpt>
      <trkpt lat="45.14648" lon="5.65158">
        <ele>1229</ele>
        <time>2014-06-28T07:44:13.000Z</time>
      </trkpt>
      <trkpt lat="45.14648" lon="5.65156">
        <ele>1229</ele>
        <time>2014-06-28T07:44:14.000Z</time>
      </trkpt>
      <trkpt lat="45.14649" lon="5.65155">
        <ele>1229</ele>
        <time>2014-06-28T07:44:15.000Z</time>
      </trkpt>
      <trkpt lat="45.14649" lon="5.65153">
        <ele>1229</ele>
        <time>2014-06-28T07:44:16.000Z</time>
      </trkpt>
      <trkpt lat="45.14649" lon="5.65152">
        <ele>1229</ele>
        <time>2014-06-28T07:44:17.000Z</time>
      </trkpt>
      <trkpt lat="45.14648" lon="5.65151">
        <ele>1230</ele>
        <time>2014-06-28T07:44:18.000Z</time>
      </trkpt>
      <trkpt lat="45.14647" lon="5.65151">
        <ele>1230</ele>
        <time>2014-06-28T07:44:19.000Z</time>
      </trkpt>
      <trkpt lat="45.14646" lon="5.65151">
        <ele>1230</ele>
        <time>2014-06-28T07:44:20.000Z</time>
      </trkpt>
      <trkpt lat="45.14645" lon="5.65151">
        <ele>1231</ele>
        <time>2014-06-28T07:44:21.000Z</time>
      </trkpt>
      <trkpt lat="45.14644" lon="5.6515">
        <ele>1231</ele>
        <time>2014-06-28T07:44:22.000Z</time>
      </trkpt>
      <trkpt lat="45.14644" lon="5.6515">
        <ele>1232</ele>
        <time>2014-06-28T07:44:23.000Z</time>
      </trkpt>
      <trkpt lat="45.14644" lon="5.6515">
        <ele>1233</ele>
        <time>2014-06-28T07:44:24.000Z</time>
      </trkpt>
      <trkpt lat="45.14643" lon="5.6515">
        <ele>1233</ele>
        <time>2014-06-28T07:44:25.000Z</time>
      </trkpt>
      <trkpt lat="45.14643" lon="5.65149">
        <ele>1233</ele>
        <time>2014-06-28T07:44:26.000Z</time>
      </trkpt>
      <trkpt lat="45.14643" lon="5.65149">
        <ele>1233</ele>
        <time>2014-06-28T07:44:27.000Z</time>
      </trkpt>
      <trkpt lat="45.14643" lon="5.65149">
        <ele>1234</ele>
        <time>2014-06-28T07:44:28.000Z</time>
      </trkpt>
      <trkpt lat="45.14642" lon="5.65149">
        <ele>1234</ele>
        <time>2014-06-28T07:44:29.000Z</time>
      </trkpt>
      <trkpt lat="45.14642" lon="5.65149">
        <ele>1234</ele>
        <time>2014-06-28T07:44:30.000Z</time>
      </trkpt>
      <trkpt lat="45.14642" lon="5.65149">
        <ele>1234</ele>
        <time>2014-06-28T07:44:31.000Z</time>
      </trkpt>
      <trkpt lat="45.14642" lon="5.65149">
        <ele>1235</ele>
        <time>2014-06-28T07:44:32.000Z</time>
      </trkpt>
      <trkpt lat="45.14642" lon="5.65149">
        <ele>1235</ele>
        <time>2014-06-28T07:44:33.000Z</time>
      </trkpt>
      <trkpt lat="45.14642" lon="5.65149">
        <ele>1235</ele>
        <time>2014-06-28T07:44:34.000Z</time>
      </trkpt>
      <trkpt lat="45.14642" lon="5.65149">
        <ele>1235</ele>
        <time>2014-06-28T07:44:35.000Z</time>
      </trkpt>
      <trkpt lat="45.14642" lon="5.65149">
        <ele>1236</ele>
        <time>2014-06-28T07:44:36.000Z</time>
      </trkpt>
      <trkpt lat="45.14642" lon="5.65149">
        <ele>1236</ele>
        <time>2014-06-28T07:44:37.000Z</time>
      </trkpt>
      <trkpt lat="45.14642" lon="5.65149">
        <ele>1236</ele>
        <time>2014-06-28T07:44:38.000Z</time>
      </trkpt>
      <trkpt lat="45.14642" lon="5.65149">
        <ele>1236</ele>
        <time>2014-06-28T07:44:39.000Z</time>
      </trkpt>
      <trkpt lat="45.14642" lon="5.65149">
        <ele>1236</ele>
        <time>2014-06-28T07:44:40.000Z</time>
      </trkpt>
      <trkpt lat="45.14642" lon="5.65149">
        <ele>1237</ele>
        <time>2014-06-28T07:44:41.000Z</time>
      </trkpt>
      <trkpt lat="45.14642" lon="5.65149">
        <ele>1237</ele>
        <time>2014-06-28T07:44:42.000Z</time>
      </trkpt>
      <trkpt lat="45.14642" lon="5.65149">
        <ele>1237</ele>
        <time>2014-06-28T07:44:43.000Z</time>
      </trkpt>
      <trkpt lat="45.14642" lon="5.65148">
        <ele>1237</ele>
        <time>2014-06-28T07:44:44.000Z</time>
      </trkpt>
      <trkpt lat="45.14642" lon="5.65148">
        <ele>1237</ele>
        <time>2014-06-28T07:44:45.000Z</time>
      </trkpt>
      <trkpt lat="45.14642" lon="5.65148">
        <ele>1237</ele>
        <time>2014-06-28T07:44:46.000Z</time>
      </trkpt>
      <trkpt lat="45.14642" lon="5.65148">
        <ele>1237</ele>
        <time>2014-06-28T07:44:47.000Z</time>
      </trkpt>
      <trkpt lat="45.14642" lon="5.65148">
        <ele>1238</ele>
        <time>2014-06-28T07:44:48.000Z</time>
      </trkpt>
      <trkpt lat="45.14642" lon="5.65148">
        <ele>1238</ele>
        <time>2014-06-28T07:44:49.000Z</time>
      </trkpt>
      <trkpt lat="45.14642" lon="5.65148">
        <ele>1238</ele>
        <time>2014-06-28T07:44:50.000Z</time>
      </trkpt>
      <trkpt lat="45.14642" lon="5.65148">
        <ele>1238</ele>
        <time>2014-06-28T07:44:51.000Z</time>
      </trkpt>
      <trkpt lat="45.14642" lon="5.65148">
        <ele>1238</ele>
        <time>2014-06-28T07:44:52.000Z</time>
      </trkpt>
      <trkpt lat="45.14642" lon="5.65148">
        <ele>1238</ele>
        <time>2014-06-28T07:44:53.000Z</time>
      </trkpt>
      <trkpt lat="45.14642" lon="5.65148">
        <ele>1238</ele>
        <time>2014-06-28T07:44:54.000Z</time>
      </trkpt>
      <trkpt lat="45.14642" lon="5.65148">
        <ele>1238</ele>
        <time>2014-06-28T07:44:55.000Z</time>
      </trkpt>
      <trkpt lat="45.14642" lon="5.65148">
        <ele>1238</ele>
        <time>2014-06-28T07:44:56.000Z</time>
      </trkpt>
      <trkpt lat="45.14642" lon="5.65148">
        <ele>1238</ele>
        <time>2014-06-28T07:44:57.000Z</time>
      </trkpt>
      <trkpt lat="45.14642" lon="5.65148">
        <ele>1238</ele>
        <time>2014-06-28T07:44:58.000Z</time>
      </trkpt>
      <trkpt lat="45.14642" lon="5.65148">
        <ele>1238</ele>
        <time>2014-06-28T07:44:59.000Z</time>
      </trkpt>
      <trkpt lat="45.14642" lon="5.65148">
        <ele>1238</ele>
        <time>2014-06-28T07:45:00.000Z</time>
      </trkpt>
      <trkpt lat="45.14642" lon="5.65148">
        <ele>1238</ele>
        <time>2014-06-28T07:45:01.000Z</time>
      </trkpt>
      <trkpt lat="45.14642" lon="5.65148">
        <ele>1239</ele>
        <time>2014-06-28T07:45:02.000Z</time>
      </trkpt>
      <trkpt lat="45.14642" lon="5.65148">
        <ele>1239</ele>
        <time>2014-06-28T07:45:03.000Z</time>
      </trkpt>
      <trkpt lat="45.14642" lon="5.65148">
        <ele>1239</ele>
        <time>2014-06-28T07:45:04.000Z</time>
      </trkpt>
      <trkpt lat="45.14641" lon="5.65148">
        <ele>1239</ele>
        <time>2014-06-28T07:45:05.000Z</time>
      </trkpt>
      <trkpt lat="45.14641" lon="5.65148">
        <ele>1239</ele>
        <time>2014-06-28T07:45:06.000Z</time>
      </trkpt>
      <trkpt lat="45.14641" lon="5.65148">
        <ele>1239</ele>
        <time>2014-06-28T07:45:07.000Z</time>
      </trkpt>
      <trkpt lat="45.14641" lon="5.65148">
        <ele>1239</ele>
        <time>2014-06-28T07:45:08.000Z</time>
      </trkpt>
      <trkpt lat="45.14641" lon="5.65148">
        <ele>1239</ele>
        <time>2014-06-28T07:45:09.000Z</time>
      </trkpt>
      <trkpt lat="45.14641" lon="5.65148">
        <ele>1239</ele>
        <time>2014-06-28T07:45:10.000Z</time>
      </trkpt>
      <trkpt lat="45.14641" lon="5.65148">
        <ele>1239</ele>
        <time>2014-06-28T07:45:11.000Z</time>
      </trkpt>
      <trkpt lat="45.14641" lon="5.65148">
        <ele>1239</ele>
        <time>2014-06-28T07:45:12.000Z</time>
      </trkpt>
      <trkpt lat="45.14641" lon="5.65148">
        <ele>1239</ele>
        <time>2014-06-28T07:45:13.000Z</time>
      </trkpt>
      <trkpt lat="45.14641" lon="5.65148">
        <ele>1239</ele>
        <time>2014-06-28T07:45:14.000Z</time>
      </trkpt>
      <trkpt lat="45.14641" lon="5.65148">
        <ele>1239</ele>
        <time>2014-06-28T07:45:15.000Z</time>
      </trkpt>
      <trkpt lat="45.14641" lon="5.65148">
        <ele>1239</ele>
        <time>2014-06-28T07:45:16.000Z</time>
      </trkpt>
      <trkpt lat="45.14641" lon="5.65148">
        <ele>1239</ele>
        <time>2014-06-28T07:45:17.000Z</time>
      </trkpt>
      <trkpt lat="45.14641" lon="5.65148">
        <ele>1239</ele>
        <time>2014-06-28T07:45:18.000Z</time>
      </trkpt>
      <trkpt lat="45.14641" lon="5.65148">
        <ele>1239</ele>
        <time>2014-06-28T07:45:19.000Z</time>
      </trkpt>
      <trkpt lat="45.14641" lon="5.65148">
        <ele>1239</ele>
        <time>2014-06-28T07:45:20.000Z</time>
      </trkpt>
      <trkpt lat="45.14641" lon="5.65148">
        <ele>1239</ele>
        <time>2014-06-28T07:45:21.000Z</time>
      </trkpt>
      <trkpt lat="45.14641" lon="5.65148">
        <ele>1239</ele>
        <time>2014-06-28T07:45:22.000Z</time>
      </trkpt>
      <trkpt lat="45.14641" lon="5.65148">
        <ele>1239</ele>
        <time>2014-06-28T07:45:23.000Z</time>
      </trkpt>
      <trkpt lat="45.14641" lon="5.65148">
        <ele>1239</ele>
        <time>2014-06-28T07:45:24.000Z</time>
      </trkpt>
      <trkpt lat="45.14641" lon="5.65149">
        <ele>1239</ele>
        <time>2014-06-28T07:45:25.000Z</time>
      </trkpt>
      <trkpt lat="45.14641" lon="5.65149">
        <ele>1239</ele>
        <time>2014-06-28T07:45:26.000Z</time>
      </trkpt>
      <trkpt lat="45.14641" lon="5.65149">
        <ele>1239</ele>
        <time>2014-06-28T07:45:27.000Z</time>
      </trkpt>
      <trkpt lat="45.14641" lon="5.65148">
        <ele>1239</ele>
        <time>2014-06-28T07:45:28.000Z</time>
      </trkpt>
      <trkpt lat="45.14641" lon="5.65149">
        <ele>1239</ele>
        <time>2014-06-28T07:45:29.000Z</time>
      </trkpt>
      <trkpt lat="45.14641" lon="5.65149">
        <ele>1239</ele>
        <time>2014-06-28T07:45:30.000Z</time>
      </trkpt>
      <trkpt lat="45.14641" lon="5.65149">
        <ele>1239</ele>
        <time>2014-06-28T07:45:31.000Z</time>
      </trkpt>
      <trkpt lat="45.14641" lon="5.65149">
        <ele>1239</ele>
        <time>2014-06-28T07:45:32.000Z</time>
      </trkpt>
      <trkpt lat="45.14641" lon="5.65149">
        <ele>1239</ele>
        <time>2014-06-28T07:45:33.000Z</time>
      </trkpt>
      <trkpt lat="45.1464" lon="5.65149">
        <ele>1239</ele>
        <time>2014-06-28T07:45:34.000Z</time>
      </trkpt>
      <trkpt lat="45.1464" lon="5.65149">
        <ele>1239</ele>
        <time>2014-06-28T07:45:35.000Z</time>
      </trkpt>
      <trkpt lat="45.1464" lon="5.65149">
        <ele>1239</ele>
        <time>2014-06-28T07:45:36.000Z</time>
      </trkpt>
      <trkpt lat="45.1464" lon="5.65149">
        <ele>1239</ele>
        <time>2014-06-28T07:45:37.000Z</time>
      </trkpt>
      <trkpt lat="45.1464" lon="5.65149">
        <ele>1239</ele>
        <time>2014-06-28T07:45:38.000Z</time>
      </trkpt>
      <trkpt lat="45.1464" lon="5.65149">
        <ele>1239</ele>
        <time>2014-06-28T07:45:39.000Z</time>
      </trkpt>
      <trkpt lat="45.1464" lon="5.65149">
        <ele>1239</ele>
        <time>2014-06-28T07:45:40.000Z</time>
      </trkpt>
      <trkpt lat="45.1464" lon="5.65149">
        <ele>1239</ele>
        <time>2014-06-28T07:45:41.000Z</time>
      </trkpt>
      <trkpt lat="45.1464" lon="5.65149">
        <ele>1239</ele>
        <time>2014-06-28T07:45:42.000Z</time>
      </trkpt>
      <trkpt lat="45.1464" lon="5.65149">
        <ele>1239</ele>
        <time>2014-06-28T07:45:43.000Z</time>
      </trkpt>
      <trkpt lat="45.1464" lon="5.65149">
        <ele>1239</ele>
        <time>2014-06-28T07:45:44.000Z</time>
      </trkpt>
      <trkpt lat="45.1464" lon="5.65149">
        <ele>1239</ele>
        <time>2014-06-28T07:45:45.000Z</time>
      </trkpt>
      <trkpt lat="45.1464" lon="5.65149">
        <ele>1239</ele>
        <time>2014-06-28T07:45:46.000Z</time>
      </trkpt>
      <trkpt lat="45.1464" lon="5.65149">
        <ele>1239</ele>
        <time>2014-06-28T07:45:47.000Z</time>
      </trkpt>
      <trkpt lat="45.1464" lon="5.65149">
        <ele>1239</ele>
        <time>2014-06-28T07:45:48.000Z</time>
      </trkpt>
      <trkpt lat="45.1464" lon="5.65149">
        <ele>1240</ele>
        <time>2014-06-28T07:45:49.000Z</time>
      </trkpt>
      <trkpt lat="45.1464" lon="5.65149">
        <ele>1240</ele>
        <time>2014-06-28T07:45:50.000Z</time>
      </trkpt>
      <trkpt lat="45.1464" lon="5.65149">
        <ele>1240</ele>
        <time>2014-06-28T07:45:51.000Z</time>
      </trkpt>
      <trkpt lat="45.1464" lon="5.6515">
        <ele>1240</ele>
        <time>2014-06-28T07:45:52.000Z</time>
      </trkpt>
      <trkpt lat="45.1464" lon="5.6515">
        <ele>1240</ele>
        <time>2014-06-28T07:45:53.000Z</time>
      </trkpt>
      <trkpt lat="45.1464" lon="5.6515">
        <ele>1240</ele>
        <time>2014-06-28T07:45:54.000Z</time>
      </trkpt>
      <trkpt lat="45.1464" lon="5.6515">
        <ele>1240</ele>
        <time>2014-06-28T07:45:55.000Z</time>
      </trkpt>
      <trkpt lat="45.1464" lon="5.6515">
        <ele>1240</ele>
        <time>2014-06-28T07:45:56.000Z</time>
      </trkpt>
      <trkpt lat="45.1464" lon="5.6515">
        <ele>1240</ele>
        <time>2014-06-28T07:45:57.000Z</time>
      </trkpt>
      <trkpt lat="45.1464" lon="5.6515">
        <ele>1240</ele>
        <time>2014-06-28T07:45:58.000Z</time>
      </trkpt>
      <trkpt lat="45.1464" lon="5.6515">
        <ele>1240</ele>
        <time>2014-06-28T07:45:59.000Z</time>
      </trkpt>
      <trkpt lat="45.1464" lon="5.6515">
        <ele>1241</ele>
        <time>2014-06-28T07:46:00.000Z</time>
      </trkpt>
      <trkpt lat="45.1464" lon="5.6515">
        <ele>1241</ele>
        <time>2014-06-28T07:46:01.000Z</time>
      </trkpt>
      <trkpt lat="45.1464" lon="5.6515">
        <ele>1241</ele>
        <time>2014-06-28T07:46:02.000Z</time>
      </trkpt>
      <trkpt lat="45.1464" lon="5.6515">
        <ele>1241</ele>
        <time>2014-06-28T07:46:03.000Z</time>
      </trkpt>
      <trkpt lat="45.1464" lon="5.6515">
        <ele>1241</ele>
        <time>2014-06-28T07:46:04.000Z</time>
      </trkpt>
      <trkpt lat="45.1464" lon="5.6515">
        <ele>1241</ele>
        <time>2014-06-28T07:46:05.000Z</time>
      </trkpt>
      <trkpt lat="45.1464" lon="5.6515">
        <ele>1241</ele>
        <time>2014-06-28T07:46:06.000Z</time>
      </trkpt>
      <trkpt lat="45.1464" lon="5.6515">
        <ele>1241</ele>
        <time>2014-06-28T07:46:07.000Z</time>
      </trkpt>
      <trkpt lat="45.1464" lon="5.6515">
        <ele>1241</ele>
        <time>2014-06-28T07:46:08.000Z</time>
      </trkpt>
      <trkpt lat="45.1464" lon="5.6515">
        <ele>1241</ele>
        <time>2014-06-28T07:46:09.000Z</time>
      </trkpt>
      <trkpt lat="45.1464" lon="5.6515">
        <ele>1241</ele>
        <time>2014-06-28T07:46:10.000Z</time>
      </trkpt>
      <trkpt lat="45.1464" lon="5.6515">
        <ele>1241</ele>
        <time>2014-06-28T07:46:11.000Z</time>
      </trkpt>
      <trkpt lat="45.1464" lon="5.6515">
        <ele>1241</ele>
        <time>2014-06-28T07:46:12.000Z</time>
      </trkpt>
      <trkpt lat="45.1464" lon="5.6515">
        <ele>1241</ele>
        <time>2014-06-28T07:46:13.000Z</time>
      </trkpt>
      <trkpt lat="45.1464" lon="5.6515">
        <ele>1241</ele>
        <time>2014-06-28T07:46:14.000Z</time>
      </trkpt>
      <trkpt lat="45.1464" lon="5.6515">
        <ele>1241</ele>
        <time>2014-06-28T07:46:15.000Z</time>
      </trkpt>
      <trkpt lat="45.1464" lon="5.6515">
        <ele>1241</ele>
        <time>2014-06-28T07:46:16.000Z</time>
      </trkpt>
      <trkpt lat="45.1464" lon="5.6515">
        <ele>1241</ele>
        <time>2014-06-28T07:46:17.000Z</time>
      </trkpt>
      <trkpt lat="45.1464" lon="5.6515">
        <ele>1241</ele>
        <time>2014-06-28T07:46:18.000Z</time>
      </trkpt>
      <trkpt lat="45.1464" lon="5.65149">
        <ele>1242</ele>
        <time>2014-06-28T07:46:19.000Z</time>
      </trkpt>
      <trkpt lat="45.1464" lon="5.65149">
        <ele>1242</ele>
        <time>2014-06-28T07:46:20.000Z</time>
      </trkpt>
      <trkpt lat="45.1464" lon="5.6515">
        <ele>1242</ele>
        <time>2014-06-28T07:46:21.000Z</time>
      </trkpt>
      <trkpt lat="45.1464" lon="5.6515">
        <ele>1242</ele>
        <time>2014-06-28T07:46:22.000Z</time>
      </trkpt>
      <trkpt lat="45.1464" lon="5.65149">
        <ele>1242</ele>
        <time>2014-06-28T07:46:23.000Z</time>
      </trkpt>
      <trkpt lat="45.1464" lon="5.65149">
        <ele>1242</ele>
        <time>2014-06-28T07:46:24.000Z</time>
      </trkpt>
      <trkpt lat="45.1464" lon="5.65149">
        <ele>1242</ele>
        <time>2014-06-28T07:46:25.000Z</time>
      </trkpt>
      <trkpt lat="45.1464" lon="5.65149">
        <ele>1242</ele>
        <time>2014-06-28T07:46:26.000Z</time>
      </trkpt>
      <trkpt lat="45.1464" lon="5.65149">
        <ele>1242</ele>
        <time>2014-06-28T07:46:27.000Z</time>
      </trkpt>
      <trkpt lat="45.1464" lon="5.65149">
        <ele>1242</ele>
        <time>2014-06-28T07:46:28.000Z</time>
      </trkpt>
      <trkpt lat="45.14639" lon="5.65149">
        <ele>1242</ele>
        <time>2014-06-28T07:46:29.000Z</time>
      </trkpt>
      <trkpt lat="45.14639" lon="5.65149">
        <ele>1242</ele>
        <time>2014-06-28T07:46:30.000Z</time>
      </trkpt>
      <trkpt lat="45.14639" lon="5.65149">
        <ele>1242</ele>
        <time>2014-06-28T07:46:31.000Z</time>
      </trkpt>
      <trkpt lat="45.14639" lon="5.65149">
        <ele>1242</ele>
        <time>2014-06-28T07:46:32.000Z</time>
      </trkpt>
      <trkpt lat="45.14639" lon="5.65149">
        <ele>1242</ele>
        <time>2014-06-28T07:46:33.000Z</time>
      </trkpt>
      <trkpt lat="45.14639" lon="5.65149">
        <ele>1242</ele>
        <time>2014-06-28T07:46:34.000Z</time>
      </trkpt>
      <trkpt lat="45.14639" lon="5.65148">
        <ele>1242</ele>
        <time>2014-06-28T07:46:35.000Z</time>
      </trkpt>
      <trkpt lat="45.14639" lon="5.65148">
        <ele>1242</ele>
        <time>2014-06-28T07:46:36.000Z</time>
      </trkpt>
      <trkpt lat="45.14639" lon="5.65148">
        <ele>1242</ele>
        <time>2014-06-28T07:46:37.000Z</time>
      </trkpt>
      <trkpt lat="45.14639" lon="5.65148">
        <ele>1242</ele>
        <time>2014-06-28T07:46:38.000Z</time>
      </trkpt>
      <trkpt lat="45.14639" lon="5.65148">
        <ele>1242</ele>
        <time>2014-06-28T07:46:39.000Z</time>
      </trkpt>
      <trkpt lat="45.14639" lon="5.65148">
        <ele>1242</ele>
        <time>2014-06-28T07:46:40.000Z</time>
      </trkpt>
      <trkpt lat="45.14639" lon="5.65148">
        <ele>1242</ele>
        <time>2014-06-28T07:46:41.000Z</time>
      </trkpt>
      <trkpt lat="45.14639" lon="5.65148">
        <ele>1242</ele>
        <time>2014-06-28T07:46:42.000Z</time>
      </trkpt>
      <trkpt lat="45.14639" lon="5.65148">
        <ele>1242</ele>
        <time>2014-06-28T07:46:43.000Z</time>
      </trkpt>
      <trkpt lat="45.14639" lon="5.65148">
        <ele>1242</ele>
        <time>2014-06-28T07:46:44.000Z</time>
      </trkpt>
      <trkpt lat="45.14639" lon="5.65148">
        <ele>1242</ele>
        <time>2014-06-28T07:46:45.000Z</time>
      </trkpt>
      <trkpt lat="45.14639" lon="5.65148">
        <ele>1242</ele>
        <time>2014-06-28T07:46:46.000Z</time>
      </trkpt>
      <trkpt lat="45.14639" lon="5.65148">
        <ele>1242</ele>
        <time>2014-06-28T07:46:47.000Z</time>
      </trkpt>
      <trkpt lat="45.14639" lon="5.65148">
        <ele>1242</ele>
        <time>2014-06-28T07:46:48.000Z</time>
      </trkpt>
      <trkpt lat="45.14639" lon="5.65148">
        <ele>1242</ele>
        <time>2014-06-28T07:46:49.000Z</time>
      </trkpt>
      <trkpt lat="45.14639" lon="5.65148">
        <ele>1242</ele>
        <time>2014-06-28T07:46:50.000Z</time>
      </trkpt>
      <trkpt lat="45.14639" lon="5.65148">
        <ele>1242</ele>
        <time>2014-06-28T07:46:51.000Z</time>
      </trkpt>
      <trkpt lat="45.14639" lon="5.65148">
        <ele>1242</ele>
        <time>2014-06-28T07:46:52.000Z</time>
      </trkpt>
      <trkpt lat="45.14639" lon="5.65148">
        <ele>1242</ele>
        <time>2014-06-28T07:46:53.000Z</time>
      </trkpt>
      <trkpt lat="45.14639" lon="5.65149">
        <ele>1242</ele>
        <time>2014-06-28T07:46:54.000Z</time>
      </trkpt>
      <trkpt lat="45.14639" lon="5.65148">
        <ele>1242</ele>
        <time>2014-06-28T07:46:55.000Z</time>
      </trkpt>
      <trkpt lat="45.14639" lon="5.65148">
        <ele>1242</ele>
        <time>2014-06-28T07:46:56.000Z</time>
      </trkpt>
      <trkpt lat="45.14639" lon="5.65148">
        <ele>1242</ele>
        <time>2014-06-28T07:46:57.000Z</time>
      </trkpt>
      <trkpt lat="45.14639" lon="5.65149">
        <ele>1242</ele>
        <time>2014-06-28T07:46:58.000Z</time>
      </trkpt>
      <trkpt lat="45.14639" lon="5.65149">
        <ele>1242</ele>
        <time>2014-06-28T07:46:59.000Z</time>
      </trkpt>
      <trkpt lat="45.14639" lon="5.65149">
        <ele>1242</ele>
        <time>2014-06-28T07:47:00.000Z</time>
      </trkpt>
      <trkpt lat="45.14639" lon="5.65149">
        <ele>1241</ele>
        <time>2014-06-28T07:47:01.000Z</time>
      </trkpt>
      <trkpt lat="45.14639" lon="5.65149">
        <ele>1241</ele>
        <time>2014-06-28T07:47:02.000Z</time>
      </trkpt>
      <trkpt lat="45.14639" lon="5.6515">
        <ele>1241</ele>
        <time>2014-06-28T07:47:03.000Z</time>
      </trkpt>
      <trkpt lat="45.14639" lon="5.6515">
        <ele>1241</ele>
        <time>2014-06-28T07:47:04.000Z</time>
      </trkpt>
      <trkpt lat="45.14639" lon="5.6515">
        <ele>1241</ele>
        <time>2014-06-28T07:47:05.000Z</time>
      </trkpt>
      <trkpt lat="45.14639" lon="5.6515">
        <ele>1241</ele>
        <time>2014-06-28T07:47:06.000Z</time>
      </trkpt>
      <trkpt lat="45.14639" lon="5.6515">
        <ele>1241</ele>
        <time>2014-06-28T07:47:07.000Z</time>
      </trkpt>
      <trkpt lat="45.14639" lon="5.6515">
        <ele>1241</ele>
        <time>2014-06-28T07:47:08.000Z</time>
      </trkpt>
      <trkpt lat="45.14639" lon="5.6515">
        <ele>1241</ele>
        <time>2014-06-28T07:47:09.000Z</time>
      </trkpt>
      <trkpt lat="45.14639" lon="5.6515">
        <ele>1241</ele>
        <time>2014-06-28T07:47:10.000Z</time>
      </trkpt>
      <trkpt lat="45.14639" lon="5.6515">
        <ele>1241</ele>
        <time>2014-06-28T07:47:11.000Z</time>
      </trkpt>
      <trkpt lat="45.14639" lon="5.6515">
        <ele>1241</ele>
        <time>2014-06-28T07:47:12.000Z</time>
      </trkpt>
      <trkpt lat="45.1464" lon="5.65149">
        <ele>1241</ele>
        <time>2014-06-28T07:47:13.000Z</time>
      </trkpt>
      <trkpt lat="45.1464" lon="5.65149">
        <ele>1241</ele>
        <time>2014-06-28T07:47:14.000Z</time>
      </trkpt>
      <trkpt lat="45.1464" lon="5.65149">
        <ele>1241</ele>
        <time>2014-06-28T07:47:15.000Z</time>
      </trkpt>
      <trkpt lat="45.1464" lon="5.65149">
        <ele>1242</ele>
        <time>2014-06-28T07:47:16.000Z</time>
      </trkpt>
      <trkpt lat="45.1464" lon="5.65149">
        <ele>1242</ele>
        <time>2014-06-28T07:47:17.000Z</time>
      </trkpt>
      <trkpt lat="45.1464" lon="5.65149">
        <ele>1242</ele>
        <time>2014-06-28T07:47:18.000Z</time>
      </trkpt>
      <trkpt lat="45.1464" lon="5.65149">
        <ele>1242</ele>
        <time>2014-06-28T07:47:19.000Z</time>
      </trkpt>
      <trkpt lat="45.1464" lon="5.65149">
        <ele>1241</ele>
        <time>2014-06-28T07:47:20.000Z</time>
      </trkpt>
      <trkpt lat="45.1464" lon="5.65149">
        <ele>1242</ele>
        <time>2014-06-28T07:47:21.000Z</time>
      </trkpt>
      <trkpt lat="45.14641" lon="5.65149">
        <ele>1242</ele>
        <time>2014-06-28T07:47:22.000Z</time>
      </trkpt>
      <trkpt lat="45.14641" lon="5.65149">
        <ele>1242</ele>
        <time>2014-06-28T07:47:23.000Z</time>
      </trkpt>
      <trkpt lat="45.14641" lon="5.65149">
        <ele>1242</ele>
        <time>2014-06-28T07:47:24.000Z</time>
      </trkpt>
      <trkpt lat="45.14641" lon="5.65148">
        <ele>1241</ele>
        <time>2014-06-28T07:47:25.000Z</time>
      </trkpt>
      <trkpt lat="45.14641" lon="5.65148">
        <ele>1241</ele>
        <time>2014-06-28T07:47:26.000Z</time>
      </trkpt>
      <trkpt lat="45.14641" lon="5.65148">
        <ele>1241</ele>
        <time>2014-06-28T07:47:27.000Z</time>
      </trkpt>
      <trkpt lat="45.14641" lon="5.65148">
        <ele>1241</ele>
        <time>2014-06-28T07:47:28.000Z</time>
      </trkpt>
      <trkpt lat="45.14641" lon="5.65148">
        <ele>1241</ele>
        <time>2014-06-28T07:47:29.000Z</time>
      </trkpt>
      <trkpt lat="45.14641" lon="5.65148">
        <ele>1241</ele>
        <time>2014-06-28T07:47:30.000Z</time>
      </trkpt>
      <trkpt lat="45.14641" lon="5.65148">
        <ele>1241</ele>
        <time>2014-06-28T07:47:31.000Z</time>
      </trkpt>
      <trkpt lat="45.14641" lon="5.65148">
        <ele>1241</ele>
        <time>2014-06-28T07:47:32.000Z</time>
      </trkpt>
      <trkpt lat="45.14641" lon="5.65148">
        <ele>1241</ele>
        <time>2014-06-28T07:47:33.000Z</time>
      </trkpt>
      <trkpt lat="45.14642" lon="5.65148">
        <ele>1241</ele>
        <time>2014-06-28T07:47:34.000Z</time>
      </trkpt>
      <trkpt lat="45.14642" lon="5.65148">
        <ele>1241</ele>
        <time>2014-06-28T07:47:35.000Z</time>
      </trkpt>
      <trkpt lat="45.14642" lon="5.65148">
        <ele>1241</ele>
        <time>2014-06-28T07:47:36.000Z</time>
      </trkpt>
      <trkpt lat="45.14642" lon="5.65148">
        <ele>1241</ele>
        <time>2014-06-28T07:47:37.000Z</time>
      </trkpt>
      <trkpt lat="45.14642" lon="5.65148">
        <ele>1241</ele>
        <time>2014-06-28T07:47:38.000Z</time>
      </trkpt>
      <trkpt lat="45.14642" lon="5.65148">
        <ele>1241</ele>
        <time>2014-06-28T07:47:39.000Z</time>
      </trkpt>
      <trkpt lat="45.14642" lon="5.65148">
        <ele>1241</ele>
        <time>2014-06-28T07:47:40.000Z</time>
      </trkpt>
      <trkpt lat="45.14642" lon="5.65148">
        <ele>1241</ele>
        <time>2014-06-28T07:47:41.000Z</time>
      </trkpt>
      <trkpt lat="45.14642" lon="5.65148">
        <ele>1241</ele>
        <time>2014-06-28T07:47:42.000Z</time>
      </trkpt>
      <trkpt lat="45.14642" lon="5.65148">
        <ele>1241</ele>
        <time>2014-06-28T07:47:43.000Z</time>
      </trkpt>
      <trkpt lat="45.14642" lon="5.65148">
        <ele>1241</ele>
        <time>2014-06-28T07:47:44.000Z</time>
      </trkpt>
      <trkpt lat="45.14642" lon="5.65148">
        <ele>1241</ele>
        <time>2014-06-28T07:47:45.000Z</time>
      </trkpt>
      <trkpt lat="45.14642" lon="5.65148">
        <ele>1241</ele>
        <time>2014-06-28T07:47:46.000Z</time>
      </trkpt>
      <trkpt lat="45.14642" lon="5.65148">
        <ele>1241</ele>
        <time>2014-06-28T07:47:47.000Z</time>
      </trkpt>
      <trkpt lat="45.14642" lon="5.65148">
        <ele>1241</ele>
        <time>2014-06-28T07:47:48.000Z</time>
      </trkpt>
      <trkpt lat="45.14642" lon="5.65148">
        <ele>1241</ele>
        <time>2014-06-28T07:47:49.000Z</time>
      </trkpt>
      <trkpt lat="45.14642" lon="5.65148">
        <ele>1241</ele>
        <time>2014-06-28T07:47:50.000Z</time>
      </trkpt>
      <trkpt lat="45.14642" lon="5.65148">
        <ele>1241</ele>
        <time>2014-06-28T07:47:51.000Z</time>
      </trkpt>
      <trkpt lat="45.14643" lon="5.65148">
        <ele>1241</ele>
        <time>2014-06-28T07:47:52.000Z</time>
      </trkpt>
      <trkpt lat="45.14643" lon="5.65148">
        <ele>1241</ele>
        <time>2014-06-28T07:47:53.000Z</time>
      </trkpt>
      <trkpt lat="45.14643" lon="5.65148">
        <ele>1241</ele>
        <time>2014-06-28T07:47:54.000Z</time>
      </trkpt>
      <trkpt lat="45.14643" lon="5.65148">
        <ele>1241</ele>
        <time>2014-06-28T07:47:55.000Z</time>
      </trkpt>
      <trkpt lat="45.14643" lon="5.65148">
        <ele>1241</ele>
        <time>2014-06-28T07:47:56.000Z</time>
      </trkpt>
      <trkpt lat="45.14643" lon="5.65148">
        <ele>1240</ele>
        <time>2014-06-28T07:47:57.000Z</time>
      </trkpt>
      <trkpt lat="45.14643" lon="5.65148">
        <ele>1240</ele>
        <time>2014-06-28T07:47:58.000Z</time>
      </trkpt>
      <trkpt lat="45.14643" lon="5.65148">
        <ele>1240</ele>
        <time>2014-06-28T07:47:59.000Z</time>
      </trkpt>
      <trkpt lat="45.14643" lon="5.65148">
        <ele>1240</ele>
        <time>2014-06-28T07:48:00.000Z</time>
      </trkpt>
      <trkpt lat="45.14643" lon="5.65148">
        <ele>1240</ele>
        <time>2014-06-28T07:48:01.000Z</time>
      </trkpt>
      <trkpt lat="45.14643" lon="5.65148">
        <ele>1240</ele>
        <time>2014-06-28T07:48:02.000Z</time>
      </trkpt>
      <trkpt lat="45.14643" lon="5.65148">
        <ele>1240</ele>
        <time>2014-06-28T07:48:03.000Z</time>
      </trkpt>
      <trkpt lat="45.14643" lon="5.65148">
        <ele>1240</ele>
        <time>2014-06-28T07:48:04.000Z</time>
      </trkpt>
      <trkpt lat="45.14643" lon="5.65148">
        <ele>1240</ele>
        <time>2014-06-28T07:48:05.000Z</time>
      </trkpt>
      <trkpt lat="45.14643" lon="5.65148">
        <ele>1240</ele>
        <time>2014-06-28T07:48:06.000Z</time>
      </trkpt>
      <trkpt lat="45.14643" lon="5.65148">
        <ele>1240</ele>
        <time>2014-06-28T07:48:07.000Z</time>
      </trkpt>
      <trkpt lat="45.14643" lon="5.65148">
        <ele>1240</ele>
        <time>2014-06-28T07:48:08.000Z</time>
      </trkpt>
      <trkpt lat="45.14643" lon="5.65148">
        <ele>1240</ele>
        <time>2014-06-28T07:48:09.000Z</time>
      </trkpt>
      <trkpt lat="45.14643" lon="5.65147">
        <ele>1240</ele>
        <time>2014-06-28T07:48:10.000Z</time>
      </trkpt>
      <trkpt lat="45.14643" lon="5.65147">
        <ele>1240</ele>
        <time>2014-06-28T07:48:11.000Z</time>
      </trkpt>
      <trkpt lat="45.14643" lon="5.65147">
        <ele>1240</ele>
        <time>2014-06-28T07:48:12.000Z</time>
      </trkpt>
      <trkpt lat="45.14643" lon="5.65147">
        <ele>1240</ele>
        <time>2014-06-28T07:48:13.000Z</time>
      </trkpt>
      <trkpt lat="45.14643" lon="5.65147">
        <ele>1239</ele>
        <time>2014-06-28T07:48:14.000Z</time>
      </trkpt>
      <trkpt lat="45.14643" lon="5.65147">
        <ele>1239</ele>
        <time>2014-06-28T07:48:15.000Z</time>
      </trkpt>
      <trkpt lat="45.14643" lon="5.65148">
        <ele>1239</ele>
        <time>2014-06-28T07:48:16.000Z</time>
      </trkpt>
      <trkpt lat="45.14643" lon="5.65147">
        <ele>1239</ele>
        <time>2014-06-28T07:48:17.000Z</time>
      </trkpt>
      <trkpt lat="45.14643" lon="5.65148">
        <ele>1239</ele>
        <time>2014-06-28T07:48:18.000Z</time>
      </trkpt>
      <trkpt lat="45.14642" lon="5.65148">
        <ele>1239</ele>
        <time>2014-06-28T07:48:19.000Z</time>
      </trkpt>
      <trkpt lat="45.14642" lon="5.65148">
        <ele>1239</ele>
        <time>2014-06-28T07:48:20.000Z</time>
      </trkpt>
      <trkpt lat="45.14642" lon="5.65148">
        <ele>1239</ele>
        <time>2014-06-28T07:48:21.000Z</time>
      </trkpt>
      <trkpt lat="45.14642" lon="5.65148">
        <ele>1239</ele>
        <time>2014-06-28T07:48:22.000Z</time>
      </trkpt>
      <trkpt lat="45.14642" lon="5.65148">
        <ele>1239</ele>
        <time>2014-06-28T07:48:23.000Z</time>
      </trkpt>
      <trkpt lat="45.14642" lon="5.65148">
        <ele>1239</ele>
        <time>2014-06-28T07:48:24.000Z</time>
      </trkpt>
      <trkpt lat="45.14642" lon="5.65148">
        <ele>1239</ele>
        <time>2014-06-28T07:48:25.000Z</time>
      </trkpt>
      <trkpt lat="45.14642" lon="5.65148">
        <ele>1239</ele>
        <time>2014-06-28T07:48:26.000Z</time>
      </trkpt>
      <trkpt lat="45.14642" lon="5.65148">
        <ele>1239</ele>
        <time>2014-06-28T07:48:27.000Z</time>
      </trkpt>
      <trkpt lat="45.14642" lon="5.65148">
        <ele>1239</ele>
        <time>2014-06-28T07:48:28.000Z</time>
      </trkpt>
      <trkpt lat="45.14642" lon="5.65148">
        <ele>1239</ele>
        <time>2014-06-28T07:48:29.000Z</time>
      </trkpt>
      <trkpt lat="45.14642" lon="5.65148">
        <ele>1239</ele>
        <time>2014-06-28T07:48:30.000Z</time>
      </trkpt>
      <trkpt lat="45.14642" lon="5.65148">
        <ele>1239</ele>
        <time>2014-06-28T07:48:31.000Z</time>
      </trkpt>
      <trkpt lat="45.14642" lon="5.65148">
        <ele>1239</ele>
        <time>2014-06-28T07:48:32.000Z</time>
      </trkpt>
      <trkpt lat="45.14642" lon="5.65148">
        <ele>1239</ele>
        <time>2014-06-28T07:48:33.000Z</time>
      </trkpt>
      <trkpt lat="45.14642" lon="5.65147">
        <ele>1239</ele>
        <time>2014-06-28T07:48:34.000Z</time>
      </trkpt>
      <trkpt lat="45.14642" lon="5.65147">
        <ele>1239</ele>
        <time>2014-06-28T07:48:35.000Z</time>
      </trkpt>
      <trkpt lat="45.14642" lon="5.65146">
        <ele>1239</ele>
        <time>2014-06-28T07:48:36.000Z</time>
      </trkpt>
      <trkpt lat="45.14642" lon="5.65146">
        <ele>1239</ele>
        <time>2014-06-28T07:48:37.000Z</time>
      </trkpt>
      <trkpt lat="45.14642" lon="5.65145">
        <ele>1239</ele>
        <time>2014-06-28T07:48:38.000Z</time>
      </trkpt>
      <trkpt lat="45.14643" lon="5.65144">
        <ele>1239</ele>
        <time>2014-06-28T07:48:39.000Z</time>
      </trkpt>
      <trkpt lat="45.14643" lon="5.65144">
        <ele>1239</ele>
        <time>2014-06-28T07:48:40.000Z</time>
      </trkpt>
      <trkpt lat="45.14643" lon="5.65144">
        <ele>1239</ele>
        <time>2014-06-28T07:48:41.000Z</time>
      </trkpt>
      <trkpt lat="45.14643" lon="5.65144">
        <ele>1239</ele>
        <time>2014-06-28T07:48:42.000Z</time>
      </trkpt>
      <trkpt lat="45.14643" lon="5.65143">
        <ele>1239</ele>
        <time>2014-06-28T07:48:43.000Z</time>
      </trkpt>
      <trkpt lat="45.14643" lon="5.65143">
        <ele>1240</ele>
        <time>2014-06-28T07:48:44.000Z</time>
      </trkpt>
      <trkpt lat="45.14643" lon="5.65143">
        <ele>1240</ele>
        <time>2014-06-28T07:48:45.000Z</time>
      </trkpt>
      <trkpt lat="45.14643" lon="5.65143">
        <ele>1240</ele>
        <time>2014-06-28T07:48:46.000Z</time>
      </trkpt>
      <trkpt lat="45.14643" lon="5.65143">
        <ele>1240</ele>
        <time>2014-06-28T07:48:47.000Z</time>
      </trkpt>
      <trkpt lat="45.14643" lon="5.65143">
        <ele>1240</ele>
        <time>2014-06-28T07:48:48.000Z</time>
      </trkpt>
      <trkpt lat="45.14643" lon="5.65143">
        <ele>1240</ele>
        <time>2014-06-28T07:48:49.000Z</time>
      </trkpt>
      <trkpt lat="45.14642" lon="5.65143">
        <ele>1240</ele>
        <time>2014-06-28T07:48:50.000Z</time>
      </trkpt>
      <trkpt lat="45.14642" lon="5.65144">
        <ele>1240</ele>
        <time>2014-06-28T07:48:51.000Z</time>
      </trkpt>
      <trkpt lat="45.14642" lon="5.65144">
        <ele>1240</ele>
        <time>2014-06-28T07:48:52.000Z</time>
      </trkpt>
      <trkpt lat="45.14642" lon="5.65144">
        <ele>1240</ele>
        <time>2014-06-28T07:48:53.000Z</time>
      </trkpt>
      <trkpt lat="45.14642" lon="5.65144">
        <ele>1240</ele>
        <time>2014-06-28T07:48:54.000Z</time>
      </trkpt>
      <trkpt lat="45.14642" lon="5.65144">
        <ele>1240</ele>
        <time>2014-06-28T07:48:55.000Z</time>
      </trkpt>
      <trkpt lat="45.14642" lon="5.65144">
        <ele>1240</ele>
        <time>2014-06-28T07:48:56.000Z</time>
      </trkpt>
      <trkpt lat="45.14642" lon="5.65144">
        <ele>1240</ele>
        <time>2014-06-28T07:48:57.000Z</time>
      </trkpt>
      <trkpt lat="45.14642" lon="5.65144">
        <ele>1240</ele>
        <time>2014-06-28T07:48:58.000Z</time>
      </trkpt>
      <trkpt lat="45.14642" lon="5.65143">
        <ele>1240</ele>
        <time>2014-06-28T07:48:59.000Z</time>
      </trkpt>
      <trkpt lat="45.14643" lon="5.65143">
        <ele>1240</ele>
        <time>2014-06-28T07:49:00.000Z</time>
      </trkpt>
      <trkpt lat="45.14643" lon="5.65143">
        <ele>1240</ele>
        <time>2014-06-28T07:49:01.000Z</time>
      </trkpt>
      <trkpt lat="45.14643" lon="5.65143">
        <ele>1241</ele>
        <time>2014-06-28T07:49:02.000Z</time>
      </trkpt>
      <trkpt lat="45.14643" lon="5.65143">
        <ele>1241</ele>
        <time>2014-06-28T07:49:03.000Z</time>
      </trkpt>
      <trkpt lat="45.14643" lon="5.65142">
        <ele>1241</ele>
        <time>2014-06-28T07:49:04.000Z</time>
      </trkpt>
      <trkpt lat="45.14643" lon="5.65142">
        <ele>1241</ele>
        <time>2014-06-28T07:49:05.000Z</time>
      </trkpt>
      <trkpt lat="45.14643" lon="5.65141">
        <ele>1241</ele>
        <time>2014-06-28T07:49:06.000Z</time>
      </trkpt>
      <trkpt lat="45.14644" lon="5.6514">
        <ele>1241</ele>
        <time>2014-06-28T07:49:07.000Z</time>
      </trkpt>
      <trkpt lat="45.14644" lon="5.65139">
        <ele>1241</ele>
        <time>2014-06-28T07:49:08.000Z</time>
      </trkpt>
      <trkpt lat="45.14644" lon="5.65138">
        <ele>1241</ele>
        <time>2014-06-28T07:49:09.000Z</time>
      </trkpt>
      <trkpt lat="45.14645" lon="5.65137">
        <ele>1241</ele>
        <time>2014-06-28T07:49:10.000Z</time>
      </trkpt>
      <trkpt lat="45.14646" lon="5.65136">
        <ele>1241</ele>
        <time>2014-06-28T07:49:11.000Z</time>
      </trkpt>
      <trkpt lat="45.14646" lon="5.65135">
        <ele>1241</ele>
        <time>2014-06-28T07:49:12.000Z</time>
      </trkpt>
      <trkpt lat="45.14647" lon="5.65134">
        <ele>1241</ele>
        <time>2014-06-28T07:49:13.000Z</time>
      </trkpt>
      <trkpt lat="45.14648" lon="5.65133">
        <ele>1241</ele>
        <time>2014-06-28T07:49:14.000Z</time>
      </trkpt>
      <trkpt lat="45.14649" lon="5.65132">
        <ele>1241</ele>
        <time>2014-06-28T07:49:15.000Z</time>
      </trkpt>
      <trkpt lat="45.1465" lon="5.65131">
        <ele>1241</ele>
        <time>2014-06-28T07:49:16.000Z</time>
      </trkpt>
      <trkpt lat="45.14651" lon="5.6513">
        <ele>1241</ele>
        <time>2014-06-28T07:49:17.000Z</time>
      </trkpt>
      <trkpt lat="45.14651" lon="5.65129">
        <ele>1241</ele>
        <time>2014-06-28T07:49:18.000Z</time>
      </trkpt>
      <trkpt lat="45.14652" lon="5.65127">
        <ele>1241</ele>
        <time>2014-06-28T07:49:19.000Z</time>
      </trkpt>
      <trkpt lat="45.14653" lon="5.65126">
        <ele>1241</ele>
        <time>2014-06-28T07:49:20.000Z</time>
      </trkpt>
      <trkpt lat="45.14654" lon="5.65125">
        <ele>1241</ele>
        <time>2014-06-28T07:49:21.000Z</time>
      </trkpt>
      <trkpt lat="45.14655" lon="5.65123">
        <ele>1241</ele>
        <time>2014-06-28T07:49:22.000Z</time>
      </trkpt>
      <trkpt lat="45.14655" lon="5.65122">
        <ele>1241</ele>
        <time>2014-06-28T07:49:23.000Z</time>
      </trkpt>
      <trkpt lat="45.14656" lon="5.6512">
        <ele>1242</ele>
        <time>2014-06-28T07:49:24.000Z</time>
      </trkpt>
      <trkpt lat="45.14657" lon="5.65118">
        <ele>1242</ele>
        <time>2014-06-28T07:49:25.000Z</time>
      </trkpt>
      <trkpt lat="45.14658" lon="5.65116">
        <ele>1242</ele>
        <time>2014-06-28T07:49:26.000Z</time>
      </trkpt>
      <trkpt lat="45.14659" lon="5.65114">
        <ele>1242</ele>
        <time>2014-06-28T07:49:27.000Z</time>
      </trkpt>
      <trkpt lat="45.1466" lon="5.65112">
        <ele>1242</ele>
        <time>2014-06-28T07:49:28.000Z</time>
      </trkpt>
      <trkpt lat="45.1466" lon="5.6511">
        <ele>1242</ele>
        <time>2014-06-28T07:49:29.000Z</time>
      </trkpt>
      <trkpt lat="45.14661" lon="5.65108">
        <ele>1242</ele>
        <time>2014-06-28T07:49:30.000Z</time>
      </trkpt>
      <trkpt lat="45.14661" lon="5.65107">
        <ele>1242</ele>
        <time>2014-06-28T07:49:31.000Z</time>
      </trkpt>
      <trkpt lat="45.14661" lon="5.65105">
        <ele>1243</ele>
        <time>2014-06-28T07:49:32.000Z</time>
      </trkpt>
      <trkpt lat="45.14662" lon="5.65103">
        <ele>1243</ele>
        <time>2014-06-28T07:49:33.000Z</time>
      </trkpt>
      <trkpt lat="45.14662" lon="5.65102">
        <ele>1243</ele>
        <time>2014-06-28T07:49:34.000Z</time>
      </trkpt>
      <trkpt lat="45.14662" lon="5.651">
        <ele>1244</ele>
        <time>2014-06-28T07:49:35.000Z</time>
      </trkpt>
      <trkpt lat="45.14663" lon="5.65099">
        <ele>1244</ele>
        <time>2014-06-28T07:49:36.000Z</time>
      </trkpt>
      <trkpt lat="45.14663" lon="5.65098">
        <ele>1244</ele>
        <time>2014-06-28T07:49:37.000Z</time>
      </trkpt>
      <trkpt lat="45.14664" lon="5.65097">
        <ele>1245</ele>
        <time>2014-06-28T07:49:38.000Z</time>
      </trkpt>
      <trkpt lat="45.14664" lon="5.65095">
        <ele>1245</ele>
        <time>2014-06-28T07:49:39.000Z</time>
      </trkpt>
      <trkpt lat="45.14665" lon="5.65094">
        <ele>1245</ele>
        <time>2014-06-28T07:49:40.000Z</time>
      </trkpt>
      <trkpt lat="45.14666" lon="5.65092">
        <ele>1246</ele>
        <time>2014-06-28T07:49:41.000Z</time>
      </trkpt>
      <trkpt lat="45.14666" lon="5.65091">
        <ele>1246</ele>
        <time>2014-06-28T07:49:42.000Z</time>
      </trkpt>
      <trkpt lat="45.14667" lon="5.65089">
        <ele>1246</ele>
        <time>2014-06-28T07:49:43.000Z</time>
      </trkpt>
      <trkpt lat="45.14667" lon="5.65088">
        <ele>1246</ele>
        <time>2014-06-28T07:49:44.000Z</time>
      </trkpt>
      <trkpt lat="45.14668" lon="5.65086">
        <ele>1247</ele>
        <time>2014-06-28T07:49:45.000Z</time>
      </trkpt>
      <trkpt lat="45.14669" lon="5.65085">
        <ele>1247</ele>
        <time>2014-06-28T07:49:46.000Z</time>
      </trkpt>
      <trkpt lat="45.1467" lon="5.65083">
        <ele>1247</ele>
        <time>2014-06-28T07:49:47.000Z</time>
      </trkpt>
      <trkpt lat="45.14671" lon="5.65081">
        <ele>1247</ele>
        <time>2014-06-28T07:49:48.000Z</time>
      </trkpt>
      <trkpt lat="45.14672" lon="5.65079">
        <ele>1247</ele>
        <time>2014-06-28T07:49:49.000Z</time>
      </trkpt>
      <trkpt lat="45.14673" lon="5.65077">
        <ele>1248</ele>
        <time>2014-06-28T07:49:50.000Z</time>
      </trkpt>
      <trkpt lat="45.14674" lon="5.65075">
        <ele>1248</ele>
        <time>2014-06-28T07:49:51.000Z</time>
      </trkpt>
      <trkpt lat="45.14675" lon="5.65073">
        <ele>1248</ele>
        <time>2014-06-28T07:49:52.000Z</time>
      </trkpt>
      <trkpt lat="45.14676" lon="5.65071">
        <ele>1248</ele>
        <time>2014-06-28T07:49:53.000Z</time>
      </trkpt>
      <trkpt lat="45.14677" lon="5.6507">
        <ele>1248</ele>
        <time>2014-06-28T07:49:54.000Z</time>
      </trkpt>
      <trkpt lat="45.14678" lon="5.65068">
        <ele>1248</ele>
        <time>2014-06-28T07:49:55.000Z</time>
      </trkpt>
      <trkpt lat="45.14679" lon="5.65067">
        <ele>1249</ele>
        <time>2014-06-28T07:49:56.000Z</time>
      </trkpt>
      <trkpt lat="45.14679" lon="5.65066">
        <ele>1249</ele>
        <time>2014-06-28T07:49:57.000Z</time>
      </trkpt>
      <trkpt lat="45.14679" lon="5.65064">
        <ele>1249</ele>
        <time>2014-06-28T07:49:58.000Z</time>
      </trkpt>
      <trkpt lat="45.1468" lon="5.65063">
        <ele>1249</ele>
        <time>2014-06-28T07:49:59.000Z</time>
      </trkpt>
      <trkpt lat="45.1468" lon="5.65062">
        <ele>1249</ele>
        <time>2014-06-28T07:50:00.000Z</time>
      </trkpt>
      <trkpt lat="45.1468" lon="5.6506">
        <ele>1250</ele>
        <time>2014-06-28T07:50:01.000Z</time>
      </trkpt>
      <trkpt lat="45.14681" lon="5.65059">
        <ele>1250</ele>
        <time>2014-06-28T07:50:02.000Z</time>
      </trkpt>
      <trkpt lat="45.14681" lon="5.65058">
        <ele>1250</ele>
        <time>2014-06-28T07:50:03.000Z</time>
      </trkpt>
      <trkpt lat="45.14682" lon="5.65056">
        <ele>1251</ele>
        <time>2014-06-28T07:50:04.000Z</time>
      </trkpt>
      <trkpt lat="45.14682" lon="5.65055">
        <ele>1251</ele>
        <time>2014-06-28T07:50:05.000Z</time>
      </trkpt>
      <trkpt lat="45.14681" lon="5.65053">
        <ele>1251</ele>
        <time>2014-06-28T07:50:06.000Z</time>
      </trkpt>
      <trkpt lat="45.14681" lon="5.65052">
        <ele>1252</ele>
        <time>2014-06-28T07:50:07.000Z</time>
      </trkpt>
      <trkpt lat="45.1468" lon="5.65051">
        <ele>1252</ele>
        <time>2014-06-28T07:50:08.000Z</time>
      </trkpt>
      <trkpt lat="45.1468" lon="5.65049">
        <ele>1253</ele>
        <time>2014-06-28T07:50:09.000Z</time>
      </trkpt>
      <trkpt lat="45.14679" lon="5.65048">
        <ele>1253</ele>
        <time>2014-06-28T07:50:10.000Z</time>
      </trkpt>
      <trkpt lat="45.14679" lon="5.65047">
        <ele>1254</ele>
        <time>2014-06-28T07:50:11.000Z</time>
      </trkpt>
      <trkpt lat="45.14678" lon="5.65047">
        <ele>1254</ele>
        <time>2014-06-28T07:50:12.000Z</time>
      </trkpt>
      <trkpt lat="45.14677" lon="5.65046">
        <ele>1255</ele>
        <time>2014-06-28T07:50:13.000Z</time>
      </trkpt>
      <trkpt lat="45.14677" lon="5.65046">
        <ele>1256</ele>
        <time>2014-06-28T07:50:14.000Z</time>
      </trkpt>
      <trkpt lat="45.14676" lon="5.65046">
        <ele>1256</ele>
        <time>2014-06-28T07:50:15.000Z</time>
      </trkpt>
      <trkpt lat="45.14674" lon="5.65046">
        <ele>1257</ele>
        <time>2014-06-28T07:50:16.000Z</time>
      </trkpt>
      <trkpt lat="45.14673" lon="5.65046">
        <ele>1258</ele>
        <time>2014-06-28T07:50:17.000Z</time>
      </trkpt>
      <trkpt lat="45.14672" lon="5.65046">
        <ele>1259</ele>
        <time>2014-06-28T07:50:18.000Z</time>
      </trkpt>
      <trkpt lat="45.14671" lon="5.65045">
        <ele>1259</ele>
        <time>2014-06-28T07:50:19.000Z</time>
      </trkpt>
      <trkpt lat="45.1467" lon="5.65045">
        <ele>1260</ele>
        <time>2014-06-28T07:50:20.000Z</time>
      </trkpt>
      <trkpt lat="45.1467" lon="5.65045">
        <ele>1261</ele>
        <time>2014-06-28T07:50:21.000Z</time>
      </trkpt>
      <trkpt lat="45.14669" lon="5.65045">
        <ele>1261</ele>
        <time>2014-06-28T07:50:22.000Z</time>
      </trkpt>
      <trkpt lat="45.14668" lon="5.65045">
        <ele>1262</ele>
        <time>2014-06-28T07:50:23.000Z</time>
      </trkpt>
      <trkpt lat="45.14667" lon="5.65045">
        <ele>1262</ele>
        <time>2014-06-28T07:50:24.000Z</time>
      </trkpt>
      <trkpt lat="45.14666" lon="5.65045">
        <ele>1263</ele>
        <time>2014-06-28T07:50:25.000Z</time>
      </trkpt>
      <trkpt lat="45.14665" lon="5.65045">
        <ele>1263</ele>
        <time>2014-06-28T07:50:26.000Z</time>
      </trkpt>
      <trkpt lat="45.14664" lon="5.65045">
        <ele>1264</ele>
        <time>2014-06-28T07:50:27.000Z</time>
      </trkpt>
      <trkpt lat="45.14663" lon="5.65045">
        <ele>1265</ele>
        <time>2014-06-28T07:50:28.000Z</time>
      </trkpt>
      <trkpt lat="45.14662" lon="5.65045">
        <ele>1265</ele>
        <time>2014-06-28T07:50:29.000Z</time>
      </trkpt>
      <trkpt lat="45.14661" lon="5.65045">
        <ele>1266</ele>
        <time>2014-06-28T07:50:30.000Z</time>
      </trkpt>
      <trkpt lat="45.1466" lon="5.65046">
        <ele>1266</ele>
        <time>2014-06-28T07:50:31.000Z</time>
      </trkpt>
      <trkpt lat="45.14659" lon="5.65046">
        <ele>1267</ele>
        <time>2014-06-28T07:50:32.000Z</time>
      </trkpt>
      <trkpt lat="45.14658" lon="5.65046">
        <ele>1267</ele>
        <time>2014-06-28T07:50:33.000Z</time>
      </trkpt>
      <trkpt lat="45.14657" lon="5.65046">
        <ele>1268</ele>
        <time>2014-06-28T07:50:34.000Z</time>
      </trkpt>
      <trkpt lat="45.14656" lon="5.65047">
        <ele>1268</ele>
        <time>2014-06-28T07:50:35.000Z</time>
      </trkpt>
      <trkpt lat="45.14654" lon="5.65047">
        <ele>1269</ele>
        <time>2014-06-28T07:50:36.000Z</time>
      </trkpt>
      <trkpt lat="45.14653" lon="5.65048">
        <ele>1269</ele>
        <time>2014-06-28T07:50:37.000Z</time>
      </trkpt>
      <trkpt lat="45.14651" lon="5.65048">
        <ele>1270</ele>
        <time>2014-06-28T07:50:38.000Z</time>
      </trkpt>
      <trkpt lat="45.1465" lon="5.65048">
        <ele>1270</ele>
        <time>2014-06-28T07:50:39.000Z</time>
      </trkpt>
      <trkpt lat="45.14649" lon="5.65048">
        <ele>1271</ele>
        <time>2014-06-28T07:50:40.000Z</time>
      </trkpt>
      <trkpt lat="45.14647" lon="5.65049">
        <ele>1271</ele>
        <time>2014-06-28T07:50:41.000Z</time>
      </trkpt>
      <trkpt lat="45.14646" lon="5.65049">
        <ele>1272</ele>
        <time>2014-06-28T07:50:42.000Z</time>
      </trkpt>
      <trkpt lat="45.14645" lon="5.65049">
        <ele>1272</ele>
        <time>2014-06-28T07:50:43.000Z</time>
      </trkpt>
      <trkpt lat="45.14643" lon="5.65049">
        <ele>1272</ele>
        <time>2014-06-28T07:50:44.000Z</time>
      </trkpt>
      <trkpt lat="45.14642" lon="5.6505">
        <ele>1273</ele>
        <time>2014-06-28T07:50:45.000Z</time>
      </trkpt>
      <trkpt lat="45.14641" lon="5.6505">
        <ele>1274</ele>
        <time>2014-06-28T07:50:46.000Z</time>
      </trkpt>
      <trkpt lat="45.1464" lon="5.65051">
        <ele>1274</ele>
        <time>2014-06-28T07:50:47.000Z</time>
      </trkpt>
      <trkpt lat="45.14639" lon="5.65052">
        <ele>1275</ele>
        <time>2014-06-28T07:50:48.000Z</time>
      </trkpt>
      <trkpt lat="45.14638" lon="5.65052">
        <ele>1275</ele>
        <time>2014-06-28T07:50:49.000Z</time>
      </trkpt>
      <trkpt lat="45.14636" lon="5.65053">
        <ele>1276</ele>
        <time>2014-06-28T07:50:50.000Z</time>
      </trkpt>
      <trkpt lat="45.14635" lon="5.65053">
        <ele>1276</ele>
        <time>2014-06-28T07:50:51.000Z</time>
      </trkpt>
      <trkpt lat="45.14633" lon="5.65054">
        <ele>1276</ele>
        <time>2014-06-28T07:50:52.000Z</time>
      </trkpt>
      <trkpt lat="45.14632" lon="5.65054">
        <ele>1277</ele>
        <time>2014-06-28T07:50:53.000Z</time>
      </trkpt>
      <trkpt lat="45.14631" lon="5.65054">
        <ele>1277</ele>
        <time>2014-06-28T07:50:54.000Z</time>
      </trkpt>
      <trkpt lat="45.1463" lon="5.65054">
        <ele>1277</ele>
        <time>2014-06-28T07:50:55.000Z</time>
      </trkpt>
      <trkpt lat="45.14629" lon="5.65053">
        <ele>1277</ele>
        <time>2014-06-28T07:50:56.000Z</time>
      </trkpt>
      <trkpt lat="45.14628" lon="5.65053">
        <ele>1277</ele>
        <time>2014-06-28T07:50:57.000Z</time>
      </trkpt>
      <trkpt lat="45.14628" lon="5.65052">
        <ele>1277</ele>
        <time>2014-06-28T07:50:58.000Z</time>
      </trkpt>
      <trkpt lat="45.14628" lon="5.65052">
        <ele>1277</ele>
        <time>2014-06-28T07:50:59.000Z</time>
      </trkpt>
      <trkpt lat="45.14628" lon="5.65051">
        <ele>1277</ele>
        <time>2014-06-28T07:51:00.000Z</time>
      </trkpt>
      <trkpt lat="45.14629" lon="5.65051">
        <ele>1277</ele>
        <time>2014-06-28T07:51:01.000Z</time>
      </trkpt>
      <trkpt lat="45.14629" lon="5.6505">
        <ele>1277</ele>
        <time>2014-06-28T07:51:02.000Z</time>
      </trkpt>
      <trkpt lat="45.1463" lon="5.65049">
        <ele>1277</ele>
        <time>2014-06-28T07:51:03.000Z</time>
      </trkpt>
      <trkpt lat="45.1463" lon="5.65048">
        <ele>1277</ele>
        <time>2014-06-28T07:51:04.000Z</time>
      </trkpt>
      <trkpt lat="45.14631" lon="5.65047">
        <ele>1277</ele>
        <time>2014-06-28T07:51:05.000Z</time>
      </trkpt>
      <trkpt lat="45.14632" lon="5.65046">
        <ele>1278</ele>
        <time>2014-06-28T07:51:06.000Z</time>
      </trkpt>
      <trkpt lat="45.14632" lon="5.65045">
        <ele>1278</ele>
        <time>2014-06-28T07:51:07.000Z</time>
      </trkpt>
      <trkpt lat="45.14633" lon="5.65044">
        <ele>1278</ele>
        <time>2014-06-28T07:51:08.000Z</time>
      </trkpt>
      <trkpt lat="45.14633" lon="5.65043">
        <ele>1278</ele>
        <time>2014-06-28T07:51:09.000Z</time>
      </trkpt>
      <trkpt lat="45.14634" lon="5.65042">
        <ele>1278</ele>
        <time>2014-06-28T07:51:10.000Z</time>
      </trkpt>
      <trkpt lat="45.14635" lon="5.65041">
        <ele>1278</ele>
        <time>2014-06-28T07:51:11.000Z</time>
      </trkpt>
      <trkpt lat="45.14635" lon="5.6504">
        <ele>1278</ele>
        <time>2014-06-28T07:51:12.000Z</time>
      </trkpt>
      <trkpt lat="45.14635" lon="5.65039">
        <ele>1278</ele>
        <time>2014-06-28T07:51:13.000Z</time>
      </trkpt>
      <trkpt lat="45.14635" lon="5.65039">
        <ele>1278</ele>
        <time>2014-06-28T07:51:14.000Z</time>
      </trkpt>
      <trkpt lat="45.14636" lon="5.65038">
        <ele>1278</ele>
        <time>2014-06-28T07:51:15.000Z</time>
      </trkpt>
      <trkpt lat="45.14636" lon="5.65036">
        <ele>1278</ele>
        <time>2014-06-28T07:51:16.000Z</time>
      </trkpt>
      <trkpt lat="45.14637" lon="5.65035">
        <ele>1278</ele>
        <time>2014-06-28T07:51:17.000Z</time>
      </trkpt>
      <trkpt lat="45.14637" lon="5.65034">
        <ele>1278</ele>
        <time>2014-06-28T07:51:18.000Z</time>
      </trkpt>
      <trkpt lat="45.14638" lon="5.65033">
        <ele>1278</ele>
        <time>2014-06-28T07:51:19.000Z</time>
      </trkpt>
      <trkpt lat="45.14638" lon="5.65032">
        <ele>1278</ele>
        <time>2014-06-28T07:51:20.000Z</time>
      </trkpt>
      <trkpt lat="45.14639" lon="5.65031">
        <ele>1278</ele>
        <time>2014-06-28T07:51:21.000Z</time>
      </trkpt>
      <trkpt lat="45.1464" lon="5.6503">
        <ele>1278</ele>
        <time>2014-06-28T07:51:22.000Z</time>
      </trkpt>
      <trkpt lat="45.1464" lon="5.65029">
        <ele>1278</ele>
        <time>2014-06-28T07:51:23.000Z</time>
      </trkpt>
      <trkpt lat="45.14641" lon="5.65028">
        <ele>1278</ele>
        <time>2014-06-28T07:51:24.000Z</time>
      </trkpt>
      <trkpt lat="45.14642" lon="5.65026">
        <ele>1278</ele>
        <time>2014-06-28T07:51:25.000Z</time>
      </trkpt>
      <trkpt lat="45.14643" lon="5.65025">
        <ele>1279</ele>
        <time>2014-06-28T07:51:26.000Z</time>
      </trkpt>
      <trkpt lat="45.14643" lon="5.65024">
        <ele>1279</ele>
        <time>2014-06-28T07:51:27.000Z</time>
      </trkpt>
      <trkpt lat="45.14644" lon="5.65023">
        <ele>1279</ele>
        <time>2014-06-28T07:51:28.000Z</time>
      </trkpt>
      <trkpt lat="45.14644" lon="5.65022">
        <ele>1279</ele>
        <time>2014-06-28T07:51:29.000Z</time>
      </trkpt>
      <trkpt lat="45.14644" lon="5.6502">
        <ele>1279</ele>
        <time>2014-06-28T07:51:30.000Z</time>
      </trkpt>
      <trkpt lat="45.14644" lon="5.65019">
        <ele>1279</ele>
        <time>2014-06-28T07:51:31.000Z</time>
      </trkpt>
      <trkpt lat="45.14645" lon="5.65018">
        <ele>1279</ele>
        <time>2014-06-28T07:51:32.000Z</time>
      </trkpt>
      <trkpt lat="45.14645" lon="5.65017">
        <ele>1279</ele>
        <time>2014-06-28T07:51:33.000Z</time>
      </trkpt>
      <trkpt lat="45.14646" lon="5.65016">
        <ele>1279</ele>
        <time>2014-06-28T07:51:34.000Z</time>
      </trkpt>
      <trkpt lat="45.14646" lon="5.65015">
        <ele>1279</ele>
        <time>2014-06-28T07:51:35.000Z</time>
      </trkpt>
      <trkpt lat="45.14646" lon="5.65014">
        <ele>1279</ele>
        <time>2014-06-28T07:51:36.000Z</time>
      </trkpt>
      <trkpt lat="45.14647" lon="5.65012">
        <ele>1280</ele>
        <time>2014-06-28T07:51:37.000Z</time>
      </trkpt>
      <trkpt lat="45.14647" lon="5.65011">
        <ele>1280</ele>
        <time>2014-06-28T07:51:38.000Z</time>
      </trkpt>
      <trkpt lat="45.14647" lon="5.6501">
        <ele>1280</ele>
        <time>2014-06-28T07:51:39.000Z</time>
      </trkpt>
      <trkpt lat="45.14648" lon="5.65009">
        <ele>1280</ele>
        <time>2014-06-28T07:51:40.000Z</time>
      </trkpt>
      <trkpt lat="45.14648" lon="5.65008">
        <ele>1280</ele>
        <time>2014-06-28T07:51:41.000Z</time>
      </trkpt>
      <trkpt lat="45.14649" lon="5.65007">
        <ele>1281</ele>
        <time>2014-06-28T07:51:42.000Z</time>
      </trkpt>
      <trkpt lat="45.14649" lon="5.65006">
        <ele>1281</ele>
        <time>2014-06-28T07:51:43.000Z</time>
      </trkpt>
      <trkpt lat="45.1465" lon="5.65005">
        <ele>1281</ele>
        <time>2014-06-28T07:51:44.000Z</time>
      </trkpt>
      <trkpt lat="45.1465" lon="5.65003">
        <ele>1282</ele>
        <time>2014-06-28T07:51:45.000Z</time>
      </trkpt>
      <trkpt lat="45.1465" lon="5.65002">
        <ele>1282</ele>
        <time>2014-06-28T07:51:46.000Z</time>
      </trkpt>
      <trkpt lat="45.1465" lon="5.65001">
        <ele>1282</ele>
        <time>2014-06-28T07:51:47.000Z</time>
      </trkpt>
      <trkpt lat="45.14651" lon="5.65">
        <ele>1282</ele>
        <time>2014-06-28T07:51:48.000Z</time>
      </trkpt>
      <trkpt lat="45.14651" lon="5.64999">
        <ele>1283</ele>
        <time>2014-06-28T07:51:49.000Z</time>
      </trkpt>
      <trkpt lat="45.14651" lon="5.64998">
        <ele>1283</ele>
        <time>2014-06-28T07:51:50.000Z</time>
      </trkpt>
      <trkpt lat="45.14651" lon="5.64997">
        <ele>1283</ele>
        <time>2014-06-28T07:51:51.000Z</time>
      </trkpt>
      <trkpt lat="45.14652" lon="5.64996">
        <ele>1283</ele>
        <time>2014-06-28T07:51:52.000Z</time>
      </trkpt>
      <trkpt lat="45.14652" lon="5.64995">
        <ele>1283</ele>
        <time>2014-06-28T07:51:53.000Z</time>
      </trkpt>
      <trkpt lat="45.14652" lon="5.64994">
        <ele>1284</ele>
        <time>2014-06-28T07:51:54.000Z</time>
      </trkpt>
      <trkpt lat="45.14652" lon="5.64993">
        <ele>1284</ele>
        <time>2014-06-28T07:51:55.000Z</time>
      </trkpt>
      <trkpt lat="45.14653" lon="5.64992">
        <ele>1284</ele>
        <time>2014-06-28T07:51:56.000Z</time>
      </trkpt>
      <trkpt lat="45.14653" lon="5.64991">
        <ele>1285</ele>
        <time>2014-06-28T07:51:57.000Z</time>
      </trkpt>
      <trkpt lat="45.14653" lon="5.6499">
        <ele>1285</ele>
        <time>2014-06-28T07:51:58.000Z</time>
      </trkpt>
      <trkpt lat="45.14654" lon="5.64989">
        <ele>1285</ele>
        <time>2014-06-28T07:51:59.000Z</time>
      </trkpt>
      <trkpt lat="45.14654" lon="5.64989">
        <ele>1286</ele>
        <time>2014-06-28T07:52:00.000Z</time>
      </trkpt>
      <trkpt lat="45.14654" lon="5.64988">
        <ele>1286</ele>
        <time>2014-06-28T07:52:01.000Z</time>
      </trkpt>
      <trkpt lat="45.14653" lon="5.64988">
        <ele>1287</ele>
        <time>2014-06-28T07:52:02.000Z</time>
      </trkpt>
      <trkpt lat="45.14653" lon="5.64987">
        <ele>1287</ele>
        <time>2014-06-28T07:52:03.000Z</time>
      </trkpt>
      <trkpt lat="45.14652" lon="5.64986">
        <ele>1288</ele>
        <time>2014-06-28T07:52:04.000Z</time>
      </trkpt>
      <trkpt lat="45.14651" lon="5.64986">
        <ele>1289</ele>
        <time>2014-06-28T07:52:05.000Z</time>
      </trkpt>
      <trkpt lat="45.14651" lon="5.64985">
        <ele>1290</ele>
        <time>2014-06-28T07:52:06.000Z</time>
      </trkpt>
      <trkpt lat="45.1465" lon="5.64985">
        <ele>1290</ele>
        <time>2014-06-28T07:52:07.000Z</time>
      </trkpt>
      <trkpt lat="45.14649" lon="5.64985">
        <ele>1291</ele>
        <time>2014-06-28T07:52:08.000Z</time>
      </trkpt>
      <trkpt lat="45.14649" lon="5.64985">
        <ele>1291</ele>
        <time>2014-06-28T07:52:09.000Z</time>
      </trkpt>
      <trkpt lat="45.14648" lon="5.64985">
        <ele>1292</ele>
        <time>2014-06-28T07:52:10.000Z</time>
      </trkpt>
      <trkpt lat="45.14648" lon="5.64985">
        <ele>1292</ele>
        <time>2014-06-28T07:52:11.000Z</time>
      </trkpt>
      <trkpt lat="45.14648" lon="5.64985">
        <ele>1293</ele>
        <time>2014-06-28T07:52:12.000Z</time>
      </trkpt>
      <trkpt lat="45.14647" lon="5.64985">
        <ele>1293</ele>
        <time>2014-06-28T07:52:13.000Z</time>
      </trkpt>
      <trkpt lat="45.14646" lon="5.64985">
        <ele>1294</ele>
        <time>2014-06-28T07:52:14.000Z</time>
      </trkpt>
      <trkpt lat="45.14646" lon="5.64985">
        <ele>1294</ele>
        <time>2014-06-28T07:52:15.000Z</time>
      </trkpt>
      <trkpt lat="45.14646" lon="5.64984">
        <ele>1295</ele>
        <time>2014-06-28T07:52:16.000Z</time>
      </trkpt>
      <trkpt lat="45.14646" lon="5.64984">
        <ele>1295</ele>
        <time>2014-06-28T07:52:17.000Z</time>
      </trkpt>
      <trkpt lat="45.14646" lon="5.64983">
        <ele>1295</ele>
        <time>2014-06-28T07:52:18.000Z</time>
      </trkpt>
      <trkpt lat="45.14646" lon="5.64983">
        <ele>1296</ele>
        <time>2014-06-28T07:52:19.000Z</time>
      </trkpt>
      <trkpt lat="45.14647" lon="5.64983">
        <ele>1296</ele>
        <time>2014-06-28T07:52:20.000Z</time>
      </trkpt>
      <trkpt lat="45.14647" lon="5.64982">
        <ele>1296</ele>
        <time>2014-06-28T07:52:21.000Z</time>
      </trkpt>
      <trkpt lat="45.14647" lon="5.64982">
        <ele>1296</ele>
        <time>2014-06-28T07:52:22.000Z</time>
      </trkpt>
      <trkpt lat="45.14647" lon="5.64981">
        <ele>1296</ele>
        <time>2014-06-28T07:52:23.000Z</time>
      </trkpt>
      <trkpt lat="45.14647" lon="5.6498">
        <ele>1297</ele>
        <time>2014-06-28T07:52:24.000Z</time>
      </trkpt>
      <trkpt lat="45.14647" lon="5.64979">
        <ele>1297</ele>
        <time>2014-06-28T07:52:25.000Z</time>
      </trkpt>
      <trkpt lat="45.14648" lon="5.64979">
        <ele>1297</ele>
        <time>2014-06-28T07:52:26.000Z</time>
      </trkpt>
      <trkpt lat="45.14648" lon="5.64978">
        <ele>1297</ele>
        <time>2014-06-28T07:52:27.000Z</time>
      </trkpt>
      <trkpt lat="45.14648" lon="5.64977">
        <ele>1297</ele>
        <time>2014-06-28T07:52:28.000Z</time>
      </trkpt>
      <trkpt lat="45.14649" lon="5.64976">
        <ele>1297</ele>
        <time>2014-06-28T07:52:29.000Z</time>
      </trkpt>
      <trkpt lat="45.1465" lon="5.64976">
        <ele>1297</ele>
        <time>2014-06-28T07:52:30.000Z</time>
      </trkpt>
      <trkpt lat="45.1465" lon="5.64975">
        <ele>1297</ele>
        <time>2014-06-28T07:52:31.000Z</time>
      </trkpt>
      <trkpt lat="45.1465" lon="5.64975">
        <ele>1298</ele>
        <time>2014-06-28T07:52:32.000Z</time>
      </trkpt>
      <trkpt lat="45.1465" lon="5.64974">
        <ele>1298</ele>
        <time>2014-06-28T07:52:33.000Z</time>
      </trkpt>
      <trkpt lat="45.14651" lon="5.64973">
        <ele>1298</ele>
        <time>2014-06-28T07:52:34.000Z</time>
      </trkpt>
      <trkpt lat="45.14651" lon="5.64973">
        <ele>1298</ele>
        <time>2014-06-28T07:52:35.000Z</time>
      </trkpt>
      <trkpt lat="45.14651" lon="5.64972">
        <ele>1298</ele>
        <time>2014-06-28T07:52:36.000Z</time>
      </trkpt>
      <trkpt lat="45.14652" lon="5.64971">
        <ele>1299</ele>
        <time>2014-06-28T07:52:37.000Z</time>
      </trkpt>
      <trkpt lat="45.14652" lon="5.64971">
        <ele>1299</ele>
        <time>2014-06-28T07:52:38.000Z</time>
      </trkpt>
      <trkpt lat="45.14652" lon="5.6497">
        <ele>1299</ele>
        <time>2014-06-28T07:52:39.000Z</time>
      </trkpt>
      <trkpt lat="45.14653" lon="5.64969">
        <ele>1299</ele>
        <time>2014-06-28T07:52:40.000Z</time>
      </trkpt>
      <trkpt lat="45.14653" lon="5.64968">
        <ele>1299</ele>
        <time>2014-06-28T07:52:41.000Z</time>
      </trkpt>
      <trkpt lat="45.14653" lon="5.64968">
        <ele>1299</ele>
        <time>2014-06-28T07:52:42.000Z</time>
      </trkpt>
      <trkpt lat="45.14653" lon="5.64967">
        <ele>1300</ele>
        <time>2014-06-28T07:52:43.000Z</time>
      </trkpt>
      <trkpt lat="45.14653" lon="5.64967">
        <ele>1300</ele>
        <time>2014-06-28T07:52:44.000Z</time>
      </trkpt>
      <trkpt lat="45.14653" lon="5.64966">
        <ele>1300</ele>
        <time>2014-06-28T07:52:45.000Z</time>
      </trkpt>
      <trkpt lat="45.14653" lon="5.64965">
        <ele>1300</ele>
        <time>2014-06-28T07:52:46.000Z</time>
      </trkpt>
      <trkpt lat="45.14653" lon="5.64965">
        <ele>1300</ele>
        <time>2014-06-28T07:52:47.000Z</time>
      </trkpt>
      <trkpt lat="45.14653" lon="5.64964">
        <ele>1301</ele>
        <time>2014-06-28T07:52:48.000Z</time>
      </trkpt>
      <trkpt lat="45.14653" lon="5.64964">
        <ele>1301</ele>
        <time>2014-06-28T07:52:49.000Z</time>
      </trkpt>
      <trkpt lat="45.14653" lon="5.64963">
        <ele>1301</ele>
        <time>2014-06-28T07:52:50.000Z</time>
      </trkpt>
      <trkpt lat="45.14652" lon="5.64962">
        <ele>1301</ele>
        <time>2014-06-28T07:52:51.000Z</time>
      </trkpt>
      <trkpt lat="45.14652" lon="5.64962">
        <ele>1302</ele>
        <time>2014-06-28T07:52:52.000Z</time>
      </trkpt>
      <trkpt lat="45.14651" lon="5.64962">
        <ele>1302</ele>
        <time>2014-06-28T07:52:53.000Z</time>
      </trkpt>
      <trkpt lat="45.14651" lon="5.64961">
        <ele>1302</ele>
        <time>2014-06-28T07:52:54.000Z</time>
      </trkpt>
      <trkpt lat="45.14651" lon="5.6496">
        <ele>1303</ele>
        <time>2014-06-28T07:52:55.000Z</time>
      </trkpt>
      <trkpt lat="45.1465" lon="5.64959">
        <ele>1303</ele>
        <time>2014-06-28T07:52:56.000Z</time>
      </trkpt>
      <trkpt lat="45.1465" lon="5.64959">
        <ele>1303</ele>
        <time>2014-06-28T07:52:57.000Z</time>
      </trkpt>
      <trkpt lat="45.1465" lon="5.64959">
        <ele>1303</ele>
        <time>2014-06-28T07:52:58.000Z</time>
      </trkpt>
      <trkpt lat="45.14649" lon="5.64959">
        <ele>1304</ele>
        <time>2014-06-28T07:52:59.000Z</time>
      </trkpt>
      <trkpt lat="45.14649" lon="5.64959">
        <ele>1304</ele>
        <time>2014-06-28T07:53:00.000Z</time>
      </trkpt>
      <trkpt lat="45.14648" lon="5.64958">
        <ele>1304</ele>
        <time>2014-06-28T07:53:01.000Z</time>
      </trkpt>
      <trkpt lat="45.14648" lon="5.64958">
        <ele>1305</ele>
        <time>2014-06-28T07:53:02.000Z</time>
      </trkpt>
      <trkpt lat="45.14648" lon="5.64958">
        <ele>1305</ele>
        <time>2014-06-28T07:53:03.000Z</time>
      </trkpt>
      <trkpt lat="45.14647" lon="5.64958">
        <ele>1305</ele>
        <time>2014-06-28T07:53:04.000Z</time>
      </trkpt>
      <trkpt lat="45.14647" lon="5.64958">
        <ele>1306</ele>
        <time>2014-06-28T07:53:05.000Z</time>
      </trkpt>
      <trkpt lat="45.14647" lon="5.64958">
        <ele>1306</ele>
        <time>2014-06-28T07:53:06.000Z</time>
      </trkpt>
      <trkpt lat="45.14646" lon="5.64958">
        <ele>1306</ele>
        <time>2014-06-28T07:53:07.000Z</time>
      </trkpt>
      <trkpt lat="45.14646" lon="5.64957">
        <ele>1306</ele>
        <time>2014-06-28T07:53:08.000Z</time>
      </trkpt>
      <trkpt lat="45.14645" lon="5.64957">
        <ele>1307</ele>
        <time>2014-06-28T07:53:09.000Z</time>
      </trkpt>
      <trkpt lat="45.14644" lon="5.64957">
        <ele>1307</ele>
        <time>2014-06-28T07:53:10.000Z</time>
      </trkpt>
      <trkpt lat="45.14644" lon="5.64956">
        <ele>1308</ele>
        <time>2014-06-28T07:53:11.000Z</time>
      </trkpt>
      <trkpt lat="45.14644" lon="5.64955">
        <ele>1308</ele>
        <time>2014-06-28T07:53:12.000Z</time>
      </trkpt>
      <trkpt lat="45.14644" lon="5.64955">
        <ele>1308</ele>
        <time>2014-06-28T07:53:13.000Z</time>
      </trkpt>
      <trkpt lat="45.14644" lon="5.64954">
        <ele>1308</ele>
        <time>2014-06-28T07:53:14.000Z</time>
      </trkpt>
      <trkpt lat="45.14644" lon="5.64954">
        <ele>1309</ele>
        <time>2014-06-28T07:53:15.000Z</time>
      </trkpt>
      <trkpt lat="45.14644" lon="5.64954">
        <ele>1309</ele>
        <time>2014-06-28T07:53:16.000Z</time>
      </trkpt>
      <trkpt lat="45.14644" lon="5.64953">
        <ele>1309</ele>
        <time>2014-06-28T07:53:17.000Z</time>
      </trkpt>
      <trkpt lat="45.14645" lon="5.64951">
        <ele>1309</ele>
        <time>2014-06-28T07:53:18.000Z</time>
      </trkpt>
      <trkpt lat="45.14646" lon="5.6495">
        <ele>1308</ele>
        <time>2014-06-28T07:53:19.000Z</time>
      </trkpt>
      <trkpt lat="45.14646" lon="5.64949">
        <ele>1309</ele>
        <time>2014-06-28T07:53:20.000Z</time>
      </trkpt>
      <trkpt lat="45.14646" lon="5.64949">
        <ele>1309</ele>
        <time>2014-06-28T07:53:21.000Z</time>
      </trkpt>
      <trkpt lat="45.14647" lon="5.64948">
        <ele>1309</ele>
        <time>2014-06-28T07:53:22.000Z</time>
      </trkpt>
      <trkpt lat="45.14646" lon="5.64947">
        <ele>1309</ele>
        <time>2014-06-28T07:53:23.000Z</time>
      </trkpt>
      <trkpt lat="45.14646" lon="5.64946">
        <ele>1310</ele>
        <time>2014-06-28T07:53:24.000Z</time>
      </trkpt>
      <trkpt lat="45.14645" lon="5.64945">
        <ele>1310</ele>
        <time>2014-06-28T07:53:25.000Z</time>
      </trkpt>
      <trkpt lat="45.14645" lon="5.64944">
        <ele>1311</ele>
        <time>2014-06-28T07:53:26.000Z</time>
      </trkpt>
      <trkpt lat="45.14644" lon="5.64943">
        <ele>1311</ele>
        <time>2014-06-28T07:53:27.000Z</time>
      </trkpt>
      <trkpt lat="45.14643" lon="5.64942">
        <ele>1312</ele>
        <time>2014-06-28T07:53:28.000Z</time>
      </trkpt>
      <trkpt lat="45.14643" lon="5.64942">
        <ele>1312</ele>
        <time>2014-06-28T07:53:29.000Z</time>
      </trkpt>
      <trkpt lat="45.14642" lon="5.64941">
        <ele>1313</ele>
        <time>2014-06-28T07:53:30.000Z</time>
      </trkpt>
      <trkpt lat="45.14642" lon="5.6494">
        <ele>1313</ele>
        <time>2014-06-28T07:53:31.000Z</time>
      </trkpt>
      <trkpt lat="45.14641" lon="5.6494">
        <ele>1313</ele>
        <time>2014-06-28T07:53:32.000Z</time>
      </trkpt>
      <trkpt lat="45.1464" lon="5.64939">
        <ele>1314</ele>
        <time>2014-06-28T07:53:33.000Z</time>
      </trkpt>
      <trkpt lat="45.1464" lon="5.64938">
        <ele>1314</ele>
        <time>2014-06-28T07:53:34.000Z</time>
      </trkpt>
      <trkpt lat="45.1464" lon="5.64938">
        <ele>1314</ele>
        <time>2014-06-28T07:53:35.000Z</time>
      </trkpt>
      <trkpt lat="45.1464" lon="5.64937">
        <ele>1315</ele>
        <time>2014-06-28T07:53:36.000Z</time>
      </trkpt>
      <trkpt lat="45.14641" lon="5.64936">
        <ele>1315</ele>
        <time>2014-06-28T07:53:37.000Z</time>
      </trkpt>
      <trkpt lat="45.14641" lon="5.64935">
        <ele>1315</ele>
        <time>2014-06-28T07:53:38.000Z</time>
      </trkpt>
      <trkpt lat="45.14641" lon="5.64935">
        <ele>1315</ele>
        <time>2014-06-28T07:53:39.000Z</time>
      </trkpt>
      <trkpt lat="45.14642" lon="5.64933">
        <ele>1316</ele>
        <time>2014-06-28T07:53:40.000Z</time>
      </trkpt>
      <trkpt lat="45.14642" lon="5.64932">
        <ele>1316</ele>
        <time>2014-06-28T07:53:41.000Z</time>
      </trkpt>
      <trkpt lat="45.14643" lon="5.64932">
        <ele>1316</ele>
        <time>2014-06-28T07:53:42.000Z</time>
      </trkpt>
      <trkpt lat="45.14644" lon="5.64931">
        <ele>1316</ele>
        <time>2014-06-28T07:53:43.000Z</time>
      </trkpt>
      <trkpt lat="45.14644" lon="5.6493">
        <ele>1316</ele>
        <time>2014-06-28T07:53:44.000Z</time>
      </trkpt>
      <trkpt lat="45.14644" lon="5.6493">
        <ele>1316</ele>
        <time>2014-06-28T07:53:45.000Z</time>
      </trkpt>
      <trkpt lat="45.14645" lon="5.64929">
        <ele>1317</ele>
        <time>2014-06-28T07:53:46.000Z</time>
      </trkpt>
      <trkpt lat="45.14645" lon="5.64928">
        <ele>1317</ele>
        <time>2014-06-28T07:53:47.000Z</time>
      </trkpt>
      <trkpt lat="45.14646" lon="5.64928">
        <ele>1317</ele>
        <time>2014-06-28T07:53:48.000Z</time>
      </trkpt>
      <trkpt lat="45.14646" lon="5.64928">
        <ele>1317</ele>
        <time>2014-06-28T07:53:49.000Z</time>
      </trkpt>
      <trkpt lat="45.14646" lon="5.64927">
        <ele>1318</ele>
        <time>2014-06-28T07:53:50.000Z</time>
      </trkpt>
      <trkpt lat="45.14646" lon="5.64927">
        <ele>1318</ele>
        <time>2014-06-28T07:53:51.000Z</time>
      </trkpt>
      <trkpt lat="45.14646" lon="5.64926">
        <ele>1318</ele>
        <time>2014-06-28T07:53:52.000Z</time>
      </trkpt>
      <trkpt lat="45.14647" lon="5.64925">
        <ele>1318</ele>
        <time>2014-06-28T07:53:53.000Z</time>
      </trkpt>
      <trkpt lat="45.14647" lon="5.64925">
        <ele>1319</ele>
        <time>2014-06-28T07:53:54.000Z</time>
      </trkpt>
      <trkpt lat="45.14648" lon="5.64924">
        <ele>1319</ele>
        <time>2014-06-28T07:53:55.000Z</time>
      </trkpt>
      <trkpt lat="45.14649" lon="5.64924">
        <ele>1319</ele>
        <time>2014-06-28T07:53:56.000Z</time>
      </trkpt>
      <trkpt lat="45.14649" lon="5.64923">
        <ele>1319</ele>
        <time>2014-06-28T07:53:57.000Z</time>
      </trkpt>
      <trkpt lat="45.1465" lon="5.64922">
        <ele>1320</ele>
        <time>2014-06-28T07:53:58.000Z</time>
      </trkpt>
      <trkpt lat="45.1465" lon="5.64922">
        <ele>1320</ele>
        <time>2014-06-28T07:53:59.000Z</time>
      </trkpt>
      <trkpt lat="45.14651" lon="5.64921">
        <ele>1320</ele>
        <time>2014-06-28T07:54:00.000Z</time>
      </trkpt>
      <trkpt lat="45.14652" lon="5.6492">
        <ele>1320</ele>
        <time>2014-06-28T07:54:01.000Z</time>
      </trkpt>
      <trkpt lat="45.14653" lon="5.64919">
        <ele>1320</ele>
        <time>2014-06-28T07:54:02.000Z</time>
      </trkpt>
      <trkpt lat="45.14653" lon="5.64918">
        <ele>1321</ele>
        <time>2014-06-28T07:54:03.000Z</time>
      </trkpt>
      <trkpt lat="45.14654" lon="5.64917">
        <ele>1321</ele>
        <time>2014-06-28T07:54:04.000Z</time>
      </trkpt>
      <trkpt lat="45.14654" lon="5.64917">
        <ele>1321</ele>
        <time>2014-06-28T07:54:05.000Z</time>
      </trkpt>
      <trkpt lat="45.14654" lon="5.64916">
        <ele>1321</ele>
        <time>2014-06-28T07:54:06.000Z</time>
      </trkpt>
      <trkpt lat="45.14655" lon="5.64915">
        <ele>1321</ele>
        <time>2014-06-28T07:54:07.000Z</time>
      </trkpt>
      <trkpt lat="45.14655" lon="5.64914">
        <ele>1322</ele>
        <time>2014-06-28T07:54:08.000Z</time>
      </trkpt>
      <trkpt lat="45.14655" lon="5.64913">
        <ele>1322</ele>
        <time>2014-06-28T07:54:09.000Z</time>
      </trkpt>
      <trkpt lat="45.14655" lon="5.64913">
        <ele>1323</ele>
        <time>2014-06-28T07:54:10.000Z</time>
      </trkpt>
      <trkpt lat="45.14654" lon="5.64912">
        <ele>1323</ele>
        <time>2014-06-28T07:54:11.000Z</time>
      </trkpt>
      <trkpt lat="45.14654" lon="5.64911">
        <ele>1324</ele>
        <time>2014-06-28T07:54:12.000Z</time>
      </trkpt>
      <trkpt lat="45.14654" lon="5.6491">
        <ele>1324</ele>
        <time>2014-06-28T07:54:13.000Z</time>
      </trkpt>
      <trkpt lat="45.14653" lon="5.64909">
        <ele>1324</ele>
        <time>2014-06-28T07:54:14.000Z</time>
      </trkpt>
      <trkpt lat="45.14653" lon="5.64909">
        <ele>1325</ele>
        <time>2014-06-28T07:54:15.000Z</time>
      </trkpt>
      <trkpt lat="45.14652" lon="5.64908">
        <ele>1325</ele>
        <time>2014-06-28T07:54:16.000Z</time>
      </trkpt>
      <trkpt lat="45.14652" lon="5.64908">
        <ele>1325</ele>
        <time>2014-06-28T07:54:17.000Z</time>
      </trkpt>
      <trkpt lat="45.14652" lon="5.64908">
        <ele>1326</ele>
        <time>2014-06-28T07:54:18.000Z</time>
      </trkpt>
      <trkpt lat="45.14651" lon="5.64907">
        <ele>1326</ele>
        <time>2014-06-28T07:54:19.000Z</time>
      </trkpt>
      <trkpt lat="45.1465" lon="5.64907">
        <ele>1327</ele>
        <time>2014-06-28T07:54:20.000Z</time>
      </trkpt>
      <trkpt lat="45.1465" lon="5.64907">
        <ele>1327</ele>
        <time>2014-06-28T07:54:21.000Z</time>
      </trkpt>
      <trkpt lat="45.14649" lon="5.64907">
        <ele>1327</ele>
        <time>2014-06-28T07:54:22.000Z</time>
      </trkpt>
      <trkpt lat="45.14648" lon="5.64907">
        <ele>1328</ele>
        <time>2014-06-28T07:54:23.000Z</time>
      </trkpt>
      <trkpt lat="45.14648" lon="5.64907">
        <ele>1328</ele>
        <time>2014-06-28T07:54:24.000Z</time>
      </trkpt>
      <trkpt lat="45.14648" lon="5.64907">
        <ele>1328</ele>
        <time>2014-06-28T07:54:25.000Z</time>
      </trkpt>
      <trkpt lat="45.14648" lon="5.64907">
        <ele>1329</ele>
        <time>2014-06-28T07:54:26.000Z</time>
      </trkpt>
      <trkpt lat="45.14649" lon="5.64906">
        <ele>1329</ele>
        <time>2014-06-28T07:54:27.000Z</time>
      </trkpt>
      <trkpt lat="45.14649" lon="5.64906">
        <ele>1329</ele>
        <time>2014-06-28T07:54:28.000Z</time>
      </trkpt>
      <trkpt lat="45.14649" lon="5.64906">
        <ele>1329</ele>
        <time>2014-06-28T07:54:29.000Z</time>
      </trkpt>
      <trkpt lat="45.1465" lon="5.64905">
        <ele>1329</ele>
        <time>2014-06-28T07:54:30.000Z</time>
      </trkpt>
      <trkpt lat="45.1465" lon="5.64905">
        <ele>1330</ele>
        <time>2014-06-28T07:54:31.000Z</time>
      </trkpt>
      <trkpt lat="45.14651" lon="5.64904">
        <ele>1330</ele>
        <time>2014-06-28T07:54:32.000Z</time>
      </trkpt>
      <trkpt lat="45.14652" lon="5.64904">
        <ele>1330</ele>
        <time>2014-06-28T07:54:33.000Z</time>
      </trkpt>
      <trkpt lat="45.14653" lon="5.64903">
        <ele>1330</ele>
        <time>2014-06-28T07:54:34.000Z</time>
      </trkpt>
      <trkpt lat="45.14653" lon="5.64903">
        <ele>1330</ele>
        <time>2014-06-28T07:54:35.000Z</time>
      </trkpt>
      <trkpt lat="45.14654" lon="5.64902">
        <ele>1330</ele>
        <time>2014-06-28T07:54:36.000Z</time>
      </trkpt>
      <trkpt lat="45.14654" lon="5.64902">
        <ele>1330</ele>
        <time>2014-06-28T07:54:37.000Z</time>
      </trkpt>
      <trkpt lat="45.14654" lon="5.64901">
        <ele>1330</ele>
        <time>2014-06-28T07:54:38.000Z</time>
      </trkpt>
      <trkpt lat="45.14655" lon="5.649">
        <ele>1330</ele>
        <time>2014-06-28T07:54:39.000Z</time>
      </trkpt>
      <trkpt lat="45.14655" lon="5.649">
        <ele>1331</ele>
        <time>2014-06-28T07:54:40.000Z</time>
      </trkpt>
      <trkpt lat="45.14656" lon="5.64899">
        <ele>1331</ele>
        <time>2014-06-28T07:54:41.000Z</time>
      </trkpt>
      <trkpt lat="45.14657" lon="5.64898">
        <ele>1331</ele>
        <time>2014-06-28T07:54:42.000Z</time>
      </trkpt>
      <trkpt lat="45.14657" lon="5.64897">
        <ele>1331</ele>
        <time>2014-06-28T07:54:43.000Z</time>
      </trkpt>
      <trkpt lat="45.14658" lon="5.64896">
        <ele>1331</ele>
        <time>2014-06-28T07:54:44.000Z</time>
      </trkpt>
      <trkpt lat="45.14658" lon="5.64896">
        <ele>1331</ele>
        <time>2014-06-28T07:54:45.000Z</time>
      </trkpt>
      <trkpt lat="45.14659" lon="5.64895">
        <ele>1331</ele>
        <time>2014-06-28T07:54:46.000Z</time>
      </trkpt>
      <trkpt lat="45.14659" lon="5.64895">
        <ele>1331</ele>
        <time>2014-06-28T07:54:47.000Z</time>
      </trkpt>
      <trkpt lat="45.1466" lon="5.64894">
        <ele>1331</ele>
        <time>2014-06-28T07:54:48.000Z</time>
      </trkpt>
      <trkpt lat="45.1466" lon="5.64894">
        <ele>1332</ele>
        <time>2014-06-28T07:54:49.000Z</time>
      </trkpt>
      <trkpt lat="45.1466" lon="5.64893">
        <ele>1332</ele>
        <time>2014-06-28T07:54:50.000Z</time>
      </trkpt>
      <trkpt lat="45.14661" lon="5.64892">
        <ele>1332</ele>
        <time>2014-06-28T07:54:51.000Z</time>
      </trkpt>
      <trkpt lat="45.14661" lon="5.64892">
        <ele>1332</ele>
        <time>2014-06-28T07:54:52.000Z</time>
      </trkpt>
      <trkpt lat="45.14662" lon="5.64891">
        <ele>1332</ele>
        <time>2014-06-28T07:54:53.000Z</time>
      </trkpt>
      <trkpt lat="45.14662" lon="5.64891">
        <ele>1333</ele>
        <time>2014-06-28T07:54:54.000Z</time>
      </trkpt>
      <trkpt lat="45.14662" lon="5.6489">
        <ele>1333</ele>
        <time>2014-06-28T07:54:55.000Z</time>
      </trkpt>
      <trkpt lat="45.14663" lon="5.6489">
        <ele>1333</ele>
        <time>2014-06-28T07:54:56.000Z</time>
      </trkpt>
      <trkpt lat="45.14663" lon="5.64889">
        <ele>1333</ele>
        <time>2014-06-28T07:54:57.000Z</time>
      </trkpt>
      <trkpt lat="45.14664" lon="5.64889">
        <ele>1334</ele>
        <time>2014-06-28T07:54:58.000Z</time>
      </trkpt>
      <trkpt lat="45.14664" lon="5.64888">
        <ele>1334</ele>
        <time>2014-06-28T07:54:59.000Z</time>
      </trkpt>
      <trkpt lat="45.14665" lon="5.64888">
        <ele>1334</ele>
        <time>2014-06-28T07:55:00.000Z</time>
      </trkpt>
      <trkpt lat="45.14665" lon="5.64887">
        <ele>1334</ele>
        <time>2014-06-28T07:55:01.000Z</time>
      </trkpt>
      <trkpt lat="45.14665" lon="5.64886">
        <ele>1334</ele>
        <time>2014-06-28T07:55:02.000Z</time>
      </trkpt>
      <trkpt lat="45.14666" lon="5.64886">
        <ele>1335</ele>
        <time>2014-06-28T07:55:03.000Z</time>
      </trkpt>
      <trkpt lat="45.14666" lon="5.64885">
        <ele>1335</ele>
        <time>2014-06-28T07:55:04.000Z</time>
      </trkpt>
      <trkpt lat="45.14666" lon="5.64884">
        <ele>1335</ele>
        <time>2014-06-28T07:55:05.000Z</time>
      </trkpt>
      <trkpt lat="45.14667" lon="5.64884">
        <ele>1335</ele>
        <time>2014-06-28T07:55:06.000Z</time>
      </trkpt>
      <trkpt lat="45.14667" lon="5.64883">
        <ele>1336</ele>
        <time>2014-06-28T07:55:07.000Z</time>
      </trkpt>
      <trkpt lat="45.14668" lon="5.64882">
        <ele>1336</ele>
        <time>2014-06-28T07:55:08.000Z</time>
      </trkpt>
      <trkpt lat="45.14669" lon="5.64881">
        <ele>1336</ele>
        <time>2014-06-28T07:55:09.000Z</time>
      </trkpt>
      <trkpt lat="45.14669" lon="5.6488">
        <ele>1336</ele>
        <time>2014-06-28T07:55:10.000Z</time>
      </trkpt>
      <trkpt lat="45.1467" lon="5.6488">
        <ele>1337</ele>
        <time>2014-06-28T07:55:11.000Z</time>
      </trkpt>
      <trkpt lat="45.1467" lon="5.64879">
        <ele>1337</ele>
        <time>2014-06-28T07:55:12.000Z</time>
      </trkpt>
      <trkpt lat="45.14671" lon="5.64878">
        <ele>1337</ele>
        <time>2014-06-28T07:55:13.000Z</time>
      </trkpt>
      <trkpt lat="45.14671" lon="5.64877">
        <ele>1338</ele>
        <time>2014-06-28T07:55:14.000Z</time>
      </trkpt>
      <trkpt lat="45.14671" lon="5.64876">
        <ele>1338</ele>
        <time>2014-06-28T07:55:15.000Z</time>
      </trkpt>
      <trkpt lat="45.14671" lon="5.64876">
        <ele>1338</ele>
        <time>2014-06-28T07:55:16.000Z</time>
      </trkpt>
      <trkpt lat="45.14672" lon="5.64875">
        <ele>1338</ele>
        <time>2014-06-28T07:55:17.000Z</time>
      </trkpt>
      <trkpt lat="45.14672" lon="5.64874">
        <ele>1338</ele>
        <time>2014-06-28T07:55:18.000Z</time>
      </trkpt>
      <trkpt lat="45.14672" lon="5.64874">
        <ele>1338</ele>
        <time>2014-06-28T07:55:19.000Z</time>
      </trkpt>
      <trkpt lat="45.14672" lon="5.64873">
        <ele>1339</ele>
        <time>2014-06-28T07:55:20.000Z</time>
      </trkpt>
      <trkpt lat="45.14671" lon="5.64872">
        <ele>1339</ele>
        <time>2014-06-28T07:55:21.000Z</time>
      </trkpt>
      <trkpt lat="45.14671" lon="5.64872">
        <ele>1339</ele>
        <time>2014-06-28T07:55:22.000Z</time>
      </trkpt>
      <trkpt lat="45.1467" lon="5.64871">
        <ele>1340</ele>
        <time>2014-06-28T07:55:23.000Z</time>
      </trkpt>
      <trkpt lat="45.1467" lon="5.64871">
        <ele>1340</ele>
        <time>2014-06-28T07:55:24.000Z</time>
      </trkpt>
      <trkpt lat="45.14669" lon="5.64871">
        <ele>1341</ele>
        <time>2014-06-28T07:55:25.000Z</time>
      </trkpt>
      <trkpt lat="45.14669" lon="5.6487">
        <ele>1341</ele>
        <time>2014-06-28T07:55:26.000Z</time>
      </trkpt>
      <trkpt lat="45.14668" lon="5.6487">
        <ele>1342</ele>
        <time>2014-06-28T07:55:27.000Z</time>
      </trkpt>
      <trkpt lat="45.14668" lon="5.64869">
        <ele>1342</ele>
        <time>2014-06-28T07:55:28.000Z</time>
      </trkpt>
      <trkpt lat="45.14667" lon="5.64869">
        <ele>1342</ele>
        <time>2014-06-28T07:55:29.000Z</time>
      </trkpt>
      <trkpt lat="45.14667" lon="5.64869">
        <ele>1343</ele>
        <time>2014-06-28T07:55:30.000Z</time>
      </trkpt>
      <trkpt lat="45.14666" lon="5.64868">
        <ele>1344</ele>
        <time>2014-06-28T07:55:31.000Z</time>
      </trkpt>
      <trkpt lat="45.14666" lon="5.64868">
        <ele>1344</ele>
        <time>2014-06-28T07:55:32.000Z</time>
      </trkpt>
      <trkpt lat="45.14665" lon="5.64868">
        <ele>1345</ele>
        <time>2014-06-28T07:55:33.000Z</time>
      </trkpt>
      <trkpt lat="45.14665" lon="5.64868">
        <ele>1345</ele>
        <time>2014-06-28T07:55:34.000Z</time>
      </trkpt>
      <trkpt lat="45.14664" lon="5.64868">
        <ele>1346</ele>
        <time>2014-06-28T07:55:35.000Z</time>
      </trkpt>
      <trkpt lat="45.14663" lon="5.64868">
        <ele>1346</ele>
        <time>2014-06-28T07:55:36.000Z</time>
      </trkpt>
      <trkpt lat="45.14663" lon="5.64869">
        <ele>1347</ele>
        <time>2014-06-28T07:55:37.000Z</time>
      </trkpt>
      <trkpt lat="45.14663" lon="5.64869">
        <ele>1347</ele>
        <time>2014-06-28T07:55:38.000Z</time>
      </trkpt>
      <trkpt lat="45.14663" lon="5.64868">
        <ele>1347</ele>
        <time>2014-06-28T07:55:39.000Z</time>
      </trkpt>
      <trkpt lat="45.14663" lon="5.64868">
        <ele>1348</ele>
        <time>2014-06-28T07:55:40.000Z</time>
      </trkpt>
      <trkpt lat="45.14663" lon="5.64867">
        <ele>1348</ele>
        <time>2014-06-28T07:55:41.000Z</time>
      </trkpt>
      <trkpt lat="45.14664" lon="5.64866">
        <ele>1348</ele>
        <time>2014-06-28T07:55:42.000Z</time>
      </trkpt>
      <trkpt lat="45.14664" lon="5.64866">
        <ele>1348</ele>
        <time>2014-06-28T07:55:43.000Z</time>
      </trkpt>
      <trkpt lat="45.14664" lon="5.64866">
        <ele>1349</ele>
        <time>2014-06-28T07:55:44.000Z</time>
      </trkpt>
      <trkpt lat="45.14665" lon="5.64865">
        <ele>1349</ele>
        <time>2014-06-28T07:55:45.000Z</time>
      </trkpt>
      <trkpt lat="45.14665" lon="5.64865">
        <ele>1349</ele>
        <time>2014-06-28T07:55:46.000Z</time>
      </trkpt>
      <trkpt lat="45.14666" lon="5.64864">
        <ele>1349</ele>
        <time>2014-06-28T07:55:47.000Z</time>
      </trkpt>
      <trkpt lat="45.14666" lon="5.64864">
        <ele>1350</ele>
        <time>2014-06-28T07:55:48.000Z</time>
      </trkpt>
      <trkpt lat="45.14667" lon="5.64864">
        <ele>1350</ele>
        <time>2014-06-28T07:55:49.000Z</time>
      </trkpt>
      <trkpt lat="45.14668" lon="5.64863">
        <ele>1350</ele>
        <time>2014-06-28T07:55:50.000Z</time>
      </trkpt>
      <trkpt lat="45.14668" lon="5.64863">
        <ele>1350</ele>
        <time>2014-06-28T07:55:51.000Z</time>
      </trkpt>
      <trkpt lat="45.14669" lon="5.64862">
        <ele>1350</ele>
        <time>2014-06-28T07:55:52.000Z</time>
      </trkpt>
      <trkpt lat="45.14669" lon="5.64861">
        <ele>1350</ele>
        <time>2014-06-28T07:55:53.000Z</time>
      </trkpt>
      <trkpt lat="45.1467" lon="5.64861">
        <ele>1351</ele>
        <time>2014-06-28T07:55:54.000Z</time>
      </trkpt>
      <trkpt lat="45.14671" lon="5.6486">
        <ele>1351</ele>
        <time>2014-06-28T07:55:55.000Z</time>
      </trkpt>
      <trkpt lat="45.14672" lon="5.64859">
        <ele>1351</ele>
        <time>2014-06-28T07:55:56.000Z</time>
      </trkpt>
      <trkpt lat="45.14673" lon="5.64859">
        <ele>1351</ele>
        <time>2014-06-28T07:55:57.000Z</time>
      </trkpt>
      <trkpt lat="45.14673" lon="5.64858">
        <ele>1351</ele>
        <time>2014-06-28T07:55:58.000Z</time>
      </trkpt>
      <trkpt lat="45.14673" lon="5.64857">
        <ele>1352</ele>
        <time>2014-06-28T07:55:59.000Z</time>
      </trkpt>
      <trkpt lat="45.14673" lon="5.64856">
        <ele>1352</ele>
        <time>2014-06-28T07:56:00.000Z</time>
      </trkpt>
      <trkpt lat="45.14673" lon="5.64856">
        <ele>1352</ele>
        <time>2014-06-28T07:56:01.000Z</time>
      </trkpt>
      <trkpt lat="45.14674" lon="5.64855">
        <ele>1352</ele>
        <time>2014-06-28T07:56:02.000Z</time>
      </trkpt>
      <trkpt lat="45.14674" lon="5.64855">
        <ele>1353</ele>
        <time>2014-06-28T07:56:03.000Z</time>
      </trkpt>
      <trkpt lat="45.14674" lon="5.64855">
        <ele>1353</ele>
        <time>2014-06-28T07:56:04.000Z</time>
      </trkpt>
      <trkpt lat="45.14674" lon="5.64855">
        <ele>1353</ele>
        <time>2014-06-28T07:56:05.000Z</time>
      </trkpt>
      <trkpt lat="45.14674" lon="5.64854">
        <ele>1354</ele>
        <time>2014-06-28T07:56:06.000Z</time>
      </trkpt>
      <trkpt lat="45.14674" lon="5.64854">
        <ele>1354</ele>
        <time>2014-06-28T07:56:07.000Z</time>
      </trkpt>
      <trkpt lat="45.14673" lon="5.64853">
        <ele>1354</ele>
        <time>2014-06-28T07:56:08.000Z</time>
      </trkpt>
      <trkpt lat="45.14673" lon="5.64853">
        <ele>1355</ele>
        <time>2014-06-28T07:56:09.000Z</time>
      </trkpt>
      <trkpt lat="45.14673" lon="5.64853">
        <ele>1355</ele>
        <time>2014-06-28T07:56:10.000Z</time>
      </trkpt>
      <trkpt lat="45.14672" lon="5.64853">
        <ele>1356</ele>
        <time>2014-06-28T07:56:11.000Z</time>
      </trkpt>
      <trkpt lat="45.14672" lon="5.64853">
        <ele>1356</ele>
        <time>2014-06-28T07:56:12.000Z</time>
      </trkpt>
      <trkpt lat="45.14672" lon="5.64853">
        <ele>1357</ele>
        <time>2014-06-28T07:56:13.000Z</time>
      </trkpt>
      <trkpt lat="45.14672" lon="5.64853">
        <ele>1357</ele>
        <time>2014-06-28T07:56:14.000Z</time>
      </trkpt>
      <trkpt lat="45.14672" lon="5.64853">
        <ele>1358</ele>
        <time>2014-06-28T07:56:15.000Z</time>
      </trkpt>
      <trkpt lat="45.14671" lon="5.64853">
        <ele>1358</ele>
        <time>2014-06-28T07:56:16.000Z</time>
      </trkpt>
      <trkpt lat="45.14671" lon="5.64852">
        <ele>1358</ele>
        <time>2014-06-28T07:56:17.000Z</time>
      </trkpt>
      <trkpt lat="45.14671" lon="5.64852">
        <ele>1359</ele>
        <time>2014-06-28T07:56:18.000Z</time>
      </trkpt>
      <trkpt lat="45.14671" lon="5.64852">
        <ele>1359</ele>
        <time>2014-06-28T07:56:19.000Z</time>
      </trkpt>
      <trkpt lat="45.1467" lon="5.64852">
        <ele>1359</ele>
        <time>2014-06-28T07:56:20.000Z</time>
      </trkpt>
      <trkpt lat="45.1467" lon="5.64852">
        <ele>1360</ele>
        <time>2014-06-28T07:56:21.000Z</time>
      </trkpt>
      <trkpt lat="45.1467" lon="5.64852">
        <ele>1360</ele>
        <time>2014-06-28T07:56:22.000Z</time>
      </trkpt>
      <trkpt lat="45.1467" lon="5.64852">
        <ele>1360</ele>
        <time>2014-06-28T07:56:23.000Z</time>
      </trkpt>
      <trkpt lat="45.1467" lon="5.64852">
        <ele>1360</ele>
        <time>2014-06-28T07:56:24.000Z</time>
      </trkpt>
      <trkpt lat="45.14669" lon="5.64852">
        <ele>1360</ele>
        <time>2014-06-28T07:56:25.000Z</time>
      </trkpt>
      <trkpt lat="45.14669" lon="5.64852">
        <ele>1361</ele>
        <time>2014-06-28T07:56:26.000Z</time>
      </trkpt>
      <trkpt lat="45.14668" lon="5.64852">
        <ele>1361</ele>
        <time>2014-06-28T07:56:27.000Z</time>
      </trkpt>
      <trkpt lat="45.14668" lon="5.64852">
        <ele>1361</ele>
        <time>2014-06-28T07:56:28.000Z</time>
      </trkpt>
      <trkpt lat="45.14667" lon="5.64851">
        <ele>1361</ele>
        <time>2014-06-28T07:56:29.000Z</time>
      </trkpt>
      <trkpt lat="45.14666" lon="5.64851">
        <ele>1362</ele>
        <time>2014-06-28T07:56:30.000Z</time>
      </trkpt>
      <trkpt lat="45.14665" lon="5.64851">
        <ele>1362</ele>
        <time>2014-06-28T07:56:31.000Z</time>
      </trkpt>
      <trkpt lat="45.14664" lon="5.64851">
        <ele>1363</ele>
        <time>2014-06-28T07:56:32.000Z</time>
      </trkpt>
      <trkpt lat="45.14663" lon="5.64851">
        <ele>1363</ele>
        <time>2014-06-28T07:56:33.000Z</time>
      </trkpt>
      <trkpt lat="45.14662" lon="5.64851">
        <ele>1364</ele>
        <time>2014-06-28T07:56:34.000Z</time>
      </trkpt>
      <trkpt lat="45.14662" lon="5.6485">
        <ele>1364</ele>
        <time>2014-06-28T07:56:35.000Z</time>
      </trkpt>
      <trkpt lat="45.14661" lon="5.6485">
        <ele>1364</ele>
        <time>2014-06-28T07:56:36.000Z</time>
      </trkpt>
      <trkpt lat="45.1466" lon="5.64849">
        <ele>1365</ele>
        <time>2014-06-28T07:56:37.000Z</time>
      </trkpt>
      <trkpt lat="45.14659" lon="5.64849">
        <ele>1365</ele>
        <time>2014-06-28T07:56:38.000Z</time>
      </trkpt>
      <trkpt lat="45.14658" lon="5.64848">
        <ele>1365</ele>
        <time>2014-06-28T07:56:39.000Z</time>
      </trkpt>
      <trkpt lat="45.14657" lon="5.64848">
        <ele>1366</ele>
        <time>2014-06-28T07:56:40.000Z</time>
      </trkpt>
      <trkpt lat="45.14656" lon="5.64847">
        <ele>1366</ele>
        <time>2014-06-28T07:56:41.000Z</time>
      </trkpt>
      <trkpt lat="45.14655" lon="5.64847">
        <ele>1366</ele>
        <time>2014-06-28T07:56:42.000Z</time>
      </trkpt>
      <trkpt lat="45.14654" lon="5.64846">
        <ele>1367</ele>
        <time>2014-06-28T07:56:43.000Z</time>
      </trkpt>
      <trkpt lat="45.14654" lon="5.64846">
        <ele>1367</ele>
        <time>2014-06-28T07:56:44.000Z</time>
      </trkpt>
      <trkpt lat="45.14653" lon="5.64846">
        <ele>1367</ele>
        <time>2014-06-28T07:56:45.000Z</time>
      </trkpt>
      <trkpt lat="45.14653" lon="5.64845">
        <ele>1367</ele>
        <time>2014-06-28T07:56:46.000Z</time>
      </trkpt>
      <trkpt lat="45.14653" lon="5.64845">
        <ele>1367</ele>
        <time>2014-06-28T07:56:47.000Z</time>
      </trkpt>
      <trkpt lat="45.14653" lon="5.64845">
        <ele>1368</ele>
        <time>2014-06-28T07:56:48.000Z</time>
      </trkpt>
      <trkpt lat="45.14654" lon="5.64845">
        <ele>1368</ele>
        <time>2014-06-28T07:56:49.000Z</time>
      </trkpt>
      <trkpt lat="45.14654" lon="5.64845">
        <ele>1368</ele>
        <time>2014-06-28T07:56:50.000Z</time>
      </trkpt>
      <trkpt lat="45.14655" lon="5.64844">
        <ele>1368</ele>
        <time>2014-06-28T07:56:51.000Z</time>
      </trkpt>
      <trkpt lat="45.14656" lon="5.64844">
        <ele>1368</ele>
        <time>2014-06-28T07:56:52.000Z</time>
      </trkpt>
      <trkpt lat="45.14656" lon="5.64843">
        <ele>1368</ele>
        <time>2014-06-28T07:56:53.000Z</time>
      </trkpt>
      <trkpt lat="45.14656" lon="5.64843">
        <ele>1368</ele>
        <time>2014-06-28T07:56:54.000Z</time>
      </trkpt>
      <trkpt lat="45.14657" lon="5.64842">
        <ele>1369</ele>
        <time>2014-06-28T07:56:55.000Z</time>
      </trkpt>
      <trkpt lat="45.14658" lon="5.64841">
        <ele>1369</ele>
        <time>2014-06-28T07:56:56.000Z</time>
      </trkpt>
      <trkpt lat="45.14658" lon="5.64841">
        <ele>1369</ele>
        <time>2014-06-28T07:56:57.000Z</time>
      </trkpt>
      <trkpt lat="45.14659" lon="5.6484">
        <ele>1369</ele>
        <time>2014-06-28T07:56:58.000Z</time>
      </trkpt>
      <trkpt lat="45.14659" lon="5.64839">
        <ele>1369</ele>
        <time>2014-06-28T07:56:59.000Z</time>
      </trkpt>
      <trkpt lat="45.14659" lon="5.64838">
        <ele>1369</ele>
        <time>2014-06-28T07:57:00.000Z</time>
      </trkpt>
      <trkpt lat="45.14659" lon="5.64837">
        <ele>1369</ele>
        <time>2014-06-28T07:57:01.000Z</time>
      </trkpt>
      <trkpt lat="45.14659" lon="5.64837">
        <ele>1370</ele>
        <time>2014-06-28T07:57:02.000Z</time>
      </trkpt>
      <trkpt lat="45.14659" lon="5.64836">
        <ele>1370</ele>
        <time>2014-06-28T07:57:03.000Z</time>
      </trkpt>
      <trkpt lat="45.14659" lon="5.64836">
        <ele>1370</ele>
        <time>2014-06-28T07:57:04.000Z</time>
      </trkpt>
      <trkpt lat="45.14659" lon="5.64835">
        <ele>1371</ele>
        <time>2014-06-28T07:57:05.000Z</time>
      </trkpt>
      <trkpt lat="45.14658" lon="5.64835">
        <ele>1371</ele>
        <time>2014-06-28T07:57:06.000Z</time>
      </trkpt>
      <trkpt lat="45.14658" lon="5.64834">
        <ele>1372</ele>
        <time>2014-06-28T07:57:07.000Z</time>
      </trkpt>
      <trkpt lat="45.14658" lon="5.64834">
        <ele>1372</ele>
        <time>2014-06-28T07:57:08.000Z</time>
      </trkpt>
      <trkpt lat="45.14658" lon="5.64834">
        <ele>1372</ele>
        <time>2014-06-28T07:57:09.000Z</time>
      </trkpt>
      <trkpt lat="45.14658" lon="5.64833">
        <ele>1373</ele>
        <time>2014-06-28T07:57:10.000Z</time>
      </trkpt>
      <trkpt lat="45.14658" lon="5.64833">
        <ele>1373</ele>
        <time>2014-06-28T07:57:11.000Z</time>
      </trkpt>
      <trkpt lat="45.14657" lon="5.64833">
        <ele>1373</ele>
        <time>2014-06-28T07:57:12.000Z</time>
      </trkpt>
      <trkpt lat="45.14657" lon="5.64833">
        <ele>1374</ele>
        <time>2014-06-28T07:57:13.000Z</time>
      </trkpt>
      <trkpt lat="45.14657" lon="5.64832">
        <ele>1374</ele>
        <time>2014-06-28T07:57:14.000Z</time>
      </trkpt>
      <trkpt lat="45.14657" lon="5.64832">
        <ele>1375</ele>
        <time>2014-06-28T07:57:15.000Z</time>
      </trkpt>
      <trkpt lat="45.14656" lon="5.64831">
        <ele>1375</ele>
        <time>2014-06-28T07:57:16.000Z</time>
      </trkpt>
      <trkpt lat="45.14656" lon="5.64831">
        <ele>1376</ele>
        <time>2014-06-28T07:57:17.000Z</time>
      </trkpt>
      <trkpt lat="45.14656" lon="5.6483">
        <ele>1376</ele>
        <time>2014-06-28T07:57:18.000Z</time>
      </trkpt>
      <trkpt lat="45.14656" lon="5.6483">
        <ele>1377</ele>
        <time>2014-06-28T07:57:19.000Z</time>
      </trkpt>
      <trkpt lat="45.14656" lon="5.64829">
        <ele>1377</ele>
        <time>2014-06-28T07:57:20.000Z</time>
      </trkpt>
      <trkpt lat="45.14656" lon="5.64828">
        <ele>1377</ele>
        <time>2014-06-28T07:57:21.000Z</time>
      </trkpt>
      <trkpt lat="45.14656" lon="5.64828">
        <ele>1378</ele>
        <time>2014-06-28T07:57:22.000Z</time>
      </trkpt>
      <trkpt lat="45.14656" lon="5.64827">
        <ele>1378</ele>
        <time>2014-06-28T07:57:23.000Z</time>
      </trkpt>
      <trkpt lat="45.14656" lon="5.64827">
        <ele>1378</ele>
        <time>2014-06-28T07:57:24.000Z</time>
      </trkpt>
      <trkpt lat="45.14656" lon="5.64826">
        <ele>1379</ele>
        <time>2014-06-28T07:57:25.000Z</time>
      </trkpt>
      <trkpt lat="45.14657" lon="5.64825">
        <ele>1379</ele>
        <time>2014-06-28T07:57:26.000Z</time>
      </trkpt>
      <trkpt lat="45.14657" lon="5.64825">
        <ele>1379</ele>
        <time>2014-06-28T07:57:27.000Z</time>
      </trkpt>
      <trkpt lat="45.14657" lon="5.64825">
        <ele>1379</ele>
        <time>2014-06-28T07:57:28.000Z</time>
      </trkpt>
      <trkpt lat="45.14657" lon="5.64825">
        <ele>1380</ele>
        <time>2014-06-28T07:57:29.000Z</time>
      </trkpt>
      <trkpt lat="45.14658" lon="5.64824">
        <ele>1380</ele>
        <time>2014-06-28T07:57:30.000Z</time>
      </trkpt>
      <trkpt lat="45.14658" lon="5.64824">
        <ele>1380</ele>
        <time>2014-06-28T07:57:31.000Z</time>
      </trkpt>
      <trkpt lat="45.14658" lon="5.64823">
        <ele>1380</ele>
        <time>2014-06-28T07:57:32.000Z</time>
      </trkpt>
      <trkpt lat="45.14657" lon="5.64822">
        <ele>1380</ele>
        <time>2014-06-28T07:57:33.000Z</time>
      </trkpt>
      <trkpt lat="45.14657" lon="5.64821">
        <ele>1381</ele>
        <time>2014-06-28T07:57:34.000Z</time>
      </trkpt>
      <trkpt lat="45.14656" lon="5.64821">
        <ele>1381</ele>
        <time>2014-06-28T07:57:35.000Z</time>
      </trkpt>
      <trkpt lat="45.14656" lon="5.6482">
        <ele>1381</ele>
        <time>2014-06-28T07:57:36.000Z</time>
      </trkpt>
      <trkpt lat="45.14656" lon="5.6482">
        <ele>1382</ele>
        <time>2014-06-28T07:57:37.000Z</time>
      </trkpt>
      <trkpt lat="45.14655" lon="5.64819">
        <ele>1382</ele>
        <time>2014-06-28T07:57:38.000Z</time>
      </trkpt>
      <trkpt lat="45.14654" lon="5.64819">
        <ele>1383</ele>
        <time>2014-06-28T07:57:39.000Z</time>
      </trkpt>
      <trkpt lat="45.14654" lon="5.64819">
        <ele>1383</ele>
        <time>2014-06-28T07:57:40.000Z</time>
      </trkpt>
      <trkpt lat="45.14653" lon="5.64819">
        <ele>1384</ele>
        <time>2014-06-28T07:57:41.000Z</time>
      </trkpt>
      <trkpt lat="45.14652" lon="5.64819">
        <ele>1384</ele>
        <time>2014-06-28T07:57:42.000Z</time>
      </trkpt>
      <trkpt lat="45.14652" lon="5.64818">
        <ele>1384</ele>
        <time>2014-06-28T07:57:43.000Z</time>
      </trkpt>
      <trkpt lat="45.14652" lon="5.64817">
        <ele>1385</ele>
        <time>2014-06-28T07:57:44.000Z</time>
      </trkpt>
      <trkpt lat="45.14651" lon="5.64817">
        <ele>1385</ele>
        <time>2014-06-28T07:57:45.000Z</time>
      </trkpt>
      <trkpt lat="45.14651" lon="5.64817">
        <ele>1385</ele>
        <time>2014-06-28T07:57:46.000Z</time>
      </trkpt>
      <trkpt lat="45.14651" lon="5.64817">
        <ele>1385</ele>
        <time>2014-06-28T07:57:47.000Z</time>
      </trkpt>
      <trkpt lat="45.14651" lon="5.64817">
        <ele>1386</ele>
        <time>2014-06-28T07:57:48.000Z</time>
      </trkpt>
      <trkpt lat="45.14651" lon="5.64816">
        <ele>1386</ele>
        <time>2014-06-28T07:57:49.000Z</time>
      </trkpt>
      <trkpt lat="45.1465" lon="5.64816">
        <ele>1386</ele>
        <time>2014-06-28T07:57:50.000Z</time>
      </trkpt>
      <trkpt lat="45.1465" lon="5.64815">
        <ele>1386</ele>
        <time>2014-06-28T07:57:51.000Z</time>
      </trkpt>
      <trkpt lat="45.1465" lon="5.64814">
        <ele>1386</ele>
        <time>2014-06-28T07:57:52.000Z</time>
      </trkpt>
      <trkpt lat="45.1465" lon="5.64814">
        <ele>1386</ele>
        <time>2014-06-28T07:57:53.000Z</time>
      </trkpt>
      <trkpt lat="45.1465" lon="5.64814">
        <ele>1387</ele>
        <time>2014-06-28T07:57:54.000Z</time>
      </trkpt>
      <trkpt lat="45.1465" lon="5.64813">
        <ele>1387</ele>
        <time>2014-06-28T07:57:55.000Z</time>
      </trkpt>
      <trkpt lat="45.1465" lon="5.64813">
        <ele>1387</ele>
        <time>2014-06-28T07:57:56.000Z</time>
      </trkpt>
      <trkpt lat="45.14649" lon="5.64813">
        <ele>1387</ele>
        <time>2014-06-28T07:57:57.000Z</time>
      </trkpt>
      <trkpt lat="45.14649" lon="5.64813">
        <ele>1388</ele>
        <time>2014-06-28T07:57:58.000Z</time>
      </trkpt>
      <trkpt lat="45.14649" lon="5.64813">
        <ele>1388</ele>
        <time>2014-06-28T07:57:59.000Z</time>
      </trkpt>
      <trkpt lat="45.14649" lon="5.64812">
        <ele>1389</ele>
        <time>2014-06-28T07:58:00.000Z</time>
      </trkpt>
      <trkpt lat="45.14649" lon="5.64811">
        <ele>1389</ele>
        <time>2014-06-28T07:58:01.000Z</time>
      </trkpt>
      <trkpt lat="45.14648" lon="5.64811">
        <ele>1389</ele>
        <time>2014-06-28T07:58:02.000Z</time>
      </trkpt>
      <trkpt lat="45.14648" lon="5.6481">
        <ele>1389</ele>
        <time>2014-06-28T07:58:03.000Z</time>
      </trkpt>
      <trkpt lat="45.14648" lon="5.64809">
        <ele>1390</ele>
        <time>2014-06-28T07:58:04.000Z</time>
      </trkpt>
      <trkpt lat="45.14648" lon="5.64809">
        <ele>1390</ele>
        <time>2014-06-28T07:58:05.000Z</time>
      </trkpt>
      <trkpt lat="45.14648" lon="5.64809">
        <ele>1390</ele>
        <time>2014-06-28T07:58:06.000Z</time>
      </trkpt>
      <trkpt lat="45.14648" lon="5.64809">
        <ele>1390</ele>
        <time>2014-06-28T07:58:07.000Z</time>
      </trkpt>
      <trkpt lat="45.14648" lon="5.64809">
        <ele>1391</ele>
        <time>2014-06-28T07:58:08.000Z</time>
      </trkpt>
      <trkpt lat="45.14648" lon="5.64808">
        <ele>1391</ele>
        <time>2014-06-28T07:58:09.000Z</time>
      </trkpt>
      <trkpt lat="45.14648" lon="5.64808">
        <ele>1391</ele>
        <time>2014-06-28T07:58:10.000Z</time>
      </trkpt>
      <trkpt lat="45.14648" lon="5.64808">
        <ele>1391</ele>
        <time>2014-06-28T07:58:11.000Z</time>
      </trkpt>
      <trkpt lat="45.14648" lon="5.64808">
        <ele>1391</ele>
        <time>2014-06-28T07:58:12.000Z</time>
      </trkpt>
      <trkpt lat="45.14648" lon="5.64808">
        <ele>1392</ele>
        <time>2014-06-28T07:58:13.000Z</time>
      </trkpt>
      <trkpt lat="45.14648" lon="5.64808">
        <ele>1392</ele>
        <time>2014-06-28T07:58:14.000Z</time>
      </trkpt>
      <trkpt lat="45.14648" lon="5.64809">
        <ele>1392</ele>
        <time>2014-06-28T07:58:15.000Z</time>
      </trkpt>
      <trkpt lat="45.14648" lon="5.64809">
        <ele>1392</ele>
        <time>2014-06-28T07:58:16.000Z</time>
      </trkpt>
      <trkpt lat="45.14648" lon="5.64809">
        <ele>1392</ele>
        <time>2014-06-28T07:58:17.000Z</time>
      </trkpt>
      <trkpt lat="45.14648" lon="5.64809">
        <ele>1392</ele>
        <time>2014-06-28T07:58:18.000Z</time>
      </trkpt>
      <trkpt lat="45.14648" lon="5.64808">
        <ele>1392</ele>
        <time>2014-06-28T07:58:19.000Z</time>
      </trkpt>
      <trkpt lat="45.14648" lon="5.64808">
        <ele>1392</ele>
        <time>2014-06-28T07:58:20.000Z</time>
      </trkpt>
      <trkpt lat="45.14648" lon="5.64808">
        <ele>1392</ele>
        <time>2014-06-28T07:58:21.000Z</time>
      </trkpt>
      <trkpt lat="45.14647" lon="5.64808">
        <ele>1392</ele>
        <time>2014-06-28T07:58:22.000Z</time>
      </trkpt>
      <trkpt lat="45.14647" lon="5.64808">
        <ele>1392</ele>
        <time>2014-06-28T07:58:23.000Z</time>
      </trkpt>
      <trkpt lat="45.14647" lon="5.64808">
        <ele>1392</ele>
        <time>2014-06-28T07:58:24.000Z</time>
      </trkpt>
      <trkpt lat="45.14647" lon="5.64808">
        <ele>1392</ele>
        <time>2014-06-28T07:58:25.000Z</time>
      </trkpt>
      <trkpt lat="45.14647" lon="5.64808">
        <ele>1392</ele>
        <time>2014-06-28T07:58:26.000Z</time>
      </trkpt>
      <trkpt lat="45.14647" lon="5.64808">
        <ele>1392</ele>
        <time>2014-06-28T07:58:27.000Z</time>
      </trkpt>
      <trkpt lat="45.14647" lon="5.64808">
        <ele>1393</ele>
        <time>2014-06-28T07:58:28.000Z</time>
      </trkpt>
      <trkpt lat="45.14647" lon="5.64808">
        <ele>1393</ele>
        <time>2014-06-28T07:58:29.000Z</time>
      </trkpt>
      <trkpt lat="45.14647" lon="5.64809">
        <ele>1393</ele>
        <time>2014-06-28T07:58:30.000Z</time>
      </trkpt>
      <trkpt lat="45.14647" lon="5.64809">
        <ele>1393</ele>
        <time>2014-06-28T07:58:31.000Z</time>
      </trkpt>
      <trkpt lat="45.14647" lon="5.64809">
        <ele>1393</ele>
        <time>2014-06-28T07:58:32.000Z</time>
      </trkpt>
      <trkpt lat="45.14647" lon="5.64809">
        <ele>1393</ele>
        <time>2014-06-28T07:58:33.000Z</time>
      </trkpt>
      <trkpt lat="45.14647" lon="5.64809">
        <ele>1393</ele>
        <time>2014-06-28T07:58:34.000Z</time>
      </trkpt>
      <trkpt lat="45.14647" lon="5.64809">
        <ele>1393</ele>
        <time>2014-06-28T07:58:35.000Z</time>
      </trkpt>
      <trkpt lat="45.14647" lon="5.64809">
        <ele>1393</ele>
        <time>2014-06-28T07:58:36.000Z</time>
      </trkpt>
      <trkpt lat="45.14647" lon="5.64809">
        <ele>1393</ele>
        <time>2014-06-28T07:58:37.000Z</time>
      </trkpt>
      <trkpt lat="45.14647" lon="5.6481">
        <ele>1394</ele>
        <time>2014-06-28T07:58:38.000Z</time>
      </trkpt>
      <trkpt lat="45.14647" lon="5.6481">
        <ele>1394</ele>
        <time>2014-06-28T07:58:39.000Z</time>
      </trkpt>
      <trkpt lat="45.14646" lon="5.6481">
        <ele>1394</ele>
        <time>2014-06-28T07:58:40.000Z</time>
      </trkpt>
      <trkpt lat="45.14646" lon="5.6481">
        <ele>1394</ele>
        <time>2014-06-28T07:58:41.000Z</time>
      </trkpt>
      <trkpt lat="45.14646" lon="5.6481">
        <ele>1394</ele>
        <time>2014-06-28T07:58:42.000Z</time>
      </trkpt>
      <trkpt lat="45.14646" lon="5.6481">
        <ele>1394</ele>
        <time>2014-06-28T07:58:43.000Z</time>
      </trkpt>
      <trkpt lat="45.14646" lon="5.64811">
        <ele>1394</ele>
        <time>2014-06-28T07:58:44.000Z</time>
      </trkpt>
      <trkpt lat="45.14646" lon="5.64811">
        <ele>1394</ele>
        <time>2014-06-28T07:58:45.000Z</time>
      </trkpt>
      <trkpt lat="45.14646" lon="5.64811">
        <ele>1394</ele>
        <time>2014-06-28T07:58:46.000Z</time>
      </trkpt>
      <trkpt lat="45.14646" lon="5.64811">
        <ele>1395</ele>
        <time>2014-06-28T07:58:47.000Z</time>
      </trkpt>
      <trkpt lat="45.14646" lon="5.64811">
        <ele>1395</ele>
        <time>2014-06-28T07:58:48.000Z</time>
      </trkpt>
      <trkpt lat="45.14646" lon="5.64811">
        <ele>1395</ele>
        <time>2014-06-28T07:58:49.000Z</time>
      </trkpt>
      <trkpt lat="45.14646" lon="5.64811">
        <ele>1395</ele>
        <time>2014-06-28T07:58:50.000Z</time>
      </trkpt>
      <trkpt lat="45.14646" lon="5.64811">
        <ele>1395</ele>
        <time>2014-06-28T07:58:51.000Z</time>
      </trkpt>
      <trkpt lat="45.14646" lon="5.64811">
        <ele>1395</ele>
        <time>2014-06-28T07:58:52.000Z</time>
      </trkpt>
      <trkpt lat="45.14646" lon="5.64811">
        <ele>1395</ele>
        <time>2014-06-28T07:58:53.000Z</time>
      </trkpt>
      <trkpt lat="45.14646" lon="5.64811">
        <ele>1395</ele>
        <time>2014-06-28T07:58:54.000Z</time>
      </trkpt>
      <trkpt lat="45.14646" lon="5.64811">
        <ele>1395</ele>
        <time>2014-06-28T07:58:55.000Z</time>
      </trkpt>
      <trkpt lat="45.14646" lon="5.64812">
        <ele>1395</ele>
        <time>2014-06-28T07:58:56.000Z</time>
      </trkpt>
      <trkpt lat="45.14646" lon="5.64812">
        <ele>1395</ele>
        <time>2014-06-28T07:58:57.000Z</time>
      </trkpt>
      <trkpt lat="45.14646" lon="5.64812">
        <ele>1395</ele>
        <time>2014-06-28T07:58:58.000Z</time>
      </trkpt>
      <trkpt lat="45.14646" lon="5.64812">
        <ele>1395</ele>
        <time>2014-06-28T07:58:59.000Z</time>
      </trkpt>
      <trkpt lat="45.14646" lon="5.64812">
        <ele>1395</ele>
        <time>2014-06-28T07:59:00.000Z</time>
      </trkpt>
      <trkpt lat="45.14646" lon="5.64812">
        <ele>1395</ele>
        <time>2014-06-28T07:59:01.000Z</time>
      </trkpt>
      <trkpt lat="45.14646" lon="5.64812">
        <ele>1395</ele>
        <time>2014-06-28T07:59:02.000Z</time>
      </trkpt>
      <trkpt lat="45.14646" lon="5.64812">
        <ele>1395</ele>
        <time>2014-06-28T07:59:03.000Z</time>
      </trkpt>
      <trkpt lat="45.14646" lon="5.64812">
        <ele>1395</ele>
        <time>2014-06-28T07:59:04.000Z</time>
      </trkpt>
      <trkpt lat="45.14646" lon="5.64812">
        <ele>1395</ele>
        <time>2014-06-28T07:59:05.000Z</time>
      </trkpt>
      <trkpt lat="45.14646" lon="5.64812">
        <ele>1395</ele>
        <time>2014-06-28T07:59:06.000Z</time>
      </trkpt>
      <trkpt lat="45.14646" lon="5.64812">
        <ele>1395</ele>
        <time>2014-06-28T07:59:07.000Z</time>
      </trkpt>
      <trkpt lat="45.14646" lon="5.64812">
        <ele>1395</ele>
        <time>2014-06-28T07:59:08.000Z</time>
      </trkpt>
      <trkpt lat="45.14646" lon="5.64812">
        <ele>1395</ele>
        <time>2014-06-28T07:59:09.000Z</time>
      </trkpt>
      <trkpt lat="45.14646" lon="5.64812">
        <ele>1395</ele>
        <time>2014-06-28T07:59:10.000Z</time>
      </trkpt>
      <trkpt lat="45.14646" lon="5.64812">
        <ele>1395</ele>
        <time>2014-06-28T07:59:11.000Z</time>
      </trkpt>
      <trkpt lat="45.14646" lon="5.64812">
        <ele>1395</ele>
        <time>2014-06-28T07:59:12.000Z</time>
      </trkpt>
      <trkpt lat="45.14646" lon="5.64812">
        <ele>1395</ele>
        <time>2014-06-28T07:59:13.000Z</time>
      </trkpt>
      <trkpt lat="45.14646" lon="5.64812">
        <ele>1395</ele>
        <time>2014-06-28T07:59:14.000Z</time>
      </trkpt>
      <trkpt lat="45.14646" lon="5.64812">
        <ele>1395</ele>
        <time>2014-06-28T07:59:15.000Z</time>
      </trkpt>
      <trkpt lat="45.14646" lon="5.64812">
        <ele>1395</ele>
        <time>2014-06-28T07:59:16.000Z</time>
      </trkpt>
      <trkpt lat="45.14646" lon="5.64812">
        <ele>1395</ele>
        <time>2014-06-28T07:59:17.000Z</time>
      </trkpt>
      <trkpt lat="45.14646" lon="5.64812">
        <ele>1395</ele>
        <time>2014-06-28T07:59:18.000Z</time>
      </trkpt>
      <trkpt lat="45.14646" lon="5.64812">
        <ele>1395</ele>
        <time>2014-06-28T07:59:19.000Z</time>
      </trkpt>
      <trkpt lat="45.14646" lon="5.64812">
        <ele>1395</ele>
        <time>2014-06-28T07:59:20.000Z</time>
      </trkpt>
      <trkpt lat="45.14646" lon="5.64812">
        <ele>1395</ele>
        <time>2014-06-28T07:59:21.000Z</time>
      </trkpt>
      <trkpt lat="45.14646" lon="5.64812">
        <ele>1395</ele>
        <time>2014-06-28T07:59:22.000Z</time>
      </trkpt>
      <trkpt lat="45.14646" lon="5.64812">
        <ele>1395</ele>
        <time>2014-06-28T07:59:23.000Z</time>
      </trkpt>
      <trkpt lat="45.14646" lon="5.64812">
        <ele>1395</ele>
        <time>2014-06-28T07:59:24.000Z</time>
      </trkpt>
      <trkpt lat="45.14646" lon="5.64812">
        <ele>1395</ele>
        <time>2014-06-28T07:59:25.000Z</time>
      </trkpt>
      <trkpt lat="45.14646" lon="5.64812">
        <ele>1395</ele>
        <time>2014-06-28T07:59:26.000Z</time>
      </trkpt>
      <trkpt lat="45.14646" lon="5.64813">
        <ele>1395</ele>
        <time>2014-06-28T07:59:27.000Z</time>
      </trkpt>
      <trkpt lat="45.14646" lon="5.64813">
        <ele>1395</ele>
        <time>2014-06-28T07:59:28.000Z</time>
      </trkpt>
      <trkpt lat="45.14646" lon="5.64812">
        <ele>1395</ele>
        <time>2014-06-28T07:59:29.000Z</time>
      </trkpt>
      <trkpt lat="45.14646" lon="5.64813">
        <ele>1395</ele>
        <time>2014-06-28T07:59:30.000Z</time>
      </trkpt>
      <trkpt lat="45.14646" lon="5.64812">
        <ele>1395</ele>
        <time>2014-06-28T07:59:31.000Z</time>
      </trkpt>
      <trkpt lat="45.14646" lon="5.64812">
        <ele>1395</ele>
        <time>2014-06-28T07:59:32.000Z</time>
      </trkpt>
      <trkpt lat="45.14646" lon="5.64812">
        <ele>1395</ele>
        <time>2014-06-28T07:59:33.000Z</time>
      </trkpt>
      <trkpt lat="45.14645" lon="5.64812">
        <ele>1395</ele>
        <time>2014-06-28T07:59:34.000Z</time>
      </trkpt>
      <trkpt lat="45.14645" lon="5.64812">
        <ele>1395</ele>
        <time>2014-06-28T07:59:35.000Z</time>
      </trkpt>
      <trkpt lat="45.14645" lon="5.64812">
        <ele>1395</ele>
        <time>2014-06-28T07:59:36.000Z</time>
      </trkpt>
      <trkpt lat="45.14645" lon="5.64812">
        <ele>1395</ele>
        <time>2014-06-28T07:59:37.000Z</time>
      </trkpt>
      <trkpt lat="45.14645" lon="5.64813">
        <ele>1395</ele>
        <time>2014-06-28T07:59:38.000Z</time>
      </trkpt>
      <trkpt lat="45.14645" lon="5.64813">
        <ele>1395</ele>
        <time>2014-06-28T07:59:39.000Z</time>
      </trkpt>
      <trkpt lat="45.14645" lon="5.64813">
        <ele>1395</ele>
        <time>2014-06-28T07:59:40.000Z</time>
      </trkpt>
      <trkpt lat="45.14645" lon="5.64813">
        <ele>1395</ele>
        <time>2014-06-28T07:59:41.000Z</time>
      </trkpt>
      <trkpt lat="45.14645" lon="5.64813">
        <ele>1395</ele>
        <time>2014-06-28T07:59:42.000Z</time>
      </trkpt>
      <trkpt lat="45.14645" lon="5.64813">
        <ele>1395</ele>
        <time>2014-06-28T07:59:43.000Z</time>
      </trkpt>
      <trkpt lat="45.14646" lon="5.64813">
        <ele>1395</ele>
        <time>2014-06-28T07:59:44.000Z</time>
      </trkpt>
      <trkpt lat="45.14646" lon="5.64813">
        <ele>1395</ele>
        <time>2014-06-28T07:59:45.000Z</time>
      </trkpt>
      <trkpt lat="45.14646" lon="5.64813">
        <ele>1395</ele>
        <time>2014-06-28T07:59:46.000Z</time>
      </trkpt>
      <trkpt lat="45.14646" lon="5.64813">
        <ele>1395</ele>
        <time>2014-06-28T07:59:47.000Z</time>
      </trkpt>
      <trkpt lat="45.14646" lon="5.64813">
        <ele>1396</ele>
        <time>2014-06-28T07:59:48.000Z</time>
      </trkpt>
      <trkpt lat="45.14646" lon="5.64813">
        <ele>1396</ele>
        <time>2014-06-28T07:59:49.000Z</time>
      </trkpt>
      <trkpt lat="45.14646" lon="5.64813">
        <ele>1396</ele>
        <time>2014-06-28T07:59:50.000Z</time>
      </trkpt>
      <trkpt lat="45.14646" lon="5.64813">
        <ele>1396</ele>
        <time>2014-06-28T07:59:51.000Z</time>
      </trkpt>
      <trkpt lat="45.14646" lon="5.64813">
        <ele>1396</ele>
        <time>2014-06-28T07:59:52.000Z</time>
      </trkpt>
      <trkpt lat="45.14646" lon="5.64813">
        <ele>1396</ele>
        <time>2014-06-28T07:59:53.000Z</time>
      </trkpt>
      <trkpt lat="45.14646" lon="5.64813">
        <ele>1396</ele>
        <time>2014-06-28T07:59:54.000Z</time>
      </trkpt>
      <trkpt lat="45.14646" lon="5.64813">
        <ele>1396</ele>
        <time>2014-06-28T07:59:55.000Z</time>
      </trkpt>
      <trkpt lat="45.14646" lon="5.64813">
        <ele>1396</ele>
        <time>2014-06-28T07:59:56.000Z</time>
      </trkpt>
      <trkpt lat="45.14646" lon="5.64813">
        <ele>1396</ele>
        <time>2014-06-28T07:59:57.000Z</time>
      </trkpt>
      <trkpt lat="45.14646" lon="5.64813">
        <ele>1396</ele>
        <time>2014-06-28T07:59:58.000Z</time>
      </trkpt>
      <trkpt lat="45.14646" lon="5.64813">
        <ele>1396</ele>
        <time>2014-06-28T07:59:59.000Z</time>
      </trkpt>
      <trkpt lat="45.14646" lon="5.64813">
        <ele>1396</ele>
        <time>2014-06-28T08:00:00.000Z</time>
      </trkpt>
      <trkpt lat="45.14646" lon="5.64813">
        <ele>1396</ele>
        <time>2014-06-28T08:00:01.000Z</time>
      </trkpt>
      <trkpt lat="45.14646" lon="5.64813">
        <ele>1396</ele>
        <time>2014-06-28T08:00:02.000Z</time>
      </trkpt>
      <trkpt lat="45.14646" lon="5.64813">
        <ele>1396</ele>
        <time>2014-06-28T08:00:03.000Z</time>
      </trkpt>
      <trkpt lat="45.14646" lon="5.64813">
        <ele>1396</ele>
        <time>2014-06-28T08:00:04.000Z</time>
      </trkpt>
      <trkpt lat="45.14646" lon="5.64813">
        <ele>1396</ele>
        <time>2014-06-28T08:00:05.000Z</time>
      </trkpt>
      <trkpt lat="45.14646" lon="5.64813">
        <ele>1396</ele>
        <time>2014-06-28T08:00:06.000Z</time>
      </trkpt>
      <trkpt lat="45.14646" lon="5.64813">
        <ele>1396</ele>
        <time>2014-06-28T08:00:07.000Z</time>
      </trkpt>
      <trkpt lat="45.14646" lon="5.64813">
        <ele>1396</ele>
        <time>2014-06-28T08:00:08.000Z</time>
      </trkpt>
      <trkpt lat="45.14646" lon="5.64813">
        <ele>1396</ele>
        <time>2014-06-28T08:00:09.000Z</time>
      </trkpt>
      <trkpt lat="45.14646" lon="5.64814">
        <ele>1396</ele>
        <time>2014-06-28T08:00:10.000Z</time>
      </trkpt>
      <trkpt lat="45.14646" lon="5.64814">
        <ele>1396</ele>
        <time>2014-06-28T08:00:11.000Z</time>
      </trkpt>
      <trkpt lat="45.14646" lon="5.64814">
        <ele>1396</ele>
        <time>2014-06-28T08:00:12.000Z</time>
      </trkpt>
      <trkpt lat="45.14646" lon="5.64814">
        <ele>1396</ele>
        <time>2014-06-28T08:00:13.000Z</time>
      </trkpt>
      <trkpt lat="45.14646" lon="5.64814">
        <ele>1396</ele>
        <time>2014-06-28T08:00:14.000Z</time>
      </trkpt>
      <trkpt lat="45.14646" lon="5.64814">
        <ele>1396</ele>
        <time>2014-06-28T08:00:15.000Z</time>
      </trkpt>
      <trkpt lat="45.14646" lon="5.64814">
        <ele>1396</ele>
        <time>2014-06-28T08:00:16.000Z</time>
      </trkpt>
      <trkpt lat="45.14646" lon="5.64814">
        <ele>1396</ele>
        <time>2014-06-28T08:00:17.000Z</time>
      </trkpt>
      <trkpt lat="45.14646" lon="5.64814">
        <ele>1396</ele>
        <time>2014-06-28T08:00:18.000Z</time>
      </trkpt>
      <trkpt lat="45.14646" lon="5.64814">
        <ele>1396</ele>
        <time>2014-06-28T08:00:19.000Z</time>
      </trkpt>
      <trkpt lat="45.14646" lon="5.64814">
        <ele>1396</ele>
        <time>2014-06-28T08:00:20.000Z</time>
      </trkpt>
      <trkpt lat="45.14646" lon="5.64814">
        <ele>1396</ele>
        <time>2014-06-28T08:00:21.000Z</time>
      </trkpt>
      <trkpt lat="45.14646" lon="5.64814">
        <ele>1396</ele>
        <time>2014-06-28T08:00:22.000Z</time>
      </trkpt>
      <trkpt lat="45.14646" lon="5.64814">
        <ele>1396</ele>
        <time>2014-06-28T08:00:23.000Z</time>
      </trkpt>
      <trkpt lat="45.14646" lon="5.64814">
        <ele>1396</ele>
        <time>2014-06-28T08:00:24.000Z</time>
      </trkpt>
      <trkpt lat="45.14646" lon="5.64814">
        <ele>1396</ele>
        <time>2014-06-28T08:00:25.000Z</time>
      </trkpt>
      <trkpt lat="45.14646" lon="5.64814">
        <ele>1396</ele>
        <time>2014-06-28T08:00:26.000Z</time>
      </trkpt>
      <trkpt lat="45.14646" lon="5.64814">
        <ele>1396</ele>
        <time>2014-06-28T08:00:27.000Z</time>
      </trkpt>
      <trkpt lat="45.14646" lon="5.64814">
        <ele>1396</ele>
        <time>2014-06-28T08:00:28.000Z</time>
      </trkpt>
      <trkpt lat="45.14646" lon="5.64814">
        <ele>1396</ele>
        <time>2014-06-28T08:00:29.000Z</time>
      </trkpt>
      <trkpt lat="45.14646" lon="5.64814">
        <ele>1396</ele>
        <time>2014-06-28T08:00:30.000Z</time>
      </trkpt>
      <trkpt lat="45.14646" lon="5.64814">
        <ele>1396</ele>
        <time>2014-06-28T08:00:31.000Z</time>
      </trkpt>
      <trkpt lat="45.14646" lon="5.64814">
        <ele>1396</ele>
        <time>2014-06-28T08:00:32.000Z</time>
      </trkpt>
      <trkpt lat="45.14646" lon="5.64814">
        <ele>1396</ele>
        <time>2014-06-28T08:00:33.000Z</time>
      </trkpt>
      <trkpt lat="45.14646" lon="5.64814">
        <ele>1396</ele>
        <time>2014-06-28T08:00:34.000Z</time>
      </trkpt>
      <trkpt lat="45.14646" lon="5.64814">
        <ele>1396</ele>
        <time>2014-06-28T08:00:35.000Z</time>
      </trkpt>
      <trkpt lat="45.14646" lon="5.64814">
        <ele>1396</ele>
        <time>2014-06-28T08:00:36.000Z</time>
      </trkpt>
      <trkpt lat="45.14646" lon="5.64814">
        <ele>1396</ele>
        <time>2014-06-28T08:00:37.000Z</time>
      </trkpt>
      <trkpt lat="45.14646" lon="5.64815">
        <ele>1396</ele>
        <time>2014-06-28T08:00:38.000Z</time>
      </trkpt>
      <trkpt lat="45.14646" lon="5.64815">
        <ele>1396</ele>
        <time>2014-06-28T08:00:39.000Z</time>
      </trkpt>
      <trkpt lat="45.14646" lon="5.64815">
        <ele>1396</ele>
        <time>2014-06-28T08:00:40.000Z</time>
      </trkpt>
      <trkpt lat="45.14645" lon="5.64815">
        <ele>1396</ele>
        <time>2014-06-28T08:00:41.000Z</time>
      </trkpt>
      <trkpt lat="45.14645" lon="5.64815">
        <ele>1396</ele>
        <time>2014-06-28T08:00:42.000Z</time>
      </trkpt>
      <trkpt lat="45.14645" lon="5.64815">
        <ele>1396</ele>
        <time>2014-06-28T08:00:43.000Z</time>
      </trkpt>
      <trkpt lat="45.14645" lon="5.64815">
        <ele>1396</ele>
        <time>2014-06-28T08:00:44.000Z</time>
      </trkpt>
      <trkpt lat="45.14645" lon="5.64815">
        <ele>1396</ele>
        <time>2014-06-28T08:00:45.000Z</time>
      </trkpt>
      <trkpt lat="45.14645" lon="5.64815">
        <ele>1397</ele>
        <time>2014-06-28T08:00:46.000Z</time>
      </trkpt>
      <trkpt lat="45.14645" lon="5.64815">
        <ele>1397</ele>
        <time>2014-06-28T08:00:47.000Z</time>
      </trkpt>
      <trkpt lat="45.14645" lon="5.64815">
        <ele>1397</ele>
        <time>2014-06-28T08:00:48.000Z</time>
      </trkpt>
      <trkpt lat="45.14645" lon="5.64815">
        <ele>1397</ele>
        <time>2014-06-28T08:00:49.000Z</time>
      </trkpt>
      <trkpt lat="45.14645" lon="5.64815">
        <ele>1397</ele>
        <time>2014-06-28T08:00:50.000Z</time>
      </trkpt>
      <trkpt lat="45.14645" lon="5.64815">
        <ele>1397</ele>
        <time>2014-06-28T08:00:51.000Z</time>
      </trkpt>
      <trkpt lat="45.14645" lon="5.64815">
        <ele>1397</ele>
        <time>2014-06-28T08:00:52.000Z</time>
      </trkpt>
      <trkpt lat="45.14645" lon="5.64815">
        <ele>1397</ele>
        <time>2014-06-28T08:00:53.000Z</time>
      </trkpt>
      <trkpt lat="45.14645" lon="5.64815">
        <ele>1397</ele>
        <time>2014-06-28T08:00:54.000Z</time>
      </trkpt>
      <trkpt lat="45.14645" lon="5.64815">
        <ele>1397</ele>
        <time>2014-06-28T08:00:55.000Z</time>
      </trkpt>
      <trkpt lat="45.14645" lon="5.64815">
        <ele>1397</ele>
        <time>2014-06-28T08:00:56.000Z</time>
      </trkpt>
      <trkpt lat="45.14645" lon="5.64816">
        <ele>1397</ele>
        <time>2014-06-28T08:00:57.000Z</time>
      </trkpt>
      <trkpt lat="45.14645" lon="5.64816">
        <ele>1397</ele>
        <time>2014-06-28T08:00:58.000Z</time>
      </trkpt>
      <trkpt lat="45.14645" lon="5.64816">
        <ele>1397</ele>
        <time>2014-06-28T08:00:59.000Z</time>
      </trkpt>
      <trkpt lat="45.14645" lon="5.64816">
        <ele>1397</ele>
        <time>2014-06-28T08:01:00.000Z</time>
      </trkpt>
      <trkpt lat="45.14645" lon="5.64816">
        <ele>1397</ele>
        <time>2014-06-28T08:01:01.000Z</time>
      </trkpt>
      <trkpt lat="45.14645" lon="5.64816">
        <ele>1397</ele>
        <time>2014-06-28T08:01:02.000Z</time>
      </trkpt>
      <trkpt lat="45.14645" lon="5.64816">
        <ele>1397</ele>
        <time>2014-06-28T08:01:03.000Z</time>
      </trkpt>
      <trkpt lat="45.14645" lon="5.64816">
        <ele>1397</ele>
        <time>2014-06-28T08:01:04.000Z</time>
      </trkpt>
      <trkpt lat="45.14645" lon="5.64816">
        <ele>1397</ele>
        <time>2014-06-28T08:01:05.000Z</time>
      </trkpt>
      <trkpt lat="45.14645" lon="5.64816">
        <ele>1397</ele>
        <time>2014-06-28T08:01:06.000Z</time>
      </trkpt>
      <trkpt lat="45.14645" lon="5.64816">
        <ele>1397</ele>
        <time>2014-06-28T08:01:07.000Z</time>
      </trkpt>
      <trkpt lat="45.14645" lon="5.64816">
        <ele>1397</ele>
        <time>2014-06-28T08:01:08.000Z</time>
      </trkpt>
      <trkpt lat="45.14645" lon="5.64816">
        <ele>1397</ele>
        <time>2014-06-28T08:01:09.000Z</time>
      </trkpt>
      <trkpt lat="45.14645" lon="5.64816">
        <ele>1397</ele>
        <time>2014-06-28T08:01:10.000Z</time>
      </trkpt>
      <trkpt lat="45.14645" lon="5.64816">
        <ele>1397</ele>
        <time>2014-06-28T08:01:11.000Z</time>
      </trkpt>
      <trkpt lat="45.14645" lon="5.64816">
        <ele>1397</ele>
        <time>2014-06-28T08:01:12.000Z</time>
      </trkpt>
      <trkpt lat="45.14646" lon="5.64816">
        <ele>1397</ele>
        <time>2014-06-28T08:01:13.000Z</time>
      </trkpt>
      <trkpt lat="45.14646" lon="5.64817">
        <ele>1397</ele>
        <time>2014-06-28T08:01:14.000Z</time>
      </trkpt>
      <trkpt lat="45.14646" lon="5.64817">
        <ele>1397</ele>
        <time>2014-06-28T08:01:15.000Z</time>
      </trkpt>
      <trkpt lat="45.14646" lon="5.64818">
        <ele>1397</ele>
        <time>2014-06-28T08:01:16.000Z</time>
      </trkpt>
      <trkpt lat="45.14646" lon="5.64818">
        <ele>1397</ele>
        <time>2014-06-28T08:01:17.000Z</time>
      </trkpt>
      <trkpt lat="45.14646" lon="5.64818">
        <ele>1397</ele>
        <time>2014-06-28T08:01:18.000Z</time>
      </trkpt>
      <trkpt lat="45.14646" lon="5.64818">
        <ele>1397</ele>
        <time>2014-06-28T08:01:19.000Z</time>
      </trkpt>
      <trkpt lat="45.14646" lon="5.64818">
        <ele>1397</ele>
        <time>2014-06-28T08:01:20.000Z</time>
      </trkpt>
      <trkpt lat="45.14646" lon="5.64818">
        <ele>1397</ele>
        <time>2014-06-28T08:01:21.000Z</time>
      </trkpt>
      <trkpt lat="45.14646" lon="5.64818">
        <ele>1397</ele>
        <time>2014-06-28T08:01:22.000Z</time>
      </trkpt>
      <trkpt lat="45.14646" lon="5.64818">
        <ele>1397</ele>
        <time>2014-06-28T08:01:23.000Z</time>
      </trkpt>
      <trkpt lat="45.14646" lon="5.64818">
        <ele>1397</ele>
        <time>2014-06-28T08:01:24.000Z</time>
      </trkpt>
      <trkpt lat="45.14646" lon="5.64818">
        <ele>1397</ele>
        <time>2014-06-28T08:01:25.000Z</time>
      </trkpt>
      <trkpt lat="45.14646" lon="5.64818">
        <ele>1397</ele>
        <time>2014-06-28T08:01:26.000Z</time>
      </trkpt>
      <trkpt lat="45.14646" lon="5.64818">
        <ele>1397</ele>
        <time>2014-06-28T08:01:27.000Z</time>
      </trkpt>
      <trkpt lat="45.14646" lon="5.64818">
        <ele>1397</ele>
        <time>2014-06-28T08:01:28.000Z</time>
      </trkpt>
      <trkpt lat="45.14646" lon="5.64818">
        <ele>1397</ele>
        <time>2014-06-28T08:01:29.000Z</time>
      </trkpt>
      <trkpt lat="45.14646" lon="5.64818">
        <ele>1397</ele>
        <time>2014-06-28T08:01:30.000Z</time>
      </trkpt>
      <trkpt lat="45.14646" lon="5.64818">
        <ele>1397</ele>
        <time>2014-06-28T08:01:31.000Z</time>
      </trkpt>
      <trkpt lat="45.14646" lon="5.64818">
        <ele>1397</ele>
        <time>2014-06-28T08:01:32.000Z</time>
      </trkpt>
      <trkpt lat="45.14646" lon="5.64818">
        <ele>1397</ele>
        <time>2014-06-28T08:01:33.000Z</time>
      </trkpt>
      <trkpt lat="45.14646" lon="5.64819">
        <ele>1397</ele>
        <time>2014-06-28T08:01:34.000Z</time>
      </trkpt>
      <trkpt lat="45.14646" lon="5.64819">
        <ele>1397</ele>
        <time>2014-06-28T08:01:35.000Z</time>
      </trkpt>
      <trkpt lat="45.14646" lon="5.64819">
        <ele>1397</ele>
        <time>2014-06-28T08:01:36.000Z</time>
      </trkpt>
      <trkpt lat="45.14646" lon="5.64819">
        <ele>1397</ele>
        <time>2014-06-28T08:01:37.000Z</time>
      </trkpt>
      <trkpt lat="45.14646" lon="5.64819">
        <ele>1397</ele>
        <time>2014-06-28T08:01:38.000Z</time>
      </trkpt>
      <trkpt lat="45.14646" lon="5.64819">
        <ele>1397</ele>
        <time>2014-06-28T08:01:39.000Z</time>
      </trkpt>
      <trkpt lat="45.14646" lon="5.64818">
        <ele>1397</ele>
        <time>2014-06-28T08:01:40.000Z</time>
      </trkpt>
      <trkpt lat="45.14646" lon="5.64818">
        <ele>1397</ele>
        <time>2014-06-28T08:01:41.000Z</time>
      </trkpt>
      <trkpt lat="45.14646" lon="5.64818">
        <ele>1397</ele>
        <time>2014-06-28T08:01:42.000Z</time>
      </trkpt>
      <trkpt lat="45.14646" lon="5.64818">
        <ele>1397</ele>
        <time>2014-06-28T08:01:43.000Z</time>
      </trkpt>
      <trkpt lat="45.14646" lon="5.64818">
        <ele>1397</ele>
        <time>2014-06-28T08:01:44.000Z</time>
      </trkpt>
      <trkpt lat="45.14646" lon="5.64818">
        <ele>1397</ele>
        <time>2014-06-28T08:01:45.000Z</time>
      </trkpt>
      <trkpt lat="45.14646" lon="5.64818">
        <ele>1397</ele>
        <time>2014-06-28T08:01:46.000Z</time>
      </trkpt>
      <trkpt lat="45.14646" lon="5.64818">
        <ele>1397</ele>
        <time>2014-06-28T08:01:47.000Z</time>
      </trkpt>
      <trkpt lat="45.14646" lon="5.64818">
        <ele>1397</ele>
        <time>2014-06-28T08:01:48.000Z</time>
      </trkpt>
      <trkpt lat="45.14646" lon="5.64818">
        <ele>1397</ele>
        <time>2014-06-28T08:01:49.000Z</time>
      </trkpt>
      <trkpt lat="45.14646" lon="5.64818">
        <ele>1397</ele>
        <time>2014-06-28T08:01:50.000Z</time>
      </trkpt>
      <trkpt lat="45.14646" lon="5.64818">
        <ele>1397</ele>
        <time>2014-06-28T08:01:51.000Z</time>
      </trkpt>
      <trkpt lat="45.14646" lon="5.64818">
        <ele>1397</ele>
        <time>2014-06-28T08:01:52.000Z</time>
      </trkpt>
      <trkpt lat="45.14646" lon="5.64818">
        <ele>1397</ele>
        <time>2014-06-28T08:01:53.000Z</time>
      </trkpt>
      <trkpt lat="45.14646" lon="5.64818">
        <ele>1397</ele>
        <time>2014-06-28T08:01:54.000Z</time>
      </trkpt>
      <trkpt lat="45.14646" lon="5.64818">
        <ele>1397</ele>
        <time>2014-06-28T08:01:55.000Z</time>
      </trkpt>
      <trkpt lat="45.14646" lon="5.64818">
        <ele>1397</ele>
        <time>2014-06-28T08:01:56.000Z</time>
      </trkpt>
      <trkpt lat="45.14646" lon="5.64818">
        <ele>1397</ele>
        <time>2014-06-28T08:01:57.000Z</time>
      </trkpt>
      <trkpt lat="45.14646" lon="5.64818">
        <ele>1397</ele>
        <time>2014-06-28T08:01:58.000Z</time>
      </trkpt>
      <trkpt lat="45.14646" lon="5.64818">
        <ele>1397</ele>
        <time>2014-06-28T08:01:59.000Z</time>
      </trkpt>
      <trkpt lat="45.14646" lon="5.64818">
        <ele>1397</ele>
        <time>2014-06-28T08:02:00.000Z</time>
      </trkpt>
      <trkpt lat="45.14646" lon="5.64818">
        <ele>1397</ele>
        <time>2014-06-28T08:02:01.000Z</time>
      </trkpt>
      <trkpt lat="45.14646" lon="5.64818">
        <ele>1397</ele>
        <time>2014-06-28T08:02:02.000Z</time>
      </trkpt>
      <trkpt lat="45.14646" lon="5.64818">
        <ele>1397</ele>
        <time>2014-06-28T08:02:03.000Z</time>
      </trkpt>
      <trkpt lat="45.14646" lon="5.64818">
        <ele>1397</ele>
        <time>2014-06-28T08:02:04.000Z</time>
      </trkpt>
      <trkpt lat="45.14646" lon="5.64818">
        <ele>1397</ele>
        <time>2014-06-28T08:02:05.000Z</time>
      </trkpt>
      <trkpt lat="45.14646" lon="5.64818">
        <ele>1397</ele>
        <time>2014-06-28T08:02:06.000Z</time>
      </trkpt>
      <trkpt lat="45.14646" lon="5.64818">
        <ele>1397</ele>
        <time>2014-06-28T08:02:07.000Z</time>
      </trkpt>
      <trkpt lat="45.14646" lon="5.64818">
        <ele>1397</ele>
        <time>2014-06-28T08:02:08.000Z</time>
      </trkpt>
      <trkpt lat="45.14646" lon="5.64818">
        <ele>1397</ele>
        <time>2014-06-28T08:02:09.000Z</time>
      </trkpt>
      <trkpt lat="45.14646" lon="5.64818">
        <ele>1397</ele>
        <time>2014-06-28T08:02:10.000Z</time>
      </trkpt>
      <trkpt lat="45.14646" lon="5.64818">
        <ele>1397</ele>
        <time>2014-06-28T08:02:11.000Z</time>
      </trkpt>
      <trkpt lat="45.14646" lon="5.64818">
        <ele>1397</ele>
        <time>2014-06-28T08:02:12.000Z</time>
      </trkpt>
      <trkpt lat="45.14646" lon="5.64818">
        <ele>1397</ele>
        <time>2014-06-28T08:02:13.000Z</time>
      </trkpt>
      <trkpt lat="45.14646" lon="5.64818">
        <ele>1397</ele>
        <time>2014-06-28T08:02:14.000Z</time>
      </trkpt>
      <trkpt lat="45.14646" lon="5.64818">
        <ele>1397</ele>
        <time>2014-06-28T08:02:15.000Z</time>
      </trkpt>
      <trkpt lat="45.14646" lon="5.64818">
        <ele>1397</ele>
        <time>2014-06-28T08:02:16.000Z</time>
      </trkpt>
      <trkpt lat="45.14646" lon="5.64818">
        <ele>1397</ele>
        <time>2014-06-28T08:02:17.000Z</time>
      </trkpt>
      <trkpt lat="45.14646" lon="5.64818">
        <ele>1397</ele>
        <time>2014-06-28T08:02:18.000Z</time>
      </trkpt>
      <trkpt lat="45.14646" lon="5.64818">
        <ele>1397</ele>
        <time>2014-06-28T08:02:19.000Z</time>
      </trkpt>
      <trkpt lat="45.14646" lon="5.64818">
        <ele>1397</ele>
        <time>2014-06-28T08:02:20.000Z</time>
      </trkpt>
      <trkpt lat="45.14646" lon="5.64818">
        <ele>1397</ele>
        <time>2014-06-28T08:02:21.000Z</time>
      </trkpt>
      <trkpt lat="45.14646" lon="5.64818">
        <ele>1397</ele>
        <time>2014-06-28T08:02:22.000Z</time>
      </trkpt>
      <trkpt lat="45.14646" lon="5.64818">
        <ele>1397</ele>
        <time>2014-06-28T08:02:23.000Z</time>
      </trkpt>
      <trkpt lat="45.14646" lon="5.64819">
        <ele>1397</ele>
        <time>2014-06-28T08:02:24.000Z</time>
      </trkpt>
      <trkpt lat="45.14646" lon="5.64819">
        <ele>1397</ele>
        <time>2014-06-28T08:02:25.000Z</time>
      </trkpt>
      <trkpt lat="45.14646" lon="5.64819">
        <ele>1397</ele>
        <time>2014-06-28T08:02:26.000Z</time>
      </trkpt>
      <trkpt lat="45.14646" lon="5.64819">
        <ele>1397</ele>
        <time>2014-06-28T08:02:27.000Z</time>
      </trkpt>
      <trkpt lat="45.14646" lon="5.64819">
        <ele>1397</ele>
        <time>2014-06-28T08:02:28.000Z</time>
      </trkpt>
      <trkpt lat="45.14646" lon="5.64819">
        <ele>1397</ele>
        <time>2014-06-28T08:02:29.000Z</time>
      </trkpt>
      <trkpt lat="45.14646" lon="5.64819">
        <ele>1397</ele>
        <time>2014-06-28T08:02:30.000Z</time>
      </trkpt>
      <trkpt lat="45.14645" lon="5.64819">
        <ele>1397</ele>
        <time>2014-06-28T08:02:31.000Z</time>
      </trkpt>
      <trkpt lat="45.14645" lon="5.64819">
        <ele>1397</ele>
        <time>2014-06-28T08:02:32.000Z</time>
      </trkpt>
      <trkpt lat="45.14645" lon="5.64819">
        <ele>1397</ele>
        <time>2014-06-28T08:02:33.000Z</time>
      </trkpt>
      <trkpt lat="45.14645" lon="5.64819">
        <ele>1397</ele>
        <time>2014-06-28T08:02:34.000Z</time>
      </trkpt>
      <trkpt lat="45.14645" lon="5.64819">
        <ele>1397</ele>
        <time>2014-06-28T08:02:35.000Z</time>
      </trkpt>
      <trkpt lat="45.14645" lon="5.64819">
        <ele>1397</ele>
        <time>2014-06-28T08:02:36.000Z</time>
      </trkpt>
      <trkpt lat="45.14645" lon="5.64819">
        <ele>1397</ele>
        <time>2014-06-28T08:02:37.000Z</time>
      </trkpt>
      <trkpt lat="45.14645" lon="5.64819">
        <ele>1397</ele>
        <time>2014-06-28T08:02:38.000Z</time>
      </trkpt>
      <trkpt lat="45.14645" lon="5.64819">
        <ele>1397</ele>
        <time>2014-06-28T08:02:39.000Z</time>
      </trkpt>
      <trkpt lat="45.14645" lon="5.64819">
        <ele>1397</ele>
        <time>2014-06-28T08:02:40.000Z</time>
      </trkpt>
      <trkpt lat="45.14645" lon="5.64819">
        <ele>1397</ele>
        <time>2014-06-28T08:02:41.000Z</time>
      </trkpt>
      <trkpt lat="45.14645" lon="5.64819">
        <ele>1397</ele>
        <time>2014-06-28T08:02:42.000Z</time>
      </trkpt>
      <trkpt lat="45.14645" lon="5.64819">
        <ele>1397</ele>
        <time>2014-06-28T08:02:43.000Z</time>
      </trkpt>
      <trkpt lat="45.14645" lon="5.64819">
        <ele>1397</ele>
        <time>2014-06-28T08:02:44.000Z</time>
      </trkpt>
      <trkpt lat="45.14645" lon="5.64819">
        <ele>1397</ele>
        <time>2014-06-28T08:02:45.000Z</time>
      </trkpt>
      <trkpt lat="45.14645" lon="5.64819">
        <ele>1397</ele>
        <time>2014-06-28T08:02:46.000Z</time>
      </trkpt>
      <trkpt lat="45.14645" lon="5.64819">
        <ele>1397</ele>
        <time>2014-06-28T08:02:47.000Z</time>
      </trkpt>
      <trkpt lat="45.14645" lon="5.64819">
        <ele>1397</ele>
        <time>2014-06-28T08:02:48.000Z</time>
      </trkpt>
      <trkpt lat="45.14645" lon="5.64819">
        <ele>1397</ele>
        <time>2014-06-28T08:02:49.000Z</time>
      </trkpt>
      <trkpt lat="45.14645" lon="5.64819">
        <ele>1397</ele>
        <time>2014-06-28T08:02:50.000Z</time>
      </trkpt>
      <trkpt lat="45.14645" lon="5.64819">
        <ele>1397</ele>
        <time>2014-06-28T08:02:51.000Z</time>
      </trkpt>
      <trkpt lat="45.14645" lon="5.64819">
        <ele>1397</ele>
        <time>2014-06-28T08:02:52.000Z</time>
      </trkpt>
      <trkpt lat="45.14645" lon="5.64819">
        <ele>1397</ele>
        <time>2014-06-28T08:02:53.000Z</time>
      </trkpt>
      <trkpt lat="45.14645" lon="5.64819">
        <ele>1397</ele>
        <time>2014-06-28T08:02:54.000Z</time>
      </trkpt>
      <trkpt lat="45.14645" lon="5.64819">
        <ele>1397</ele>
        <time>2014-06-28T08:02:55.000Z</time>
      </trkpt>
      <trkpt lat="45.14645" lon="5.64819">
        <ele>1397</ele>
        <time>2014-06-28T08:02:56.000Z</time>
      </trkpt>
      <trkpt lat="45.14645" lon="5.64819">
        <ele>1397</ele>
        <time>2014-06-28T08:02:57.000Z</time>
      </trkpt>
      <trkpt lat="45.14645" lon="5.64819">
        <ele>1397</ele>
        <time>2014-06-28T08:02:58.000Z</time>
      </trkpt>
      <trkpt lat="45.14645" lon="5.64819">
        <ele>1397</ele>
        <time>2014-06-28T08:02:59.000Z</time>
      </trkpt>
      <trkpt lat="45.14645" lon="5.64819">
        <ele>1397</ele>
        <time>2014-06-28T08:03:00.000Z</time>
      </trkpt>
      <trkpt lat="45.14645" lon="5.64819">
        <ele>1397</ele>
        <time>2014-06-28T08:03:01.000Z</time>
      </trkpt>
      <trkpt lat="45.14645" lon="5.64819">
        <ele>1397</ele>
        <time>2014-06-28T08:03:02.000Z</time>
      </trkpt>
      <trkpt lat="45.14645" lon="5.6482">
        <ele>1397</ele>
        <time>2014-06-28T08:03:03.000Z</time>
      </trkpt>
      <trkpt lat="45.14645" lon="5.6482">
        <ele>1397</ele>
        <time>2014-06-28T08:03:04.000Z</time>
      </trkpt>
      <trkpt lat="45.14645" lon="5.6482">
        <ele>1397</ele>
        <time>2014-06-28T08:03:05.000Z</time>
      </trkpt>
      <trkpt lat="45.14645" lon="5.6482">
        <ele>1397</ele>
        <time>2014-06-28T08:03:06.000Z</time>
      </trkpt>
      <trkpt lat="45.14645" lon="5.6482">
        <ele>1397</ele>
        <time>2014-06-28T08:03:07.000Z</time>
      </trkpt>
      <trkpt lat="45.14645" lon="5.6482">
        <ele>1397</ele>
        <time>2014-06-28T08:03:08.000Z</time>
      </trkpt>
      <trkpt lat="45.14645" lon="5.6482">
        <ele>1398</ele>
        <time>2014-06-28T08:03:09.000Z</time>
      </trkpt>
      <trkpt lat="45.14645" lon="5.6482">
        <ele>1398</ele>
        <time>2014-06-28T08:03:10.000Z</time>
      </trkpt>
      <trkpt lat="45.14645" lon="5.6482">
        <ele>1398</ele>
        <time>2014-06-28T08:03:11.000Z</time>
      </trkpt>
      <trkpt lat="45.14645" lon="5.6482">
        <ele>1398</ele>
        <time>2014-06-28T08:03:12.000Z</time>
      </trkpt>
      <trkpt lat="45.14645" lon="5.6482">
        <ele>1398</ele>
        <time>2014-06-28T08:03:13.000Z</time>
      </trkpt>
      <trkpt lat="45.14645" lon="5.6482">
        <ele>1398</ele>
        <time>2014-06-28T08:03:14.000Z</time>
      </trkpt>
      <trkpt lat="45.14645" lon="5.6482">
        <ele>1398</ele>
        <time>2014-06-28T08:03:15.000Z</time>
      </trkpt>
      <trkpt lat="45.14645" lon="5.6482">
        <ele>1398</ele>
        <time>2014-06-28T08:03:16.000Z</time>
      </trkpt>
      <trkpt lat="45.14644" lon="5.6482">
        <ele>1398</ele>
        <time>2014-06-28T08:03:17.000Z</time>
      </trkpt>
      <trkpt lat="45.14644" lon="5.6482">
        <ele>1398</ele>
        <time>2014-06-28T08:03:18.000Z</time>
      </trkpt>
      <trkpt lat="45.14644" lon="5.6482">
        <ele>1398</ele>
        <time>2014-06-28T08:03:19.000Z</time>
      </trkpt>
      <trkpt lat="45.14644" lon="5.6482">
        <ele>1398</ele>
        <time>2014-06-28T08:03:20.000Z</time>
      </trkpt>
      <trkpt lat="45.14644" lon="5.6482">
        <ele>1398</ele>
        <time>2014-06-28T08:03:21.000Z</time>
      </trkpt>
      <trkpt lat="45.14644" lon="5.6482">
        <ele>1398</ele>
        <time>2014-06-28T08:03:22.000Z</time>
      </trkpt>
      <trkpt lat="45.14644" lon="5.6482">
        <ele>1398</ele>
        <time>2014-06-28T08:03:23.000Z</time>
      </trkpt>
      <trkpt lat="45.14644" lon="5.6482">
        <ele>1398</ele>
        <time>2014-06-28T08:03:24.000Z</time>
      </trkpt>
      <trkpt lat="45.14645" lon="5.64821">
        <ele>1398</ele>
        <time>2014-06-28T08:03:25.000Z</time>
      </trkpt>
      <trkpt lat="45.14645" lon="5.64821">
        <ele>1398</ele>
        <time>2014-06-28T08:03:26.000Z</time>
      </trkpt>
      <trkpt lat="45.14645" lon="5.64821">
        <ele>1398</ele>
        <time>2014-06-28T08:03:27.000Z</time>
      </trkpt>
      <trkpt lat="45.14645" lon="5.64821">
        <ele>1398</ele>
        <time>2014-06-28T08:03:28.000Z</time>
      </trkpt>
      <trkpt lat="45.14645" lon="5.64821">
        <ele>1398</ele>
        <time>2014-06-28T08:03:29.000Z</time>
      </trkpt>
      <trkpt lat="45.14645" lon="5.64821">
        <ele>1398</ele>
        <time>2014-06-28T08:03:30.000Z</time>
      </trkpt>
      <trkpt lat="45.14645" lon="5.64821">
        <ele>1398</ele>
        <time>2014-06-28T08:03:31.000Z</time>
      </trkpt>
      <trkpt lat="45.14645" lon="5.64821">
        <ele>1398</ele>
        <time>2014-06-28T08:03:32.000Z</time>
      </trkpt>
      <trkpt lat="45.14645" lon="5.64822">
        <ele>1398</ele>
        <time>2014-06-28T08:03:33.000Z</time>
      </trkpt>
      <trkpt lat="45.14645" lon="5.64822">
        <ele>1398</ele>
        <time>2014-06-28T08:03:34.000Z</time>
      </trkpt>
      <trkpt lat="45.14645" lon="5.64822">
        <ele>1398</ele>
        <time>2014-06-28T08:03:35.000Z</time>
      </trkpt>
      <trkpt lat="45.14645" lon="5.64822">
        <ele>1398</ele>
        <time>2014-06-28T08:03:36.000Z</time>
      </trkpt>
      <trkpt lat="45.14645" lon="5.64822">
        <ele>1398</ele>
        <time>2014-06-28T08:03:37.000Z</time>
      </trkpt>
      <trkpt lat="45.14645" lon="5.64822">
        <ele>1398</ele>
        <time>2014-06-28T08:03:38.000Z</time>
      </trkpt>
      <trkpt lat="45.14645" lon="5.64822">
        <ele>1398</ele>
        <time>2014-06-28T08:03:39.000Z</time>
      </trkpt>
      <trkpt lat="45.14645" lon="5.64822">
        <ele>1398</ele>
        <time>2014-06-28T08:03:40.000Z</time>
      </trkpt>
      <trkpt lat="45.14645" lon="5.64822">
        <ele>1398</ele>
        <time>2014-06-28T08:03:41.000Z</time>
      </trkpt>
      <trkpt lat="45.14645" lon="5.64822">
        <ele>1398</ele>
        <time>2014-06-28T08:03:42.000Z</time>
      </trkpt>
      <trkpt lat="45.14645" lon="5.64822">
        <ele>1398</ele>
        <time>2014-06-28T08:03:43.000Z</time>
      </trkpt>
      <trkpt lat="45.14645" lon="5.64822">
        <ele>1398</ele>
        <time>2014-06-28T08:03:44.000Z</time>
      </trkpt>
      <trkpt lat="45.14645" lon="5.64822">
        <ele>1398</ele>
        <time>2014-06-28T08:03:45.000Z</time>
      </trkpt>
      <trkpt lat="45.14645" lon="5.64822">
        <ele>1398</ele>
        <time>2014-06-28T08:03:46.000Z</time>
      </trkpt>
      <trkpt lat="45.14645" lon="5.64822">
        <ele>1398</ele>
        <time>2014-06-28T08:03:47.000Z</time>
      </trkpt>
      <trkpt lat="45.14645" lon="5.64822">
        <ele>1398</ele>
        <time>2014-06-28T08:03:48.000Z</time>
      </trkpt>
      <trkpt lat="45.14645" lon="5.64822">
        <ele>1398</ele>
        <time>2014-06-28T08:03:49.000Z</time>
      </trkpt>
      <trkpt lat="45.14645" lon="5.64822">
        <ele>1398</ele>
        <time>2014-06-28T08:03:50.000Z</time>
      </trkpt>
      <trkpt lat="45.14645" lon="5.64822">
        <ele>1398</ele>
        <time>2014-06-28T08:03:51.000Z</time>
      </trkpt>
      <trkpt lat="45.14645" lon="5.64822">
        <ele>1398</ele>
        <time>2014-06-28T08:03:52.000Z</time>
      </trkpt>
      <trkpt lat="45.14645" lon="5.64822">
        <ele>1398</ele>
        <time>2014-06-28T08:03:53.000Z</time>
      </trkpt>
      <trkpt lat="45.14645" lon="5.64822">
        <ele>1398</ele>
        <time>2014-06-28T08:03:54.000Z</time>
      </trkpt>
      <trkpt lat="45.14645" lon="5.64822">
        <ele>1398</ele>
        <time>2014-06-28T08:03:55.000Z</time>
      </trkpt>
      <trkpt lat="45.14645" lon="5.64822">
        <ele>1398</ele>
        <time>2014-06-28T08:03:56.000Z</time>
      </trkpt>
      <trkpt lat="45.14645" lon="5.64822">
        <ele>1398</ele>
        <time>2014-06-28T08:03:57.000Z</time>
      </trkpt>
      <trkpt lat="45.14645" lon="5.64822">
        <ele>1398</ele>
        <time>2014-06-28T08:03:58.000Z</time>
      </trkpt>
      <trkpt lat="45.14645" lon="5.64822">
        <ele>1398</ele>
        <time>2014-06-28T08:03:59.000Z</time>
      </trkpt>
      <trkpt lat="45.14645" lon="5.64822">
        <ele>1398</ele>
        <time>2014-06-28T08:04:00.000Z</time>
      </trkpt>
      <trkpt lat="45.14645" lon="5.64822">
        <ele>1398</ele>
        <time>2014-06-28T08:04:01.000Z</time>
      </trkpt>
      <trkpt lat="45.14645" lon="5.64822">
        <ele>1398</ele>
        <time>2014-06-28T08:04:02.000Z</time>
      </trkpt>
      <trkpt lat="45.14645" lon="5.64822">
        <ele>1398</ele>
        <time>2014-06-28T08:04:03.000Z</time>
      </trkpt>
      <trkpt lat="45.14645" lon="5.64822">
        <ele>1398</ele>
        <time>2014-06-28T08:04:04.000Z</time>
      </trkpt>
      <trkpt lat="45.14645" lon="5.64822">
        <ele>1398</ele>
        <time>2014-06-28T08:04:05.000Z</time>
      </trkpt>
      <trkpt lat="45.14645" lon="5.64822">
        <ele>1398</ele>
        <time>2014-06-28T08:04:06.000Z</time>
      </trkpt>
      <trkpt lat="45.14645" lon="5.64822">
        <ele>1398</ele>
        <time>2014-06-28T08:04:07.000Z</time>
      </trkpt>
      <trkpt lat="45.14645" lon="5.64822">
        <ele>1398</ele>
        <time>2014-06-28T08:04:08.000Z</time>
      </trkpt>
      <trkpt lat="45.14645" lon="5.64822">
        <ele>1398</ele>
        <time>2014-06-28T08:04:09.000Z</time>
      </trkpt>
      <trkpt lat="45.14645" lon="5.64822">
        <ele>1398</ele>
        <time>2014-06-28T08:04:10.000Z</time>
      </trkpt>
      <trkpt lat="45.14645" lon="5.64822">
        <ele>1398</ele>
        <time>2014-06-28T08:04:11.000Z</time>
      </trkpt>
      <trkpt lat="45.14645" lon="5.64822">
        <ele>1398</ele>
        <time>2014-06-28T08:04:12.000Z</time>
      </trkpt>
      <trkpt lat="45.14645" lon="5.64822">
        <ele>1398</ele>
        <time>2014-06-28T08:04:13.000Z</time>
      </trkpt>
      <trkpt lat="45.14645" lon="5.64822">
        <ele>1398</ele>
        <time>2014-06-28T08:04:14.000Z</time>
      </trkpt>
      <trkpt lat="45.14645" lon="5.64822">
        <ele>1398</ele>
        <time>2014-06-28T08:04:15.000Z</time>
      </trkpt>
      <trkpt lat="45.14645" lon="5.64822">
        <ele>1398</ele>
        <time>2014-06-28T08:04:16.000Z</time>
      </trkpt>
      <trkpt lat="45.14645" lon="5.64822">
        <ele>1398</ele>
        <time>2014-06-28T08:04:17.000Z</time>
      </trkpt>
      <trkpt lat="45.14645" lon="5.64822">
        <ele>1398</ele>
        <time>2014-06-28T08:04:18.000Z</time>
      </trkpt>
      <trkpt lat="45.14645" lon="5.64822">
        <ele>1398</ele>
        <time>2014-06-28T08:04:19.000Z</time>
      </trkpt>
      <trkpt lat="45.14645" lon="5.64822">
        <ele>1398</ele>
        <time>2014-06-28T08:04:20.000Z</time>
      </trkpt>
      <trkpt lat="45.14645" lon="5.64822">
        <ele>1398</ele>
        <time>2014-06-28T08:04:21.000Z</time>
      </trkpt>
      <trkpt lat="45.14645" lon="5.64822">
        <ele>1398</ele>
        <time>2014-06-28T08:04:22.000Z</time>
      </trkpt>
      <trkpt lat="45.14645" lon="5.64822">
        <ele>1398</ele>
        <time>2014-06-28T08:04:23.000Z</time>
      </trkpt>
      <trkpt lat="45.14645" lon="5.64822">
        <ele>1398</ele>
        <time>2014-06-28T08:04:24.000Z</time>
      </trkpt>
      <trkpt lat="45.14645" lon="5.64822">
        <ele>1398</ele>
        <time>2014-06-28T08:04:25.000Z</time>
      </trkpt>
      <trkpt lat="45.14645" lon="5.64822">
        <ele>1398</ele>
        <time>2014-06-28T08:04:26.000Z</time>
      </trkpt>
      <trkpt lat="45.14645" lon="5.64822">
        <ele>1398</ele>
        <time>2014-06-28T08:04:27.000Z</time>
      </trkpt>
      <trkpt lat="45.14645" lon="5.64822">
        <ele>1398</ele>
        <time>2014-06-28T08:04:28.000Z</time>
      </trkpt>
      <trkpt lat="45.14645" lon="5.64822">
        <ele>1398</ele>
        <time>2014-06-28T08:04:29.000Z</time>
      </trkpt>
      <trkpt lat="45.14645" lon="5.64822">
        <ele>1398</ele>
        <time>2014-06-28T08:04:30.000Z</time>
      </trkpt>
      <trkpt lat="45.14645" lon="5.64822">
        <ele>1398</ele>
        <time>2014-06-28T08:04:31.000Z</time>
      </trkpt>
      <trkpt lat="45.14645" lon="5.64822">
        <ele>1398</ele>
        <time>2014-06-28T08:04:32.000Z</time>
      </trkpt>
      <trkpt lat="45.14645" lon="5.64822">
        <ele>1398</ele>
        <time>2014-06-28T08:04:33.000Z</time>
      </trkpt>
      <trkpt lat="45.14645" lon="5.64822">
        <ele>1398</ele>
        <time>2014-06-28T08:04:34.000Z</time>
      </trkpt>
      <trkpt lat="45.14645" lon="5.64822">
        <ele>1398</ele>
        <time>2014-06-28T08:04:35.000Z</time>
      </trkpt>
      <trkpt lat="45.14645" lon="5.64822">
        <ele>1398</ele>
        <time>2014-06-28T08:04:36.000Z</time>
      </trkpt>
      <trkpt lat="45.14645" lon="5.64822">
        <ele>1398</ele>
        <time>2014-06-28T08:04:37.000Z</time>
      </trkpt>
      <trkpt lat="45.14645" lon="5.64822">
        <ele>1398</ele>
        <time>2014-06-28T08:04:38.000Z</time>
      </trkpt>
      <trkpt lat="45.14645" lon="5.64822">
        <ele>1398</ele>
        <time>2014-06-28T08:04:39.000Z</time>
      </trkpt>
      <trkpt lat="45.14645" lon="5.64822">
        <ele>1398</ele>
        <time>2014-06-28T08:04:40.000Z</time>
      </trkpt>
      <trkpt lat="45.14645" lon="5.64822">
        <ele>1398</ele>
        <time>2014-06-28T08:04:41.000Z</time>
      </trkpt>
      <trkpt lat="45.14645" lon="5.64822">
        <ele>1398</ele>
        <time>2014-06-28T08:04:42.000Z</time>
      </trkpt>
      <trkpt lat="45.14645" lon="5.64822">
        <ele>1398</ele>
        <time>2014-06-28T08:04:43.000Z</time>
      </trkpt>
      <trkpt lat="45.14645" lon="5.64822">
        <ele>1399</ele>
        <time>2014-06-28T08:04:44.000Z</time>
      </trkpt>
      <trkpt lat="45.14645" lon="5.64822">
        <ele>1399</ele>
        <time>2014-06-28T08:04:45.000Z</time>
      </trkpt>
      <trkpt lat="45.14645" lon="5.64822">
        <ele>1399</ele>
        <time>2014-06-28T08:04:46.000Z</time>
      </trkpt>
      <trkpt lat="45.14645" lon="5.64822">
        <ele>1399</ele>
        <time>2014-06-28T08:04:47.000Z</time>
      </trkpt>
      <trkpt lat="45.14645" lon="5.64822">
        <ele>1399</ele>
        <time>2014-06-28T08:04:48.000Z</time>
      </trkpt>
      <trkpt lat="45.14645" lon="5.64822">
        <ele>1399</ele>
        <time>2014-06-28T08:04:49.000Z</time>
      </trkpt>
      <trkpt lat="45.14645" lon="5.64822">
        <ele>1399</ele>
        <time>2014-06-28T08:04:50.000Z</time>
      </trkpt>
      <trkpt lat="45.14645" lon="5.64823">
        <ele>1399</ele>
        <time>2014-06-28T08:04:51.000Z</time>
      </trkpt>
      <trkpt lat="45.14645" lon="5.64823">
        <ele>1399</ele>
        <time>2014-06-28T08:04:52.000Z</time>
      </trkpt>
      <trkpt lat="45.14645" lon="5.64823">
        <ele>1399</ele>
        <time>2014-06-28T08:04:53.000Z</time>
      </trkpt>
      <trkpt lat="45.14645" lon="5.64823">
        <ele>1399</ele>
        <time>2014-06-28T08:04:54.000Z</time>
      </trkpt>
      <trkpt lat="45.14645" lon="5.64823">
        <ele>1399</ele>
        <time>2014-06-28T08:04:55.000Z</time>
      </trkpt>
      <trkpt lat="45.14645" lon="5.64823">
        <ele>1399</ele>
        <time>2014-06-28T08:04:56.000Z</time>
      </trkpt>
      <trkpt lat="45.14645" lon="5.64823">
        <ele>1399</ele>
        <time>2014-06-28T08:04:57.000Z</time>
      </trkpt>
      <trkpt lat="45.14645" lon="5.64823">
        <ele>1399</ele>
        <time>2014-06-28T08:04:58.000Z</time>
      </trkpt>
      <trkpt lat="45.14645" lon="5.64823">
        <ele>1399</ele>
        <time>2014-06-28T08:04:59.000Z</time>
      </trkpt>
      <trkpt lat="45.14645" lon="5.64823">
        <ele>1399</ele>
        <time>2014-06-28T08:05:00.000Z</time>
      </trkpt>
      <trkpt lat="45.14646" lon="5.64823">
        <ele>1399</ele>
        <time>2014-06-28T08:05:01.000Z</time>
      </trkpt>
      <trkpt lat="45.14646" lon="5.64823">
        <ele>1399</ele>
        <time>2014-06-28T08:05:02.000Z</time>
      </trkpt>
      <trkpt lat="45.14646" lon="5.64823">
        <ele>1399</ele>
        <time>2014-06-28T08:05:03.000Z</time>
      </trkpt>
      <trkpt lat="45.14646" lon="5.64823">
        <ele>1399</ele>
        <time>2014-06-28T08:05:04.000Z</time>
      </trkpt>
      <trkpt lat="45.14646" lon="5.64823">
        <ele>1399</ele>
        <time>2014-06-28T08:05:05.000Z</time>
      </trkpt>
      <trkpt lat="45.14646" lon="5.64823">
        <ele>1399</ele>
        <time>2014-06-28T08:05:06.000Z</time>
      </trkpt>
      <trkpt lat="45.14646" lon="5.64823">
        <ele>1399</ele>
        <time>2014-06-28T08:05:07.000Z</time>
      </trkpt>
      <trkpt lat="45.14646" lon="5.64823">
        <ele>1399</ele>
        <time>2014-06-28T08:05:08.000Z</time>
      </trkpt>
      <trkpt lat="45.14646" lon="5.64823">
        <ele>1399</ele>
        <time>2014-06-28T08:05:09.000Z</time>
      </trkpt>
      <trkpt lat="45.14646" lon="5.64823">
        <ele>1399</ele>
        <time>2014-06-28T08:05:10.000Z</time>
      </trkpt>
      <trkpt lat="45.14646" lon="5.64823">
        <ele>1399</ele>
        <time>2014-06-28T08:05:11.000Z</time>
      </trkpt>
      <trkpt lat="45.14646" lon="5.64823">
        <ele>1399</ele>
        <time>2014-06-28T08:05:12.000Z</time>
      </trkpt>
      <trkpt lat="45.14646" lon="5.64823">
        <ele>1399</ele>
        <time>2014-06-28T08:05:13.000Z</time>
      </trkpt>
      <trkpt lat="45.14646" lon="5.64823">
        <ele>1399</ele>
        <time>2014-06-28T08:05:14.000Z</time>
      </trkpt>
      <trkpt lat="45.14646" lon="5.64823">
        <ele>1399</ele>
        <time>2014-06-28T08:05:15.000Z</time>
      </trkpt>
      <trkpt lat="45.14646" lon="5.64823">
        <ele>1399</ele>
        <time>2014-06-28T08:05:16.000Z</time>
      </trkpt>
      <trkpt lat="45.14646" lon="5.64823">
        <ele>1399</ele>
        <time>2014-06-28T08:05:17.000Z</time>
      </trkpt>
      <trkpt lat="45.14646" lon="5.64823">
        <ele>1399</ele>
        <time>2014-06-28T08:05:18.000Z</time>
      </trkpt>
      <trkpt lat="45.14646" lon="5.64823">
        <ele>1399</ele>
        <time>2014-06-28T08:05:19.000Z</time>
      </trkpt>
      <trkpt lat="45.14646" lon="5.64823">
        <ele>1399</ele>
        <time>2014-06-28T08:05:20.000Z</time>
      </trkpt>
      <trkpt lat="45.14646" lon="5.64823">
        <ele>1399</ele>
        <time>2014-06-28T08:05:21.000Z</time>
      </trkpt>
      <trkpt lat="45.14646" lon="5.64823">
        <ele>1399</ele>
        <time>2014-06-28T08:05:22.000Z</time>
      </trkpt>
      <trkpt lat="45.14646" lon="5.64823">
        <ele>1399</ele>
        <time>2014-06-28T08:05:23.000Z</time>
      </trkpt>
      <trkpt lat="45.14646" lon="5.64823">
        <ele>1399</ele>
        <time>2014-06-28T08:05:24.000Z</time>
      </trkpt>
      <trkpt lat="45.14646" lon="5.64823">
        <ele>1399</ele>
        <time>2014-06-28T08:05:25.000Z</time>
      </trkpt>
      <trkpt lat="45.14646" lon="5.64823">
        <ele>1399</ele>
        <time>2014-06-28T08:05:26.000Z</time>
      </trkpt>
      <trkpt lat="45.14646" lon="5.64822">
        <ele>1399</ele>
        <time>2014-06-28T08:05:27.000Z</time>
      </trkpt>
      <trkpt lat="45.14646" lon="5.64822">
        <ele>1399</ele>
        <time>2014-06-28T08:05:28.000Z</time>
      </trkpt>
      <trkpt lat="45.14646" lon="5.64822">
        <ele>1399</ele>
        <time>2014-06-28T08:05:29.000Z</time>
      </trkpt>
      <trkpt lat="45.14646" lon="5.64822">
        <ele>1399</ele>
        <time>2014-06-28T08:05:30.000Z</time>
      </trkpt>
      <trkpt lat="45.14646" lon="5.64822">
        <ele>1399</ele>
        <time>2014-06-28T08:05:31.000Z</time>
      </trkpt>
      <trkpt lat="45.14646" lon="5.64822">
        <ele>1399</ele>
        <time>2014-06-28T08:05:32.000Z</time>
      </trkpt>
      <trkpt lat="45.14646" lon="5.64822">
        <ele>1399</ele>
        <time>2014-06-28T08:05:33.000Z</time>
      </trkpt>
      <trkpt lat="45.14646" lon="5.64822">
        <ele>1399</ele>
        <time>2014-06-28T08:05:34.000Z</time>
      </trkpt>
      <trkpt lat="45.14646" lon="5.64822">
        <ele>1399</ele>
        <time>2014-06-28T08:05:35.000Z</time>
      </trkpt>
      <trkpt lat="45.14646" lon="5.64822">
        <ele>1399</ele>
        <time>2014-06-28T08:05:36.000Z</time>
      </trkpt>
      <trkpt lat="45.14646" lon="5.64822">
        <ele>1399</ele>
        <time>2014-06-28T08:05:37.000Z</time>
      </trkpt>
      <trkpt lat="45.14646" lon="5.64822">
        <ele>1399</ele>
        <time>2014-06-28T08:05:38.000Z</time>
      </trkpt>
      <trkpt lat="45.14646" lon="5.64822">
        <ele>1399</ele>
        <time>2014-06-28T08:05:39.000Z</time>
      </trkpt>
      <trkpt lat="45.14647" lon="5.64822">
        <ele>1399</ele>
        <time>2014-06-28T08:05:40.000Z</time>
      </trkpt>
      <trkpt lat="45.14647" lon="5.64822">
        <ele>1399</ele>
        <time>2014-06-28T08:05:41.000Z</time>
      </trkpt>
      <trkpt lat="45.14646" lon="5.64821">
        <ele>1399</ele>
        <time>2014-06-28T08:05:42.000Z</time>
      </trkpt>
      <trkpt lat="45.14646" lon="5.64821">
        <ele>1399</ele>
        <time>2014-06-28T08:05:43.000Z</time>
      </trkpt>
      <trkpt lat="45.14646" lon="5.64822">
        <ele>1399</ele>
        <time>2014-06-28T08:05:44.000Z</time>
      </trkpt>
      <trkpt lat="45.14647" lon="5.64822">
        <ele>1399</ele>
        <time>2014-06-28T08:05:45.000Z</time>
      </trkpt>
      <trkpt lat="45.14647" lon="5.64822">
        <ele>1399</ele>
        <time>2014-06-28T08:05:46.000Z</time>
      </trkpt>
      <trkpt lat="45.14647" lon="5.64822">
        <ele>1399</ele>
        <time>2014-06-28T08:05:47.000Z</time>
      </trkpt>
      <trkpt lat="45.14647" lon="5.64822">
        <ele>1399</ele>
        <time>2014-06-28T08:05:48.000Z</time>
      </trkpt>
      <trkpt lat="45.14647" lon="5.64822">
        <ele>1399</ele>
        <time>2014-06-28T08:05:49.000Z</time>
      </trkpt>
      <trkpt lat="45.14647" lon="5.64822">
        <ele>1399</ele>
        <time>2014-06-28T08:05:50.000Z</time>
      </trkpt>
      <trkpt lat="45.14647" lon="5.64822">
        <ele>1399</ele>
        <time>2014-06-28T08:05:51.000Z</time>
      </trkpt>
      <trkpt lat="45.14647" lon="5.64822">
        <ele>1399</ele>
        <time>2014-06-28T08:05:52.000Z</time>
      </trkpt>
      <trkpt lat="45.14646" lon="5.64822">
        <ele>1399</ele>
        <time>2014-06-28T08:05:53.000Z</time>
      </trkpt>
      <trkpt lat="45.14646" lon="5.64822">
        <ele>1399</ele>
        <time>2014-06-28T08:05:54.000Z</time>
      </trkpt>
      <trkpt lat="45.14646" lon="5.64821">
        <ele>1399</ele>
        <time>2014-06-28T08:05:55.000Z</time>
      </trkpt>
      <trkpt lat="45.14646" lon="5.64821">
        <ele>1399</ele>
        <time>2014-06-28T08:05:56.000Z</time>
      </trkpt>
      <trkpt lat="45.14646" lon="5.64822">
        <ele>1399</ele>
        <time>2014-06-28T08:05:57.000Z</time>
      </trkpt>
      <trkpt lat="45.14646" lon="5.64822">
        <ele>1399</ele>
        <time>2014-06-28T08:05:58.000Z</time>
      </trkpt>
      <trkpt lat="45.14646" lon="5.64821">
        <ele>1399</ele>
        <time>2014-06-28T08:05:59.000Z</time>
      </trkpt>
      <trkpt lat="45.14646" lon="5.64821">
        <ele>1399</ele>
        <time>2014-06-28T08:06:00.000Z</time>
      </trkpt>
      <trkpt lat="45.14645" lon="5.6482">
        <ele>1399</ele>
        <time>2014-06-28T08:06:01.000Z</time>
      </trkpt>
      <trkpt lat="45.14645" lon="5.64819">
        <ele>1399</ele>
        <time>2014-06-28T08:06:02.000Z</time>
      </trkpt>
      <trkpt lat="45.14645" lon="5.64817">
        <ele>1399</ele>
        <time>2014-06-28T08:06:03.000Z</time>
      </trkpt>
      <trkpt lat="45.14646" lon="5.64816">
        <ele>1399</ele>
        <time>2014-06-28T08:06:04.000Z</time>
      </trkpt>
      <trkpt lat="45.14646" lon="5.64815">
        <ele>1399</ele>
        <time>2014-06-28T08:06:05.000Z</time>
      </trkpt>
      <trkpt lat="45.14646" lon="5.64814">
        <ele>1399</ele>
        <time>2014-06-28T08:06:06.000Z</time>
      </trkpt>
      <trkpt lat="45.14646" lon="5.64812">
        <ele>1399</ele>
        <time>2014-06-28T08:06:07.000Z</time>
      </trkpt>
      <trkpt lat="45.14646" lon="5.64811">
        <ele>1399</ele>
        <time>2014-06-28T08:06:08.000Z</time>
      </trkpt>
      <trkpt lat="45.14646" lon="5.64809">
        <ele>1399</ele>
        <time>2014-06-28T08:06:09.000Z</time>
      </trkpt>
      <trkpt lat="45.14645" lon="5.64808">
        <ele>1399</ele>
        <time>2014-06-28T08:06:10.000Z</time>
      </trkpt>
      <trkpt lat="45.14645" lon="5.64807">
        <ele>1399</ele>
        <time>2014-06-28T08:06:11.000Z</time>
      </trkpt>
      <trkpt lat="45.14645" lon="5.64806">
        <ele>1399</ele>
        <time>2014-06-28T08:06:12.000Z</time>
      </trkpt>
      <trkpt lat="45.14646" lon="5.64806">
        <ele>1399</ele>
        <time>2014-06-28T08:06:13.000Z</time>
      </trkpt>
      <trkpt lat="45.14646" lon="5.64805">
        <ele>1399</ele>
        <time>2014-06-28T08:06:14.000Z</time>
      </trkpt>
      <trkpt lat="45.14646" lon="5.64805">
        <ele>1399</ele>
        <time>2014-06-28T08:06:15.000Z</time>
      </trkpt>
      <trkpt lat="45.14646" lon="5.64804">
        <ele>1399</ele>
        <time>2014-06-28T08:06:16.000Z</time>
      </trkpt>
      <trkpt lat="45.14647" lon="5.64804">
        <ele>1399</ele>
        <time>2014-06-28T08:06:17.000Z</time>
      </trkpt>
      <trkpt lat="45.14647" lon="5.64803">
        <ele>1399</ele>
        <time>2014-06-28T08:06:18.000Z</time>
      </trkpt>
      <trkpt lat="45.14648" lon="5.64802">
        <ele>1399</ele>
        <time>2014-06-28T08:06:19.000Z</time>
      </trkpt>
      <trkpt lat="45.14648" lon="5.64801">
        <ele>1399</ele>
        <time>2014-06-28T08:06:20.000Z</time>
      </trkpt>
      <trkpt lat="45.14648" lon="5.648">
        <ele>1399</ele>
        <time>2014-06-28T08:06:21.000Z</time>
      </trkpt>
      <trkpt lat="45.14649" lon="5.648">
        <ele>1399</ele>
        <time>2014-06-28T08:06:22.000Z</time>
      </trkpt>
      <trkpt lat="45.1465" lon="5.64799">
        <ele>1399</ele>
        <time>2014-06-28T08:06:23.000Z</time>
      </trkpt>
      <trkpt lat="45.1465" lon="5.64798">
        <ele>1399</ele>
        <time>2014-06-28T08:06:24.000Z</time>
      </trkpt>
      <trkpt lat="45.14651" lon="5.64798">
        <ele>1399</ele>
        <time>2014-06-28T08:06:25.000Z</time>
      </trkpt>
      <trkpt lat="45.14652" lon="5.64797">
        <ele>1399</ele>
        <time>2014-06-28T08:06:26.000Z</time>
      </trkpt>
      <trkpt lat="45.14652" lon="5.64797">
        <ele>1399</ele>
        <time>2014-06-28T08:06:27.000Z</time>
      </trkpt>
      <trkpt lat="45.14652" lon="5.64796">
        <ele>1399</ele>
        <time>2014-06-28T08:06:28.000Z</time>
      </trkpt>
      <trkpt lat="45.14652" lon="5.64795">
        <ele>1400</ele>
        <time>2014-06-28T08:06:29.000Z</time>
      </trkpt>
      <trkpt lat="45.14651" lon="5.64794">
        <ele>1400</ele>
        <time>2014-06-28T08:06:30.000Z</time>
      </trkpt>
      <trkpt lat="45.14651" lon="5.64793">
        <ele>1400</ele>
        <time>2014-06-28T08:06:31.000Z</time>
      </trkpt>
      <trkpt lat="45.14651" lon="5.64792">
        <ele>1400</ele>
        <time>2014-06-28T08:06:32.000Z</time>
      </trkpt>
      <trkpt lat="45.14652" lon="5.64792">
        <ele>1401</ele>
        <time>2014-06-28T08:06:33.000Z</time>
      </trkpt>
      <trkpt lat="45.14652" lon="5.64791">
        <ele>1401</ele>
        <time>2014-06-28T08:06:34.000Z</time>
      </trkpt>
      <trkpt lat="45.14653" lon="5.64791">
        <ele>1401</ele>
        <time>2014-06-28T08:06:35.000Z</time>
      </trkpt>
      <trkpt lat="45.14653" lon="5.64791">
        <ele>1401</ele>
        <time>2014-06-28T08:06:36.000Z</time>
      </trkpt>
      <trkpt lat="45.14654" lon="5.6479">
        <ele>1401</ele>
        <time>2014-06-28T08:06:37.000Z</time>
      </trkpt>
      <trkpt lat="45.14654" lon="5.6479">
        <ele>1402</ele>
        <time>2014-06-28T08:06:38.000Z</time>
      </trkpt>
      <trkpt lat="45.14654" lon="5.64789">
        <ele>1402</ele>
        <time>2014-06-28T08:06:39.000Z</time>
      </trkpt>
      <trkpt lat="45.14654" lon="5.64788">
        <ele>1402</ele>
        <time>2014-06-28T08:06:40.000Z</time>
      </trkpt>
      <trkpt lat="45.14654" lon="5.64787">
        <ele>1402</ele>
        <time>2014-06-28T08:06:41.000Z</time>
      </trkpt>
      <trkpt lat="45.14654" lon="5.64786">
        <ele>1403</ele>
        <time>2014-06-28T08:06:42.000Z</time>
      </trkpt>
      <trkpt lat="45.14654" lon="5.64785">
        <ele>1403</ele>
        <time>2014-06-28T08:06:43.000Z</time>
      </trkpt>
      <trkpt lat="45.14654" lon="5.64785">
        <ele>1403</ele>
        <time>2014-06-28T08:06:44.000Z</time>
      </trkpt>
      <trkpt lat="45.14655" lon="5.64785">
        <ele>1403</ele>
        <time>2014-06-28T08:06:45.000Z</time>
      </trkpt>
      <trkpt lat="45.14655" lon="5.64785">
        <ele>1404</ele>
        <time>2014-06-28T08:06:46.000Z</time>
      </trkpt>
      <trkpt lat="45.14656" lon="5.64785">
        <ele>1404</ele>
        <time>2014-06-28T08:06:47.000Z</time>
      </trkpt>
      <trkpt lat="45.14656" lon="5.64784">
        <ele>1404</ele>
        <time>2014-06-28T08:06:48.000Z</time>
      </trkpt>
      <trkpt lat="45.14656" lon="5.64783">
        <ele>1405</ele>
        <time>2014-06-28T08:06:49.000Z</time>
      </trkpt>
      <trkpt lat="45.14656" lon="5.64783">
        <ele>1405</ele>
        <time>2014-06-28T08:06:50.000Z</time>
      </trkpt>
      <trkpt lat="45.14656" lon="5.64783">
        <ele>1406</ele>
        <time>2014-06-28T08:06:51.000Z</time>
      </trkpt>
      <trkpt lat="45.14656" lon="5.64783">
        <ele>1406</ele>
        <time>2014-06-28T08:06:52.000Z</time>
      </trkpt>
      <trkpt lat="45.14656" lon="5.64782">
        <ele>1406</ele>
        <time>2014-06-28T08:06:53.000Z</time>
      </trkpt>
      <trkpt lat="45.14656" lon="5.64782">
        <ele>1407</ele>
        <time>2014-06-28T08:06:54.000Z</time>
      </trkpt>
      <trkpt lat="45.14656" lon="5.64781">
        <ele>1407</ele>
        <time>2014-06-28T08:06:55.000Z</time>
      </trkpt>
      <trkpt lat="45.14657" lon="5.64781">
        <ele>1407</ele>
        <time>2014-06-28T08:06:56.000Z</time>
      </trkpt>
      <trkpt lat="45.14657" lon="5.6478">
        <ele>1407</ele>
        <time>2014-06-28T08:06:57.000Z</time>
      </trkpt>
      <trkpt lat="45.14657" lon="5.6478">
        <ele>1408</ele>
        <time>2014-06-28T08:06:58.000Z</time>
      </trkpt>
      <trkpt lat="45.14657" lon="5.64779">
        <ele>1408</ele>
        <time>2014-06-28T08:06:59.000Z</time>
      </trkpt>
      <trkpt lat="45.14657" lon="5.64779">
        <ele>1408</ele>
        <time>2014-06-28T08:07:00.000Z</time>
      </trkpt>
      <trkpt lat="45.14657" lon="5.64778">
        <ele>1408</ele>
        <time>2014-06-28T08:07:01.000Z</time>
      </trkpt>
      <trkpt lat="45.14657" lon="5.64777">
        <ele>1408</ele>
        <time>2014-06-28T08:07:02.000Z</time>
      </trkpt>
      <trkpt lat="45.14657" lon="5.64776">
        <ele>1408</ele>
        <time>2014-06-28T08:07:03.000Z</time>
      </trkpt>
      <trkpt lat="45.14656" lon="5.64776">
        <ele>1409</ele>
        <time>2014-06-28T08:07:04.000Z</time>
      </trkpt>
      <trkpt lat="45.14656" lon="5.64775">
        <ele>1409</ele>
        <time>2014-06-28T08:07:05.000Z</time>
      </trkpt>
      <trkpt lat="45.14656" lon="5.64775">
        <ele>1409</ele>
        <time>2014-06-28T08:07:06.000Z</time>
      </trkpt>
      <trkpt lat="45.14655" lon="5.64774">
        <ele>1410</ele>
        <time>2014-06-28T08:07:07.000Z</time>
      </trkpt>
      <trkpt lat="45.14655" lon="5.64773">
        <ele>1410</ele>
        <time>2014-06-28T08:07:08.000Z</time>
      </trkpt>
      <trkpt lat="45.14655" lon="5.64772">
        <ele>1410</ele>
        <time>2014-06-28T08:07:09.000Z</time>
      </trkpt>
      <trkpt lat="45.14654" lon="5.64772">
        <ele>1411</ele>
        <time>2014-06-28T08:07:10.000Z</time>
      </trkpt>
      <trkpt lat="45.14654" lon="5.64771">
        <ele>1411</ele>
        <time>2014-06-28T08:07:11.000Z</time>
      </trkpt>
      <trkpt lat="45.14654" lon="5.64771">
        <ele>1412</ele>
        <time>2014-06-28T08:07:12.000Z</time>
      </trkpt>
      <trkpt lat="45.14654" lon="5.6477">
        <ele>1412</ele>
        <time>2014-06-28T08:07:13.000Z</time>
      </trkpt>
      <trkpt lat="45.14654" lon="5.6477">
        <ele>1413</ele>
        <time>2014-06-28T08:07:14.000Z</time>
      </trkpt>
      <trkpt lat="45.14654" lon="5.6477">
        <ele>1413</ele>
        <time>2014-06-28T08:07:15.000Z</time>
      </trkpt>
      <trkpt lat="45.14654" lon="5.6477">
        <ele>1414</ele>
        <time>2014-06-28T08:07:16.000Z</time>
      </trkpt>
      <trkpt lat="45.14654" lon="5.6477">
        <ele>1414</ele>
        <time>2014-06-28T08:07:17.000Z</time>
      </trkpt>
      <trkpt lat="45.14654" lon="5.64769">
        <ele>1415</ele>
        <time>2014-06-28T08:07:18.000Z</time>
      </trkpt>
      <trkpt lat="45.14655" lon="5.64769">
        <ele>1415</ele>
        <time>2014-06-28T08:07:19.000Z</time>
      </trkpt>
      <trkpt lat="45.14655" lon="5.64769">
        <ele>1415</ele>
        <time>2014-06-28T08:07:20.000Z</time>
      </trkpt>
      <trkpt lat="45.14655" lon="5.64769">
        <ele>1416</ele>
        <time>2014-06-28T08:07:21.000Z</time>
      </trkpt>
      <trkpt lat="45.14656" lon="5.64769">
        <ele>1416</ele>
        <time>2014-06-28T08:07:22.000Z</time>
      </trkpt>
      <trkpt lat="45.14656" lon="5.64768">
        <ele>1417</ele>
        <time>2014-06-28T08:07:23.000Z</time>
      </trkpt>
      <trkpt lat="45.14657" lon="5.64768">
        <ele>1417</ele>
        <time>2014-06-28T08:07:24.000Z</time>
      </trkpt>
      <trkpt lat="45.14657" lon="5.64768">
        <ele>1417</ele>
        <time>2014-06-28T08:07:25.000Z</time>
      </trkpt>
      <trkpt lat="45.14657" lon="5.64768">
        <ele>1418</ele>
        <time>2014-06-28T08:07:26.000Z</time>
      </trkpt>
      <trkpt lat="45.14657" lon="5.64768">
        <ele>1418</ele>
        <time>2014-06-28T08:07:27.000Z</time>
      </trkpt>
      <trkpt lat="45.14657" lon="5.64768">
        <ele>1418</ele>
        <time>2014-06-28T08:07:28.000Z</time>
      </trkpt>
      <trkpt lat="45.14657" lon="5.64768">
        <ele>1418</ele>
        <time>2014-06-28T08:07:29.000Z</time>
      </trkpt>
      <trkpt lat="45.14657" lon="5.64768">
        <ele>1418</ele>
        <time>2014-06-28T08:07:30.000Z</time>
      </trkpt>
      <trkpt lat="45.14657" lon="5.64768">
        <ele>1418</ele>
        <time>2014-06-28T08:07:31.000Z</time>
      </trkpt>
      <trkpt lat="45.14657" lon="5.64768">
        <ele>1418</ele>
        <time>2014-06-28T08:07:32.000Z</time>
      </trkpt>
      <trkpt lat="45.14658" lon="5.64768">
        <ele>1418</ele>
        <time>2014-06-28T08:07:33.000Z</time>
      </trkpt>
      <trkpt lat="45.14658" lon="5.64768">
        <ele>1419</ele>
        <time>2014-06-28T08:07:34.000Z</time>
      </trkpt>
      <trkpt lat="45.14659" lon="5.64768">
        <ele>1419</ele>
        <time>2014-06-28T08:07:35.000Z</time>
      </trkpt>
      <trkpt lat="45.14659" lon="5.64768">
        <ele>1419</ele>
        <time>2014-06-28T08:07:36.000Z</time>
      </trkpt>
      <trkpt lat="45.14659" lon="5.64768">
        <ele>1419</ele>
        <time>2014-06-28T08:07:37.000Z</time>
      </trkpt>
      <trkpt lat="45.1466" lon="5.64768">
        <ele>1419</ele>
        <time>2014-06-28T08:07:38.000Z</time>
      </trkpt>
      <trkpt lat="45.1466" lon="5.64768">
        <ele>1419</ele>
        <time>2014-06-28T08:07:39.000Z</time>
      </trkpt>
      <trkpt lat="45.1466" lon="5.64768">
        <ele>1419</ele>
        <time>2014-06-28T08:07:40.000Z</time>
      </trkpt>
      <trkpt lat="45.1466" lon="5.64768">
        <ele>1420</ele>
        <time>2014-06-28T08:07:41.000Z</time>
      </trkpt>
      <trkpt lat="45.1466" lon="5.64769">
        <ele>1420</ele>
        <time>2014-06-28T08:07:42.000Z</time>
      </trkpt>
      <trkpt lat="45.1466" lon="5.64769">
        <ele>1420</ele>
        <time>2014-06-28T08:07:43.000Z</time>
      </trkpt>
      <trkpt lat="45.1466" lon="5.64769">
        <ele>1420</ele>
        <time>2014-06-28T08:07:44.000Z</time>
      </trkpt>
      <trkpt lat="45.1466" lon="5.64769">
        <ele>1420</ele>
        <time>2014-06-28T08:07:45.000Z</time>
      </trkpt>
      <trkpt lat="45.1466" lon="5.64769">
        <ele>1420</ele>
        <time>2014-06-28T08:07:46.000Z</time>
      </trkpt>
      <trkpt lat="45.1466" lon="5.64769">
        <ele>1420</ele>
        <time>2014-06-28T08:07:47.000Z</time>
      </trkpt>
      <trkpt lat="45.1466" lon="5.64769">
        <ele>1420</ele>
        <time>2014-06-28T08:07:48.000Z</time>
      </trkpt>
      <trkpt lat="45.1466" lon="5.64769">
        <ele>1421</ele>
        <time>2014-06-28T08:07:49.000Z</time>
      </trkpt>
      <trkpt lat="45.1466" lon="5.64768">
        <ele>1421</ele>
        <time>2014-06-28T08:07:50.000Z</time>
      </trkpt>
      <trkpt lat="45.1466" lon="5.64768">
        <ele>1421</ele>
        <time>2014-06-28T08:07:51.000Z</time>
      </trkpt>
      <trkpt lat="45.14661" lon="5.64768">
        <ele>1421</ele>
        <time>2014-06-28T08:07:52.000Z</time>
      </trkpt>
      <trkpt lat="45.1466" lon="5.64768">
        <ele>1421</ele>
        <time>2014-06-28T08:07:53.000Z</time>
      </trkpt>
      <trkpt lat="45.1466" lon="5.64768">
        <ele>1421</ele>
        <time>2014-06-28T08:07:54.000Z</time>
      </trkpt>
      <trkpt lat="45.1466" lon="5.64768">
        <ele>1421</ele>
        <time>2014-06-28T08:07:55.000Z</time>
      </trkpt>
      <trkpt lat="45.1466" lon="5.64768">
        <ele>1421</ele>
        <time>2014-06-28T08:07:56.000Z</time>
      </trkpt>
      <trkpt lat="45.1466" lon="5.64768">
        <ele>1421</ele>
        <time>2014-06-28T08:07:57.000Z</time>
      </trkpt>
      <trkpt lat="45.14661" lon="5.64768">
        <ele>1421</ele>
        <time>2014-06-28T08:07:58.000Z</time>
      </trkpt>
      <trkpt lat="45.14661" lon="5.64768">
        <ele>1421</ele>
        <time>2014-06-28T08:07:59.000Z</time>
      </trkpt>
      <trkpt lat="45.14661" lon="5.64768">
        <ele>1422</ele>
        <time>2014-06-28T08:08:00.000Z</time>
      </trkpt>
      <trkpt lat="45.14661" lon="5.64768">
        <ele>1422</ele>
        <time>2014-06-28T08:08:01.000Z</time>
      </trkpt>
      <trkpt lat="45.14661" lon="5.64768">
        <ele>1422</ele>
        <time>2014-06-28T08:08:02.000Z</time>
      </trkpt>
      <trkpt lat="45.14661" lon="5.64768">
        <ele>1422</ele>
        <time>2014-06-28T08:08:03.000Z</time>
      </trkpt>
      <trkpt lat="45.14661" lon="5.64768">
        <ele>1422</ele>
        <time>2014-06-28T08:08:04.000Z</time>
      </trkpt>
      <trkpt lat="45.14661" lon="5.64768">
        <ele>1422</ele>
        <time>2014-06-28T08:08:05.000Z</time>
      </trkpt>
      <trkpt lat="45.14661" lon="5.64768">
        <ele>1422</ele>
        <time>2014-06-28T08:08:06.000Z</time>
      </trkpt>
      <trkpt lat="45.14661" lon="5.64768">
        <ele>1422</ele>
        <time>2014-06-28T08:08:07.000Z</time>
      </trkpt>
      <trkpt lat="45.14661" lon="5.64767">
        <ele>1422</ele>
        <time>2014-06-28T08:08:08.000Z</time>
      </trkpt>
      <trkpt lat="45.14661" lon="5.64768">
        <ele>1422</ele>
        <time>2014-06-28T08:08:09.000Z</time>
      </trkpt>
      <trkpt lat="45.14661" lon="5.64768">
        <ele>1422</ele>
        <time>2014-06-28T08:08:10.000Z</time>
      </trkpt>
      <trkpt lat="45.14661" lon="5.64768">
        <ele>1422</ele>
        <time>2014-06-28T08:08:11.000Z</time>
      </trkpt>
      <trkpt lat="45.14661" lon="5.64768">
        <ele>1422</ele>
        <time>2014-06-28T08:08:12.000Z</time>
      </trkpt>
      <trkpt lat="45.14661" lon="5.64768">
        <ele>1422</ele>
        <time>2014-06-28T08:08:13.000Z</time>
      </trkpt>
      <trkpt lat="45.14661" lon="5.64768">
        <ele>1422</ele>
        <time>2014-06-28T08:08:14.000Z</time>
      </trkpt>
      <trkpt lat="45.14661" lon="5.64768">
        <ele>1422</ele>
        <time>2014-06-28T08:08:15.000Z</time>
      </trkpt>
      <trkpt lat="45.14661" lon="5.64767">
        <ele>1422</ele>
        <time>2014-06-28T08:08:16.000Z</time>
      </trkpt>
      <trkpt lat="45.14661" lon="5.64767">
        <ele>1422</ele>
        <time>2014-06-28T08:08:17.000Z</time>
      </trkpt>
      <trkpt lat="45.14661" lon="5.64767">
        <ele>1422</ele>
        <time>2014-06-28T08:08:18.000Z</time>
      </trkpt>
      <trkpt lat="45.14661" lon="5.64767">
        <ele>1422</ele>
        <time>2014-06-28T08:08:19.000Z</time>
      </trkpt>
      <trkpt lat="45.14661" lon="5.64767">
        <ele>1422</ele>
        <time>2014-06-28T08:08:20.000Z</time>
      </trkpt>
      <trkpt lat="45.14661" lon="5.64767">
        <ele>1422</ele>
        <time>2014-06-28T08:08:21.000Z</time>
      </trkpt>
      <trkpt lat="45.14661" lon="5.64767">
        <ele>1422</ele>
        <time>2014-06-28T08:08:22.000Z</time>
      </trkpt>
      <trkpt lat="45.14661" lon="5.64767">
        <ele>1422</ele>
        <time>2014-06-28T08:08:23.000Z</time>
      </trkpt>
      <trkpt lat="45.14661" lon="5.64767">
        <ele>1422</ele>
        <time>2014-06-28T08:08:24.000Z</time>
      </trkpt>
      <trkpt lat="45.14661" lon="5.64767">
        <ele>1422</ele>
        <time>2014-06-28T08:08:25.000Z</time>
      </trkpt>
      <trkpt lat="45.14661" lon="5.64767">
        <ele>1422</ele>
        <time>2014-06-28T08:08:26.000Z</time>
      </trkpt>
      <trkpt lat="45.14661" lon="5.64767">
        <ele>1422</ele>
        <time>2014-06-28T08:08:27.000Z</time>
      </trkpt>
      <trkpt lat="45.14661" lon="5.64767">
        <ele>1422</ele>
        <time>2014-06-28T08:08:28.000Z</time>
      </trkpt>
      <trkpt lat="45.14661" lon="5.64767">
        <ele>1422</ele>
        <time>2014-06-28T08:08:29.000Z</time>
      </trkpt>
      <trkpt lat="45.14661" lon="5.64767">
        <ele>1422</ele>
        <time>2014-06-28T08:08:30.000Z</time>
      </trkpt>
      <trkpt lat="45.1466" lon="5.64767">
        <ele>1422</ele>
        <time>2014-06-28T08:08:31.000Z</time>
      </trkpt>
      <trkpt lat="45.14661" lon="5.64767">
        <ele>1422</ele>
        <time>2014-06-28T08:08:32.000Z</time>
      </trkpt>
      <trkpt lat="45.1466" lon="5.64767">
        <ele>1422</ele>
        <time>2014-06-28T08:08:33.000Z</time>
      </trkpt>
      <trkpt lat="45.1466" lon="5.64767">
        <ele>1422</ele>
        <time>2014-06-28T08:08:34.000Z</time>
      </trkpt>
      <trkpt lat="45.14661" lon="5.64767">
        <ele>1422</ele>
        <time>2014-06-28T08:08:35.000Z</time>
      </trkpt>
      <trkpt lat="45.14661" lon="5.64767">
        <ele>1422</ele>
        <time>2014-06-28T08:08:36.000Z</time>
      </trkpt>
      <trkpt lat="45.1466" lon="5.64767">
        <ele>1422</ele>
        <time>2014-06-28T08:08:37.000Z</time>
      </trkpt>
      <trkpt lat="45.1466" lon="5.64766">
        <ele>1422</ele>
        <time>2014-06-28T08:08:38.000Z</time>
      </trkpt>
      <trkpt lat="45.1466" lon="5.64766">
        <ele>1422</ele>
        <time>2014-06-28T08:08:39.000Z</time>
      </trkpt>
      <trkpt lat="45.14659" lon="5.64765">
        <ele>1422</ele>
        <time>2014-06-28T08:08:40.000Z</time>
      </trkpt>
      <trkpt lat="45.14659" lon="5.64765">
        <ele>1423</ele>
        <time>2014-06-28T08:08:41.000Z</time>
      </trkpt>
      <trkpt lat="45.1466" lon="5.64764">
        <ele>1423</ele>
        <time>2014-06-28T08:08:42.000Z</time>
      </trkpt>
      <trkpt lat="45.1466" lon="5.64764">
        <ele>1423</ele>
        <time>2014-06-28T08:08:43.000Z</time>
      </trkpt>
      <trkpt lat="45.14661" lon="5.64764">
        <ele>1423</ele>
        <time>2014-06-28T08:08:44.000Z</time>
      </trkpt>
      <trkpt lat="45.14661" lon="5.64764">
        <ele>1423</ele>
        <time>2014-06-28T08:08:45.000Z</time>
      </trkpt>
      <trkpt lat="45.14661" lon="5.64763">
        <ele>1424</ele>
        <time>2014-06-28T08:08:46.000Z</time>
      </trkpt>
      <trkpt lat="45.14662" lon="5.64763">
        <ele>1424</ele>
        <time>2014-06-28T08:08:47.000Z</time>
      </trkpt>
      <trkpt lat="45.14662" lon="5.64762">
        <ele>1424</ele>
        <time>2014-06-28T08:08:48.000Z</time>
      </trkpt>
      <trkpt lat="45.14662" lon="5.64762">
        <ele>1424</ele>
        <time>2014-06-28T08:08:49.000Z</time>
      </trkpt>
      <trkpt lat="45.14662" lon="5.64762">
        <ele>1424</ele>
        <time>2014-06-28T08:08:50.000Z</time>
      </trkpt>
      <trkpt lat="45.14663" lon="5.64761">
        <ele>1424</ele>
        <time>2014-06-28T08:08:51.000Z</time>
      </trkpt>
      <trkpt lat="45.14663" lon="5.64761">
        <ele>1425</ele>
        <time>2014-06-28T08:08:52.000Z</time>
      </trkpt>
      <trkpt lat="45.14663" lon="5.64761">
        <ele>1425</ele>
        <time>2014-06-28T08:08:53.000Z</time>
      </trkpt>
      <trkpt lat="45.14664" lon="5.64761">
        <ele>1425</ele>
        <time>2014-06-28T08:08:54.000Z</time>
      </trkpt>
      <trkpt lat="45.14664" lon="5.64761">
        <ele>1425</ele>
        <time>2014-06-28T08:08:55.000Z</time>
      </trkpt>
      <trkpt lat="45.14664" lon="5.64761">
        <ele>1425</ele>
        <time>2014-06-28T08:08:56.000Z</time>
      </trkpt>
      <trkpt lat="45.14665" lon="5.64762">
        <ele>1425</ele>
        <time>2014-06-28T08:08:57.000Z</time>
      </trkpt>
      <trkpt lat="45.14665" lon="5.64762">
        <ele>1425</ele>
        <time>2014-06-28T08:08:58.000Z</time>
      </trkpt>
      <trkpt lat="45.14665" lon="5.64761">
        <ele>1425</ele>
        <time>2014-06-28T08:08:59.000Z</time>
      </trkpt>
      <trkpt lat="45.14666" lon="5.64761">
        <ele>1426</ele>
        <time>2014-06-28T08:09:00.000Z</time>
      </trkpt>
      <trkpt lat="45.14666" lon="5.6476">
        <ele>1426</ele>
        <time>2014-06-28T08:09:01.000Z</time>
      </trkpt>
      <trkpt lat="45.14666" lon="5.64759">
        <ele>1426</ele>
        <time>2014-06-28T08:09:02.000Z</time>
      </trkpt>
      <trkpt lat="45.14666" lon="5.64758">
        <ele>1426</ele>
        <time>2014-06-28T08:09:03.000Z</time>
      </trkpt>
      <trkpt lat="45.14666" lon="5.64758">
        <ele>1426</ele>
        <time>2014-06-28T08:09:04.000Z</time>
      </trkpt>
      <trkpt lat="45.14666" lon="5.64757">
        <ele>1426</ele>
        <time>2014-06-28T08:09:05.000Z</time>
      </trkpt>
      <trkpt lat="45.14666" lon="5.64756">
        <ele>1427</ele>
        <time>2014-06-28T08:09:06.000Z</time>
      </trkpt>
      <trkpt lat="45.14666" lon="5.64756">
        <ele>1427</ele>
        <time>2014-06-28T08:09:07.000Z</time>
      </trkpt>
      <trkpt lat="45.14666" lon="5.64755">
        <ele>1427</ele>
        <time>2014-06-28T08:09:08.000Z</time>
      </trkpt>
      <trkpt lat="45.14666" lon="5.64754">
        <ele>1427</ele>
        <time>2014-06-28T08:09:09.000Z</time>
      </trkpt>
      <trkpt lat="45.14665" lon="5.64753">
        <ele>1428</ele>
        <time>2014-06-28T08:09:10.000Z</time>
      </trkpt>
      <trkpt lat="45.14665" lon="5.64752">
        <ele>1428</ele>
        <time>2014-06-28T08:09:11.000Z</time>
      </trkpt>
      <trkpt lat="45.14665" lon="5.64751">
        <ele>1428</ele>
        <time>2014-06-28T08:09:12.000Z</time>
      </trkpt>
      <trkpt lat="45.14665" lon="5.64751">
        <ele>1429</ele>
        <time>2014-06-28T08:09:13.000Z</time>
      </trkpt>
      <trkpt lat="45.14665" lon="5.6475">
        <ele>1429</ele>
        <time>2014-06-28T08:09:14.000Z</time>
      </trkpt>
      <trkpt lat="45.14665" lon="5.64749">
        <ele>1429</ele>
        <time>2014-06-28T08:09:15.000Z</time>
      </trkpt>
      <trkpt lat="45.14665" lon="5.64748">
        <ele>1429</ele>
        <time>2014-06-28T08:09:16.000Z</time>
      </trkpt>
      <trkpt lat="45.14665" lon="5.64748">
        <ele>1430</ele>
        <time>2014-06-28T08:09:17.000Z</time>
      </trkpt>
      <trkpt lat="45.14665" lon="5.64747">
        <ele>1430</ele>
        <time>2014-06-28T08:09:18.000Z</time>
      </trkpt>
      <trkpt lat="45.14666" lon="5.64746">
        <ele>1430</ele>
        <time>2014-06-28T08:09:19.000Z</time>
      </trkpt>
      <trkpt lat="45.14666" lon="5.64746">
        <ele>1430</ele>
        <time>2014-06-28T08:09:20.000Z</time>
      </trkpt>
      <trkpt lat="45.14666" lon="5.64746">
        <ele>1430</ele>
        <time>2014-06-28T08:09:21.000Z</time>
      </trkpt>
      <trkpt lat="45.14667" lon="5.64746">
        <ele>1431</ele>
        <time>2014-06-28T08:09:22.000Z</time>
      </trkpt>
      <trkpt lat="45.14667" lon="5.64746">
        <ele>1431</ele>
        <time>2014-06-28T08:09:23.000Z</time>
      </trkpt>
      <trkpt lat="45.14668" lon="5.64745">
        <ele>1431</ele>
        <time>2014-06-28T08:09:24.000Z</time>
      </trkpt>
      <trkpt lat="45.14668" lon="5.64745">
        <ele>1432</ele>
        <time>2014-06-28T08:09:25.000Z</time>
      </trkpt>
      <trkpt lat="45.14669" lon="5.64745">
        <ele>1432</ele>
        <time>2014-06-28T08:09:26.000Z</time>
      </trkpt>
      <trkpt lat="45.1467" lon="5.64745">
        <ele>1432</ele>
        <time>2014-06-28T08:09:27.000Z</time>
      </trkpt>
      <trkpt lat="45.1467" lon="5.64745">
        <ele>1433</ele>
        <time>2014-06-28T08:09:28.000Z</time>
      </trkpt>
      <trkpt lat="45.14671" lon="5.64745">
        <ele>1433</ele>
        <time>2014-06-28T08:09:29.000Z</time>
      </trkpt>
      <trkpt lat="45.14672" lon="5.64744">
        <ele>1433</ele>
        <time>2014-06-28T08:09:30.000Z</time>
      </trkpt>
      <trkpt lat="45.14672" lon="5.64744">
        <ele>1434</ele>
        <time>2014-06-28T08:09:31.000Z</time>
      </trkpt>
      <trkpt lat="45.14672" lon="5.64743">
        <ele>1434</ele>
        <time>2014-06-28T08:09:32.000Z</time>
      </trkpt>
      <trkpt lat="45.14672" lon="5.64743">
        <ele>1434</ele>
        <time>2014-06-28T08:09:33.000Z</time>
      </trkpt>
      <trkpt lat="45.14672" lon="5.64742">
        <ele>1434</ele>
        <time>2014-06-28T08:09:34.000Z</time>
      </trkpt>
      <trkpt lat="45.14672" lon="5.64742">
        <ele>1435</ele>
        <time>2014-06-28T08:09:35.000Z</time>
      </trkpt>
      <trkpt lat="45.14672" lon="5.64741">
        <ele>1435</ele>
        <time>2014-06-28T08:09:36.000Z</time>
      </trkpt>
      <trkpt lat="45.14671" lon="5.6474">
        <ele>1435</ele>
        <time>2014-06-28T08:09:37.000Z</time>
      </trkpt>
      <trkpt lat="45.14671" lon="5.64739">
        <ele>1435</ele>
        <time>2014-06-28T08:09:38.000Z</time>
      </trkpt>
      <trkpt lat="45.14671" lon="5.64739">
        <ele>1436</ele>
        <time>2014-06-28T08:09:39.000Z</time>
      </trkpt>
      <trkpt lat="45.14671" lon="5.64738">
        <ele>1436</ele>
        <time>2014-06-28T08:09:40.000Z</time>
      </trkpt>
      <trkpt lat="45.14671" lon="5.64738">
        <ele>1436</ele>
        <time>2014-06-28T08:09:41.000Z</time>
      </trkpt>
      <trkpt lat="45.14671" lon="5.64737">
        <ele>1437</ele>
        <time>2014-06-28T08:09:42.000Z</time>
      </trkpt>
      <trkpt lat="45.14672" lon="5.64736">
        <ele>1437</ele>
        <time>2014-06-28T08:09:43.000Z</time>
      </trkpt>
      <trkpt lat="45.14672" lon="5.64736">
        <ele>1437</ele>
        <time>2014-06-28T08:09:44.000Z</time>
      </trkpt>
      <trkpt lat="45.14672" lon="5.64736">
        <ele>1438</ele>
        <time>2014-06-28T08:09:45.000Z</time>
      </trkpt>
      <trkpt lat="45.14672" lon="5.64736">
        <ele>1438</ele>
        <time>2014-06-28T08:09:46.000Z</time>
      </trkpt>
      <trkpt lat="45.14671" lon="5.64736">
        <ele>1438</ele>
        <time>2014-06-28T08:09:47.000Z</time>
      </trkpt>
      <trkpt lat="45.14671" lon="5.64735">
        <ele>1438</ele>
        <time>2014-06-28T08:09:48.000Z</time>
      </trkpt>
      <trkpt lat="45.14671" lon="5.64735">
        <ele>1438</ele>
        <time>2014-06-28T08:09:49.000Z</time>
      </trkpt>
      <trkpt lat="45.14671" lon="5.64735">
        <ele>1438</ele>
        <time>2014-06-28T08:09:50.000Z</time>
      </trkpt>
      <trkpt lat="45.14671" lon="5.64734">
        <ele>1439</ele>
        <time>2014-06-28T08:09:51.000Z</time>
      </trkpt>
      <trkpt lat="45.14671" lon="5.64733">
        <ele>1439</ele>
        <time>2014-06-28T08:09:52.000Z</time>
      </trkpt>
      <trkpt lat="45.14671" lon="5.64733">
        <ele>1439</ele>
        <time>2014-06-28T08:09:53.000Z</time>
      </trkpt>
      <trkpt lat="45.14671" lon="5.64732">
        <ele>1440</ele>
        <time>2014-06-28T08:09:54.000Z</time>
      </trkpt>
      <trkpt lat="45.14671" lon="5.64731">
        <ele>1440</ele>
        <time>2014-06-28T08:09:55.000Z</time>
      </trkpt>
      <trkpt lat="45.14671" lon="5.6473">
        <ele>1440</ele>
        <time>2014-06-28T08:09:56.000Z</time>
      </trkpt>
      <trkpt lat="45.14671" lon="5.6473">
        <ele>1441</ele>
        <time>2014-06-28T08:09:57.000Z</time>
      </trkpt>
      <trkpt lat="45.14671" lon="5.64729">
        <ele>1441</ele>
        <time>2014-06-28T08:09:58.000Z</time>
      </trkpt>
      <trkpt lat="45.1467" lon="5.64728">
        <ele>1441</ele>
        <time>2014-06-28T08:09:59.000Z</time>
      </trkpt>
      <trkpt lat="45.1467" lon="5.64727">
        <ele>1442</ele>
        <time>2014-06-28T08:10:00.000Z</time>
      </trkpt>
      <trkpt lat="45.1467" lon="5.64727">
        <ele>1442</ele>
        <time>2014-06-28T08:10:01.000Z</time>
      </trkpt>
      <trkpt lat="45.1467" lon="5.64726">
        <ele>1442</ele>
        <time>2014-06-28T08:10:02.000Z</time>
      </trkpt>
      <trkpt lat="45.1467" lon="5.64725">
        <ele>1443</ele>
        <time>2014-06-28T08:10:03.000Z</time>
      </trkpt>
      <trkpt lat="45.1467" lon="5.64724">
        <ele>1443</ele>
        <time>2014-06-28T08:10:04.000Z</time>
      </trkpt>
      <trkpt lat="45.1467" lon="5.64723">
        <ele>1444</ele>
        <time>2014-06-28T08:10:05.000Z</time>
      </trkpt>
      <trkpt lat="45.1467" lon="5.64723">
        <ele>1444</ele>
        <time>2014-06-28T08:10:06.000Z</time>
      </trkpt>
      <trkpt lat="45.1467" lon="5.64722">
        <ele>1445</ele>
        <time>2014-06-28T08:10:07.000Z</time>
      </trkpt>
      <trkpt lat="45.1467" lon="5.64722">
        <ele>1445</ele>
        <time>2014-06-28T08:10:08.000Z</time>
      </trkpt>
      <trkpt lat="45.1467" lon="5.64721">
        <ele>1445</ele>
        <time>2014-06-28T08:10:09.000Z</time>
      </trkpt>
      <trkpt lat="45.1467" lon="5.64721">
        <ele>1446</ele>
        <time>2014-06-28T08:10:10.000Z</time>
      </trkpt>
      <trkpt lat="45.1467" lon="5.6472">
        <ele>1446</ele>
        <time>2014-06-28T08:10:11.000Z</time>
      </trkpt>
      <trkpt lat="45.1467" lon="5.64719">
        <ele>1446</ele>
        <time>2014-06-28T08:10:12.000Z</time>
      </trkpt>
      <trkpt lat="45.1467" lon="5.64718">
        <ele>1447</ele>
        <time>2014-06-28T08:10:13.000Z</time>
      </trkpt>
      <trkpt lat="45.1467" lon="5.64718">
        <ele>1447</ele>
        <time>2014-06-28T08:10:14.000Z</time>
      </trkpt>
      <trkpt lat="45.1467" lon="5.64717">
        <ele>1447</ele>
        <time>2014-06-28T08:10:15.000Z</time>
      </trkpt>
      <trkpt lat="45.14669" lon="5.64716">
        <ele>1448</ele>
        <time>2014-06-28T08:10:16.000Z</time>
      </trkpt>
      <trkpt lat="45.14669" lon="5.64715">
        <ele>1448</ele>
        <time>2014-06-28T08:10:17.000Z</time>
      </trkpt>
      <trkpt lat="45.14668" lon="5.64714">
        <ele>1449</ele>
        <time>2014-06-28T08:10:18.000Z</time>
      </trkpt>
      <trkpt lat="45.14668" lon="5.64713">
        <ele>1449</ele>
        <time>2014-06-28T08:10:19.000Z</time>
      </trkpt>
      <trkpt lat="45.14668" lon="5.64712">
        <ele>1450</ele>
        <time>2014-06-28T08:10:20.000Z</time>
      </trkpt>
      <trkpt lat="45.14668" lon="5.64712">
        <ele>1450</ele>
        <time>2014-06-28T08:10:21.000Z</time>
      </trkpt>
      <trkpt lat="45.14668" lon="5.64712">
        <ele>1450</ele>
        <time>2014-06-28T08:10:22.000Z</time>
      </trkpt>
      <trkpt lat="45.14669" lon="5.64712">
        <ele>1451</ele>
        <time>2014-06-28T08:10:23.000Z</time>
      </trkpt>
      <trkpt lat="45.14669" lon="5.64712">
        <ele>1451</ele>
        <time>2014-06-28T08:10:24.000Z</time>
      </trkpt>
      <trkpt lat="45.1467" lon="5.64712">
        <ele>1452</ele>
        <time>2014-06-28T08:10:25.000Z</time>
      </trkpt>
      <trkpt lat="45.1467" lon="5.64712">
        <ele>1452</ele>
        <time>2014-06-28T08:10:26.000Z</time>
      </trkpt>
      <trkpt lat="45.1467" lon="5.64712">
        <ele>1452</ele>
        <time>2014-06-28T08:10:27.000Z</time>
      </trkpt>
      <trkpt lat="45.14671" lon="5.64712">
        <ele>1453</ele>
        <time>2014-06-28T08:10:28.000Z</time>
      </trkpt>
      <trkpt lat="45.14671" lon="5.64713">
        <ele>1453</ele>
        <time>2014-06-28T08:10:29.000Z</time>
      </trkpt>
      <trkpt lat="45.14672" lon="5.64713">
        <ele>1454</ele>
        <time>2014-06-28T08:10:30.000Z</time>
      </trkpt>
      <trkpt lat="45.14673" lon="5.64713">
        <ele>1454</ele>
        <time>2014-06-28T08:10:31.000Z</time>
      </trkpt>
      <trkpt lat="45.14673" lon="5.64713">
        <ele>1454</ele>
        <time>2014-06-28T08:10:32.000Z</time>
      </trkpt>
      <trkpt lat="45.14674" lon="5.64713">
        <ele>1455</ele>
        <time>2014-06-28T08:10:33.000Z</time>
      </trkpt>
      <trkpt lat="45.14675" lon="5.64713">
        <ele>1455</ele>
        <time>2014-06-28T08:10:34.000Z</time>
      </trkpt>
      <trkpt lat="45.14675" lon="5.64713">
        <ele>1456</ele>
        <time>2014-06-28T08:10:35.000Z</time>
      </trkpt>
      <trkpt lat="45.14675" lon="5.64713">
        <ele>1456</ele>
        <time>2014-06-28T08:10:36.000Z</time>
      </trkpt>
      <trkpt lat="45.14676" lon="5.64713">
        <ele>1456</ele>
        <time>2014-06-28T08:10:37.000Z</time>
      </trkpt>
      <trkpt lat="45.14676" lon="5.64713">
        <ele>1456</ele>
        <time>2014-06-28T08:10:38.000Z</time>
      </trkpt>
      <trkpt lat="45.14676" lon="5.64713">
        <ele>1457</ele>
        <time>2014-06-28T08:10:39.000Z</time>
      </trkpt>
      <trkpt lat="45.14677" lon="5.64712">
        <ele>1457</ele>
        <time>2014-06-28T08:10:40.000Z</time>
      </trkpt>
      <trkpt lat="45.14678" lon="5.64712">
        <ele>1457</ele>
        <time>2014-06-28T08:10:41.000Z</time>
      </trkpt>
      <trkpt lat="45.14678" lon="5.64712">
        <ele>1457</ele>
        <time>2014-06-28T08:10:42.000Z</time>
      </trkpt>
      <trkpt lat="45.14678" lon="5.64712">
        <ele>1457</ele>
        <time>2014-06-28T08:10:43.000Z</time>
      </trkpt>
      <trkpt lat="45.14678" lon="5.64712">
        <ele>1457</ele>
        <time>2014-06-28T08:10:44.000Z</time>
      </trkpt>
      <trkpt lat="45.14679" lon="5.64711">
        <ele>1458</ele>
        <time>2014-06-28T08:10:45.000Z</time>
      </trkpt>
      <trkpt lat="45.14679" lon="5.6471">
        <ele>1458</ele>
        <time>2014-06-28T08:10:46.000Z</time>
      </trkpt>
      <trkpt lat="45.14679" lon="5.64709">
        <ele>1458</ele>
        <time>2014-06-28T08:10:47.000Z</time>
      </trkpt>
      <trkpt lat="45.14679" lon="5.64709">
        <ele>1458</ele>
        <time>2014-06-28T08:10:48.000Z</time>
      </trkpt>
      <trkpt lat="45.1468" lon="5.64709">
        <ele>1458</ele>
        <time>2014-06-28T08:10:49.000Z</time>
      </trkpt>
      <trkpt lat="45.1468" lon="5.64709">
        <ele>1458</ele>
        <time>2014-06-28T08:10:50.000Z</time>
      </trkpt>
      <trkpt lat="45.14681" lon="5.64709">
        <ele>1458</ele>
        <time>2014-06-28T08:10:51.000Z</time>
      </trkpt>
      <trkpt lat="45.14681" lon="5.64709">
        <ele>1458</ele>
        <time>2014-06-28T08:10:52.000Z</time>
      </trkpt>
      <trkpt lat="45.14681" lon="5.64708">
        <ele>1459</ele>
        <time>2014-06-28T08:10:53.000Z</time>
      </trkpt>
      <trkpt lat="45.14682" lon="5.64708">
        <ele>1459</ele>
        <time>2014-06-28T08:10:54.000Z</time>
      </trkpt>
      <trkpt lat="45.14682" lon="5.64708">
        <ele>1459</ele>
        <time>2014-06-28T08:10:55.000Z</time>
      </trkpt>
      <trkpt lat="45.14682" lon="5.64708">
        <ele>1459</ele>
        <time>2014-06-28T08:10:56.000Z</time>
      </trkpt>
      <trkpt lat="45.14683" lon="5.64708">
        <ele>1459</ele>
        <time>2014-06-28T08:10:57.000Z</time>
      </trkpt>
      <trkpt lat="45.14683" lon="5.64708">
        <ele>1460</ele>
        <time>2014-06-28T08:10:58.000Z</time>
      </trkpt>
      <trkpt lat="45.14683" lon="5.64708">
        <ele>1460</ele>
        <time>2014-06-28T08:10:59.000Z</time>
      </trkpt>
      <trkpt lat="45.14683" lon="5.64708">
        <ele>1460</ele>
        <time>2014-06-28T08:11:00.000Z</time>
      </trkpt>
      <trkpt lat="45.14683" lon="5.64707">
        <ele>1460</ele>
        <time>2014-06-28T08:11:01.000Z</time>
      </trkpt>
      <trkpt lat="45.14683" lon="5.64707">
        <ele>1461</ele>
        <time>2014-06-28T08:11:02.000Z</time>
      </trkpt>
      <trkpt lat="45.14683" lon="5.64706">
        <ele>1461</ele>
        <time>2014-06-28T08:11:03.000Z</time>
      </trkpt>
      <trkpt lat="45.14682" lon="5.64706">
        <ele>1462</ele>
        <time>2014-06-28T08:11:04.000Z</time>
      </trkpt>
      <trkpt lat="45.14681" lon="5.64705">
        <ele>1462</ele>
        <time>2014-06-28T08:11:05.000Z</time>
      </trkpt>
      <trkpt lat="45.14681" lon="5.64704">
        <ele>1462</ele>
        <time>2014-06-28T08:11:06.000Z</time>
      </trkpt>
      <trkpt lat="45.1468" lon="5.64703">
        <ele>1463</ele>
        <time>2014-06-28T08:11:07.000Z</time>
      </trkpt>
      <trkpt lat="45.14679" lon="5.64702">
        <ele>1463</ele>
        <time>2014-06-28T08:11:08.000Z</time>
      </trkpt>
      <trkpt lat="45.14679" lon="5.64701">
        <ele>1464</ele>
        <time>2014-06-28T08:11:09.000Z</time>
      </trkpt>
      <trkpt lat="45.14679" lon="5.647">
        <ele>1464</ele>
        <time>2014-06-28T08:11:10.000Z</time>
      </trkpt>
      <trkpt lat="45.14678" lon="5.64699">
        <ele>1464</ele>
        <time>2014-06-28T08:11:11.000Z</time>
      </trkpt>
      <trkpt lat="45.14678" lon="5.64698">
        <ele>1465</ele>
        <time>2014-06-28T08:11:12.000Z</time>
      </trkpt>
      <trkpt lat="45.14678" lon="5.64698">
        <ele>1465</ele>
        <time>2014-06-28T08:11:13.000Z</time>
      </trkpt>
      <trkpt lat="45.14678" lon="5.64697">
        <ele>1466</ele>
        <time>2014-06-28T08:11:14.000Z</time>
      </trkpt>
      <trkpt lat="45.14677" lon="5.64696">
        <ele>1466</ele>
        <time>2014-06-28T08:11:15.000Z</time>
      </trkpt>
      <trkpt lat="45.14677" lon="5.64695">
        <ele>1466</ele>
        <time>2014-06-28T08:11:16.000Z</time>
      </trkpt>
      <trkpt lat="45.14677" lon="5.64695">
        <ele>1467</ele>
        <time>2014-06-28T08:11:17.000Z</time>
      </trkpt>
      <trkpt lat="45.14676" lon="5.64695">
        <ele>1467</ele>
        <time>2014-06-28T08:11:18.000Z</time>
      </trkpt>
      <trkpt lat="45.14676" lon="5.64694">
        <ele>1467</ele>
        <time>2014-06-28T08:11:19.000Z</time>
      </trkpt>
      <trkpt lat="45.14675" lon="5.64694">
        <ele>1468</ele>
        <time>2014-06-28T08:11:20.000Z</time>
      </trkpt>
      <trkpt lat="45.14675" lon="5.64694">
        <ele>1468</ele>
        <time>2014-06-28T08:11:21.000Z</time>
      </trkpt>
      <trkpt lat="45.14674" lon="5.64693">
        <ele>1468</ele>
        <time>2014-06-28T08:11:22.000Z</time>
      </trkpt>
      <trkpt lat="45.14674" lon="5.64693">
        <ele>1469</ele>
        <time>2014-06-28T08:11:23.000Z</time>
      </trkpt>
      <trkpt lat="45.14673" lon="5.64692">
        <ele>1469</ele>
        <time>2014-06-28T08:11:24.000Z</time>
      </trkpt>
      <trkpt lat="45.14672" lon="5.64691">
        <ele>1469</ele>
        <time>2014-06-28T08:11:25.000Z</time>
      </trkpt>
      <trkpt lat="45.14672" lon="5.6469">
        <ele>1470</ele>
        <time>2014-06-28T08:11:26.000Z</time>
      </trkpt>
      <trkpt lat="45.14671" lon="5.6469">
        <ele>1470</ele>
        <time>2014-06-28T08:11:27.000Z</time>
      </trkpt>
      <trkpt lat="45.14671" lon="5.64689">
        <ele>1470</ele>
        <time>2014-06-28T08:11:28.000Z</time>
      </trkpt>
      <trkpt lat="45.14671" lon="5.64688">
        <ele>1470</ele>
        <time>2014-06-28T08:11:29.000Z</time>
      </trkpt>
      <trkpt lat="45.14671" lon="5.64688">
        <ele>1471</ele>
        <time>2014-06-28T08:11:30.000Z</time>
      </trkpt>
      <trkpt lat="45.1467" lon="5.64688">
        <ele>1471</ele>
        <time>2014-06-28T08:11:31.000Z</time>
      </trkpt>
      <trkpt lat="45.1467" lon="5.64687">
        <ele>1471</ele>
        <time>2014-06-28T08:11:32.000Z</time>
      </trkpt>
      <trkpt lat="45.1467" lon="5.64687">
        <ele>1471</ele>
        <time>2014-06-28T08:11:33.000Z</time>
      </trkpt>
      <trkpt lat="45.1467" lon="5.64686">
        <ele>1471</ele>
        <time>2014-06-28T08:11:34.000Z</time>
      </trkpt>
      <trkpt lat="45.14671" lon="5.64686">
        <ele>1471</ele>
        <time>2014-06-28T08:11:35.000Z</time>
      </trkpt>
      <trkpt lat="45.14671" lon="5.64686">
        <ele>1472</ele>
        <time>2014-06-28T08:11:36.000Z</time>
      </trkpt>
      <trkpt lat="45.14671" lon="5.64685">
        <ele>1472</ele>
        <time>2014-06-28T08:11:37.000Z</time>
      </trkpt>
      <trkpt lat="45.14671" lon="5.64685">
        <ele>1472</ele>
        <time>2014-06-28T08:11:38.000Z</time>
      </trkpt>
      <trkpt lat="45.14671" lon="5.64684">
        <ele>1472</ele>
        <time>2014-06-28T08:11:39.000Z</time>
      </trkpt>
      <trkpt lat="45.14671" lon="5.64684">
        <ele>1472</ele>
        <time>2014-06-28T08:11:40.000Z</time>
      </trkpt>
      <trkpt lat="45.1467" lon="5.64683">
        <ele>1472</ele>
        <time>2014-06-28T08:11:41.000Z</time>
      </trkpt>
      <trkpt lat="45.1467" lon="5.64683">
        <ele>1472</ele>
        <time>2014-06-28T08:11:42.000Z</time>
      </trkpt>
      <trkpt lat="45.1467" lon="5.64683">
        <ele>1472</ele>
        <time>2014-06-28T08:11:43.000Z</time>
      </trkpt>
      <trkpt lat="45.14669" lon="5.64682">
        <ele>1472</ele>
        <time>2014-06-28T08:11:44.000Z</time>
      </trkpt>
      <trkpt lat="45.14669" lon="5.64682">
        <ele>1472</ele>
        <time>2014-06-28T08:11:45.000Z</time>
      </trkpt>
      <trkpt lat="45.14669" lon="5.64682">
        <ele>1472</ele>
        <time>2014-06-28T08:11:46.000Z</time>
      </trkpt>
      <trkpt lat="45.14669" lon="5.64681">
        <ele>1472</ele>
        <time>2014-06-28T08:11:47.000Z</time>
      </trkpt>
      <trkpt lat="45.1467" lon="5.6468">
        <ele>1473</ele>
        <time>2014-06-28T08:11:48.000Z</time>
      </trkpt>
      <trkpt lat="45.1467" lon="5.6468">
        <ele>1473</ele>
        <time>2014-06-28T08:11:49.000Z</time>
      </trkpt>
      <trkpt lat="45.1467" lon="5.6468">
        <ele>1473</ele>
        <time>2014-06-28T08:11:50.000Z</time>
      </trkpt>
      <trkpt lat="45.1467" lon="5.64679">
        <ele>1473</ele>
        <time>2014-06-28T08:11:51.000Z</time>
      </trkpt>
      <trkpt lat="45.1467" lon="5.64679">
        <ele>1473</ele>
        <time>2014-06-28T08:11:52.000Z</time>
      </trkpt>
      <trkpt lat="45.1467" lon="5.64679">
        <ele>1473</ele>
        <time>2014-06-28T08:11:53.000Z</time>
      </trkpt>
      <trkpt lat="45.14669" lon="5.64679">
        <ele>1473</ele>
        <time>2014-06-28T08:11:54.000Z</time>
      </trkpt>
      <trkpt lat="45.14669" lon="5.64679">
        <ele>1473</ele>
        <time>2014-06-28T08:11:55.000Z</time>
      </trkpt>
      <trkpt lat="45.14669" lon="5.64679">
        <ele>1473</ele>
        <time>2014-06-28T08:11:56.000Z</time>
      </trkpt>
      <trkpt lat="45.14669" lon="5.64679">
        <ele>1473</ele>
        <time>2014-06-28T08:11:57.000Z</time>
      </trkpt>
      <trkpt lat="45.14669" lon="5.64679">
        <ele>1474</ele>
        <time>2014-06-28T08:11:58.000Z</time>
      </trkpt>
      <trkpt lat="45.14669" lon="5.64679">
        <ele>1474</ele>
        <time>2014-06-28T08:11:59.000Z</time>
      </trkpt>
      <trkpt lat="45.14669" lon="5.64678">
        <ele>1474</ele>
        <time>2014-06-28T08:12:00.000Z</time>
      </trkpt>
      <trkpt lat="45.14669" lon="5.64677">
        <ele>1474</ele>
        <time>2014-06-28T08:12:01.000Z</time>
      </trkpt>
      <trkpt lat="45.14669" lon="5.64676">
        <ele>1474</ele>
        <time>2014-06-28T08:12:02.000Z</time>
      </trkpt>
      <trkpt lat="45.14669" lon="5.64675">
        <ele>1474</ele>
        <time>2014-06-28T08:12:03.000Z</time>
      </trkpt>
      <trkpt lat="45.1467" lon="5.64674">
        <ele>1475</ele>
        <time>2014-06-28T08:12:04.000Z</time>
      </trkpt>
      <trkpt lat="45.1467" lon="5.64674">
        <ele>1475</ele>
        <time>2014-06-28T08:12:05.000Z</time>
      </trkpt>
      <trkpt lat="45.1467" lon="5.64673">
        <ele>1475</ele>
        <time>2014-06-28T08:12:06.000Z</time>
      </trkpt>
      <trkpt lat="45.14671" lon="5.64672">
        <ele>1475</ele>
        <time>2014-06-28T08:12:07.000Z</time>
      </trkpt>
      <trkpt lat="45.14671" lon="5.64671">
        <ele>1476</ele>
        <time>2014-06-28T08:12:08.000Z</time>
      </trkpt>
      <trkpt lat="45.14672" lon="5.64671">
        <ele>1476</ele>
        <time>2014-06-28T08:12:09.000Z</time>
      </trkpt>
      <trkpt lat="45.14672" lon="5.64671">
        <ele>1476</ele>
        <time>2014-06-28T08:12:10.000Z</time>
      </trkpt>
      <trkpt lat="45.14672" lon="5.64671">
        <ele>1476</ele>
        <time>2014-06-28T08:12:11.000Z</time>
      </trkpt>
      <trkpt lat="45.14673" lon="5.64671">
        <ele>1476</ele>
        <time>2014-06-28T08:12:12.000Z</time>
      </trkpt>
      <trkpt lat="45.14673" lon="5.64672">
        <ele>1477</ele>
        <time>2014-06-28T08:12:13.000Z</time>
      </trkpt>
      <trkpt lat="45.14674" lon="5.64672">
        <ele>1477</ele>
        <time>2014-06-28T08:12:14.000Z</time>
      </trkpt>
      <trkpt lat="45.14675" lon="5.64671">
        <ele>1477</ele>
        <time>2014-06-28T08:12:15.000Z</time>
      </trkpt>
      <trkpt lat="45.14675" lon="5.64671">
        <ele>1478</ele>
        <time>2014-06-28T08:12:16.000Z</time>
      </trkpt>
      <trkpt lat="45.14676" lon="5.64671">
        <ele>1478</ele>
        <time>2014-06-28T08:12:17.000Z</time>
      </trkpt>
      <trkpt lat="45.14677" lon="5.6467">
        <ele>1478</ele>
        <time>2014-06-28T08:12:18.000Z</time>
      </trkpt>
      <trkpt lat="45.14677" lon="5.6467">
        <ele>1478</ele>
        <time>2014-06-28T08:12:19.000Z</time>
      </trkpt>
      <trkpt lat="45.14678" lon="5.64669">
        <ele>1479</ele>
        <time>2014-06-28T08:12:20.000Z</time>
      </trkpt>
      <trkpt lat="45.14678" lon="5.64668">
        <ele>1479</ele>
        <time>2014-06-28T08:12:21.000Z</time>
      </trkpt>
      <trkpt lat="45.14677" lon="5.64668">
        <ele>1479</ele>
        <time>2014-06-28T08:12:22.000Z</time>
      </trkpt>
      <trkpt lat="45.14677" lon="5.64667">
        <ele>1479</ele>
        <time>2014-06-28T08:12:23.000Z</time>
      </trkpt>
      <trkpt lat="45.14676" lon="5.64667">
        <ele>1479</ele>
        <time>2014-06-28T08:12:24.000Z</time>
      </trkpt>
      <trkpt lat="45.14676" lon="5.64666">
        <ele>1479</ele>
        <time>2014-06-28T08:12:25.000Z</time>
      </trkpt>
      <trkpt lat="45.14676" lon="5.64665">
        <ele>1479</ele>
        <time>2014-06-28T08:12:26.000Z</time>
      </trkpt>
      <trkpt lat="45.14676" lon="5.64665">
        <ele>1480</ele>
        <time>2014-06-28T08:12:27.000Z</time>
      </trkpt>
      <trkpt lat="45.14677" lon="5.64664">
        <ele>1480</ele>
        <time>2014-06-28T08:12:28.000Z</time>
      </trkpt>
      <trkpt lat="45.14677" lon="5.64663">
        <ele>1480</ele>
        <time>2014-06-28T08:12:29.000Z</time>
      </trkpt>
      <trkpt lat="45.14677" lon="5.64663">
        <ele>1480</ele>
        <time>2014-06-28T08:12:30.000Z</time>
      </trkpt>
      <trkpt lat="45.14678" lon="5.64662">
        <ele>1480</ele>
        <time>2014-06-28T08:12:31.000Z</time>
      </trkpt>
      <trkpt lat="45.14678" lon="5.64662">
        <ele>1481</ele>
        <time>2014-06-28T08:12:32.000Z</time>
      </trkpt>
      <trkpt lat="45.14678" lon="5.64662">
        <ele>1481</ele>
        <time>2014-06-28T08:12:33.000Z</time>
      </trkpt>
      <trkpt lat="45.14678" lon="5.64662">
        <ele>1481</ele>
        <time>2014-06-28T08:12:34.000Z</time>
      </trkpt>
      <trkpt lat="45.14679" lon="5.64661">
        <ele>1481</ele>
        <time>2014-06-28T08:12:35.000Z</time>
      </trkpt>
      <trkpt lat="45.14679" lon="5.64661">
        <ele>1481</ele>
        <time>2014-06-28T08:12:36.000Z</time>
      </trkpt>
      <trkpt lat="45.14679" lon="5.64661">
        <ele>1482</ele>
        <time>2014-06-28T08:12:37.000Z</time>
      </trkpt>
      <trkpt lat="45.14679" lon="5.64661">
        <ele>1482</ele>
        <time>2014-06-28T08:12:38.000Z</time>
      </trkpt>
      <trkpt lat="45.14678" lon="5.64661">
        <ele>1482</ele>
        <time>2014-06-28T08:12:39.000Z</time>
      </trkpt>
      <trkpt lat="45.14679" lon="5.64661">
        <ele>1483</ele>
        <time>2014-06-28T08:12:40.000Z</time>
      </trkpt>
      <trkpt lat="45.14679" lon="5.64661">
        <ele>1483</ele>
        <time>2014-06-28T08:12:41.000Z</time>
      </trkpt>
      <trkpt lat="45.14679" lon="5.64661">
        <ele>1483</ele>
        <time>2014-06-28T08:12:42.000Z</time>
      </trkpt>
      <trkpt lat="45.1468" lon="5.64661">
        <ele>1483</ele>
        <time>2014-06-28T08:12:43.000Z</time>
      </trkpt>
      <trkpt lat="45.1468" lon="5.64661">
        <ele>1483</ele>
        <time>2014-06-28T08:12:44.000Z</time>
      </trkpt>
      <trkpt lat="45.1468" lon="5.6466">
        <ele>1483</ele>
        <time>2014-06-28T08:12:45.000Z</time>
      </trkpt>
      <trkpt lat="45.1468" lon="5.64659">
        <ele>1484</ele>
        <time>2014-06-28T08:12:46.000Z</time>
      </trkpt>
      <trkpt lat="45.14681" lon="5.64658">
        <ele>1484</ele>
        <time>2014-06-28T08:12:47.000Z</time>
      </trkpt>
      <trkpt lat="45.14681" lon="5.64658">
        <ele>1484</ele>
        <time>2014-06-28T08:12:48.000Z</time>
      </trkpt>
      <trkpt lat="45.14681" lon="5.64657">
        <ele>1484</ele>
        <time>2014-06-28T08:12:49.000Z</time>
      </trkpt>
      <trkpt lat="45.14682" lon="5.64656">
        <ele>1485</ele>
        <time>2014-06-28T08:12:50.000Z</time>
      </trkpt>
      <trkpt lat="45.14682" lon="5.64656">
        <ele>1485</ele>
        <time>2014-06-28T08:12:51.000Z</time>
      </trkpt>
      <trkpt lat="45.14683" lon="5.64655">
        <ele>1485</ele>
        <time>2014-06-28T08:12:52.000Z</time>
      </trkpt>
      <trkpt lat="45.14683" lon="5.64655">
        <ele>1486</ele>
        <time>2014-06-28T08:12:53.000Z</time>
      </trkpt>
      <trkpt lat="45.14683" lon="5.64654">
        <ele>1486</ele>
        <time>2014-06-28T08:12:54.000Z</time>
      </trkpt>
      <trkpt lat="45.14683" lon="5.64653">
        <ele>1486</ele>
        <time>2014-06-28T08:12:55.000Z</time>
      </trkpt>
      <trkpt lat="45.14683" lon="5.64653">
        <ele>1487</ele>
        <time>2014-06-28T08:12:56.000Z</time>
      </trkpt>
      <trkpt lat="45.14683" lon="5.64652">
        <ele>1487</ele>
        <time>2014-06-28T08:12:57.000Z</time>
      </trkpt>
      <trkpt lat="45.14683" lon="5.64652">
        <ele>1487</ele>
        <time>2014-06-28T08:12:58.000Z</time>
      </trkpt>
      <trkpt lat="45.14683" lon="5.64651">
        <ele>1488</ele>
        <time>2014-06-28T08:12:59.000Z</time>
      </trkpt>
      <trkpt lat="45.14683" lon="5.64651">
        <ele>1488</ele>
        <time>2014-06-28T08:13:00.000Z</time>
      </trkpt>
      <trkpt lat="45.14683" lon="5.64651">
        <ele>1488</ele>
        <time>2014-06-28T08:13:01.000Z</time>
      </trkpt>
      <trkpt lat="45.14683" lon="5.6465">
        <ele>1489</ele>
        <time>2014-06-28T08:13:02.000Z</time>
      </trkpt>
      <trkpt lat="45.14683" lon="5.6465">
        <ele>1489</ele>
        <time>2014-06-28T08:13:03.000Z</time>
      </trkpt>
      <trkpt lat="45.14682" lon="5.64649">
        <ele>1490</ele>
        <time>2014-06-28T08:13:04.000Z</time>
      </trkpt>
      <trkpt lat="45.14682" lon="5.64649">
        <ele>1490</ele>
        <time>2014-06-28T08:13:05.000Z</time>
      </trkpt>
      <trkpt lat="45.14682" lon="5.64649">
        <ele>1490</ele>
        <time>2014-06-28T08:13:06.000Z</time>
      </trkpt>
      <trkpt lat="45.14682" lon="5.64648">
        <ele>1490</ele>
        <time>2014-06-28T08:13:07.000Z</time>
      </trkpt>
      <trkpt lat="45.14682" lon="5.64648">
        <ele>1491</ele>
        <time>2014-06-28T08:13:08.000Z</time>
      </trkpt>
      <trkpt lat="45.14683" lon="5.64647">
        <ele>1491</ele>
        <time>2014-06-28T08:13:09.000Z</time>
      </trkpt>
      <trkpt lat="45.14683" lon="5.64647">
        <ele>1491</ele>
        <time>2014-06-28T08:13:10.000Z</time>
      </trkpt>
      <trkpt lat="45.14683" lon="5.64646">
        <ele>1492</ele>
        <time>2014-06-28T08:13:11.000Z</time>
      </trkpt>
      <trkpt lat="45.14682" lon="5.64645">
        <ele>1492</ele>
        <time>2014-06-28T08:13:12.000Z</time>
      </trkpt>
      <trkpt lat="45.14682" lon="5.64644">
        <ele>1492</ele>
        <time>2014-06-28T08:13:13.000Z</time>
      </trkpt>
      <trkpt lat="45.14682" lon="5.64643">
        <ele>1493</ele>
        <time>2014-06-28T08:13:14.000Z</time>
      </trkpt>
      <trkpt lat="45.14682" lon="5.64642">
        <ele>1493</ele>
        <time>2014-06-28T08:13:15.000Z</time>
      </trkpt>
      <trkpt lat="45.14681" lon="5.64641">
        <ele>1493</ele>
        <time>2014-06-28T08:13:16.000Z</time>
      </trkpt>
      <trkpt lat="45.14681" lon="5.6464">
        <ele>1494</ele>
        <time>2014-06-28T08:13:17.000Z</time>
      </trkpt>
      <trkpt lat="45.14681" lon="5.64639">
        <ele>1494</ele>
        <time>2014-06-28T08:13:18.000Z</time>
      </trkpt>
      <trkpt lat="45.14681" lon="5.64638">
        <ele>1494</ele>
        <time>2014-06-28T08:13:19.000Z</time>
      </trkpt>
      <trkpt lat="45.14681" lon="5.64637">
        <ele>1495</ele>
        <time>2014-06-28T08:13:20.000Z</time>
      </trkpt>
      <trkpt lat="45.14681" lon="5.64636">
        <ele>1495</ele>
        <time>2014-06-28T08:13:21.000Z</time>
      </trkpt>
      <trkpt lat="45.1468" lon="5.64636">
        <ele>1495</ele>
        <time>2014-06-28T08:13:22.000Z</time>
      </trkpt>
      <trkpt lat="45.1468" lon="5.64635">
        <ele>1496</ele>
        <time>2014-06-28T08:13:23.000Z</time>
      </trkpt>
      <trkpt lat="45.1468" lon="5.64635">
        <ele>1496</ele>
        <time>2014-06-28T08:13:24.000Z</time>
      </trkpt>
      <trkpt lat="45.14679" lon="5.64634">
        <ele>1497</ele>
        <time>2014-06-28T08:13:25.000Z</time>
      </trkpt>
      <trkpt lat="45.14679" lon="5.64633">
        <ele>1497</ele>
        <time>2014-06-28T08:13:26.000Z</time>
      </trkpt>
      <trkpt lat="45.14678" lon="5.64632">
        <ele>1498</ele>
        <time>2014-06-28T08:13:27.000Z</time>
      </trkpt>
      <trkpt lat="45.14678" lon="5.64631">
        <ele>1498</ele>
        <time>2014-06-28T08:13:28.000Z</time>
      </trkpt>
      <trkpt lat="45.14678" lon="5.6463">
        <ele>1498</ele>
        <time>2014-06-28T08:13:29.000Z</time>
      </trkpt>
      <trkpt lat="45.14679" lon="5.64629">
        <ele>1499</ele>
        <time>2014-06-28T08:13:30.000Z</time>
      </trkpt>
      <trkpt lat="45.14679" lon="5.64629">
        <ele>1499</ele>
        <time>2014-06-28T08:13:31.000Z</time>
      </trkpt>
      <trkpt lat="45.14679" lon="5.64628">
        <ele>1499</ele>
        <time>2014-06-28T08:13:32.000Z</time>
      </trkpt>
      <trkpt lat="45.14679" lon="5.64627">
        <ele>1499</ele>
        <time>2014-06-28T08:13:33.000Z</time>
      </trkpt>
      <trkpt lat="45.14679" lon="5.64626">
        <ele>1500</ele>
        <time>2014-06-28T08:13:34.000Z</time>
      </trkpt>
      <trkpt lat="45.14679" lon="5.64626">
        <ele>1500</ele>
        <time>2014-06-28T08:13:35.000Z</time>
      </trkpt>
      <trkpt lat="45.1468" lon="5.64625">
        <ele>1500</ele>
        <time>2014-06-28T08:13:36.000Z</time>
      </trkpt>
      <trkpt lat="45.1468" lon="5.64625">
        <ele>1500</ele>
        <time>2014-06-28T08:13:37.000Z</time>
      </trkpt>
      <trkpt lat="45.1468" lon="5.64624">
        <ele>1500</ele>
        <time>2014-06-28T08:13:38.000Z</time>
      </trkpt>
      <trkpt lat="45.1468" lon="5.64624">
        <ele>1501</ele>
        <time>2014-06-28T08:13:39.000Z</time>
      </trkpt>
      <trkpt lat="45.1468" lon="5.64623">
        <ele>1501</ele>
        <time>2014-06-28T08:13:40.000Z</time>
      </trkpt>
      <trkpt lat="45.14681" lon="5.64622">
        <ele>1501</ele>
        <time>2014-06-28T08:13:41.000Z</time>
      </trkpt>
      <trkpt lat="45.14681" lon="5.64622">
        <ele>1502</ele>
        <time>2014-06-28T08:13:42.000Z</time>
      </trkpt>
      <trkpt lat="45.14682" lon="5.64621">
        <ele>1502</ele>
        <time>2014-06-28T08:13:43.000Z</time>
      </trkpt>
      <trkpt lat="45.14683" lon="5.6462">
        <ele>1502</ele>
        <time>2014-06-28T08:13:44.000Z</time>
      </trkpt>
      <trkpt lat="45.14684" lon="5.64619">
        <ele>1502</ele>
        <time>2014-06-28T08:13:45.000Z</time>
      </trkpt>
      <trkpt lat="45.14685" lon="5.64618">
        <ele>1502</ele>
        <time>2014-06-28T08:13:46.000Z</time>
      </trkpt>
      <trkpt lat="45.14686" lon="5.64618">
        <ele>1503</ele>
        <time>2014-06-28T08:13:47.000Z</time>
      </trkpt>
      <trkpt lat="45.14687" lon="5.64617">
        <ele>1503</ele>
        <time>2014-06-28T08:13:48.000Z</time>
      </trkpt>
      <trkpt lat="45.14687" lon="5.64617">
        <ele>1503</ele>
        <time>2014-06-28T08:13:49.000Z</time>
      </trkpt>
      <trkpt lat="45.14687" lon="5.64616">
        <ele>1503</ele>
        <time>2014-06-28T08:13:50.000Z</time>
      </trkpt>
      <trkpt lat="45.14687" lon="5.64616">
        <ele>1503</ele>
        <time>2014-06-28T08:13:51.000Z</time>
      </trkpt>
      <trkpt lat="45.14688" lon="5.64615">
        <ele>1503</ele>
        <time>2014-06-28T08:13:52.000Z</time>
      </trkpt>
      <trkpt lat="45.14688" lon="5.64614">
        <ele>1503</ele>
        <time>2014-06-28T08:13:53.000Z</time>
      </trkpt>
      <trkpt lat="45.14688" lon="5.64613">
        <ele>1504</ele>
        <time>2014-06-28T08:13:54.000Z</time>
      </trkpt>
      <trkpt lat="45.14689" lon="5.64612">
        <ele>1504</ele>
        <time>2014-06-28T08:13:55.000Z</time>
      </trkpt>
      <trkpt lat="45.14689" lon="5.64612">
        <ele>1504</ele>
        <time>2014-06-28T08:13:56.000Z</time>
      </trkpt>
      <trkpt lat="45.1469" lon="5.64612">
        <ele>1504</ele>
        <time>2014-06-28T08:13:57.000Z</time>
      </trkpt>
      <trkpt lat="45.1469" lon="5.64612">
        <ele>1504</ele>
        <time>2014-06-28T08:13:58.000Z</time>
      </trkpt>
      <trkpt lat="45.1469" lon="5.64612">
        <ele>1504</ele>
        <time>2014-06-28T08:13:59.000Z</time>
      </trkpt>
      <trkpt lat="45.1469" lon="5.64612">
        <ele>1504</ele>
        <time>2014-06-28T08:14:00.000Z</time>
      </trkpt>
      <trkpt lat="45.1469" lon="5.64611">
        <ele>1504</ele>
        <time>2014-06-28T08:14:01.000Z</time>
      </trkpt>
      <trkpt lat="45.1469" lon="5.64611">
        <ele>1504</ele>
        <time>2014-06-28T08:14:02.000Z</time>
      </trkpt>
      <trkpt lat="45.1469" lon="5.64611">
        <ele>1504</ele>
        <time>2014-06-28T08:14:03.000Z</time>
      </trkpt>
      <trkpt lat="45.14691" lon="5.64609">
        <ele>1504</ele>
        <time>2014-06-28T08:14:04.000Z</time>
      </trkpt>
      <trkpt lat="45.14691" lon="5.64609">
        <ele>1504</ele>
        <time>2014-06-28T08:14:05.000Z</time>
      </trkpt>
      <trkpt lat="45.14692" lon="5.64608">
        <ele>1504</ele>
        <time>2014-06-28T08:14:06.000Z</time>
      </trkpt>
      <trkpt lat="45.14693" lon="5.64607">
        <ele>1503</ele>
        <time>2014-06-28T08:14:07.000Z</time>
      </trkpt>
      <trkpt lat="45.14693" lon="5.64606">
        <ele>1503</ele>
        <time>2014-06-28T08:14:08.000Z</time>
      </trkpt>
      <trkpt lat="45.14694" lon="5.64605">
        <ele>1503</ele>
        <time>2014-06-28T08:14:09.000Z</time>
      </trkpt>
      <trkpt lat="45.14695" lon="5.64605">
        <ele>1503</ele>
        <time>2014-06-28T08:14:10.000Z</time>
      </trkpt>
      <trkpt lat="45.14695" lon="5.64603">
        <ele>1503</ele>
        <time>2014-06-28T08:14:11.000Z</time>
      </trkpt>
      <trkpt lat="45.14696" lon="5.64602">
        <ele>1503</ele>
        <time>2014-06-28T08:14:12.000Z</time>
      </trkpt>
      <trkpt lat="45.14697" lon="5.64601">
        <ele>1503</ele>
        <time>2014-06-28T08:14:13.000Z</time>
      </trkpt>
      <trkpt lat="45.14697" lon="5.646">
        <ele>1503</ele>
        <time>2014-06-28T08:14:14.000Z</time>
      </trkpt>
      <trkpt lat="45.14698" lon="5.64599">
        <ele>1503</ele>
        <time>2014-06-28T08:14:15.000Z</time>
      </trkpt>
      <trkpt lat="45.14698" lon="5.64598">
        <ele>1503</ele>
        <time>2014-06-28T08:14:16.000Z</time>
      </trkpt>
      <trkpt lat="45.14699" lon="5.64597">
        <ele>1503</ele>
        <time>2014-06-28T08:14:17.000Z</time>
      </trkpt>
      <trkpt lat="45.14699" lon="5.64596">
        <ele>1503</ele>
        <time>2014-06-28T08:14:18.000Z</time>
      </trkpt>
      <trkpt lat="45.14699" lon="5.64595">
        <ele>1503</ele>
        <time>2014-06-28T08:14:19.000Z</time>
      </trkpt>
      <trkpt lat="45.14699" lon="5.64594">
        <ele>1503</ele>
        <time>2014-06-28T08:14:20.000Z</time>
      </trkpt>
      <trkpt lat="45.14699" lon="5.64592">
        <ele>1503</ele>
        <time>2014-06-28T08:14:21.000Z</time>
      </trkpt>
      <trkpt lat="45.14699" lon="5.64591">
        <ele>1503</ele>
        <time>2014-06-28T08:14:22.000Z</time>
      </trkpt>
      <trkpt lat="45.147" lon="5.6459">
        <ele>1503</ele>
        <time>2014-06-28T08:14:23.000Z</time>
      </trkpt>
      <trkpt lat="45.147" lon="5.64589">
        <ele>1503</ele>
        <time>2014-06-28T08:14:24.000Z</time>
      </trkpt>
      <trkpt lat="45.147" lon="5.64588">
        <ele>1503</ele>
        <time>2014-06-28T08:14:25.000Z</time>
      </trkpt>
      <trkpt lat="45.147" lon="5.64587">
        <ele>1504</ele>
        <time>2014-06-28T08:14:26.000Z</time>
      </trkpt>
      <trkpt lat="45.147" lon="5.64586">
        <ele>1504</ele>
        <time>2014-06-28T08:14:27.000Z</time>
      </trkpt>
      <trkpt lat="45.14701" lon="5.64585">
        <ele>1504</ele>
        <time>2014-06-28T08:14:28.000Z</time>
      </trkpt>
      <trkpt lat="45.14701" lon="5.64585">
        <ele>1504</ele>
        <time>2014-06-28T08:14:29.000Z</time>
      </trkpt>
      <trkpt lat="45.14701" lon="5.64585">
        <ele>1504</ele>
        <time>2014-06-28T08:14:30.000Z</time>
      </trkpt>
      <trkpt lat="45.14702" lon="5.64584">
        <ele>1505</ele>
        <time>2014-06-28T08:14:31.000Z</time>
      </trkpt>
      <trkpt lat="45.14702" lon="5.64583">
        <ele>1505</ele>
        <time>2014-06-28T08:14:32.000Z</time>
      </trkpt>
      <trkpt lat="45.14703" lon="5.64583">
        <ele>1505</ele>
        <time>2014-06-28T08:14:33.000Z</time>
      </trkpt>
      <trkpt lat="45.14703" lon="5.64583">
        <ele>1505</ele>
        <time>2014-06-28T08:14:34.000Z</time>
      </trkpt>
      <trkpt lat="45.14704" lon="5.64583">
        <ele>1505</ele>
        <time>2014-06-28T08:14:35.000Z</time>
      </trkpt>
      <trkpt lat="45.14704" lon="5.64583">
        <ele>1505</ele>
        <time>2014-06-28T08:14:36.000Z</time>
      </trkpt>
      <trkpt lat="45.14704" lon="5.64583">
        <ele>1506</ele>
        <time>2014-06-28T08:14:37.000Z</time>
      </trkpt>
      <trkpt lat="45.14704" lon="5.64584">
        <ele>1506</ele>
        <time>2014-06-28T08:14:38.000Z</time>
      </trkpt>
      <trkpt lat="45.14705" lon="5.64584">
        <ele>1506</ele>
        <time>2014-06-28T08:14:39.000Z</time>
      </trkpt>
      <trkpt lat="45.14705" lon="5.64584">
        <ele>1506</ele>
        <time>2014-06-28T08:14:40.000Z</time>
      </trkpt>
      <trkpt lat="45.14706" lon="5.64584">
        <ele>1506</ele>
        <time>2014-06-28T08:14:41.000Z</time>
      </trkpt>
      <trkpt lat="45.14707" lon="5.64583">
        <ele>1507</ele>
        <time>2014-06-28T08:14:42.000Z</time>
      </trkpt>
      <trkpt lat="45.14707" lon="5.64583">
        <ele>1507</ele>
        <time>2014-06-28T08:14:43.000Z</time>
      </trkpt>
      <trkpt lat="45.14708" lon="5.64583">
        <ele>1507</ele>
        <time>2014-06-28T08:14:44.000Z</time>
      </trkpt>
      <trkpt lat="45.14708" lon="5.64582">
        <ele>1507</ele>
        <time>2014-06-28T08:14:45.000Z</time>
      </trkpt>
      <trkpt lat="45.14709" lon="5.64582">
        <ele>1507</ele>
        <time>2014-06-28T08:14:46.000Z</time>
      </trkpt>
      <trkpt lat="45.14709" lon="5.64582">
        <ele>1508</ele>
        <time>2014-06-28T08:14:47.000Z</time>
      </trkpt>
      <trkpt lat="45.1471" lon="5.64582">
        <ele>1508</ele>
        <time>2014-06-28T08:14:48.000Z</time>
      </trkpt>
      <trkpt lat="45.1471" lon="5.64582">
        <ele>1508</ele>
        <time>2014-06-28T08:14:49.000Z</time>
      </trkpt>
      <trkpt lat="45.1471" lon="5.64581">
        <ele>1508</ele>
        <time>2014-06-28T08:14:50.000Z</time>
      </trkpt>
      <trkpt lat="45.1471" lon="5.64582">
        <ele>1508</ele>
        <time>2014-06-28T08:14:51.000Z</time>
      </trkpt>
      <trkpt lat="45.1471" lon="5.64582">
        <ele>1509</ele>
        <time>2014-06-28T08:14:52.000Z</time>
      </trkpt>
      <trkpt lat="45.1471" lon="5.64582">
        <ele>1509</ele>
        <time>2014-06-28T08:14:53.000Z</time>
      </trkpt>
      <trkpt lat="45.1471" lon="5.64582">
        <ele>1509</ele>
        <time>2014-06-28T08:14:54.000Z</time>
      </trkpt>
      <trkpt lat="45.1471" lon="5.64582">
        <ele>1509</ele>
        <time>2014-06-28T08:14:55.000Z</time>
      </trkpt>
      <trkpt lat="45.1471" lon="5.64582">
        <ele>1509</ele>
        <time>2014-06-28T08:14:56.000Z</time>
      </trkpt>
      <trkpt lat="45.1471" lon="5.64582">
        <ele>1509</ele>
        <time>2014-06-28T08:14:57.000Z</time>
      </trkpt>
      <trkpt lat="45.1471" lon="5.64582">
        <ele>1510</ele>
        <time>2014-06-28T08:14:58.000Z</time>
      </trkpt>
      <trkpt lat="45.1471" lon="5.64582">
        <ele>1510</ele>
        <time>2014-06-28T08:14:59.000Z</time>
      </trkpt>
      <trkpt lat="45.1471" lon="5.64582">
        <ele>1510</ele>
        <time>2014-06-28T08:15:00.000Z</time>
      </trkpt>
      <trkpt lat="45.1471" lon="5.64582">
        <ele>1510</ele>
        <time>2014-06-28T08:15:01.000Z</time>
      </trkpt>
      <trkpt lat="45.1471" lon="5.64582">
        <ele>1510</ele>
        <time>2014-06-28T08:15:02.000Z</time>
      </trkpt>
      <trkpt lat="45.1471" lon="5.64582">
        <ele>1510</ele>
        <time>2014-06-28T08:15:03.000Z</time>
      </trkpt>
      <trkpt lat="45.1471" lon="5.64582">
        <ele>1510</ele>
        <time>2014-06-28T08:15:04.000Z</time>
      </trkpt>
      <trkpt lat="45.1471" lon="5.64582">
        <ele>1510</ele>
        <time>2014-06-28T08:15:05.000Z</time>
      </trkpt>
      <trkpt lat="45.1471" lon="5.64582">
        <ele>1511</ele>
        <time>2014-06-28T08:15:06.000Z</time>
      </trkpt>
      <trkpt lat="45.1471" lon="5.64582">
        <ele>1511</ele>
        <time>2014-06-28T08:15:07.000Z</time>
      </trkpt>
      <trkpt lat="45.1471" lon="5.64582">
        <ele>1511</ele>
        <time>2014-06-28T08:15:08.000Z</time>
      </trkpt>
      <trkpt lat="45.1471" lon="5.64582">
        <ele>1511</ele>
        <time>2014-06-28T08:15:09.000Z</time>
      </trkpt>
      <trkpt lat="45.1471" lon="5.64582">
        <ele>1511</ele>
        <time>2014-06-28T08:15:10.000Z</time>
      </trkpt>
      <trkpt lat="45.1471" lon="5.64582">
        <ele>1511</ele>
        <time>2014-06-28T08:15:11.000Z</time>
      </trkpt>
      <trkpt lat="45.1471" lon="5.64582">
        <ele>1511</ele>
        <time>2014-06-28T08:15:12.000Z</time>
      </trkpt>
      <trkpt lat="45.1471" lon="5.64582">
        <ele>1511</ele>
        <time>2014-06-28T08:15:13.000Z</time>
      </trkpt>
      <trkpt lat="45.1471" lon="5.64582">
        <ele>1511</ele>
        <time>2014-06-28T08:15:14.000Z</time>
      </trkpt>
      <trkpt lat="45.1471" lon="5.64582">
        <ele>1511</ele>
        <time>2014-06-28T08:15:15.000Z</time>
      </trkpt>
      <trkpt lat="45.1471" lon="5.64582">
        <ele>1511</ele>
        <time>2014-06-28T08:15:16.000Z</time>
      </trkpt>
      <trkpt lat="45.1471" lon="5.64582">
        <ele>1511</ele>
        <time>2014-06-28T08:15:17.000Z</time>
      </trkpt>
      <trkpt lat="45.1471" lon="5.64582">
        <ele>1511</ele>
        <time>2014-06-28T08:15:18.000Z</time>
      </trkpt>
      <trkpt lat="45.1471" lon="5.64582">
        <ele>1512</ele>
        <time>2014-06-28T08:15:19.000Z</time>
      </trkpt>
      <trkpt lat="45.1471" lon="5.64582">
        <ele>1512</ele>
        <time>2014-06-28T08:15:20.000Z</time>
      </trkpt>
      <trkpt lat="45.1471" lon="5.64582">
        <ele>1512</ele>
        <time>2014-06-28T08:15:21.000Z</time>
      </trkpt>
      <trkpt lat="45.14709" lon="5.64582">
        <ele>1512</ele>
        <time>2014-06-28T08:15:22.000Z</time>
      </trkpt>
      <trkpt lat="45.14709" lon="5.64582">
        <ele>1512</ele>
        <time>2014-06-28T08:15:23.000Z</time>
      </trkpt>
      <trkpt lat="45.14709" lon="5.64582">
        <ele>1512</ele>
        <time>2014-06-28T08:15:24.000Z</time>
      </trkpt>
      <trkpt lat="45.14709" lon="5.64582">
        <ele>1512</ele>
        <time>2014-06-28T08:15:25.000Z</time>
      </trkpt>
      <trkpt lat="45.14709" lon="5.64581">
        <ele>1512</ele>
        <time>2014-06-28T08:15:26.000Z</time>
      </trkpt>
      <trkpt lat="45.14709" lon="5.64581">
        <ele>1512</ele>
        <time>2014-06-28T08:15:27.000Z</time>
      </trkpt>
      <trkpt lat="45.14709" lon="5.64581">
        <ele>1512</ele>
        <time>2014-06-28T08:15:28.000Z</time>
      </trkpt>
      <trkpt lat="45.14709" lon="5.6458">
        <ele>1512</ele>
        <time>2014-06-28T08:15:29.000Z</time>
      </trkpt>
      <trkpt lat="45.1471" lon="5.6458">
        <ele>1512</ele>
        <time>2014-06-28T08:15:30.000Z</time>
      </trkpt>
      <trkpt lat="45.1471" lon="5.6458">
        <ele>1512</ele>
        <time>2014-06-28T08:15:31.000Z</time>
      </trkpt>
      <trkpt lat="45.1471" lon="5.6458">
        <ele>1512</ele>
        <time>2014-06-28T08:15:32.000Z</time>
      </trkpt>
      <trkpt lat="45.1471" lon="5.6458">
        <ele>1512</ele>
        <time>2014-06-28T08:15:33.000Z</time>
      </trkpt>
      <trkpt lat="45.1471" lon="5.6458">
        <ele>1512</ele>
        <time>2014-06-28T08:15:34.000Z</time>
      </trkpt>
      <trkpt lat="45.1471" lon="5.64581">
        <ele>1513</ele>
        <time>2014-06-28T08:15:35.000Z</time>
      </trkpt>
      <trkpt lat="45.1471" lon="5.64581">
        <ele>1513</ele>
        <time>2014-06-28T08:15:36.000Z</time>
      </trkpt>
      <trkpt lat="45.1471" lon="5.64582">
        <ele>1513</ele>
        <time>2014-06-28T08:15:37.000Z</time>
      </trkpt>
      <trkpt lat="45.1471" lon="5.64583">
        <ele>1513</ele>
        <time>2014-06-28T08:15:38.000Z</time>
      </trkpt>
      <trkpt lat="45.1471" lon="5.64583">
        <ele>1513</ele>
        <time>2014-06-28T08:15:39.000Z</time>
      </trkpt>
      <trkpt lat="45.14711" lon="5.64584">
        <ele>1513</ele>
        <time>2014-06-28T08:15:40.000Z</time>
      </trkpt>
      <trkpt lat="45.14711" lon="5.64584">
        <ele>1513</ele>
        <time>2014-06-28T08:15:41.000Z</time>
      </trkpt>
      <trkpt lat="45.14711" lon="5.64584">
        <ele>1513</ele>
        <time>2014-06-28T08:15:42.000Z</time>
      </trkpt>
      <trkpt lat="45.14711" lon="5.64584">
        <ele>1513</ele>
        <time>2014-06-28T08:15:43.000Z</time>
      </trkpt>
      <trkpt lat="45.14711" lon="5.64584">
        <ele>1513</ele>
        <time>2014-06-28T08:15:44.000Z</time>
      </trkpt>
      <trkpt lat="45.14711" lon="5.64584">
        <ele>1513</ele>
        <time>2014-06-28T08:15:45.000Z</time>
      </trkpt>
      <trkpt lat="45.14711" lon="5.64584">
        <ele>1513</ele>
        <time>2014-06-28T08:15:46.000Z</time>
      </trkpt>
      <trkpt lat="45.14711" lon="5.64584">
        <ele>1513</ele>
        <time>2014-06-28T08:15:47.000Z</time>
      </trkpt>
      <trkpt lat="45.14711" lon="5.64584">
        <ele>1513</ele>
        <time>2014-06-28T08:15:48.000Z</time>
      </trkpt>
      <trkpt lat="45.14711" lon="5.64583">
        <ele>1513</ele>
        <time>2014-06-28T08:15:49.000Z</time>
      </trkpt>
      <trkpt lat="45.1471" lon="5.64583">
        <ele>1513</ele>
        <time>2014-06-28T08:15:50.000Z</time>
      </trkpt>
      <trkpt lat="45.1471" lon="5.64583">
        <ele>1513</ele>
        <time>2014-06-28T08:15:51.000Z</time>
      </trkpt>
      <trkpt lat="45.1471" lon="5.64583">
        <ele>1513</ele>
        <time>2014-06-28T08:15:52.000Z</time>
      </trkpt>
      <trkpt lat="45.1471" lon="5.64582">
        <ele>1513</ele>
        <time>2014-06-28T08:15:53.000Z</time>
      </trkpt>
      <trkpt lat="45.1471" lon="5.64582">
        <ele>1513</ele>
        <time>2014-06-28T08:15:54.000Z</time>
      </trkpt>
      <trkpt lat="45.1471" lon="5.64582">
        <ele>1513</ele>
        <time>2014-06-28T08:15:55.000Z</time>
      </trkpt>
      <trkpt lat="45.1471" lon="5.64582">
        <ele>1513</ele>
        <time>2014-06-28T08:15:56.000Z</time>
      </trkpt>
      <trkpt lat="45.1471" lon="5.64582">
        <ele>1513</ele>
        <time>2014-06-28T08:15:57.000Z</time>
      </trkpt>
      <trkpt lat="45.1471" lon="5.64581">
        <ele>1513</ele>
        <time>2014-06-28T08:15:58.000Z</time>
      </trkpt>
      <trkpt lat="45.1471" lon="5.64581">
        <ele>1513</ele>
        <time>2014-06-28T08:15:59.000Z</time>
      </trkpt>
      <trkpt lat="45.14709" lon="5.6458">
        <ele>1513</ele>
        <time>2014-06-28T08:16:00.000Z</time>
      </trkpt>
      <trkpt lat="45.1471" lon="5.64579">
        <ele>1513</ele>
        <time>2014-06-28T08:16:01.000Z</time>
      </trkpt>
      <trkpt lat="45.1471" lon="5.64578">
        <ele>1513</ele>
        <time>2014-06-28T08:16:02.000Z</time>
      </trkpt>
      <trkpt lat="45.1471" lon="5.64577">
        <ele>1514</ele>
        <time>2014-06-28T08:16:03.000Z</time>
      </trkpt>
      <trkpt lat="45.1471" lon="5.64577">
        <ele>1514</ele>
        <time>2014-06-28T08:16:04.000Z</time>
      </trkpt>
      <trkpt lat="45.14711" lon="5.64576">
        <ele>1514</ele>
        <time>2014-06-28T08:16:05.000Z</time>
      </trkpt>
      <trkpt lat="45.14711" lon="5.64576">
        <ele>1514</ele>
        <time>2014-06-28T08:16:06.000Z</time>
      </trkpt>
      <trkpt lat="45.14711" lon="5.64576">
        <ele>1514</ele>
        <time>2014-06-28T08:16:07.000Z</time>
      </trkpt>
      <trkpt lat="45.14711" lon="5.64576">
        <ele>1514</ele>
        <time>2014-06-28T08:16:08.000Z</time>
      </trkpt>
      <trkpt lat="45.1471" lon="5.64576">
        <ele>1514</ele>
        <time>2014-06-28T08:16:09.000Z</time>
      </trkpt>
      <trkpt lat="45.1471" lon="5.64575">
        <ele>1514</ele>
        <time>2014-06-28T08:16:10.000Z</time>
      </trkpt>
      <trkpt lat="45.1471" lon="5.64574">
        <ele>1514</ele>
        <time>2014-06-28T08:16:11.000Z</time>
      </trkpt>
      <trkpt lat="45.14709" lon="5.64573">
        <ele>1515</ele>
        <time>2014-06-28T08:16:12.000Z</time>
      </trkpt>
      <trkpt lat="45.14709" lon="5.64572">
        <ele>1515</ele>
        <time>2014-06-28T08:16:13.000Z</time>
      </trkpt>
      <trkpt lat="45.1471" lon="5.64571">
        <ele>1515</ele>
        <time>2014-06-28T08:16:14.000Z</time>
      </trkpt>
      <trkpt lat="45.1471" lon="5.6457">
        <ele>1515</ele>
        <time>2014-06-28T08:16:15.000Z</time>
      </trkpt>
      <trkpt lat="45.14711" lon="5.6457">
        <ele>1515</ele>
        <time>2014-06-28T08:16:16.000Z</time>
      </trkpt>
      <trkpt lat="45.14711" lon="5.64569">
        <ele>1515</ele>
        <time>2014-06-28T08:16:17.000Z</time>
      </trkpt>
      <trkpt lat="45.14711" lon="5.64568">
        <ele>1516</ele>
        <time>2014-06-28T08:16:18.000Z</time>
      </trkpt>
      <trkpt lat="45.14712" lon="5.64567">
        <ele>1516</ele>
        <time>2014-06-28T08:16:19.000Z</time>
      </trkpt>
      <trkpt lat="45.14712" lon="5.64566">
        <ele>1516</ele>
        <time>2014-06-28T08:16:20.000Z</time>
      </trkpt>
      <trkpt lat="45.14713" lon="5.64565">
        <ele>1516</ele>
        <time>2014-06-28T08:16:21.000Z</time>
      </trkpt>
      <trkpt lat="45.14713" lon="5.64564">
        <ele>1517</ele>
        <time>2014-06-28T08:16:22.000Z</time>
      </trkpt>
      <trkpt lat="45.14714" lon="5.64562">
        <ele>1517</ele>
        <time>2014-06-28T08:16:23.000Z</time>
      </trkpt>
      <trkpt lat="45.14714" lon="5.64561">
        <ele>1517</ele>
        <time>2014-06-28T08:16:24.000Z</time>
      </trkpt>
      <trkpt lat="45.14715" lon="5.6456">
        <ele>1517</ele>
        <time>2014-06-28T08:16:25.000Z</time>
      </trkpt>
      <trkpt lat="45.14715" lon="5.64559">
        <ele>1517</ele>
        <time>2014-06-28T08:16:26.000Z</time>
      </trkpt>
      <trkpt lat="45.14716" lon="5.64558">
        <ele>1518</ele>
        <time>2014-06-28T08:16:27.000Z</time>
      </trkpt>
      <trkpt lat="45.14716" lon="5.64557">
        <ele>1518</ele>
        <time>2014-06-28T08:16:28.000Z</time>
      </trkpt>
      <trkpt lat="45.14716" lon="5.64556">
        <ele>1518</ele>
        <time>2014-06-28T08:16:29.000Z</time>
      </trkpt>
      <trkpt lat="45.14717" lon="5.64555">
        <ele>1518</ele>
        <time>2014-06-28T08:16:30.000Z</time>
      </trkpt>
      <trkpt lat="45.14717" lon="5.64554">
        <ele>1519</ele>
        <time>2014-06-28T08:16:31.000Z</time>
      </trkpt>
      <trkpt lat="45.14717" lon="5.64553">
        <ele>1519</ele>
        <time>2014-06-28T08:16:32.000Z</time>
      </trkpt>
      <trkpt lat="45.14717" lon="5.64552">
        <ele>1519</ele>
        <time>2014-06-28T08:16:33.000Z</time>
      </trkpt>
      <trkpt lat="45.14718" lon="5.64551">
        <ele>1519</ele>
        <time>2014-06-28T08:16:34.000Z</time>
      </trkpt>
      <trkpt lat="45.14718" lon="5.6455">
        <ele>1520</ele>
        <time>2014-06-28T08:16:35.000Z</time>
      </trkpt>
      <trkpt lat="45.14719" lon="5.64549">
        <ele>1520</ele>
        <time>2014-06-28T08:16:36.000Z</time>
      </trkpt>
      <trkpt lat="45.14719" lon="5.64548">
        <ele>1520</ele>
        <time>2014-06-28T08:16:37.000Z</time>
      </trkpt>
      <trkpt lat="45.14719" lon="5.64548">
        <ele>1520</ele>
        <time>2014-06-28T08:16:38.000Z</time>
      </trkpt>
      <trkpt lat="45.1472" lon="5.64547">
        <ele>1520</ele>
        <time>2014-06-28T08:16:39.000Z</time>
      </trkpt>
      <trkpt lat="45.1472" lon="5.64546">
        <ele>1520</ele>
        <time>2014-06-28T08:16:40.000Z</time>
      </trkpt>
      <trkpt lat="45.1472" lon="5.64545">
        <ele>1521</ele>
        <time>2014-06-28T08:16:41.000Z</time>
      </trkpt>
      <trkpt lat="45.14721" lon="5.64543">
        <ele>1521</ele>
        <time>2014-06-28T08:16:42.000Z</time>
      </trkpt>
      <trkpt lat="45.14721" lon="5.64542">
        <ele>1521</ele>
        <time>2014-06-28T08:16:43.000Z</time>
      </trkpt>
      <trkpt lat="45.14721" lon="5.64541">
        <ele>1521</ele>
        <time>2014-06-28T08:16:44.000Z</time>
      </trkpt>
      <trkpt lat="45.14722" lon="5.64539">
        <ele>1521</ele>
        <time>2014-06-28T08:16:45.000Z</time>
      </trkpt>
      <trkpt lat="45.14723" lon="5.64538">
        <ele>1521</ele>
        <time>2014-06-28T08:16:46.000Z</time>
      </trkpt>
      <trkpt lat="45.14723" lon="5.64537">
        <ele>1522</ele>
        <time>2014-06-28T08:16:47.000Z</time>
      </trkpt>
      <trkpt lat="45.14724" lon="5.64535">
        <ele>1522</ele>
        <time>2014-06-28T08:16:48.000Z</time>
      </trkpt>
      <trkpt lat="45.14725" lon="5.64534">
        <ele>1522</ele>
        <time>2014-06-28T08:16:49.000Z</time>
      </trkpt>
      <trkpt lat="45.14726" lon="5.64533">
        <ele>1522</ele>
        <time>2014-06-28T08:16:50.000Z</time>
      </trkpt>
      <trkpt lat="45.14727" lon="5.64532">
        <ele>1522</ele>
        <time>2014-06-28T08:16:51.000Z</time>
      </trkpt>
      <trkpt lat="45.14728" lon="5.64531">
        <ele>1522</ele>
        <time>2014-06-28T08:16:52.000Z</time>
      </trkpt>
      <trkpt lat="45.14728" lon="5.6453">
        <ele>1522</ele>
        <time>2014-06-28T08:16:53.000Z</time>
      </trkpt>
      <trkpt lat="45.14729" lon="5.64529">
        <ele>1522</ele>
        <time>2014-06-28T08:16:54.000Z</time>
      </trkpt>
      <trkpt lat="45.14729" lon="5.64528">
        <ele>1523</ele>
        <time>2014-06-28T08:16:55.000Z</time>
      </trkpt>
      <trkpt lat="45.14729" lon="5.64527">
        <ele>1523</ele>
        <time>2014-06-28T08:16:56.000Z</time>
      </trkpt>
      <trkpt lat="45.14729" lon="5.64525">
        <ele>1523</ele>
        <time>2014-06-28T08:16:57.000Z</time>
      </trkpt>
      <trkpt lat="45.14729" lon="5.64524">
        <ele>1523</ele>
        <time>2014-06-28T08:16:58.000Z</time>
      </trkpt>
      <trkpt lat="45.14729" lon="5.64523">
        <ele>1523</ele>
        <time>2014-06-28T08:16:59.000Z</time>
      </trkpt>
      <trkpt lat="45.14729" lon="5.64522">
        <ele>1523</ele>
        <time>2014-06-28T08:17:00.000Z</time>
      </trkpt>
      <trkpt lat="45.14729" lon="5.64521">
        <ele>1523</ele>
        <time>2014-06-28T08:17:01.000Z</time>
      </trkpt>
      <trkpt lat="45.14729" lon="5.6452">
        <ele>1524</ele>
        <time>2014-06-28T08:17:02.000Z</time>
      </trkpt>
      <trkpt lat="45.14729" lon="5.6452">
        <ele>1524</ele>
        <time>2014-06-28T08:17:03.000Z</time>
      </trkpt>
      <trkpt lat="45.14729" lon="5.6452">
        <ele>1524</ele>
        <time>2014-06-28T08:17:04.000Z</time>
      </trkpt>
      <trkpt lat="45.14729" lon="5.64519">
        <ele>1524</ele>
        <time>2014-06-28T08:17:05.000Z</time>
      </trkpt>
      <trkpt lat="45.1473" lon="5.64519">
        <ele>1524</ele>
        <time>2014-06-28T08:17:06.000Z</time>
      </trkpt>
      <trkpt lat="45.14729" lon="5.64518">
        <ele>1524</ele>
        <time>2014-06-28T08:17:07.000Z</time>
      </trkpt>
      <trkpt lat="45.14729" lon="5.64518">
        <ele>1524</ele>
        <time>2014-06-28T08:17:08.000Z</time>
      </trkpt>
      <trkpt lat="45.14729" lon="5.64517">
        <ele>1524</ele>
        <time>2014-06-28T08:17:09.000Z</time>
      </trkpt>
      <trkpt lat="45.14729" lon="5.64517">
        <ele>1524</ele>
        <time>2014-06-28T08:17:10.000Z</time>
      </trkpt>
      <trkpt lat="45.14729" lon="5.64516">
        <ele>1524</ele>
        <time>2014-06-28T08:17:11.000Z</time>
      </trkpt>
      <trkpt lat="45.14729" lon="5.64515">
        <ele>1524</ele>
        <time>2014-06-28T08:17:12.000Z</time>
      </trkpt>
      <trkpt lat="45.14729" lon="5.64515">
        <ele>1525</ele>
        <time>2014-06-28T08:17:13.000Z</time>
      </trkpt>
      <trkpt lat="45.14729" lon="5.64514">
        <ele>1525</ele>
        <time>2014-06-28T08:17:14.000Z</time>
      </trkpt>
      <trkpt lat="45.14729" lon="5.64514">
        <ele>1525</ele>
        <time>2014-06-28T08:17:15.000Z</time>
      </trkpt>
      <trkpt lat="45.14729" lon="5.64514">
        <ele>1525</ele>
        <time>2014-06-28T08:17:16.000Z</time>
      </trkpt>
      <trkpt lat="45.14729" lon="5.64514">
        <ele>1525</ele>
        <time>2014-06-28T08:17:17.000Z</time>
      </trkpt>
      <trkpt lat="45.14729" lon="5.64513">
        <ele>1525</ele>
        <time>2014-06-28T08:17:18.000Z</time>
      </trkpt>
      <trkpt lat="45.14729" lon="5.64513">
        <ele>1525</ele>
        <time>2014-06-28T08:17:19.000Z</time>
      </trkpt>
      <trkpt lat="45.1473" lon="5.64513">
        <ele>1525</ele>
        <time>2014-06-28T08:17:20.000Z</time>
      </trkpt>
      <trkpt lat="45.1473" lon="5.64513">
        <ele>1525</ele>
        <time>2014-06-28T08:17:21.000Z</time>
      </trkpt>
      <trkpt lat="45.1473" lon="5.64513">
        <ele>1525</ele>
        <time>2014-06-28T08:17:22.000Z</time>
      </trkpt>
      <trkpt lat="45.1473" lon="5.64513">
        <ele>1525</ele>
        <time>2014-06-28T08:17:23.000Z</time>
      </trkpt>
      <trkpt lat="45.1473" lon="5.64513">
        <ele>1526</ele>
        <time>2014-06-28T08:17:24.000Z</time>
      </trkpt>
      <trkpt lat="45.1473" lon="5.64513">
        <ele>1526</ele>
        <time>2014-06-28T08:17:25.000Z</time>
      </trkpt>
      <trkpt lat="45.1473" lon="5.64513">
        <ele>1526</ele>
        <time>2014-06-28T08:17:26.000Z</time>
      </trkpt>
      <trkpt lat="45.1473" lon="5.64513">
        <ele>1526</ele>
        <time>2014-06-28T08:17:27.000Z</time>
      </trkpt>
      <trkpt lat="45.1473" lon="5.64513">
        <ele>1526</ele>
        <time>2014-06-28T08:17:28.000Z</time>
      </trkpt>
      <trkpt lat="45.1473" lon="5.64513">
        <ele>1526</ele>
        <time>2014-06-28T08:17:29.000Z</time>
      </trkpt>
      <trkpt lat="45.1473" lon="5.64513">
        <ele>1526</ele>
        <time>2014-06-28T08:17:30.000Z</time>
      </trkpt>
      <trkpt lat="45.1473" lon="5.64513">
        <ele>1526</ele>
        <time>2014-06-28T08:17:31.000Z</time>
      </trkpt>
      <trkpt lat="45.1473" lon="5.64513">
        <ele>1526</ele>
        <time>2014-06-28T08:17:32.000Z</time>
      </trkpt>
      <trkpt lat="45.1473" lon="5.64513">
        <ele>1526</ele>
        <time>2014-06-28T08:17:33.000Z</time>
      </trkpt>
      <trkpt lat="45.1473" lon="5.64512">
        <ele>1526</ele>
        <time>2014-06-28T08:17:34.000Z</time>
      </trkpt>
      <trkpt lat="45.1473" lon="5.64512">
        <ele>1526</ele>
        <time>2014-06-28T08:17:35.000Z</time>
      </trkpt>
      <trkpt lat="45.1473" lon="5.64512">
        <ele>1527</ele>
        <time>2014-06-28T08:17:36.000Z</time>
      </trkpt>
      <trkpt lat="45.1473" lon="5.64512">
        <ele>1527</ele>
        <time>2014-06-28T08:17:37.000Z</time>
      </trkpt>
      <trkpt lat="45.14731" lon="5.64512">
        <ele>1527</ele>
        <time>2014-06-28T08:17:38.000Z</time>
      </trkpt>
      <trkpt lat="45.14731" lon="5.64512">
        <ele>1527</ele>
        <time>2014-06-28T08:17:39.000Z</time>
      </trkpt>
      <trkpt lat="45.14731" lon="5.64512">
        <ele>1528</ele>
        <time>2014-06-28T08:17:40.000Z</time>
      </trkpt>
      <trkpt lat="45.14731" lon="5.64512">
        <ele>1528</ele>
        <time>2014-06-28T08:17:41.000Z</time>
      </trkpt>
      <trkpt lat="45.14732" lon="5.64512">
        <ele>1528</ele>
        <time>2014-06-28T08:17:42.000Z</time>
      </trkpt>
      <trkpt lat="45.14732" lon="5.64512">
        <ele>1528</ele>
        <time>2014-06-28T08:17:43.000Z</time>
      </trkpt>
      <trkpt lat="45.14732" lon="5.64511">
        <ele>1529</ele>
        <time>2014-06-28T08:17:44.000Z</time>
      </trkpt>
      <trkpt lat="45.14732" lon="5.64511">
        <ele>1529</ele>
        <time>2014-06-28T08:17:45.000Z</time>
      </trkpt>
      <trkpt lat="45.14732" lon="5.64511">
        <ele>1529</ele>
        <time>2014-06-28T08:17:46.000Z</time>
      </trkpt>
      <trkpt lat="45.14732" lon="5.64511">
        <ele>1529</ele>
        <time>2014-06-28T08:17:47.000Z</time>
      </trkpt>
      <trkpt lat="45.14732" lon="5.6451">
        <ele>1530</ele>
        <time>2014-06-28T08:17:48.000Z</time>
      </trkpt>
      <trkpt lat="45.14733" lon="5.6451">
        <ele>1530</ele>
        <time>2014-06-28T08:17:49.000Z</time>
      </trkpt>
      <trkpt lat="45.14733" lon="5.6451">
        <ele>1530</ele>
        <time>2014-06-28T08:17:50.000Z</time>
      </trkpt>
      <trkpt lat="45.14733" lon="5.64509">
        <ele>1530</ele>
        <time>2014-06-28T08:17:51.000Z</time>
      </trkpt>
      <trkpt lat="45.14734" lon="5.64508">
        <ele>1531</ele>
        <time>2014-06-28T08:17:52.000Z</time>
      </trkpt>
      <trkpt lat="45.14734" lon="5.64507">
        <ele>1531</ele>
        <time>2014-06-28T08:17:53.000Z</time>
      </trkpt>
      <trkpt lat="45.14735" lon="5.64506">
        <ele>1531</ele>
        <time>2014-06-28T08:17:54.000Z</time>
      </trkpt>
      <trkpt lat="45.14736" lon="5.64506">
        <ele>1531</ele>
        <time>2014-06-28T08:17:55.000Z</time>
      </trkpt>
      <trkpt lat="45.14736" lon="5.64505">
        <ele>1531</ele>
        <time>2014-06-28T08:17:56.000Z</time>
      </trkpt>
      <trkpt lat="45.14736" lon="5.64504">
        <ele>1532</ele>
        <time>2014-06-28T08:17:57.000Z</time>
      </trkpt>
      <trkpt lat="45.14736" lon="5.64503">
        <ele>1532</ele>
        <time>2014-06-28T08:17:58.000Z</time>
      </trkpt>
      <trkpt lat="45.14735" lon="5.64502">
        <ele>1532</ele>
        <time>2014-06-28T08:17:59.000Z</time>
      </trkpt>
      <trkpt lat="45.14734" lon="5.64501">
        <ele>1532</ele>
        <time>2014-06-28T08:18:00.000Z</time>
      </trkpt>
      <trkpt lat="45.14734" lon="5.64501">
        <ele>1533</ele>
        <time>2014-06-28T08:18:01.000Z</time>
      </trkpt>
      <trkpt lat="45.14734" lon="5.645">
        <ele>1533</ele>
        <time>2014-06-28T08:18:02.000Z</time>
      </trkpt>
      <trkpt lat="45.14734" lon="5.64501">
        <ele>1533</ele>
        <time>2014-06-28T08:18:03.000Z</time>
      </trkpt>
      <trkpt lat="45.14733" lon="5.645">
        <ele>1533</ele>
        <time>2014-06-28T08:18:04.000Z</time>
      </trkpt>
      <trkpt lat="45.14733" lon="5.645">
        <ele>1533</ele>
        <time>2014-06-28T08:18:05.000Z</time>
      </trkpt>
      <trkpt lat="45.14733" lon="5.64499">
        <ele>1534</ele>
        <time>2014-06-28T08:18:06.000Z</time>
      </trkpt>
      <trkpt lat="45.14732" lon="5.64498">
        <ele>1534</ele>
        <time>2014-06-28T08:18:07.000Z</time>
      </trkpt>
      <trkpt lat="45.14732" lon="5.64497">
        <ele>1534</ele>
        <time>2014-06-28T08:18:08.000Z</time>
      </trkpt>
      <trkpt lat="45.14732" lon="5.64497">
        <ele>1535</ele>
        <time>2014-06-28T08:18:09.000Z</time>
      </trkpt>
      <trkpt lat="45.14732" lon="5.64495">
        <ele>1535</ele>
        <time>2014-06-28T08:18:10.000Z</time>
      </trkpt>
      <trkpt lat="45.14732" lon="5.64494">
        <ele>1535</ele>
        <time>2014-06-28T08:18:11.000Z</time>
      </trkpt>
      <trkpt lat="45.14733" lon="5.64492">
        <ele>1535</ele>
        <time>2014-06-28T08:18:12.000Z</time>
      </trkpt>
      <trkpt lat="45.14733" lon="5.64491">
        <ele>1536</ele>
        <time>2014-06-28T08:18:13.000Z</time>
      </trkpt>
      <trkpt lat="45.14733" lon="5.6449">
        <ele>1536</ele>
        <time>2014-06-28T08:18:14.000Z</time>
      </trkpt>
      <trkpt lat="45.14733" lon="5.64489">
        <ele>1536</ele>
        <time>2014-06-28T08:18:15.000Z</time>
      </trkpt>
      <trkpt lat="45.14734" lon="5.64487">
        <ele>1536</ele>
        <time>2014-06-28T08:18:16.000Z</time>
      </trkpt>
      <trkpt lat="45.14734" lon="5.64486">
        <ele>1536</ele>
        <time>2014-06-28T08:18:17.000Z</time>
      </trkpt>
      <trkpt lat="45.14735" lon="5.64485">
        <ele>1536</ele>
        <time>2014-06-28T08:18:18.000Z</time>
      </trkpt>
      <trkpt lat="45.14735" lon="5.64484">
        <ele>1536</ele>
        <time>2014-06-28T08:18:19.000Z</time>
      </trkpt>
      <trkpt lat="45.14735" lon="5.64483">
        <ele>1537</ele>
        <time>2014-06-28T08:18:20.000Z</time>
      </trkpt>
      <trkpt lat="45.14735" lon="5.64481">
        <ele>1537</ele>
        <time>2014-06-28T08:18:21.000Z</time>
      </trkpt>
      <trkpt lat="45.14736" lon="5.64479">
        <ele>1537</ele>
        <time>2014-06-28T08:18:22.000Z</time>
      </trkpt>
      <trkpt lat="45.14736" lon="5.64478">
        <ele>1537</ele>
        <time>2014-06-28T08:18:23.000Z</time>
      </trkpt>
      <trkpt lat="45.14736" lon="5.64477">
        <ele>1537</ele>
        <time>2014-06-28T08:18:24.000Z</time>
      </trkpt>
      <trkpt lat="45.14736" lon="5.64476">
        <ele>1538</ele>
        <time>2014-06-28T08:18:25.000Z</time>
      </trkpt>
      <trkpt lat="45.14736" lon="5.64475">
        <ele>1538</ele>
        <time>2014-06-28T08:18:26.000Z</time>
      </trkpt>
      <trkpt lat="45.14736" lon="5.64474">
        <ele>1538</ele>
        <time>2014-06-28T08:18:27.000Z</time>
      </trkpt>
      <trkpt lat="45.14736" lon="5.64473">
        <ele>1538</ele>
        <time>2014-06-28T08:18:28.000Z</time>
      </trkpt>
      <trkpt lat="45.14736" lon="5.64472">
        <ele>1538</ele>
        <time>2014-06-28T08:18:29.000Z</time>
      </trkpt>
      <trkpt lat="45.14737" lon="5.64471">
        <ele>1538</ele>
        <time>2014-06-28T08:18:30.000Z</time>
      </trkpt>
      <trkpt lat="45.14737" lon="5.6447">
        <ele>1538</ele>
        <time>2014-06-28T08:18:31.000Z</time>
      </trkpt>
      <trkpt lat="45.14737" lon="5.64469">
        <ele>1538</ele>
        <time>2014-06-28T08:18:32.000Z</time>
      </trkpt>
      <trkpt lat="45.14737" lon="5.64468">
        <ele>1539</ele>
        <time>2014-06-28T08:18:33.000Z</time>
      </trkpt>
      <trkpt lat="45.14736" lon="5.64467">
        <ele>1539</ele>
        <time>2014-06-28T08:18:34.000Z</time>
      </trkpt>
      <trkpt lat="45.14735" lon="5.64466">
        <ele>1539</ele>
        <time>2014-06-28T08:18:35.000Z</time>
      </trkpt>
      <trkpt lat="45.14735" lon="5.64465">
        <ele>1539</ele>
        <time>2014-06-28T08:18:36.000Z</time>
      </trkpt>
      <trkpt lat="45.14734" lon="5.64464">
        <ele>1540</ele>
        <time>2014-06-28T08:18:37.000Z</time>
      </trkpt>
      <trkpt lat="45.14734" lon="5.64463">
        <ele>1540</ele>
        <time>2014-06-28T08:18:38.000Z</time>
      </trkpt>
      <trkpt lat="45.14733" lon="5.64461">
        <ele>1540</ele>
        <time>2014-06-28T08:18:39.000Z</time>
      </trkpt>
      <trkpt lat="45.14733" lon="5.6446">
        <ele>1540</ele>
        <time>2014-06-28T08:18:40.000Z</time>
      </trkpt>
      <trkpt lat="45.14733" lon="5.64459">
        <ele>1540</ele>
        <time>2014-06-28T08:18:41.000Z</time>
      </trkpt>
      <trkpt lat="45.14733" lon="5.64458">
        <ele>1541</ele>
        <time>2014-06-28T08:18:42.000Z</time>
      </trkpt>
      <trkpt lat="45.14734" lon="5.64457">
        <ele>1541</ele>
        <time>2014-06-28T08:18:43.000Z</time>
      </trkpt>
      <trkpt lat="45.14734" lon="5.64456">
        <ele>1541</ele>
        <time>2014-06-28T08:18:44.000Z</time>
      </trkpt>
      <trkpt lat="45.14734" lon="5.64456">
        <ele>1541</ele>
        <time>2014-06-28T08:18:45.000Z</time>
      </trkpt>
      <trkpt lat="45.14733" lon="5.64454">
        <ele>1541</ele>
        <time>2014-06-28T08:18:46.000Z</time>
      </trkpt>
      <trkpt lat="45.14733" lon="5.64453">
        <ele>1542</ele>
        <time>2014-06-28T08:18:47.000Z</time>
      </trkpt>
      <trkpt lat="45.14733" lon="5.64452">
        <ele>1542</ele>
        <time>2014-06-28T08:18:48.000Z</time>
      </trkpt>
      <trkpt lat="45.14733" lon="5.6445">
        <ele>1542</ele>
        <time>2014-06-28T08:18:49.000Z</time>
      </trkpt>
      <trkpt lat="45.14733" lon="5.64449">
        <ele>1542</ele>
        <time>2014-06-28T08:18:50.000Z</time>
      </trkpt>
      <trkpt lat="45.14733" lon="5.64448">
        <ele>1542</ele>
        <time>2014-06-28T08:18:51.000Z</time>
      </trkpt>
      <trkpt lat="45.14733" lon="5.64446">
        <ele>1543</ele>
        <time>2014-06-28T08:18:52.000Z</time>
      </trkpt>
      <trkpt lat="45.14733" lon="5.64445">
        <ele>1543</ele>
        <time>2014-06-28T08:18:53.000Z</time>
      </trkpt>
      <trkpt lat="45.14733" lon="5.64444">
        <ele>1543</ele>
        <time>2014-06-28T08:18:54.000Z</time>
      </trkpt>
      <trkpt lat="45.14732" lon="5.64442">
        <ele>1543</ele>
        <time>2014-06-28T08:18:55.000Z</time>
      </trkpt>
      <trkpt lat="45.14733" lon="5.64441">
        <ele>1544</ele>
        <time>2014-06-28T08:18:56.000Z</time>
      </trkpt>
      <trkpt lat="45.14733" lon="5.6444">
        <ele>1544</ele>
        <time>2014-06-28T08:18:57.000Z</time>
      </trkpt>
      <trkpt lat="45.14733" lon="5.6444">
        <ele>1544</ele>
        <time>2014-06-28T08:18:58.000Z</time>
      </trkpt>
      <trkpt lat="45.14733" lon="5.64439">
        <ele>1544</ele>
        <time>2014-06-28T08:18:59.000Z</time>
      </trkpt>
      <trkpt lat="45.14733" lon="5.64438">
        <ele>1545</ele>
        <time>2014-06-28T08:19:00.000Z</time>
      </trkpt>
      <trkpt lat="45.14733" lon="5.64437">
        <ele>1545</ele>
        <time>2014-06-28T08:19:01.000Z</time>
      </trkpt>
      <trkpt lat="45.14732" lon="5.64436">
        <ele>1545</ele>
        <time>2014-06-28T08:19:02.000Z</time>
      </trkpt>
      <trkpt lat="45.14732" lon="5.64435">
        <ele>1545</ele>
        <time>2014-06-28T08:19:03.000Z</time>
      </trkpt>
      <trkpt lat="45.14732" lon="5.64434">
        <ele>1546</ele>
        <time>2014-06-28T08:19:04.000Z</time>
      </trkpt>
      <trkpt lat="45.14731" lon="5.64433">
        <ele>1546</ele>
        <time>2014-06-28T08:19:05.000Z</time>
      </trkpt>
      <trkpt lat="45.14731" lon="5.64432">
        <ele>1546</ele>
        <time>2014-06-28T08:19:06.000Z</time>
      </trkpt>
      <trkpt lat="45.14731" lon="5.64431">
        <ele>1546</ele>
        <time>2014-06-28T08:19:07.000Z</time>
      </trkpt>
      <trkpt lat="45.14731" lon="5.6443">
        <ele>1546</ele>
        <time>2014-06-28T08:19:08.000Z</time>
      </trkpt>
      <trkpt lat="45.14731" lon="5.6443">
        <ele>1546</ele>
        <time>2014-06-28T08:19:09.000Z</time>
      </trkpt>
      <trkpt lat="45.14731" lon="5.64429">
        <ele>1546</ele>
        <time>2014-06-28T08:19:10.000Z</time>
      </trkpt>
      <trkpt lat="45.14731" lon="5.64428">
        <ele>1547</ele>
        <time>2014-06-28T08:19:11.000Z</time>
      </trkpt>
      <trkpt lat="45.14731" lon="5.64426">
        <ele>1547</ele>
        <time>2014-06-28T08:19:12.000Z</time>
      </trkpt>
      <trkpt lat="45.14731" lon="5.64425">
        <ele>1547</ele>
        <time>2014-06-28T08:19:13.000Z</time>
      </trkpt>
      <trkpt lat="45.1473" lon="5.64424">
        <ele>1547</ele>
        <time>2014-06-28T08:19:14.000Z</time>
      </trkpt>
      <trkpt lat="45.1473" lon="5.64423">
        <ele>1547</ele>
        <time>2014-06-28T08:19:15.000Z</time>
      </trkpt>
      <trkpt lat="45.1473" lon="5.64422">
        <ele>1547</ele>
        <time>2014-06-28T08:19:16.000Z</time>
      </trkpt>
      <trkpt lat="45.1473" lon="5.64421">
        <ele>1547</ele>
        <time>2014-06-28T08:19:17.000Z</time>
      </trkpt>
      <trkpt lat="45.1473" lon="5.6442">
        <ele>1547</ele>
        <time>2014-06-28T08:19:18.000Z</time>
      </trkpt>
      <trkpt lat="45.14731" lon="5.64419">
        <ele>1548</ele>
        <time>2014-06-28T08:19:19.000Z</time>
      </trkpt>
      <trkpt lat="45.14731" lon="5.64418">
        <ele>1548</ele>
        <time>2014-06-28T08:19:20.000Z</time>
      </trkpt>
      <trkpt lat="45.14731" lon="5.64417">
        <ele>1548</ele>
        <time>2014-06-28T08:19:21.000Z</time>
      </trkpt>
      <trkpt lat="45.14731" lon="5.64416">
        <ele>1548</ele>
        <time>2014-06-28T08:19:22.000Z</time>
      </trkpt>
      <trkpt lat="45.14732" lon="5.64415">
        <ele>1548</ele>
        <time>2014-06-28T08:19:23.000Z</time>
      </trkpt>
      <trkpt lat="45.14732" lon="5.64414">
        <ele>1548</ele>
        <time>2014-06-28T08:19:24.000Z</time>
      </trkpt>
      <trkpt lat="45.14733" lon="5.64413">
        <ele>1549</ele>
        <time>2014-06-28T08:19:25.000Z</time>
      </trkpt>
      <trkpt lat="45.14733" lon="5.64412">
        <ele>1549</ele>
        <time>2014-06-28T08:19:26.000Z</time>
      </trkpt>
      <trkpt lat="45.14733" lon="5.64411">
        <ele>1549</ele>
        <time>2014-06-28T08:19:27.000Z</time>
      </trkpt>
      <trkpt lat="45.14733" lon="5.6441">
        <ele>1549</ele>
        <time>2014-06-28T08:19:28.000Z</time>
      </trkpt>
      <trkpt lat="45.14732" lon="5.64409">
        <ele>1550</ele>
        <time>2014-06-28T08:19:29.000Z</time>
      </trkpt>
      <trkpt lat="45.14732" lon="5.64408">
        <ele>1550</ele>
        <time>2014-06-28T08:19:30.000Z</time>
      </trkpt>
      <trkpt lat="45.14732" lon="5.64408">
        <ele>1551</ele>
        <time>2014-06-28T08:19:31.000Z</time>
      </trkpt>
      <trkpt lat="45.14731" lon="5.64408">
        <ele>1551</ele>
        <time>2014-06-28T08:19:32.000Z</time>
      </trkpt>
      <trkpt lat="45.14731" lon="5.64408">
        <ele>1552</ele>
        <time>2014-06-28T08:19:33.000Z</time>
      </trkpt>
      <trkpt lat="45.1473" lon="5.64408">
        <ele>1552</ele>
        <time>2014-06-28T08:19:34.000Z</time>
      </trkpt>
      <trkpt lat="45.1473" lon="5.64408">
        <ele>1553</ele>
        <time>2014-06-28T08:19:35.000Z</time>
      </trkpt>
      <trkpt lat="45.14729" lon="5.64407">
        <ele>1553</ele>
        <time>2014-06-28T08:19:36.000Z</time>
      </trkpt>
      <trkpt lat="45.14729" lon="5.64406">
        <ele>1554</ele>
        <time>2014-06-28T08:19:37.000Z</time>
      </trkpt>
      <trkpt lat="45.14729" lon="5.64406">
        <ele>1554</ele>
        <time>2014-06-28T08:19:38.000Z</time>
      </trkpt>
      <trkpt lat="45.14729" lon="5.64405">
        <ele>1554</ele>
        <time>2014-06-28T08:19:39.000Z</time>
      </trkpt>
      <trkpt lat="45.1473" lon="5.64404">
        <ele>1555</ele>
        <time>2014-06-28T08:19:40.000Z</time>
      </trkpt>
      <trkpt lat="45.1473" lon="5.64404">
        <ele>1555</ele>
        <time>2014-06-28T08:19:41.000Z</time>
      </trkpt>
      <trkpt lat="45.1473" lon="5.64403">
        <ele>1555</ele>
        <time>2014-06-28T08:19:42.000Z</time>
      </trkpt>
      <trkpt lat="45.1473" lon="5.64403">
        <ele>1556</ele>
        <time>2014-06-28T08:19:43.000Z</time>
      </trkpt>
      <trkpt lat="45.1473" lon="5.64402">
        <ele>1556</ele>
        <time>2014-06-28T08:19:44.000Z</time>
      </trkpt>
      <trkpt lat="45.1473" lon="5.64402">
        <ele>1556</ele>
        <time>2014-06-28T08:19:45.000Z</time>
      </trkpt>
      <trkpt lat="45.14731" lon="5.64401">
        <ele>1557</ele>
        <time>2014-06-28T08:19:46.000Z</time>
      </trkpt>
      <trkpt lat="45.14731" lon="5.64401">
        <ele>1557</ele>
        <time>2014-06-28T08:19:47.000Z</time>
      </trkpt>
      <trkpt lat="45.14731" lon="5.64401">
        <ele>1557</ele>
        <time>2014-06-28T08:19:48.000Z</time>
      </trkpt>
      <trkpt lat="45.14731" lon="5.644">
        <ele>1558</ele>
        <time>2014-06-28T08:19:49.000Z</time>
      </trkpt>
      <trkpt lat="45.14731" lon="5.644">
        <ele>1558</ele>
        <time>2014-06-28T08:19:50.000Z</time>
      </trkpt>
      <trkpt lat="45.14731" lon="5.64399">
        <ele>1558</ele>
        <time>2014-06-28T08:19:51.000Z</time>
      </trkpt>
      <trkpt lat="45.14732" lon="5.64399">
        <ele>1558</ele>
        <time>2014-06-28T08:19:52.000Z</time>
      </trkpt>
      <trkpt lat="45.14732" lon="5.64399">
        <ele>1558</ele>
        <time>2014-06-28T08:19:53.000Z</time>
      </trkpt>
      <trkpt lat="45.14732" lon="5.64399">
        <ele>1559</ele>
        <time>2014-06-28T08:19:54.000Z</time>
      </trkpt>
      <trkpt lat="45.14732" lon="5.64398">
        <ele>1559</ele>
        <time>2014-06-28T08:19:55.000Z</time>
      </trkpt>
      <trkpt lat="45.14732" lon="5.64397">
        <ele>1559</ele>
        <time>2014-06-28T08:19:56.000Z</time>
      </trkpt>
      <trkpt lat="45.14732" lon="5.64396">
        <ele>1559</ele>
        <time>2014-06-28T08:19:57.000Z</time>
      </trkpt>
      <trkpt lat="45.14733" lon="5.64396">
        <ele>1559</ele>
        <time>2014-06-28T08:19:58.000Z</time>
      </trkpt>
      <trkpt lat="45.14732" lon="5.64395">
        <ele>1560</ele>
        <time>2014-06-28T08:19:59.000Z</time>
      </trkpt>
      <trkpt lat="45.14732" lon="5.64394">
        <ele>1560</ele>
        <time>2014-06-28T08:20:00.000Z</time>
      </trkpt>
      <trkpt lat="45.14732" lon="5.64394">
        <ele>1561</ele>
        <time>2014-06-28T08:20:01.000Z</time>
      </trkpt>
      <trkpt lat="45.14732" lon="5.64393">
        <ele>1561</ele>
        <time>2014-06-28T08:20:02.000Z</time>
      </trkpt>
      <trkpt lat="45.14732" lon="5.64393">
        <ele>1561</ele>
        <time>2014-06-28T08:20:03.000Z</time>
      </trkpt>
      <trkpt lat="45.14731" lon="5.64392">
        <ele>1562</ele>
        <time>2014-06-28T08:20:04.000Z</time>
      </trkpt>
      <trkpt lat="45.14731" lon="5.64392">
        <ele>1562</ele>
        <time>2014-06-28T08:20:05.000Z</time>
      </trkpt>
      <trkpt lat="45.14731" lon="5.64392">
        <ele>1563</ele>
        <time>2014-06-28T08:20:06.000Z</time>
      </trkpt>
      <trkpt lat="45.14731" lon="5.64392">
        <ele>1563</ele>
        <time>2014-06-28T08:20:07.000Z</time>
      </trkpt>
      <trkpt lat="45.1473" lon="5.64392">
        <ele>1564</ele>
        <time>2014-06-28T08:20:08.000Z</time>
      </trkpt>
      <trkpt lat="45.1473" lon="5.64392">
        <ele>1564</ele>
        <time>2014-06-28T08:20:09.000Z</time>
      </trkpt>
      <trkpt lat="45.1473" lon="5.64391">
        <ele>1565</ele>
        <time>2014-06-28T08:20:10.000Z</time>
      </trkpt>
      <trkpt lat="45.14729" lon="5.64391">
        <ele>1565</ele>
        <time>2014-06-28T08:20:11.000Z</time>
      </trkpt>
      <trkpt lat="45.14729" lon="5.64391">
        <ele>1566</ele>
        <time>2014-06-28T08:20:12.000Z</time>
      </trkpt>
      <trkpt lat="45.14729" lon="5.6439">
        <ele>1566</ele>
        <time>2014-06-28T08:20:13.000Z</time>
      </trkpt>
      <trkpt lat="45.14729" lon="5.6439">
        <ele>1566</ele>
        <time>2014-06-28T08:20:14.000Z</time>
      </trkpt>
      <trkpt lat="45.14728" lon="5.64389">
        <ele>1567</ele>
        <time>2014-06-28T08:20:15.000Z</time>
      </trkpt>
      <trkpt lat="45.14728" lon="5.64389">
        <ele>1567</ele>
        <time>2014-06-28T08:20:16.000Z</time>
      </trkpt>
      <trkpt lat="45.14728" lon="5.64389">
        <ele>1567</ele>
        <time>2014-06-28T08:20:17.000Z</time>
      </trkpt>
      <trkpt lat="45.14728" lon="5.64389">
        <ele>1568</ele>
        <time>2014-06-28T08:20:18.000Z</time>
      </trkpt>
      <trkpt lat="45.14729" lon="5.64388">
        <ele>1568</ele>
        <time>2014-06-28T08:20:19.000Z</time>
      </trkpt>
      <trkpt lat="45.14728" lon="5.64388">
        <ele>1568</ele>
        <time>2014-06-28T08:20:20.000Z</time>
      </trkpt>
      <trkpt lat="45.14728" lon="5.64388">
        <ele>1569</ele>
        <time>2014-06-28T08:20:21.000Z</time>
      </trkpt>
      <trkpt lat="45.14728" lon="5.64387">
        <ele>1569</ele>
        <time>2014-06-28T08:20:22.000Z</time>
      </trkpt>
      <trkpt lat="45.14728" lon="5.64386">
        <ele>1569</ele>
        <time>2014-06-28T08:20:23.000Z</time>
      </trkpt>
      <trkpt lat="45.14728" lon="5.64386">
        <ele>1569</ele>
        <time>2014-06-28T08:20:24.000Z</time>
      </trkpt>
      <trkpt lat="45.14728" lon="5.64386">
        <ele>1569</ele>
        <time>2014-06-28T08:20:25.000Z</time>
      </trkpt>
      <trkpt lat="45.14728" lon="5.64385">
        <ele>1569</ele>
        <time>2014-06-28T08:20:26.000Z</time>
      </trkpt>
      <trkpt lat="45.14728" lon="5.64385">
        <ele>1569</ele>
        <time>2014-06-28T08:20:27.000Z</time>
      </trkpt>
      <trkpt lat="45.14728" lon="5.64385">
        <ele>1569</ele>
        <time>2014-06-28T08:20:28.000Z</time>
      </trkpt>
      <trkpt lat="45.14728" lon="5.64384">
        <ele>1570</ele>
        <time>2014-06-28T08:20:29.000Z</time>
      </trkpt>
      <trkpt lat="45.14728" lon="5.64384">
        <ele>1570</ele>
        <time>2014-06-28T08:20:30.000Z</time>
      </trkpt>
      <trkpt lat="45.14728" lon="5.64383">
        <ele>1570</ele>
        <time>2014-06-28T08:20:31.000Z</time>
      </trkpt>
      <trkpt lat="45.14728" lon="5.64383">
        <ele>1570</ele>
        <time>2014-06-28T08:20:32.000Z</time>
      </trkpt>
      <trkpt lat="45.14728" lon="5.64383">
        <ele>1570</ele>
        <time>2014-06-28T08:20:33.000Z</time>
      </trkpt>
      <trkpt lat="45.14729" lon="5.64382">
        <ele>1570</ele>
        <time>2014-06-28T08:20:34.000Z</time>
      </trkpt>
      <trkpt lat="45.14729" lon="5.64382">
        <ele>1570</ele>
        <time>2014-06-28T08:20:35.000Z</time>
      </trkpt>
      <trkpt lat="45.14729" lon="5.64381">
        <ele>1570</ele>
        <time>2014-06-28T08:20:36.000Z</time>
      </trkpt>
      <trkpt lat="45.14729" lon="5.6438">
        <ele>1570</ele>
        <time>2014-06-28T08:20:37.000Z</time>
      </trkpt>
      <trkpt lat="45.14729" lon="5.6438">
        <ele>1570</ele>
        <time>2014-06-28T08:20:38.000Z</time>
      </trkpt>
      <trkpt lat="45.14729" lon="5.64379">
        <ele>1570</ele>
        <time>2014-06-28T08:20:39.000Z</time>
      </trkpt>
      <trkpt lat="45.14729" lon="5.64379">
        <ele>1570</ele>
        <time>2014-06-28T08:20:40.000Z</time>
      </trkpt>
      <trkpt lat="45.14729" lon="5.64379">
        <ele>1570</ele>
        <time>2014-06-28T08:20:41.000Z</time>
      </trkpt>
      <trkpt lat="45.14729" lon="5.64378">
        <ele>1570</ele>
        <time>2014-06-28T08:20:42.000Z</time>
      </trkpt>
      <trkpt lat="45.1473" lon="5.64378">
        <ele>1570</ele>
        <time>2014-06-28T08:20:43.000Z</time>
      </trkpt>
      <trkpt lat="45.1473" lon="5.64378">
        <ele>1571</ele>
        <time>2014-06-28T08:20:44.000Z</time>
      </trkpt>
      <trkpt lat="45.1473" lon="5.64377">
        <ele>1571</ele>
        <time>2014-06-28T08:20:45.000Z</time>
      </trkpt>
      <trkpt lat="45.1473" lon="5.64376">
        <ele>1571</ele>
        <time>2014-06-28T08:20:46.000Z</time>
      </trkpt>
      <trkpt lat="45.1473" lon="5.64375">
        <ele>1571</ele>
        <time>2014-06-28T08:20:47.000Z</time>
      </trkpt>
      <trkpt lat="45.14731" lon="5.64374">
        <ele>1572</ele>
        <time>2014-06-28T08:20:48.000Z</time>
      </trkpt>
      <trkpt lat="45.14731" lon="5.64373">
        <ele>1572</ele>
        <time>2014-06-28T08:20:49.000Z</time>
      </trkpt>
      <trkpt lat="45.14731" lon="5.64373">
        <ele>1572</ele>
        <time>2014-06-28T08:20:50.000Z</time>
      </trkpt>
      <trkpt lat="45.1473" lon="5.64373">
        <ele>1572</ele>
        <time>2014-06-28T08:20:51.000Z</time>
      </trkpt>
      <trkpt lat="45.1473" lon="5.64372">
        <ele>1573</ele>
        <time>2014-06-28T08:20:52.000Z</time>
      </trkpt>
      <trkpt lat="45.1473" lon="5.64371">
        <ele>1573</ele>
        <time>2014-06-28T08:20:53.000Z</time>
      </trkpt>
      <trkpt lat="45.1473" lon="5.64371">
        <ele>1573</ele>
        <time>2014-06-28T08:20:54.000Z</time>
      </trkpt>
      <trkpt lat="45.14729" lon="5.6437">
        <ele>1574</ele>
        <time>2014-06-28T08:20:55.000Z</time>
      </trkpt>
      <trkpt lat="45.14729" lon="5.6437">
        <ele>1574</ele>
        <time>2014-06-28T08:20:56.000Z</time>
      </trkpt>
      <trkpt lat="45.14729" lon="5.64369">
        <ele>1574</ele>
        <time>2014-06-28T08:20:57.000Z</time>
      </trkpt>
      <trkpt lat="45.14729" lon="5.64368">
        <ele>1575</ele>
        <time>2014-06-28T08:20:58.000Z</time>
      </trkpt>
      <trkpt lat="45.14729" lon="5.64368">
        <ele>1575</ele>
        <time>2014-06-28T08:20:59.000Z</time>
      </trkpt>
      <trkpt lat="45.14729" lon="5.64367">
        <ele>1576</ele>
        <time>2014-06-28T08:21:00.000Z</time>
      </trkpt>
      <trkpt lat="45.14729" lon="5.64367">
        <ele>1576</ele>
        <time>2014-06-28T08:21:01.000Z</time>
      </trkpt>
      <trkpt lat="45.14729" lon="5.64366">
        <ele>1576</ele>
        <time>2014-06-28T08:21:02.000Z</time>
      </trkpt>
      <trkpt lat="45.14729" lon="5.64365">
        <ele>1576</ele>
        <time>2014-06-28T08:21:03.000Z</time>
      </trkpt>
      <trkpt lat="45.1473" lon="5.64365">
        <ele>1577</ele>
        <time>2014-06-28T08:21:04.000Z</time>
      </trkpt>
      <trkpt lat="45.1473" lon="5.64364">
        <ele>1577</ele>
        <time>2014-06-28T08:21:05.000Z</time>
      </trkpt>
      <trkpt lat="45.1473" lon="5.64363">
        <ele>1577</ele>
        <time>2014-06-28T08:21:06.000Z</time>
      </trkpt>
      <trkpt lat="45.1473" lon="5.64362">
        <ele>1578</ele>
        <time>2014-06-28T08:21:07.000Z</time>
      </trkpt>
      <trkpt lat="45.1473" lon="5.64361">
        <ele>1578</ele>
        <time>2014-06-28T08:21:08.000Z</time>
      </trkpt>
      <trkpt lat="45.14729" lon="5.64361">
        <ele>1578</ele>
        <time>2014-06-28T08:21:09.000Z</time>
      </trkpt>
      <trkpt lat="45.14729" lon="5.64361">
        <ele>1579</ele>
        <time>2014-06-28T08:21:10.000Z</time>
      </trkpt>
      <trkpt lat="45.14729" lon="5.6436">
        <ele>1579</ele>
        <time>2014-06-28T08:21:11.000Z</time>
      </trkpt>
      <trkpt lat="45.14729" lon="5.64359">
        <ele>1579</ele>
        <time>2014-06-28T08:21:12.000Z</time>
      </trkpt>
      <trkpt lat="45.14729" lon="5.64358">
        <ele>1580</ele>
        <time>2014-06-28T08:21:13.000Z</time>
      </trkpt>
      <trkpt lat="45.14729" lon="5.64358">
        <ele>1580</ele>
        <time>2014-06-28T08:21:14.000Z</time>
      </trkpt>
      <trkpt lat="45.14729" lon="5.64357">
        <ele>1580</ele>
        <time>2014-06-28T08:21:15.000Z</time>
      </trkpt>
      <trkpt lat="45.14729" lon="5.64357">
        <ele>1580</ele>
        <time>2014-06-28T08:21:16.000Z</time>
      </trkpt>
      <trkpt lat="45.14729" lon="5.64356">
        <ele>1581</ele>
        <time>2014-06-28T08:21:17.000Z</time>
      </trkpt>
      <trkpt lat="45.14728" lon="5.64356">
        <ele>1581</ele>
        <time>2014-06-28T08:21:18.000Z</time>
      </trkpt>
      <trkpt lat="45.14728" lon="5.64355">
        <ele>1581</ele>
        <time>2014-06-28T08:21:19.000Z</time>
      </trkpt>
      <trkpt lat="45.14728" lon="5.64354">
        <ele>1581</ele>
        <time>2014-06-28T08:21:20.000Z</time>
      </trkpt>
      <trkpt lat="45.14728" lon="5.64354">
        <ele>1582</ele>
        <time>2014-06-28T08:21:21.000Z</time>
      </trkpt>
      <trkpt lat="45.14728" lon="5.64353">
        <ele>1582</ele>
        <time>2014-06-28T08:21:22.000Z</time>
      </trkpt>
      <trkpt lat="45.14728" lon="5.64353">
        <ele>1582</ele>
        <time>2014-06-28T08:21:23.000Z</time>
      </trkpt>
      <trkpt lat="45.14728" lon="5.64352">
        <ele>1582</ele>
        <time>2014-06-28T08:21:24.000Z</time>
      </trkpt>
      <trkpt lat="45.14727" lon="5.64352">
        <ele>1583</ele>
        <time>2014-06-28T08:21:25.000Z</time>
      </trkpt>
      <trkpt lat="45.14727" lon="5.64351">
        <ele>1583</ele>
        <time>2014-06-28T08:21:26.000Z</time>
      </trkpt>
      <trkpt lat="45.14726" lon="5.6435">
        <ele>1583</ele>
        <time>2014-06-28T08:21:27.000Z</time>
      </trkpt>
      <trkpt lat="45.14726" lon="5.6435">
        <ele>1584</ele>
        <time>2014-06-28T08:21:28.000Z</time>
      </trkpt>
      <trkpt lat="45.14726" lon="5.6435">
        <ele>1584</ele>
        <time>2014-06-28T08:21:29.000Z</time>
      </trkpt>
      <trkpt lat="45.14726" lon="5.64349">
        <ele>1584</ele>
        <time>2014-06-28T08:21:30.000Z</time>
      </trkpt>
      <trkpt lat="45.14725" lon="5.64349">
        <ele>1584</ele>
        <time>2014-06-28T08:21:31.000Z</time>
      </trkpt>
      <trkpt lat="45.14725" lon="5.64348">
        <ele>1584</ele>
        <time>2014-06-28T08:21:32.000Z</time>
      </trkpt>
      <trkpt lat="45.14725" lon="5.64348">
        <ele>1585</ele>
        <time>2014-06-28T08:21:33.000Z</time>
      </trkpt>
      <trkpt lat="45.14725" lon="5.64347">
        <ele>1585</ele>
        <time>2014-06-28T08:21:34.000Z</time>
      </trkpt>
      <trkpt lat="45.14724" lon="5.64346">
        <ele>1585</ele>
        <time>2014-06-28T08:21:35.000Z</time>
      </trkpt>
      <trkpt lat="45.14724" lon="5.64346">
        <ele>1585</ele>
        <time>2014-06-28T08:21:36.000Z</time>
      </trkpt>
      <trkpt lat="45.14724" lon="5.64345">
        <ele>1586</ele>
        <time>2014-06-28T08:21:37.000Z</time>
      </trkpt>
      <trkpt lat="45.14724" lon="5.64344">
        <ele>1586</ele>
        <time>2014-06-28T08:21:38.000Z</time>
      </trkpt>
      <trkpt lat="45.14724" lon="5.64343">
        <ele>1586</ele>
        <time>2014-06-28T08:21:39.000Z</time>
      </trkpt>
      <trkpt lat="45.14723" lon="5.64342">
        <ele>1586</ele>
        <time>2014-06-28T08:21:40.000Z</time>
      </trkpt>
      <trkpt lat="45.14723" lon="5.64341">
        <ele>1587</ele>
        <time>2014-06-28T08:21:41.000Z</time>
      </trkpt>
      <trkpt lat="45.14723" lon="5.64341">
        <ele>1587</ele>
        <time>2014-06-28T08:21:42.000Z</time>
      </trkpt>
      <trkpt lat="45.14723" lon="5.6434">
        <ele>1587</ele>
        <time>2014-06-28T08:21:43.000Z</time>
      </trkpt>
      <trkpt lat="45.14722" lon="5.64339">
        <ele>1587</ele>
        <time>2014-06-28T08:21:44.000Z</time>
      </trkpt>
      <trkpt lat="45.14721" lon="5.64338">
        <ele>1587</ele>
        <time>2014-06-28T08:21:45.000Z</time>
      </trkpt>
      <trkpt lat="45.14721" lon="5.64337">
        <ele>1588</ele>
        <time>2014-06-28T08:21:46.000Z</time>
      </trkpt>
      <trkpt lat="45.14721" lon="5.64336">
        <ele>1588</ele>
        <time>2014-06-28T08:21:47.000Z</time>
      </trkpt>
      <trkpt lat="45.14721" lon="5.64336">
        <ele>1588</ele>
        <time>2014-06-28T08:21:48.000Z</time>
      </trkpt>
      <trkpt lat="45.1472" lon="5.64335">
        <ele>1588</ele>
        <time>2014-06-28T08:21:49.000Z</time>
      </trkpt>
      <trkpt lat="45.1472" lon="5.64334">
        <ele>1588</ele>
        <time>2014-06-28T08:21:50.000Z</time>
      </trkpt>
      <trkpt lat="45.1472" lon="5.64333">
        <ele>1589</ele>
        <time>2014-06-28T08:21:51.000Z</time>
      </trkpt>
      <trkpt lat="45.1472" lon="5.64333">
        <ele>1589</ele>
        <time>2014-06-28T08:21:52.000Z</time>
      </trkpt>
      <trkpt lat="45.1472" lon="5.64332">
        <ele>1589</ele>
        <time>2014-06-28T08:21:53.000Z</time>
      </trkpt>
      <trkpt lat="45.14719" lon="5.64331">
        <ele>1589</ele>
        <time>2014-06-28T08:21:54.000Z</time>
      </trkpt>
      <trkpt lat="45.14719" lon="5.6433">
        <ele>1590</ele>
        <time>2014-06-28T08:21:55.000Z</time>
      </trkpt>
      <trkpt lat="45.14718" lon="5.6433">
        <ele>1590</ele>
        <time>2014-06-28T08:21:56.000Z</time>
      </trkpt>
      <trkpt lat="45.14718" lon="5.64329">
        <ele>1590</ele>
        <time>2014-06-28T08:21:57.000Z</time>
      </trkpt>
      <trkpt lat="45.14717" lon="5.64328">
        <ele>1590</ele>
        <time>2014-06-28T08:21:58.000Z</time>
      </trkpt>
      <trkpt lat="45.14717" lon="5.64327">
        <ele>1591</ele>
        <time>2014-06-28T08:21:59.000Z</time>
      </trkpt>
      <trkpt lat="45.14717" lon="5.64327">
        <ele>1591</ele>
        <time>2014-06-28T08:22:00.000Z</time>
      </trkpt>
      <trkpt lat="45.14716" lon="5.64326">
        <ele>1591</ele>
        <time>2014-06-28T08:22:01.000Z</time>
      </trkpt>
      <trkpt lat="45.14717" lon="5.64325">
        <ele>1591</ele>
        <time>2014-06-28T08:22:02.000Z</time>
      </trkpt>
      <trkpt lat="45.14717" lon="5.64325">
        <ele>1591</ele>
        <time>2014-06-28T08:22:03.000Z</time>
      </trkpt>
      <trkpt lat="45.14717" lon="5.64324">
        <ele>1591</ele>
        <time>2014-06-28T08:22:04.000Z</time>
      </trkpt>
      <trkpt lat="45.14717" lon="5.64323">
        <ele>1592</ele>
        <time>2014-06-28T08:22:05.000Z</time>
      </trkpt>
      <trkpt lat="45.14717" lon="5.64323">
        <ele>1592</ele>
        <time>2014-06-28T08:22:06.000Z</time>
      </trkpt>
      <trkpt lat="45.14717" lon="5.64322">
        <ele>1592</ele>
        <time>2014-06-28T08:22:07.000Z</time>
      </trkpt>
      <trkpt lat="45.14716" lon="5.64321">
        <ele>1592</ele>
        <time>2014-06-28T08:22:08.000Z</time>
      </trkpt>
      <trkpt lat="45.14716" lon="5.64321">
        <ele>1592</ele>
        <time>2014-06-28T08:22:09.000Z</time>
      </trkpt>
      <trkpt lat="45.14717" lon="5.6432">
        <ele>1592</ele>
        <time>2014-06-28T08:22:10.000Z</time>
      </trkpt>
      <trkpt lat="45.14717" lon="5.64319">
        <ele>1592</ele>
        <time>2014-06-28T08:22:11.000Z</time>
      </trkpt>
      <trkpt lat="45.14717" lon="5.64318">
        <ele>1592</ele>
        <time>2014-06-28T08:22:12.000Z</time>
      </trkpt>
      <trkpt lat="45.14717" lon="5.64318">
        <ele>1592</ele>
        <time>2014-06-28T08:22:13.000Z</time>
      </trkpt>
      <trkpt lat="45.14717" lon="5.64317">
        <ele>1593</ele>
        <time>2014-06-28T08:22:14.000Z</time>
      </trkpt>
      <trkpt lat="45.14717" lon="5.64316">
        <ele>1593</ele>
        <time>2014-06-28T08:22:15.000Z</time>
      </trkpt>
      <trkpt lat="45.14717" lon="5.64316">
        <ele>1593</ele>
        <time>2014-06-28T08:22:16.000Z</time>
      </trkpt>
      <trkpt lat="45.14717" lon="5.64315">
        <ele>1593</ele>
        <time>2014-06-28T08:22:17.000Z</time>
      </trkpt>
      <trkpt lat="45.14717" lon="5.64314">
        <ele>1594</ele>
        <time>2014-06-28T08:22:18.000Z</time>
      </trkpt>
      <trkpt lat="45.14717" lon="5.64314">
        <ele>1594</ele>
        <time>2014-06-28T08:22:19.000Z</time>
      </trkpt>
      <trkpt lat="45.14716" lon="5.64313">
        <ele>1594</ele>
        <time>2014-06-28T08:22:20.000Z</time>
      </trkpt>
      <trkpt lat="45.14716" lon="5.64313">
        <ele>1595</ele>
        <time>2014-06-28T08:22:21.000Z</time>
      </trkpt>
      <trkpt lat="45.14716" lon="5.64313">
        <ele>1595</ele>
        <time>2014-06-28T08:22:22.000Z</time>
      </trkpt>
      <trkpt lat="45.14716" lon="5.64312">
        <ele>1595</ele>
        <time>2014-06-28T08:22:23.000Z</time>
      </trkpt>
      <trkpt lat="45.14716" lon="5.64312">
        <ele>1595</ele>
        <time>2014-06-28T08:22:24.000Z</time>
      </trkpt>
      <trkpt lat="45.14716" lon="5.64312">
        <ele>1596</ele>
        <time>2014-06-28T08:22:25.000Z</time>
      </trkpt>
      <trkpt lat="45.14716" lon="5.64312">
        <ele>1596</ele>
        <time>2014-06-28T08:22:26.000Z</time>
      </trkpt>
      <trkpt lat="45.14715" lon="5.64312">
        <ele>1596</ele>
        <time>2014-06-28T08:22:27.000Z</time>
      </trkpt>
      <trkpt lat="45.14715" lon="5.64312">
        <ele>1596</ele>
        <time>2014-06-28T08:22:28.000Z</time>
      </trkpt>
      <trkpt lat="45.14715" lon="5.64312">
        <ele>1596</ele>
        <time>2014-06-28T08:22:29.000Z</time>
      </trkpt>
      <trkpt lat="45.14715" lon="5.64313">
        <ele>1596</ele>
        <time>2014-06-28T08:22:30.000Z</time>
      </trkpt>
      <trkpt lat="45.14715" lon="5.64313">
        <ele>1597</ele>
        <time>2014-06-28T08:22:31.000Z</time>
      </trkpt>
      <trkpt lat="45.14715" lon="5.64313">
        <ele>1597</ele>
        <time>2014-06-28T08:22:32.000Z</time>
      </trkpt>
      <trkpt lat="45.14715" lon="5.64313">
        <ele>1597</ele>
        <time>2014-06-28T08:22:33.000Z</time>
      </trkpt>
      <trkpt lat="45.14715" lon="5.64313">
        <ele>1597</ele>
        <time>2014-06-28T08:22:34.000Z</time>
      </trkpt>
      <trkpt lat="45.14715" lon="5.64313">
        <ele>1597</ele>
        <time>2014-06-28T08:22:35.000Z</time>
      </trkpt>
      <trkpt lat="45.14715" lon="5.64313">
        <ele>1597</ele>
        <time>2014-06-28T08:22:36.000Z</time>
      </trkpt>
      <trkpt lat="45.14715" lon="5.64313">
        <ele>1597</ele>
        <time>2014-06-28T08:22:37.000Z</time>
      </trkpt>
      <trkpt lat="45.14715" lon="5.64313">
        <ele>1597</ele>
        <time>2014-06-28T08:22:38.000Z</time>
      </trkpt>
      <trkpt lat="45.14715" lon="5.64313">
        <ele>1597</ele>
        <time>2014-06-28T08:22:39.000Z</time>
      </trkpt>
      <trkpt lat="45.14715" lon="5.64313">
        <ele>1597</ele>
        <time>2014-06-28T08:22:40.000Z</time>
      </trkpt>
      <trkpt lat="45.14715" lon="5.64313">
        <ele>1597</ele>
        <time>2014-06-28T08:22:41.000Z</time>
      </trkpt>
      <trkpt lat="45.14715" lon="5.64313">
        <ele>1597</ele>
        <time>2014-06-28T08:22:42.000Z</time>
      </trkpt>
      <trkpt lat="45.14715" lon="5.64313">
        <ele>1597</ele>
        <time>2014-06-28T08:22:43.000Z</time>
      </trkpt>
      <trkpt lat="45.14715" lon="5.64313">
        <ele>1598</ele>
        <time>2014-06-28T08:22:44.000Z</time>
      </trkpt>
      <trkpt lat="45.14715" lon="5.64313">
        <ele>1598</ele>
        <time>2014-06-28T08:22:45.000Z</time>
      </trkpt>
      <trkpt lat="45.14715" lon="5.64313">
        <ele>1598</ele>
        <time>2014-06-28T08:22:46.000Z</time>
      </trkpt>
      <trkpt lat="45.14715" lon="5.64313">
        <ele>1598</ele>
        <time>2014-06-28T08:22:47.000Z</time>
      </trkpt>
      <trkpt lat="45.14715" lon="5.64313">
        <ele>1598</ele>
        <time>2014-06-28T08:22:48.000Z</time>
      </trkpt>
      <trkpt lat="45.14715" lon="5.64313">
        <ele>1598</ele>
        <time>2014-06-28T08:22:49.000Z</time>
      </trkpt>
      <trkpt lat="45.14715" lon="5.64313">
        <ele>1598</ele>
        <time>2014-06-28T08:22:50.000Z</time>
      </trkpt>
      <trkpt lat="45.14715" lon="5.64313">
        <ele>1598</ele>
        <time>2014-06-28T08:22:51.000Z</time>
      </trkpt>
      <trkpt lat="45.14715" lon="5.64313">
        <ele>1598</ele>
        <time>2014-06-28T08:22:52.000Z</time>
      </trkpt>
      <trkpt lat="45.14715" lon="5.64313">
        <ele>1598</ele>
        <time>2014-06-28T08:22:53.000Z</time>
      </trkpt>
      <trkpt lat="45.14715" lon="5.64313">
        <ele>1598</ele>
        <time>2014-06-28T08:22:54.000Z</time>
      </trkpt>
      <trkpt lat="45.14715" lon="5.64313">
        <ele>1598</ele>
        <time>2014-06-28T08:22:55.000Z</time>
      </trkpt>
      <trkpt lat="45.14715" lon="5.64313">
        <ele>1598</ele>
        <time>2014-06-28T08:22:57.000Z</time>
      </trkpt>
      <trkpt lat="45.14715" lon="5.64313">
        <ele>1598</ele>
        <time>2014-06-28T08:22:58.000Z</time>
      </trkpt>
      <trkpt lat="45.14715" lon="5.6431">
        <ele>1598</ele>
        <time>2014-06-28T08:22:59.000Z</time>
      </trkpt>
      <trkpt lat="45.14715" lon="5.64309">
        <ele>1598</ele>
        <time>2014-06-28T08:23:00.000Z</time>
      </trkpt>
      <trkpt lat="45.14714" lon="5.64308">
        <ele>1599</ele>
        <time>2014-06-28T08:23:01.000Z</time>
      </trkpt>
      <trkpt lat="45.14714" lon="5.64308">
        <ele>1599</ele>
        <time>2014-06-28T08:23:02.000Z</time>
      </trkpt>
      <trkpt lat="45.14714" lon="5.64307">
        <ele>1599</ele>
        <time>2014-06-28T08:23:03.000Z</time>
      </trkpt>
      <trkpt lat="45.14714" lon="5.64306">
        <ele>1599</ele>
        <time>2014-06-28T08:23:04.000Z</time>
      </trkpt>
      <trkpt lat="45.14714" lon="5.64306">
        <ele>1600</ele>
        <time>2014-06-28T08:23:05.000Z</time>
      </trkpt>
      <trkpt lat="45.14714" lon="5.64305">
        <ele>1600</ele>
        <time>2014-06-28T08:23:06.000Z</time>
      </trkpt>
      <trkpt lat="45.14714" lon="5.64305">
        <ele>1600</ele>
        <time>2014-06-28T08:23:07.000Z</time>
      </trkpt>
      <trkpt lat="45.14714" lon="5.64305">
        <ele>1601</ele>
        <time>2014-06-28T08:23:08.000Z</time>
      </trkpt>
      <trkpt lat="45.14714" lon="5.64304">
        <ele>1601</ele>
        <time>2014-06-28T08:23:09.000Z</time>
      </trkpt>
      <trkpt lat="45.14714" lon="5.64304">
        <ele>1601</ele>
        <time>2014-06-28T08:23:10.000Z</time>
      </trkpt>
      <trkpt lat="45.14714" lon="5.64303">
        <ele>1601</ele>
        <time>2014-06-28T08:23:11.000Z</time>
      </trkpt>
      <trkpt lat="45.14714" lon="5.64302">
        <ele>1601</ele>
        <time>2014-06-28T08:23:12.000Z</time>
      </trkpt>
      <trkpt lat="45.14714" lon="5.64302">
        <ele>1602</ele>
        <time>2014-06-28T08:23:13.000Z</time>
      </trkpt>
      <trkpt lat="45.14715" lon="5.64301">
        <ele>1602</ele>
        <time>2014-06-28T08:23:14.000Z</time>
      </trkpt>
      <trkpt lat="45.14715" lon="5.643">
        <ele>1602</ele>
        <time>2014-06-28T08:23:15.000Z</time>
      </trkpt>
      <trkpt lat="45.14714" lon="5.643">
        <ele>1602</ele>
        <time>2014-06-28T08:23:16.000Z</time>
      </trkpt>
      <trkpt lat="45.14714" lon="5.64299">
        <ele>1603</ele>
        <time>2014-06-28T08:23:17.000Z</time>
      </trkpt>
      <trkpt lat="45.14714" lon="5.64298">
        <ele>1603</ele>
        <time>2014-06-28T08:23:18.000Z</time>
      </trkpt>
      <trkpt lat="45.14714" lon="5.64297">
        <ele>1603</ele>
        <time>2014-06-28T08:23:19.000Z</time>
      </trkpt>
      <trkpt lat="45.14714" lon="5.64297">
        <ele>1604</ele>
        <time>2014-06-28T08:23:20.000Z</time>
      </trkpt>
      <trkpt lat="45.14714" lon="5.64296">
        <ele>1604</ele>
        <time>2014-06-28T08:23:21.000Z</time>
      </trkpt>
      <trkpt lat="45.14714" lon="5.64296">
        <ele>1604</ele>
        <time>2014-06-28T08:23:22.000Z</time>
      </trkpt>
      <trkpt lat="45.14714" lon="5.64296">
        <ele>1604</ele>
        <time>2014-06-28T08:23:23.000Z</time>
      </trkpt>
      <trkpt lat="45.14714" lon="5.64296">
        <ele>1604</ele>
        <time>2014-06-28T08:23:24.000Z</time>
      </trkpt>
      <trkpt lat="45.14714" lon="5.64296">
        <ele>1604</ele>
        <time>2014-06-28T08:23:25.000Z</time>
      </trkpt>
      <trkpt lat="45.14714" lon="5.64296">
        <ele>1604</ele>
        <time>2014-06-28T08:23:26.000Z</time>
      </trkpt>
      <trkpt lat="45.14714" lon="5.64296">
        <ele>1604</ele>
        <time>2014-06-28T08:23:27.000Z</time>
      </trkpt>
      <trkpt lat="45.14714" lon="5.64296">
        <ele>1604</ele>
        <time>2014-06-28T08:23:28.000Z</time>
      </trkpt>
      <trkpt lat="45.14714" lon="5.64296">
        <ele>1604</ele>
        <time>2014-06-28T08:23:29.000Z</time>
      </trkpt>
      <trkpt lat="45.14714" lon="5.64296">
        <ele>1604</ele>
        <time>2014-06-28T08:23:30.000Z</time>
      </trkpt>
      <trkpt lat="45.14714" lon="5.64296">
        <ele>1604</ele>
        <time>2014-06-28T08:23:31.000Z</time>
      </trkpt>
      <trkpt lat="45.14714" lon="5.64296">
        <ele>1604</ele>
        <time>2014-06-28T08:23:32.000Z</time>
      </trkpt>
      <trkpt lat="45.14714" lon="5.64295">
        <ele>1604</ele>
        <time>2014-06-28T08:23:33.000Z</time>
      </trkpt>
      <trkpt lat="45.14713" lon="5.64295">
        <ele>1604</ele>
        <time>2014-06-28T08:23:34.000Z</time>
      </trkpt>
      <trkpt lat="45.14713" lon="5.64294">
        <ele>1604</ele>
        <time>2014-06-28T08:23:35.000Z</time>
      </trkpt>
      <trkpt lat="45.14713" lon="5.64294">
        <ele>1604</ele>
        <time>2014-06-28T08:23:36.000Z</time>
      </trkpt>
      <trkpt lat="45.14713" lon="5.64294">
        <ele>1605</ele>
        <time>2014-06-28T08:23:37.000Z</time>
      </trkpt>
      <trkpt lat="45.14713" lon="5.64294">
        <ele>1605</ele>
        <time>2014-06-28T08:23:38.000Z</time>
      </trkpt>
      <trkpt lat="45.14713" lon="5.64294">
        <ele>1605</ele>
        <time>2014-06-28T08:23:39.000Z</time>
      </trkpt>
      <trkpt lat="45.14713" lon="5.64294">
        <ele>1605</ele>
        <time>2014-06-28T08:23:40.000Z</time>
      </trkpt>
      <trkpt lat="45.14713" lon="5.64294">
        <ele>1605</ele>
        <time>2014-06-28T08:23:41.000Z</time>
      </trkpt>
      <trkpt lat="45.14714" lon="5.64294">
        <ele>1605</ele>
        <time>2014-06-28T08:23:42.000Z</time>
      </trkpt>
      <trkpt lat="45.14713" lon="5.64294">
        <ele>1605</ele>
        <time>2014-06-28T08:23:43.000Z</time>
      </trkpt>
      <trkpt lat="45.14713" lon="5.64294">
        <ele>1605</ele>
        <time>2014-06-28T08:23:44.000Z</time>
      </trkpt>
      <trkpt lat="45.14713" lon="5.64294">
        <ele>1606</ele>
        <time>2014-06-28T08:23:45.000Z</time>
      </trkpt>
      <trkpt lat="45.14713" lon="5.64293">
        <ele>1606</ele>
        <time>2014-06-28T08:23:46.000Z</time>
      </trkpt>
      <trkpt lat="45.14713" lon="5.64293">
        <ele>1606</ele>
        <time>2014-06-28T08:23:47.000Z</time>
      </trkpt>
      <trkpt lat="45.14713" lon="5.64293">
        <ele>1606</ele>
        <time>2014-06-28T08:23:48.000Z</time>
      </trkpt>
      <trkpt lat="45.14712" lon="5.64293">
        <ele>1606</ele>
        <time>2014-06-28T08:23:49.000Z</time>
      </trkpt>
      <trkpt lat="45.14712" lon="5.64292">
        <ele>1606</ele>
        <time>2014-06-28T08:23:50.000Z</time>
      </trkpt>
      <trkpt lat="45.14712" lon="5.64292">
        <ele>1607</ele>
        <time>2014-06-28T08:23:51.000Z</time>
      </trkpt>
      <trkpt lat="45.14712" lon="5.64291">
        <ele>1607</ele>
        <time>2014-06-28T08:23:52.000Z</time>
      </trkpt>
      <trkpt lat="45.14712" lon="5.6429">
        <ele>1607</ele>
        <time>2014-06-28T08:23:53.000Z</time>
      </trkpt>
      <trkpt lat="45.14712" lon="5.64289">
        <ele>1608</ele>
        <time>2014-06-28T08:23:54.000Z</time>
      </trkpt>
      <trkpt lat="45.14712" lon="5.64289">
        <ele>1608</ele>
        <time>2014-06-28T08:23:55.000Z</time>
      </trkpt>
      <trkpt lat="45.14712" lon="5.64289">
        <ele>1608</ele>
        <time>2014-06-28T08:23:56.000Z</time>
      </trkpt>
      <trkpt lat="45.14712" lon="5.64288">
        <ele>1608</ele>
        <time>2014-06-28T08:23:57.000Z</time>
      </trkpt>
      <trkpt lat="45.14713" lon="5.64288">
        <ele>1609</ele>
        <time>2014-06-28T08:23:58.000Z</time>
      </trkpt>
      <trkpt lat="45.14713" lon="5.64288">
        <ele>1609</ele>
        <time>2014-06-28T08:23:59.000Z</time>
      </trkpt>
      <trkpt lat="45.14713" lon="5.64288">
        <ele>1609</ele>
        <time>2014-06-28T08:24:00.000Z</time>
      </trkpt>
      <trkpt lat="45.14714" lon="5.64288">
        <ele>1609</ele>
        <time>2014-06-28T08:24:01.000Z</time>
      </trkpt>
      <trkpt lat="45.14713" lon="5.64288">
        <ele>1609</ele>
        <time>2014-06-28T08:24:02.000Z</time>
      </trkpt>
      <trkpt lat="45.14713" lon="5.64287">
        <ele>1609</ele>
        <time>2014-06-28T08:24:03.000Z</time>
      </trkpt>
      <trkpt lat="45.14713" lon="5.64286">
        <ele>1609</ele>
        <time>2014-06-28T08:24:04.000Z</time>
      </trkpt>
      <trkpt lat="45.14713" lon="5.64286">
        <ele>1609</ele>
        <time>2014-06-28T08:24:05.000Z</time>
      </trkpt>
      <trkpt lat="45.14713" lon="5.64285">
        <ele>1610</ele>
        <time>2014-06-28T08:24:06.000Z</time>
      </trkpt>
      <trkpt lat="45.14712" lon="5.64285">
        <ele>1610</ele>
        <time>2014-06-28T08:24:07.000Z</time>
      </trkpt>
      <trkpt lat="45.14712" lon="5.64284">
        <ele>1610</ele>
        <time>2014-06-28T08:24:08.000Z</time>
      </trkpt>
      <trkpt lat="45.14711" lon="5.64284">
        <ele>1610</ele>
        <time>2014-06-28T08:24:09.000Z</time>
      </trkpt>
      <trkpt lat="45.14711" lon="5.64283">
        <ele>1610</ele>
        <time>2014-06-28T08:24:10.000Z</time>
      </trkpt>
      <trkpt lat="45.1471" lon="5.64283">
        <ele>1610</ele>
        <time>2014-06-28T08:24:11.000Z</time>
      </trkpt>
      <trkpt lat="45.1471" lon="5.64283">
        <ele>1611</ele>
        <time>2014-06-28T08:24:12.000Z</time>
      </trkpt>
      <trkpt lat="45.14709" lon="5.64282">
        <ele>1611</ele>
        <time>2014-06-28T08:24:13.000Z</time>
      </trkpt>
      <trkpt lat="45.14709" lon="5.64282">
        <ele>1611</ele>
        <time>2014-06-28T08:24:14.000Z</time>
      </trkpt>
      <trkpt lat="45.14709" lon="5.64281">
        <ele>1611</ele>
        <time>2014-06-28T08:24:15.000Z</time>
      </trkpt>
      <trkpt lat="45.14709" lon="5.6428">
        <ele>1611</ele>
        <time>2014-06-28T08:24:16.000Z</time>
      </trkpt>
      <trkpt lat="45.14709" lon="5.6428">
        <ele>1611</ele>
        <time>2014-06-28T08:24:17.000Z</time>
      </trkpt>
      <trkpt lat="45.14709" lon="5.6428">
        <ele>1611</ele>
        <time>2014-06-28T08:24:18.000Z</time>
      </trkpt>
      <trkpt lat="45.14709" lon="5.6428">
        <ele>1611</ele>
        <time>2014-06-28T08:24:19.000Z</time>
      </trkpt>
      <trkpt lat="45.14709" lon="5.64279">
        <ele>1611</ele>
        <time>2014-06-28T08:24:20.000Z</time>
      </trkpt>
      <trkpt lat="45.14709" lon="5.64279">
        <ele>1612</ele>
        <time>2014-06-28T08:24:21.000Z</time>
      </trkpt>
      <trkpt lat="45.14709" lon="5.64278">
        <ele>1612</ele>
        <time>2014-06-28T08:24:22.000Z</time>
      </trkpt>
      <trkpt lat="45.14708" lon="5.64278">
        <ele>1612</ele>
        <time>2014-06-28T08:24:23.000Z</time>
      </trkpt>
      <trkpt lat="45.14708" lon="5.64278">
        <ele>1612</ele>
        <time>2014-06-28T08:24:24.000Z</time>
      </trkpt>
      <trkpt lat="45.14708" lon="5.64279">
        <ele>1612</ele>
        <time>2014-06-28T08:24:25.000Z</time>
      </trkpt>
      <trkpt lat="45.14708" lon="5.64279">
        <ele>1612</ele>
        <time>2014-06-28T08:24:26.000Z</time>
      </trkpt>
      <trkpt lat="45.14708" lon="5.64279">
        <ele>1612</ele>
        <time>2014-06-28T08:24:27.000Z</time>
      </trkpt>
      <trkpt lat="45.14708" lon="5.64278">
        <ele>1612</ele>
        <time>2014-06-28T08:24:28.000Z</time>
      </trkpt>
      <trkpt lat="45.14707" lon="5.64278">
        <ele>1612</ele>
        <time>2014-06-28T08:24:29.000Z</time>
      </trkpt>
      <trkpt lat="45.14706" lon="5.64278">
        <ele>1612</ele>
        <time>2014-06-28T08:24:30.000Z</time>
      </trkpt>
      <trkpt lat="45.14706" lon="5.64278">
        <ele>1612</ele>
        <time>2014-06-28T08:24:31.000Z</time>
      </trkpt>
      <trkpt lat="45.14706" lon="5.64277">
        <ele>1612</ele>
        <time>2014-06-28T08:24:32.000Z</time>
      </trkpt>
      <trkpt lat="45.14705" lon="5.64277">
        <ele>1612</ele>
        <time>2014-06-28T08:24:33.000Z</time>
      </trkpt>
      <trkpt lat="45.14705" lon="5.64276">
        <ele>1612</ele>
        <time>2014-06-28T08:24:34.000Z</time>
      </trkpt>
      <trkpt lat="45.14704" lon="5.64276">
        <ele>1613</ele>
        <time>2014-06-28T08:24:35.000Z</time>
      </trkpt>
      <trkpt lat="45.14704" lon="5.64276">
        <ele>1613</ele>
        <time>2014-06-28T08:24:36.000Z</time>
      </trkpt>
      <trkpt lat="45.14704" lon="5.64276">
        <ele>1613</ele>
        <time>2014-06-28T08:24:37.000Z</time>
      </trkpt>
      <trkpt lat="45.14703" lon="5.64276">
        <ele>1613</ele>
        <time>2014-06-28T08:24:38.000Z</time>
      </trkpt>
      <trkpt lat="45.14703" lon="5.64276">
        <ele>1613</ele>
        <time>2014-06-28T08:24:39.000Z</time>
      </trkpt>
      <trkpt lat="45.14702" lon="5.64277">
        <ele>1614</ele>
        <time>2014-06-28T08:24:40.000Z</time>
      </trkpt>
      <trkpt lat="45.14702" lon="5.64277">
        <ele>1614</ele>
        <time>2014-06-28T08:24:41.000Z</time>
      </trkpt>
      <trkpt lat="45.14702" lon="5.64277">
        <ele>1615</ele>
        <time>2014-06-28T08:24:42.000Z</time>
      </trkpt>
      <trkpt lat="45.14702" lon="5.64277">
        <ele>1615</ele>
        <time>2014-06-28T08:24:43.000Z</time>
      </trkpt>
      <trkpt lat="45.14702" lon="5.64277">
        <ele>1615</ele>
        <time>2014-06-28T08:24:44.000Z</time>
      </trkpt>
      <trkpt lat="45.14702" lon="5.64277">
        <ele>1615</ele>
        <time>2014-06-28T08:24:45.000Z</time>
      </trkpt>
      <trkpt lat="45.14702" lon="5.64277">
        <ele>1615</ele>
        <time>2014-06-28T08:24:46.000Z</time>
      </trkpt>
      <trkpt lat="45.14702" lon="5.64277">
        <ele>1616</ele>
        <time>2014-06-28T08:24:47.000Z</time>
      </trkpt>
      <trkpt lat="45.14703" lon="5.64278">
        <ele>1616</ele>
        <time>2014-06-28T08:24:48.000Z</time>
      </trkpt>
      <trkpt lat="45.14703" lon="5.64278">
        <ele>1616</ele>
        <time>2014-06-28T08:24:49.000Z</time>
      </trkpt>
      <trkpt lat="45.14703" lon="5.64278">
        <ele>1616</ele>
        <time>2014-06-28T08:24:50.000Z</time>
      </trkpt>
      <trkpt lat="45.14703" lon="5.64278">
        <ele>1616</ele>
        <time>2014-06-28T08:24:51.000Z</time>
      </trkpt>
      <trkpt lat="45.14703" lon="5.64278">
        <ele>1616</ele>
        <time>2014-06-28T08:24:52.000Z</time>
      </trkpt>
      <trkpt lat="45.14703" lon="5.64278">
        <ele>1616</ele>
        <time>2014-06-28T08:24:53.000Z</time>
      </trkpt>
      <trkpt lat="45.14703" lon="5.64278">
        <ele>1616</ele>
        <time>2014-06-28T08:24:54.000Z</time>
      </trkpt>
      <trkpt lat="45.14703" lon="5.64278">
        <ele>1616</ele>
        <time>2014-06-28T08:24:55.000Z</time>
      </trkpt>
      <trkpt lat="45.14703" lon="5.64278">
        <ele>1616</ele>
        <time>2014-06-28T08:24:56.000Z</time>
      </trkpt>
      <trkpt lat="45.14703" lon="5.64279">
        <ele>1616</ele>
        <time>2014-06-28T08:24:57.000Z</time>
      </trkpt>
      <trkpt lat="45.14703" lon="5.64279">
        <ele>1617</ele>
        <time>2014-06-28T08:24:58.000Z</time>
      </trkpt>
      <trkpt lat="45.14703" lon="5.64279">
        <ele>1617</ele>
        <time>2014-06-28T08:24:59.000Z</time>
      </trkpt>
      <trkpt lat="45.14703" lon="5.64279">
        <ele>1617</ele>
        <time>2014-06-28T08:25:00.000Z</time>
      </trkpt>
      <trkpt lat="45.14703" lon="5.64279">
        <ele>1617</ele>
        <time>2014-06-28T08:25:01.000Z</time>
      </trkpt>
      <trkpt lat="45.14703" lon="5.64279">
        <ele>1617</ele>
        <time>2014-06-28T08:25:02.000Z</time>
      </trkpt>
      <trkpt lat="45.14703" lon="5.64279">
        <ele>1617</ele>
        <time>2014-06-28T08:25:03.000Z</time>
      </trkpt>
      <trkpt lat="45.14703" lon="5.64279">
        <ele>1617</ele>
        <time>2014-06-28T08:25:04.000Z</time>
      </trkpt>
      <trkpt lat="45.14703" lon="5.64279">
        <ele>1617</ele>
        <time>2014-06-28T08:25:05.000Z</time>
      </trkpt>
      <trkpt lat="45.14703" lon="5.64279">
        <ele>1617</ele>
        <time>2014-06-28T08:25:06.000Z</time>
      </trkpt>
      <trkpt lat="45.14703" lon="5.64279">
        <ele>1617</ele>
        <time>2014-06-28T08:25:07.000Z</time>
      </trkpt>
      <trkpt lat="45.14702" lon="5.64279">
        <ele>1617</ele>
        <time>2014-06-28T08:25:08.000Z</time>
      </trkpt>
      <trkpt lat="45.14703" lon="5.64278">
        <ele>1617</ele>
        <time>2014-06-28T08:25:09.000Z</time>
      </trkpt>
      <trkpt lat="45.14703" lon="5.64277">
        <ele>1617</ele>
        <time>2014-06-28T08:25:10.000Z</time>
      </trkpt>
      <trkpt lat="45.14702" lon="5.64276">
        <ele>1617</ele>
        <time>2014-06-28T08:25:11.000Z</time>
      </trkpt>
      <trkpt lat="45.14702" lon="5.64276">
        <ele>1617</ele>
        <time>2014-06-28T08:25:12.000Z</time>
      </trkpt>
      <trkpt lat="45.14702" lon="5.64276">
        <ele>1617</ele>
        <time>2014-06-28T08:25:13.000Z</time>
      </trkpt>
      <trkpt lat="45.14702" lon="5.64276">
        <ele>1617</ele>
        <time>2014-06-28T08:25:14.000Z</time>
      </trkpt>
      <trkpt lat="45.14702" lon="5.64275">
        <ele>1618</ele>
        <time>2014-06-28T08:25:15.000Z</time>
      </trkpt>
      <trkpt lat="45.14702" lon="5.64274">
        <ele>1618</ele>
        <time>2014-06-28T08:25:16.000Z</time>
      </trkpt>
      <trkpt lat="45.14701" lon="5.64273">
        <ele>1618</ele>
        <time>2014-06-28T08:25:17.000Z</time>
      </trkpt>
      <trkpt lat="45.14701" lon="5.64272">
        <ele>1618</ele>
        <time>2014-06-28T08:25:18.000Z</time>
      </trkpt>
      <trkpt lat="45.147" lon="5.64271">
        <ele>1618</ele>
        <time>2014-06-28T08:25:19.000Z</time>
      </trkpt>
      <trkpt lat="45.147" lon="5.64269">
        <ele>1618</ele>
        <time>2014-06-28T08:25:20.000Z</time>
      </trkpt>
      <trkpt lat="45.147" lon="5.64268">
        <ele>1618</ele>
        <time>2014-06-28T08:25:21.000Z</time>
      </trkpt>
      <trkpt lat="45.147" lon="5.64267">
        <ele>1618</ele>
        <time>2014-06-28T08:25:22.000Z</time>
      </trkpt>
      <trkpt lat="45.147" lon="5.64265">
        <ele>1619</ele>
        <time>2014-06-28T08:25:23.000Z</time>
      </trkpt>
      <trkpt lat="45.147" lon="5.64264">
        <ele>1619</ele>
        <time>2014-06-28T08:25:24.000Z</time>
      </trkpt>
      <trkpt lat="45.147" lon="5.64263">
        <ele>1619</ele>
        <time>2014-06-28T08:25:25.000Z</time>
      </trkpt>
      <trkpt lat="45.147" lon="5.64262">
        <ele>1619</ele>
        <time>2014-06-28T08:25:26.000Z</time>
      </trkpt>
      <trkpt lat="45.14699" lon="5.64261">
        <ele>1619</ele>
        <time>2014-06-28T08:25:27.000Z</time>
      </trkpt>
      <trkpt lat="45.14699" lon="5.6426">
        <ele>1619</ele>
        <time>2014-06-28T08:25:28.000Z</time>
      </trkpt>
      <trkpt lat="45.14699" lon="5.64259">
        <ele>1619</ele>
        <time>2014-06-28T08:25:29.000Z</time>
      </trkpt>
      <trkpt lat="45.14698" lon="5.64258">
        <ele>1619</ele>
        <time>2014-06-28T08:25:30.000Z</time>
      </trkpt>
      <trkpt lat="45.14697" lon="5.64258">
        <ele>1619</ele>
        <time>2014-06-28T08:25:31.000Z</time>
      </trkpt>
      <trkpt lat="45.14696" lon="5.64258">
        <ele>1620</ele>
        <time>2014-06-28T08:25:32.000Z</time>
      </trkpt>
      <trkpt lat="45.14695" lon="5.64257">
        <ele>1620</ele>
        <time>2014-06-28T08:25:33.000Z</time>
      </trkpt>
      <trkpt lat="45.14694" lon="5.64257">
        <ele>1620</ele>
        <time>2014-06-28T08:25:34.000Z</time>
      </trkpt>
      <trkpt lat="45.14693" lon="5.64256">
        <ele>1620</ele>
        <time>2014-06-28T08:25:35.000Z</time>
      </trkpt>
      <trkpt lat="45.14692" lon="5.64255">
        <ele>1620</ele>
        <time>2014-06-28T08:25:36.000Z</time>
      </trkpt>
      <trkpt lat="45.14691" lon="5.64254">
        <ele>1620</ele>
        <time>2014-06-28T08:25:37.000Z</time>
      </trkpt>
      <trkpt lat="45.1469" lon="5.64253">
        <ele>1620</ele>
        <time>2014-06-28T08:25:38.000Z</time>
      </trkpt>
      <trkpt lat="45.14689" lon="5.64253">
        <ele>1620</ele>
        <time>2014-06-28T08:25:39.000Z</time>
      </trkpt>
      <trkpt lat="45.14689" lon="5.64252">
        <ele>1620</ele>
        <time>2014-06-28T08:25:40.000Z</time>
      </trkpt>
      <trkpt lat="45.14689" lon="5.64252">
        <ele>1620</ele>
        <time>2014-06-28T08:25:41.000Z</time>
      </trkpt>
      <trkpt lat="45.14689" lon="5.64252">
        <ele>1620</ele>
        <time>2014-06-28T08:25:42.000Z</time>
      </trkpt>
      <trkpt lat="45.14689" lon="5.64252">
        <ele>1620</ele>
        <time>2014-06-28T08:25:43.000Z</time>
      </trkpt>
      <trkpt lat="45.14688" lon="5.64252">
        <ele>1621</ele>
        <time>2014-06-28T08:25:44.000Z</time>
      </trkpt>
      <trkpt lat="45.14688" lon="5.64251">
        <ele>1621</ele>
        <time>2014-06-28T08:25:45.000Z</time>
      </trkpt>
      <trkpt lat="45.14687" lon="5.6425">
        <ele>1621</ele>
        <time>2014-06-28T08:25:46.000Z</time>
      </trkpt>
      <trkpt lat="45.14686" lon="5.6425">
        <ele>1621</ele>
        <time>2014-06-28T08:25:47.000Z</time>
      </trkpt>
      <trkpt lat="45.14686" lon="5.64249">
        <ele>1621</ele>
        <time>2014-06-28T08:25:48.000Z</time>
      </trkpt>
      <trkpt lat="45.14685" lon="5.64249">
        <ele>1621</ele>
        <time>2014-06-28T08:25:49.000Z</time>
      </trkpt>
      <trkpt lat="45.14683" lon="5.64248">
        <ele>1621</ele>
        <time>2014-06-28T08:25:50.000Z</time>
      </trkpt>
      <trkpt lat="45.14683" lon="5.64248">
        <ele>1621</ele>
        <time>2014-06-28T08:25:51.000Z</time>
      </trkpt>
      <trkpt lat="45.14681" lon="5.64247">
        <ele>1621</ele>
        <time>2014-06-28T08:25:52.000Z</time>
      </trkpt>
      <trkpt lat="45.1468" lon="5.64247">
        <ele>1621</ele>
        <time>2014-06-28T08:25:53.000Z</time>
      </trkpt>
      <trkpt lat="45.14678" lon="5.64247">
        <ele>1621</ele>
        <time>2014-06-28T08:25:54.000Z</time>
      </trkpt>
      <trkpt lat="45.14677" lon="5.64247">
        <ele>1621</ele>
        <time>2014-06-28T08:25:55.000Z</time>
      </trkpt>
      <trkpt lat="45.14676" lon="5.64247">
        <ele>1621</ele>
        <time>2014-06-28T08:25:56.000Z</time>
      </trkpt>
      <trkpt lat="45.14675" lon="5.64246">
        <ele>1621</ele>
        <time>2014-06-28T08:25:57.000Z</time>
      </trkpt>
      <trkpt lat="45.14674" lon="5.64246">
        <ele>1621</ele>
        <time>2014-06-28T08:25:58.000Z</time>
      </trkpt>
      <trkpt lat="45.14674" lon="5.64246">
        <ele>1621</ele>
        <time>2014-06-28T08:25:59.000Z</time>
      </trkpt>
      <trkpt lat="45.14673" lon="5.64246">
        <ele>1621</ele>
        <time>2014-06-28T08:26:00.000Z</time>
      </trkpt>
      <trkpt lat="45.14672" lon="5.64245">
        <ele>1621</ele>
        <time>2014-06-28T08:26:01.000Z</time>
      </trkpt>
      <trkpt lat="45.14672" lon="5.64245">
        <ele>1621</ele>
        <time>2014-06-28T08:26:02.000Z</time>
      </trkpt>
      <trkpt lat="45.14671" lon="5.64245">
        <ele>1621</ele>
        <time>2014-06-28T08:26:03.000Z</time>
      </trkpt>
      <trkpt lat="45.14671" lon="5.64245">
        <ele>1621</ele>
        <time>2014-06-28T08:26:04.000Z</time>
      </trkpt>
      <trkpt lat="45.14671" lon="5.64245">
        <ele>1621</ele>
        <time>2014-06-28T08:26:05.000Z</time>
      </trkpt>
      <trkpt lat="45.14671" lon="5.64245">
        <ele>1622</ele>
        <time>2014-06-28T08:26:06.000Z</time>
      </trkpt>
      <trkpt lat="45.14671" lon="5.64245">
        <ele>1622</ele>
        <time>2014-06-28T08:26:07.000Z</time>
      </trkpt>
      <trkpt lat="45.14671" lon="5.64245">
        <ele>1622</ele>
        <time>2014-06-28T08:26:08.000Z</time>
      </trkpt>
      <trkpt lat="45.14671" lon="5.64244">
        <ele>1622</ele>
        <time>2014-06-28T08:26:09.000Z</time>
      </trkpt>
      <trkpt lat="45.1467" lon="5.64244">
        <ele>1622</ele>
        <time>2014-06-28T08:26:10.000Z</time>
      </trkpt>
      <trkpt lat="45.1467" lon="5.64244">
        <ele>1622</ele>
        <time>2014-06-28T08:26:11.000Z</time>
      </trkpt>
      <trkpt lat="45.1467" lon="5.64244">
        <ele>1622</ele>
        <time>2014-06-28T08:26:12.000Z</time>
      </trkpt>
      <trkpt lat="45.1467" lon="5.64245">
        <ele>1622</ele>
        <time>2014-06-28T08:26:13.000Z</time>
      </trkpt>
      <trkpt lat="45.14669" lon="5.64245">
        <ele>1622</ele>
        <time>2014-06-28T08:26:14.000Z</time>
      </trkpt>
      <trkpt lat="45.14669" lon="5.64245">
        <ele>1622</ele>
        <time>2014-06-28T08:26:15.000Z</time>
      </trkpt>
      <trkpt lat="45.14668" lon="5.64245">
        <ele>1622</ele>
        <time>2014-06-28T08:26:16.000Z</time>
      </trkpt>
      <trkpt lat="45.14668" lon="5.64245">
        <ele>1622</ele>
        <time>2014-06-28T08:26:17.000Z</time>
      </trkpt>
      <trkpt lat="45.14667" lon="5.64246">
        <ele>1622</ele>
        <time>2014-06-28T08:26:18.000Z</time>
      </trkpt>
      <trkpt lat="45.14667" lon="5.64246">
        <ele>1622</ele>
        <time>2014-06-28T08:26:19.000Z</time>
      </trkpt>
      <trkpt lat="45.14667" lon="5.64246">
        <ele>1622</ele>
        <time>2014-06-28T08:26:20.000Z</time>
      </trkpt>
      <trkpt lat="45.14666" lon="5.64246">
        <ele>1622</ele>
        <time>2014-06-28T08:26:21.000Z</time>
      </trkpt>
      <trkpt lat="45.14666" lon="5.64246">
        <ele>1622</ele>
        <time>2014-06-28T08:26:22.000Z</time>
      </trkpt>
      <trkpt lat="45.14666" lon="5.64246">
        <ele>1622</ele>
        <time>2014-06-28T08:26:23.000Z</time>
      </trkpt>
      <trkpt lat="45.14665" lon="5.64247">
        <ele>1623</ele>
        <time>2014-06-28T08:26:24.000Z</time>
      </trkpt>
      <trkpt lat="45.14665" lon="5.64247">
        <ele>1623</ele>
        <time>2014-06-28T08:26:25.000Z</time>
      </trkpt>
      <trkpt lat="45.14665" lon="5.64247">
        <ele>1623</ele>
        <time>2014-06-28T08:26:26.000Z</time>
      </trkpt>
      <trkpt lat="45.14664" lon="5.64247">
        <ele>1623</ele>
        <time>2014-06-28T08:26:27.000Z</time>
      </trkpt>
      <trkpt lat="45.14664" lon="5.64247">
        <ele>1623</ele>
        <time>2014-06-28T08:26:28.000Z</time>
      </trkpt>
      <trkpt lat="45.14664" lon="5.64247">
        <ele>1623</ele>
        <time>2014-06-28T08:26:29.000Z</time>
      </trkpt>
      <trkpt lat="45.14664" lon="5.64247">
        <ele>1623</ele>
        <time>2014-06-28T08:26:30.000Z</time>
      </trkpt>
      <trkpt lat="45.14663" lon="5.64246">
        <ele>1623</ele>
        <time>2014-06-28T08:26:31.000Z</time>
      </trkpt>
      <trkpt lat="45.14663" lon="5.64246">
        <ele>1623</ele>
        <time>2014-06-28T08:26:32.000Z</time>
      </trkpt>
      <trkpt lat="45.14663" lon="5.64245">
        <ele>1623</ele>
        <time>2014-06-28T08:26:33.000Z</time>
      </trkpt>
      <trkpt lat="45.14663" lon="5.64245">
        <ele>1623</ele>
        <time>2014-06-28T08:26:34.000Z</time>
      </trkpt>
      <trkpt lat="45.14662" lon="5.64245">
        <ele>1623</ele>
        <time>2014-06-28T08:26:35.000Z</time>
      </trkpt>
      <trkpt lat="45.14662" lon="5.64245">
        <ele>1623</ele>
        <time>2014-06-28T08:26:36.000Z</time>
      </trkpt>
      <trkpt lat="45.14661" lon="5.64245">
        <ele>1623</ele>
        <time>2014-06-28T08:26:37.000Z</time>
      </trkpt>
      <trkpt lat="45.14661" lon="5.64244">
        <ele>1623</ele>
        <time>2014-06-28T08:26:38.000Z</time>
      </trkpt>
      <trkpt lat="45.14661" lon="5.64244">
        <ele>1623</ele>
        <time>2014-06-28T08:26:39.000Z</time>
      </trkpt>
      <trkpt lat="45.14661" lon="5.64244">
        <ele>1623</ele>
        <time>2014-06-28T08:26:40.000Z</time>
      </trkpt>
      <trkpt lat="45.14661" lon="5.64243">
        <ele>1623</ele>
        <time>2014-06-28T08:26:41.000Z</time>
      </trkpt>
      <trkpt lat="45.14661" lon="5.64243">
        <ele>1623</ele>
        <time>2014-06-28T08:26:42.000Z</time>
      </trkpt>
      <trkpt lat="45.14661" lon="5.64243">
        <ele>1623</ele>
        <time>2014-06-28T08:26:43.000Z</time>
      </trkpt>
      <trkpt lat="45.14661" lon="5.64243">
        <ele>1623</ele>
        <time>2014-06-28T08:26:44.000Z</time>
      </trkpt>
      <trkpt lat="45.14661" lon="5.64243">
        <ele>1623</ele>
        <time>2014-06-28T08:26:45.000Z</time>
      </trkpt>
      <trkpt lat="45.14662" lon="5.64243">
        <ele>1623</ele>
        <time>2014-06-28T08:26:46.000Z</time>
      </trkpt>
      <trkpt lat="45.14662" lon="5.64243">
        <ele>1623</ele>
        <time>2014-06-28T08:26:47.000Z</time>
      </trkpt>
      <trkpt lat="45.14662" lon="5.64243">
        <ele>1623</ele>
        <time>2014-06-28T08:26:48.000Z</time>
      </trkpt>
      <trkpt lat="45.14661" lon="5.64243">
        <ele>1623</ele>
        <time>2014-06-28T08:26:49.000Z</time>
      </trkpt>
      <trkpt lat="45.14661" lon="5.64243">
        <ele>1623</ele>
        <time>2014-06-28T08:26:50.000Z</time>
      </trkpt>
      <trkpt lat="45.1466" lon="5.64244">
        <ele>1623</ele>
        <time>2014-06-28T08:26:51.000Z</time>
      </trkpt>
      <trkpt lat="45.14659" lon="5.64243">
        <ele>1624</ele>
        <time>2014-06-28T08:26:52.000Z</time>
      </trkpt>
      <trkpt lat="45.14659" lon="5.64243">
        <ele>1624</ele>
        <time>2014-06-28T08:26:53.000Z</time>
      </trkpt>
      <trkpt lat="45.14658" lon="5.64243">
        <ele>1624</ele>
        <time>2014-06-28T08:26:54.000Z</time>
      </trkpt>
      <trkpt lat="45.14658" lon="5.64243">
        <ele>1624</ele>
        <time>2014-06-28T08:26:55.000Z</time>
      </trkpt>
      <trkpt lat="45.14657" lon="5.64243">
        <ele>1624</ele>
        <time>2014-06-28T08:26:56.000Z</time>
      </trkpt>
      <trkpt lat="45.14657" lon="5.64243">
        <ele>1624</ele>
        <time>2014-06-28T08:26:57.000Z</time>
      </trkpt>
      <trkpt lat="45.14656" lon="5.64243">
        <ele>1624</ele>
        <time>2014-06-28T08:26:58.000Z</time>
      </trkpt>
      <trkpt lat="45.14656" lon="5.64243">
        <ele>1624</ele>
        <time>2014-06-28T08:26:59.000Z</time>
      </trkpt>
      <trkpt lat="45.14655" lon="5.64243">
        <ele>1624</ele>
        <time>2014-06-28T08:27:00.000Z</time>
      </trkpt>
      <trkpt lat="45.14655" lon="5.64244">
        <ele>1625</ele>
        <time>2014-06-28T08:27:01.000Z</time>
      </trkpt>
      <trkpt lat="45.14654" lon="5.64244">
        <ele>1625</ele>
        <time>2014-06-28T08:27:02.000Z</time>
      </trkpt>
      <trkpt lat="45.14653" lon="5.64244">
        <ele>1625</ele>
        <time>2014-06-28T08:27:03.000Z</time>
      </trkpt>
      <trkpt lat="45.14653" lon="5.64244">
        <ele>1625</ele>
        <time>2014-06-28T08:27:04.000Z</time>
      </trkpt>
      <trkpt lat="45.14652" lon="5.64244">
        <ele>1626</ele>
        <time>2014-06-28T08:27:05.000Z</time>
      </trkpt>
      <trkpt lat="45.14652" lon="5.64244">
        <ele>1626</ele>
        <time>2014-06-28T08:27:06.000Z</time>
      </trkpt>
      <trkpt lat="45.14652" lon="5.64244">
        <ele>1626</ele>
        <time>2014-06-28T08:27:07.000Z</time>
      </trkpt>
      <trkpt lat="45.14652" lon="5.64244">
        <ele>1627</ele>
        <time>2014-06-28T08:27:08.000Z</time>
      </trkpt>
      <trkpt lat="45.14652" lon="5.64244">
        <ele>1627</ele>
        <time>2014-06-28T08:27:09.000Z</time>
      </trkpt>
      <trkpt lat="45.14652" lon="5.64243">
        <ele>1627</ele>
        <time>2014-06-28T08:27:10.000Z</time>
      </trkpt>
      <trkpt lat="45.14651" lon="5.64242">
        <ele>1628</ele>
        <time>2014-06-28T08:27:11.000Z</time>
      </trkpt>
      <trkpt lat="45.14651" lon="5.64242">
        <ele>1628</ele>
        <time>2014-06-28T08:27:12.000Z</time>
      </trkpt>
      <trkpt lat="45.14651" lon="5.64241">
        <ele>1628</ele>
        <time>2014-06-28T08:27:13.000Z</time>
      </trkpt>
      <trkpt lat="45.1465" lon="5.64241">
        <ele>1629</ele>
        <time>2014-06-28T08:27:14.000Z</time>
      </trkpt>
      <trkpt lat="45.1465" lon="5.64241">
        <ele>1629</ele>
        <time>2014-06-28T08:27:15.000Z</time>
      </trkpt>
      <trkpt lat="45.14649" lon="5.6424">
        <ele>1629</ele>
        <time>2014-06-28T08:27:16.000Z</time>
      </trkpt>
      <trkpt lat="45.14649" lon="5.6424">
        <ele>1630</ele>
        <time>2014-06-28T08:27:17.000Z</time>
      </trkpt>
      <trkpt lat="45.14649" lon="5.6424">
        <ele>1630</ele>
        <time>2014-06-28T08:27:18.000Z</time>
      </trkpt>
      <trkpt lat="45.14649" lon="5.64239">
        <ele>1630</ele>
        <time>2014-06-28T08:27:19.000Z</time>
      </trkpt>
      <trkpt lat="45.1465" lon="5.64239">
        <ele>1631</ele>
        <time>2014-06-28T08:27:20.000Z</time>
      </trkpt>
      <trkpt lat="45.1465" lon="5.64239">
        <ele>1631</ele>
        <time>2014-06-28T08:27:21.000Z</time>
      </trkpt>
      <trkpt lat="45.1465" lon="5.64239">
        <ele>1631</ele>
        <time>2014-06-28T08:27:22.000Z</time>
      </trkpt>
      <trkpt lat="45.1465" lon="5.64239">
        <ele>1632</ele>
        <time>2014-06-28T08:27:23.000Z</time>
      </trkpt>
      <trkpt lat="45.1465" lon="5.64239">
        <ele>1632</ele>
        <time>2014-06-28T08:27:24.000Z</time>
      </trkpt>
      <trkpt lat="45.14649" lon="5.64238">
        <ele>1632</ele>
        <time>2014-06-28T08:27:25.000Z</time>
      </trkpt>
      <trkpt lat="45.14649" lon="5.64238">
        <ele>1632</ele>
        <time>2014-06-28T08:27:26.000Z</time>
      </trkpt>
      <trkpt lat="45.14649" lon="5.64237">
        <ele>1633</ele>
        <time>2014-06-28T08:27:27.000Z</time>
      </trkpt>
      <trkpt lat="45.14648" lon="5.64237">
        <ele>1633</ele>
        <time>2014-06-28T08:27:28.000Z</time>
      </trkpt>
      <trkpt lat="45.14649" lon="5.64237">
        <ele>1633</ele>
        <time>2014-06-28T08:27:29.000Z</time>
      </trkpt>
      <trkpt lat="45.14649" lon="5.64236">
        <ele>1633</ele>
        <time>2014-06-28T08:27:30.000Z</time>
      </trkpt>
      <trkpt lat="45.14649" lon="5.64236">
        <ele>1633</ele>
        <time>2014-06-28T08:27:31.000Z</time>
      </trkpt>
      <trkpt lat="45.14649" lon="5.64236">
        <ele>1634</ele>
        <time>2014-06-28T08:27:32.000Z</time>
      </trkpt>
      <trkpt lat="45.14649" lon="5.64236">
        <ele>1634</ele>
        <time>2014-06-28T08:27:33.000Z</time>
      </trkpt>
      <trkpt lat="45.14649" lon="5.64235">
        <ele>1634</ele>
        <time>2014-06-28T08:27:34.000Z</time>
      </trkpt>
      <trkpt lat="45.14649" lon="5.64235">
        <ele>1634</ele>
        <time>2014-06-28T08:27:35.000Z</time>
      </trkpt>
      <trkpt lat="45.14648" lon="5.64234">
        <ele>1634</ele>
        <time>2014-06-28T08:27:36.000Z</time>
      </trkpt>
      <trkpt lat="45.14649" lon="5.64234">
        <ele>1634</ele>
        <time>2014-06-28T08:27:37.000Z</time>
      </trkpt>
      <trkpt lat="45.14649" lon="5.64233">
        <ele>1634</ele>
        <time>2014-06-28T08:27:38.000Z</time>
      </trkpt>
      <trkpt lat="45.14649" lon="5.64233">
        <ele>1634</ele>
        <time>2014-06-28T08:27:39.000Z</time>
      </trkpt>
      <trkpt lat="45.1465" lon="5.64232">
        <ele>1634</ele>
        <time>2014-06-28T08:27:40.000Z</time>
      </trkpt>
      <trkpt lat="45.1465" lon="5.64232">
        <ele>1635</ele>
        <time>2014-06-28T08:27:41.000Z</time>
      </trkpt>
      <trkpt lat="45.14651" lon="5.64232">
        <ele>1635</ele>
        <time>2014-06-28T08:27:42.000Z</time>
      </trkpt>
      <trkpt lat="45.14651" lon="5.64231">
        <ele>1635</ele>
        <time>2014-06-28T08:27:43.000Z</time>
      </trkpt>
      <trkpt lat="45.14651" lon="5.64231">
        <ele>1635</ele>
        <time>2014-06-28T08:27:44.000Z</time>
      </trkpt>
      <trkpt lat="45.14651" lon="5.6423">
        <ele>1635</ele>
        <time>2014-06-28T08:27:45.000Z</time>
      </trkpt>
      <trkpt lat="45.14651" lon="5.6423">
        <ele>1635</ele>
        <time>2014-06-28T08:27:46.000Z</time>
      </trkpt>
      <trkpt lat="45.14651" lon="5.6423">
        <ele>1635</ele>
        <time>2014-06-28T08:27:47.000Z</time>
      </trkpt>
      <trkpt lat="45.14651" lon="5.64229">
        <ele>1636</ele>
        <time>2014-06-28T08:27:48.000Z</time>
      </trkpt>
      <trkpt lat="45.14651" lon="5.64229">
        <ele>1636</ele>
        <time>2014-06-28T08:27:49.000Z</time>
      </trkpt>
      <trkpt lat="45.14651" lon="5.64229">
        <ele>1636</ele>
        <time>2014-06-28T08:27:50.000Z</time>
      </trkpt>
      <trkpt lat="45.14651" lon="5.64229">
        <ele>1636</ele>
        <time>2014-06-28T08:27:51.000Z</time>
      </trkpt>
      <trkpt lat="45.14651" lon="5.64229">
        <ele>1636</ele>
        <time>2014-06-28T08:27:52.000Z</time>
      </trkpt>
      <trkpt lat="45.14651" lon="5.64229">
        <ele>1637</ele>
        <time>2014-06-28T08:27:53.000Z</time>
      </trkpt>
      <trkpt lat="45.14651" lon="5.64229">
        <ele>1637</ele>
        <time>2014-06-28T08:27:54.000Z</time>
      </trkpt>
      <trkpt lat="45.14651" lon="5.64229">
        <ele>1637</ele>
        <time>2014-06-28T08:27:55.000Z</time>
      </trkpt>
      <trkpt lat="45.14651" lon="5.64229">
        <ele>1637</ele>
        <time>2014-06-28T08:27:56.000Z</time>
      </trkpt>
      <trkpt lat="45.14651" lon="5.64229">
        <ele>1637</ele>
        <time>2014-06-28T08:27:57.000Z</time>
      </trkpt>
      <trkpt lat="45.14651" lon="5.64229">
        <ele>1637</ele>
        <time>2014-06-28T08:27:58.000Z</time>
      </trkpt>
      <trkpt lat="45.1465" lon="5.64229">
        <ele>1637</ele>
        <time>2014-06-28T08:27:59.000Z</time>
      </trkpt>
      <trkpt lat="45.1465" lon="5.64229">
        <ele>1637</ele>
        <time>2014-06-28T08:28:00.000Z</time>
      </trkpt>
      <trkpt lat="45.14649" lon="5.64229">
        <ele>1637</ele>
        <time>2014-06-28T08:28:01.000Z</time>
      </trkpt>
      <trkpt lat="45.14649" lon="5.64229">
        <ele>1638</ele>
        <time>2014-06-28T08:28:02.000Z</time>
      </trkpt>
      <trkpt lat="45.14649" lon="5.6423">
        <ele>1638</ele>
        <time>2014-06-28T08:28:03.000Z</time>
      </trkpt>
      <trkpt lat="45.14648" lon="5.6423">
        <ele>1638</ele>
        <time>2014-06-28T08:28:04.000Z</time>
      </trkpt>
      <trkpt lat="45.14648" lon="5.6423">
        <ele>1638</ele>
        <time>2014-06-28T08:28:05.000Z</time>
      </trkpt>
      <trkpt lat="45.14647" lon="5.6423">
        <ele>1638</ele>
        <time>2014-06-28T08:28:06.000Z</time>
      </trkpt>
      <trkpt lat="45.14647" lon="5.64229">
        <ele>1638</ele>
        <time>2014-06-28T08:28:07.000Z</time>
      </trkpt>
      <trkpt lat="45.14647" lon="5.64229">
        <ele>1639</ele>
        <time>2014-06-28T08:28:08.000Z</time>
      </trkpt>
      <trkpt lat="45.14647" lon="5.64228">
        <ele>1639</ele>
        <time>2014-06-28T08:28:09.000Z</time>
      </trkpt>
      <trkpt lat="45.14647" lon="5.64228">
        <ele>1639</ele>
        <time>2014-06-28T08:28:10.000Z</time>
      </trkpt>
      <trkpt lat="45.14647" lon="5.64228">
        <ele>1639</ele>
        <time>2014-06-28T08:28:11.000Z</time>
      </trkpt>
      <trkpt lat="45.14647" lon="5.64228">
        <ele>1639</ele>
        <time>2014-06-28T08:28:12.000Z</time>
      </trkpt>
      <trkpt lat="45.14647" lon="5.64228">
        <ele>1639</ele>
        <time>2014-06-28T08:28:13.000Z</time>
      </trkpt>
      <trkpt lat="45.14646" lon="5.64228">
        <ele>1639</ele>
        <time>2014-06-28T08:28:14.000Z</time>
      </trkpt>
      <trkpt lat="45.14646" lon="5.64228">
        <ele>1639</ele>
        <time>2014-06-28T08:28:15.000Z</time>
      </trkpt>
      <trkpt lat="45.14646" lon="5.64228">
        <ele>1639</ele>
        <time>2014-06-28T08:28:16.000Z</time>
      </trkpt>
      <trkpt lat="45.14646" lon="5.64228">
        <ele>1640</ele>
        <time>2014-06-28T08:28:17.000Z</time>
      </trkpt>
      <trkpt lat="45.14646" lon="5.64228">
        <ele>1640</ele>
        <time>2014-06-28T08:28:18.000Z</time>
      </trkpt>
      <trkpt lat="45.14646" lon="5.64228">
        <ele>1640</ele>
        <time>2014-06-28T08:28:19.000Z</time>
      </trkpt>
      <trkpt lat="45.14646" lon="5.64228">
        <ele>1640</ele>
        <time>2014-06-28T08:28:20.000Z</time>
      </trkpt>
      <trkpt lat="45.14646" lon="5.64228">
        <ele>1640</ele>
        <time>2014-06-28T08:28:21.000Z</time>
      </trkpt>
      <trkpt lat="45.14646" lon="5.64228">
        <ele>1640</ele>
        <time>2014-06-28T08:28:22.000Z</time>
      </trkpt>
      <trkpt lat="45.14646" lon="5.64228">
        <ele>1640</ele>
        <time>2014-06-28T08:28:23.000Z</time>
      </trkpt>
      <trkpt lat="45.14646" lon="5.64228">
        <ele>1640</ele>
        <time>2014-06-28T08:28:24.000Z</time>
      </trkpt>
      <trkpt lat="45.14646" lon="5.64228">
        <ele>1640</ele>
        <time>2014-06-28T08:28:25.000Z</time>
      </trkpt>
      <trkpt lat="45.14646" lon="5.64228">
        <ele>1640</ele>
        <time>2014-06-28T08:28:26.000Z</time>
      </trkpt>
      <trkpt lat="45.14646" lon="5.64228">
        <ele>1640</ele>
        <time>2014-06-28T08:28:27.000Z</time>
      </trkpt>
      <trkpt lat="45.14646" lon="5.64227">
        <ele>1640</ele>
        <time>2014-06-28T08:28:28.000Z</time>
      </trkpt>
      <trkpt lat="45.14646" lon="5.64227">
        <ele>1640</ele>
        <time>2014-06-28T08:28:29.000Z</time>
      </trkpt>
      <trkpt lat="45.14646" lon="5.64227">
        <ele>1640</ele>
        <time>2014-06-28T08:28:30.000Z</time>
      </trkpt>
      <trkpt lat="45.14646" lon="5.64227">
        <ele>1640</ele>
        <time>2014-06-28T08:28:31.000Z</time>
      </trkpt>
      <trkpt lat="45.14646" lon="5.64227">
        <ele>1640</ele>
        <time>2014-06-28T08:28:32.000Z</time>
      </trkpt>
      <trkpt lat="45.14646" lon="5.64227">
        <ele>1640</ele>
        <time>2014-06-28T08:28:33.000Z</time>
      </trkpt>
      <trkpt lat="45.14646" lon="5.64227">
        <ele>1640</ele>
        <time>2014-06-28T08:28:34.000Z</time>
      </trkpt>
      <trkpt lat="45.14646" lon="5.64227">
        <ele>1640</ele>
        <time>2014-06-28T08:28:35.000Z</time>
      </trkpt>
      <trkpt lat="45.14646" lon="5.64227">
        <ele>1640</ele>
        <time>2014-06-28T08:28:36.000Z</time>
      </trkpt>
      <trkpt lat="45.14646" lon="5.64227">
        <ele>1640</ele>
        <time>2014-06-28T08:28:37.000Z</time>
      </trkpt>
      <trkpt lat="45.14645" lon="5.64228">
        <ele>1640</ele>
        <time>2014-06-28T08:28:38.000Z</time>
      </trkpt>
      <trkpt lat="45.14645" lon="5.64228">
        <ele>1640</ele>
        <time>2014-06-28T08:28:39.000Z</time>
      </trkpt>
      <trkpt lat="45.14645" lon="5.64228">
        <ele>1641</ele>
        <time>2014-06-28T08:28:40.000Z</time>
      </trkpt>
      <trkpt lat="45.14645" lon="5.64228">
        <ele>1641</ele>
        <time>2014-06-28T08:28:41.000Z</time>
      </trkpt>
      <trkpt lat="45.14644" lon="5.64227">
        <ele>1641</ele>
        <time>2014-06-28T08:28:42.000Z</time>
      </trkpt>
      <trkpt lat="45.14643" lon="5.64228">
        <ele>1642</ele>
        <time>2014-06-28T08:28:43.000Z</time>
      </trkpt>
      <trkpt lat="45.14643" lon="5.64228">
        <ele>1642</ele>
        <time>2014-06-28T08:28:44.000Z</time>
      </trkpt>
      <trkpt lat="45.14643" lon="5.64228">
        <ele>1643</ele>
        <time>2014-06-28T08:28:45.000Z</time>
      </trkpt>
      <trkpt lat="45.14644" lon="5.64229">
        <ele>1643</ele>
        <time>2014-06-28T08:28:46.000Z</time>
      </trkpt>
      <trkpt lat="45.14643" lon="5.64229">
        <ele>1644</ele>
        <time>2014-06-28T08:28:47.000Z</time>
      </trkpt>
      <trkpt lat="45.14643" lon="5.64228">
        <ele>1644</ele>
        <time>2014-06-28T08:28:48.000Z</time>
      </trkpt>
      <trkpt lat="45.14643" lon="5.64228">
        <ele>1645</ele>
        <time>2014-06-28T08:28:49.000Z</time>
      </trkpt>
      <trkpt lat="45.14644" lon="5.64228">
        <ele>1645</ele>
        <time>2014-06-28T08:28:50.000Z</time>
      </trkpt>
      <trkpt lat="45.14644" lon="5.64228">
        <ele>1645</ele>
        <time>2014-06-28T08:28:51.000Z</time>
      </trkpt>
      <trkpt lat="45.14644" lon="5.64228">
        <ele>1646</ele>
        <time>2014-06-28T08:28:52.000Z</time>
      </trkpt>
      <trkpt lat="45.14644" lon="5.64228">
        <ele>1646</ele>
        <time>2014-06-28T08:28:53.000Z</time>
      </trkpt>
      <trkpt lat="45.14644" lon="5.64228">
        <ele>1647</ele>
        <time>2014-06-28T08:28:54.000Z</time>
      </trkpt>
      <trkpt lat="45.14644" lon="5.64227">
        <ele>1647</ele>
        <time>2014-06-28T08:28:55.000Z</time>
      </trkpt>
      <trkpt lat="45.14644" lon="5.64227">
        <ele>1647</ele>
        <time>2014-06-28T08:28:56.000Z</time>
      </trkpt>
      <trkpt lat="45.14644" lon="5.64227">
        <ele>1648</ele>
        <time>2014-06-28T08:28:57.000Z</time>
      </trkpt>
      <trkpt lat="45.14644" lon="5.64226">
        <ele>1648</ele>
        <time>2014-06-28T08:28:58.000Z</time>
      </trkpt>
      <trkpt lat="45.14645" lon="5.64226">
        <ele>1648</ele>
        <time>2014-06-28T08:28:59.000Z</time>
      </trkpt>
      <trkpt lat="45.14645" lon="5.64225">
        <ele>1648</ele>
        <time>2014-06-28T08:29:00.000Z</time>
      </trkpt>
      <trkpt lat="45.14645" lon="5.64225">
        <ele>1649</ele>
        <time>2014-06-28T08:29:01.000Z</time>
      </trkpt>
      <trkpt lat="45.14645" lon="5.64224">
        <ele>1649</ele>
        <time>2014-06-28T08:29:02.000Z</time>
      </trkpt>
      <trkpt lat="45.14646" lon="5.64224">
        <ele>1650</ele>
        <time>2014-06-28T08:29:03.000Z</time>
      </trkpt>
      <trkpt lat="45.14646" lon="5.64224">
        <ele>1650</ele>
        <time>2014-06-28T08:29:04.000Z</time>
      </trkpt>
      <trkpt lat="45.14647" lon="5.64224">
        <ele>1650</ele>
        <time>2014-06-28T08:29:05.000Z</time>
      </trkpt>
      <trkpt lat="45.14648" lon="5.64223">
        <ele>1651</ele>
        <time>2014-06-28T08:29:06.000Z</time>
      </trkpt>
      <trkpt lat="45.14648" lon="5.64223">
        <ele>1651</ele>
        <time>2014-06-28T08:29:07.000Z</time>
      </trkpt>
      <trkpt lat="45.14649" lon="5.64223">
        <ele>1651</ele>
        <time>2014-06-28T08:29:08.000Z</time>
      </trkpt>
      <trkpt lat="45.14649" lon="5.64223">
        <ele>1652</ele>
        <time>2014-06-28T08:29:09.000Z</time>
      </trkpt>
      <trkpt lat="45.1465" lon="5.64222">
        <ele>1652</ele>
        <time>2014-06-28T08:29:10.000Z</time>
      </trkpt>
      <trkpt lat="45.1465" lon="5.64222">
        <ele>1652</ele>
        <time>2014-06-28T08:29:11.000Z</time>
      </trkpt>
      <trkpt lat="45.1465" lon="5.64221">
        <ele>1652</ele>
        <time>2014-06-28T08:29:12.000Z</time>
      </trkpt>
      <trkpt lat="45.14651" lon="5.64221">
        <ele>1653</ele>
        <time>2014-06-28T08:29:13.000Z</time>
      </trkpt>
      <trkpt lat="45.14651" lon="5.6422">
        <ele>1653</ele>
        <time>2014-06-28T08:29:14.000Z</time>
      </trkpt>
      <trkpt lat="45.14651" lon="5.6422">
        <ele>1653</ele>
        <time>2014-06-28T08:29:15.000Z</time>
      </trkpt>
      <trkpt lat="45.14651" lon="5.64219">
        <ele>1653</ele>
        <time>2014-06-28T08:29:16.000Z</time>
      </trkpt>
      <trkpt lat="45.14651" lon="5.64219">
        <ele>1653</ele>
        <time>2014-06-28T08:29:17.000Z</time>
      </trkpt>
      <trkpt lat="45.14651" lon="5.64218">
        <ele>1654</ele>
        <time>2014-06-28T08:29:18.000Z</time>
      </trkpt>
      <trkpt lat="45.1465" lon="5.64218">
        <ele>1654</ele>
        <time>2014-06-28T08:29:19.000Z</time>
      </trkpt>
      <trkpt lat="45.1465" lon="5.64217">
        <ele>1654</ele>
        <time>2014-06-28T08:29:20.000Z</time>
      </trkpt>
      <trkpt lat="45.1465" lon="5.64217">
        <ele>1654</ele>
        <time>2014-06-28T08:29:21.000Z</time>
      </trkpt>
      <trkpt lat="45.14649" lon="5.64217">
        <ele>1654</ele>
        <time>2014-06-28T08:29:22.000Z</time>
      </trkpt>
      <trkpt lat="45.14649" lon="5.64217">
        <ele>1654</ele>
        <time>2014-06-28T08:29:23.000Z</time>
      </trkpt>
      <trkpt lat="45.14649" lon="5.64217">
        <ele>1655</ele>
        <time>2014-06-28T08:29:24.000Z</time>
      </trkpt>
      <trkpt lat="45.14649" lon="5.64217">
        <ele>1656</ele>
        <time>2014-06-28T08:29:25.000Z</time>
      </trkpt>
      <trkpt lat="45.14649" lon="5.64217">
        <ele>1656</ele>
        <time>2014-06-28T08:29:26.000Z</time>
      </trkpt>
      <trkpt lat="45.14649" lon="5.64216">
        <ele>1657</ele>
        <time>2014-06-28T08:29:27.000Z</time>
      </trkpt>
      <trkpt lat="45.14649" lon="5.64216">
        <ele>1657</ele>
        <time>2014-06-28T08:29:28.000Z</time>
      </trkpt>
      <trkpt lat="45.14649" lon="5.64216">
        <ele>1658</ele>
        <time>2014-06-28T08:29:29.000Z</time>
      </trkpt>
      <trkpt lat="45.14649" lon="5.64215">
        <ele>1659</ele>
        <time>2014-06-28T08:29:30.000Z</time>
      </trkpt>
      <trkpt lat="45.14648" lon="5.64215">
        <ele>1659</ele>
        <time>2014-06-28T08:29:31.000Z</time>
      </trkpt>
      <trkpt lat="45.14648" lon="5.64215">
        <ele>1660</ele>
        <time>2014-06-28T08:29:32.000Z</time>
      </trkpt>
      <trkpt lat="45.14648" lon="5.64214">
        <ele>1660</ele>
        <time>2014-06-28T08:29:33.000Z</time>
      </trkpt>
      <trkpt lat="45.14648" lon="5.64214">
        <ele>1661</ele>
        <time>2014-06-28T08:29:34.000Z</time>
      </trkpt>
      <trkpt lat="45.14647" lon="5.64214">
        <ele>1661</ele>
        <time>2014-06-28T08:29:35.000Z</time>
      </trkpt>
      <trkpt lat="45.14647" lon="5.64213">
        <ele>1662</ele>
        <time>2014-06-28T08:29:36.000Z</time>
      </trkpt>
      <trkpt lat="45.14646" lon="5.64213">
        <ele>1662</ele>
        <time>2014-06-28T08:29:37.000Z</time>
      </trkpt>
      <trkpt lat="45.14646" lon="5.64213">
        <ele>1662</ele>
        <time>2014-06-28T08:29:38.000Z</time>
      </trkpt>
      <trkpt lat="45.14646" lon="5.64213">
        <ele>1663</ele>
        <time>2014-06-28T08:29:39.000Z</time>
      </trkpt>
      <trkpt lat="45.14645" lon="5.64212">
        <ele>1663</ele>
        <time>2014-06-28T08:29:40.000Z</time>
      </trkpt>
      <trkpt lat="45.14645" lon="5.64212">
        <ele>1663</ele>
        <time>2014-06-28T08:29:41.000Z</time>
      </trkpt>
      <trkpt lat="45.14644" lon="5.64212">
        <ele>1664</ele>
        <time>2014-06-28T08:29:42.000Z</time>
      </trkpt>
      <trkpt lat="45.14644" lon="5.64211">
        <ele>1664</ele>
        <time>2014-06-28T08:29:43.000Z</time>
      </trkpt>
      <trkpt lat="45.14643" lon="5.64211">
        <ele>1664</ele>
        <time>2014-06-28T08:29:44.000Z</time>
      </trkpt>
      <trkpt lat="45.14643" lon="5.6421">
        <ele>1664</ele>
        <time>2014-06-28T08:29:45.000Z</time>
      </trkpt>
      <trkpt lat="45.14643" lon="5.6421">
        <ele>1665</ele>
        <time>2014-06-28T08:29:46.000Z</time>
      </trkpt>
      <trkpt lat="45.14642" lon="5.6421">
        <ele>1665</ele>
        <time>2014-06-28T08:29:47.000Z</time>
      </trkpt>
      <trkpt lat="45.14642" lon="5.64209">
        <ele>1665</ele>
        <time>2014-06-28T08:29:48.000Z</time>
      </trkpt>
      <trkpt lat="45.14642" lon="5.64209">
        <ele>1666</ele>
        <time>2014-06-28T08:29:49.000Z</time>
      </trkpt>
      <trkpt lat="45.14641" lon="5.64208">
        <ele>1666</ele>
        <time>2014-06-28T08:29:50.000Z</time>
      </trkpt>
      <trkpt lat="45.14641" lon="5.64208">
        <ele>1666</ele>
        <time>2014-06-28T08:29:51.000Z</time>
      </trkpt>
      <trkpt lat="45.1464" lon="5.64207">
        <ele>1667</ele>
        <time>2014-06-28T08:29:52.000Z</time>
      </trkpt>
      <trkpt lat="45.1464" lon="5.64206">
        <ele>1667</ele>
        <time>2014-06-28T08:29:53.000Z</time>
      </trkpt>
      <trkpt lat="45.1464" lon="5.64205">
        <ele>1667</ele>
        <time>2014-06-28T08:29:54.000Z</time>
      </trkpt>
      <trkpt lat="45.1464" lon="5.64204">
        <ele>1667</ele>
        <time>2014-06-28T08:29:55.000Z</time>
      </trkpt>
      <trkpt lat="45.1464" lon="5.64204">
        <ele>1668</ele>
        <time>2014-06-28T08:29:56.000Z</time>
      </trkpt>
      <trkpt lat="45.1464" lon="5.64203">
        <ele>1668</ele>
        <time>2014-06-28T08:29:57.000Z</time>
      </trkpt>
      <trkpt lat="45.1464" lon="5.64203">
        <ele>1668</ele>
        <time>2014-06-28T08:29:58.000Z</time>
      </trkpt>
      <trkpt lat="45.14641" lon="5.64203">
        <ele>1668</ele>
        <time>2014-06-28T08:29:59.000Z</time>
      </trkpt>
      <trkpt lat="45.14641" lon="5.64203">
        <ele>1668</ele>
        <time>2014-06-28T08:30:00.000Z</time>
      </trkpt>
      <trkpt lat="45.14641" lon="5.64202">
        <ele>1669</ele>
        <time>2014-06-28T08:30:01.000Z</time>
      </trkpt>
      <trkpt lat="45.14641" lon="5.64202">
        <ele>1669</ele>
        <time>2014-06-28T08:30:02.000Z</time>
      </trkpt>
      <trkpt lat="45.1464" lon="5.64202">
        <ele>1669</ele>
        <time>2014-06-28T08:30:03.000Z</time>
      </trkpt>
      <trkpt lat="45.1464" lon="5.64201">
        <ele>1669</ele>
        <time>2014-06-28T08:30:04.000Z</time>
      </trkpt>
      <trkpt lat="45.1464" lon="5.64201">
        <ele>1669</ele>
        <time>2014-06-28T08:30:05.000Z</time>
      </trkpt>
      <trkpt lat="45.14641" lon="5.64201">
        <ele>1669</ele>
        <time>2014-06-28T08:30:06.000Z</time>
      </trkpt>
      <trkpt lat="45.14641" lon="5.642">
        <ele>1669</ele>
        <time>2014-06-28T08:30:07.000Z</time>
      </trkpt>
      <trkpt lat="45.14642" lon="5.64201">
        <ele>1669</ele>
        <time>2014-06-28T08:30:08.000Z</time>
      </trkpt>
      <trkpt lat="45.14642" lon="5.64201">
        <ele>1670</ele>
        <time>2014-06-28T08:30:09.000Z</time>
      </trkpt>
      <trkpt lat="45.14643" lon="5.64201">
        <ele>1670</ele>
        <time>2014-06-28T08:30:10.000Z</time>
      </trkpt>
      <trkpt lat="45.14643" lon="5.642">
        <ele>1670</ele>
        <time>2014-06-28T08:30:11.000Z</time>
      </trkpt>
      <trkpt lat="45.14644" lon="5.642">
        <ele>1670</ele>
        <time>2014-06-28T08:30:12.000Z</time>
      </trkpt>
      <trkpt lat="45.14644" lon="5.642">
        <ele>1670</ele>
        <time>2014-06-28T08:30:13.000Z</time>
      </trkpt>
      <trkpt lat="45.14645" lon="5.642">
        <ele>1670</ele>
        <time>2014-06-28T08:30:14.000Z</time>
      </trkpt>
      <trkpt lat="45.14646" lon="5.64201">
        <ele>1670</ele>
        <time>2014-06-28T08:30:15.000Z</time>
      </trkpt>
      <trkpt lat="45.14647" lon="5.64201">
        <ele>1670</ele>
        <time>2014-06-28T08:30:16.000Z</time>
      </trkpt>
      <trkpt lat="45.14647" lon="5.64201">
        <ele>1671</ele>
        <time>2014-06-28T08:30:17.000Z</time>
      </trkpt>
      <trkpt lat="45.14648" lon="5.64202">
        <ele>1671</ele>
        <time>2014-06-28T08:30:18.000Z</time>
      </trkpt>
      <trkpt lat="45.14649" lon="5.64202">
        <ele>1671</ele>
        <time>2014-06-28T08:30:19.000Z</time>
      </trkpt>
      <trkpt lat="45.14649" lon="5.64202">
        <ele>1671</ele>
        <time>2014-06-28T08:30:20.000Z</time>
      </trkpt>
      <trkpt lat="45.1465" lon="5.64201">
        <ele>1671</ele>
        <time>2014-06-28T08:30:21.000Z</time>
      </trkpt>
      <trkpt lat="45.1465" lon="5.642">
        <ele>1671</ele>
        <time>2014-06-28T08:30:22.000Z</time>
      </trkpt>
      <trkpt lat="45.1465" lon="5.64199">
        <ele>1672</ele>
        <time>2014-06-28T08:30:23.000Z</time>
      </trkpt>
      <trkpt lat="45.1465" lon="5.64198">
        <ele>1672</ele>
        <time>2014-06-28T08:30:24.000Z</time>
      </trkpt>
      <trkpt lat="45.1465" lon="5.64197">
        <ele>1672</ele>
        <time>2014-06-28T08:30:25.000Z</time>
      </trkpt>
      <trkpt lat="45.1465" lon="5.64197">
        <ele>1672</ele>
        <time>2014-06-28T08:30:26.000Z</time>
      </trkpt>
      <trkpt lat="45.1465" lon="5.64196">
        <ele>1673</ele>
        <time>2014-06-28T08:30:27.000Z</time>
      </trkpt>
      <trkpt lat="45.1465" lon="5.64196">
        <ele>1673</ele>
        <time>2014-06-28T08:30:28.000Z</time>
      </trkpt>
      <trkpt lat="45.1465" lon="5.64195">
        <ele>1673</ele>
        <time>2014-06-28T08:30:29.000Z</time>
      </trkpt>
      <trkpt lat="45.1465" lon="5.64194">
        <ele>1674</ele>
        <time>2014-06-28T08:30:30.000Z</time>
      </trkpt>
      <trkpt lat="45.1465" lon="5.64193">
        <ele>1674</ele>
        <time>2014-06-28T08:30:31.000Z</time>
      </trkpt>
      <trkpt lat="45.1465" lon="5.64192">
        <ele>1675</ele>
        <time>2014-06-28T08:30:32.000Z</time>
      </trkpt>
      <trkpt lat="45.14649" lon="5.64191">
        <ele>1675</ele>
        <time>2014-06-28T08:30:33.000Z</time>
      </trkpt>
      <trkpt lat="45.14649" lon="5.6419">
        <ele>1676</ele>
        <time>2014-06-28T08:30:34.000Z</time>
      </trkpt>
      <trkpt lat="45.14649" lon="5.6419">
        <ele>1676</ele>
        <time>2014-06-28T08:30:35.000Z</time>
      </trkpt>
      <trkpt lat="45.14649" lon="5.64189">
        <ele>1676</ele>
        <time>2014-06-28T08:30:36.000Z</time>
      </trkpt>
      <trkpt lat="45.14649" lon="5.64188">
        <ele>1677</ele>
        <time>2014-06-28T08:30:37.000Z</time>
      </trkpt>
      <trkpt lat="45.14648" lon="5.64188">
        <ele>1677</ele>
        <time>2014-06-28T08:30:38.000Z</time>
      </trkpt>
      <trkpt lat="45.14648" lon="5.64188">
        <ele>1677</ele>
        <time>2014-06-28T08:30:39.000Z</time>
      </trkpt>
      <trkpt lat="45.14647" lon="5.64187">
        <ele>1678</ele>
        <time>2014-06-28T08:30:40.000Z</time>
      </trkpt>
      <trkpt lat="45.14647" lon="5.64187">
        <ele>1678</ele>
        <time>2014-06-28T08:30:41.000Z</time>
      </trkpt>
      <trkpt lat="45.14646" lon="5.64186">
        <ele>1678</ele>
        <time>2014-06-28T08:30:42.000Z</time>
      </trkpt>
      <trkpt lat="45.14646" lon="5.64186">
        <ele>1678</ele>
        <time>2014-06-28T08:30:43.000Z</time>
      </trkpt>
      <trkpt lat="45.14645" lon="5.64186">
        <ele>1679</ele>
        <time>2014-06-28T08:30:44.000Z</time>
      </trkpt>
      <trkpt lat="45.14645" lon="5.64186">
        <ele>1679</ele>
        <time>2014-06-28T08:30:45.000Z</time>
      </trkpt>
      <trkpt lat="45.14645" lon="5.64186">
        <ele>1679</ele>
        <time>2014-06-28T08:30:46.000Z</time>
      </trkpt>
      <trkpt lat="45.14645" lon="5.64186">
        <ele>1679</ele>
        <time>2014-06-28T08:30:47.000Z</time>
      </trkpt>
      <trkpt lat="45.14645" lon="5.64186">
        <ele>1679</ele>
        <time>2014-06-28T08:30:48.000Z</time>
      </trkpt>
      <trkpt lat="45.14645" lon="5.64186">
        <ele>1679</ele>
        <time>2014-06-28T08:30:49.000Z</time>
      </trkpt>
      <trkpt lat="45.14645" lon="5.64186">
        <ele>1679</ele>
        <time>2014-06-28T08:30:50.000Z</time>
      </trkpt>
      <trkpt lat="45.14645" lon="5.64186">
        <ele>1680</ele>
        <time>2014-06-28T08:30:51.000Z</time>
      </trkpt>
      <trkpt lat="45.14645" lon="5.64186">
        <ele>1680</ele>
        <time>2014-06-28T08:30:52.000Z</time>
      </trkpt>
      <trkpt lat="45.14645" lon="5.64186">
        <ele>1680</ele>
        <time>2014-06-28T08:30:53.000Z</time>
      </trkpt>
      <trkpt lat="45.14645" lon="5.64186">
        <ele>1680</ele>
        <time>2014-06-28T08:30:54.000Z</time>
      </trkpt>
      <trkpt lat="45.14645" lon="5.64186">
        <ele>1680</ele>
        <time>2014-06-28T08:30:55.000Z</time>
      </trkpt>
      <trkpt lat="45.14645" lon="5.64186">
        <ele>1680</ele>
        <time>2014-06-28T08:30:56.000Z</time>
      </trkpt>
      <trkpt lat="45.14645" lon="5.64186">
        <ele>1680</ele>
        <time>2014-06-28T08:30:57.000Z</time>
      </trkpt>
      <trkpt lat="45.14645" lon="5.64186">
        <ele>1680</ele>
        <time>2014-06-28T08:30:58.000Z</time>
      </trkpt>
      <trkpt lat="45.14645" lon="5.64186">
        <ele>1680</ele>
        <time>2014-06-28T08:30:59.000Z</time>
      </trkpt>
      <trkpt lat="45.14645" lon="5.64186">
        <ele>1680</ele>
        <time>2014-06-28T08:31:00.000Z</time>
      </trkpt>
      <trkpt lat="45.14645" lon="5.64186">
        <ele>1680</ele>
        <time>2014-06-28T08:31:01.000Z</time>
      </trkpt>
      <trkpt lat="45.14645" lon="5.64186">
        <ele>1680</ele>
        <time>2014-06-28T08:31:02.000Z</time>
      </trkpt>
      <trkpt lat="45.14645" lon="5.64186">
        <ele>1680</ele>
        <time>2014-06-28T08:31:03.000Z</time>
      </trkpt>
      <trkpt lat="45.14645" lon="5.64186">
        <ele>1680</ele>
        <time>2014-06-28T08:31:04.000Z</time>
      </trkpt>
      <trkpt lat="45.14645" lon="5.64186">
        <ele>1680</ele>
        <time>2014-06-28T08:31:05.000Z</time>
      </trkpt>
      <trkpt lat="45.14644" lon="5.64186">
        <ele>1680</ele>
        <time>2014-06-28T08:31:06.000Z</time>
      </trkpt>
      <trkpt lat="45.14644" lon="5.64186">
        <ele>1680</ele>
        <time>2014-06-28T08:31:07.000Z</time>
      </trkpt>
      <trkpt lat="45.14644" lon="5.64186">
        <ele>1680</ele>
        <time>2014-06-28T08:31:08.000Z</time>
      </trkpt>
      <trkpt lat="45.14644" lon="5.64186">
        <ele>1680</ele>
        <time>2014-06-28T08:31:09.000Z</time>
      </trkpt>
      <trkpt lat="45.14644" lon="5.64185">
        <ele>1680</ele>
        <time>2014-06-28T08:31:10.000Z</time>
      </trkpt>
      <trkpt lat="45.14644" lon="5.64185">
        <ele>1680</ele>
        <time>2014-06-28T08:31:11.000Z</time>
      </trkpt>
      <trkpt lat="45.14644" lon="5.64185">
        <ele>1681</ele>
        <time>2014-06-28T08:31:12.000Z</time>
      </trkpt>
      <trkpt lat="45.14644" lon="5.64185">
        <ele>1681</ele>
        <time>2014-06-28T08:31:13.000Z</time>
      </trkpt>
      <trkpt lat="45.14644" lon="5.64185">
        <ele>1681</ele>
        <time>2014-06-28T08:31:14.000Z</time>
      </trkpt>
      <trkpt lat="45.14644" lon="5.64185">
        <ele>1681</ele>
        <time>2014-06-28T08:31:15.000Z</time>
      </trkpt>
      <trkpt lat="45.14644" lon="5.64185">
        <ele>1681</ele>
        <time>2014-06-28T08:31:16.000Z</time>
      </trkpt>
      <trkpt lat="45.14644" lon="5.64185">
        <ele>1681</ele>
        <time>2014-06-28T08:31:17.000Z</time>
      </trkpt>
      <trkpt lat="45.14644" lon="5.64185">
        <ele>1681</ele>
        <time>2014-06-28T08:31:18.000Z</time>
      </trkpt>
      <trkpt lat="45.14644" lon="5.64185">
        <ele>1681</ele>
        <time>2014-06-28T08:31:19.000Z</time>
      </trkpt>
      <trkpt lat="45.14644" lon="5.64185">
        <ele>1681</ele>
        <time>2014-06-28T08:31:20.000Z</time>
      </trkpt>
      <trkpt lat="45.14644" lon="5.64185">
        <ele>1681</ele>
        <time>2014-06-28T08:31:21.000Z</time>
      </trkpt>
      <trkpt lat="45.14644" lon="5.64185">
        <ele>1681</ele>
        <time>2014-06-28T08:31:22.000Z</time>
      </trkpt>
      <trkpt lat="45.14644" lon="5.64185">
        <ele>1681</ele>
        <time>2014-06-28T08:31:23.000Z</time>
      </trkpt>
      <trkpt lat="45.14644" lon="5.64185">
        <ele>1681</ele>
        <time>2014-06-28T08:31:24.000Z</time>
      </trkpt>
      <trkpt lat="45.14644" lon="5.64185">
        <ele>1681</ele>
        <time>2014-06-28T08:31:25.000Z</time>
      </trkpt>
      <trkpt lat="45.14644" lon="5.64185">
        <ele>1681</ele>
        <time>2014-06-28T08:31:26.000Z</time>
      </trkpt>
      <trkpt lat="45.14644" lon="5.64185">
        <ele>1681</ele>
        <time>2014-06-28T08:31:27.000Z</time>
      </trkpt>
      <trkpt lat="45.14644" lon="5.64185">
        <ele>1681</ele>
        <time>2014-06-28T08:31:28.000Z</time>
      </trkpt>
      <trkpt lat="45.14644" lon="5.64185">
        <ele>1681</ele>
        <time>2014-06-28T08:31:29.000Z</time>
      </trkpt>
      <trkpt lat="45.14644" lon="5.64185">
        <ele>1681</ele>
        <time>2014-06-28T08:31:30.000Z</time>
      </trkpt>
      <trkpt lat="45.14644" lon="5.64185">
        <ele>1681</ele>
        <time>2014-06-28T08:31:31.000Z</time>
      </trkpt>
      <trkpt lat="45.14644" lon="5.64185">
        <ele>1681</ele>
        <time>2014-06-28T08:31:32.000Z</time>
      </trkpt>
      <trkpt lat="45.14644" lon="5.64185">
        <ele>1681</ele>
        <time>2014-06-28T08:31:33.000Z</time>
      </trkpt>
      <trkpt lat="45.14644" lon="5.64184">
        <ele>1681</ele>
        <time>2014-06-28T08:31:34.000Z</time>
      </trkpt>
      <trkpt lat="45.14644" lon="5.64184">
        <ele>1681</ele>
        <time>2014-06-28T08:31:35.000Z</time>
      </trkpt>
      <trkpt lat="45.14644" lon="5.64184">
        <ele>1681</ele>
        <time>2014-06-28T08:31:36.000Z</time>
      </trkpt>
      <trkpt lat="45.14644" lon="5.64184">
        <ele>1681</ele>
        <time>2014-06-28T08:31:37.000Z</time>
      </trkpt>
      <trkpt lat="45.14644" lon="5.64184">
        <ele>1681</ele>
        <time>2014-06-28T08:31:38.000Z</time>
      </trkpt>
      <trkpt lat="45.14644" lon="5.64184">
        <ele>1681</ele>
        <time>2014-06-28T08:31:39.000Z</time>
      </trkpt>
      <trkpt lat="45.14644" lon="5.64184">
        <ele>1681</ele>
        <time>2014-06-28T08:31:40.000Z</time>
      </trkpt>
      <trkpt lat="45.14644" lon="5.64184">
        <ele>1681</ele>
        <time>2014-06-28T08:31:41.000Z</time>
      </trkpt>
      <trkpt lat="45.14644" lon="5.64184">
        <ele>1681</ele>
        <time>2014-06-28T08:31:42.000Z</time>
      </trkpt>
      <trkpt lat="45.14644" lon="5.64184">
        <ele>1681</ele>
        <time>2014-06-28T08:31:43.000Z</time>
      </trkpt>
      <trkpt lat="45.14644" lon="5.64184">
        <ele>1681</ele>
        <time>2014-06-28T08:31:44.000Z</time>
      </trkpt>
      <trkpt lat="45.14644" lon="5.64184">
        <ele>1681</ele>
        <time>2014-06-28T08:31:45.000Z</time>
      </trkpt>
      <trkpt lat="45.14644" lon="5.64184">
        <ele>1681</ele>
        <time>2014-06-28T08:31:46.000Z</time>
      </trkpt>
      <trkpt lat="45.14644" lon="5.64184">
        <ele>1681</ele>
        <time>2014-06-28T08:31:47.000Z</time>
      </trkpt>
      <trkpt lat="45.14644" lon="5.64184">
        <ele>1681</ele>
        <time>2014-06-28T08:31:48.000Z</time>
      </trkpt>
      <trkpt lat="45.14644" lon="5.64184">
        <ele>1681</ele>
        <time>2014-06-28T08:31:49.000Z</time>
      </trkpt>
      <trkpt lat="45.14644" lon="5.64184">
        <ele>1681</ele>
        <time>2014-06-28T08:31:50.000Z</time>
      </trkpt>
      <trkpt lat="45.14644" lon="5.64184">
        <ele>1681</ele>
        <time>2014-06-28T08:31:51.000Z</time>
      </trkpt>
      <trkpt lat="45.14644" lon="5.64184">
        <ele>1681</ele>
        <time>2014-06-28T08:31:52.000Z</time>
      </trkpt>
      <trkpt lat="45.14644" lon="5.64184">
        <ele>1681</ele>
        <time>2014-06-28T08:31:53.000Z</time>
      </trkpt>
      <trkpt lat="45.14644" lon="5.64184">
        <ele>1681</ele>
        <time>2014-06-28T08:31:54.000Z</time>
      </trkpt>
      <trkpt lat="45.14644" lon="5.64184">
        <ele>1681</ele>
        <time>2014-06-28T08:31:55.000Z</time>
      </trkpt>
      <trkpt lat="45.14644" lon="5.64184">
        <ele>1681</ele>
        <time>2014-06-28T08:31:56.000Z</time>
      </trkpt>
      <trkpt lat="45.14644" lon="5.64184">
        <ele>1681</ele>
        <time>2014-06-28T08:31:57.000Z</time>
      </trkpt>
      <trkpt lat="45.14644" lon="5.64184">
        <ele>1681</ele>
        <time>2014-06-28T08:31:58.000Z</time>
      </trkpt>
      <trkpt lat="45.14644" lon="5.64184">
        <ele>1681</ele>
        <time>2014-06-28T08:31:59.000Z</time>
      </trkpt>
      <trkpt lat="45.14644" lon="5.64184">
        <ele>1681</ele>
        <time>2014-06-28T08:32:00.000Z</time>
      </trkpt>
      <trkpt lat="45.14644" lon="5.64184">
        <ele>1681</ele>
        <time>2014-06-28T08:32:01.000Z</time>
      </trkpt>
      <trkpt lat="45.14644" lon="5.64184">
        <ele>1681</ele>
        <time>2014-06-28T08:32:02.000Z</time>
      </trkpt>
      <trkpt lat="45.14644" lon="5.64184">
        <ele>1681</ele>
        <time>2014-06-28T08:32:03.000Z</time>
      </trkpt>
      <trkpt lat="45.14644" lon="5.64184">
        <ele>1681</ele>
        <time>2014-06-28T08:32:04.000Z</time>
      </trkpt>
      <trkpt lat="45.14644" lon="5.64184">
        <ele>1681</ele>
        <time>2014-06-28T08:32:05.000Z</time>
      </trkpt>
      <trkpt lat="45.14644" lon="5.64184">
        <ele>1681</ele>
        <time>2014-06-28T08:32:06.000Z</time>
      </trkpt>
      <trkpt lat="45.14644" lon="5.64184">
        <ele>1681</ele>
        <time>2014-06-28T08:32:07.000Z</time>
      </trkpt>
      <trkpt lat="45.14644" lon="5.64184">
        <ele>1681</ele>
        <time>2014-06-28T08:32:08.000Z</time>
      </trkpt>
      <trkpt lat="45.14644" lon="5.64184">
        <ele>1681</ele>
        <time>2014-06-28T08:32:09.000Z</time>
      </trkpt>
      <trkpt lat="45.14644" lon="5.64184">
        <ele>1681</ele>
        <time>2014-06-28T08:32:10.000Z</time>
      </trkpt>
      <trkpt lat="45.14644" lon="5.64184">
        <ele>1681</ele>
        <time>2014-06-28T08:32:11.000Z</time>
      </trkpt>
      <trkpt lat="45.14644" lon="5.64184">
        <ele>1681</ele>
        <time>2014-06-28T08:32:12.000Z</time>
      </trkpt>
      <trkpt lat="45.14644" lon="5.64184">
        <ele>1681</ele>
        <time>2014-06-28T08:32:13.000Z</time>
      </trkpt>
      <trkpt lat="45.14644" lon="5.64184">
        <ele>1681</ele>
        <time>2014-06-28T08:32:14.000Z</time>
      </trkpt>
      <trkpt lat="45.14644" lon="5.64184">
        <ele>1681</ele>
        <time>2014-06-28T08:32:15.000Z</time>
      </trkpt>
      <trkpt lat="45.14644" lon="5.64184">
        <ele>1681</ele>
        <time>2014-06-28T08:32:16.000Z</time>
      </trkpt>
      <trkpt lat="45.14644" lon="5.64184">
        <ele>1681</ele>
        <time>2014-06-28T08:32:17.000Z</time>
      </trkpt>
      <trkpt lat="45.14644" lon="5.64184">
        <ele>1681</ele>
        <time>2014-06-28T08:32:18.000Z</time>
      </trkpt>
      <trkpt lat="45.14644" lon="5.64184">
        <ele>1681</ele>
        <time>2014-06-28T08:32:19.000Z</time>
      </trkpt>
      <trkpt lat="45.14644" lon="5.64184">
        <ele>1681</ele>
        <time>2014-06-28T08:32:20.000Z</time>
      </trkpt>
      <trkpt lat="45.14644" lon="5.64184">
        <ele>1681</ele>
        <time>2014-06-28T08:32:21.000Z</time>
      </trkpt>
      <trkpt lat="45.14644" lon="5.64184">
        <ele>1681</ele>
        <time>2014-06-28T08:32:22.000Z</time>
      </trkpt>
      <trkpt lat="45.14644" lon="5.64184">
        <ele>1681</ele>
        <time>2014-06-28T08:32:23.000Z</time>
      </trkpt>
      <trkpt lat="45.14644" lon="5.64184">
        <ele>1681</ele>
        <time>2014-06-28T08:32:24.000Z</time>
      </trkpt>
      <trkpt lat="45.14644" lon="5.64185">
        <ele>1681</ele>
        <time>2014-06-28T08:32:25.000Z</time>
      </trkpt>
      <trkpt lat="45.14644" lon="5.64185">
        <ele>1681</ele>
        <time>2014-06-28T08:32:26.000Z</time>
      </trkpt>
      <trkpt lat="45.14644" lon="5.64185">
        <ele>1681</ele>
        <time>2014-06-28T08:32:27.000Z</time>
      </trkpt>
      <trkpt lat="45.14644" lon="5.64185">
        <ele>1681</ele>
        <time>2014-06-28T08:32:28.000Z</time>
      </trkpt>
      <trkpt lat="45.14644" lon="5.64185">
        <ele>1681</ele>
        <time>2014-06-28T08:32:29.000Z</time>
      </trkpt>
      <trkpt lat="45.14644" lon="5.64184">
        <ele>1681</ele>
        <time>2014-06-28T08:32:30.000Z</time>
      </trkpt>
      <trkpt lat="45.14644" lon="5.64184">
        <ele>1681</ele>
        <time>2014-06-28T08:32:31.000Z</time>
      </trkpt>
      <trkpt lat="45.14644" lon="5.64185">
        <ele>1681</ele>
        <time>2014-06-28T08:32:32.000Z</time>
      </trkpt>
      <trkpt lat="45.14644" lon="5.64185">
        <ele>1681</ele>
        <time>2014-06-28T08:32:33.000Z</time>
      </trkpt>
      <trkpt lat="45.14644" lon="5.64185">
        <ele>1681</ele>
        <time>2014-06-28T08:32:34.000Z</time>
      </trkpt>
      <trkpt lat="45.14644" lon="5.64185">
        <ele>1681</ele>
        <time>2014-06-28T08:32:35.000Z</time>
      </trkpt>
      <trkpt lat="45.14644" lon="5.64185">
        <ele>1681</ele>
        <time>2014-06-28T08:32:36.000Z</time>
      </trkpt>
      <trkpt lat="45.14644" lon="5.64185">
        <ele>1681</ele>
        <time>2014-06-28T08:32:37.000Z</time>
      </trkpt>
      <trkpt lat="45.14644" lon="5.64184">
        <ele>1681</ele>
        <time>2014-06-28T08:32:38.000Z</time>
      </trkpt>
      <trkpt lat="45.14644" lon="5.64184">
        <ele>1681</ele>
        <time>2014-06-28T08:32:39.000Z</time>
      </trkpt>
      <trkpt lat="45.14644" lon="5.64185">
        <ele>1681</ele>
        <time>2014-06-28T08:32:40.000Z</time>
      </trkpt>
      <trkpt lat="45.14644" lon="5.64185">
        <ele>1680</ele>
        <time>2014-06-28T08:32:41.000Z</time>
      </trkpt>
      <trkpt lat="45.14644" lon="5.64185">
        <ele>1680</ele>
        <time>2014-06-28T08:32:42.000Z</time>
      </trkpt>
      <trkpt lat="45.14644" lon="5.64185">
        <ele>1680</ele>
        <time>2014-06-28T08:32:43.000Z</time>
      </trkpt>
      <trkpt lat="45.14644" lon="5.64185">
        <ele>1680</ele>
        <time>2014-06-28T08:32:44.000Z</time>
      </trkpt>
      <trkpt lat="45.14644" lon="5.64184">
        <ele>1680</ele>
        <time>2014-06-28T08:32:45.000Z</time>
      </trkpt>
      <trkpt lat="45.14644" lon="5.64184">
        <ele>1680</ele>
        <time>2014-06-28T08:32:46.000Z</time>
      </trkpt>
      <trkpt lat="45.14644" lon="5.64184">
        <ele>1680</ele>
        <time>2014-06-28T08:32:47.000Z</time>
      </trkpt>
      <trkpt lat="45.14644" lon="5.64184">
        <ele>1680</ele>
        <time>2014-06-28T08:32:48.000Z</time>
      </trkpt>
      <trkpt lat="45.14644" lon="5.64184">
        <ele>1680</ele>
        <time>2014-06-28T08:32:49.000Z</time>
      </trkpt>
      <trkpt lat="45.14644" lon="5.64184">
        <ele>1680</ele>
        <time>2014-06-28T08:32:50.000Z</time>
      </trkpt>
      <trkpt lat="45.14644" lon="5.64184">
        <ele>1680</ele>
        <time>2014-06-28T08:32:51.000Z</time>
      </trkpt>
      <trkpt lat="45.14644" lon="5.64184">
        <ele>1680</ele>
        <time>2014-06-28T08:32:52.000Z</time>
      </trkpt>
      <trkpt lat="45.14644" lon="5.64185">
        <ele>1680</ele>
        <time>2014-06-28T08:32:53.000Z</time>
      </trkpt>
      <trkpt lat="45.14644" lon="5.64185">
        <ele>1680</ele>
        <time>2014-06-28T08:32:54.000Z</time>
      </trkpt>
      <trkpt lat="45.14644" lon="5.64185">
        <ele>1680</ele>
        <time>2014-06-28T08:32:55.000Z</time>
      </trkpt>
      <trkpt lat="45.14644" lon="5.64185">
        <ele>1680</ele>
        <time>2014-06-28T08:32:56.000Z</time>
      </trkpt>
      <trkpt lat="45.14644" lon="5.64184">
        <ele>1680</ele>
        <time>2014-06-28T08:32:57.000Z</time>
      </trkpt>
      <trkpt lat="45.14644" lon="5.64184">
        <ele>1680</ele>
        <time>2014-06-28T08:32:58.000Z</time>
      </trkpt>
      <trkpt lat="45.14644" lon="5.64184">
        <ele>1680</ele>
        <time>2014-06-28T08:32:59.000Z</time>
      </trkpt>
      <trkpt lat="45.14644" lon="5.64184">
        <ele>1680</ele>
        <time>2014-06-28T08:33:00.000Z</time>
      </trkpt>
      <trkpt lat="45.14644" lon="5.64184">
        <ele>1680</ele>
        <time>2014-06-28T08:33:01.000Z</time>
      </trkpt>
      <trkpt lat="45.14644" lon="5.64184">
        <ele>1680</ele>
        <time>2014-06-28T08:33:02.000Z</time>
      </trkpt>
      <trkpt lat="45.14644" lon="5.64184">
        <ele>1680</ele>
        <time>2014-06-28T08:33:03.000Z</time>
      </trkpt>
      <trkpt lat="45.14644" lon="5.64184">
        <ele>1680</ele>
        <time>2014-06-28T08:33:04.000Z</time>
      </trkpt>
      <trkpt lat="45.14644" lon="5.64184">
        <ele>1680</ele>
        <time>2014-06-28T08:33:05.000Z</time>
      </trkpt>
      <trkpt lat="45.14644" lon="5.64184">
        <ele>1680</ele>
        <time>2014-06-28T08:33:06.000Z</time>
      </trkpt>
      <trkpt lat="45.14644" lon="5.64184">
        <ele>1680</ele>
        <time>2014-06-28T08:33:07.000Z</time>
      </trkpt>
      <trkpt lat="45.14643" lon="5.64184">
        <ele>1680</ele>
        <time>2014-06-28T08:33:08.000Z</time>
      </trkpt>
      <trkpt lat="45.14643" lon="5.64184">
        <ele>1680</ele>
        <time>2014-06-28T08:33:09.000Z</time>
      </trkpt>
      <trkpt lat="45.14643" lon="5.64184">
        <ele>1680</ele>
        <time>2014-06-28T08:33:10.000Z</time>
      </trkpt>
      <trkpt lat="45.14643" lon="5.64183">
        <ele>1680</ele>
        <time>2014-06-28T08:33:11.000Z</time>
      </trkpt>
      <trkpt lat="45.14643" lon="5.64183">
        <ele>1680</ele>
        <time>2014-06-28T08:33:12.000Z</time>
      </trkpt>
      <trkpt lat="45.14643" lon="5.64183">
        <ele>1680</ele>
        <time>2014-06-28T08:33:13.000Z</time>
      </trkpt>
      <trkpt lat="45.14643" lon="5.64183">
        <ele>1680</ele>
        <time>2014-06-28T08:33:14.000Z</time>
      </trkpt>
      <trkpt lat="45.14643" lon="5.64183">
        <ele>1680</ele>
        <time>2014-06-28T08:33:15.000Z</time>
      </trkpt>
      <trkpt lat="45.14643" lon="5.64182">
        <ele>1679</ele>
        <time>2014-06-28T08:33:16.000Z</time>
      </trkpt>
      <trkpt lat="45.14643" lon="5.64182">
        <ele>1679</ele>
        <time>2014-06-28T08:33:17.000Z</time>
      </trkpt>
      <trkpt lat="45.14642" lon="5.64181">
        <ele>1679</ele>
        <time>2014-06-28T08:33:18.000Z</time>
      </trkpt>
      <trkpt lat="45.14642" lon="5.64181">
        <ele>1679</ele>
        <time>2014-06-28T08:33:19.000Z</time>
      </trkpt>
      <trkpt lat="45.14641" lon="5.6418">
        <ele>1679</ele>
        <time>2014-06-28T08:33:20.000Z</time>
      </trkpt>
      <trkpt lat="45.14641" lon="5.64179">
        <ele>1679</ele>
        <time>2014-06-28T08:33:21.000Z</time>
      </trkpt>
      <trkpt lat="45.1464" lon="5.64179">
        <ele>1679</ele>
        <time>2014-06-28T08:33:22.000Z</time>
      </trkpt>
      <trkpt lat="45.1464" lon="5.64178">
        <ele>1679</ele>
        <time>2014-06-28T08:33:23.000Z</time>
      </trkpt>
      <trkpt lat="45.14639" lon="5.64178">
        <ele>1679</ele>
        <time>2014-06-28T08:33:24.000Z</time>
      </trkpt>
      <trkpt lat="45.14639" lon="5.64177">
        <ele>1679</ele>
        <time>2014-06-28T08:33:25.000Z</time>
      </trkpt>
      <trkpt lat="45.14638" lon="5.64176">
        <ele>1679</ele>
        <time>2014-06-28T08:33:26.000Z</time>
      </trkpt>
      <trkpt lat="45.14638" lon="5.64176">
        <ele>1680</ele>
        <time>2014-06-28T08:33:27.000Z</time>
      </trkpt>
      <trkpt lat="45.14637" lon="5.64175">
        <ele>1680</ele>
        <time>2014-06-28T08:33:28.000Z</time>
      </trkpt>
      <trkpt lat="45.14637" lon="5.64174">
        <ele>1680</ele>
        <time>2014-06-28T08:33:29.000Z</time>
      </trkpt>
      <trkpt lat="45.14636" lon="5.64174">
        <ele>1680</ele>
        <time>2014-06-28T08:33:30.000Z</time>
      </trkpt>
      <trkpt lat="45.14634" lon="5.64173">
        <ele>1680</ele>
        <time>2014-06-28T08:33:31.000Z</time>
      </trkpt>
      <trkpt lat="45.14634" lon="5.64171">
        <ele>1680</ele>
        <time>2014-06-28T08:33:32.000Z</time>
      </trkpt>
      <trkpt lat="45.14633" lon="5.6417">
        <ele>1680</ele>
        <time>2014-06-28T08:33:33.000Z</time>
      </trkpt>
      <trkpt lat="45.14633" lon="5.64169">
        <ele>1680</ele>
        <time>2014-06-28T08:33:34.000Z</time>
      </trkpt>
      <trkpt lat="45.14632" lon="5.64169">
        <ele>1680</ele>
        <time>2014-06-28T08:33:35.000Z</time>
      </trkpt>
      <trkpt lat="45.14632" lon="5.64168">
        <ele>1681</ele>
        <time>2014-06-28T08:33:36.000Z</time>
      </trkpt>
      <trkpt lat="45.14631" lon="5.64167">
        <ele>1681</ele>
        <time>2014-06-28T08:33:37.000Z</time>
      </trkpt>
      <trkpt lat="45.14631" lon="5.64166">
        <ele>1681</ele>
        <time>2014-06-28T08:33:38.000Z</time>
      </trkpt>
      <trkpt lat="45.1463" lon="5.64166">
        <ele>1681</ele>
        <time>2014-06-28T08:33:39.000Z</time>
      </trkpt>
      <trkpt lat="45.14629" lon="5.64165">
        <ele>1681</ele>
        <time>2014-06-28T08:33:40.000Z</time>
      </trkpt>
      <trkpt lat="45.14629" lon="5.64164">
        <ele>1681</ele>
        <time>2014-06-28T08:33:41.000Z</time>
      </trkpt>
      <trkpt lat="45.14629" lon="5.64163">
        <ele>1681</ele>
        <time>2014-06-28T08:33:42.000Z</time>
      </trkpt>
      <trkpt lat="45.14628" lon="5.64162">
        <ele>1681</ele>
        <time>2014-06-28T08:33:43.000Z</time>
      </trkpt>
      <trkpt lat="45.14629" lon="5.64162">
        <ele>1681</ele>
        <time>2014-06-28T08:33:44.000Z</time>
      </trkpt>
      <trkpt lat="45.14629" lon="5.64161">
        <ele>1681</ele>
        <time>2014-06-28T08:33:45.000Z</time>
      </trkpt>
      <trkpt lat="45.14628" lon="5.6416">
        <ele>1682</ele>
        <time>2014-06-28T08:33:46.000Z</time>
      </trkpt>
      <trkpt lat="45.14628" lon="5.6416">
        <ele>1682</ele>
        <time>2014-06-28T08:33:47.000Z</time>
      </trkpt>
      <trkpt lat="45.14628" lon="5.6416">
        <ele>1682</ele>
        <time>2014-06-28T08:33:48.000Z</time>
      </trkpt>
      <trkpt lat="45.14628" lon="5.64159">
        <ele>1682</ele>
        <time>2014-06-28T08:33:49.000Z</time>
      </trkpt>
      <trkpt lat="45.14628" lon="5.64158">
        <ele>1682</ele>
        <time>2014-06-28T08:33:50.000Z</time>
      </trkpt>
      <trkpt lat="45.14628" lon="5.64158">
        <ele>1682</ele>
        <time>2014-06-28T08:33:51.000Z</time>
      </trkpt>
      <trkpt lat="45.14628" lon="5.64157">
        <ele>1683</ele>
        <time>2014-06-28T08:33:52.000Z</time>
      </trkpt>
      <trkpt lat="45.14628" lon="5.64157">
        <ele>1683</ele>
        <time>2014-06-28T08:33:53.000Z</time>
      </trkpt>
      <trkpt lat="45.14628" lon="5.64156">
        <ele>1683</ele>
        <time>2014-06-28T08:33:54.000Z</time>
      </trkpt>
      <trkpt lat="45.14627" lon="5.64155">
        <ele>1683</ele>
        <time>2014-06-28T08:33:55.000Z</time>
      </trkpt>
      <trkpt lat="45.14627" lon="5.64155">
        <ele>1684</ele>
        <time>2014-06-28T08:33:56.000Z</time>
      </trkpt>
      <trkpt lat="45.14626" lon="5.64155">
        <ele>1684</ele>
        <time>2014-06-28T08:33:57.000Z</time>
      </trkpt>
      <trkpt lat="45.14626" lon="5.64154">
        <ele>1684</ele>
        <time>2014-06-28T08:33:58.000Z</time>
      </trkpt>
      <trkpt lat="45.14626" lon="5.64153">
        <ele>1684</ele>
        <time>2014-06-28T08:33:59.000Z</time>
      </trkpt>
      <trkpt lat="45.14625" lon="5.64152">
        <ele>1684</ele>
        <time>2014-06-28T08:34:00.000Z</time>
      </trkpt>
      <trkpt lat="45.14625" lon="5.64152">
        <ele>1685</ele>
        <time>2014-06-28T08:34:01.000Z</time>
      </trkpt>
      <trkpt lat="45.14625" lon="5.64152">
        <ele>1685</ele>
        <time>2014-06-28T08:34:02.000Z</time>
      </trkpt>
      <trkpt lat="45.14625" lon="5.64152">
        <ele>1685</ele>
        <time>2014-06-28T08:34:03.000Z</time>
      </trkpt>
      <trkpt lat="45.14625" lon="5.64151">
        <ele>1685</ele>
        <time>2014-06-28T08:34:04.000Z</time>
      </trkpt>
      <trkpt lat="45.14624" lon="5.6415">
        <ele>1685</ele>
        <time>2014-06-28T08:34:05.000Z</time>
      </trkpt>
      <trkpt lat="45.14624" lon="5.64149">
        <ele>1685</ele>
        <time>2014-06-28T08:34:06.000Z</time>
      </trkpt>
      <trkpt lat="45.14624" lon="5.64148">
        <ele>1686</ele>
        <time>2014-06-28T08:34:07.000Z</time>
      </trkpt>
      <trkpt lat="45.14624" lon="5.64148">
        <ele>1686</ele>
        <time>2014-06-28T08:34:08.000Z</time>
      </trkpt>
      <trkpt lat="45.14623" lon="5.64147">
        <ele>1686</ele>
        <time>2014-06-28T08:34:09.000Z</time>
      </trkpt>
      <trkpt lat="45.14623" lon="5.64147">
        <ele>1687</ele>
        <time>2014-06-28T08:34:10.000Z</time>
      </trkpt>
      <trkpt lat="45.14624" lon="5.64146">
        <ele>1687</ele>
        <time>2014-06-28T08:34:11.000Z</time>
      </trkpt>
      <trkpt lat="45.14623" lon="5.64145">
        <ele>1687</ele>
        <time>2014-06-28T08:34:12.000Z</time>
      </trkpt>
      <trkpt lat="45.14623" lon="5.64145">
        <ele>1688</ele>
        <time>2014-06-28T08:34:13.000Z</time>
      </trkpt>
      <trkpt lat="45.14623" lon="5.64145">
        <ele>1688</ele>
        <time>2014-06-28T08:34:14.000Z</time>
      </trkpt>
      <trkpt lat="45.14623" lon="5.64144">
        <ele>1688</ele>
        <time>2014-06-28T08:34:15.000Z</time>
      </trkpt>
      <trkpt lat="45.14623" lon="5.64144">
        <ele>1688</ele>
        <time>2014-06-28T08:34:16.000Z</time>
      </trkpt>
      <trkpt lat="45.14623" lon="5.64144">
        <ele>1689</ele>
        <time>2014-06-28T08:34:17.000Z</time>
      </trkpt>
      <trkpt lat="45.14623" lon="5.64143">
        <ele>1689</ele>
        <time>2014-06-28T08:34:18.000Z</time>
      </trkpt>
      <trkpt lat="45.14623" lon="5.64143">
        <ele>1689</ele>
        <time>2014-06-28T08:34:19.000Z</time>
      </trkpt>
      <trkpt lat="45.14623" lon="5.64143">
        <ele>1690</ele>
        <time>2014-06-28T08:34:20.000Z</time>
      </trkpt>
      <trkpt lat="45.14623" lon="5.64142">
        <ele>1690</ele>
        <time>2014-06-28T08:34:21.000Z</time>
      </trkpt>
      <trkpt lat="45.14624" lon="5.64142">
        <ele>1690</ele>
        <time>2014-06-28T08:34:22.000Z</time>
      </trkpt>
      <trkpt lat="45.14624" lon="5.64142">
        <ele>1690</ele>
        <time>2014-06-28T08:34:23.000Z</time>
      </trkpt>
      <trkpt lat="45.14625" lon="5.64142">
        <ele>1691</ele>
        <time>2014-06-28T08:34:24.000Z</time>
      </trkpt>
      <trkpt lat="45.14626" lon="5.64141">
        <ele>1691</ele>
        <time>2014-06-28T08:34:25.000Z</time>
      </trkpt>
      <trkpt lat="45.14626" lon="5.64141">
        <ele>1692</ele>
        <time>2014-06-28T08:34:26.000Z</time>
      </trkpt>
      <trkpt lat="45.14627" lon="5.64141">
        <ele>1692</ele>
        <time>2014-06-28T08:34:27.000Z</time>
      </trkpt>
      <trkpt lat="45.14627" lon="5.64141">
        <ele>1692</ele>
        <time>2014-06-28T08:34:28.000Z</time>
      </trkpt>
      <trkpt lat="45.14628" lon="5.64141">
        <ele>1693</ele>
        <time>2014-06-28T08:34:29.000Z</time>
      </trkpt>
      <trkpt lat="45.14628" lon="5.64141">
        <ele>1693</ele>
        <time>2014-06-28T08:34:30.000Z</time>
      </trkpt>
      <trkpt lat="45.14629" lon="5.64141">
        <ele>1693</ele>
        <time>2014-06-28T08:34:31.000Z</time>
      </trkpt>
      <trkpt lat="45.14629" lon="5.64141">
        <ele>1694</ele>
        <time>2014-06-28T08:34:32.000Z</time>
      </trkpt>
      <trkpt lat="45.1463" lon="5.6414">
        <ele>1694</ele>
        <time>2014-06-28T08:34:33.000Z</time>
      </trkpt>
      <trkpt lat="45.1463" lon="5.64139">
        <ele>1694</ele>
        <time>2014-06-28T08:34:34.000Z</time>
      </trkpt>
      <trkpt lat="45.14631" lon="5.64139">
        <ele>1695</ele>
        <time>2014-06-28T08:34:35.000Z</time>
      </trkpt>
      <trkpt lat="45.14631" lon="5.64138">
        <ele>1695</ele>
        <time>2014-06-28T08:34:36.000Z</time>
      </trkpt>
      <trkpt lat="45.14631" lon="5.64137">
        <ele>1695</ele>
        <time>2014-06-28T08:34:37.000Z</time>
      </trkpt>
      <trkpt lat="45.14631" lon="5.64137">
        <ele>1696</ele>
        <time>2014-06-28T08:34:38.000Z</time>
      </trkpt>
      <trkpt lat="45.1463" lon="5.64136">
        <ele>1696</ele>
        <time>2014-06-28T08:34:39.000Z</time>
      </trkpt>
      <trkpt lat="45.14629" lon="5.64135">
        <ele>1696</ele>
        <time>2014-06-28T08:34:40.000Z</time>
      </trkpt>
      <trkpt lat="45.14629" lon="5.64134">
        <ele>1696</ele>
        <time>2014-06-28T08:34:41.000Z</time>
      </trkpt>
      <trkpt lat="45.14629" lon="5.64133">
        <ele>1697</ele>
        <time>2014-06-28T08:34:42.000Z</time>
      </trkpt>
      <trkpt lat="45.14629" lon="5.64133">
        <ele>1697</ele>
        <time>2014-06-28T08:34:43.000Z</time>
      </trkpt>
      <trkpt lat="45.14629" lon="5.64132">
        <ele>1697</ele>
        <time>2014-06-28T08:34:44.000Z</time>
      </trkpt>
      <trkpt lat="45.1463" lon="5.64132">
        <ele>1697</ele>
        <time>2014-06-28T08:34:45.000Z</time>
      </trkpt>
      <trkpt lat="45.1463" lon="5.64131">
        <ele>1697</ele>
        <time>2014-06-28T08:34:46.000Z</time>
      </trkpt>
      <trkpt lat="45.1463" lon="5.64131">
        <ele>1698</ele>
        <time>2014-06-28T08:34:47.000Z</time>
      </trkpt>
      <trkpt lat="45.1463" lon="5.64131">
        <ele>1698</ele>
        <time>2014-06-28T08:34:48.000Z</time>
      </trkpt>
      <trkpt lat="45.1463" lon="5.64131">
        <ele>1698</ele>
        <time>2014-06-28T08:34:49.000Z</time>
      </trkpt>
      <trkpt lat="45.1463" lon="5.6413">
        <ele>1698</ele>
        <time>2014-06-28T08:34:50.000Z</time>
      </trkpt>
      <trkpt lat="45.14629" lon="5.6413">
        <ele>1699</ele>
        <time>2014-06-28T08:34:51.000Z</time>
      </trkpt>
      <trkpt lat="45.14629" lon="5.64129">
        <ele>1699</ele>
        <time>2014-06-28T08:34:52.000Z</time>
      </trkpt>
      <trkpt lat="45.14629" lon="5.64128">
        <ele>1699</ele>
        <time>2014-06-28T08:34:53.000Z</time>
      </trkpt>
      <trkpt lat="45.14629" lon="5.64127">
        <ele>1699</ele>
        <time>2014-06-28T08:34:54.000Z</time>
      </trkpt>
      <trkpt lat="45.14628" lon="5.64127">
        <ele>1699</ele>
        <time>2014-06-28T08:34:55.000Z</time>
      </trkpt>
      <trkpt lat="45.14628" lon="5.64127">
        <ele>1700</ele>
        <time>2014-06-28T08:34:56.000Z</time>
      </trkpt>
      <trkpt lat="45.14628" lon="5.64126">
        <ele>1700</ele>
        <time>2014-06-28T08:34:57.000Z</time>
      </trkpt>
      <trkpt lat="45.14627" lon="5.64126">
        <ele>1700</ele>
        <time>2014-06-28T08:34:58.000Z</time>
      </trkpt>
      <trkpt lat="45.14627" lon="5.64126">
        <ele>1700</ele>
        <time>2014-06-28T08:34:59.000Z</time>
      </trkpt>
      <trkpt lat="45.14626" lon="5.64126">
        <ele>1700</ele>
        <time>2014-06-28T08:35:00.000Z</time>
      </trkpt>
      <trkpt lat="45.14626" lon="5.64125">
        <ele>1700</ele>
        <time>2014-06-28T08:35:01.000Z</time>
      </trkpt>
      <trkpt lat="45.14626" lon="5.64124">
        <ele>1701</ele>
        <time>2014-06-28T08:35:02.000Z</time>
      </trkpt>
      <trkpt lat="45.14626" lon="5.64124">
        <ele>1701</ele>
        <time>2014-06-28T08:35:03.000Z</time>
      </trkpt>
      <trkpt lat="45.14626" lon="5.64123">
        <ele>1701</ele>
        <time>2014-06-28T08:35:04.000Z</time>
      </trkpt>
      <trkpt lat="45.14626" lon="5.64122">
        <ele>1701</ele>
        <time>2014-06-28T08:35:05.000Z</time>
      </trkpt>
      <trkpt lat="45.14626" lon="5.64122">
        <ele>1701</ele>
        <time>2014-06-28T08:35:06.000Z</time>
      </trkpt>
      <trkpt lat="45.14626" lon="5.64121">
        <ele>1702</ele>
        <time>2014-06-28T08:35:07.000Z</time>
      </trkpt>
      <trkpt lat="45.14625" lon="5.6412">
        <ele>1702</ele>
        <time>2014-06-28T08:35:08.000Z</time>
      </trkpt>
      <trkpt lat="45.14625" lon="5.6412">
        <ele>1702</ele>
        <time>2014-06-28T08:35:09.000Z</time>
      </trkpt>
      <trkpt lat="45.14625" lon="5.64119">
        <ele>1702</ele>
        <time>2014-06-28T08:35:10.000Z</time>
      </trkpt>
      <trkpt lat="45.14624" lon="5.64118">
        <ele>1702</ele>
        <time>2014-06-28T08:35:11.000Z</time>
      </trkpt>
      <trkpt lat="45.14623" lon="5.64118">
        <ele>1703</ele>
        <time>2014-06-28T08:35:12.000Z</time>
      </trkpt>
      <trkpt lat="45.14623" lon="5.64118">
        <ele>1703</ele>
        <time>2014-06-28T08:35:13.000Z</time>
      </trkpt>
      <trkpt lat="45.14623" lon="5.64117">
        <ele>1703</ele>
        <time>2014-06-28T08:35:14.000Z</time>
      </trkpt>
      <trkpt lat="45.14623" lon="5.64116">
        <ele>1703</ele>
        <time>2014-06-28T08:35:15.000Z</time>
      </trkpt>
      <trkpt lat="45.14623" lon="5.64116">
        <ele>1703</ele>
        <time>2014-06-28T08:35:16.000Z</time>
      </trkpt>
      <trkpt lat="45.14623" lon="5.64115">
        <ele>1703</ele>
        <time>2014-06-28T08:35:17.000Z</time>
      </trkpt>
      <trkpt lat="45.14623" lon="5.64115">
        <ele>1703</ele>
        <time>2014-06-28T08:35:18.000Z</time>
      </trkpt>
      <trkpt lat="45.14623" lon="5.64115">
        <ele>1704</ele>
        <time>2014-06-28T08:35:19.000Z</time>
      </trkpt>
      <trkpt lat="45.14622" lon="5.64114">
        <ele>1704</ele>
        <time>2014-06-28T08:35:20.000Z</time>
      </trkpt>
      <trkpt lat="45.14622" lon="5.64114">
        <ele>1704</ele>
        <time>2014-06-28T08:35:21.000Z</time>
      </trkpt>
      <trkpt lat="45.14622" lon="5.64113">
        <ele>1704</ele>
        <time>2014-06-28T08:35:22.000Z</time>
      </trkpt>
      <trkpt lat="45.14621" lon="5.64113">
        <ele>1705</ele>
        <time>2014-06-28T08:35:23.000Z</time>
      </trkpt>
      <trkpt lat="45.14621" lon="5.64112">
        <ele>1705</ele>
        <time>2014-06-28T08:35:24.000Z</time>
      </trkpt>
      <trkpt lat="45.1462" lon="5.64111">
        <ele>1705</ele>
        <time>2014-06-28T08:35:25.000Z</time>
      </trkpt>
      <trkpt lat="45.1462" lon="5.6411">
        <ele>1706</ele>
        <time>2014-06-28T08:35:26.000Z</time>
      </trkpt>
      <trkpt lat="45.1462" lon="5.64109">
        <ele>1706</ele>
        <time>2014-06-28T08:35:27.000Z</time>
      </trkpt>
      <trkpt lat="45.1462" lon="5.64109">
        <ele>1706</ele>
        <time>2014-06-28T08:35:28.000Z</time>
      </trkpt>
      <trkpt lat="45.1462" lon="5.64108">
        <ele>1706</ele>
        <time>2014-06-28T08:35:29.000Z</time>
      </trkpt>
      <trkpt lat="45.1462" lon="5.64108">
        <ele>1706</ele>
        <time>2014-06-28T08:35:30.000Z</time>
      </trkpt>
      <trkpt lat="45.1462" lon="5.64108">
        <ele>1706</ele>
        <time>2014-06-28T08:35:31.000Z</time>
      </trkpt>
      <trkpt lat="45.14621" lon="5.64107">
        <ele>1706</ele>
        <time>2014-06-28T08:35:32.000Z</time>
      </trkpt>
      <trkpt lat="45.14621" lon="5.64107">
        <ele>1706</ele>
        <time>2014-06-28T08:35:33.000Z</time>
      </trkpt>
      <trkpt lat="45.14621" lon="5.64107">
        <ele>1707</ele>
        <time>2014-06-28T08:35:34.000Z</time>
      </trkpt>
      <trkpt lat="45.14621" lon="5.64107">
        <ele>1707</ele>
        <time>2014-06-28T08:35:35.000Z</time>
      </trkpt>
      <trkpt lat="45.14621" lon="5.64106">
        <ele>1707</ele>
        <time>2014-06-28T08:35:36.000Z</time>
      </trkpt>
      <trkpt lat="45.14622" lon="5.64106">
        <ele>1707</ele>
        <time>2014-06-28T08:35:37.000Z</time>
      </trkpt>
      <trkpt lat="45.14622" lon="5.64106">
        <ele>1707</ele>
        <time>2014-06-28T08:35:38.000Z</time>
      </trkpt>
      <trkpt lat="45.14622" lon="5.64105">
        <ele>1708</ele>
        <time>2014-06-28T08:35:39.000Z</time>
      </trkpt>
      <trkpt lat="45.14622" lon="5.64105">
        <ele>1708</ele>
        <time>2014-06-28T08:35:40.000Z</time>
      </trkpt>
      <trkpt lat="45.14623" lon="5.64105">
        <ele>1708</ele>
        <time>2014-06-28T08:35:41.000Z</time>
      </trkpt>
      <trkpt lat="45.14623" lon="5.64104">
        <ele>1708</ele>
        <time>2014-06-28T08:35:42.000Z</time>
      </trkpt>
      <trkpt lat="45.14623" lon="5.64104">
        <ele>1708</ele>
        <time>2014-06-28T08:35:43.000Z</time>
      </trkpt>
      <trkpt lat="45.14624" lon="5.64103">
        <ele>1709</ele>
        <time>2014-06-28T08:35:44.000Z</time>
      </trkpt>
      <trkpt lat="45.14624" lon="5.64102">
        <ele>1709</ele>
        <time>2014-06-28T08:35:45.000Z</time>
      </trkpt>
      <trkpt lat="45.14624" lon="5.64102">
        <ele>1709</ele>
        <time>2014-06-28T08:35:46.000Z</time>
      </trkpt>
      <trkpt lat="45.14624" lon="5.64101">
        <ele>1709</ele>
        <time>2014-06-28T08:35:47.000Z</time>
      </trkpt>
      <trkpt lat="45.14624" lon="5.64101">
        <ele>1709</ele>
        <time>2014-06-28T08:35:48.000Z</time>
      </trkpt>
      <trkpt lat="45.14624" lon="5.641">
        <ele>1710</ele>
        <time>2014-06-28T08:35:49.000Z</time>
      </trkpt>
      <trkpt lat="45.14624" lon="5.641">
        <ele>1710</ele>
        <time>2014-06-28T08:35:50.000Z</time>
      </trkpt>
      <trkpt lat="45.14624" lon="5.64099">
        <ele>1710</ele>
        <time>2014-06-28T08:35:51.000Z</time>
      </trkpt>
      <trkpt lat="45.14624" lon="5.64098">
        <ele>1710</ele>
        <time>2014-06-28T08:35:52.000Z</time>
      </trkpt>
      <trkpt lat="45.14624" lon="5.64098">
        <ele>1711</ele>
        <time>2014-06-28T08:35:53.000Z</time>
      </trkpt>
      <trkpt lat="45.14625" lon="5.64097">
        <ele>1711</ele>
        <time>2014-06-28T08:35:54.000Z</time>
      </trkpt>
      <trkpt lat="45.14625" lon="5.64097">
        <ele>1711</ele>
        <time>2014-06-28T08:35:55.000Z</time>
      </trkpt>
      <trkpt lat="45.14625" lon="5.64096">
        <ele>1712</ele>
        <time>2014-06-28T08:35:56.000Z</time>
      </trkpt>
      <trkpt lat="45.14625" lon="5.64096">
        <ele>1712</ele>
        <time>2014-06-28T08:35:57.000Z</time>
      </trkpt>
      <trkpt lat="45.14626" lon="5.64095">
        <ele>1712</ele>
        <time>2014-06-28T08:35:58.000Z</time>
      </trkpt>
      <trkpt lat="45.14626" lon="5.64094">
        <ele>1713</ele>
        <time>2014-06-28T08:35:59.000Z</time>
      </trkpt>
      <trkpt lat="45.14626" lon="5.64094">
        <ele>1713</ele>
        <time>2014-06-28T08:36:00.000Z</time>
      </trkpt>
      <trkpt lat="45.14625" lon="5.64093">
        <ele>1713</ele>
        <time>2014-06-28T08:36:01.000Z</time>
      </trkpt>
      <trkpt lat="45.14624" lon="5.64093">
        <ele>1714</ele>
        <time>2014-06-28T08:36:02.000Z</time>
      </trkpt>
      <trkpt lat="45.14624" lon="5.64092">
        <ele>1714</ele>
        <time>2014-06-28T08:36:03.000Z</time>
      </trkpt>
      <trkpt lat="45.14624" lon="5.64092">
        <ele>1714</ele>
        <time>2014-06-28T08:36:04.000Z</time>
      </trkpt>
      <trkpt lat="45.14624" lon="5.64091">
        <ele>1715</ele>
        <time>2014-06-28T08:36:05.000Z</time>
      </trkpt>
      <trkpt lat="45.14623" lon="5.6409">
        <ele>1715</ele>
        <time>2014-06-28T08:36:06.000Z</time>
      </trkpt>
      <trkpt lat="45.14623" lon="5.64089">
        <ele>1715</ele>
        <time>2014-06-28T08:36:07.000Z</time>
      </trkpt>
      <trkpt lat="45.14623" lon="5.64089">
        <ele>1715</ele>
        <time>2014-06-28T08:36:08.000Z</time>
      </trkpt>
      <trkpt lat="45.14623" lon="5.64088">
        <ele>1716</ele>
        <time>2014-06-28T08:36:09.000Z</time>
      </trkpt>
      <trkpt lat="45.14623" lon="5.64088">
        <ele>1716</ele>
        <time>2014-06-28T08:36:10.000Z</time>
      </trkpt>
      <trkpt lat="45.14623" lon="5.64087">
        <ele>1716</ele>
        <time>2014-06-28T08:36:11.000Z</time>
      </trkpt>
      <trkpt lat="45.14623" lon="5.64087">
        <ele>1716</ele>
        <time>2014-06-28T08:36:12.000Z</time>
      </trkpt>
      <trkpt lat="45.14623" lon="5.64086">
        <ele>1717</ele>
        <time>2014-06-28T08:36:13.000Z</time>
      </trkpt>
      <trkpt lat="45.14623" lon="5.64086">
        <ele>1717</ele>
        <time>2014-06-28T08:36:14.000Z</time>
      </trkpt>
      <trkpt lat="45.14623" lon="5.64086">
        <ele>1717</ele>
        <time>2014-06-28T08:36:15.000Z</time>
      </trkpt>
      <trkpt lat="45.14624" lon="5.64085">
        <ele>1717</ele>
        <time>2014-06-28T08:36:16.000Z</time>
      </trkpt>
      <trkpt lat="45.14624" lon="5.64085">
        <ele>1718</ele>
        <time>2014-06-28T08:36:17.000Z</time>
      </trkpt>
      <trkpt lat="45.14625" lon="5.64084">
        <ele>1718</ele>
        <time>2014-06-28T08:36:18.000Z</time>
      </trkpt>
      <trkpt lat="45.14625" lon="5.64084">
        <ele>1718</ele>
        <time>2014-06-28T08:36:19.000Z</time>
      </trkpt>
      <trkpt lat="45.14625" lon="5.64083">
        <ele>1718</ele>
        <time>2014-06-28T08:36:20.000Z</time>
      </trkpt>
      <trkpt lat="45.14625" lon="5.64083">
        <ele>1718</ele>
        <time>2014-06-28T08:36:21.000Z</time>
      </trkpt>
      <trkpt lat="45.14626" lon="5.64083">
        <ele>1719</ele>
        <time>2014-06-28T08:36:22.000Z</time>
      </trkpt>
      <trkpt lat="45.14626" lon="5.64083">
        <ele>1719</ele>
        <time>2014-06-28T08:36:23.000Z</time>
      </trkpt>
      <trkpt lat="45.14627" lon="5.64083">
        <ele>1719</ele>
        <time>2014-06-28T08:36:24.000Z</time>
      </trkpt>
      <trkpt lat="45.14627" lon="5.64083">
        <ele>1719</ele>
        <time>2014-06-28T08:36:25.000Z</time>
      </trkpt>
      <trkpt lat="45.14628" lon="5.64082">
        <ele>1719</ele>
        <time>2014-06-28T08:36:26.000Z</time>
      </trkpt>
      <trkpt lat="45.14628" lon="5.64082">
        <ele>1719</ele>
        <time>2014-06-28T08:36:27.000Z</time>
      </trkpt>
      <trkpt lat="45.14628" lon="5.64082">
        <ele>1719</ele>
        <time>2014-06-28T08:36:28.000Z</time>
      </trkpt>
      <trkpt lat="45.14629" lon="5.64081">
        <ele>1720</ele>
        <time>2014-06-28T08:36:29.000Z</time>
      </trkpt>
      <trkpt lat="45.14629" lon="5.64081">
        <ele>1720</ele>
        <time>2014-06-28T08:36:30.000Z</time>
      </trkpt>
      <trkpt lat="45.14629" lon="5.6408">
        <ele>1720</ele>
        <time>2014-06-28T08:36:31.000Z</time>
      </trkpt>
      <trkpt lat="45.14629" lon="5.6408">
        <ele>1720</ele>
        <time>2014-06-28T08:36:32.000Z</time>
      </trkpt>
      <trkpt lat="45.14629" lon="5.64079">
        <ele>1720</ele>
        <time>2014-06-28T08:36:33.000Z</time>
      </trkpt>
      <trkpt lat="45.14629" lon="5.64079">
        <ele>1720</ele>
        <time>2014-06-28T08:36:34.000Z</time>
      </trkpt>
      <trkpt lat="45.14629" lon="5.64079">
        <ele>1720</ele>
        <time>2014-06-28T08:36:35.000Z</time>
      </trkpt>
      <trkpt lat="45.14629" lon="5.64078">
        <ele>1720</ele>
        <time>2014-06-28T08:36:36.000Z</time>
      </trkpt>
      <trkpt lat="45.14629" lon="5.64078">
        <ele>1720</ele>
        <time>2014-06-28T08:36:37.000Z</time>
      </trkpt>
      <trkpt lat="45.14628" lon="5.64077">
        <ele>1720</ele>
        <time>2014-06-28T08:36:38.000Z</time>
      </trkpt>
      <trkpt lat="45.14628" lon="5.64076">
        <ele>1720</ele>
        <time>2014-06-28T08:36:39.000Z</time>
      </trkpt>
      <trkpt lat="45.14628" lon="5.64076">
        <ele>1721</ele>
        <time>2014-06-28T08:36:40.000Z</time>
      </trkpt>
      <trkpt lat="45.14628" lon="5.64076">
        <ele>1721</ele>
        <time>2014-06-28T08:36:41.000Z</time>
      </trkpt>
      <trkpt lat="45.14629" lon="5.64075">
        <ele>1721</ele>
        <time>2014-06-28T08:36:42.000Z</time>
      </trkpt>
      <trkpt lat="45.14629" lon="5.64075">
        <ele>1721</ele>
        <time>2014-06-28T08:36:43.000Z</time>
      </trkpt>
      <trkpt lat="45.14629" lon="5.64075">
        <ele>1721</ele>
        <time>2014-06-28T08:36:44.000Z</time>
      </trkpt>
      <trkpt lat="45.1463" lon="5.64074">
        <ele>1721</ele>
        <time>2014-06-28T08:36:45.000Z</time>
      </trkpt>
      <trkpt lat="45.1463" lon="5.64074">
        <ele>1721</ele>
        <time>2014-06-28T08:36:46.000Z</time>
      </trkpt>
      <trkpt lat="45.1463" lon="5.64074">
        <ele>1721</ele>
        <time>2014-06-28T08:36:47.000Z</time>
      </trkpt>
      <trkpt lat="45.1463" lon="5.64074">
        <ele>1721</ele>
        <time>2014-06-28T08:36:48.000Z</time>
      </trkpt>
      <trkpt lat="45.1463" lon="5.64074">
        <ele>1722</ele>
        <time>2014-06-28T08:36:49.000Z</time>
      </trkpt>
      <trkpt lat="45.14631" lon="5.64073">
        <ele>1722</ele>
        <time>2014-06-28T08:36:50.000Z</time>
      </trkpt>
      <trkpt lat="45.14631" lon="5.64073">
        <ele>1722</ele>
        <time>2014-06-28T08:36:51.000Z</time>
      </trkpt>
      <trkpt lat="45.14631" lon="5.64073">
        <ele>1722</ele>
        <time>2014-06-28T08:36:52.000Z</time>
      </trkpt>
      <trkpt lat="45.14631" lon="5.64073">
        <ele>1722</ele>
        <time>2014-06-28T08:36:53.000Z</time>
      </trkpt>
      <trkpt lat="45.14631" lon="5.64072">
        <ele>1722</ele>
        <time>2014-06-28T08:36:54.000Z</time>
      </trkpt>
      <trkpt lat="45.14632" lon="5.64072">
        <ele>1722</ele>
        <time>2014-06-28T08:36:55.000Z</time>
      </trkpt>
      <trkpt lat="45.14632" lon="5.64072">
        <ele>1722</ele>
        <time>2014-06-28T08:36:56.000Z</time>
      </trkpt>
      <trkpt lat="45.14632" lon="5.64071">
        <ele>1722</ele>
        <time>2014-06-28T08:36:57.000Z</time>
      </trkpt>
      <trkpt lat="45.14633" lon="5.64071">
        <ele>1722</ele>
        <time>2014-06-28T08:36:58.000Z</time>
      </trkpt>
      <trkpt lat="45.14633" lon="5.64071">
        <ele>1723</ele>
        <time>2014-06-28T08:36:59.000Z</time>
      </trkpt>
      <trkpt lat="45.14634" lon="5.6407">
        <ele>1723</ele>
        <time>2014-06-28T08:37:00.000Z</time>
      </trkpt>
      <trkpt lat="45.14634" lon="5.6407">
        <ele>1723</ele>
        <time>2014-06-28T08:37:01.000Z</time>
      </trkpt>
      <trkpt lat="45.14635" lon="5.6407">
        <ele>1723</ele>
        <time>2014-06-28T08:37:02.000Z</time>
      </trkpt>
      <trkpt lat="45.14636" lon="5.64069">
        <ele>1723</ele>
        <time>2014-06-28T08:37:03.000Z</time>
      </trkpt>
      <trkpt lat="45.14636" lon="5.64069">
        <ele>1723</ele>
        <time>2014-06-28T08:37:04.000Z</time>
      </trkpt>
      <trkpt lat="45.14636" lon="5.64068">
        <ele>1723</ele>
        <time>2014-06-28T08:37:05.000Z</time>
      </trkpt>
      <trkpt lat="45.14636" lon="5.64068">
        <ele>1723</ele>
        <time>2014-06-28T08:37:06.000Z</time>
      </trkpt>
      <trkpt lat="45.14637" lon="5.64067">
        <ele>1723</ele>
        <time>2014-06-28T08:37:07.000Z</time>
      </trkpt>
      <trkpt lat="45.14637" lon="5.64067">
        <ele>1724</ele>
        <time>2014-06-28T08:37:08.000Z</time>
      </trkpt>
      <trkpt lat="45.14637" lon="5.64067">
        <ele>1724</ele>
        <time>2014-06-28T08:37:09.000Z</time>
      </trkpt>
      <trkpt lat="45.14637" lon="5.64067">
        <ele>1724</ele>
        <time>2014-06-28T08:37:10.000Z</time>
      </trkpt>
      <trkpt lat="45.14638" lon="5.64067">
        <ele>1724</ele>
        <time>2014-06-28T08:37:11.000Z</time>
      </trkpt>
      <trkpt lat="45.14637" lon="5.64066">
        <ele>1724</ele>
        <time>2014-06-28T08:37:12.000Z</time>
      </trkpt>
      <trkpt lat="45.14638" lon="5.64066">
        <ele>1724</ele>
        <time>2014-06-28T08:37:13.000Z</time>
      </trkpt>
      <trkpt lat="45.14637" lon="5.64066">
        <ele>1724</ele>
        <time>2014-06-28T08:37:14.000Z</time>
      </trkpt>
      <trkpt lat="45.14638" lon="5.64066">
        <ele>1725</ele>
        <time>2014-06-28T08:37:15.000Z</time>
      </trkpt>
      <trkpt lat="45.14638" lon="5.64066">
        <ele>1725</ele>
        <time>2014-06-28T08:37:16.000Z</time>
      </trkpt>
      <trkpt lat="45.14638" lon="5.64066">
        <ele>1725</ele>
        <time>2014-06-28T08:37:17.000Z</time>
      </trkpt>
      <trkpt lat="45.14638" lon="5.64066">
        <ele>1725</ele>
        <time>2014-06-28T08:37:18.000Z</time>
      </trkpt>
      <trkpt lat="45.14638" lon="5.64066">
        <ele>1725</ele>
        <time>2014-06-28T08:37:19.000Z</time>
      </trkpt>
      <trkpt lat="45.14638" lon="5.64066">
        <ele>1726</ele>
        <time>2014-06-28T08:37:20.000Z</time>
      </trkpt>
      <trkpt lat="45.14638" lon="5.64065">
        <ele>1726</ele>
        <time>2014-06-28T08:37:21.000Z</time>
      </trkpt>
      <trkpt lat="45.14638" lon="5.64065">
        <ele>1726</ele>
        <time>2014-06-28T08:37:22.000Z</time>
      </trkpt>
      <trkpt lat="45.14638" lon="5.64065">
        <ele>1726</ele>
        <time>2014-06-28T08:37:23.000Z</time>
      </trkpt>
      <trkpt lat="45.14639" lon="5.64065">
        <ele>1726</ele>
        <time>2014-06-28T08:37:24.000Z</time>
      </trkpt>
      <trkpt lat="45.1464" lon="5.64065">
        <ele>1726</ele>
        <time>2014-06-28T08:37:25.000Z</time>
      </trkpt>
      <trkpt lat="45.1464" lon="5.64066">
        <ele>1726</ele>
        <time>2014-06-28T08:37:26.000Z</time>
      </trkpt>
      <trkpt lat="45.1464" lon="5.64065">
        <ele>1727</ele>
        <time>2014-06-28T08:37:27.000Z</time>
      </trkpt>
      <trkpt lat="45.14639" lon="5.64064">
        <ele>1727</ele>
        <time>2014-06-28T08:37:28.000Z</time>
      </trkpt>
      <trkpt lat="45.14639" lon="5.64063">
        <ele>1727</ele>
        <time>2014-06-28T08:37:29.000Z</time>
      </trkpt>
      <trkpt lat="45.1464" lon="5.64063">
        <ele>1727</ele>
        <time>2014-06-28T08:37:30.000Z</time>
      </trkpt>
      <trkpt lat="45.1464" lon="5.64062">
        <ele>1727</ele>
        <time>2014-06-28T08:37:31.000Z</time>
      </trkpt>
      <trkpt lat="45.14641" lon="5.64062">
        <ele>1727</ele>
        <time>2014-06-28T08:37:32.000Z</time>
      </trkpt>
      <trkpt lat="45.14641" lon="5.64062">
        <ele>1727</ele>
        <time>2014-06-28T08:37:33.000Z</time>
      </trkpt>
      <trkpt lat="45.14642" lon="5.64062">
        <ele>1727</ele>
        <time>2014-06-28T08:37:34.000Z</time>
      </trkpt>
      <trkpt lat="45.14642" lon="5.64063">
        <ele>1727</ele>
        <time>2014-06-28T08:37:35.000Z</time>
      </trkpt>
      <trkpt lat="45.14642" lon="5.64063">
        <ele>1728</ele>
        <time>2014-06-28T08:37:36.000Z</time>
      </trkpt>
      <trkpt lat="45.14643" lon="5.64063">
        <ele>1728</ele>
        <time>2014-06-28T08:37:37.000Z</time>
      </trkpt>
      <trkpt lat="45.14644" lon="5.64063">
        <ele>1728</ele>
        <time>2014-06-28T08:37:38.000Z</time>
      </trkpt>
      <trkpt lat="45.14644" lon="5.64063">
        <ele>1728</ele>
        <time>2014-06-28T08:37:39.000Z</time>
      </trkpt>
      <trkpt lat="45.14645" lon="5.64063">
        <ele>1728</ele>
        <time>2014-06-28T08:37:40.000Z</time>
      </trkpt>
      <trkpt lat="45.14646" lon="5.64063">
        <ele>1728</ele>
        <time>2014-06-28T08:37:41.000Z</time>
      </trkpt>
      <trkpt lat="45.14646" lon="5.64063">
        <ele>1728</ele>
        <time>2014-06-28T08:37:42.000Z</time>
      </trkpt>
      <trkpt lat="45.14647" lon="5.64063">
        <ele>1729</ele>
        <time>2014-06-28T08:37:43.000Z</time>
      </trkpt>
      <trkpt lat="45.14647" lon="5.64063">
        <ele>1729</ele>
        <time>2014-06-28T08:37:44.000Z</time>
      </trkpt>
      <trkpt lat="45.14647" lon="5.64063">
        <ele>1729</ele>
        <time>2014-06-28T08:37:45.000Z</time>
      </trkpt>
      <trkpt lat="45.14648" lon="5.64063">
        <ele>1730</ele>
        <time>2014-06-28T08:37:46.000Z</time>
      </trkpt>
      <trkpt lat="45.14649" lon="5.64063">
        <ele>1730</ele>
        <time>2014-06-28T08:37:47.000Z</time>
      </trkpt>
      <trkpt lat="45.1465" lon="5.64063">
        <ele>1731</ele>
        <time>2014-06-28T08:37:48.000Z</time>
      </trkpt>
      <trkpt lat="45.1465" lon="5.64064">
        <ele>1731</ele>
        <time>2014-06-28T08:37:49.000Z</time>
      </trkpt>
      <trkpt lat="45.14651" lon="5.64064">
        <ele>1731</ele>
        <time>2014-06-28T08:37:50.000Z</time>
      </trkpt>
      <trkpt lat="45.14651" lon="5.64064">
        <ele>1731</ele>
        <time>2014-06-28T08:37:51.000Z</time>
      </trkpt>
      <trkpt lat="45.14651" lon="5.64064">
        <ele>1732</ele>
        <time>2014-06-28T08:37:52.000Z</time>
      </trkpt>
      <trkpt lat="45.14651" lon="5.64064">
        <ele>1732</ele>
        <time>2014-06-28T08:37:53.000Z</time>
      </trkpt>
      <trkpt lat="45.14651" lon="5.64063">
        <ele>1732</ele>
        <time>2014-06-28T08:37:54.000Z</time>
      </trkpt>
      <trkpt lat="45.14651" lon="5.64063">
        <ele>1732</ele>
        <time>2014-06-28T08:37:55.000Z</time>
      </trkpt>
      <trkpt lat="45.14652" lon="5.64062">
        <ele>1733</ele>
        <time>2014-06-28T08:37:56.000Z</time>
      </trkpt>
      <trkpt lat="45.14651" lon="5.64062">
        <ele>1733</ele>
        <time>2014-06-28T08:37:57.000Z</time>
      </trkpt>
      <trkpt lat="45.14651" lon="5.64061">
        <ele>1733</ele>
        <time>2014-06-28T08:37:58.000Z</time>
      </trkpt>
      <trkpt lat="45.14651" lon="5.6406">
        <ele>1733</ele>
        <time>2014-06-28T08:37:59.000Z</time>
      </trkpt>
      <trkpt lat="45.14651" lon="5.6406">
        <ele>1733</ele>
        <time>2014-06-28T08:38:00.000Z</time>
      </trkpt>
      <trkpt lat="45.14651" lon="5.64059">
        <ele>1733</ele>
        <time>2014-06-28T08:38:01.000Z</time>
      </trkpt>
      <trkpt lat="45.14651" lon="5.64059">
        <ele>1734</ele>
        <time>2014-06-28T08:38:02.000Z</time>
      </trkpt>
      <trkpt lat="45.14651" lon="5.64059">
        <ele>1734</ele>
        <time>2014-06-28T08:38:03.000Z</time>
      </trkpt>
      <trkpt lat="45.14651" lon="5.64059">
        <ele>1734</ele>
        <time>2014-06-28T08:38:04.000Z</time>
      </trkpt>
      <trkpt lat="45.14651" lon="5.64059">
        <ele>1734</ele>
        <time>2014-06-28T08:38:05.000Z</time>
      </trkpt>
      <trkpt lat="45.14652" lon="5.64058">
        <ele>1734</ele>
        <time>2014-06-28T08:38:06.000Z</time>
      </trkpt>
      <trkpt lat="45.14652" lon="5.64058">
        <ele>1734</ele>
        <time>2014-06-28T08:38:07.000Z</time>
      </trkpt>
      <trkpt lat="45.14652" lon="5.64057">
        <ele>1734</ele>
        <time>2014-06-28T08:38:08.000Z</time>
      </trkpt>
      <trkpt lat="45.14652" lon="5.64057">
        <ele>1734</ele>
        <time>2014-06-28T08:38:09.000Z</time>
      </trkpt>
      <trkpt lat="45.14653" lon="5.64056">
        <ele>1734</ele>
        <time>2014-06-28T08:38:10.000Z</time>
      </trkpt>
      <trkpt lat="45.14653" lon="5.64056">
        <ele>1734</ele>
        <time>2014-06-28T08:38:11.000Z</time>
      </trkpt>
      <trkpt lat="45.14653" lon="5.64056">
        <ele>1735</ele>
        <time>2014-06-28T08:38:12.000Z</time>
      </trkpt>
      <trkpt lat="45.14653" lon="5.64055">
        <ele>1735</ele>
        <time>2014-06-28T08:38:13.000Z</time>
      </trkpt>
      <trkpt lat="45.14654" lon="5.64055">
        <ele>1735</ele>
        <time>2014-06-28T08:38:14.000Z</time>
      </trkpt>
      <trkpt lat="45.14654" lon="5.64054">
        <ele>1735</ele>
        <time>2014-06-28T08:38:15.000Z</time>
      </trkpt>
      <trkpt lat="45.14654" lon="5.64053">
        <ele>1735</ele>
        <time>2014-06-28T08:38:16.000Z</time>
      </trkpt>
      <trkpt lat="45.14654" lon="5.64053">
        <ele>1735</ele>
        <time>2014-06-28T08:38:17.000Z</time>
      </trkpt>
      <trkpt lat="45.14654" lon="5.64052">
        <ele>1735</ele>
        <time>2014-06-28T08:38:18.000Z</time>
      </trkpt>
      <trkpt lat="45.14654" lon="5.64052">
        <ele>1735</ele>
        <time>2014-06-28T08:38:19.000Z</time>
      </trkpt>
      <trkpt lat="45.14654" lon="5.64051">
        <ele>1735</ele>
        <time>2014-06-28T08:38:20.000Z</time>
      </trkpt>
      <trkpt lat="45.14655" lon="5.64051">
        <ele>1735</ele>
        <time>2014-06-28T08:38:21.000Z</time>
      </trkpt>
      <trkpt lat="45.14655" lon="5.6405">
        <ele>1735</ele>
        <time>2014-06-28T08:38:22.000Z</time>
      </trkpt>
      <trkpt lat="45.14655" lon="5.6405">
        <ele>1736</ele>
        <time>2014-06-28T08:38:23.000Z</time>
      </trkpt>
      <trkpt lat="45.14656" lon="5.64049">
        <ele>1736</ele>
        <time>2014-06-28T08:38:24.000Z</time>
      </trkpt>
      <trkpt lat="45.14656" lon="5.64049">
        <ele>1736</ele>
        <time>2014-06-28T08:38:25.000Z</time>
      </trkpt>
      <trkpt lat="45.14657" lon="5.64049">
        <ele>1736</ele>
        <time>2014-06-28T08:38:26.000Z</time>
      </trkpt>
      <trkpt lat="45.14657" lon="5.64049">
        <ele>1736</ele>
        <time>2014-06-28T08:38:27.000Z</time>
      </trkpt>
      <trkpt lat="45.14657" lon="5.64049">
        <ele>1736</ele>
        <time>2014-06-28T08:38:28.000Z</time>
      </trkpt>
      <trkpt lat="45.14658" lon="5.64049">
        <ele>1736</ele>
        <time>2014-06-28T08:38:29.000Z</time>
      </trkpt>
      <trkpt lat="45.14658" lon="5.64049">
        <ele>1736</ele>
        <time>2014-06-28T08:38:30.000Z</time>
      </trkpt>
      <trkpt lat="45.14659" lon="5.64049">
        <ele>1736</ele>
        <time>2014-06-28T08:38:31.000Z</time>
      </trkpt>
      <trkpt lat="45.14659" lon="5.64049">
        <ele>1736</ele>
        <time>2014-06-28T08:38:32.000Z</time>
      </trkpt>
      <trkpt lat="45.14659" lon="5.64049">
        <ele>1737</ele>
        <time>2014-06-28T08:38:33.000Z</time>
      </trkpt>
      <trkpt lat="45.14659" lon="5.64049">
        <ele>1737</ele>
        <time>2014-06-28T08:38:34.000Z</time>
      </trkpt>
      <trkpt lat="45.14659" lon="5.64049">
        <ele>1737</ele>
        <time>2014-06-28T08:38:35.000Z</time>
      </trkpt>
      <trkpt lat="45.14659" lon="5.64049">
        <ele>1737</ele>
        <time>2014-06-28T08:38:36.000Z</time>
      </trkpt>
      <trkpt lat="45.14659" lon="5.64048">
        <ele>1737</ele>
        <time>2014-06-28T08:38:37.000Z</time>
      </trkpt>
      <trkpt lat="45.1466" lon="5.64049">
        <ele>1737</ele>
        <time>2014-06-28T08:38:38.000Z</time>
      </trkpt>
      <trkpt lat="45.1466" lon="5.64048">
        <ele>1738</ele>
        <time>2014-06-28T08:38:39.000Z</time>
      </trkpt>
      <trkpt lat="45.14661" lon="5.64048">
        <ele>1738</ele>
        <time>2014-06-28T08:38:40.000Z</time>
      </trkpt>
      <trkpt lat="45.14661" lon="5.64048">
        <ele>1738</ele>
        <time>2014-06-28T08:38:41.000Z</time>
      </trkpt>
      <trkpt lat="45.14661" lon="5.64048">
        <ele>1738</ele>
        <time>2014-06-28T08:38:42.000Z</time>
      </trkpt>
      <trkpt lat="45.14662" lon="5.64048">
        <ele>1738</ele>
        <time>2014-06-28T08:38:43.000Z</time>
      </trkpt>
      <trkpt lat="45.14662" lon="5.64048">
        <ele>1739</ele>
        <time>2014-06-28T08:38:44.000Z</time>
      </trkpt>
      <trkpt lat="45.14662" lon="5.64047">
        <ele>1739</ele>
        <time>2014-06-28T08:38:45.000Z</time>
      </trkpt>
      <trkpt lat="45.14663" lon="5.64047">
        <ele>1739</ele>
        <time>2014-06-28T08:38:46.000Z</time>
      </trkpt>
      <trkpt lat="45.14663" lon="5.64047">
        <ele>1740</ele>
        <time>2014-06-28T08:38:47.000Z</time>
      </trkpt>
      <trkpt lat="45.14663" lon="5.64047">
        <ele>1740</ele>
        <time>2014-06-28T08:38:48.000Z</time>
      </trkpt>
      <trkpt lat="45.14663" lon="5.64046">
        <ele>1740</ele>
        <time>2014-06-28T08:38:49.000Z</time>
      </trkpt>
      <trkpt lat="45.14663" lon="5.64046">
        <ele>1741</ele>
        <time>2014-06-28T08:38:50.000Z</time>
      </trkpt>
      <trkpt lat="45.14663" lon="5.64047">
        <ele>1741</ele>
        <time>2014-06-28T08:38:51.000Z</time>
      </trkpt>
      <trkpt lat="45.14664" lon="5.64046">
        <ele>1741</ele>
        <time>2014-06-28T08:38:52.000Z</time>
      </trkpt>
      <trkpt lat="45.14664" lon="5.64046">
        <ele>1741</ele>
        <time>2014-06-28T08:38:53.000Z</time>
      </trkpt>
      <trkpt lat="45.14664" lon="5.64046">
        <ele>1742</ele>
        <time>2014-06-28T08:38:54.000Z</time>
      </trkpt>
      <trkpt lat="45.14664" lon="5.64046">
        <ele>1742</ele>
        <time>2014-06-28T08:38:55.000Z</time>
      </trkpt>
      <trkpt lat="45.14664" lon="5.64045">
        <ele>1742</ele>
        <time>2014-06-28T08:38:56.000Z</time>
      </trkpt>
      <trkpt lat="45.14664" lon="5.64045">
        <ele>1743</ele>
        <time>2014-06-28T08:38:57.000Z</time>
      </trkpt>
      <trkpt lat="45.14664" lon="5.64044">
        <ele>1743</ele>
        <time>2014-06-28T08:38:58.000Z</time>
      </trkpt>
      <trkpt lat="45.14664" lon="5.64043">
        <ele>1743</ele>
        <time>2014-06-28T08:38:59.000Z</time>
      </trkpt>
      <trkpt lat="45.14664" lon="5.64043">
        <ele>1744</ele>
        <time>2014-06-28T08:39:00.000Z</time>
      </trkpt>
      <trkpt lat="45.14665" lon="5.64043">
        <ele>1744</ele>
        <time>2014-06-28T08:39:01.000Z</time>
      </trkpt>
      <trkpt lat="45.14666" lon="5.64043">
        <ele>1744</ele>
        <time>2014-06-28T08:39:02.000Z</time>
      </trkpt>
      <trkpt lat="45.14666" lon="5.64043">
        <ele>1745</ele>
        <time>2014-06-28T08:39:03.000Z</time>
      </trkpt>
      <trkpt lat="45.14667" lon="5.64043">
        <ele>1745</ele>
        <time>2014-06-28T08:39:04.000Z</time>
      </trkpt>
      <trkpt lat="45.14667" lon="5.64043">
        <ele>1745</ele>
        <time>2014-06-28T08:39:05.000Z</time>
      </trkpt>
      <trkpt lat="45.14668" lon="5.64042">
        <ele>1745</ele>
        <time>2014-06-28T08:39:06.000Z</time>
      </trkpt>
      <trkpt lat="45.14668" lon="5.64043">
        <ele>1746</ele>
        <time>2014-06-28T08:39:07.000Z</time>
      </trkpt>
      <trkpt lat="45.14669" lon="5.64043">
        <ele>1746</ele>
        <time>2014-06-28T08:39:08.000Z</time>
      </trkpt>
      <trkpt lat="45.14669" lon="5.64042">
        <ele>1746</ele>
        <time>2014-06-28T08:39:09.000Z</time>
      </trkpt>
      <trkpt lat="45.14669" lon="5.64042">
        <ele>1746</ele>
        <time>2014-06-28T08:39:10.000Z</time>
      </trkpt>
      <trkpt lat="45.14669" lon="5.64042">
        <ele>1746</ele>
        <time>2014-06-28T08:39:11.000Z</time>
      </trkpt>
      <trkpt lat="45.14669" lon="5.64042">
        <ele>1746</ele>
        <time>2014-06-28T08:39:12.000Z</time>
      </trkpt>
      <trkpt lat="45.14669" lon="5.64042">
        <ele>1747</ele>
        <time>2014-06-28T08:39:13.000Z</time>
      </trkpt>
      <trkpt lat="45.14669" lon="5.64041">
        <ele>1747</ele>
        <time>2014-06-28T08:39:14.000Z</time>
      </trkpt>
      <trkpt lat="45.14669" lon="5.64041">
        <ele>1747</ele>
        <time>2014-06-28T08:39:15.000Z</time>
      </trkpt>
      <trkpt lat="45.14669" lon="5.6404">
        <ele>1747</ele>
        <time>2014-06-28T08:39:16.000Z</time>
      </trkpt>
      <trkpt lat="45.14669" lon="5.64039">
        <ele>1747</ele>
        <time>2014-06-28T08:39:17.000Z</time>
      </trkpt>
      <trkpt lat="45.14668" lon="5.64039">
        <ele>1747</ele>
        <time>2014-06-28T08:39:18.000Z</time>
      </trkpt>
      <trkpt lat="45.14668" lon="5.64038">
        <ele>1747</ele>
        <time>2014-06-28T08:39:19.000Z</time>
      </trkpt>
      <trkpt lat="45.14668" lon="5.64037">
        <ele>1748</ele>
        <time>2014-06-28T08:39:20.000Z</time>
      </trkpt>
      <trkpt lat="45.14667" lon="5.64037">
        <ele>1748</ele>
        <time>2014-06-28T08:39:21.000Z</time>
      </trkpt>
      <trkpt lat="45.14667" lon="5.64037">
        <ele>1748</ele>
        <time>2014-06-28T08:39:22.000Z</time>
      </trkpt>
      <trkpt lat="45.14668" lon="5.64036">
        <ele>1748</ele>
        <time>2014-06-28T08:39:23.000Z</time>
      </trkpt>
      <trkpt lat="45.14668" lon="5.64036">
        <ele>1748</ele>
        <time>2014-06-28T08:39:24.000Z</time>
      </trkpt>
      <trkpt lat="45.14667" lon="5.64036">
        <ele>1748</ele>
        <time>2014-06-28T08:39:25.000Z</time>
      </trkpt>
      <trkpt lat="45.14667" lon="5.64035">
        <ele>1748</ele>
        <time>2014-06-28T08:39:26.000Z</time>
      </trkpt>
      <trkpt lat="45.14667" lon="5.64035">
        <ele>1748</ele>
        <time>2014-06-28T08:39:27.000Z</time>
      </trkpt>
      <trkpt lat="45.14667" lon="5.64035">
        <ele>1748</ele>
        <time>2014-06-28T08:39:28.000Z</time>
      </trkpt>
      <trkpt lat="45.14667" lon="5.64034">
        <ele>1748</ele>
        <time>2014-06-28T08:39:29.000Z</time>
      </trkpt>
      <trkpt lat="45.14667" lon="5.64034">
        <ele>1748</ele>
        <time>2014-06-28T08:39:30.000Z</time>
      </trkpt>
      <trkpt lat="45.14667" lon="5.64034">
        <ele>1748</ele>
        <time>2014-06-28T08:39:31.000Z</time>
      </trkpt>
      <trkpt lat="45.14666" lon="5.64034">
        <ele>1748</ele>
        <time>2014-06-28T08:39:32.000Z</time>
      </trkpt>
      <trkpt lat="45.14666" lon="5.64034">
        <ele>1748</ele>
        <time>2014-06-28T08:39:33.000Z</time>
      </trkpt>
      <trkpt lat="45.14666" lon="5.64033">
        <ele>1748</ele>
        <time>2014-06-28T08:39:34.000Z</time>
      </trkpt>
      <trkpt lat="45.14665" lon="5.64033">
        <ele>1749</ele>
        <time>2014-06-28T08:39:35.000Z</time>
      </trkpt>
      <trkpt lat="45.14665" lon="5.64032">
        <ele>1749</ele>
        <time>2014-06-28T08:39:36.000Z</time>
      </trkpt>
      <trkpt lat="45.14665" lon="5.64032">
        <ele>1749</ele>
        <time>2014-06-28T08:39:37.000Z</time>
      </trkpt>
      <trkpt lat="45.14664" lon="5.64031">
        <ele>1749</ele>
        <time>2014-06-28T08:39:38.000Z</time>
      </trkpt>
      <trkpt lat="45.14663" lon="5.6403">
        <ele>1749</ele>
        <time>2014-06-28T08:39:39.000Z</time>
      </trkpt>
      <trkpt lat="45.14662" lon="5.6403">
        <ele>1749</ele>
        <time>2014-06-28T08:39:40.000Z</time>
      </trkpt>
      <trkpt lat="45.14661" lon="5.64029">
        <ele>1749</ele>
        <time>2014-06-28T08:39:41.000Z</time>
      </trkpt>
      <trkpt lat="45.14661" lon="5.64028">
        <ele>1749</ele>
        <time>2014-06-28T08:39:42.000Z</time>
      </trkpt>
      <trkpt lat="45.1466" lon="5.64028">
        <ele>1749</ele>
        <time>2014-06-28T08:39:43.000Z</time>
      </trkpt>
      <trkpt lat="45.1466" lon="5.64027">
        <ele>1749</ele>
        <time>2014-06-28T08:39:44.000Z</time>
      </trkpt>
      <trkpt lat="45.1466" lon="5.64026">
        <ele>1749</ele>
        <time>2014-06-28T08:39:45.000Z</time>
      </trkpt>
      <trkpt lat="45.1466" lon="5.64026">
        <ele>1749</ele>
        <time>2014-06-28T08:39:46.000Z</time>
      </trkpt>
      <trkpt lat="45.1466" lon="5.64025">
        <ele>1749</ele>
        <time>2014-06-28T08:39:47.000Z</time>
      </trkpt>
      <trkpt lat="45.1466" lon="5.64025">
        <ele>1749</ele>
        <time>2014-06-28T08:39:48.000Z</time>
      </trkpt>
      <trkpt lat="45.1466" lon="5.64024">
        <ele>1750</ele>
        <time>2014-06-28T08:39:49.000Z</time>
      </trkpt>
      <trkpt lat="45.1466" lon="5.64023">
        <ele>1750</ele>
        <time>2014-06-28T08:39:50.000Z</time>
      </trkpt>
      <trkpt lat="45.1466" lon="5.64023">
        <ele>1750</ele>
        <time>2014-06-28T08:39:51.000Z</time>
      </trkpt>
      <trkpt lat="45.14659" lon="5.64021">
        <ele>1750</ele>
        <time>2014-06-28T08:39:52.000Z</time>
      </trkpt>
      <trkpt lat="45.14659" lon="5.6402">
        <ele>1750</ele>
        <time>2014-06-28T08:39:53.000Z</time>
      </trkpt>
      <trkpt lat="45.14659" lon="5.6402">
        <ele>1750</ele>
        <time>2014-06-28T08:39:54.000Z</time>
      </trkpt>
      <trkpt lat="45.14659" lon="5.64019">
        <ele>1750</ele>
        <time>2014-06-28T08:39:55.000Z</time>
      </trkpt>
      <trkpt lat="45.14659" lon="5.6402">
        <ele>1750</ele>
        <time>2014-06-28T08:39:56.000Z</time>
      </trkpt>
      <trkpt lat="45.14659" lon="5.64019">
        <ele>1750</ele>
        <time>2014-06-28T08:39:57.000Z</time>
      </trkpt>
      <trkpt lat="45.14659" lon="5.64019">
        <ele>1750</ele>
        <time>2014-06-28T08:39:58.000Z</time>
      </trkpt>
      <trkpt lat="45.14658" lon="5.64018">
        <ele>1750</ele>
        <time>2014-06-28T08:39:59.000Z</time>
      </trkpt>
      <trkpt lat="45.14658" lon="5.64017">
        <ele>1750</ele>
        <time>2014-06-28T08:40:00.000Z</time>
      </trkpt>
      <trkpt lat="45.14657" lon="5.64017">
        <ele>1750</ele>
        <time>2014-06-28T08:40:01.000Z</time>
      </trkpt>
      <trkpt lat="45.14657" lon="5.64016">
        <ele>1750</ele>
        <time>2014-06-28T08:40:02.000Z</time>
      </trkpt>
      <trkpt lat="45.14657" lon="5.64016">
        <ele>1750</ele>
        <time>2014-06-28T08:40:03.000Z</time>
      </trkpt>
      <trkpt lat="45.14657" lon="5.64015">
        <ele>1750</ele>
        <time>2014-06-28T08:40:04.000Z</time>
      </trkpt>
      <trkpt lat="45.14657" lon="5.64014">
        <ele>1751</ele>
        <time>2014-06-28T08:40:05.000Z</time>
      </trkpt>
      <trkpt lat="45.14656" lon="5.64014">
        <ele>1751</ele>
        <time>2014-06-28T08:40:06.000Z</time>
      </trkpt>
      <trkpt lat="45.14656" lon="5.64013">
        <ele>1751</ele>
        <time>2014-06-28T08:40:07.000Z</time>
      </trkpt>
      <trkpt lat="45.14656" lon="5.64013">
        <ele>1751</ele>
        <time>2014-06-28T08:40:08.000Z</time>
      </trkpt>
      <trkpt lat="45.14655" lon="5.64012">
        <ele>1751</ele>
        <time>2014-06-28T08:40:09.000Z</time>
      </trkpt>
      <trkpt lat="45.14656" lon="5.64012">
        <ele>1751</ele>
        <time>2014-06-28T08:40:10.000Z</time>
      </trkpt>
      <trkpt lat="45.14656" lon="5.64011">
        <ele>1751</ele>
        <time>2014-06-28T08:40:11.000Z</time>
      </trkpt>
      <trkpt lat="45.14656" lon="5.64011">
        <ele>1751</ele>
        <time>2014-06-28T08:40:12.000Z</time>
      </trkpt>
      <trkpt lat="45.14657" lon="5.6401">
        <ele>1751</ele>
        <time>2014-06-28T08:40:13.000Z</time>
      </trkpt>
      <trkpt lat="45.14657" lon="5.6401">
        <ele>1751</ele>
        <time>2014-06-28T08:40:14.000Z</time>
      </trkpt>
      <trkpt lat="45.14658" lon="5.6401">
        <ele>1751</ele>
        <time>2014-06-28T08:40:15.000Z</time>
      </trkpt>
      <trkpt lat="45.14658" lon="5.6401">
        <ele>1751</ele>
        <time>2014-06-28T08:40:16.000Z</time>
      </trkpt>
      <trkpt lat="45.14659" lon="5.6401">
        <ele>1751</ele>
        <time>2014-06-28T08:40:17.000Z</time>
      </trkpt>
      <trkpt lat="45.14659" lon="5.6401">
        <ele>1751</ele>
        <time>2014-06-28T08:40:18.000Z</time>
      </trkpt>
      <trkpt lat="45.14659" lon="5.6401">
        <ele>1751</ele>
        <time>2014-06-28T08:40:19.000Z</time>
      </trkpt>
      <trkpt lat="45.1466" lon="5.6401">
        <ele>1751</ele>
        <time>2014-06-28T08:40:20.000Z</time>
      </trkpt>
      <trkpt lat="45.1466" lon="5.6401">
        <ele>1751</ele>
        <time>2014-06-28T08:40:21.000Z</time>
      </trkpt>
      <trkpt lat="45.1466" lon="5.64009">
        <ele>1752</ele>
        <time>2014-06-28T08:40:22.000Z</time>
      </trkpt>
      <trkpt lat="45.14661" lon="5.64009">
        <ele>1752</ele>
        <time>2014-06-28T08:40:23.000Z</time>
      </trkpt>
      <trkpt lat="45.14661" lon="5.64009">
        <ele>1752</ele>
        <time>2014-06-28T08:40:24.000Z</time>
      </trkpt>
      <trkpt lat="45.14661" lon="5.64008">
        <ele>1752</ele>
        <time>2014-06-28T08:40:25.000Z</time>
      </trkpt>
      <trkpt lat="45.14662" lon="5.64008">
        <ele>1752</ele>
        <time>2014-06-28T08:40:26.000Z</time>
      </trkpt>
      <trkpt lat="45.14662" lon="5.64008">
        <ele>1752</ele>
        <time>2014-06-28T08:40:27.000Z</time>
      </trkpt>
      <trkpt lat="45.14662" lon="5.64007">
        <ele>1752</ele>
        <time>2014-06-28T08:40:28.000Z</time>
      </trkpt>
      <trkpt lat="45.14662" lon="5.64006">
        <ele>1752</ele>
        <time>2014-06-28T08:40:29.000Z</time>
      </trkpt>
      <trkpt lat="45.14662" lon="5.64006">
        <ele>1752</ele>
        <time>2014-06-28T08:40:30.000Z</time>
      </trkpt>
      <trkpt lat="45.14661" lon="5.64005">
        <ele>1752</ele>
        <time>2014-06-28T08:40:31.000Z</time>
      </trkpt>
      <trkpt lat="45.14661" lon="5.64005">
        <ele>1752</ele>
        <time>2014-06-28T08:40:32.000Z</time>
      </trkpt>
      <trkpt lat="45.14661" lon="5.64004">
        <ele>1752</ele>
        <time>2014-06-28T08:40:33.000Z</time>
      </trkpt>
      <trkpt lat="45.14661" lon="5.64003">
        <ele>1752</ele>
        <time>2014-06-28T08:40:34.000Z</time>
      </trkpt>
      <trkpt lat="45.14661" lon="5.64003">
        <ele>1752</ele>
        <time>2014-06-28T08:40:35.000Z</time>
      </trkpt>
      <trkpt lat="45.1466" lon="5.64002">
        <ele>1752</ele>
        <time>2014-06-28T08:40:36.000Z</time>
      </trkpt>
      <trkpt lat="45.1466" lon="5.64002">
        <ele>1752</ele>
        <time>2014-06-28T08:40:37.000Z</time>
      </trkpt>
      <trkpt lat="45.1466" lon="5.64001">
        <ele>1752</ele>
        <time>2014-06-28T08:40:38.000Z</time>
      </trkpt>
      <trkpt lat="45.14659" lon="5.64001">
        <ele>1752</ele>
        <time>2014-06-28T08:40:39.000Z</time>
      </trkpt>
      <trkpt lat="45.14659" lon="5.64">
        <ele>1752</ele>
        <time>2014-06-28T08:40:40.000Z</time>
      </trkpt>
      <trkpt lat="45.14659" lon="5.63999">
        <ele>1752</ele>
        <time>2014-06-28T08:40:41.000Z</time>
      </trkpt>
      <trkpt lat="45.14659" lon="5.63999">
        <ele>1752</ele>
        <time>2014-06-28T08:40:42.000Z</time>
      </trkpt>
      <trkpt lat="45.14659" lon="5.63998">
        <ele>1752</ele>
        <time>2014-06-28T08:40:43.000Z</time>
      </trkpt>
      <trkpt lat="45.14659" lon="5.63998">
        <ele>1753</ele>
        <time>2014-06-28T08:40:44.000Z</time>
      </trkpt>
      <trkpt lat="45.14659" lon="5.63998">
        <ele>1753</ele>
        <time>2014-06-28T08:40:45.000Z</time>
      </trkpt>
      <trkpt lat="45.14659" lon="5.63998">
        <ele>1753</ele>
        <time>2014-06-28T08:40:46.000Z</time>
      </trkpt>
      <trkpt lat="45.14659" lon="5.63997">
        <ele>1753</ele>
        <time>2014-06-28T08:40:47.000Z</time>
      </trkpt>
      <trkpt lat="45.14659" lon="5.63997">
        <ele>1753</ele>
        <time>2014-06-28T08:40:48.000Z</time>
      </trkpt>
      <trkpt lat="45.14659" lon="5.63997">
        <ele>1753</ele>
        <time>2014-06-28T08:40:49.000Z</time>
      </trkpt>
      <trkpt lat="45.1466" lon="5.63997">
        <ele>1753</ele>
        <time>2014-06-28T08:40:50.000Z</time>
      </trkpt>
      <trkpt lat="45.1466" lon="5.63997">
        <ele>1753</ele>
        <time>2014-06-28T08:40:51.000Z</time>
      </trkpt>
      <trkpt lat="45.1466" lon="5.63996">
        <ele>1753</ele>
        <time>2014-06-28T08:40:52.000Z</time>
      </trkpt>
      <trkpt lat="45.1466" lon="5.63995">
        <ele>1753</ele>
        <time>2014-06-28T08:40:53.000Z</time>
      </trkpt>
      <trkpt lat="45.14661" lon="5.63995">
        <ele>1753</ele>
        <time>2014-06-28T08:40:54.000Z</time>
      </trkpt>
      <trkpt lat="45.14661" lon="5.63995">
        <ele>1753</ele>
        <time>2014-06-28T08:40:56.000Z</time>
      </trkpt>
      <trkpt lat="45.14661" lon="5.63995">
        <ele>1753</ele>
        <time>2014-06-28T08:40:57.000Z</time>
      </trkpt>
      <trkpt lat="45.14661" lon="5.63994">
        <ele>1753</ele>
        <time>2014-06-28T08:40:58.000Z</time>
      </trkpt>
      <trkpt lat="45.14661" lon="5.63993">
        <ele>1753</ele>
        <time>2014-06-28T08:40:59.000Z</time>
      </trkpt>
      <trkpt lat="45.14661" lon="5.63992">
        <ele>1753</ele>
        <time>2014-06-28T08:41:00.000Z</time>
      </trkpt>
      <trkpt lat="45.14661" lon="5.63992">
        <ele>1753</ele>
        <time>2014-06-28T08:41:01.000Z</time>
      </trkpt>
      <trkpt lat="45.14661" lon="5.63992">
        <ele>1753</ele>
        <time>2014-06-28T08:41:02.000Z</time>
      </trkpt>
      <trkpt lat="45.14661" lon="5.63991">
        <ele>1753</ele>
        <time>2014-06-28T08:41:03.000Z</time>
      </trkpt>
      <trkpt lat="45.14661" lon="5.63991">
        <ele>1753</ele>
        <time>2014-06-28T08:41:04.000Z</time>
      </trkpt>
      <trkpt lat="45.14661" lon="5.63991">
        <ele>1753</ele>
        <time>2014-06-28T08:41:05.000Z</time>
      </trkpt>
      <trkpt lat="45.14661" lon="5.63991">
        <ele>1753</ele>
        <time>2014-06-28T08:41:06.000Z</time>
      </trkpt>
      <trkpt lat="45.14661" lon="5.63991">
        <ele>1753</ele>
        <time>2014-06-28T08:41:07.000Z</time>
      </trkpt>
      <trkpt lat="45.14661" lon="5.63991">
        <ele>1753</ele>
        <time>2014-06-28T08:41:08.000Z</time>
      </trkpt>
      <trkpt lat="45.14662" lon="5.6399">
        <ele>1753</ele>
        <time>2014-06-28T08:41:09.000Z</time>
      </trkpt>
      <trkpt lat="45.14662" lon="5.6399">
        <ele>1753</ele>
        <time>2014-06-28T08:41:10.000Z</time>
      </trkpt>
      <trkpt lat="45.14662" lon="5.6399">
        <ele>1753</ele>
        <time>2014-06-28T08:41:11.000Z</time>
      </trkpt>
      <trkpt lat="45.14663" lon="5.63989">
        <ele>1753</ele>
        <time>2014-06-28T08:41:12.000Z</time>
      </trkpt>
      <trkpt lat="45.14663" lon="5.63989">
        <ele>1753</ele>
        <time>2014-06-28T08:41:13.000Z</time>
      </trkpt>
      <trkpt lat="45.14663" lon="5.63989">
        <ele>1753</ele>
        <time>2014-06-28T08:41:14.000Z</time>
      </trkpt>
      <trkpt lat="45.14663" lon="5.63989">
        <ele>1753</ele>
        <time>2014-06-28T08:41:15.000Z</time>
      </trkpt>
      <trkpt lat="45.14663" lon="5.63989">
        <ele>1753</ele>
        <time>2014-06-28T08:41:16.000Z</time>
      </trkpt>
      <trkpt lat="45.14662" lon="5.63988">
        <ele>1753</ele>
        <time>2014-06-28T08:41:17.000Z</time>
      </trkpt>
      <trkpt lat="45.14662" lon="5.63988">
        <ele>1753</ele>
        <time>2014-06-28T08:41:18.000Z</time>
      </trkpt>
      <trkpt lat="45.14662" lon="5.63987">
        <ele>1754</ele>
        <time>2014-06-28T08:41:19.000Z</time>
      </trkpt>
      <trkpt lat="45.14661" lon="5.63987">
        <ele>1754</ele>
        <time>2014-06-28T08:41:20.000Z</time>
      </trkpt>
      <trkpt lat="45.14661" lon="5.63987">
        <ele>1754</ele>
        <time>2014-06-28T08:41:21.000Z</time>
      </trkpt>
      <trkpt lat="45.1466" lon="5.63987">
        <ele>1755</ele>
        <time>2014-06-28T08:41:22.000Z</time>
      </trkpt>
      <trkpt lat="45.14659" lon="5.63986">
        <ele>1755</ele>
        <time>2014-06-28T08:41:23.000Z</time>
      </trkpt>
      <trkpt lat="45.14658" lon="5.63986">
        <ele>1756</ele>
        <time>2014-06-28T08:41:24.000Z</time>
      </trkpt>
      <trkpt lat="45.14657" lon="5.63985">
        <ele>1757</ele>
        <time>2014-06-28T08:41:25.000Z</time>
      </trkpt>
      <trkpt lat="45.14657" lon="5.63985">
        <ele>1757</ele>
        <time>2014-06-28T08:41:26.000Z</time>
      </trkpt>
      <trkpt lat="45.14657" lon="5.63985">
        <ele>1757</ele>
        <time>2014-06-28T08:41:27.000Z</time>
      </trkpt>
      <trkpt lat="45.14656" lon="5.63984">
        <ele>1758</ele>
        <time>2014-06-28T08:41:28.000Z</time>
      </trkpt>
      <trkpt lat="45.14655" lon="5.63984">
        <ele>1758</ele>
        <time>2014-06-28T08:41:29.000Z</time>
      </trkpt>
      <trkpt lat="45.14655" lon="5.63984">
        <ele>1758</ele>
        <time>2014-06-28T08:41:30.000Z</time>
      </trkpt>
      <trkpt lat="45.14654" lon="5.63984">
        <ele>1758</ele>
        <time>2014-06-28T08:41:31.000Z</time>
      </trkpt>
      <trkpt lat="45.14654" lon="5.63983">
        <ele>1758</ele>
        <time>2014-06-28T08:41:32.000Z</time>
      </trkpt>
      <trkpt lat="45.14653" lon="5.63983">
        <ele>1758</ele>
        <time>2014-06-28T08:41:33.000Z</time>
      </trkpt>
      <trkpt lat="45.14653" lon="5.63982">
        <ele>1758</ele>
        <time>2014-06-28T08:41:34.000Z</time>
      </trkpt>
      <trkpt lat="45.14653" lon="5.63982">
        <ele>1758</ele>
        <time>2014-06-28T08:41:35.000Z</time>
      </trkpt>
      <trkpt lat="45.14653" lon="5.63982">
        <ele>1758</ele>
        <time>2014-06-28T08:41:36.000Z</time>
      </trkpt>
      <trkpt lat="45.14653" lon="5.63982">
        <ele>1758</ele>
        <time>2014-06-28T08:41:37.000Z</time>
      </trkpt>
      <trkpt lat="45.14653" lon="5.63982">
        <ele>1758</ele>
        <time>2014-06-28T08:41:38.000Z</time>
      </trkpt>
      <trkpt lat="45.14653" lon="5.63982">
        <ele>1758</ele>
        <time>2014-06-28T08:41:39.000Z</time>
      </trkpt>
      <trkpt lat="45.14652" lon="5.63981">
        <ele>1758</ele>
        <time>2014-06-28T08:41:40.000Z</time>
      </trkpt>
      <trkpt lat="45.14652" lon="5.63981">
        <ele>1758</ele>
        <time>2014-06-28T08:41:41.000Z</time>
      </trkpt>
      <trkpt lat="45.14652" lon="5.63981">
        <ele>1758</ele>
        <time>2014-06-28T08:41:42.000Z</time>
      </trkpt>
      <trkpt lat="45.14653" lon="5.6398">
        <ele>1758</ele>
        <time>2014-06-28T08:41:43.000Z</time>
      </trkpt>
      <trkpt lat="45.14652" lon="5.6398">
        <ele>1758</ele>
        <time>2014-06-28T08:41:44.000Z</time>
      </trkpt>
      <trkpt lat="45.14652" lon="5.6398">
        <ele>1758</ele>
        <time>2014-06-28T08:41:45.000Z</time>
      </trkpt>
      <trkpt lat="45.14652" lon="5.6398">
        <ele>1758</ele>
        <time>2014-06-28T08:41:46.000Z</time>
      </trkpt>
      <trkpt lat="45.14653" lon="5.6398">
        <ele>1758</ele>
        <time>2014-06-28T08:41:47.000Z</time>
      </trkpt>
      <trkpt lat="45.14654" lon="5.6398">
        <ele>1758</ele>
        <time>2014-06-28T08:41:48.000Z</time>
      </trkpt>
      <trkpt lat="45.14655" lon="5.6398">
        <ele>1758</ele>
        <time>2014-06-28T08:41:49.000Z</time>
      </trkpt>
      <trkpt lat="45.14655" lon="5.63979">
        <ele>1759</ele>
        <time>2014-06-28T08:41:50.000Z</time>
      </trkpt>
      <trkpt lat="45.14655" lon="5.63979">
        <ele>1759</ele>
        <time>2014-06-28T08:41:51.000Z</time>
      </trkpt>
      <trkpt lat="45.14656" lon="5.63979">
        <ele>1759</ele>
        <time>2014-06-28T08:41:52.000Z</time>
      </trkpt>
      <trkpt lat="45.14656" lon="5.63979">
        <ele>1759</ele>
        <time>2014-06-28T08:41:53.000Z</time>
      </trkpt>
      <trkpt lat="45.14656" lon="5.63978">
        <ele>1759</ele>
        <time>2014-06-28T08:41:54.000Z</time>
      </trkpt>
      <trkpt lat="45.14656" lon="5.63978">
        <ele>1759</ele>
        <time>2014-06-28T08:41:55.000Z</time>
      </trkpt>
      <trkpt lat="45.14656" lon="5.63977">
        <ele>1759</ele>
        <time>2014-06-28T08:41:56.000Z</time>
      </trkpt>
      <trkpt lat="45.14656" lon="5.63976">
        <ele>1760</ele>
        <time>2014-06-28T08:41:57.000Z</time>
      </trkpt>
      <trkpt lat="45.14656" lon="5.63975">
        <ele>1760</ele>
        <time>2014-06-28T08:41:58.000Z</time>
      </trkpt>
      <trkpt lat="45.14656" lon="5.63975">
        <ele>1760</ele>
        <time>2014-06-28T08:41:59.000Z</time>
      </trkpt>
      <trkpt lat="45.14656" lon="5.63975">
        <ele>1760</ele>
        <time>2014-06-28T08:42:00.000Z</time>
      </trkpt>
      <trkpt lat="45.14656" lon="5.63975">
        <ele>1760</ele>
        <time>2014-06-28T08:42:01.000Z</time>
      </trkpt>
      <trkpt lat="45.14656" lon="5.63975">
        <ele>1760</ele>
        <time>2014-06-28T08:42:02.000Z</time>
      </trkpt>
      <trkpt lat="45.14656" lon="5.63975">
        <ele>1760</ele>
        <time>2014-06-28T08:42:03.000Z</time>
      </trkpt>
      <trkpt lat="45.14656" lon="5.63975">
        <ele>1760</ele>
        <time>2014-06-28T08:42:04.000Z</time>
      </trkpt>
      <trkpt lat="45.14656" lon="5.63975">
        <ele>1761</ele>
        <time>2014-06-28T08:42:05.000Z</time>
      </trkpt>
      <trkpt lat="45.14656" lon="5.63975">
        <ele>1761</ele>
        <time>2014-06-28T08:42:06.000Z</time>
      </trkpt>
      <trkpt lat="45.14657" lon="5.63975">
        <ele>1761</ele>
        <time>2014-06-28T08:42:07.000Z</time>
      </trkpt>
      <trkpt lat="45.14657" lon="5.63975">
        <ele>1761</ele>
        <time>2014-06-28T08:42:08.000Z</time>
      </trkpt>
      <trkpt lat="45.14657" lon="5.63975">
        <ele>1761</ele>
        <time>2014-06-28T08:42:09.000Z</time>
      </trkpt>
      <trkpt lat="45.14657" lon="5.63975">
        <ele>1761</ele>
        <time>2014-06-28T08:42:10.000Z</time>
      </trkpt>
      <trkpt lat="45.14657" lon="5.63975">
        <ele>1761</ele>
        <time>2014-06-28T08:42:11.000Z</time>
      </trkpt>
      <trkpt lat="45.14657" lon="5.63975">
        <ele>1761</ele>
        <time>2014-06-28T08:42:12.000Z</time>
      </trkpt>
      <trkpt lat="45.14657" lon="5.63975">
        <ele>1761</ele>
        <time>2014-06-28T08:42:13.000Z</time>
      </trkpt>
      <trkpt lat="45.14657" lon="5.63975">
        <ele>1761</ele>
        <time>2014-06-28T08:42:14.000Z</time>
      </trkpt>
      <trkpt lat="45.14657" lon="5.63975">
        <ele>1762</ele>
        <time>2014-06-28T08:42:15.000Z</time>
      </trkpt>
      <trkpt lat="45.14656" lon="5.63974">
        <ele>1762</ele>
        <time>2014-06-28T08:42:16.000Z</time>
      </trkpt>
      <trkpt lat="45.14656" lon="5.63974">
        <ele>1762</ele>
        <time>2014-06-28T08:42:17.000Z</time>
      </trkpt>
      <trkpt lat="45.14656" lon="5.63974">
        <ele>1762</ele>
        <time>2014-06-28T08:42:18.000Z</time>
      </trkpt>
      <trkpt lat="45.14656" lon="5.63974">
        <ele>1762</ele>
        <time>2014-06-28T08:42:19.000Z</time>
      </trkpt>
      <trkpt lat="45.14657" lon="5.63974">
        <ele>1762</ele>
        <time>2014-06-28T08:42:20.000Z</time>
      </trkpt>
      <trkpt lat="45.14657" lon="5.63974">
        <ele>1762</ele>
        <time>2014-06-28T08:42:21.000Z</time>
      </trkpt>
      <trkpt lat="45.14657" lon="5.63973">
        <ele>1762</ele>
        <time>2014-06-28T08:42:22.000Z</time>
      </trkpt>
      <trkpt lat="45.14657" lon="5.63973">
        <ele>1762</ele>
        <time>2014-06-28T08:42:23.000Z</time>
      </trkpt>
      <trkpt lat="45.14657" lon="5.63973">
        <ele>1762</ele>
        <time>2014-06-28T08:42:24.000Z</time>
      </trkpt>
      <trkpt lat="45.14657" lon="5.63972">
        <ele>1763</ele>
        <time>2014-06-28T08:42:25.000Z</time>
      </trkpt>
      <trkpt lat="45.14657" lon="5.63972">
        <ele>1763</ele>
        <time>2014-06-28T08:42:26.000Z</time>
      </trkpt>
      <trkpt lat="45.14658" lon="5.63972">
        <ele>1763</ele>
        <time>2014-06-28T08:42:27.000Z</time>
      </trkpt>
      <trkpt lat="45.14658" lon="5.63973">
        <ele>1763</ele>
        <time>2014-06-28T08:42:28.000Z</time>
      </trkpt>
      <trkpt lat="45.14658" lon="5.63972">
        <ele>1763</ele>
        <time>2014-06-28T08:42:29.000Z</time>
      </trkpt>
      <trkpt lat="45.14658" lon="5.63971">
        <ele>1763</ele>
        <time>2014-06-28T08:42:30.000Z</time>
      </trkpt>
      <trkpt lat="45.14658" lon="5.63971">
        <ele>1764</ele>
        <time>2014-06-28T08:42:31.000Z</time>
      </trkpt>
      <trkpt lat="45.14658" lon="5.63971">
        <ele>1764</ele>
        <time>2014-06-28T08:42:32.000Z</time>
      </trkpt>
      <trkpt lat="45.14658" lon="5.6397">
        <ele>1764</ele>
        <time>2014-06-28T08:42:33.000Z</time>
      </trkpt>
      <trkpt lat="45.14658" lon="5.63969">
        <ele>1764</ele>
        <time>2014-06-28T08:42:34.000Z</time>
      </trkpt>
      <trkpt lat="45.14658" lon="5.63969">
        <ele>1764</ele>
        <time>2014-06-28T08:42:35.000Z</time>
      </trkpt>
      <trkpt lat="45.14658" lon="5.63968">
        <ele>1764</ele>
        <time>2014-06-28T08:42:36.000Z</time>
      </trkpt>
      <trkpt lat="45.14658" lon="5.63968">
        <ele>1765</ele>
        <time>2014-06-28T08:42:37.000Z</time>
      </trkpt>
      <trkpt lat="45.14658" lon="5.63968">
        <ele>1765</ele>
        <time>2014-06-28T08:42:38.000Z</time>
      </trkpt>
      <trkpt lat="45.14658" lon="5.63968">
        <ele>1765</ele>
        <time>2014-06-28T08:42:39.000Z</time>
      </trkpt>
      <trkpt lat="45.14658" lon="5.63968">
        <ele>1765</ele>
        <time>2014-06-28T08:42:40.000Z</time>
      </trkpt>
      <trkpt lat="45.14658" lon="5.63968">
        <ele>1765</ele>
        <time>2014-06-28T08:42:41.000Z</time>
      </trkpt>
      <trkpt lat="45.14658" lon="5.63968">
        <ele>1765</ele>
        <time>2014-06-28T08:42:42.000Z</time>
      </trkpt>
      <trkpt lat="45.14658" lon="5.63968">
        <ele>1766</ele>
        <time>2014-06-28T08:42:43.000Z</time>
      </trkpt>
      <trkpt lat="45.14658" lon="5.63968">
        <ele>1766</ele>
        <time>2014-06-28T08:42:44.000Z</time>
      </trkpt>
      <trkpt lat="45.14659" lon="5.63968">
        <ele>1766</ele>
        <time>2014-06-28T08:42:45.000Z</time>
      </trkpt>
      <trkpt lat="45.14659" lon="5.63968">
        <ele>1766</ele>
        <time>2014-06-28T08:42:46.000Z</time>
      </trkpt>
      <trkpt lat="45.14659" lon="5.63968">
        <ele>1766</ele>
        <time>2014-06-28T08:42:47.000Z</time>
      </trkpt>
      <trkpt lat="45.14659" lon="5.63968">
        <ele>1766</ele>
        <time>2014-06-28T08:42:48.000Z</time>
      </trkpt>
      <trkpt lat="45.1466" lon="5.63968">
        <ele>1766</ele>
        <time>2014-06-28T08:42:49.000Z</time>
      </trkpt>
      <trkpt lat="45.1466" lon="5.63968">
        <ele>1766</ele>
        <time>2014-06-28T08:42:50.000Z</time>
      </trkpt>
      <trkpt lat="45.1466" lon="5.63968">
        <ele>1766</ele>
        <time>2014-06-28T08:42:51.000Z</time>
      </trkpt>
      <trkpt lat="45.1466" lon="5.63968">
        <ele>1766</ele>
        <time>2014-06-28T08:42:52.000Z</time>
      </trkpt>
      <trkpt lat="45.14659" lon="5.63967">
        <ele>1766</ele>
        <time>2014-06-28T08:42:53.000Z</time>
      </trkpt>
      <trkpt lat="45.14659" lon="5.63967">
        <ele>1767</ele>
        <time>2014-06-28T08:42:54.000Z</time>
      </trkpt>
      <trkpt lat="45.14659" lon="5.63967">
        <ele>1767</ele>
        <time>2014-06-28T08:42:55.000Z</time>
      </trkpt>
      <trkpt lat="45.14659" lon="5.63967">
        <ele>1767</ele>
        <time>2014-06-28T08:42:56.000Z</time>
      </trkpt>
      <trkpt lat="45.14659" lon="5.63967">
        <ele>1767</ele>
        <time>2014-06-28T08:42:57.000Z</time>
      </trkpt>
      <trkpt lat="45.14659" lon="5.63967">
        <ele>1767</ele>
        <time>2014-06-28T08:42:58.000Z</time>
      </trkpt>
      <trkpt lat="45.1466" lon="5.63967">
        <ele>1767</ele>
        <time>2014-06-28T08:42:59.000Z</time>
      </trkpt>
      <trkpt lat="45.1466" lon="5.63967">
        <ele>1767</ele>
        <time>2014-06-28T08:43:00.000Z</time>
      </trkpt>
      <trkpt lat="45.1466" lon="5.63967">
        <ele>1767</ele>
        <time>2014-06-28T08:43:01.000Z</time>
      </trkpt>
      <trkpt lat="45.1466" lon="5.63967">
        <ele>1767</ele>
        <time>2014-06-28T08:43:02.000Z</time>
      </trkpt>
      <trkpt lat="45.1466" lon="5.63967">
        <ele>1768</ele>
        <time>2014-06-28T08:43:03.000Z</time>
      </trkpt>
      <trkpt lat="45.1466" lon="5.63967">
        <ele>1768</ele>
        <time>2014-06-28T08:43:04.000Z</time>
      </trkpt>
      <trkpt lat="45.1466" lon="5.63967">
        <ele>1768</ele>
        <time>2014-06-28T08:43:05.000Z</time>
      </trkpt>
      <trkpt lat="45.1466" lon="5.63967">
        <ele>1768</ele>
        <time>2014-06-28T08:43:06.000Z</time>
      </trkpt>
      <trkpt lat="45.1466" lon="5.63967">
        <ele>1768</ele>
        <time>2014-06-28T08:43:07.000Z</time>
      </trkpt>
      <trkpt lat="45.1466" lon="5.63967">
        <ele>1768</ele>
        <time>2014-06-28T08:43:08.000Z</time>
      </trkpt>
      <trkpt lat="45.1466" lon="5.63966">
        <ele>1768</ele>
        <time>2014-06-28T08:43:09.000Z</time>
      </trkpt>
      <trkpt lat="45.1466" lon="5.63966">
        <ele>1768</ele>
        <time>2014-06-28T08:43:10.000Z</time>
      </trkpt>
      <trkpt lat="45.1466" lon="5.63966">
        <ele>1769</ele>
        <time>2014-06-28T08:43:11.000Z</time>
      </trkpt>
      <trkpt lat="45.1466" lon="5.63966">
        <ele>1769</ele>
        <time>2014-06-28T08:43:12.000Z</time>
      </trkpt>
      <trkpt lat="45.1466" lon="5.63966">
        <ele>1769</ele>
        <time>2014-06-28T08:43:13.000Z</time>
      </trkpt>
      <trkpt lat="45.14661" lon="5.63966">
        <ele>1769</ele>
        <time>2014-06-28T08:43:14.000Z</time>
      </trkpt>
      <trkpt lat="45.14661" lon="5.63965">
        <ele>1769</ele>
        <time>2014-06-28T08:43:15.000Z</time>
      </trkpt>
      <trkpt lat="45.14661" lon="5.63965">
        <ele>1769</ele>
        <time>2014-06-28T08:43:16.000Z</time>
      </trkpt>
      <trkpt lat="45.14661" lon="5.63965">
        <ele>1769</ele>
        <time>2014-06-28T08:43:17.000Z</time>
      </trkpt>
      <trkpt lat="45.14662" lon="5.63965">
        <ele>1770</ele>
        <time>2014-06-28T08:43:18.000Z</time>
      </trkpt>
      <trkpt lat="45.14663" lon="5.63965">
        <ele>1770</ele>
        <time>2014-06-28T08:43:19.000Z</time>
      </trkpt>
      <trkpt lat="45.14663" lon="5.63965">
        <ele>1770</ele>
        <time>2014-06-28T08:43:20.000Z</time>
      </trkpt>
      <trkpt lat="45.14663" lon="5.63965">
        <ele>1770</ele>
        <time>2014-06-28T08:43:21.000Z</time>
      </trkpt>
      <trkpt lat="45.14663" lon="5.63964">
        <ele>1770</ele>
        <time>2014-06-28T08:43:22.000Z</time>
      </trkpt>
      <trkpt lat="45.14663" lon="5.63963">
        <ele>1771</ele>
        <time>2014-06-28T08:43:23.000Z</time>
      </trkpt>
      <trkpt lat="45.14663" lon="5.63962">
        <ele>1771</ele>
        <time>2014-06-28T08:43:24.000Z</time>
      </trkpt>
      <trkpt lat="45.14663" lon="5.63962">
        <ele>1771</ele>
        <time>2014-06-28T08:43:25.000Z</time>
      </trkpt>
      <trkpt lat="45.14663" lon="5.63962">
        <ele>1771</ele>
        <time>2014-06-28T08:43:26.000Z</time>
      </trkpt>
      <trkpt lat="45.14664" lon="5.63962">
        <ele>1772</ele>
        <time>2014-06-28T08:43:27.000Z</time>
      </trkpt>
      <trkpt lat="45.14664" lon="5.63962">
        <ele>1772</ele>
        <time>2014-06-28T08:43:28.000Z</time>
      </trkpt>
      <trkpt lat="45.14664" lon="5.63962">
        <ele>1772</ele>
        <time>2014-06-28T08:43:29.000Z</time>
      </trkpt>
      <trkpt lat="45.14664" lon="5.63962">
        <ele>1772</ele>
        <time>2014-06-28T08:43:30.000Z</time>
      </trkpt>
      <trkpt lat="45.14664" lon="5.63962">
        <ele>1772</ele>
        <time>2014-06-28T08:43:31.000Z</time>
      </trkpt>
      <trkpt lat="45.14665" lon="5.63962">
        <ele>1772</ele>
        <time>2014-06-28T08:43:32.000Z</time>
      </trkpt>
      <trkpt lat="45.14665" lon="5.63961">
        <ele>1773</ele>
        <time>2014-06-28T08:43:33.000Z</time>
      </trkpt>
      <trkpt lat="45.14666" lon="5.63961">
        <ele>1773</ele>
        <time>2014-06-28T08:43:34.000Z</time>
      </trkpt>
      <trkpt lat="45.14666" lon="5.63961">
        <ele>1773</ele>
        <time>2014-06-28T08:43:35.000Z</time>
      </trkpt>
      <trkpt lat="45.14667" lon="5.63961">
        <ele>1773</ele>
        <time>2014-06-28T08:43:36.000Z</time>
      </trkpt>
      <trkpt lat="45.14667" lon="5.63961">
        <ele>1773</ele>
        <time>2014-06-28T08:43:37.000Z</time>
      </trkpt>
      <trkpt lat="45.14667" lon="5.63961">
        <ele>1773</ele>
        <time>2014-06-28T08:43:38.000Z</time>
      </trkpt>
      <trkpt lat="45.14667" lon="5.63961">
        <ele>1773</ele>
        <time>2014-06-28T08:43:39.000Z</time>
      </trkpt>
      <trkpt lat="45.14667" lon="5.63961">
        <ele>1774</ele>
        <time>2014-06-28T08:43:40.000Z</time>
      </trkpt>
      <trkpt lat="45.14667" lon="5.63961">
        <ele>1774</ele>
        <time>2014-06-28T08:43:41.000Z</time>
      </trkpt>
      <trkpt lat="45.14667" lon="5.63961">
        <ele>1774</ele>
        <time>2014-06-28T08:43:42.000Z</time>
      </trkpt>
      <trkpt lat="45.14667" lon="5.63961">
        <ele>1774</ele>
        <time>2014-06-28T08:43:43.000Z</time>
      </trkpt>
      <trkpt lat="45.14667" lon="5.63962">
        <ele>1774</ele>
        <time>2014-06-28T08:43:44.000Z</time>
      </trkpt>
      <trkpt lat="45.14667" lon="5.63962">
        <ele>1774</ele>
        <time>2014-06-28T08:43:45.000Z</time>
      </trkpt>
      <trkpt lat="45.14667" lon="5.63961">
        <ele>1775</ele>
        <time>2014-06-28T08:43:46.000Z</time>
      </trkpt>
      <trkpt lat="45.14667" lon="5.63962">
        <ele>1775</ele>
        <time>2014-06-28T08:43:47.000Z</time>
      </trkpt>
      <trkpt lat="45.14667" lon="5.63962">
        <ele>1775</ele>
        <time>2014-06-28T08:43:48.000Z</time>
      </trkpt>
      <trkpt lat="45.14667" lon="5.63962">
        <ele>1776</ele>
        <time>2014-06-28T08:43:49.000Z</time>
      </trkpt>
      <trkpt lat="45.14667" lon="5.63962">
        <ele>1776</ele>
        <time>2014-06-28T08:43:50.000Z</time>
      </trkpt>
      <trkpt lat="45.14667" lon="5.63963">
        <ele>1776</ele>
        <time>2014-06-28T08:43:51.000Z</time>
      </trkpt>
      <trkpt lat="45.14667" lon="5.63963">
        <ele>1776</ele>
        <time>2014-06-28T08:43:52.000Z</time>
      </trkpt>
      <trkpt lat="45.14667" lon="5.63963">
        <ele>1777</ele>
        <time>2014-06-28T08:43:53.000Z</time>
      </trkpt>
      <trkpt lat="45.14667" lon="5.63963">
        <ele>1777</ele>
        <time>2014-06-28T08:43:54.000Z</time>
      </trkpt>
      <trkpt lat="45.14667" lon="5.63963">
        <ele>1777</ele>
        <time>2014-06-28T08:43:55.000Z</time>
      </trkpt>
      <trkpt lat="45.14667" lon="5.63963">
        <ele>1777</ele>
        <time>2014-06-28T08:43:56.000Z</time>
      </trkpt>
      <trkpt lat="45.14667" lon="5.63963">
        <ele>1777</ele>
        <time>2014-06-28T08:43:57.000Z</time>
      </trkpt>
      <trkpt lat="45.14667" lon="5.63962">
        <ele>1778</ele>
        <time>2014-06-28T08:43:58.000Z</time>
      </trkpt>
      <trkpt lat="45.14666" lon="5.63962">
        <ele>1778</ele>
        <time>2014-06-28T08:43:59.000Z</time>
      </trkpt>
      <trkpt lat="45.14665" lon="5.63962">
        <ele>1778</ele>
        <time>2014-06-28T08:44:00.000Z</time>
      </trkpt>
      <trkpt lat="45.14665" lon="5.63961">
        <ele>1778</ele>
        <time>2014-06-28T08:44:01.000Z</time>
      </trkpt>
      <trkpt lat="45.14664" lon="5.63961">
        <ele>1779</ele>
        <time>2014-06-28T08:44:02.000Z</time>
      </trkpt>
      <trkpt lat="45.14664" lon="5.6396">
        <ele>1779</ele>
        <time>2014-06-28T08:44:03.000Z</time>
      </trkpt>
      <trkpt lat="45.14664" lon="5.63959">
        <ele>1779</ele>
        <time>2014-06-28T08:44:04.000Z</time>
      </trkpt>
      <trkpt lat="45.14664" lon="5.63958">
        <ele>1779</ele>
        <time>2014-06-28T08:44:05.000Z</time>
      </trkpt>
      <trkpt lat="45.14664" lon="5.63958">
        <ele>1780</ele>
        <time>2014-06-28T08:44:06.000Z</time>
      </trkpt>
      <trkpt lat="45.14664" lon="5.63957">
        <ele>1780</ele>
        <time>2014-06-28T08:44:07.000Z</time>
      </trkpt>
      <trkpt lat="45.14664" lon="5.63957">
        <ele>1780</ele>
        <time>2014-06-28T08:44:08.000Z</time>
      </trkpt>
      <trkpt lat="45.14663" lon="5.63957">
        <ele>1780</ele>
        <time>2014-06-28T08:44:09.000Z</time>
      </trkpt>
      <trkpt lat="45.14662" lon="5.63956">
        <ele>1780</ele>
        <time>2014-06-28T08:44:10.000Z</time>
      </trkpt>
      <trkpt lat="45.14662" lon="5.63956">
        <ele>1781</ele>
        <time>2014-06-28T08:44:11.000Z</time>
      </trkpt>
      <trkpt lat="45.14661" lon="5.63956">
        <ele>1781</ele>
        <time>2014-06-28T08:44:12.000Z</time>
      </trkpt>
      <trkpt lat="45.14661" lon="5.63956">
        <ele>1781</ele>
        <time>2014-06-28T08:44:13.000Z</time>
      </trkpt>
      <trkpt lat="45.14661" lon="5.63956">
        <ele>1781</ele>
        <time>2014-06-28T08:44:14.000Z</time>
      </trkpt>
      <trkpt lat="45.1466" lon="5.63957">
        <ele>1782</ele>
        <time>2014-06-28T08:44:15.000Z</time>
      </trkpt>
      <trkpt lat="45.1466" lon="5.63957">
        <ele>1782</ele>
        <time>2014-06-28T08:44:16.000Z</time>
      </trkpt>
      <trkpt lat="45.1466" lon="5.63957">
        <ele>1783</ele>
        <time>2014-06-28T08:44:17.000Z</time>
      </trkpt>
      <trkpt lat="45.1466" lon="5.63957">
        <ele>1783</ele>
        <time>2014-06-28T08:44:18.000Z</time>
      </trkpt>
      <trkpt lat="45.14661" lon="5.63958">
        <ele>1783</ele>
        <time>2014-06-28T08:44:19.000Z</time>
      </trkpt>
      <trkpt lat="45.14661" lon="5.63958">
        <ele>1784</ele>
        <time>2014-06-28T08:44:20.000Z</time>
      </trkpt>
      <trkpt lat="45.14661" lon="5.63958">
        <ele>1784</ele>
        <time>2014-06-28T08:44:21.000Z</time>
      </trkpt>
      <trkpt lat="45.1466" lon="5.63958">
        <ele>1784</ele>
        <time>2014-06-28T08:44:22.000Z</time>
      </trkpt>
      <trkpt lat="45.1466" lon="5.63959">
        <ele>1785</ele>
        <time>2014-06-28T08:44:23.000Z</time>
      </trkpt>
      <trkpt lat="45.1466" lon="5.63959">
        <ele>1785</ele>
        <time>2014-06-28T08:44:24.000Z</time>
      </trkpt>
      <trkpt lat="45.1466" lon="5.63959">
        <ele>1785</ele>
        <time>2014-06-28T08:44:25.000Z</time>
      </trkpt>
      <trkpt lat="45.1466" lon="5.63959">
        <ele>1786</ele>
        <time>2014-06-28T08:44:26.000Z</time>
      </trkpt>
      <trkpt lat="45.1466" lon="5.6396">
        <ele>1786</ele>
        <time>2014-06-28T08:44:27.000Z</time>
      </trkpt>
      <trkpt lat="45.1466" lon="5.6396">
        <ele>1786</ele>
        <time>2014-06-28T08:44:28.000Z</time>
      </trkpt>
      <trkpt lat="45.1466" lon="5.6396">
        <ele>1787</ele>
        <time>2014-06-28T08:44:29.000Z</time>
      </trkpt>
      <trkpt lat="45.1466" lon="5.6396">
        <ele>1787</ele>
        <time>2014-06-28T08:44:30.000Z</time>
      </trkpt>
      <trkpt lat="45.1466" lon="5.6396">
        <ele>1787</ele>
        <time>2014-06-28T08:44:31.000Z</time>
      </trkpt>
      <trkpt lat="45.1466" lon="5.63961">
        <ele>1787</ele>
        <time>2014-06-28T08:44:32.000Z</time>
      </trkpt>
      <trkpt lat="45.1466" lon="5.63961">
        <ele>1788</ele>
        <time>2014-06-28T08:44:33.000Z</time>
      </trkpt>
      <trkpt lat="45.14659" lon="5.63961">
        <ele>1788</ele>
        <time>2014-06-28T08:44:34.000Z</time>
      </trkpt>
      <trkpt lat="45.14659" lon="5.63961">
        <ele>1788</ele>
        <time>2014-06-28T08:44:35.000Z</time>
      </trkpt>
      <trkpt lat="45.14658" lon="5.63961">
        <ele>1789</ele>
        <time>2014-06-28T08:44:36.000Z</time>
      </trkpt>
      <trkpt lat="45.14658" lon="5.63961">
        <ele>1789</ele>
        <time>2014-06-28T08:44:37.000Z</time>
      </trkpt>
      <trkpt lat="45.14657" lon="5.63961">
        <ele>1789</ele>
        <time>2014-06-28T08:44:38.000Z</time>
      </trkpt>
      <trkpt lat="45.14657" lon="5.63961">
        <ele>1789</ele>
        <time>2014-06-28T08:44:39.000Z</time>
      </trkpt>
      <trkpt lat="45.14657" lon="5.6396">
        <ele>1790</ele>
        <time>2014-06-28T08:44:40.000Z</time>
      </trkpt>
      <trkpt lat="45.14656" lon="5.6396">
        <ele>1790</ele>
        <time>2014-06-28T08:44:41.000Z</time>
      </trkpt>
      <trkpt lat="45.14656" lon="5.63961">
        <ele>1790</ele>
        <time>2014-06-28T08:44:42.000Z</time>
      </trkpt>
      <trkpt lat="45.14656" lon="5.63961">
        <ele>1791</ele>
        <time>2014-06-28T08:44:43.000Z</time>
      </trkpt>
      <trkpt lat="45.14656" lon="5.63961">
        <ele>1791</ele>
        <time>2014-06-28T08:44:44.000Z</time>
      </trkpt>
      <trkpt lat="45.14656" lon="5.63961">
        <ele>1791</ele>
        <time>2014-06-28T08:44:45.000Z</time>
      </trkpt>
      <trkpt lat="45.14656" lon="5.63961">
        <ele>1791</ele>
        <time>2014-06-28T08:44:46.000Z</time>
      </trkpt>
      <trkpt lat="45.14655" lon="5.63961">
        <ele>1791</ele>
        <time>2014-06-28T08:44:47.000Z</time>
      </trkpt>
      <trkpt lat="45.14654" lon="5.63961">
        <ele>1792</ele>
        <time>2014-06-28T08:44:48.000Z</time>
      </trkpt>
      <trkpt lat="45.14653" lon="5.63962">
        <ele>1792</ele>
        <time>2014-06-28T08:44:49.000Z</time>
      </trkpt>
      <trkpt lat="45.14653" lon="5.63962">
        <ele>1792</ele>
        <time>2014-06-28T08:44:50.000Z</time>
      </trkpt>
      <trkpt lat="45.14652" lon="5.63962">
        <ele>1792</ele>
        <time>2014-06-28T08:44:51.000Z</time>
      </trkpt>
      <trkpt lat="45.14651" lon="5.63963">
        <ele>1792</ele>
        <time>2014-06-28T08:44:52.000Z</time>
      </trkpt>
      <trkpt lat="45.1465" lon="5.63963">
        <ele>1792</ele>
        <time>2014-06-28T08:44:53.000Z</time>
      </trkpt>
      <trkpt lat="45.14649" lon="5.63962">
        <ele>1793</ele>
        <time>2014-06-28T08:44:54.000Z</time>
      </trkpt>
      <trkpt lat="45.14648" lon="5.63962">
        <ele>1793</ele>
        <time>2014-06-28T08:44:55.000Z</time>
      </trkpt>
      <trkpt lat="45.14648" lon="5.63962">
        <ele>1793</ele>
        <time>2014-06-28T08:44:56.000Z</time>
      </trkpt>
      <trkpt lat="45.14647" lon="5.63962">
        <ele>1793</ele>
        <time>2014-06-28T08:44:57.000Z</time>
      </trkpt>
      <trkpt lat="45.14646" lon="5.63962">
        <ele>1793</ele>
        <time>2014-06-28T08:44:58.000Z</time>
      </trkpt>
      <trkpt lat="45.14645" lon="5.63962">
        <ele>1793</ele>
        <time>2014-06-28T08:44:59.000Z</time>
      </trkpt>
      <trkpt lat="45.14644" lon="5.63962">
        <ele>1793</ele>
        <time>2014-06-28T08:45:00.000Z</time>
      </trkpt>
      <trkpt lat="45.14643" lon="5.63962">
        <ele>1793</ele>
        <time>2014-06-28T08:45:01.000Z</time>
      </trkpt>
      <trkpt lat="45.14642" lon="5.63962">
        <ele>1794</ele>
        <time>2014-06-28T08:45:02.000Z</time>
      </trkpt>
      <trkpt lat="45.1464" lon="5.63962">
        <ele>1794</ele>
        <time>2014-06-28T08:45:03.000Z</time>
      </trkpt>
      <trkpt lat="45.14639" lon="5.63962">
        <ele>1794</ele>
        <time>2014-06-28T08:45:04.000Z</time>
      </trkpt>
      <trkpt lat="45.14639" lon="5.63961">
        <ele>1794</ele>
        <time>2014-06-28T08:45:05.000Z</time>
      </trkpt>
      <trkpt lat="45.14638" lon="5.6396">
        <ele>1794</ele>
        <time>2014-06-28T08:45:06.000Z</time>
      </trkpt>
      <trkpt lat="45.14637" lon="5.6396">
        <ele>1795</ele>
        <time>2014-06-28T08:45:07.000Z</time>
      </trkpt>
      <trkpt lat="45.14637" lon="5.63959">
        <ele>1795</ele>
        <time>2014-06-28T08:45:08.000Z</time>
      </trkpt>
      <trkpt lat="45.14636" lon="5.63959">
        <ele>1795</ele>
        <time>2014-06-28T08:45:09.000Z</time>
      </trkpt>
      <trkpt lat="45.14635" lon="5.63958">
        <ele>1795</ele>
        <time>2014-06-28T08:45:10.000Z</time>
      </trkpt>
      <trkpt lat="45.14635" lon="5.63958">
        <ele>1795</ele>
        <time>2014-06-28T08:45:11.000Z</time>
      </trkpt>
      <trkpt lat="45.14635" lon="5.63958">
        <ele>1795</ele>
        <time>2014-06-28T08:45:12.000Z</time>
      </trkpt>
      <trkpt lat="45.14634" lon="5.63958">
        <ele>1796</ele>
        <time>2014-06-28T08:45:13.000Z</time>
      </trkpt>
      <trkpt lat="45.14634" lon="5.63958">
        <ele>1796</ele>
        <time>2014-06-28T08:45:14.000Z</time>
      </trkpt>
      <trkpt lat="45.14633" lon="5.63957">
        <ele>1796</ele>
        <time>2014-06-28T08:45:15.000Z</time>
      </trkpt>
      <trkpt lat="45.14633" lon="5.63957">
        <ele>1796</ele>
        <time>2014-06-28T08:45:16.000Z</time>
      </trkpt>
      <trkpt lat="45.14632" lon="5.63957">
        <ele>1796</ele>
        <time>2014-06-28T08:45:17.000Z</time>
      </trkpt>
      <trkpt lat="45.14632" lon="5.63956">
        <ele>1797</ele>
        <time>2014-06-28T08:45:18.000Z</time>
      </trkpt>
      <trkpt lat="45.14632" lon="5.63956">
        <ele>1797</ele>
        <time>2014-06-28T08:45:19.000Z</time>
      </trkpt>
      <trkpt lat="45.14631" lon="5.63956">
        <ele>1797</ele>
        <time>2014-06-28T08:45:20.000Z</time>
      </trkpt>
      <trkpt lat="45.14631" lon="5.63956">
        <ele>1798</ele>
        <time>2014-06-28T08:45:21.000Z</time>
      </trkpt>
      <trkpt lat="45.14631" lon="5.63956">
        <ele>1798</ele>
        <time>2014-06-28T08:45:22.000Z</time>
      </trkpt>
      <trkpt lat="45.14631" lon="5.63955">
        <ele>1798</ele>
        <time>2014-06-28T08:45:23.000Z</time>
      </trkpt>
      <trkpt lat="45.14631" lon="5.63955">
        <ele>1799</ele>
        <time>2014-06-28T08:45:24.000Z</time>
      </trkpt>
      <trkpt lat="45.1463" lon="5.63955">
        <ele>1799</ele>
        <time>2014-06-28T08:45:25.000Z</time>
      </trkpt>
      <trkpt lat="45.1463" lon="5.63954">
        <ele>1799</ele>
        <time>2014-06-28T08:45:26.000Z</time>
      </trkpt>
      <trkpt lat="45.1463" lon="5.63954">
        <ele>1800</ele>
        <time>2014-06-28T08:45:27.000Z</time>
      </trkpt>
      <trkpt lat="45.14629" lon="5.63954">
        <ele>1800</ele>
        <time>2014-06-28T08:45:28.000Z</time>
      </trkpt>
      <trkpt lat="45.14629" lon="5.63954">
        <ele>1801</ele>
        <time>2014-06-28T08:45:29.000Z</time>
      </trkpt>
      <trkpt lat="45.14629" lon="5.63954">
        <ele>1801</ele>
        <time>2014-06-28T08:45:30.000Z</time>
      </trkpt>
      <trkpt lat="45.14629" lon="5.63954">
        <ele>1801</ele>
        <time>2014-06-28T08:45:31.000Z</time>
      </trkpt>
      <trkpt lat="45.14629" lon="5.63954">
        <ele>1802</ele>
        <time>2014-06-28T08:45:32.000Z</time>
      </trkpt>
      <trkpt lat="45.14629" lon="5.63954">
        <ele>1802</ele>
        <time>2014-06-28T08:45:33.000Z</time>
      </trkpt>
      <trkpt lat="45.14629" lon="5.63954">
        <ele>1803</ele>
        <time>2014-06-28T08:45:34.000Z</time>
      </trkpt>
      <trkpt lat="45.14629" lon="5.63954">
        <ele>1803</ele>
        <time>2014-06-28T08:45:35.000Z</time>
      </trkpt>
      <trkpt lat="45.14629" lon="5.63954">
        <ele>1803</ele>
        <time>2014-06-28T08:45:36.000Z</time>
      </trkpt>
      <trkpt lat="45.1463" lon="5.63954">
        <ele>1804</ele>
        <time>2014-06-28T08:45:37.000Z</time>
      </trkpt>
      <trkpt lat="45.1463" lon="5.63954">
        <ele>1804</ele>
        <time>2014-06-28T08:45:38.000Z</time>
      </trkpt>
      <trkpt lat="45.1463" lon="5.63954">
        <ele>1804</ele>
        <time>2014-06-28T08:45:39.000Z</time>
      </trkpt>
      <trkpt lat="45.1463" lon="5.63954">
        <ele>1805</ele>
        <time>2014-06-28T08:45:40.000Z</time>
      </trkpt>
      <trkpt lat="45.1463" lon="5.63954">
        <ele>1805</ele>
        <time>2014-06-28T08:45:41.000Z</time>
      </trkpt>
      <trkpt lat="45.1463" lon="5.63953">
        <ele>1805</ele>
        <time>2014-06-28T08:45:42.000Z</time>
      </trkpt>
      <trkpt lat="45.1463" lon="5.63953">
        <ele>1806</ele>
        <time>2014-06-28T08:45:43.000Z</time>
      </trkpt>
      <trkpt lat="45.1463" lon="5.63953">
        <ele>1806</ele>
        <time>2014-06-28T08:45:44.000Z</time>
      </trkpt>
      <trkpt lat="45.1463" lon="5.63953">
        <ele>1807</ele>
        <time>2014-06-28T08:45:45.000Z</time>
      </trkpt>
      <trkpt lat="45.1463" lon="5.63952">
        <ele>1807</ele>
        <time>2014-06-28T08:45:46.000Z</time>
      </trkpt>
      <trkpt lat="45.1463" lon="5.63952">
        <ele>1807</ele>
        <time>2014-06-28T08:45:47.000Z</time>
      </trkpt>
      <trkpt lat="45.1463" lon="5.63951">
        <ele>1808</ele>
        <time>2014-06-28T08:45:48.000Z</time>
      </trkpt>
      <trkpt lat="45.14631" lon="5.63951">
        <ele>1808</ele>
        <time>2014-06-28T08:45:49.000Z</time>
      </trkpt>
      <trkpt lat="45.14631" lon="5.63951">
        <ele>1808</ele>
        <time>2014-06-28T08:45:50.000Z</time>
      </trkpt>
      <trkpt lat="45.14631" lon="5.63951">
        <ele>1809</ele>
        <time>2014-06-28T08:45:51.000Z</time>
      </trkpt>
      <trkpt lat="45.14631" lon="5.63951">
        <ele>1809</ele>
        <time>2014-06-28T08:45:52.000Z</time>
      </trkpt>
      <trkpt lat="45.14631" lon="5.63951">
        <ele>1809</ele>
        <time>2014-06-28T08:45:53.000Z</time>
      </trkpt>
      <trkpt lat="45.14631" lon="5.6395">
        <ele>1810</ele>
        <time>2014-06-28T08:45:54.000Z</time>
      </trkpt>
      <trkpt lat="45.14631" lon="5.6395">
        <ele>1810</ele>
        <time>2014-06-28T08:45:55.000Z</time>
      </trkpt>
      <trkpt lat="45.14631" lon="5.6395">
        <ele>1811</ele>
        <time>2014-06-28T08:45:56.000Z</time>
      </trkpt>
      <trkpt lat="45.14632" lon="5.6395">
        <ele>1811</ele>
        <time>2014-06-28T08:45:57.000Z</time>
      </trkpt>
      <trkpt lat="45.14632" lon="5.6395">
        <ele>1811</ele>
        <time>2014-06-28T08:45:58.000Z</time>
      </trkpt>
      <trkpt lat="45.14632" lon="5.6395">
        <ele>1811</ele>
        <time>2014-06-28T08:45:59.000Z</time>
      </trkpt>
      <trkpt lat="45.14632" lon="5.6395">
        <ele>1812</ele>
        <time>2014-06-28T08:46:00.000Z</time>
      </trkpt>
      <trkpt lat="45.14633" lon="5.6395">
        <ele>1812</ele>
        <time>2014-06-28T08:46:01.000Z</time>
      </trkpt>
      <trkpt lat="45.14633" lon="5.6395">
        <ele>1812</ele>
        <time>2014-06-28T08:46:02.000Z</time>
      </trkpt>
      <trkpt lat="45.14633" lon="5.6395">
        <ele>1812</ele>
        <time>2014-06-28T08:46:03.000Z</time>
      </trkpt>
      <trkpt lat="45.14633" lon="5.6395">
        <ele>1813</ele>
        <time>2014-06-28T08:46:04.000Z</time>
      </trkpt>
      <trkpt lat="45.14633" lon="5.6395">
        <ele>1813</ele>
        <time>2014-06-28T08:46:05.000Z</time>
      </trkpt>
      <trkpt lat="45.14633" lon="5.63949">
        <ele>1813</ele>
        <time>2014-06-28T08:46:06.000Z</time>
      </trkpt>
      <trkpt lat="45.14633" lon="5.63949">
        <ele>1814</ele>
        <time>2014-06-28T08:46:07.000Z</time>
      </trkpt>
      <trkpt lat="45.14633" lon="5.63948">
        <ele>1814</ele>
        <time>2014-06-28T08:46:08.000Z</time>
      </trkpt>
      <trkpt lat="45.14633" lon="5.63948">
        <ele>1814</ele>
        <time>2014-06-28T08:46:09.000Z</time>
      </trkpt>
      <trkpt lat="45.14633" lon="5.63947">
        <ele>1815</ele>
        <time>2014-06-28T08:46:10.000Z</time>
      </trkpt>
      <trkpt lat="45.14633" lon="5.63947">
        <ele>1815</ele>
        <time>2014-06-28T08:46:11.000Z</time>
      </trkpt>
      <trkpt lat="45.14633" lon="5.63946">
        <ele>1815</ele>
        <time>2014-06-28T08:46:12.000Z</time>
      </trkpt>
      <trkpt lat="45.14632" lon="5.63946">
        <ele>1816</ele>
        <time>2014-06-28T08:46:13.000Z</time>
      </trkpt>
      <trkpt lat="45.14632" lon="5.63946">
        <ele>1816</ele>
        <time>2014-06-28T08:46:14.000Z</time>
      </trkpt>
      <trkpt lat="45.14632" lon="5.63946">
        <ele>1816</ele>
        <time>2014-06-28T08:46:15.000Z</time>
      </trkpt>
      <trkpt lat="45.14631" lon="5.63946">
        <ele>1817</ele>
        <time>2014-06-28T08:46:16.000Z</time>
      </trkpt>
      <trkpt lat="45.14631" lon="5.63945">
        <ele>1817</ele>
        <time>2014-06-28T08:46:17.000Z</time>
      </trkpt>
      <trkpt lat="45.14631" lon="5.63945">
        <ele>1817</ele>
        <time>2014-06-28T08:46:18.000Z</time>
      </trkpt>
      <trkpt lat="45.1463" lon="5.63944">
        <ele>1817</ele>
        <time>2014-06-28T08:46:19.000Z</time>
      </trkpt>
      <trkpt lat="45.1463" lon="5.63943">
        <ele>1818</ele>
        <time>2014-06-28T08:46:20.000Z</time>
      </trkpt>
      <trkpt lat="45.14631" lon="5.63942">
        <ele>1818</ele>
        <time>2014-06-28T08:46:21.000Z</time>
      </trkpt>
      <trkpt lat="45.14631" lon="5.63942">
        <ele>1818</ele>
        <time>2014-06-28T08:46:22.000Z</time>
      </trkpt>
      <trkpt lat="45.14631" lon="5.63941">
        <ele>1819</ele>
        <time>2014-06-28T08:46:23.000Z</time>
      </trkpt>
      <trkpt lat="45.14631" lon="5.6394">
        <ele>1819</ele>
        <time>2014-06-28T08:46:24.000Z</time>
      </trkpt>
      <trkpt lat="45.14631" lon="5.6394">
        <ele>1819</ele>
        <time>2014-06-28T08:46:25.000Z</time>
      </trkpt>
      <trkpt lat="45.14631" lon="5.6394">
        <ele>1819</ele>
        <time>2014-06-28T08:46:26.000Z</time>
      </trkpt>
      <trkpt lat="45.14632" lon="5.6394">
        <ele>1820</ele>
        <time>2014-06-28T08:46:27.000Z</time>
      </trkpt>
      <trkpt lat="45.14632" lon="5.6394">
        <ele>1820</ele>
        <time>2014-06-28T08:46:28.000Z</time>
      </trkpt>
      <trkpt lat="45.14631" lon="5.63939">
        <ele>1820</ele>
        <time>2014-06-28T08:46:29.000Z</time>
      </trkpt>
      <trkpt lat="45.14631" lon="5.63939">
        <ele>1820</ele>
        <time>2014-06-28T08:46:30.000Z</time>
      </trkpt>
      <trkpt lat="45.14631" lon="5.63938">
        <ele>1821</ele>
        <time>2014-06-28T08:46:31.000Z</time>
      </trkpt>
      <trkpt lat="45.14631" lon="5.63938">
        <ele>1821</ele>
        <time>2014-06-28T08:46:32.000Z</time>
      </trkpt>
      <trkpt lat="45.1463" lon="5.63937">
        <ele>1821</ele>
        <time>2014-06-28T08:46:33.000Z</time>
      </trkpt>
      <trkpt lat="45.1463" lon="5.63936">
        <ele>1821</ele>
        <time>2014-06-28T08:46:34.000Z</time>
      </trkpt>
      <trkpt lat="45.14629" lon="5.63935">
        <ele>1822</ele>
        <time>2014-06-28T08:46:35.000Z</time>
      </trkpt>
      <trkpt lat="45.14628" lon="5.63934">
        <ele>1822</ele>
        <time>2014-06-28T08:46:36.000Z</time>
      </trkpt>
      <trkpt lat="45.14628" lon="5.63934">
        <ele>1822</ele>
        <time>2014-06-28T08:46:37.000Z</time>
      </trkpt>
      <trkpt lat="45.14627" lon="5.63934">
        <ele>1822</ele>
        <time>2014-06-28T08:46:38.000Z</time>
      </trkpt>
      <trkpt lat="45.14627" lon="5.63933">
        <ele>1823</ele>
        <time>2014-06-28T08:46:39.000Z</time>
      </trkpt>
      <trkpt lat="45.14626" lon="5.63933">
        <ele>1823</ele>
        <time>2014-06-28T08:46:40.000Z</time>
      </trkpt>
      <trkpt lat="45.14626" lon="5.63932">
        <ele>1823</ele>
        <time>2014-06-28T08:46:41.000Z</time>
      </trkpt>
      <trkpt lat="45.14626" lon="5.63931">
        <ele>1823</ele>
        <time>2014-06-28T08:46:42.000Z</time>
      </trkpt>
      <trkpt lat="45.14626" lon="5.63931">
        <ele>1823</ele>
        <time>2014-06-28T08:46:43.000Z</time>
      </trkpt>
      <trkpt lat="45.14626" lon="5.63931">
        <ele>1824</ele>
        <time>2014-06-28T08:46:44.000Z</time>
      </trkpt>
      <trkpt lat="45.14625" lon="5.6393">
        <ele>1824</ele>
        <time>2014-06-28T08:46:45.000Z</time>
      </trkpt>
      <trkpt lat="45.14625" lon="5.6393">
        <ele>1824</ele>
        <time>2014-06-28T08:46:46.000Z</time>
      </trkpt>
      <trkpt lat="45.14624" lon="5.63929">
        <ele>1824</ele>
        <time>2014-06-28T08:46:47.000Z</time>
      </trkpt>
      <trkpt lat="45.14624" lon="5.63929">
        <ele>1825</ele>
        <time>2014-06-28T08:46:48.000Z</time>
      </trkpt>
      <trkpt lat="45.14624" lon="5.63928">
        <ele>1825</ele>
        <time>2014-06-28T08:46:49.000Z</time>
      </trkpt>
      <trkpt lat="45.14624" lon="5.63927">
        <ele>1825</ele>
        <time>2014-06-28T08:46:50.000Z</time>
      </trkpt>
      <trkpt lat="45.14624" lon="5.63927">
        <ele>1826</ele>
        <time>2014-06-28T08:46:51.000Z</time>
      </trkpt>
      <trkpt lat="45.14624" lon="5.63926">
        <ele>1826</ele>
        <time>2014-06-28T08:46:52.000Z</time>
      </trkpt>
      <trkpt lat="45.14625" lon="5.63926">
        <ele>1826</ele>
        <time>2014-06-28T08:46:53.000Z</time>
      </trkpt>
      <trkpt lat="45.14625" lon="5.63926">
        <ele>1826</ele>
        <time>2014-06-28T08:46:54.000Z</time>
      </trkpt>
      <trkpt lat="45.14625" lon="5.63925">
        <ele>1827</ele>
        <time>2014-06-28T08:46:55.000Z</time>
      </trkpt>
      <trkpt lat="45.14625" lon="5.63925">
        <ele>1827</ele>
        <time>2014-06-28T08:46:56.000Z</time>
      </trkpt>
      <trkpt lat="45.14625" lon="5.63925">
        <ele>1827</ele>
        <time>2014-06-28T08:46:57.000Z</time>
      </trkpt>
      <trkpt lat="45.14624" lon="5.63925">
        <ele>1827</ele>
        <time>2014-06-28T08:46:58.000Z</time>
      </trkpt>
      <trkpt lat="45.14624" lon="5.63925">
        <ele>1828</ele>
        <time>2014-06-28T08:46:59.000Z</time>
      </trkpt>
      <trkpt lat="45.14624" lon="5.63924">
        <ele>1828</ele>
        <time>2014-06-28T08:47:00.000Z</time>
      </trkpt>
      <trkpt lat="45.14624" lon="5.63924">
        <ele>1828</ele>
        <time>2014-06-28T08:47:01.000Z</time>
      </trkpt>
      <trkpt lat="45.14624" lon="5.63924">
        <ele>1829</ele>
        <time>2014-06-28T08:47:02.000Z</time>
      </trkpt>
      <trkpt lat="45.14624" lon="5.63924">
        <ele>1829</ele>
        <time>2014-06-28T08:47:03.000Z</time>
      </trkpt>
      <trkpt lat="45.14624" lon="5.63924">
        <ele>1829</ele>
        <time>2014-06-28T08:47:04.000Z</time>
      </trkpt>
      <trkpt lat="45.14624" lon="5.63924">
        <ele>1830</ele>
        <time>2014-06-28T08:47:05.000Z</time>
      </trkpt>
      <trkpt lat="45.14624" lon="5.63924">
        <ele>1830</ele>
        <time>2014-06-28T08:47:06.000Z</time>
      </trkpt>
      <trkpt lat="45.14625" lon="5.63924">
        <ele>1830</ele>
        <time>2014-06-28T08:47:07.000Z</time>
      </trkpt>
      <trkpt lat="45.14625" lon="5.63924">
        <ele>1830</ele>
        <time>2014-06-28T08:47:08.000Z</time>
      </trkpt>
      <trkpt lat="45.14625" lon="5.63923">
        <ele>1831</ele>
        <time>2014-06-28T08:47:09.000Z</time>
      </trkpt>
      <trkpt lat="45.14625" lon="5.63923">
        <ele>1831</ele>
        <time>2014-06-28T08:47:10.000Z</time>
      </trkpt>
      <trkpt lat="45.14625" lon="5.63923">
        <ele>1831</ele>
        <time>2014-06-28T08:47:11.000Z</time>
      </trkpt>
      <trkpt lat="45.14625" lon="5.63922">
        <ele>1831</ele>
        <time>2014-06-28T08:47:12.000Z</time>
      </trkpt>
      <trkpt lat="45.14625" lon="5.63922">
        <ele>1832</ele>
        <time>2014-06-28T08:47:13.000Z</time>
      </trkpt>
      <trkpt lat="45.14625" lon="5.63921">
        <ele>1832</ele>
        <time>2014-06-28T08:47:14.000Z</time>
      </trkpt>
      <trkpt lat="45.14624" lon="5.63921">
        <ele>1832</ele>
        <time>2014-06-28T08:47:15.000Z</time>
      </trkpt>
      <trkpt lat="45.14624" lon="5.63921">
        <ele>1832</ele>
        <time>2014-06-28T08:47:16.000Z</time>
      </trkpt>
      <trkpt lat="45.14624" lon="5.63921">
        <ele>1832</ele>
        <time>2014-06-28T08:47:17.000Z</time>
      </trkpt>
      <trkpt lat="45.14624" lon="5.6392">
        <ele>1832</ele>
        <time>2014-06-28T08:47:18.000Z</time>
      </trkpt>
      <trkpt lat="45.14624" lon="5.6392">
        <ele>1833</ele>
        <time>2014-06-28T08:47:19.000Z</time>
      </trkpt>
      <trkpt lat="45.14624" lon="5.6392">
        <ele>1833</ele>
        <time>2014-06-28T08:47:20.000Z</time>
      </trkpt>
      <trkpt lat="45.14624" lon="5.63919">
        <ele>1833</ele>
        <time>2014-06-28T08:47:21.000Z</time>
      </trkpt>
      <trkpt lat="45.14624" lon="5.63919">
        <ele>1833</ele>
        <time>2014-06-28T08:47:22.000Z</time>
      </trkpt>
      <trkpt lat="45.14624" lon="5.63919">
        <ele>1833</ele>
        <time>2014-06-28T08:47:23.000Z</time>
      </trkpt>
      <trkpt lat="45.14623" lon="5.63919">
        <ele>1833</ele>
        <time>2014-06-28T08:47:24.000Z</time>
      </trkpt>
      <trkpt lat="45.14623" lon="5.63918">
        <ele>1833</ele>
        <time>2014-06-28T08:47:25.000Z</time>
      </trkpt>
      <trkpt lat="45.14623" lon="5.63917">
        <ele>1834</ele>
        <time>2014-06-28T08:47:26.000Z</time>
      </trkpt>
      <trkpt lat="45.14623" lon="5.63917">
        <ele>1834</ele>
        <time>2014-06-28T08:47:27.000Z</time>
      </trkpt>
      <trkpt lat="45.14623" lon="5.63916">
        <ele>1834</ele>
        <time>2014-06-28T08:47:28.000Z</time>
      </trkpt>
      <trkpt lat="45.14623" lon="5.63916">
        <ele>1834</ele>
        <time>2014-06-28T08:47:29.000Z</time>
      </trkpt>
      <trkpt lat="45.14622" lon="5.63916">
        <ele>1835</ele>
        <time>2014-06-28T08:47:30.000Z</time>
      </trkpt>
      <trkpt lat="45.14622" lon="5.63916">
        <ele>1835</ele>
        <time>2014-06-28T08:47:31.000Z</time>
      </trkpt>
      <trkpt lat="45.14621" lon="5.63916">
        <ele>1835</ele>
        <time>2014-06-28T08:47:32.000Z</time>
      </trkpt>
      <trkpt lat="45.14621" lon="5.63916">
        <ele>1835</ele>
        <time>2014-06-28T08:47:33.000Z</time>
      </trkpt>
      <trkpt lat="45.14621" lon="5.63916">
        <ele>1836</ele>
        <time>2014-06-28T08:47:34.000Z</time>
      </trkpt>
      <trkpt lat="45.14621" lon="5.63915">
        <ele>1836</ele>
        <time>2014-06-28T08:47:35.000Z</time>
      </trkpt>
      <trkpt lat="45.14621" lon="5.63915">
        <ele>1836</ele>
        <time>2014-06-28T08:47:36.000Z</time>
      </trkpt>
      <trkpt lat="45.14621" lon="5.63915">
        <ele>1837</ele>
        <time>2014-06-28T08:47:37.000Z</time>
      </trkpt>
      <trkpt lat="45.14621" lon="5.63915">
        <ele>1837</ele>
        <time>2014-06-28T08:47:38.000Z</time>
      </trkpt>
      <trkpt lat="45.14621" lon="5.63914">
        <ele>1837</ele>
        <time>2014-06-28T08:47:39.000Z</time>
      </trkpt>
      <trkpt lat="45.1462" lon="5.63914">
        <ele>1838</ele>
        <time>2014-06-28T08:47:40.000Z</time>
      </trkpt>
      <trkpt lat="45.1462" lon="5.63913">
        <ele>1838</ele>
        <time>2014-06-28T08:47:41.000Z</time>
      </trkpt>
      <trkpt lat="45.1462" lon="5.63913">
        <ele>1838</ele>
        <time>2014-06-28T08:47:42.000Z</time>
      </trkpt>
      <trkpt lat="45.1462" lon="5.63913">
        <ele>1839</ele>
        <time>2014-06-28T08:47:43.000Z</time>
      </trkpt>
      <trkpt lat="45.1462" lon="5.63913">
        <ele>1839</ele>
        <time>2014-06-28T08:47:44.000Z</time>
      </trkpt>
      <trkpt lat="45.1462" lon="5.63912">
        <ele>1839</ele>
        <time>2014-06-28T08:47:45.000Z</time>
      </trkpt>
      <trkpt lat="45.14621" lon="5.63912">
        <ele>1839</ele>
        <time>2014-06-28T08:47:46.000Z</time>
      </trkpt>
      <trkpt lat="45.14622" lon="5.63911">
        <ele>1840</ele>
        <time>2014-06-28T08:47:47.000Z</time>
      </trkpt>
      <trkpt lat="45.14622" lon="5.63911">
        <ele>1840</ele>
        <time>2014-06-28T08:47:48.000Z</time>
      </trkpt>
      <trkpt lat="45.14623" lon="5.63911">
        <ele>1840</ele>
        <time>2014-06-28T08:47:49.000Z</time>
      </trkpt>
      <trkpt lat="45.14624" lon="5.63911">
        <ele>1841</ele>
        <time>2014-06-28T08:47:50.000Z</time>
      </trkpt>
      <trkpt lat="45.14624" lon="5.63911">
        <ele>1841</ele>
        <time>2014-06-28T08:47:51.000Z</time>
      </trkpt>
      <trkpt lat="45.14625" lon="5.63911">
        <ele>1841</ele>
        <time>2014-06-28T08:47:52.000Z</time>
      </trkpt>
      <trkpt lat="45.14625" lon="5.63911">
        <ele>1841</ele>
        <time>2014-06-28T08:47:53.000Z</time>
      </trkpt>
      <trkpt lat="45.14626" lon="5.63911">
        <ele>1842</ele>
        <time>2014-06-28T08:47:54.000Z</time>
      </trkpt>
      <trkpt lat="45.14626" lon="5.63911">
        <ele>1842</ele>
        <time>2014-06-28T08:47:55.000Z</time>
      </trkpt>
      <trkpt lat="45.14627" lon="5.63911">
        <ele>1842</ele>
        <time>2014-06-28T08:47:56.000Z</time>
      </trkpt>
      <trkpt lat="45.14628" lon="5.63911">
        <ele>1843</ele>
        <time>2014-06-28T08:47:57.000Z</time>
      </trkpt>
      <trkpt lat="45.14628" lon="5.63911">
        <ele>1843</ele>
        <time>2014-06-28T08:47:58.000Z</time>
      </trkpt>
      <trkpt lat="45.14629" lon="5.63911">
        <ele>1843</ele>
        <time>2014-06-28T08:47:59.000Z</time>
      </trkpt>
      <trkpt lat="45.14629" lon="5.63911">
        <ele>1843</ele>
        <time>2014-06-28T08:48:00.000Z</time>
      </trkpt>
      <trkpt lat="45.1463" lon="5.63911">
        <ele>1844</ele>
        <time>2014-06-28T08:48:01.000Z</time>
      </trkpt>
      <trkpt lat="45.1463" lon="5.63911">
        <ele>1844</ele>
        <time>2014-06-28T08:48:02.000Z</time>
      </trkpt>
      <trkpt lat="45.14631" lon="5.63911">
        <ele>1844</ele>
        <time>2014-06-28T08:48:03.000Z</time>
      </trkpt>
      <trkpt lat="45.14631" lon="5.63911">
        <ele>1845</ele>
        <time>2014-06-28T08:48:04.000Z</time>
      </trkpt>
      <trkpt lat="45.14632" lon="5.63911">
        <ele>1845</ele>
        <time>2014-06-28T08:48:05.000Z</time>
      </trkpt>
      <trkpt lat="45.14632" lon="5.63911">
        <ele>1845</ele>
        <time>2014-06-28T08:48:06.000Z</time>
      </trkpt>
      <trkpt lat="45.14633" lon="5.63912">
        <ele>1846</ele>
        <time>2014-06-28T08:48:07.000Z</time>
      </trkpt>
      <trkpt lat="45.14634" lon="5.63912">
        <ele>1846</ele>
        <time>2014-06-28T08:48:08.000Z</time>
      </trkpt>
      <trkpt lat="45.14634" lon="5.63913">
        <ele>1846</ele>
        <time>2014-06-28T08:48:09.000Z</time>
      </trkpt>
      <trkpt lat="45.14635" lon="5.63913">
        <ele>1846</ele>
        <time>2014-06-28T08:48:10.000Z</time>
      </trkpt>
      <trkpt lat="45.14636" lon="5.63914">
        <ele>1847</ele>
        <time>2014-06-28T08:48:11.000Z</time>
      </trkpt>
      <trkpt lat="45.14637" lon="5.63915">
        <ele>1847</ele>
        <time>2014-06-28T08:48:12.000Z</time>
      </trkpt>
      <trkpt lat="45.14637" lon="5.63915">
        <ele>1847</ele>
        <time>2014-06-28T08:48:13.000Z</time>
      </trkpt>
      <trkpt lat="45.14638" lon="5.63915">
        <ele>1848</ele>
        <time>2014-06-28T08:48:14.000Z</time>
      </trkpt>
      <trkpt lat="45.14638" lon="5.63916">
        <ele>1848</ele>
        <time>2014-06-28T08:48:15.000Z</time>
      </trkpt>
      <trkpt lat="45.14639" lon="5.63916">
        <ele>1848</ele>
        <time>2014-06-28T08:48:16.000Z</time>
      </trkpt>
      <trkpt lat="45.1464" lon="5.63916">
        <ele>1849</ele>
        <time>2014-06-28T08:48:17.000Z</time>
      </trkpt>
      <trkpt lat="45.1464" lon="5.63917">
        <ele>1849</ele>
        <time>2014-06-28T08:48:18.000Z</time>
      </trkpt>
      <trkpt lat="45.14641" lon="5.63917">
        <ele>1850</ele>
        <time>2014-06-28T08:48:19.000Z</time>
      </trkpt>
      <trkpt lat="45.14641" lon="5.63917">
        <ele>1850</ele>
        <time>2014-06-28T08:48:20.000Z</time>
      </trkpt>
      <trkpt lat="45.14642" lon="5.63917">
        <ele>1850</ele>
        <time>2014-06-28T08:48:21.000Z</time>
      </trkpt>
      <trkpt lat="45.14643" lon="5.63917">
        <ele>1851</ele>
        <time>2014-06-28T08:48:22.000Z</time>
      </trkpt>
      <trkpt lat="45.14644" lon="5.63917">
        <ele>1851</ele>
        <time>2014-06-28T08:48:23.000Z</time>
      </trkpt>
      <trkpt lat="45.14644" lon="5.63918">
        <ele>1851</ele>
        <time>2014-06-28T08:48:24.000Z</time>
      </trkpt>
      <trkpt lat="45.14645" lon="5.63918">
        <ele>1852</ele>
        <time>2014-06-28T08:48:25.000Z</time>
      </trkpt>
      <trkpt lat="45.14646" lon="5.63918">
        <ele>1852</ele>
        <time>2014-06-28T08:48:26.000Z</time>
      </trkpt>
      <trkpt lat="45.14647" lon="5.63918">
        <ele>1852</ele>
        <time>2014-06-28T08:48:27.000Z</time>
      </trkpt>
      <trkpt lat="45.14649" lon="5.63919">
        <ele>1852</ele>
        <time>2014-06-28T08:48:28.000Z</time>
      </trkpt>
      <trkpt lat="45.1465" lon="5.63919">
        <ele>1853</ele>
        <time>2014-06-28T08:48:29.000Z</time>
      </trkpt>
      <trkpt lat="45.14651" lon="5.63919">
        <ele>1853</ele>
        <time>2014-06-28T08:48:30.000Z</time>
      </trkpt>
      <trkpt lat="45.14651" lon="5.63919">
        <ele>1853</ele>
        <time>2014-06-28T08:48:31.000Z</time>
      </trkpt>
      <trkpt lat="45.14652" lon="5.63919">
        <ele>1854</ele>
        <time>2014-06-28T08:48:32.000Z</time>
      </trkpt>
      <trkpt lat="45.14653" lon="5.6392">
        <ele>1854</ele>
        <time>2014-06-28T08:48:33.000Z</time>
      </trkpt>
      <trkpt lat="45.14653" lon="5.6392">
        <ele>1854</ele>
        <time>2014-06-28T08:48:34.000Z</time>
      </trkpt>
      <trkpt lat="45.14654" lon="5.6392">
        <ele>1854</ele>
        <time>2014-06-28T08:48:35.000Z</time>
      </trkpt>
      <trkpt lat="45.14655" lon="5.6392">
        <ele>1855</ele>
        <time>2014-06-28T08:48:36.000Z</time>
      </trkpt>
      <trkpt lat="45.14655" lon="5.63921">
        <ele>1855</ele>
        <time>2014-06-28T08:48:37.000Z</time>
      </trkpt>
      <trkpt lat="45.14656" lon="5.63921">
        <ele>1855</ele>
        <time>2014-06-28T08:48:38.000Z</time>
      </trkpt>
      <trkpt lat="45.14656" lon="5.63921">
        <ele>1856</ele>
        <time>2014-06-28T08:48:39.000Z</time>
      </trkpt>
      <trkpt lat="45.14656" lon="5.63921">
        <ele>1856</ele>
        <time>2014-06-28T08:48:40.000Z</time>
      </trkpt>
      <trkpt lat="45.14657" lon="5.63921">
        <ele>1856</ele>
        <time>2014-06-28T08:48:41.000Z</time>
      </trkpt>
      <trkpt lat="45.14657" lon="5.63922">
        <ele>1856</ele>
        <time>2014-06-28T08:48:42.000Z</time>
      </trkpt>
      <trkpt lat="45.14658" lon="5.63922">
        <ele>1857</ele>
        <time>2014-06-28T08:48:43.000Z</time>
      </trkpt>
      <trkpt lat="45.14658" lon="5.63922">
        <ele>1857</ele>
        <time>2014-06-28T08:48:44.000Z</time>
      </trkpt>
      <trkpt lat="45.14658" lon="5.63922">
        <ele>1857</ele>
        <time>2014-06-28T08:48:45.000Z</time>
      </trkpt>
      <trkpt lat="45.14659" lon="5.63922">
        <ele>1858</ele>
        <time>2014-06-28T08:48:46.000Z</time>
      </trkpt>
      <trkpt lat="45.14659" lon="5.63921">
        <ele>1858</ele>
        <time>2014-06-28T08:48:47.000Z</time>
      </trkpt>
      <trkpt lat="45.1466" lon="5.63921">
        <ele>1858</ele>
        <time>2014-06-28T08:48:48.000Z</time>
      </trkpt>
      <trkpt lat="45.1466" lon="5.63921">
        <ele>1859</ele>
        <time>2014-06-28T08:48:49.000Z</time>
      </trkpt>
      <trkpt lat="45.14661" lon="5.63921">
        <ele>1859</ele>
        <time>2014-06-28T08:48:50.000Z</time>
      </trkpt>
      <trkpt lat="45.14662" lon="5.63921">
        <ele>1859</ele>
        <time>2014-06-28T08:48:51.000Z</time>
      </trkpt>
      <trkpt lat="45.14663" lon="5.63922">
        <ele>1859</ele>
        <time>2014-06-28T08:48:52.000Z</time>
      </trkpt>
      <trkpt lat="45.14664" lon="5.63923">
        <ele>1859</ele>
        <time>2014-06-28T08:48:53.000Z</time>
      </trkpt>
      <trkpt lat="45.14665" lon="5.63924">
        <ele>1859</ele>
        <time>2014-06-28T08:48:54.000Z</time>
      </trkpt>
      <trkpt lat="45.14666" lon="5.63925">
        <ele>1860</ele>
        <time>2014-06-28T08:48:55.000Z</time>
      </trkpt>
      <trkpt lat="45.14667" lon="5.63925">
        <ele>1860</ele>
        <time>2014-06-28T08:48:56.000Z</time>
      </trkpt>
      <trkpt lat="45.14668" lon="5.63926">
        <ele>1860</ele>
        <time>2014-06-28T08:48:57.000Z</time>
      </trkpt>
      <trkpt lat="45.14669" lon="5.63926">
        <ele>1860</ele>
        <time>2014-06-28T08:48:58.000Z</time>
      </trkpt>
      <trkpt lat="45.1467" lon="5.63927">
        <ele>1860</ele>
        <time>2014-06-28T08:48:59.000Z</time>
      </trkpt>
      <trkpt lat="45.1467" lon="5.63927">
        <ele>1860</ele>
        <time>2014-06-28T08:49:00.000Z</time>
      </trkpt>
      <trkpt lat="45.14671" lon="5.63928">
        <ele>1860</ele>
        <time>2014-06-28T08:49:01.000Z</time>
      </trkpt>
      <trkpt lat="45.14671" lon="5.63928">
        <ele>1861</ele>
        <time>2014-06-28T08:49:02.000Z</time>
      </trkpt>
      <trkpt lat="45.14671" lon="5.63928">
        <ele>1861</ele>
        <time>2014-06-28T08:49:03.000Z</time>
      </trkpt>
      <trkpt lat="45.14671" lon="5.63929">
        <ele>1861</ele>
        <time>2014-06-28T08:49:04.000Z</time>
      </trkpt>
      <trkpt lat="45.14672" lon="5.6393">
        <ele>1861</ele>
        <time>2014-06-28T08:49:05.000Z</time>
      </trkpt>
      <trkpt lat="45.14673" lon="5.6393">
        <ele>1862</ele>
        <time>2014-06-28T08:49:06.000Z</time>
      </trkpt>
      <trkpt lat="45.14674" lon="5.63931">
        <ele>1862</ele>
        <time>2014-06-28T08:49:07.000Z</time>
      </trkpt>
      <trkpt lat="45.14675" lon="5.63932">
        <ele>1863</ele>
        <time>2014-06-28T08:49:08.000Z</time>
      </trkpt>
      <trkpt lat="45.14676" lon="5.63933">
        <ele>1863</ele>
        <time>2014-06-28T08:49:09.000Z</time>
      </trkpt>
      <trkpt lat="45.14677" lon="5.63934">
        <ele>1863</ele>
        <time>2014-06-28T08:49:10.000Z</time>
      </trkpt>
      <trkpt lat="45.14678" lon="5.63934">
        <ele>1863</ele>
        <time>2014-06-28T08:49:11.000Z</time>
      </trkpt>
      <trkpt lat="45.14679" lon="5.63935">
        <ele>1864</ele>
        <time>2014-06-28T08:49:12.000Z</time>
      </trkpt>
      <trkpt lat="45.14681" lon="5.63935">
        <ele>1864</ele>
        <time>2014-06-28T08:49:13.000Z</time>
      </trkpt>
      <trkpt lat="45.14682" lon="5.63936">
        <ele>1864</ele>
        <time>2014-06-28T08:49:14.000Z</time>
      </trkpt>
      <trkpt lat="45.14683" lon="5.63937">
        <ele>1864</ele>
        <time>2014-06-28T08:49:15.000Z</time>
      </trkpt>
      <trkpt lat="45.14684" lon="5.63938">
        <ele>1864</ele>
        <time>2014-06-28T08:49:16.000Z</time>
      </trkpt>
      <trkpt lat="45.14685" lon="5.63938">
        <ele>1864</ele>
        <time>2014-06-28T08:49:17.000Z</time>
      </trkpt>
      <trkpt lat="45.14686" lon="5.63939">
        <ele>1864</ele>
        <time>2014-06-28T08:49:18.000Z</time>
      </trkpt>
      <trkpt lat="45.14686" lon="5.63939">
        <ele>1865</ele>
        <time>2014-06-28T08:49:19.000Z</time>
      </trkpt>
      <trkpt lat="45.14687" lon="5.63939">
        <ele>1865</ele>
        <time>2014-06-28T08:49:20.000Z</time>
      </trkpt>
      <trkpt lat="45.14688" lon="5.63939">
        <ele>1865</ele>
        <time>2014-06-28T08:49:21.000Z</time>
      </trkpt>
      <trkpt lat="45.14689" lon="5.63938">
        <ele>1865</ele>
        <time>2014-06-28T08:49:22.000Z</time>
      </trkpt>
      <trkpt lat="45.14689" lon="5.63938">
        <ele>1865</ele>
        <time>2014-06-28T08:49:23.000Z</time>
      </trkpt>
      <trkpt lat="45.1469" lon="5.63937">
        <ele>1865</ele>
        <time>2014-06-28T08:49:24.000Z</time>
      </trkpt>
      <trkpt lat="45.1469" lon="5.63937">
        <ele>1865</ele>
        <time>2014-06-28T08:49:25.000Z</time>
      </trkpt>
      <trkpt lat="45.1469" lon="5.63936">
        <ele>1865</ele>
        <time>2014-06-28T08:49:26.000Z</time>
      </trkpt>
      <trkpt lat="45.14691" lon="5.63936">
        <ele>1866</ele>
        <time>2014-06-28T08:49:27.000Z</time>
      </trkpt>
      <trkpt lat="45.14691" lon="5.63935">
        <ele>1866</ele>
        <time>2014-06-28T08:49:28.000Z</time>
      </trkpt>
      <trkpt lat="45.14691" lon="5.63935">
        <ele>1866</ele>
        <time>2014-06-28T08:49:29.000Z</time>
      </trkpt>
      <trkpt lat="45.14692" lon="5.63934">
        <ele>1866</ele>
        <time>2014-06-28T08:49:30.000Z</time>
      </trkpt>
      <trkpt lat="45.14692" lon="5.63933">
        <ele>1866</ele>
        <time>2014-06-28T08:49:31.000Z</time>
      </trkpt>
      <trkpt lat="45.14692" lon="5.63933">
        <ele>1866</ele>
        <time>2014-06-28T08:49:32.000Z</time>
      </trkpt>
      <trkpt lat="45.14693" lon="5.63932">
        <ele>1866</ele>
        <time>2014-06-28T08:49:33.000Z</time>
      </trkpt>
      <trkpt lat="45.14693" lon="5.63932">
        <ele>1866</ele>
        <time>2014-06-28T08:49:34.000Z</time>
      </trkpt>
      <trkpt lat="45.14693" lon="5.63932">
        <ele>1866</ele>
        <time>2014-06-28T08:49:35.000Z</time>
      </trkpt>
      <trkpt lat="45.14693" lon="5.63932">
        <ele>1866</ele>
        <time>2014-06-28T08:49:36.000Z</time>
      </trkpt>
      <trkpt lat="45.14694" lon="5.63932">
        <ele>1866</ele>
        <time>2014-06-28T08:49:37.000Z</time>
      </trkpt>
      <trkpt lat="45.14694" lon="5.63932">
        <ele>1866</ele>
        <time>2014-06-28T08:49:38.000Z</time>
      </trkpt>
      <trkpt lat="45.14694" lon="5.63931">
        <ele>1867</ele>
        <time>2014-06-28T08:49:39.000Z</time>
      </trkpt>
      <trkpt lat="45.14695" lon="5.63931">
        <ele>1867</ele>
        <time>2014-06-28T08:49:40.000Z</time>
      </trkpt>
      <trkpt lat="45.14695" lon="5.6393">
        <ele>1867</ele>
        <time>2014-06-28T08:49:41.000Z</time>
      </trkpt>
      <trkpt lat="45.14695" lon="5.6393">
        <ele>1867</ele>
        <time>2014-06-28T08:49:42.000Z</time>
      </trkpt>
      <trkpt lat="45.14695" lon="5.6393">
        <ele>1867</ele>
        <time>2014-06-28T08:49:43.000Z</time>
      </trkpt>
      <trkpt lat="45.14695" lon="5.6393">
        <ele>1867</ele>
        <time>2014-06-28T08:49:44.000Z</time>
      </trkpt>
      <trkpt lat="45.14696" lon="5.63929">
        <ele>1867</ele>
        <time>2014-06-28T08:49:45.000Z</time>
      </trkpt>
      <trkpt lat="45.14696" lon="5.63929">
        <ele>1867</ele>
        <time>2014-06-28T08:49:46.000Z</time>
      </trkpt>
      <trkpt lat="45.14696" lon="5.63929">
        <ele>1868</ele>
        <time>2014-06-28T08:49:47.000Z</time>
      </trkpt>
      <trkpt lat="45.14696" lon="5.63929">
        <ele>1868</ele>
        <time>2014-06-28T08:49:48.000Z</time>
      </trkpt>
      <trkpt lat="45.14696" lon="5.63929">
        <ele>1868</ele>
        <time>2014-06-28T08:49:49.000Z</time>
      </trkpt>
      <trkpt lat="45.14696" lon="5.63928">
        <ele>1868</ele>
        <time>2014-06-28T08:49:50.000Z</time>
      </trkpt>
      <trkpt lat="45.14697" lon="5.63928">
        <ele>1868</ele>
        <time>2014-06-28T08:49:51.000Z</time>
      </trkpt>
      <trkpt lat="45.14697" lon="5.63928">
        <ele>1868</ele>
        <time>2014-06-28T08:49:52.000Z</time>
      </trkpt>
      <trkpt lat="45.14698" lon="5.63927">
        <ele>1868</ele>
        <time>2014-06-28T08:49:53.000Z</time>
      </trkpt>
      <trkpt lat="45.14698" lon="5.63927">
        <ele>1868</ele>
        <time>2014-06-28T08:49:54.000Z</time>
      </trkpt>
      <trkpt lat="45.14697" lon="5.63927">
        <ele>1868</ele>
        <time>2014-06-28T08:49:55.000Z</time>
      </trkpt>
      <trkpt lat="45.14697" lon="5.63927">
        <ele>1869</ele>
        <time>2014-06-28T08:49:56.000Z</time>
      </trkpt>
      <trkpt lat="45.14697" lon="5.63926">
        <ele>1869</ele>
        <time>2014-06-28T08:49:57.000Z</time>
      </trkpt>
      <trkpt lat="45.14697" lon="5.63926">
        <ele>1869</ele>
        <time>2014-06-28T08:49:58.000Z</time>
      </trkpt>
      <trkpt lat="45.14696" lon="5.63925">
        <ele>1869</ele>
        <time>2014-06-28T08:49:59.000Z</time>
      </trkpt>
      <trkpt lat="45.14696" lon="5.63925">
        <ele>1869</ele>
        <time>2014-06-28T08:50:00.000Z</time>
      </trkpt>
      <trkpt lat="45.14696" lon="5.63925">
        <ele>1869</ele>
        <time>2014-06-28T08:50:01.000Z</time>
      </trkpt>
      <trkpt lat="45.14696" lon="5.63925">
        <ele>1869</ele>
        <time>2014-06-28T08:50:02.000Z</time>
      </trkpt>
      <trkpt lat="45.14695" lon="5.63925">
        <ele>1869</ele>
        <time>2014-06-28T08:50:03.000Z</time>
      </trkpt>
      <trkpt lat="45.14695" lon="5.63925">
        <ele>1869</ele>
        <time>2014-06-28T08:50:04.000Z</time>
      </trkpt>
      <trkpt lat="45.14695" lon="5.63925">
        <ele>1869</ele>
        <time>2014-06-28T08:50:05.000Z</time>
      </trkpt>
      <trkpt lat="45.14695" lon="5.63925">
        <ele>1869</ele>
        <time>2014-06-28T08:50:06.000Z</time>
      </trkpt>
      <trkpt lat="45.14695" lon="5.63925">
        <ele>1869</ele>
        <time>2014-06-28T08:50:07.000Z</time>
      </trkpt>
      <trkpt lat="45.14695" lon="5.63925">
        <ele>1869</ele>
        <time>2014-06-28T08:50:08.000Z</time>
      </trkpt>
      <trkpt lat="45.14695" lon="5.63925">
        <ele>1869</ele>
        <time>2014-06-28T08:50:09.000Z</time>
      </trkpt>
      <trkpt lat="45.14695" lon="5.63925">
        <ele>1869</ele>
        <time>2014-06-28T08:50:10.000Z</time>
      </trkpt>
      <trkpt lat="45.14695" lon="5.63924">
        <ele>1869</ele>
        <time>2014-06-28T08:50:11.000Z</time>
      </trkpt>
      <trkpt lat="45.14695" lon="5.63924">
        <ele>1870</ele>
        <time>2014-06-28T08:50:12.000Z</time>
      </trkpt>
      <trkpt lat="45.14695" lon="5.63923">
        <ele>1870</ele>
        <time>2014-06-28T08:50:13.000Z</time>
      </trkpt>
      <trkpt lat="45.14695" lon="5.63923">
        <ele>1870</ele>
        <time>2014-06-28T08:50:14.000Z</time>
      </trkpt>
      <trkpt lat="45.14695" lon="5.63922">
        <ele>1870</ele>
        <time>2014-06-28T08:50:15.000Z</time>
      </trkpt>
      <trkpt lat="45.14695" lon="5.63922">
        <ele>1870</ele>
        <time>2014-06-28T08:50:16.000Z</time>
      </trkpt>
      <trkpt lat="45.14695" lon="5.63922">
        <ele>1870</ele>
        <time>2014-06-28T08:50:17.000Z</time>
      </trkpt>
      <trkpt lat="45.14695" lon="5.63922">
        <ele>1870</ele>
        <time>2014-06-28T08:50:18.000Z</time>
      </trkpt>
      <trkpt lat="45.14695" lon="5.63922">
        <ele>1870</ele>
        <time>2014-06-28T08:50:19.000Z</time>
      </trkpt>
      <trkpt lat="45.14695" lon="5.63921">
        <ele>1870</ele>
        <time>2014-06-28T08:50:20.000Z</time>
      </trkpt>
      <trkpt lat="45.14696" lon="5.63921">
        <ele>1870</ele>
        <time>2014-06-28T08:50:21.000Z</time>
      </trkpt>
      <trkpt lat="45.14696" lon="5.63921">
        <ele>1871</ele>
        <time>2014-06-28T08:50:22.000Z</time>
      </trkpt>
      <trkpt lat="45.14696" lon="5.6392">
        <ele>1871</ele>
        <time>2014-06-28T08:50:23.000Z</time>
      </trkpt>
      <trkpt lat="45.14695" lon="5.63919">
        <ele>1871</ele>
        <time>2014-06-28T08:50:24.000Z</time>
      </trkpt>
      <trkpt lat="45.14695" lon="5.63919">
        <ele>1871</ele>
        <time>2014-06-28T08:50:25.000Z</time>
      </trkpt>
      <trkpt lat="45.14695" lon="5.63919">
        <ele>1871</ele>
        <time>2014-06-28T08:50:26.000Z</time>
      </trkpt>
      <trkpt lat="45.14695" lon="5.63918">
        <ele>1871</ele>
        <time>2014-06-28T08:50:27.000Z</time>
      </trkpt>
      <trkpt lat="45.14695" lon="5.63918">
        <ele>1871</ele>
        <time>2014-06-28T08:50:28.000Z</time>
      </trkpt>
      <trkpt lat="45.14696" lon="5.63917">
        <ele>1871</ele>
        <time>2014-06-28T08:50:29.000Z</time>
      </trkpt>
      <trkpt lat="45.14696" lon="5.63917">
        <ele>1871</ele>
        <time>2014-06-28T08:50:30.000Z</time>
      </trkpt>
      <trkpt lat="45.14697" lon="5.63916">
        <ele>1871</ele>
        <time>2014-06-28T08:50:31.000Z</time>
      </trkpt>
      <trkpt lat="45.14697" lon="5.63916">
        <ele>1871</ele>
        <time>2014-06-28T08:50:32.000Z</time>
      </trkpt>
      <trkpt lat="45.14698" lon="5.63916">
        <ele>1871</ele>
        <time>2014-06-28T08:50:33.000Z</time>
      </trkpt>
      <trkpt lat="45.14698" lon="5.63916">
        <ele>1871</ele>
        <time>2014-06-28T08:50:34.000Z</time>
      </trkpt>
      <trkpt lat="45.14698" lon="5.63916">
        <ele>1872</ele>
        <time>2014-06-28T08:50:35.000Z</time>
      </trkpt>
      <trkpt lat="45.14699" lon="5.63916">
        <ele>1872</ele>
        <time>2014-06-28T08:50:36.000Z</time>
      </trkpt>
      <trkpt lat="45.14699" lon="5.63916">
        <ele>1872</ele>
        <time>2014-06-28T08:50:37.000Z</time>
      </trkpt>
      <trkpt lat="45.14699" lon="5.63916">
        <ele>1872</ele>
        <time>2014-06-28T08:50:38.000Z</time>
      </trkpt>
      <trkpt lat="45.14699" lon="5.63916">
        <ele>1872</ele>
        <time>2014-06-28T08:50:39.000Z</time>
      </trkpt>
      <trkpt lat="45.14699" lon="5.63916">
        <ele>1872</ele>
        <time>2014-06-28T08:50:40.000Z</time>
      </trkpt>
      <trkpt lat="45.14699" lon="5.63915">
        <ele>1872</ele>
        <time>2014-06-28T08:50:41.000Z</time>
      </trkpt>
      <trkpt lat="45.14699" lon="5.63915">
        <ele>1872</ele>
        <time>2014-06-28T08:50:42.000Z</time>
      </trkpt>
      <trkpt lat="45.147" lon="5.63915">
        <ele>1872</ele>
        <time>2014-06-28T08:50:43.000Z</time>
      </trkpt>
      <trkpt lat="45.147" lon="5.63915">
        <ele>1873</ele>
        <time>2014-06-28T08:50:44.000Z</time>
      </trkpt>
      <trkpt lat="45.14701" lon="5.63915">
        <ele>1873</ele>
        <time>2014-06-28T08:50:45.000Z</time>
      </trkpt>
      <trkpt lat="45.14702" lon="5.63915">
        <ele>1873</ele>
        <time>2014-06-28T08:50:46.000Z</time>
      </trkpt>
      <trkpt lat="45.14702" lon="5.63915">
        <ele>1873</ele>
        <time>2014-06-28T08:50:47.000Z</time>
      </trkpt>
      <trkpt lat="45.14703" lon="5.63916">
        <ele>1873</ele>
        <time>2014-06-28T08:50:48.000Z</time>
      </trkpt>
      <trkpt lat="45.14704" lon="5.63916">
        <ele>1873</ele>
        <time>2014-06-28T08:50:49.000Z</time>
      </trkpt>
      <trkpt lat="45.14704" lon="5.63915">
        <ele>1874</ele>
        <time>2014-06-28T08:50:50.000Z</time>
      </trkpt>
      <trkpt lat="45.14705" lon="5.63916">
        <ele>1874</ele>
        <time>2014-06-28T08:50:51.000Z</time>
      </trkpt>
      <trkpt lat="45.14705" lon="5.63916">
        <ele>1874</ele>
        <time>2014-06-28T08:50:52.000Z</time>
      </trkpt>
      <trkpt lat="45.14706" lon="5.63916">
        <ele>1875</ele>
        <time>2014-06-28T08:50:53.000Z</time>
      </trkpt>
      <trkpt lat="45.14706" lon="5.63917">
        <ele>1875</ele>
        <time>2014-06-28T08:50:54.000Z</time>
      </trkpt>
      <trkpt lat="45.14706" lon="5.63917">
        <ele>1875</ele>
        <time>2014-06-28T08:50:55.000Z</time>
      </trkpt>
      <trkpt lat="45.14707" lon="5.63918">
        <ele>1876</ele>
        <time>2014-06-28T08:50:56.000Z</time>
      </trkpt>
      <trkpt lat="45.14707" lon="5.63918">
        <ele>1876</ele>
        <time>2014-06-28T08:50:57.000Z</time>
      </trkpt>
      <trkpt lat="45.14708" lon="5.63919">
        <ele>1877</ele>
        <time>2014-06-28T08:50:58.000Z</time>
      </trkpt>
      <trkpt lat="45.14708" lon="5.6392">
        <ele>1877</ele>
        <time>2014-06-28T08:50:59.000Z</time>
      </trkpt>
      <trkpt lat="45.14709" lon="5.63921">
        <ele>1878</ele>
        <time>2014-06-28T08:51:00.000Z</time>
      </trkpt>
      <trkpt lat="45.14709" lon="5.63922">
        <ele>1879</ele>
        <time>2014-06-28T08:51:01.000Z</time>
      </trkpt>
      <trkpt lat="45.1471" lon="5.63923">
        <ele>1879</ele>
        <time>2014-06-28T08:51:02.000Z</time>
      </trkpt>
      <trkpt lat="45.1471" lon="5.63924">
        <ele>1880</ele>
        <time>2014-06-28T08:51:03.000Z</time>
      </trkpt>
      <trkpt lat="45.14711" lon="5.63925">
        <ele>1880</ele>
        <time>2014-06-28T08:51:04.000Z</time>
      </trkpt>
      <trkpt lat="45.14711" lon="5.63926">
        <ele>1881</ele>
        <time>2014-06-28T08:51:05.000Z</time>
      </trkpt>
      <trkpt lat="45.14712" lon="5.63927">
        <ele>1881</ele>
        <time>2014-06-28T08:51:06.000Z</time>
      </trkpt>
      <trkpt lat="45.14712" lon="5.63928">
        <ele>1882</ele>
        <time>2014-06-28T08:51:07.000Z</time>
      </trkpt>
      <trkpt lat="45.14713" lon="5.63928">
        <ele>1882</ele>
        <time>2014-06-28T08:51:08.000Z</time>
      </trkpt>
      <trkpt lat="45.14713" lon="5.63928">
        <ele>1883</ele>
        <time>2014-06-28T08:51:09.000Z</time>
      </trkpt>
      <trkpt lat="45.14713" lon="5.63929">
        <ele>1883</ele>
        <time>2014-06-28T08:51:10.000Z</time>
      </trkpt>
      <trkpt lat="45.14713" lon="5.63929">
        <ele>1883</ele>
        <time>2014-06-28T08:51:11.000Z</time>
      </trkpt>
      <trkpt lat="45.14714" lon="5.63929">
        <ele>1884</ele>
        <time>2014-06-28T08:51:12.000Z</time>
      </trkpt>
      <trkpt lat="45.14714" lon="5.63929">
        <ele>1884</ele>
        <time>2014-06-28T08:51:13.000Z</time>
      </trkpt>
      <trkpt lat="45.14715" lon="5.6393">
        <ele>1885</ele>
        <time>2014-06-28T08:51:14.000Z</time>
      </trkpt>
      <trkpt lat="45.14716" lon="5.6393">
        <ele>1885</ele>
        <time>2014-06-28T08:51:15.000Z</time>
      </trkpt>
      <trkpt lat="45.14717" lon="5.63931">
        <ele>1886</ele>
        <time>2014-06-28T08:51:16.000Z</time>
      </trkpt>
      <trkpt lat="45.14718" lon="5.63931">
        <ele>1886</ele>
        <time>2014-06-28T08:51:17.000Z</time>
      </trkpt>
      <trkpt lat="45.14719" lon="5.63932">
        <ele>1886</ele>
        <time>2014-06-28T08:51:18.000Z</time>
      </trkpt>
      <trkpt lat="45.14719" lon="5.63932">
        <ele>1887</ele>
        <time>2014-06-28T08:51:19.000Z</time>
      </trkpt>
      <trkpt lat="45.1472" lon="5.63933">
        <ele>1887</ele>
        <time>2014-06-28T08:51:20.000Z</time>
      </trkpt>
      <trkpt lat="45.1472" lon="5.63934">
        <ele>1887</ele>
        <time>2014-06-28T08:51:21.000Z</time>
      </trkpt>
      <trkpt lat="45.14721" lon="5.63934">
        <ele>1888</ele>
        <time>2014-06-28T08:51:22.000Z</time>
      </trkpt>
      <trkpt lat="45.14721" lon="5.63935">
        <ele>1888</ele>
        <time>2014-06-28T08:51:23.000Z</time>
      </trkpt>
      <trkpt lat="45.14722" lon="5.63935">
        <ele>1888</ele>
        <time>2014-06-28T08:51:24.000Z</time>
      </trkpt>
      <trkpt lat="45.14722" lon="5.63935">
        <ele>1889</ele>
        <time>2014-06-28T08:51:25.000Z</time>
      </trkpt>
      <trkpt lat="45.14722" lon="5.63935">
        <ele>1889</ele>
        <time>2014-06-28T08:51:26.000Z</time>
      </trkpt>
      <trkpt lat="45.14723" lon="5.63935">
        <ele>1889</ele>
        <time>2014-06-28T08:51:27.000Z</time>
      </trkpt>
      <trkpt lat="45.14724" lon="5.63936">
        <ele>1890</ele>
        <time>2014-06-28T08:51:28.000Z</time>
      </trkpt>
      <trkpt lat="45.14724" lon="5.63936">
        <ele>1890</ele>
        <time>2014-06-28T08:51:29.000Z</time>
      </trkpt>
      <trkpt lat="45.14725" lon="5.63937">
        <ele>1890</ele>
        <time>2014-06-28T08:51:30.000Z</time>
      </trkpt>
      <trkpt lat="45.14726" lon="5.63937">
        <ele>1890</ele>
        <time>2014-06-28T08:51:31.000Z</time>
      </trkpt>
      <trkpt lat="45.14726" lon="5.63937">
        <ele>1891</ele>
        <time>2014-06-28T08:51:32.000Z</time>
      </trkpt>
      <trkpt lat="45.14727" lon="5.63938">
        <ele>1891</ele>
        <time>2014-06-28T08:51:33.000Z</time>
      </trkpt>
      <trkpt lat="45.14727" lon="5.63938">
        <ele>1891</ele>
        <time>2014-06-28T08:51:34.000Z</time>
      </trkpt>
      <trkpt lat="45.14728" lon="5.63939">
        <ele>1891</ele>
        <time>2014-06-28T08:51:35.000Z</time>
      </trkpt>
      <trkpt lat="45.14729" lon="5.63939">
        <ele>1891</ele>
        <time>2014-06-28T08:51:36.000Z</time>
      </trkpt>
      <trkpt lat="45.14729" lon="5.63939">
        <ele>1892</ele>
        <time>2014-06-28T08:51:37.000Z</time>
      </trkpt>
      <trkpt lat="45.1473" lon="5.63939">
        <ele>1892</ele>
        <time>2014-06-28T08:51:38.000Z</time>
      </trkpt>
      <trkpt lat="45.1473" lon="5.63939">
        <ele>1893</ele>
        <time>2014-06-28T08:51:39.000Z</time>
      </trkpt>
      <trkpt lat="45.1473" lon="5.63939">
        <ele>1893</ele>
        <time>2014-06-28T08:51:40.000Z</time>
      </trkpt>
      <trkpt lat="45.14731" lon="5.63939">
        <ele>1893</ele>
        <time>2014-06-28T08:51:41.000Z</time>
      </trkpt>
      <trkpt lat="45.14731" lon="5.63938">
        <ele>1894</ele>
        <time>2014-06-28T08:51:42.000Z</time>
      </trkpt>
      <trkpt lat="45.14731" lon="5.63938">
        <ele>1894</ele>
        <time>2014-06-28T08:51:43.000Z</time>
      </trkpt>
      <trkpt lat="45.14731" lon="5.63938">
        <ele>1894</ele>
        <time>2014-06-28T08:51:44.000Z</time>
      </trkpt>
      <trkpt lat="45.14731" lon="5.63937">
        <ele>1895</ele>
        <time>2014-06-28T08:51:45.000Z</time>
      </trkpt>
      <trkpt lat="45.14731" lon="5.63936">
        <ele>1895</ele>
        <time>2014-06-28T08:51:46.000Z</time>
      </trkpt>
      <trkpt lat="45.14731" lon="5.63936">
        <ele>1895</ele>
        <time>2014-06-28T08:51:47.000Z</time>
      </trkpt>
      <trkpt lat="45.14731" lon="5.63935">
        <ele>1896</ele>
        <time>2014-06-28T08:51:48.000Z</time>
      </trkpt>
      <trkpt lat="45.14732" lon="5.63935">
        <ele>1896</ele>
        <time>2014-06-28T08:51:49.000Z</time>
      </trkpt>
      <trkpt lat="45.14732" lon="5.63935">
        <ele>1897</ele>
        <time>2014-06-28T08:51:50.000Z</time>
      </trkpt>
      <trkpt lat="45.14731" lon="5.63934">
        <ele>1897</ele>
        <time>2014-06-28T08:51:51.000Z</time>
      </trkpt>
      <trkpt lat="45.1473" lon="5.63934">
        <ele>1898</ele>
        <time>2014-06-28T08:51:52.000Z</time>
      </trkpt>
      <trkpt lat="45.1473" lon="5.63933">
        <ele>1898</ele>
        <time>2014-06-28T08:51:53.000Z</time>
      </trkpt>
      <trkpt lat="45.14729" lon="5.63932">
        <ele>1899</ele>
        <time>2014-06-28T08:51:54.000Z</time>
      </trkpt>
      <trkpt lat="45.14728" lon="5.63931">
        <ele>1899</ele>
        <time>2014-06-28T08:51:55.000Z</time>
      </trkpt>
      <trkpt lat="45.14728" lon="5.63931">
        <ele>1899</ele>
        <time>2014-06-28T08:51:56.000Z</time>
      </trkpt>
      <trkpt lat="45.14728" lon="5.6393">
        <ele>1900</ele>
        <time>2014-06-28T08:51:57.000Z</time>
      </trkpt>
      <trkpt lat="45.14728" lon="5.63929">
        <ele>1900</ele>
        <time>2014-06-28T08:51:58.000Z</time>
      </trkpt>
      <trkpt lat="45.14729" lon="5.63929">
        <ele>1900</ele>
        <time>2014-06-28T08:51:59.000Z</time>
      </trkpt>
      <trkpt lat="45.1473" lon="5.63929">
        <ele>1900</ele>
        <time>2014-06-28T08:52:00.000Z</time>
      </trkpt>
      <trkpt lat="45.1473" lon="5.63928">
        <ele>1900</ele>
        <time>2014-06-28T08:52:01.000Z</time>
      </trkpt>
      <trkpt lat="45.14731" lon="5.63928">
        <ele>1901</ele>
        <time>2014-06-28T08:52:02.000Z</time>
      </trkpt>
      <trkpt lat="45.14731" lon="5.63929">
        <ele>1901</ele>
        <time>2014-06-28T08:52:03.000Z</time>
      </trkpt>
      <trkpt lat="45.14732" lon="5.63929">
        <ele>1901</ele>
        <time>2014-06-28T08:52:04.000Z</time>
      </trkpt>
      <trkpt lat="45.14732" lon="5.63929">
        <ele>1902</ele>
        <time>2014-06-28T08:52:05.000Z</time>
      </trkpt>
      <trkpt lat="45.14733" lon="5.63929">
        <ele>1902</ele>
        <time>2014-06-28T08:52:06.000Z</time>
      </trkpt>
      <trkpt lat="45.14733" lon="5.63929">
        <ele>1902</ele>
        <time>2014-06-28T08:52:07.000Z</time>
      </trkpt>
      <trkpt lat="45.14734" lon="5.63929">
        <ele>1902</ele>
        <time>2014-06-28T08:52:08.000Z</time>
      </trkpt>
      <trkpt lat="45.14734" lon="5.63929">
        <ele>1903</ele>
        <time>2014-06-28T08:52:09.000Z</time>
      </trkpt>
      <trkpt lat="45.14735" lon="5.63929">
        <ele>1903</ele>
        <time>2014-06-28T08:52:10.000Z</time>
      </trkpt>
      <trkpt lat="45.14736" lon="5.63929">
        <ele>1903</ele>
        <time>2014-06-28T08:52:11.000Z</time>
      </trkpt>
      <trkpt lat="45.14736" lon="5.63929">
        <ele>1903</ele>
        <time>2014-06-28T08:52:12.000Z</time>
      </trkpt>
      <trkpt lat="45.14737" lon="5.63929">
        <ele>1903</ele>
        <time>2014-06-28T08:52:13.000Z</time>
      </trkpt>
      <trkpt lat="45.14738" lon="5.63929">
        <ele>1904</ele>
        <time>2014-06-28T08:52:14.000Z</time>
      </trkpt>
      <trkpt lat="45.14738" lon="5.63929">
        <ele>1904</ele>
        <time>2014-06-28T08:52:15.000Z</time>
      </trkpt>
      <trkpt lat="45.14738" lon="5.6393">
        <ele>1904</ele>
        <time>2014-06-28T08:52:16.000Z</time>
      </trkpt>
      <trkpt lat="45.14739" lon="5.63931">
        <ele>1904</ele>
        <time>2014-06-28T08:52:17.000Z</time>
      </trkpt>
      <trkpt lat="45.1474" lon="5.63931">
        <ele>1904</ele>
        <time>2014-06-28T08:52:18.000Z</time>
      </trkpt>
      <trkpt lat="45.14741" lon="5.63931">
        <ele>1904</ele>
        <time>2014-06-28T08:52:19.000Z</time>
      </trkpt>
      <trkpt lat="45.14741" lon="5.63932">
        <ele>1905</ele>
        <time>2014-06-28T08:52:20.000Z</time>
      </trkpt>
      <trkpt lat="45.14742" lon="5.63932">
        <ele>1905</ele>
        <time>2014-06-28T08:52:21.000Z</time>
      </trkpt>
      <trkpt lat="45.14742" lon="5.63933">
        <ele>1905</ele>
        <time>2014-06-28T08:52:22.000Z</time>
      </trkpt>
      <trkpt lat="45.14743" lon="5.63933">
        <ele>1905</ele>
        <time>2014-06-28T08:52:23.000Z</time>
      </trkpt>
      <trkpt lat="45.14743" lon="5.63934">
        <ele>1906</ele>
        <time>2014-06-28T08:52:24.000Z</time>
      </trkpt>
      <trkpt lat="45.14744" lon="5.63935">
        <ele>1906</ele>
        <time>2014-06-28T08:52:25.000Z</time>
      </trkpt>
      <trkpt lat="45.14745" lon="5.63936">
        <ele>1906</ele>
        <time>2014-06-28T08:52:26.000Z</time>
      </trkpt>
      <trkpt lat="45.14745" lon="5.63936">
        <ele>1907</ele>
        <time>2014-06-28T08:52:27.000Z</time>
      </trkpt>
      <trkpt lat="45.14746" lon="5.63937">
        <ele>1907</ele>
        <time>2014-06-28T08:52:28.000Z</time>
      </trkpt>
      <trkpt lat="45.14747" lon="5.63938">
        <ele>1907</ele>
        <time>2014-06-28T08:52:29.000Z</time>
      </trkpt>
      <trkpt lat="45.14748" lon="5.63938">
        <ele>1907</ele>
        <time>2014-06-28T08:52:30.000Z</time>
      </trkpt>
      <trkpt lat="45.14748" lon="5.63938">
        <ele>1908</ele>
        <time>2014-06-28T08:52:31.000Z</time>
      </trkpt>
      <trkpt lat="45.14749" lon="5.63938">
        <ele>1908</ele>
        <time>2014-06-28T08:52:32.000Z</time>
      </trkpt>
      <trkpt lat="45.14749" lon="5.63938">
        <ele>1908</ele>
        <time>2014-06-28T08:52:33.000Z</time>
      </trkpt>
      <trkpt lat="45.1475" lon="5.63938">
        <ele>1908</ele>
        <time>2014-06-28T08:52:34.000Z</time>
      </trkpt>
      <trkpt lat="45.14751" lon="5.63938">
        <ele>1908</ele>
        <time>2014-06-28T08:52:35.000Z</time>
      </trkpt>
      <trkpt lat="45.14751" lon="5.63939">
        <ele>1909</ele>
        <time>2014-06-28T08:52:36.000Z</time>
      </trkpt>
      <trkpt lat="45.14752" lon="5.6394">
        <ele>1909</ele>
        <time>2014-06-28T08:52:37.000Z</time>
      </trkpt>
      <trkpt lat="45.14752" lon="5.6394">
        <ele>1909</ele>
        <time>2014-06-28T08:52:38.000Z</time>
      </trkpt>
      <trkpt lat="45.14752" lon="5.6394">
        <ele>1909</ele>
        <time>2014-06-28T08:52:39.000Z</time>
      </trkpt>
      <trkpt lat="45.14752" lon="5.6394">
        <ele>1909</ele>
        <time>2014-06-28T08:52:40.000Z</time>
      </trkpt>
      <trkpt lat="45.14752" lon="5.6394">
        <ele>1909</ele>
        <time>2014-06-28T08:52:41.000Z</time>
      </trkpt>
      <trkpt lat="45.14752" lon="5.6394">
        <ele>1909</ele>
        <time>2014-06-28T08:52:42.000Z</time>
      </trkpt>
      <trkpt lat="45.14752" lon="5.6394">
        <ele>1909</ele>
        <time>2014-06-28T08:52:43.000Z</time>
      </trkpt>
      <trkpt lat="45.14752" lon="5.6394">
        <ele>1909</ele>
        <time>2014-06-28T08:52:44.000Z</time>
      </trkpt>
      <trkpt lat="45.14752" lon="5.6394">
        <ele>1909</ele>
        <time>2014-06-28T08:52:45.000Z</time>
      </trkpt>
      <trkpt lat="45.14752" lon="5.6394">
        <ele>1909</ele>
        <time>2014-06-28T08:52:46.000Z</time>
      </trkpt>
      <trkpt lat="45.14752" lon="5.6394">
        <ele>1909</ele>
        <time>2014-06-28T08:52:47.000Z</time>
      </trkpt>
      <trkpt lat="45.14752" lon="5.6394">
        <ele>1909</ele>
        <time>2014-06-28T08:52:48.000Z</time>
      </trkpt>
      <trkpt lat="45.14753" lon="5.6394">
        <ele>1909</ele>
        <time>2014-06-28T08:52:49.000Z</time>
      </trkpt>
      <trkpt lat="45.14753" lon="5.63941">
        <ele>1909</ele>
        <time>2014-06-28T08:52:50.000Z</time>
      </trkpt>
      <trkpt lat="45.14753" lon="5.63941">
        <ele>1909</ele>
        <time>2014-06-28T08:52:51.000Z</time>
      </trkpt>
      <trkpt lat="45.14753" lon="5.63941">
        <ele>1909</ele>
        <time>2014-06-28T08:52:52.000Z</time>
      </trkpt>
      <trkpt lat="45.14753" lon="5.63941">
        <ele>1908</ele>
        <time>2014-06-28T08:52:53.000Z</time>
      </trkpt>
      <trkpt lat="45.14753" lon="5.63941">
        <ele>1908</ele>
        <time>2014-06-28T08:52:54.000Z</time>
      </trkpt>
      <trkpt lat="45.14753" lon="5.63941">
        <ele>1908</ele>
        <time>2014-06-28T08:52:55.000Z</time>
      </trkpt>
      <trkpt lat="45.14753" lon="5.63942">
        <ele>1908</ele>
        <time>2014-06-28T08:52:56.000Z</time>
      </trkpt>
      <trkpt lat="45.14753" lon="5.63942">
        <ele>1908</ele>
        <time>2014-06-28T08:52:57.000Z</time>
      </trkpt>
      <trkpt lat="45.14753" lon="5.63942">
        <ele>1908</ele>
        <time>2014-06-28T08:52:58.000Z</time>
      </trkpt>
      <trkpt lat="45.14753" lon="5.63942">
        <ele>1908</ele>
        <time>2014-06-28T08:52:59.000Z</time>
      </trkpt>
      <trkpt lat="45.14753" lon="5.63942">
        <ele>1908</ele>
        <time>2014-06-28T08:53:00.000Z</time>
      </trkpt>
      <trkpt lat="45.14753" lon="5.63942">
        <ele>1908</ele>
        <time>2014-06-28T08:53:01.000Z</time>
      </trkpt>
      <trkpt lat="45.14753" lon="5.63942">
        <ele>1908</ele>
        <time>2014-06-28T08:53:02.000Z</time>
      </trkpt>
      <trkpt lat="45.14753" lon="5.63942">
        <ele>1908</ele>
        <time>2014-06-28T08:53:03.000Z</time>
      </trkpt>
      <trkpt lat="45.14753" lon="5.63942">
        <ele>1908</ele>
        <time>2014-06-28T08:53:04.000Z</time>
      </trkpt>
      <trkpt lat="45.14753" lon="5.63942">
        <ele>1908</ele>
        <time>2014-06-28T08:53:05.000Z</time>
      </trkpt>
      <trkpt lat="45.14753" lon="5.63942">
        <ele>1908</ele>
        <time>2014-06-28T08:53:06.000Z</time>
      </trkpt>
      <trkpt lat="45.14753" lon="5.63942">
        <ele>1908</ele>
        <time>2014-06-28T08:53:07.000Z</time>
      </trkpt>
      <trkpt lat="45.14753" lon="5.63942">
        <ele>1908</ele>
        <time>2014-06-28T08:53:08.000Z</time>
      </trkpt>
      <trkpt lat="45.14753" lon="5.63942">
        <ele>1908</ele>
        <time>2014-06-28T08:53:09.000Z</time>
      </trkpt>
      <trkpt lat="45.14753" lon="5.63942">
        <ele>1908</ele>
        <time>2014-06-28T08:53:10.000Z</time>
      </trkpt>
      <trkpt lat="45.14753" lon="5.63942">
        <ele>1908</ele>
        <time>2014-06-28T08:53:11.000Z</time>
      </trkpt>
      <trkpt lat="45.14753" lon="5.63943">
        <ele>1908</ele>
        <time>2014-06-28T08:53:12.000Z</time>
      </trkpt>
      <trkpt lat="45.14752" lon="5.63943">
        <ele>1908</ele>
        <time>2014-06-28T08:53:13.000Z</time>
      </trkpt>
      <trkpt lat="45.14752" lon="5.63943">
        <ele>1908</ele>
        <time>2014-06-28T08:53:14.000Z</time>
      </trkpt>
      <trkpt lat="45.14752" lon="5.63943">
        <ele>1908</ele>
        <time>2014-06-28T08:53:15.000Z</time>
      </trkpt>
      <trkpt lat="45.14752" lon="5.63943">
        <ele>1908</ele>
        <time>2014-06-28T08:53:16.000Z</time>
      </trkpt>
      <trkpt lat="45.14752" lon="5.63943">
        <ele>1908</ele>
        <time>2014-06-28T08:53:17.000Z</time>
      </trkpt>
      <trkpt lat="45.14752" lon="5.63943">
        <ele>1909</ele>
        <time>2014-06-28T08:53:18.000Z</time>
      </trkpt>
      <trkpt lat="45.14752" lon="5.63942">
        <ele>1909</ele>
        <time>2014-06-28T08:53:19.000Z</time>
      </trkpt>
      <trkpt lat="45.14752" lon="5.63942">
        <ele>1909</ele>
        <time>2014-06-28T08:53:20.000Z</time>
      </trkpt>
      <trkpt lat="45.14752" lon="5.63942">
        <ele>1909</ele>
        <time>2014-06-28T08:53:21.000Z</time>
      </trkpt>
      <trkpt lat="45.14752" lon="5.63942">
        <ele>1909</ele>
        <time>2014-06-28T08:53:22.000Z</time>
      </trkpt>
      <trkpt lat="45.14753" lon="5.63942">
        <ele>1909</ele>
        <time>2014-06-28T08:53:23.000Z</time>
      </trkpt>
      <trkpt lat="45.14753" lon="5.63942">
        <ele>1909</ele>
        <time>2014-06-28T08:53:24.000Z</time>
      </trkpt>
      <trkpt lat="45.14753" lon="5.63942">
        <ele>1909</ele>
        <time>2014-06-28T08:53:25.000Z</time>
      </trkpt>
      <trkpt lat="45.14753" lon="5.63942">
        <ele>1909</ele>
        <time>2014-06-28T08:53:26.000Z</time>
      </trkpt>
      <trkpt lat="45.14753" lon="5.63942">
        <ele>1909</ele>
        <time>2014-06-28T08:53:27.000Z</time>
      </trkpt>
      <trkpt lat="45.14753" lon="5.63942">
        <ele>1908</ele>
        <time>2014-06-28T08:53:28.000Z</time>
      </trkpt>
      <trkpt lat="45.14753" lon="5.63942">
        <ele>1908</ele>
        <time>2014-06-28T08:53:29.000Z</time>
      </trkpt>
      <trkpt lat="45.14753" lon="5.63941">
        <ele>1908</ele>
        <time>2014-06-28T08:53:30.000Z</time>
      </trkpt>
      <trkpt lat="45.14753" lon="5.63941">
        <ele>1908</ele>
        <time>2014-06-28T08:53:31.000Z</time>
      </trkpt>
      <trkpt lat="45.14752" lon="5.63941">
        <ele>1908</ele>
        <time>2014-06-28T08:53:32.000Z</time>
      </trkpt>
      <trkpt lat="45.14752" lon="5.63941">
        <ele>1908</ele>
        <time>2014-06-28T08:53:33.000Z</time>
      </trkpt>
      <trkpt lat="45.14752" lon="5.63941">
        <ele>1908</ele>
        <time>2014-06-28T08:53:34.000Z</time>
      </trkpt>
      <trkpt lat="45.14753" lon="5.63941">
        <ele>1908</ele>
        <time>2014-06-28T08:53:35.000Z</time>
      </trkpt>
      <trkpt lat="45.14753" lon="5.63941">
        <ele>1908</ele>
        <time>2014-06-28T08:53:36.000Z</time>
      </trkpt>
      <trkpt lat="45.14753" lon="5.63941">
        <ele>1908</ele>
        <time>2014-06-28T08:53:37.000Z</time>
      </trkpt>
      <trkpt lat="45.14753" lon="5.63941">
        <ele>1908</ele>
        <time>2014-06-28T08:53:38.000Z</time>
      </trkpt>
      <trkpt lat="45.14753" lon="5.63941">
        <ele>1908</ele>
        <time>2014-06-28T08:53:39.000Z</time>
      </trkpt>
      <trkpt lat="45.14753" lon="5.63941">
        <ele>1908</ele>
        <time>2014-06-28T08:53:40.000Z</time>
      </trkpt>
      <trkpt lat="45.14753" lon="5.63941">
        <ele>1908</ele>
        <time>2014-06-28T08:53:41.000Z</time>
      </trkpt>
      <trkpt lat="45.14753" lon="5.63941">
        <ele>1908</ele>
        <time>2014-06-28T08:53:42.000Z</time>
      </trkpt>
      <trkpt lat="45.14753" lon="5.63941">
        <ele>1908</ele>
        <time>2014-06-28T08:53:43.000Z</time>
      </trkpt>
      <trkpt lat="45.14753" lon="5.63941">
        <ele>1908</ele>
        <time>2014-06-28T08:53:44.000Z</time>
      </trkpt>
      <trkpt lat="45.14753" lon="5.63941">
        <ele>1908</ele>
        <time>2014-06-28T08:53:45.000Z</time>
      </trkpt>
      <trkpt lat="45.14753" lon="5.63941">
        <ele>1908</ele>
        <time>2014-06-28T08:53:46.000Z</time>
      </trkpt>
      <trkpt lat="45.14753" lon="5.63941">
        <ele>1908</ele>
        <time>2014-06-28T08:53:47.000Z</time>
      </trkpt>
      <trkpt lat="45.14753" lon="5.63941">
        <ele>1908</ele>
        <time>2014-06-28T08:53:48.000Z</time>
      </trkpt>
      <trkpt lat="45.14753" lon="5.63941">
        <ele>1908</ele>
        <time>2014-06-28T08:53:49.000Z</time>
      </trkpt>
      <trkpt lat="45.14753" lon="5.63941">
        <ele>1908</ele>
        <time>2014-06-28T08:53:50.000Z</time>
      </trkpt>
      <trkpt lat="45.14753" lon="5.63941">
        <ele>1908</ele>
        <time>2014-06-28T08:53:51.000Z</time>
      </trkpt>
      <trkpt lat="45.14753" lon="5.63941">
        <ele>1908</ele>
        <time>2014-06-28T08:53:52.000Z</time>
      </trkpt>
      <trkpt lat="45.14753" lon="5.63941">
        <ele>1908</ele>
        <time>2014-06-28T08:53:53.000Z</time>
      </trkpt>
      <trkpt lat="45.14753" lon="5.63941">
        <ele>1908</ele>
        <time>2014-06-28T08:53:54.000Z</time>
      </trkpt>
      <trkpt lat="45.14753" lon="5.63941">
        <ele>1908</ele>
        <time>2014-06-28T08:53:55.000Z</time>
      </trkpt>
      <trkpt lat="45.14753" lon="5.63941">
        <ele>1908</ele>
        <time>2014-06-28T08:53:56.000Z</time>
      </trkpt>
      <trkpt lat="45.14753" lon="5.63941">
        <ele>1908</ele>
        <time>2014-06-28T08:53:57.000Z</time>
      </trkpt>
      <trkpt lat="45.14753" lon="5.63941">
        <ele>1908</ele>
        <time>2014-06-28T08:53:58.000Z</time>
      </trkpt>
      <trkpt lat="45.14753" lon="5.63941">
        <ele>1908</ele>
        <time>2014-06-28T08:53:59.000Z</time>
      </trkpt>
      <trkpt lat="45.14753" lon="5.63941">
        <ele>1908</ele>
        <time>2014-06-28T08:54:00.000Z</time>
      </trkpt>
      <trkpt lat="45.14753" lon="5.63941">
        <ele>1908</ele>
        <time>2014-06-28T08:54:01.000Z</time>
      </trkpt>
      <trkpt lat="45.14753" lon="5.63941">
        <ele>1908</ele>
        <time>2014-06-28T08:54:02.000Z</time>
      </trkpt>
      <trkpt lat="45.14753" lon="5.63941">
        <ele>1908</ele>
        <time>2014-06-28T08:54:03.000Z</time>
      </trkpt>
      <trkpt lat="45.14753" lon="5.63941">
        <ele>1908</ele>
        <time>2014-06-28T08:54:04.000Z</time>
      </trkpt>
      <trkpt lat="45.14753" lon="5.63941">
        <ele>1908</ele>
        <time>2014-06-28T08:54:05.000Z</time>
      </trkpt>
      <trkpt lat="45.14753" lon="5.63941">
        <ele>1908</ele>
        <time>2014-06-28T08:54:06.000Z</time>
      </trkpt>
      <trkpt lat="45.14753" lon="5.63941">
        <ele>1908</ele>
        <time>2014-06-28T08:54:07.000Z</time>
      </trkpt>
      <trkpt lat="45.14753" lon="5.63941">
        <ele>1908</ele>
        <time>2014-06-28T08:54:08.000Z</time>
      </trkpt>
      <trkpt lat="45.14753" lon="5.63941">
        <ele>1908</ele>
        <time>2014-06-28T08:54:09.000Z</time>
      </trkpt>
      <trkpt lat="45.14753" lon="5.63941">
        <ele>1908</ele>
        <time>2014-06-28T08:54:10.000Z</time>
      </trkpt>
      <trkpt lat="45.14753" lon="5.63941">
        <ele>1908</ele>
        <time>2014-06-28T08:54:11.000Z</time>
      </trkpt>
      <trkpt lat="45.14753" lon="5.63941">
        <ele>1908</ele>
        <time>2014-06-28T08:54:12.000Z</time>
      </trkpt>
      <trkpt lat="45.14753" lon="5.63941">
        <ele>1908</ele>
        <time>2014-06-28T08:54:13.000Z</time>
      </trkpt>
      <trkpt lat="45.14752" lon="5.63941">
        <ele>1908</ele>
        <time>2014-06-28T08:54:14.000Z</time>
      </trkpt>
      <trkpt lat="45.14752" lon="5.63941">
        <ele>1908</ele>
        <time>2014-06-28T08:54:15.000Z</time>
      </trkpt>
      <trkpt lat="45.14752" lon="5.63941">
        <ele>1909</ele>
        <time>2014-06-28T08:54:16.000Z</time>
      </trkpt>
      <trkpt lat="45.14752" lon="5.63941">
        <ele>1909</ele>
        <time>2014-06-28T08:54:17.000Z</time>
      </trkpt>
      <trkpt lat="45.14752" lon="5.63941">
        <ele>1909</ele>
        <time>2014-06-28T08:54:18.000Z</time>
      </trkpt>
      <trkpt lat="45.14752" lon="5.63941">
        <ele>1908</ele>
        <time>2014-06-28T08:54:19.000Z</time>
      </trkpt>
      <trkpt lat="45.14752" lon="5.63941">
        <ele>1908</ele>
        <time>2014-06-28T08:54:20.000Z</time>
      </trkpt>
      <trkpt lat="45.14752" lon="5.63941">
        <ele>1908</ele>
        <time>2014-06-28T08:54:21.000Z</time>
      </trkpt>
      <trkpt lat="45.14751" lon="5.6394">
        <ele>1908</ele>
        <time>2014-06-28T08:54:22.000Z</time>
      </trkpt>
      <trkpt lat="45.1475" lon="5.6394">
        <ele>1909</ele>
        <time>2014-06-28T08:54:23.000Z</time>
      </trkpt>
      <trkpt lat="45.1475" lon="5.63939">
        <ele>1909</ele>
        <time>2014-06-28T08:54:24.000Z</time>
      </trkpt>
      <trkpt lat="45.1475" lon="5.63939">
        <ele>1909</ele>
        <time>2014-06-28T08:54:25.000Z</time>
      </trkpt>
      <trkpt lat="45.1475" lon="5.63938">
        <ele>1909</ele>
        <time>2014-06-28T08:54:26.000Z</time>
      </trkpt>
      <trkpt lat="45.14749" lon="5.63938">
        <ele>1909</ele>
        <time>2014-06-28T08:54:27.000Z</time>
      </trkpt>
      <trkpt lat="45.14749" lon="5.63938">
        <ele>1909</ele>
        <time>2014-06-28T08:54:28.000Z</time>
      </trkpt>
      <trkpt lat="45.14749" lon="5.63937">
        <ele>1908</ele>
        <time>2014-06-28T08:54:29.000Z</time>
      </trkpt>
      <trkpt lat="45.14749" lon="5.63936">
        <ele>1908</ele>
        <time>2014-06-28T08:54:30.000Z</time>
      </trkpt>
      <trkpt lat="45.1475" lon="5.63936">
        <ele>1908</ele>
        <time>2014-06-28T08:54:31.000Z</time>
      </trkpt>
      <trkpt lat="45.1475" lon="5.63935">
        <ele>1908</ele>
        <time>2014-06-28T08:54:32.000Z</time>
      </trkpt>
      <trkpt lat="45.1475" lon="5.63935">
        <ele>1908</ele>
        <time>2014-06-28T08:54:33.000Z</time>
      </trkpt>
      <trkpt lat="45.14751" lon="5.63934">
        <ele>1908</ele>
        <time>2014-06-28T08:54:34.000Z</time>
      </trkpt>
      <trkpt lat="45.14751" lon="5.63934">
        <ele>1908</ele>
        <time>2014-06-28T08:54:35.000Z</time>
      </trkpt>
      <trkpt lat="45.14751" lon="5.63934">
        <ele>1908</ele>
        <time>2014-06-28T08:54:36.000Z</time>
      </trkpt>
      <trkpt lat="45.14751" lon="5.63934">
        <ele>1908</ele>
        <time>2014-06-28T08:54:37.000Z</time>
      </trkpt>
      <trkpt lat="45.14751" lon="5.63934">
        <ele>1908</ele>
        <time>2014-06-28T08:54:38.000Z</time>
      </trkpt>
      <trkpt lat="45.14751" lon="5.63934">
        <ele>1908</ele>
        <time>2014-06-28T08:54:39.000Z</time>
      </trkpt>
      <trkpt lat="45.14751" lon="5.63934">
        <ele>1908</ele>
        <time>2014-06-28T08:54:40.000Z</time>
      </trkpt>
      <trkpt lat="45.14751" lon="5.63934">
        <ele>1909</ele>
        <time>2014-06-28T08:54:41.000Z</time>
      </trkpt>
      <trkpt lat="45.14751" lon="5.63934">
        <ele>1909</ele>
        <time>2014-06-28T08:54:42.000Z</time>
      </trkpt>
      <trkpt lat="45.14751" lon="5.63934">
        <ele>1909</ele>
        <time>2014-06-28T08:54:43.000Z</time>
      </trkpt>
      <trkpt lat="45.14751" lon="5.63934">
        <ele>1909</ele>
        <time>2014-06-28T08:54:44.000Z</time>
      </trkpt>
      <trkpt lat="45.14751" lon="5.63934">
        <ele>1909</ele>
        <time>2014-06-28T08:54:45.000Z</time>
      </trkpt>
      <trkpt lat="45.14751" lon="5.63934">
        <ele>1909</ele>
        <time>2014-06-28T08:54:46.000Z</time>
      </trkpt>
      <trkpt lat="45.14751" lon="5.63934">
        <ele>1909</ele>
        <time>2014-06-28T08:54:47.000Z</time>
      </trkpt>
      <trkpt lat="45.14751" lon="5.63934">
        <ele>1909</ele>
        <time>2014-06-28T08:54:48.000Z</time>
      </trkpt>
      <trkpt lat="45.14751" lon="5.63934">
        <ele>1909</ele>
        <time>2014-06-28T08:54:49.000Z</time>
      </trkpt>
      <trkpt lat="45.1475" lon="5.63934">
        <ele>1909</ele>
        <time>2014-06-28T08:54:50.000Z</time>
      </trkpt>
      <trkpt lat="45.1475" lon="5.63933">
        <ele>1909</ele>
        <time>2014-06-28T08:54:51.000Z</time>
      </trkpt>
      <trkpt lat="45.1475" lon="5.63933">
        <ele>1909</ele>
        <time>2014-06-28T08:54:52.000Z</time>
      </trkpt>
      <trkpt lat="45.1475" lon="5.63933">
        <ele>1909</ele>
        <time>2014-06-28T08:54:53.000Z</time>
      </trkpt>
      <trkpt lat="45.1475" lon="5.63933">
        <ele>1909</ele>
        <time>2014-06-28T08:54:54.000Z</time>
      </trkpt>
      <trkpt lat="45.1475" lon="5.63933">
        <ele>1909</ele>
        <time>2014-06-28T08:54:55.000Z</time>
      </trkpt>
      <trkpt lat="45.1475" lon="5.63933">
        <ele>1909</ele>
        <time>2014-06-28T08:54:56.000Z</time>
      </trkpt>
      <trkpt lat="45.1475" lon="5.63933">
        <ele>1909</ele>
        <time>2014-06-28T08:54:57.000Z</time>
      </trkpt>
      <trkpt lat="45.1475" lon="5.63933">
        <ele>1909</ele>
        <time>2014-06-28T08:54:58.000Z</time>
      </trkpt>
      <trkpt lat="45.14751" lon="5.63933">
        <ele>1909</ele>
        <time>2014-06-28T08:54:59.000Z</time>
      </trkpt>
      <trkpt lat="45.14751" lon="5.63933">
        <ele>1909</ele>
        <time>2014-06-28T08:55:00.000Z</time>
      </trkpt>
      <trkpt lat="45.14751" lon="5.63934">
        <ele>1909</ele>
        <time>2014-06-28T08:55:01.000Z</time>
      </trkpt>
      <trkpt lat="45.14751" lon="5.63934">
        <ele>1909</ele>
        <time>2014-06-28T08:55:02.000Z</time>
      </trkpt>
      <trkpt lat="45.14751" lon="5.63934">
        <ele>1909</ele>
        <time>2014-06-28T08:55:03.000Z</time>
      </trkpt>
      <trkpt lat="45.14751" lon="5.63934">
        <ele>1909</ele>
        <time>2014-06-28T08:55:04.000Z</time>
      </trkpt>
      <trkpt lat="45.14751" lon="5.63934">
        <ele>1909</ele>
        <time>2014-06-28T08:55:05.000Z</time>
      </trkpt>
      <trkpt lat="45.14751" lon="5.63934">
        <ele>1909</ele>
        <time>2014-06-28T08:55:06.000Z</time>
      </trkpt>
      <trkpt lat="45.14751" lon="5.63934">
        <ele>1909</ele>
        <time>2014-06-28T08:55:07.000Z</time>
      </trkpt>
      <trkpt lat="45.14751" lon="5.63934">
        <ele>1909</ele>
        <time>2014-06-28T08:55:08.000Z</time>
      </trkpt>
      <trkpt lat="45.14751" lon="5.63934">
        <ele>1909</ele>
        <time>2014-06-28T08:55:09.000Z</time>
      </trkpt>
      <trkpt lat="45.14751" lon="5.63934">
        <ele>1909</ele>
        <time>2014-06-28T08:55:10.000Z</time>
      </trkpt>
      <trkpt lat="45.14751" lon="5.63934">
        <ele>1909</ele>
        <time>2014-06-28T08:55:11.000Z</time>
      </trkpt>
      <trkpt lat="45.14751" lon="5.63934">
        <ele>1909</ele>
        <time>2014-06-28T08:55:12.000Z</time>
      </trkpt>
      <trkpt lat="45.14751" lon="5.63934">
        <ele>1909</ele>
        <time>2014-06-28T08:55:13.000Z</time>
      </trkpt>
      <trkpt lat="45.14751" lon="5.63934">
        <ele>1909</ele>
        <time>2014-06-28T08:55:14.000Z</time>
      </trkpt>
      <trkpt lat="45.14751" lon="5.63934">
        <ele>1909</ele>
        <time>2014-06-28T08:55:15.000Z</time>
      </trkpt>
      <trkpt lat="45.14751" lon="5.63934">
        <ele>1909</ele>
        <time>2014-06-28T08:55:16.000Z</time>
      </trkpt>
      <trkpt lat="45.14751" lon="5.63934">
        <ele>1909</ele>
        <time>2014-06-28T08:55:17.000Z</time>
      </trkpt>
      <trkpt lat="45.14752" lon="5.63934">
        <ele>1909</ele>
        <time>2014-06-28T08:55:18.000Z</time>
      </trkpt>
      <trkpt lat="45.14752" lon="5.63934">
        <ele>1909</ele>
        <time>2014-06-28T08:55:19.000Z</time>
      </trkpt>
      <trkpt lat="45.14752" lon="5.63934">
        <ele>1909</ele>
        <time>2014-06-28T08:55:20.000Z</time>
      </trkpt>
      <trkpt lat="45.14752" lon="5.63934">
        <ele>1909</ele>
        <time>2014-06-28T08:55:21.000Z</time>
      </trkpt>
      <trkpt lat="45.14752" lon="5.63934">
        <ele>1909</ele>
        <time>2014-06-28T08:55:22.000Z</time>
      </trkpt>
      <trkpt lat="45.14752" lon="5.63934">
        <ele>1909</ele>
        <time>2014-06-28T08:55:23.000Z</time>
      </trkpt>
      <trkpt lat="45.14752" lon="5.63934">
        <ele>1909</ele>
        <time>2014-06-28T08:55:24.000Z</time>
      </trkpt>
      <trkpt lat="45.14752" lon="5.63934">
        <ele>1909</ele>
        <time>2014-06-28T08:55:25.000Z</time>
      </trkpt>
      <trkpt lat="45.14752" lon="5.63934">
        <ele>1909</ele>
        <time>2014-06-28T08:55:26.000Z</time>
      </trkpt>
      <trkpt lat="45.14752" lon="5.63934">
        <ele>1909</ele>
        <time>2014-06-28T08:55:27.000Z</time>
      </trkpt>
      <trkpt lat="45.14752" lon="5.63934">
        <ele>1909</ele>
        <time>2014-06-28T08:55:28.000Z</time>
      </trkpt>
      <trkpt lat="45.14752" lon="5.63934">
        <ele>1909</ele>
        <time>2014-06-28T08:55:29.000Z</time>
      </trkpt>
      <trkpt lat="45.14752" lon="5.63934">
        <ele>1909</ele>
        <time>2014-06-28T08:55:30.000Z</time>
      </trkpt>
      <trkpt lat="45.14752" lon="5.63933">
        <ele>1909</ele>
        <time>2014-06-28T08:55:31.000Z</time>
      </trkpt>
      <trkpt lat="45.14752" lon="5.63933">
        <ele>1909</ele>
        <time>2014-06-28T08:55:32.000Z</time>
      </trkpt>
      <trkpt lat="45.14752" lon="5.63933">
        <ele>1909</ele>
        <time>2014-06-28T08:55:33.000Z</time>
      </trkpt>
      <trkpt lat="45.14752" lon="5.63933">
        <ele>1909</ele>
        <time>2014-06-28T08:55:34.000Z</time>
      </trkpt>
      <trkpt lat="45.14752" lon="5.63933">
        <ele>1909</ele>
        <time>2014-06-28T08:55:35.000Z</time>
      </trkpt>
      <trkpt lat="45.14752" lon="5.63933">
        <ele>1909</ele>
        <time>2014-06-28T08:55:36.000Z</time>
      </trkpt>
      <trkpt lat="45.14752" lon="5.63933">
        <ele>1909</ele>
        <time>2014-06-28T08:55:37.000Z</time>
      </trkpt>
      <trkpt lat="45.14752" lon="5.63932">
        <ele>1909</ele>
        <time>2014-06-28T08:55:38.000Z</time>
      </trkpt>
      <trkpt lat="45.14752" lon="5.63932">
        <ele>1909</ele>
        <time>2014-06-28T08:55:39.000Z</time>
      </trkpt>
      <trkpt lat="45.14752" lon="5.63932">
        <ele>1909</ele>
        <time>2014-06-28T08:55:40.000Z</time>
      </trkpt>
      <trkpt lat="45.14752" lon="5.63932">
        <ele>1909</ele>
        <time>2014-06-28T08:55:41.000Z</time>
      </trkpt>
      <trkpt lat="45.14752" lon="5.63932">
        <ele>1909</ele>
        <time>2014-06-28T08:55:42.000Z</time>
      </trkpt>
      <trkpt lat="45.14752" lon="5.63932">
        <ele>1909</ele>
        <time>2014-06-28T08:55:43.000Z</time>
      </trkpt>
      <trkpt lat="45.14752" lon="5.63932">
        <ele>1909</ele>
        <time>2014-06-28T08:55:44.000Z</time>
      </trkpt>
      <trkpt lat="45.14752" lon="5.63932">
        <ele>1909</ele>
        <time>2014-06-28T08:55:45.000Z</time>
      </trkpt>
      <trkpt lat="45.14752" lon="5.63932">
        <ele>1909</ele>
        <time>2014-06-28T08:55:46.000Z</time>
      </trkpt>
      <trkpt lat="45.14752" lon="5.63932">
        <ele>1909</ele>
        <time>2014-06-28T08:55:47.000Z</time>
      </trkpt>
      <trkpt lat="45.14752" lon="5.63932">
        <ele>1909</ele>
        <time>2014-06-28T08:55:48.000Z</time>
      </trkpt>
      <trkpt lat="45.14752" lon="5.63932">
        <ele>1909</ele>
        <time>2014-06-28T08:55:49.000Z</time>
      </trkpt>
      <trkpt lat="45.14752" lon="5.63932">
        <ele>1909</ele>
        <time>2014-06-28T08:55:50.000Z</time>
      </trkpt>
      <trkpt lat="45.14752" lon="5.63932">
        <ele>1909</ele>
        <time>2014-06-28T08:55:51.000Z</time>
      </trkpt>
      <trkpt lat="45.14751" lon="5.63932">
        <ele>1909</ele>
        <time>2014-06-28T08:55:52.000Z</time>
      </trkpt>
      <trkpt lat="45.14751" lon="5.63933">
        <ele>1909</ele>
        <time>2014-06-28T08:55:53.000Z</time>
      </trkpt>
      <trkpt lat="45.14751" lon="5.63933">
        <ele>1909</ele>
        <time>2014-06-28T08:55:54.000Z</time>
      </trkpt>
      <trkpt lat="45.14751" lon="5.63933">
        <ele>1909</ele>
        <time>2014-06-28T08:55:55.000Z</time>
      </trkpt>
      <trkpt lat="45.14751" lon="5.63933">
        <ele>1909</ele>
        <time>2014-06-28T08:55:56.000Z</time>
      </trkpt>
      <trkpt lat="45.14751" lon="5.63932">
        <ele>1909</ele>
        <time>2014-06-28T08:55:57.000Z</time>
      </trkpt>
      <trkpt lat="45.14751" lon="5.63932">
        <ele>1909</ele>
        <time>2014-06-28T08:55:58.000Z</time>
      </trkpt>
      <trkpt lat="45.14751" lon="5.63932">
        <ele>1909</ele>
        <time>2014-06-28T08:55:59.000Z</time>
      </trkpt>
      <trkpt lat="45.14751" lon="5.63932">
        <ele>1909</ele>
        <time>2014-06-28T08:56:00.000Z</time>
      </trkpt>
      <trkpt lat="45.14751" lon="5.63932">
        <ele>1909</ele>
        <time>2014-06-28T08:56:01.000Z</time>
      </trkpt>
      <trkpt lat="45.14751" lon="5.63932">
        <ele>1909</ele>
        <time>2014-06-28T08:56:02.000Z</time>
      </trkpt>
      <trkpt lat="45.14751" lon="5.63932">
        <ele>1909</ele>
        <time>2014-06-28T08:56:03.000Z</time>
      </trkpt>
      <trkpt lat="45.14751" lon="5.63932">
        <ele>1909</ele>
        <time>2014-06-28T08:56:04.000Z</time>
      </trkpt>
      <trkpt lat="45.14751" lon="5.63932">
        <ele>1909</ele>
        <time>2014-06-28T08:56:05.000Z</time>
      </trkpt>
      <trkpt lat="45.14751" lon="5.63932">
        <ele>1909</ele>
        <time>2014-06-28T08:56:06.000Z</time>
      </trkpt>
      <trkpt lat="45.14751" lon="5.63932">
        <ele>1909</ele>
        <time>2014-06-28T08:56:07.000Z</time>
      </trkpt>
      <trkpt lat="45.14751" lon="5.63932">
        <ele>1909</ele>
        <time>2014-06-28T08:56:08.000Z</time>
      </trkpt>
      <trkpt lat="45.14751" lon="5.63932">
        <ele>1909</ele>
        <time>2014-06-28T08:56:09.000Z</time>
      </trkpt>
      <trkpt lat="45.14751" lon="5.63932">
        <ele>1909</ele>
        <time>2014-06-28T08:56:10.000Z</time>
      </trkpt>
      <trkpt lat="45.1475" lon="5.63932">
        <ele>1909</ele>
        <time>2014-06-28T08:56:11.000Z</time>
      </trkpt>
      <trkpt lat="45.1475" lon="5.63932">
        <ele>1909</ele>
        <time>2014-06-28T08:56:12.000Z</time>
      </trkpt>
      <trkpt lat="45.1475" lon="5.63932">
        <ele>1909</ele>
        <time>2014-06-28T08:56:13.000Z</time>
      </trkpt>
      <trkpt lat="45.1475" lon="5.63932">
        <ele>1909</ele>
        <time>2014-06-28T08:56:14.000Z</time>
      </trkpt>
      <trkpt lat="45.1475" lon="5.63932">
        <ele>1909</ele>
        <time>2014-06-28T08:56:15.000Z</time>
      </trkpt>
      <trkpt lat="45.1475" lon="5.63933">
        <ele>1909</ele>
        <time>2014-06-28T08:56:16.000Z</time>
      </trkpt>
      <trkpt lat="45.1475" lon="5.63933">
        <ele>1909</ele>
        <time>2014-06-28T08:56:17.000Z</time>
      </trkpt>
      <trkpt lat="45.1475" lon="5.63933">
        <ele>1909</ele>
        <time>2014-06-28T08:56:18.000Z</time>
      </trkpt>
      <trkpt lat="45.1475" lon="5.63933">
        <ele>1909</ele>
        <time>2014-06-28T08:56:19.000Z</time>
      </trkpt>
      <trkpt lat="45.1475" lon="5.63933">
        <ele>1909</ele>
        <time>2014-06-28T08:56:20.000Z</time>
      </trkpt>
      <trkpt lat="45.1475" lon="5.63933">
        <ele>1909</ele>
        <time>2014-06-28T08:56:21.000Z</time>
      </trkpt>
      <trkpt lat="45.1475" lon="5.63933">
        <ele>1909</ele>
        <time>2014-06-28T08:56:22.000Z</time>
      </trkpt>
      <trkpt lat="45.1475" lon="5.63933">
        <ele>1909</ele>
        <time>2014-06-28T08:56:23.000Z</time>
      </trkpt>
      <trkpt lat="45.1475" lon="5.63933">
        <ele>1909</ele>
        <time>2014-06-28T08:56:24.000Z</time>
      </trkpt>
      <trkpt lat="45.1475" lon="5.63933">
        <ele>1909</ele>
        <time>2014-06-28T08:56:25.000Z</time>
      </trkpt>
      <trkpt lat="45.1475" lon="5.63933">
        <ele>1909</ele>
        <time>2014-06-28T08:56:26.000Z</time>
      </trkpt>
      <trkpt lat="45.1475" lon="5.63933">
        <ele>1909</ele>
        <time>2014-06-28T08:56:27.000Z</time>
      </trkpt>
      <trkpt lat="45.1475" lon="5.63932">
        <ele>1909</ele>
        <time>2014-06-28T08:56:28.000Z</time>
      </trkpt>
      <trkpt lat="45.1475" lon="5.63932">
        <ele>1909</ele>
        <time>2014-06-28T08:56:29.000Z</time>
      </trkpt>
      <trkpt lat="45.1475" lon="5.63932">
        <ele>1909</ele>
        <time>2014-06-28T08:56:30.000Z</time>
      </trkpt>
      <trkpt lat="45.1475" lon="5.63932">
        <ele>1909</ele>
        <time>2014-06-28T08:56:31.000Z</time>
      </trkpt>
      <trkpt lat="45.1475" lon="5.63932">
        <ele>1909</ele>
        <time>2014-06-28T08:56:32.000Z</time>
      </trkpt>
      <trkpt lat="45.1475" lon="5.63932">
        <ele>1909</ele>
        <time>2014-06-28T08:56:33.000Z</time>
      </trkpt>
      <trkpt lat="45.1475" lon="5.63932">
        <ele>1909</ele>
        <time>2014-06-28T08:56:34.000Z</time>
      </trkpt>
      <trkpt lat="45.1475" lon="5.63932">
        <ele>1909</ele>
        <time>2014-06-28T08:56:35.000Z</time>
      </trkpt>
      <trkpt lat="45.1475" lon="5.63932">
        <ele>1909</ele>
        <time>2014-06-28T08:56:36.000Z</time>
      </trkpt>
      <trkpt lat="45.1475" lon="5.63932">
        <ele>1909</ele>
        <time>2014-06-28T08:56:37.000Z</time>
      </trkpt>
      <trkpt lat="45.1475" lon="5.63932">
        <ele>1909</ele>
        <time>2014-06-28T08:56:38.000Z</time>
      </trkpt>
      <trkpt lat="45.1475" lon="5.63932">
        <ele>1909</ele>
        <time>2014-06-28T08:56:39.000Z</time>
      </trkpt>
      <trkpt lat="45.1475" lon="5.63932">
        <ele>1909</ele>
        <time>2014-06-28T08:56:40.000Z</time>
      </trkpt>
      <trkpt lat="45.1475" lon="5.63932">
        <ele>1909</ele>
        <time>2014-06-28T08:56:41.000Z</time>
      </trkpt>
      <trkpt lat="45.1475" lon="5.63932">
        <ele>1909</ele>
        <time>2014-06-28T08:56:42.000Z</time>
      </trkpt>
      <trkpt lat="45.1475" lon="5.63932">
        <ele>1909</ele>
        <time>2014-06-28T08:56:43.000Z</time>
      </trkpt>
      <trkpt lat="45.1475" lon="5.63932">
        <ele>1909</ele>
        <time>2014-06-28T08:56:44.000Z</time>
      </trkpt>
      <trkpt lat="45.1475" lon="5.63932">
        <ele>1909</ele>
        <time>2014-06-28T08:56:45.000Z</time>
      </trkpt>
      <trkpt lat="45.1475" lon="5.63932">
        <ele>1909</ele>
        <time>2014-06-28T08:56:46.000Z</time>
      </trkpt>
      <trkpt lat="45.1475" lon="5.63932">
        <ele>1909</ele>
        <time>2014-06-28T08:56:47.000Z</time>
      </trkpt>
      <trkpt lat="45.1475" lon="5.63932">
        <ele>1909</ele>
        <time>2014-06-28T08:56:48.000Z</time>
      </trkpt>
      <trkpt lat="45.1475" lon="5.63931">
        <ele>1908</ele>
        <time>2014-06-28T08:56:49.000Z</time>
      </trkpt>
      <trkpt lat="45.1475" lon="5.63931">
        <ele>1908</ele>
        <time>2014-06-28T08:56:50.000Z</time>
      </trkpt>
      <trkpt lat="45.1475" lon="5.63931">
        <ele>1908</ele>
        <time>2014-06-28T08:56:51.000Z</time>
      </trkpt>
      <trkpt lat="45.1475" lon="5.63931">
        <ele>1908</ele>
        <time>2014-06-28T08:56:52.000Z</time>
      </trkpt>
      <trkpt lat="45.1475" lon="5.63931">
        <ele>1908</ele>
        <time>2014-06-28T08:56:53.000Z</time>
      </trkpt>
      <trkpt lat="45.1475" lon="5.63931">
        <ele>1908</ele>
        <time>2014-06-28T08:56:54.000Z</time>
      </trkpt>
      <trkpt lat="45.1475" lon="5.63931">
        <ele>1908</ele>
        <time>2014-06-28T08:56:55.000Z</time>
      </trkpt>
      <trkpt lat="45.1475" lon="5.63931">
        <ele>1908</ele>
        <time>2014-06-28T08:56:56.000Z</time>
      </trkpt>
      <trkpt lat="45.1475" lon="5.63931">
        <ele>1908</ele>
        <time>2014-06-28T08:56:57.000Z</time>
      </trkpt>
      <trkpt lat="45.1475" lon="5.63931">
        <ele>1908</ele>
        <time>2014-06-28T08:56:58.000Z</time>
      </trkpt>
      <trkpt lat="45.1475" lon="5.63931">
        <ele>1908</ele>
        <time>2014-06-28T08:56:59.000Z</time>
      </trkpt>
      <trkpt lat="45.1475" lon="5.63931">
        <ele>1908</ele>
        <time>2014-06-28T08:57:00.000Z</time>
      </trkpt>
      <trkpt lat="45.1475" lon="5.63931">
        <ele>1908</ele>
        <time>2014-06-28T08:57:01.000Z</time>
      </trkpt>
      <trkpt lat="45.1475" lon="5.63931">
        <ele>1908</ele>
        <time>2014-06-28T08:57:02.000Z</time>
      </trkpt>
      <trkpt lat="45.1475" lon="5.63931">
        <ele>1908</ele>
        <time>2014-06-28T08:57:03.000Z</time>
      </trkpt>
      <trkpt lat="45.1475" lon="5.63931">
        <ele>1908</ele>
        <time>2014-06-28T08:57:04.000Z</time>
      </trkpt>
      <trkpt lat="45.1475" lon="5.63931">
        <ele>1908</ele>
        <time>2014-06-28T08:57:05.000Z</time>
      </trkpt>
      <trkpt lat="45.1475" lon="5.63931">
        <ele>1908</ele>
        <time>2014-06-28T08:57:06.000Z</time>
      </trkpt>
      <trkpt lat="45.1475" lon="5.63931">
        <ele>1908</ele>
        <time>2014-06-28T08:57:07.000Z</time>
      </trkpt>
      <trkpt lat="45.1475" lon="5.63931">
        <ele>1908</ele>
        <time>2014-06-28T08:57:08.000Z</time>
      </trkpt>
      <trkpt lat="45.1475" lon="5.63931">
        <ele>1908</ele>
        <time>2014-06-28T08:57:09.000Z</time>
      </trkpt>
      <trkpt lat="45.1475" lon="5.63931">
        <ele>1908</ele>
        <time>2014-06-28T08:57:10.000Z</time>
      </trkpt>
      <trkpt lat="45.14749" lon="5.63931">
        <ele>1908</ele>
        <time>2014-06-28T08:57:11.000Z</time>
      </trkpt>
      <trkpt lat="45.14749" lon="5.63931">
        <ele>1908</ele>
        <time>2014-06-28T08:57:12.000Z</time>
      </trkpt>
      <trkpt lat="45.14749" lon="5.63931">
        <ele>1908</ele>
        <time>2014-06-28T08:57:13.000Z</time>
      </trkpt>
      <trkpt lat="45.14749" lon="5.63931">
        <ele>1908</ele>
        <time>2014-06-28T08:57:14.000Z</time>
      </trkpt>
      <trkpt lat="45.14749" lon="5.63931">
        <ele>1908</ele>
        <time>2014-06-28T08:57:15.000Z</time>
      </trkpt>
      <trkpt lat="45.14749" lon="5.63931">
        <ele>1908</ele>
        <time>2014-06-28T08:57:16.000Z</time>
      </trkpt>
      <trkpt lat="45.14749" lon="5.63931">
        <ele>1908</ele>
        <time>2014-06-28T08:57:17.000Z</time>
      </trkpt>
      <trkpt lat="45.14749" lon="5.63931">
        <ele>1908</ele>
        <time>2014-06-28T08:57:18.000Z</time>
      </trkpt>
      <trkpt lat="45.14749" lon="5.63931">
        <ele>1908</ele>
        <time>2014-06-28T08:57:19.000Z</time>
      </trkpt>
      <trkpt lat="45.14749" lon="5.63931">
        <ele>1908</ele>
        <time>2014-06-28T08:57:20.000Z</time>
      </trkpt>
      <trkpt lat="45.14749" lon="5.63931">
        <ele>1908</ele>
        <time>2014-06-28T08:57:21.000Z</time>
      </trkpt>
      <trkpt lat="45.14749" lon="5.63931">
        <ele>1908</ele>
        <time>2014-06-28T08:57:22.000Z</time>
      </trkpt>
      <trkpt lat="45.14749" lon="5.63931">
        <ele>1908</ele>
        <time>2014-06-28T08:57:23.000Z</time>
      </trkpt>
      <trkpt lat="45.14749" lon="5.63931">
        <ele>1908</ele>
        <time>2014-06-28T08:57:24.000Z</time>
      </trkpt>
      <trkpt lat="45.14749" lon="5.63931">
        <ele>1908</ele>
        <time>2014-06-28T08:57:25.000Z</time>
      </trkpt>
      <trkpt lat="45.14749" lon="5.63931">
        <ele>1908</ele>
        <time>2014-06-28T08:57:26.000Z</time>
      </trkpt>
      <trkpt lat="45.14749" lon="5.63931">
        <ele>1908</ele>
        <time>2014-06-28T08:57:27.000Z</time>
      </trkpt>
      <trkpt lat="45.14749" lon="5.63931">
        <ele>1908</ele>
        <time>2014-06-28T08:57:28.000Z</time>
      </trkpt>
      <trkpt lat="45.14749" lon="5.63931">
        <ele>1908</ele>
        <time>2014-06-28T08:57:29.000Z</time>
      </trkpt>
      <trkpt lat="45.14749" lon="5.63931">
        <ele>1908</ele>
        <time>2014-06-28T08:57:30.000Z</time>
      </trkpt>
      <trkpt lat="45.14749" lon="5.63931">
        <ele>1908</ele>
        <time>2014-06-28T08:57:31.000Z</time>
      </trkpt>
      <trkpt lat="45.14749" lon="5.63931">
        <ele>1908</ele>
        <time>2014-06-28T08:57:32.000Z</time>
      </trkpt>
      <trkpt lat="45.14749" lon="5.63931">
        <ele>1908</ele>
        <time>2014-06-28T08:57:33.000Z</time>
      </trkpt>
      <trkpt lat="45.14749" lon="5.63932">
        <ele>1908</ele>
        <time>2014-06-28T08:57:34.000Z</time>
      </trkpt>
      <trkpt lat="45.14749" lon="5.63932">
        <ele>1908</ele>
        <time>2014-06-28T08:57:35.000Z</time>
      </trkpt>
      <trkpt lat="45.14749" lon="5.63932">
        <ele>1908</ele>
        <time>2014-06-28T08:57:36.000Z</time>
      </trkpt>
      <trkpt lat="45.14749" lon="5.63932">
        <ele>1908</ele>
        <time>2014-06-28T08:57:37.000Z</time>
      </trkpt>
      <trkpt lat="45.14749" lon="5.63932">
        <ele>1909</ele>
        <time>2014-06-28T08:57:38.000Z</time>
      </trkpt>
      <trkpt lat="45.14749" lon="5.63931">
        <ele>1909</ele>
        <time>2014-06-28T08:57:39.000Z</time>
      </trkpt>
      <trkpt lat="45.14749" lon="5.63931">
        <ele>1909</ele>
        <time>2014-06-28T08:57:40.000Z</time>
      </trkpt>
      <trkpt lat="45.14749" lon="5.63931">
        <ele>1909</ele>
        <time>2014-06-28T08:57:41.000Z</time>
      </trkpt>
      <trkpt lat="45.14748" lon="5.6393">
        <ele>1909</ele>
        <time>2014-06-28T08:57:42.000Z</time>
      </trkpt>
      <trkpt lat="45.14748" lon="5.6393">
        <ele>1909</ele>
        <time>2014-06-28T08:57:43.000Z</time>
      </trkpt>
      <trkpt lat="45.14747" lon="5.63929">
        <ele>1909</ele>
        <time>2014-06-28T08:57:44.000Z</time>
      </trkpt>
      <trkpt lat="45.14746" lon="5.63929">
        <ele>1909</ele>
        <time>2014-06-28T08:57:45.000Z</time>
      </trkpt>
      <trkpt lat="45.14746" lon="5.63928">
        <ele>1909</ele>
        <time>2014-06-28T08:57:46.000Z</time>
      </trkpt>
      <trkpt lat="45.14745" lon="5.63927">
        <ele>1908</ele>
        <time>2014-06-28T08:57:47.000Z</time>
      </trkpt>
      <trkpt lat="45.14745" lon="5.63927">
        <ele>1908</ele>
        <time>2014-06-28T08:57:48.000Z</time>
      </trkpt>
      <trkpt lat="45.14744" lon="5.63926">
        <ele>1908</ele>
        <time>2014-06-28T08:57:49.000Z</time>
      </trkpt>
      <trkpt lat="45.14743" lon="5.63926">
        <ele>1908</ele>
        <time>2014-06-28T08:57:50.000Z</time>
      </trkpt>
      <trkpt lat="45.14742" lon="5.63925">
        <ele>1908</ele>
        <time>2014-06-28T08:57:51.000Z</time>
      </trkpt>
      <trkpt lat="45.14741" lon="5.63923">
        <ele>1908</ele>
        <time>2014-06-28T08:57:52.000Z</time>
      </trkpt>
      <trkpt lat="45.1474" lon="5.63922">
        <ele>1908</ele>
        <time>2014-06-28T08:57:53.000Z</time>
      </trkpt>
      <trkpt lat="45.14739" lon="5.6392">
        <ele>1907</ele>
        <time>2014-06-28T08:57:54.000Z</time>
      </trkpt>
      <trkpt lat="45.14739" lon="5.63918">
        <ele>1907</ele>
        <time>2014-06-28T08:57:55.000Z</time>
      </trkpt>
      <trkpt lat="45.1474" lon="5.63916">
        <ele>1907</ele>
        <time>2014-06-28T08:57:56.000Z</time>
      </trkpt>
      <trkpt lat="45.14741" lon="5.63915">
        <ele>1906</ele>
        <time>2014-06-28T08:57:57.000Z</time>
      </trkpt>
      <trkpt lat="45.14743" lon="5.63915">
        <ele>1906</ele>
        <time>2014-06-28T08:57:58.000Z</time>
      </trkpt>
      <trkpt lat="45.14746" lon="5.63915">
        <ele>1905</ele>
        <time>2014-06-28T08:57:59.000Z</time>
      </trkpt>
      <trkpt lat="45.14748" lon="5.63915">
        <ele>1904</ele>
        <time>2014-06-28T08:58:00.000Z</time>
      </trkpt>
      <trkpt lat="45.1475" lon="5.63915">
        <ele>1904</ele>
        <time>2014-06-28T08:58:01.000Z</time>
      </trkpt>
      <trkpt lat="45.14753" lon="5.63915">
        <ele>1903</ele>
        <time>2014-06-28T08:58:02.000Z</time>
      </trkpt>
      <trkpt lat="45.14755" lon="5.63915">
        <ele>1902</ele>
        <time>2014-06-28T08:58:03.000Z</time>
      </trkpt>
      <trkpt lat="45.14756" lon="5.63916">
        <ele>1902</ele>
        <time>2014-06-28T08:58:04.000Z</time>
      </trkpt>
      <trkpt lat="45.14758" lon="5.63916">
        <ele>1902</ele>
        <time>2014-06-28T08:58:05.000Z</time>
      </trkpt>
      <trkpt lat="45.1476" lon="5.63917">
        <ele>1901</ele>
        <time>2014-06-28T08:58:06.000Z</time>
      </trkpt>
      <trkpt lat="45.14761" lon="5.63917">
        <ele>1901</ele>
        <time>2014-06-28T08:58:07.000Z</time>
      </trkpt>
      <trkpt lat="45.14763" lon="5.63918">
        <ele>1900</ele>
        <time>2014-06-28T08:58:08.000Z</time>
      </trkpt>
      <trkpt lat="45.14764" lon="5.63918">
        <ele>1900</ele>
        <time>2014-06-28T08:58:09.000Z</time>
      </trkpt>
      <trkpt lat="45.14764" lon="5.63918">
        <ele>1900</ele>
        <time>2014-06-28T08:58:10.000Z</time>
      </trkpt>
      <trkpt lat="45.14764" lon="5.63918">
        <ele>1899</ele>
        <time>2014-06-28T08:58:11.000Z</time>
      </trkpt>
      <trkpt lat="45.14765" lon="5.63918">
        <ele>1899</ele>
        <time>2014-06-28T08:58:12.000Z</time>
      </trkpt>
      <trkpt lat="45.14765" lon="5.63918">
        <ele>1899</ele>
        <time>2014-06-28T08:58:13.000Z</time>
      </trkpt>
      <trkpt lat="45.14766" lon="5.63918">
        <ele>1898</ele>
        <time>2014-06-28T08:58:14.000Z</time>
      </trkpt>
      <trkpt lat="45.14766" lon="5.63919">
        <ele>1898</ele>
        <time>2014-06-28T08:58:15.000Z</time>
      </trkpt>
      <trkpt lat="45.14767" lon="5.63919">
        <ele>1898</ele>
        <time>2014-06-28T08:58:16.000Z</time>
      </trkpt>
      <trkpt lat="45.14767" lon="5.63919">
        <ele>1898</ele>
        <time>2014-06-28T08:58:17.000Z</time>
      </trkpt>
      <trkpt lat="45.14767" lon="5.63919">
        <ele>1898</ele>
        <time>2014-06-28T08:58:18.000Z</time>
      </trkpt>
      <trkpt lat="45.14767" lon="5.63919">
        <ele>1898</ele>
        <time>2014-06-28T08:58:19.000Z</time>
      </trkpt>
      <trkpt lat="45.14767" lon="5.63919">
        <ele>1898</ele>
        <time>2014-06-28T08:58:20.000Z</time>
      </trkpt>
      <trkpt lat="45.14767" lon="5.63919">
        <ele>1898</ele>
        <time>2014-06-28T08:58:21.000Z</time>
      </trkpt>
      <trkpt lat="45.14767" lon="5.63919">
        <ele>1898</ele>
        <time>2014-06-28T08:58:22.000Z</time>
      </trkpt>
      <trkpt lat="45.14767" lon="5.63919">
        <ele>1898</ele>
        <time>2014-06-28T08:58:23.000Z</time>
      </trkpt>
      <trkpt lat="45.14767" lon="5.63919">
        <ele>1898</ele>
        <time>2014-06-28T08:58:24.000Z</time>
      </trkpt>
      <trkpt lat="45.14767" lon="5.63919">
        <ele>1897</ele>
        <time>2014-06-28T08:58:25.000Z</time>
      </trkpt>
      <trkpt lat="45.14767" lon="5.63919">
        <ele>1897</ele>
        <time>2014-06-28T08:58:26.000Z</time>
      </trkpt>
      <trkpt lat="45.14767" lon="5.63919">
        <ele>1898</ele>
        <time>2014-06-28T08:58:27.000Z</time>
      </trkpt>
      <trkpt lat="45.14767" lon="5.63919">
        <ele>1898</ele>
        <time>2014-06-28T08:58:28.000Z</time>
      </trkpt>
      <trkpt lat="45.14767" lon="5.63919">
        <ele>1898</ele>
        <time>2014-06-28T08:58:29.000Z</time>
      </trkpt>
      <trkpt lat="45.14768" lon="5.63919">
        <ele>1898</ele>
        <time>2014-06-28T08:58:30.000Z</time>
      </trkpt>
      <trkpt lat="45.14768" lon="5.63919">
        <ele>1898</ele>
        <time>2014-06-28T08:58:31.000Z</time>
      </trkpt>
      <trkpt lat="45.14768" lon="5.63919">
        <ele>1898</ele>
        <time>2014-06-28T08:58:32.000Z</time>
      </trkpt>
      <trkpt lat="45.14768" lon="5.63919">
        <ele>1898</ele>
        <time>2014-06-28T08:58:33.000Z</time>
      </trkpt>
      <trkpt lat="45.14768" lon="5.63919">
        <ele>1898</ele>
        <time>2014-06-28T08:58:34.000Z</time>
      </trkpt>
      <trkpt lat="45.14768" lon="5.63919">
        <ele>1898</ele>
        <time>2014-06-28T08:58:35.000Z</time>
      </trkpt>
      <trkpt lat="45.14768" lon="5.63919">
        <ele>1898</ele>
        <time>2014-06-28T08:58:36.000Z</time>
      </trkpt>
      <trkpt lat="45.14768" lon="5.63919">
        <ele>1898</ele>
        <time>2014-06-28T08:58:37.000Z</time>
      </trkpt>
      <trkpt lat="45.14768" lon="5.63919">
        <ele>1898</ele>
        <time>2014-06-28T08:58:38.000Z</time>
      </trkpt>
      <trkpt lat="45.14768" lon="5.63919">
        <ele>1898</ele>
        <time>2014-06-28T08:58:39.000Z</time>
      </trkpt>
      <trkpt lat="45.14768" lon="5.63919">
        <ele>1898</ele>
        <time>2014-06-28T08:58:40.000Z</time>
      </trkpt>
      <trkpt lat="45.14768" lon="5.63919">
        <ele>1898</ele>
        <time>2014-06-28T08:58:41.000Z</time>
      </trkpt>
      <trkpt lat="45.14768" lon="5.63919">
        <ele>1898</ele>
        <time>2014-06-28T08:58:42.000Z</time>
      </trkpt>
      <trkpt lat="45.14768" lon="5.63918">
        <ele>1898</ele>
        <time>2014-06-28T08:58:43.000Z</time>
      </trkpt>
      <trkpt lat="45.14768" lon="5.63918">
        <ele>1898</ele>
        <time>2014-06-28T08:58:44.000Z</time>
      </trkpt>
      <trkpt lat="45.14768" lon="5.63918">
        <ele>1898</ele>
        <time>2014-06-28T08:58:45.000Z</time>
      </trkpt>
      <trkpt lat="45.14768" lon="5.63918">
        <ele>1898</ele>
        <time>2014-06-28T08:58:46.000Z</time>
      </trkpt>
      <trkpt lat="45.14768" lon="5.63918">
        <ele>1898</ele>
        <time>2014-06-28T08:58:47.000Z</time>
      </trkpt>
      <trkpt lat="45.14768" lon="5.63918">
        <ele>1898</ele>
        <time>2014-06-28T08:58:48.000Z</time>
      </trkpt>
      <trkpt lat="45.14768" lon="5.63918">
        <ele>1898</ele>
        <time>2014-06-28T08:58:49.000Z</time>
      </trkpt>
      <trkpt lat="45.14768" lon="5.63918">
        <ele>1898</ele>
        <time>2014-06-28T08:58:50.000Z</time>
      </trkpt>
      <trkpt lat="45.14768" lon="5.63918">
        <ele>1898</ele>
        <time>2014-06-28T08:58:51.000Z</time>
      </trkpt>
      <trkpt lat="45.14768" lon="5.63918">
        <ele>1898</ele>
        <time>2014-06-28T08:58:52.000Z</time>
      </trkpt>
      <trkpt lat="45.14768" lon="5.63918">
        <ele>1898</ele>
        <time>2014-06-28T08:58:53.000Z</time>
      </trkpt>
      <trkpt lat="45.14768" lon="5.63918">
        <ele>1898</ele>
        <time>2014-06-28T08:58:54.000Z</time>
      </trkpt>
      <trkpt lat="45.14768" lon="5.63918">
        <ele>1898</ele>
        <time>2014-06-28T08:58:55.000Z</time>
      </trkpt>
      <trkpt lat="45.14768" lon="5.63918">
        <ele>1898</ele>
        <time>2014-06-28T08:58:56.000Z</time>
      </trkpt>
      <trkpt lat="45.14768" lon="5.63918">
        <ele>1898</ele>
        <time>2014-06-28T08:58:57.000Z</time>
      </trkpt>
      <trkpt lat="45.14768" lon="5.63918">
        <ele>1898</ele>
        <time>2014-06-28T08:58:58.000Z</time>
      </trkpt>
      <trkpt lat="45.14768" lon="5.63918">
        <ele>1898</ele>
        <time>2014-06-28T08:58:59.000Z</time>
      </trkpt>
      <trkpt lat="45.14768" lon="5.63918">
        <ele>1898</ele>
        <time>2014-06-28T08:59:00.000Z</time>
      </trkpt>
      <trkpt lat="45.14768" lon="5.63918">
        <ele>1898</ele>
        <time>2014-06-28T08:59:01.000Z</time>
      </trkpt>
      <trkpt lat="45.14768" lon="5.63918">
        <ele>1898</ele>
        <time>2014-06-28T08:59:02.000Z</time>
      </trkpt>
      <trkpt lat="45.14768" lon="5.63918">
        <ele>1898</ele>
        <time>2014-06-28T08:59:03.000Z</time>
      </trkpt>
      <trkpt lat="45.14768" lon="5.63918">
        <ele>1898</ele>
        <time>2014-06-28T08:59:04.000Z</time>
      </trkpt>
      <trkpt lat="45.14768" lon="5.63918">
        <ele>1898</ele>
        <time>2014-06-28T08:59:05.000Z</time>
      </trkpt>
      <trkpt lat="45.14768" lon="5.63918">
        <ele>1898</ele>
        <time>2014-06-28T08:59:06.000Z</time>
      </trkpt>
      <trkpt lat="45.14768" lon="5.63918">
        <ele>1898</ele>
        <time>2014-06-28T08:59:07.000Z</time>
      </trkpt>
      <trkpt lat="45.14768" lon="5.63918">
        <ele>1898</ele>
        <time>2014-06-28T08:59:08.000Z</time>
      </trkpt>
      <trkpt lat="45.14767" lon="5.63918">
        <ele>1898</ele>
        <time>2014-06-28T08:59:09.000Z</time>
      </trkpt>
      <trkpt lat="45.14768" lon="5.63918">
        <ele>1898</ele>
        <time>2014-06-28T08:59:10.000Z</time>
      </trkpt>
      <trkpt lat="45.14768" lon="5.63918">
        <ele>1898</ele>
        <time>2014-06-28T08:59:11.000Z</time>
      </trkpt>
      <trkpt lat="45.14768" lon="5.63918">
        <ele>1898</ele>
        <time>2014-06-28T08:59:12.000Z</time>
      </trkpt>
      <trkpt lat="45.14768" lon="5.63918">
        <ele>1898</ele>
        <time>2014-06-28T08:59:13.000Z</time>
      </trkpt>
      <trkpt lat="45.14768" lon="5.63918">
        <ele>1898</ele>
        <time>2014-06-28T08:59:14.000Z</time>
      </trkpt>
      <trkpt lat="45.14767" lon="5.63918">
        <ele>1898</ele>
        <time>2014-06-28T08:59:15.000Z</time>
      </trkpt>
      <trkpt lat="45.14768" lon="5.63918">
        <ele>1898</ele>
        <time>2014-06-28T08:59:16.000Z</time>
      </trkpt>
      <trkpt lat="45.14768" lon="5.63918">
        <ele>1898</ele>
        <time>2014-06-28T08:59:17.000Z</time>
      </trkpt>
      <trkpt lat="45.14768" lon="5.63918">
        <ele>1898</ele>
        <time>2014-06-28T08:59:18.000Z</time>
      </trkpt>
      <trkpt lat="45.14768" lon="5.63918">
        <ele>1898</ele>
        <time>2014-06-28T08:59:19.000Z</time>
      </trkpt>
      <trkpt lat="45.14768" lon="5.63918">
        <ele>1898</ele>
        <time>2014-06-28T08:59:20.000Z</time>
      </trkpt>
      <trkpt lat="45.14768" lon="5.63918">
        <ele>1897</ele>
        <time>2014-06-28T08:59:21.000Z</time>
      </trkpt>
      <trkpt lat="45.14768" lon="5.63918">
        <ele>1897</ele>
        <time>2014-06-28T08:59:22.000Z</time>
      </trkpt>
      <trkpt lat="45.14768" lon="5.63918">
        <ele>1897</ele>
        <time>2014-06-28T08:59:23.000Z</time>
      </trkpt>
      <trkpt lat="45.14767" lon="5.63918">
        <ele>1897</ele>
        <time>2014-06-28T08:59:24.000Z</time>
      </trkpt>
      <trkpt lat="45.14767" lon="5.63918">
        <ele>1897</ele>
        <time>2014-06-28T08:59:25.000Z</time>
      </trkpt>
      <trkpt lat="45.14767" lon="5.63918">
        <ele>1897</ele>
        <time>2014-06-28T08:59:26.000Z</time>
      </trkpt>
      <trkpt lat="45.14767" lon="5.63918">
        <ele>1897</ele>
        <time>2014-06-28T08:59:27.000Z</time>
      </trkpt>
      <trkpt lat="45.14767" lon="5.63918">
        <ele>1897</ele>
        <time>2014-06-28T08:59:28.000Z</time>
      </trkpt>
      <trkpt lat="45.14767" lon="5.63918">
        <ele>1897</ele>
        <time>2014-06-28T08:59:29.000Z</time>
      </trkpt>
      <trkpt lat="45.14767" lon="5.63918">
        <ele>1897</ele>
        <time>2014-06-28T08:59:30.000Z</time>
      </trkpt>
      <trkpt lat="45.14767" lon="5.63918">
        <ele>1897</ele>
        <time>2014-06-28T08:59:31.000Z</time>
      </trkpt>
      <trkpt lat="45.14767" lon="5.63918">
        <ele>1897</ele>
        <time>2014-06-28T08:59:32.000Z</time>
      </trkpt>
      <trkpt lat="45.14767" lon="5.63918">
        <ele>1897</ele>
        <time>2014-06-28T08:59:33.000Z</time>
      </trkpt>
      <trkpt lat="45.14767" lon="5.63917">
        <ele>1897</ele>
        <time>2014-06-28T08:59:34.000Z</time>
      </trkpt>
      <trkpt lat="45.14768" lon="5.63917">
        <ele>1897</ele>
        <time>2014-06-28T08:59:35.000Z</time>
      </trkpt>
      <trkpt lat="45.14769" lon="5.63917">
        <ele>1897</ele>
        <time>2014-06-28T08:59:36.000Z</time>
      </trkpt>
      <trkpt lat="45.14771" lon="5.63917">
        <ele>1896</ele>
        <time>2014-06-28T08:59:37.000Z</time>
      </trkpt>
      <trkpt lat="45.14772" lon="5.63917">
        <ele>1896</ele>
        <time>2014-06-28T08:59:38.000Z</time>
      </trkpt>
      <trkpt lat="45.14774" lon="5.63918">
        <ele>1895</ele>
        <time>2014-06-28T08:59:39.000Z</time>
      </trkpt>
      <trkpt lat="45.14776" lon="5.63918">
        <ele>1895</ele>
        <time>2014-06-28T08:59:40.000Z</time>
      </trkpt>
      <trkpt lat="45.14778" lon="5.63918">
        <ele>1895</ele>
        <time>2014-06-28T08:59:41.000Z</time>
      </trkpt>
      <trkpt lat="45.1478" lon="5.63919">
        <ele>1894</ele>
        <time>2014-06-28T08:59:42.000Z</time>
      </trkpt>
      <trkpt lat="45.14783" lon="5.6392">
        <ele>1894</ele>
        <time>2014-06-28T08:59:43.000Z</time>
      </trkpt>
      <trkpt lat="45.14785" lon="5.6392">
        <ele>1894</ele>
        <time>2014-06-28T08:59:44.000Z</time>
      </trkpt>
      <trkpt lat="45.14787" lon="5.63921">
        <ele>1893</ele>
        <time>2014-06-28T08:59:45.000Z</time>
      </trkpt>
      <trkpt lat="45.1479" lon="5.63922">
        <ele>1893</ele>
        <time>2014-06-28T08:59:46.000Z</time>
      </trkpt>
      <trkpt lat="45.14792" lon="5.63922">
        <ele>1893</ele>
        <time>2014-06-28T08:59:47.000Z</time>
      </trkpt>
      <trkpt lat="45.14795" lon="5.63923">
        <ele>1893</ele>
        <time>2014-06-28T08:59:48.000Z</time>
      </trkpt>
      <trkpt lat="45.14797" lon="5.63923">
        <ele>1893</ele>
        <time>2014-06-28T08:59:49.000Z</time>
      </trkpt>
      <trkpt lat="45.14799" lon="5.63923">
        <ele>1892</ele>
        <time>2014-06-28T08:59:50.000Z</time>
      </trkpt>
      <trkpt lat="45.14802" lon="5.63924">
        <ele>1892</ele>
        <time>2014-06-28T08:59:51.000Z</time>
      </trkpt>
      <trkpt lat="45.14804" lon="5.63925">
        <ele>1892</ele>
        <time>2014-06-28T08:59:52.000Z</time>
      </trkpt>
      <trkpt lat="45.14806" lon="5.63926">
        <ele>1892</ele>
        <time>2014-06-28T08:59:53.000Z</time>
      </trkpt>
      <trkpt lat="45.14809" lon="5.63927">
        <ele>1891</ele>
        <time>2014-06-28T08:59:54.000Z</time>
      </trkpt>
      <trkpt lat="45.14811" lon="5.63928">
        <ele>1891</ele>
        <time>2014-06-28T08:59:55.000Z</time>
      </trkpt>
      <trkpt lat="45.14814" lon="5.63929">
        <ele>1891</ele>
        <time>2014-06-28T08:59:56.000Z</time>
      </trkpt>
      <trkpt lat="45.14816" lon="5.6393">
        <ele>1890</ele>
        <time>2014-06-28T08:59:57.000Z</time>
      </trkpt>
      <trkpt lat="45.14819" lon="5.63931">
        <ele>1890</ele>
        <time>2014-06-28T08:59:58.000Z</time>
      </trkpt>
      <trkpt lat="45.14822" lon="5.63932">
        <ele>1890</ele>
        <time>2014-06-28T08:59:59.000Z</time>
      </trkpt>
      <trkpt lat="45.14824" lon="5.63932">
        <ele>1889</ele>
        <time>2014-06-28T09:00:00.000Z</time>
      </trkpt>
      <trkpt lat="45.14827" lon="5.63933">
        <ele>1888</ele>
        <time>2014-06-28T09:00:01.000Z</time>
      </trkpt>
      <trkpt lat="45.1483" lon="5.63934">
        <ele>1888</ele>
        <time>2014-06-28T09:00:02.000Z</time>
      </trkpt>
      <trkpt lat="45.14834" lon="5.63936">
        <ele>1887</ele>
        <time>2014-06-28T09:00:03.000Z</time>
      </trkpt>
      <trkpt lat="45.14837" lon="5.63939">
        <ele>1887</ele>
        <time>2014-06-28T09:00:04.000Z</time>
      </trkpt>
      <trkpt lat="45.1484" lon="5.63941">
        <ele>1887</ele>
        <time>2014-06-28T09:00:05.000Z</time>
      </trkpt>
      <trkpt lat="45.14842" lon="5.63943">
        <ele>1886</ele>
        <time>2014-06-28T09:00:06.000Z</time>
      </trkpt>
      <trkpt lat="45.14845" lon="5.63945">
        <ele>1886</ele>
        <time>2014-06-28T09:00:07.000Z</time>
      </trkpt>
      <trkpt lat="45.14848" lon="5.63946">
        <ele>1886</ele>
        <time>2014-06-28T09:00:08.000Z</time>
      </trkpt>
      <trkpt lat="45.14851" lon="5.63948">
        <ele>1885</ele>
        <time>2014-06-28T09:00:09.000Z</time>
      </trkpt>
      <trkpt lat="45.14854" lon="5.6395">
        <ele>1885</ele>
        <time>2014-06-28T09:00:10.000Z</time>
      </trkpt>
      <trkpt lat="45.14857" lon="5.63952">
        <ele>1885</ele>
        <time>2014-06-28T09:00:11.000Z</time>
      </trkpt>
      <trkpt lat="45.1486" lon="5.63953">
        <ele>1884</ele>
        <time>2014-06-28T09:00:12.000Z</time>
      </trkpt>
      <trkpt lat="45.14863" lon="5.63954">
        <ele>1884</ele>
        <time>2014-06-28T09:00:13.000Z</time>
      </trkpt>
      <trkpt lat="45.14865" lon="5.63954">
        <ele>1884</ele>
        <time>2014-06-28T09:00:14.000Z</time>
      </trkpt>
      <trkpt lat="45.14868" lon="5.63953">
        <ele>1883</ele>
        <time>2014-06-28T09:00:15.000Z</time>
      </trkpt>
      <trkpt lat="45.14871" lon="5.63952">
        <ele>1883</ele>
        <time>2014-06-28T09:00:16.000Z</time>
      </trkpt>
      <trkpt lat="45.14873" lon="5.6395">
        <ele>1883</ele>
        <time>2014-06-28T09:00:17.000Z</time>
      </trkpt>
      <trkpt lat="45.14875" lon="5.63949">
        <ele>1882</ele>
        <time>2014-06-28T09:00:18.000Z</time>
      </trkpt>
      <trkpt lat="45.14877" lon="5.63948">
        <ele>1882</ele>
        <time>2014-06-28T09:00:19.000Z</time>
      </trkpt>
      <trkpt lat="45.14877" lon="5.63947">
        <ele>1882</ele>
        <time>2014-06-28T09:00:20.000Z</time>
      </trkpt>
      <trkpt lat="45.14877" lon="5.63946">
        <ele>1881</ele>
        <time>2014-06-28T09:00:21.000Z</time>
      </trkpt>
      <trkpt lat="45.14877" lon="5.63944">
        <ele>1881</ele>
        <time>2014-06-28T09:00:22.000Z</time>
      </trkpt>
      <trkpt lat="45.14877" lon="5.63943">
        <ele>1881</ele>
        <time>2014-06-28T09:00:23.000Z</time>
      </trkpt>
      <trkpt lat="45.14876" lon="5.63941">
        <ele>1880</ele>
        <time>2014-06-28T09:00:24.000Z</time>
      </trkpt>
      <trkpt lat="45.14876" lon="5.6394">
        <ele>1880</ele>
        <time>2014-06-28T09:00:25.000Z</time>
      </trkpt>
      <trkpt lat="45.14875" lon="5.63939">
        <ele>1880</ele>
        <time>2014-06-28T09:00:26.000Z</time>
      </trkpt>
      <trkpt lat="45.14874" lon="5.63938">
        <ele>1879</ele>
        <time>2014-06-28T09:00:27.000Z</time>
      </trkpt>
      <trkpt lat="45.14873" lon="5.63937">
        <ele>1879</ele>
        <time>2014-06-28T09:00:28.000Z</time>
      </trkpt>
      <trkpt lat="45.14872" lon="5.63936">
        <ele>1879</ele>
        <time>2014-06-28T09:00:29.000Z</time>
      </trkpt>
      <trkpt lat="45.14871" lon="5.63935">
        <ele>1879</ele>
        <time>2014-06-28T09:00:30.000Z</time>
      </trkpt>
      <trkpt lat="45.1487" lon="5.63934">
        <ele>1879</ele>
        <time>2014-06-28T09:00:31.000Z</time>
      </trkpt>
      <trkpt lat="45.1487" lon="5.63933">
        <ele>1878</ele>
        <time>2014-06-28T09:00:32.000Z</time>
      </trkpt>
      <trkpt lat="45.1487" lon="5.63933">
        <ele>1878</ele>
        <time>2014-06-28T09:00:33.000Z</time>
      </trkpt>
      <trkpt lat="45.1487" lon="5.63933">
        <ele>1878</ele>
        <time>2014-06-28T09:00:34.000Z</time>
      </trkpt>
      <trkpt lat="45.1487" lon="5.63933">
        <ele>1878</ele>
        <time>2014-06-28T09:00:35.000Z</time>
      </trkpt>
      <trkpt lat="45.1487" lon="5.63933">
        <ele>1878</ele>
        <time>2014-06-28T09:00:36.000Z</time>
      </trkpt>
      <trkpt lat="45.1487" lon="5.63933">
        <ele>1878</ele>
        <time>2014-06-28T09:00:37.000Z</time>
      </trkpt>
      <trkpt lat="45.1487" lon="5.63933">
        <ele>1878</ele>
        <time>2014-06-28T09:00:38.000Z</time>
      </trkpt>
      <trkpt lat="45.1487" lon="5.63932">
        <ele>1877</ele>
        <time>2014-06-28T09:00:39.000Z</time>
      </trkpt>
      <trkpt lat="45.1487" lon="5.63932">
        <ele>1877</ele>
        <time>2014-06-28T09:00:40.000Z</time>
      </trkpt>
      <trkpt lat="45.1487" lon="5.63931">
        <ele>1877</ele>
        <time>2014-06-28T09:00:41.000Z</time>
      </trkpt>
      <trkpt lat="45.14871" lon="5.63929">
        <ele>1877</ele>
        <time>2014-06-28T09:00:42.000Z</time>
      </trkpt>
      <trkpt lat="45.14872" lon="5.63927">
        <ele>1877</ele>
        <time>2014-06-28T09:00:43.000Z</time>
      </trkpt>
      <trkpt lat="45.14873" lon="5.63925">
        <ele>1876</ele>
        <time>2014-06-28T09:00:44.000Z</time>
      </trkpt>
      <trkpt lat="45.14874" lon="5.63923">
        <ele>1876</ele>
        <time>2014-06-28T09:00:45.000Z</time>
      </trkpt>
      <trkpt lat="45.14874" lon="5.6392">
        <ele>1876</ele>
        <time>2014-06-28T09:00:46.000Z</time>
      </trkpt>
      <trkpt lat="45.14875" lon="5.63917">
        <ele>1875</ele>
        <time>2014-06-28T09:00:47.000Z</time>
      </trkpt>
      <trkpt lat="45.14875" lon="5.63914">
        <ele>1875</ele>
        <time>2014-06-28T09:00:48.000Z</time>
      </trkpt>
      <trkpt lat="45.14875" lon="5.63911">
        <ele>1874</ele>
        <time>2014-06-28T09:00:49.000Z</time>
      </trkpt>
      <trkpt lat="45.14874" lon="5.63908">
        <ele>1874</ele>
        <time>2014-06-28T09:00:50.000Z</time>
      </trkpt>
      <trkpt lat="45.14873" lon="5.63905">
        <ele>1873</ele>
        <time>2014-06-28T09:00:51.000Z</time>
      </trkpt>
      <trkpt lat="45.14872" lon="5.63902">
        <ele>1872</ele>
        <time>2014-06-28T09:00:52.000Z</time>
      </trkpt>
      <trkpt lat="45.14872" lon="5.63899">
        <ele>1872</ele>
        <time>2014-06-28T09:00:53.000Z</time>
      </trkpt>
      <trkpt lat="45.14872" lon="5.63895">
        <ele>1871</ele>
        <time>2014-06-28T09:00:54.000Z</time>
      </trkpt>
      <trkpt lat="45.14873" lon="5.63892">
        <ele>1871</ele>
        <time>2014-06-28T09:00:55.000Z</time>
      </trkpt>
      <trkpt lat="45.14873" lon="5.63888">
        <ele>1870</ele>
        <time>2014-06-28T09:00:56.000Z</time>
      </trkpt>
      <trkpt lat="45.14873" lon="5.63884">
        <ele>1870</ele>
        <time>2014-06-28T09:00:57.000Z</time>
      </trkpt>
      <trkpt lat="45.14873" lon="5.63881">
        <ele>1869</ele>
        <time>2014-06-28T09:00:58.000Z</time>
      </trkpt>
      <trkpt lat="45.14872" lon="5.63877">
        <ele>1869</ele>
        <time>2014-06-28T09:00:59.000Z</time>
      </trkpt>
      <trkpt lat="45.14871" lon="5.63873">
        <ele>1868</ele>
        <time>2014-06-28T09:01:00.000Z</time>
      </trkpt>
      <trkpt lat="45.14871" lon="5.6387">
        <ele>1868</ele>
        <time>2014-06-28T09:01:01.000Z</time>
      </trkpt>
      <trkpt lat="45.1487" lon="5.63866">
        <ele>1867</ele>
        <time>2014-06-28T09:01:02.000Z</time>
      </trkpt>
      <trkpt lat="45.14869" lon="5.63863">
        <ele>1867</ele>
        <time>2014-06-28T09:01:03.000Z</time>
      </trkpt>
      <trkpt lat="45.14869" lon="5.63859">
        <ele>1866</ele>
        <time>2014-06-28T09:01:04.000Z</time>
      </trkpt>
      <trkpt lat="45.14868" lon="5.63855">
        <ele>1866</ele>
        <time>2014-06-28T09:01:05.000Z</time>
      </trkpt>
      <trkpt lat="45.14868" lon="5.63851">
        <ele>1866</ele>
        <time>2014-06-28T09:01:06.000Z</time>
      </trkpt>
      <trkpt lat="45.14868" lon="5.63848">
        <ele>1865</ele>
        <time>2014-06-28T09:01:07.000Z</time>
      </trkpt>
      <trkpt lat="45.14868" lon="5.63844">
        <ele>1865</ele>
        <time>2014-06-28T09:01:08.000Z</time>
      </trkpt>
      <trkpt lat="45.14868" lon="5.63841">
        <ele>1864</ele>
        <time>2014-06-28T09:01:09.000Z</time>
      </trkpt>
      <trkpt lat="45.14868" lon="5.63837">
        <ele>1864</ele>
        <time>2014-06-28T09:01:10.000Z</time>
      </trkpt>
      <trkpt lat="45.14869" lon="5.63834">
        <ele>1864</ele>
        <time>2014-06-28T09:01:11.000Z</time>
      </trkpt>
      <trkpt lat="45.1487" lon="5.63831">
        <ele>1863</ele>
        <time>2014-06-28T09:01:12.000Z</time>
      </trkpt>
      <trkpt lat="45.14872" lon="5.63828">
        <ele>1863</ele>
        <time>2014-06-28T09:01:13.000Z</time>
      </trkpt>
      <trkpt lat="45.14874" lon="5.63825">
        <ele>1863</ele>
        <time>2014-06-28T09:01:14.000Z</time>
      </trkpt>
      <trkpt lat="45.14876" lon="5.63824">
        <ele>1862</ele>
        <time>2014-06-28T09:01:15.000Z</time>
      </trkpt>
      <trkpt lat="45.14877" lon="5.63824">
        <ele>1862</ele>
        <time>2014-06-28T09:01:16.000Z</time>
      </trkpt>
      <trkpt lat="45.14876" lon="5.63824">
        <ele>1862</ele>
        <time>2014-06-28T09:01:17.000Z</time>
      </trkpt>
      <trkpt lat="45.14876" lon="5.63825">
        <ele>1861</ele>
        <time>2014-06-28T09:01:18.000Z</time>
      </trkpt>
      <trkpt lat="45.14875" lon="5.63826">
        <ele>1861</ele>
        <time>2014-06-28T09:01:19.000Z</time>
      </trkpt>
      <trkpt lat="45.14874" lon="5.63827">
        <ele>1861</ele>
        <time>2014-06-28T09:01:20.000Z</time>
      </trkpt>
      <trkpt lat="45.14873" lon="5.63827">
        <ele>1860</ele>
        <time>2014-06-28T09:01:21.000Z</time>
      </trkpt>
      <trkpt lat="45.14872" lon="5.63828">
        <ele>1860</ele>
        <time>2014-06-28T09:01:22.000Z</time>
      </trkpt>
      <trkpt lat="45.14871" lon="5.63828">
        <ele>1860</ele>
        <time>2014-06-28T09:01:23.000Z</time>
      </trkpt>
      <trkpt lat="45.1487" lon="5.63828">
        <ele>1860</ele>
        <time>2014-06-28T09:01:24.000Z</time>
      </trkpt>
      <trkpt lat="45.1487" lon="5.63828">
        <ele>1859</ele>
        <time>2014-06-28T09:01:25.000Z</time>
      </trkpt>
      <trkpt lat="45.1487" lon="5.63828">
        <ele>1859</ele>
        <time>2014-06-28T09:01:26.000Z</time>
      </trkpt>
      <trkpt lat="45.14869" lon="5.63827">
        <ele>1859</ele>
        <time>2014-06-28T09:01:27.000Z</time>
      </trkpt>
      <trkpt lat="45.14868" lon="5.63827">
        <ele>1859</ele>
        <time>2014-06-28T09:01:28.000Z</time>
      </trkpt>
      <trkpt lat="45.14867" lon="5.63827">
        <ele>1858</ele>
        <time>2014-06-28T09:01:29.000Z</time>
      </trkpt>
      <trkpt lat="45.14867" lon="5.63826">
        <ele>1858</ele>
        <time>2014-06-28T09:01:30.000Z</time>
      </trkpt>
      <trkpt lat="45.14866" lon="5.63826">
        <ele>1858</ele>
        <time>2014-06-28T09:01:31.000Z</time>
      </trkpt>
      <trkpt lat="45.14865" lon="5.63825">
        <ele>1858</ele>
        <time>2014-06-28T09:01:32.000Z</time>
      </trkpt>
      <trkpt lat="45.14865" lon="5.63825">
        <ele>1857</ele>
        <time>2014-06-28T09:01:33.000Z</time>
      </trkpt>
      <trkpt lat="45.14865" lon="5.63824">
        <ele>1857</ele>
        <time>2014-06-28T09:01:34.000Z</time>
      </trkpt>
      <trkpt lat="45.14864" lon="5.63824">
        <ele>1857</ele>
        <time>2014-06-28T09:01:35.000Z</time>
      </trkpt>
      <trkpt lat="45.14864" lon="5.63823">
        <ele>1856</ele>
        <time>2014-06-28T09:01:36.000Z</time>
      </trkpt>
      <trkpt lat="45.14864" lon="5.63823">
        <ele>1856</ele>
        <time>2014-06-28T09:01:37.000Z</time>
      </trkpt>
      <trkpt lat="45.14864" lon="5.63822">
        <ele>1856</ele>
        <time>2014-06-28T09:01:38.000Z</time>
      </trkpt>
      <trkpt lat="45.14865" lon="5.63821">
        <ele>1856</ele>
        <time>2014-06-28T09:01:39.000Z</time>
      </trkpt>
      <trkpt lat="45.14865" lon="5.63821">
        <ele>1855</ele>
        <time>2014-06-28T09:01:40.000Z</time>
      </trkpt>
      <trkpt lat="45.14865" lon="5.6382">
        <ele>1855</ele>
        <time>2014-06-28T09:01:41.000Z</time>
      </trkpt>
      <trkpt lat="45.14865" lon="5.63819">
        <ele>1855</ele>
        <time>2014-06-28T09:01:42.000Z</time>
      </trkpt>
      <trkpt lat="45.14865" lon="5.63818">
        <ele>1854</ele>
        <time>2014-06-28T09:01:43.000Z</time>
      </trkpt>
      <trkpt lat="45.14865" lon="5.63817">
        <ele>1854</ele>
        <time>2014-06-28T09:01:44.000Z</time>
      </trkpt>
      <trkpt lat="45.14865" lon="5.63816">
        <ele>1854</ele>
        <time>2014-06-28T09:01:45.000Z</time>
      </trkpt>
      <trkpt lat="45.14865" lon="5.63815">
        <ele>1854</ele>
        <time>2014-06-28T09:01:46.000Z</time>
      </trkpt>
      <trkpt lat="45.14866" lon="5.63814">
        <ele>1853</ele>
        <time>2014-06-28T09:01:47.000Z</time>
      </trkpt>
      <trkpt lat="45.14866" lon="5.63813">
        <ele>1853</ele>
        <time>2014-06-28T09:01:48.000Z</time>
      </trkpt>
      <trkpt lat="45.14867" lon="5.63812">
        <ele>1853</ele>
        <time>2014-06-28T09:01:49.000Z</time>
      </trkpt>
      <trkpt lat="45.14867" lon="5.6381">
        <ele>1853</ele>
        <time>2014-06-28T09:01:50.000Z</time>
      </trkpt>
      <trkpt lat="45.14868" lon="5.63809">
        <ele>1853</ele>
        <time>2014-06-28T09:01:51.000Z</time>
      </trkpt>
      <trkpt lat="45.14869" lon="5.63808">
        <ele>1852</ele>
        <time>2014-06-28T09:01:52.000Z</time>
      </trkpt>
      <trkpt lat="45.14871" lon="5.63808">
        <ele>1852</ele>
        <time>2014-06-28T09:01:53.000Z</time>
      </trkpt>
      <trkpt lat="45.14871" lon="5.63807">
        <ele>1852</ele>
        <time>2014-06-28T09:01:54.000Z</time>
      </trkpt>
      <trkpt lat="45.14872" lon="5.63807">
        <ele>1851</ele>
        <time>2014-06-28T09:01:55.000Z</time>
      </trkpt>
      <trkpt lat="45.14873" lon="5.63806">
        <ele>1851</ele>
        <time>2014-06-28T09:01:56.000Z</time>
      </trkpt>
      <trkpt lat="45.14873" lon="5.63806">
        <ele>1851</ele>
        <time>2014-06-28T09:01:57.000Z</time>
      </trkpt>
      <trkpt lat="45.14873" lon="5.63806">
        <ele>1851</ele>
        <time>2014-06-28T09:01:58.000Z</time>
      </trkpt>
      <trkpt lat="45.14874" lon="5.63806">
        <ele>1850</ele>
        <time>2014-06-28T09:01:59.000Z</time>
      </trkpt>
      <trkpt lat="45.14874" lon="5.63805">
        <ele>1850</ele>
        <time>2014-06-28T09:02:00.000Z</time>
      </trkpt>
      <trkpt lat="45.14876" lon="5.63804">
        <ele>1850</ele>
        <time>2014-06-28T09:02:01.000Z</time>
      </trkpt>
      <trkpt lat="45.14877" lon="5.63803">
        <ele>1850</ele>
        <time>2014-06-28T09:02:02.000Z</time>
      </trkpt>
      <trkpt lat="45.14878" lon="5.63801">
        <ele>1850</ele>
        <time>2014-06-28T09:02:03.000Z</time>
      </trkpt>
      <trkpt lat="45.14879" lon="5.63799">
        <ele>1849</ele>
        <time>2014-06-28T09:02:04.000Z</time>
      </trkpt>
      <trkpt lat="45.14881" lon="5.63797">
        <ele>1849</ele>
        <time>2014-06-28T09:02:05.000Z</time>
      </trkpt>
      <trkpt lat="45.14881" lon="5.63796">
        <ele>1849</ele>
        <time>2014-06-28T09:02:06.000Z</time>
      </trkpt>
      <trkpt lat="45.14882" lon="5.63793">
        <ele>1849</ele>
        <time>2014-06-28T09:02:07.000Z</time>
      </trkpt>
      <trkpt lat="45.14882" lon="5.63791">
        <ele>1849</ele>
        <time>2014-06-28T09:02:08.000Z</time>
      </trkpt>
      <trkpt lat="45.14882" lon="5.63789">
        <ele>1848</ele>
        <time>2014-06-28T09:02:09.000Z</time>
      </trkpt>
      <trkpt lat="45.14882" lon="5.63787">
        <ele>1848</ele>
        <time>2014-06-28T09:02:10.000Z</time>
      </trkpt>
      <trkpt lat="45.14883" lon="5.63785">
        <ele>1848</ele>
        <time>2014-06-28T09:02:11.000Z</time>
      </trkpt>
      <trkpt lat="45.14883" lon="5.63783">
        <ele>1848</ele>
        <time>2014-06-28T09:02:12.000Z</time>
      </trkpt>
      <trkpt lat="45.14883" lon="5.63782">
        <ele>1848</ele>
        <time>2014-06-28T09:02:13.000Z</time>
      </trkpt>
      <trkpt lat="45.14883" lon="5.63781">
        <ele>1847</ele>
        <time>2014-06-28T09:02:14.000Z</time>
      </trkpt>
      <trkpt lat="45.14884" lon="5.6378">
        <ele>1847</ele>
        <time>2014-06-28T09:02:15.000Z</time>
      </trkpt>
      <trkpt lat="45.14885" lon="5.63778">
        <ele>1847</ele>
        <time>2014-06-28T09:02:16.000Z</time>
      </trkpt>
      <trkpt lat="45.14886" lon="5.63777">
        <ele>1846</ele>
        <time>2014-06-28T09:02:17.000Z</time>
      </trkpt>
      <trkpt lat="45.14888" lon="5.63776">
        <ele>1846</ele>
        <time>2014-06-28T09:02:18.000Z</time>
      </trkpt>
      <trkpt lat="45.1489" lon="5.63776">
        <ele>1846</ele>
        <time>2014-06-28T09:02:19.000Z</time>
      </trkpt>
      <trkpt lat="45.14892" lon="5.63775">
        <ele>1846</ele>
        <time>2014-06-28T09:02:20.000Z</time>
      </trkpt>
      <trkpt lat="45.14895" lon="5.63775">
        <ele>1846</ele>
        <time>2014-06-28T09:02:21.000Z</time>
      </trkpt>
      <trkpt lat="45.14897" lon="5.63775">
        <ele>1846</ele>
        <time>2014-06-28T09:02:22.000Z</time>
      </trkpt>
      <trkpt lat="45.149" lon="5.63774">
        <ele>1846</ele>
        <time>2014-06-28T09:02:23.000Z</time>
      </trkpt>
      <trkpt lat="45.14902" lon="5.63775">
        <ele>1846</ele>
        <time>2014-06-28T09:02:24.000Z</time>
      </trkpt>
      <trkpt lat="45.14904" lon="5.63775">
        <ele>1846</ele>
        <time>2014-06-28T09:02:25.000Z</time>
      </trkpt>
      <trkpt lat="45.14906" lon="5.63774">
        <ele>1846</ele>
        <time>2014-06-28T09:02:26.000Z</time>
      </trkpt>
      <trkpt lat="45.14909" lon="5.63774">
        <ele>1846</ele>
        <time>2014-06-28T09:02:27.000Z</time>
      </trkpt>
      <trkpt lat="45.1491" lon="5.63774">
        <ele>1846</ele>
        <time>2014-06-28T09:02:28.000Z</time>
      </trkpt>
      <trkpt lat="45.14912" lon="5.63775">
        <ele>1846</ele>
        <time>2014-06-28T09:02:29.000Z</time>
      </trkpt>
      <trkpt lat="45.14914" lon="5.63775">
        <ele>1846</ele>
        <time>2014-06-28T09:02:30.000Z</time>
      </trkpt>
      <trkpt lat="45.14915" lon="5.63775">
        <ele>1846</ele>
        <time>2014-06-28T09:02:31.000Z</time>
      </trkpt>
      <trkpt lat="45.14917" lon="5.63775">
        <ele>1846</ele>
        <time>2014-06-28T09:02:32.000Z</time>
      </trkpt>
      <trkpt lat="45.14919" lon="5.63774">
        <ele>1846</ele>
        <time>2014-06-28T09:02:33.000Z</time>
      </trkpt>
      <trkpt lat="45.1492" lon="5.63774">
        <ele>1847</ele>
        <time>2014-06-28T09:02:34.000Z</time>
      </trkpt>
      <trkpt lat="45.14922" lon="5.63773">
        <ele>1847</ele>
        <time>2014-06-28T09:02:35.000Z</time>
      </trkpt>
      <trkpt lat="45.14923" lon="5.63773">
        <ele>1847</ele>
        <time>2014-06-28T09:02:36.000Z</time>
      </trkpt>
      <trkpt lat="45.14925" lon="5.63772">
        <ele>1847</ele>
        <time>2014-06-28T09:02:37.000Z</time>
      </trkpt>
      <trkpt lat="45.14926" lon="5.63772">
        <ele>1847</ele>
        <time>2014-06-28T09:02:38.000Z</time>
      </trkpt>
      <trkpt lat="45.14928" lon="5.63771">
        <ele>1847</ele>
        <time>2014-06-28T09:02:39.000Z</time>
      </trkpt>
      <trkpt lat="45.14929" lon="5.6377">
        <ele>1848</ele>
        <time>2014-06-28T09:02:40.000Z</time>
      </trkpt>
      <trkpt lat="45.14931" lon="5.6377">
        <ele>1848</ele>
        <time>2014-06-28T09:02:41.000Z</time>
      </trkpt>
      <trkpt lat="45.14933" lon="5.63769">
        <ele>1848</ele>
        <time>2014-06-28T09:02:42.000Z</time>
      </trkpt>
      <trkpt lat="45.14935" lon="5.63768">
        <ele>1848</ele>
        <time>2014-06-28T09:02:43.000Z</time>
      </trkpt>
      <trkpt lat="45.14937" lon="5.63767">
        <ele>1848</ele>
        <time>2014-06-28T09:02:44.000Z</time>
      </trkpt>
      <trkpt lat="45.14939" lon="5.63767">
        <ele>1849</ele>
        <time>2014-06-28T09:02:45.000Z</time>
      </trkpt>
      <trkpt lat="45.14942" lon="5.63766">
        <ele>1849</ele>
        <time>2014-06-28T09:02:46.000Z</time>
      </trkpt>
      <trkpt lat="45.14944" lon="5.63765">
        <ele>1849</ele>
        <time>2014-06-28T09:02:47.000Z</time>
      </trkpt>
      <trkpt lat="45.14946" lon="5.63764">
        <ele>1849</ele>
        <time>2014-06-28T09:02:48.000Z</time>
      </trkpt>
      <trkpt lat="45.14948" lon="5.63763">
        <ele>1850</ele>
        <time>2014-06-28T09:02:49.000Z</time>
      </trkpt>
      <trkpt lat="45.1495" lon="5.63762">
        <ele>1850</ele>
        <time>2014-06-28T09:02:50.000Z</time>
      </trkpt>
      <trkpt lat="45.14952" lon="5.63761">
        <ele>1850</ele>
        <time>2014-06-28T09:02:51.000Z</time>
      </trkpt>
      <trkpt lat="45.14954" lon="5.63761">
        <ele>1850</ele>
        <time>2014-06-28T09:02:52.000Z</time>
      </trkpt>
      <trkpt lat="45.14956" lon="5.6376">
        <ele>1851</ele>
        <time>2014-06-28T09:02:53.000Z</time>
      </trkpt>
      <trkpt lat="45.14958" lon="5.6376">
        <ele>1851</ele>
        <time>2014-06-28T09:02:54.000Z</time>
      </trkpt>
      <trkpt lat="45.14961" lon="5.6376">
        <ele>1851</ele>
        <time>2014-06-28T09:02:55.000Z</time>
      </trkpt>
      <trkpt lat="45.14963" lon="5.6376">
        <ele>1851</ele>
        <time>2014-06-28T09:02:56.000Z</time>
      </trkpt>
      <trkpt lat="45.14966" lon="5.6376">
        <ele>1851</ele>
        <time>2014-06-28T09:02:57.000Z</time>
      </trkpt>
      <trkpt lat="45.14969" lon="5.63759">
        <ele>1851</ele>
        <time>2014-06-28T09:02:58.000Z</time>
      </trkpt>
      <trkpt lat="45.14972" lon="5.63758">
        <ele>1851</ele>
        <time>2014-06-28T09:02:59.000Z</time>
      </trkpt>
      <trkpt lat="45.14975" lon="5.63757">
        <ele>1851</ele>
        <time>2014-06-28T09:03:00.000Z</time>
      </trkpt>
      <trkpt lat="45.14978" lon="5.63756">
        <ele>1851</ele>
        <time>2014-06-28T09:03:01.000Z</time>
      </trkpt>
      <trkpt lat="45.1498" lon="5.63754">
        <ele>1851</ele>
        <time>2014-06-28T09:03:02.000Z</time>
      </trkpt>
      <trkpt lat="45.14983" lon="5.63753">
        <ele>1851</ele>
        <time>2014-06-28T09:03:03.000Z</time>
      </trkpt>
      <trkpt lat="45.14985" lon="5.63752">
        <ele>1851</ele>
        <time>2014-06-28T09:03:04.000Z</time>
      </trkpt>
      <trkpt lat="45.14987" lon="5.63752">
        <ele>1851</ele>
        <time>2014-06-28T09:03:05.000Z</time>
      </trkpt>
      <trkpt lat="45.14989" lon="5.63751">
        <ele>1851</ele>
        <time>2014-06-28T09:03:06.000Z</time>
      </trkpt>
      <trkpt lat="45.14992" lon="5.63751">
        <ele>1851</ele>
        <time>2014-06-28T09:03:07.000Z</time>
      </trkpt>
      <trkpt lat="45.14994" lon="5.6375">
        <ele>1851</ele>
        <time>2014-06-28T09:03:08.000Z</time>
      </trkpt>
      <trkpt lat="45.14997" lon="5.63749">
        <ele>1851</ele>
        <time>2014-06-28T09:03:09.000Z</time>
      </trkpt>
      <trkpt lat="45.15" lon="5.63749">
        <ele>1851</ele>
        <time>2014-06-28T09:03:10.000Z</time>
      </trkpt>
      <trkpt lat="45.15003" lon="5.63749">
        <ele>1851</ele>
        <time>2014-06-28T09:03:11.000Z</time>
      </trkpt>
      <trkpt lat="45.15005" lon="5.6375">
        <ele>1851</ele>
        <time>2014-06-28T09:03:12.000Z</time>
      </trkpt>
      <trkpt lat="45.15008" lon="5.63749">
        <ele>1851</ele>
        <time>2014-06-28T09:03:13.000Z</time>
      </trkpt>
      <trkpt lat="45.15011" lon="5.63748">
        <ele>1851</ele>
        <time>2014-06-28T09:03:14.000Z</time>
      </trkpt>
      <trkpt lat="45.15014" lon="5.63747">
        <ele>1851</ele>
        <time>2014-06-28T09:03:15.000Z</time>
      </trkpt>
      <trkpt lat="45.15017" lon="5.63746">
        <ele>1851</ele>
        <time>2014-06-28T09:03:16.000Z</time>
      </trkpt>
      <trkpt lat="45.15019" lon="5.63745">
        <ele>1851</ele>
        <time>2014-06-28T09:03:17.000Z</time>
      </trkpt>
      <trkpt lat="45.15021" lon="5.63743">
        <ele>1851</ele>
        <time>2014-06-28T09:03:18.000Z</time>
      </trkpt>
      <trkpt lat="45.15023" lon="5.63742">
        <ele>1851</ele>
        <time>2014-06-28T09:03:19.000Z</time>
      </trkpt>
      <trkpt lat="45.15024" lon="5.63741">
        <ele>1851</ele>
        <time>2014-06-28T09:03:20.000Z</time>
      </trkpt>
      <trkpt lat="45.15026" lon="5.63739">
        <ele>1851</ele>
        <time>2014-06-28T09:03:21.000Z</time>
      </trkpt>
      <trkpt lat="45.15028" lon="5.63737">
        <ele>1851</ele>
        <time>2014-06-28T09:03:22.000Z</time>
      </trkpt>
      <trkpt lat="45.1503" lon="5.63735">
        <ele>1851</ele>
        <time>2014-06-28T09:03:23.000Z</time>
      </trkpt>
      <trkpt lat="45.15032" lon="5.63733">
        <ele>1851</ele>
        <time>2014-06-28T09:03:24.000Z</time>
      </trkpt>
      <trkpt lat="45.15034" lon="5.63731">
        <ele>1851</ele>
        <time>2014-06-28T09:03:25.000Z</time>
      </trkpt>
      <trkpt lat="45.15036" lon="5.6373">
        <ele>1851</ele>
        <time>2014-06-28T09:03:26.000Z</time>
      </trkpt>
      <trkpt lat="45.15038" lon="5.63728">
        <ele>1851</ele>
        <time>2014-06-28T09:03:27.000Z</time>
      </trkpt>
      <trkpt lat="45.1504" lon="5.63726">
        <ele>1850</ele>
        <time>2014-06-28T09:03:28.000Z</time>
      </trkpt>
      <trkpt lat="45.15042" lon="5.63725">
        <ele>1850</ele>
        <time>2014-06-28T09:03:29.000Z</time>
      </trkpt>
      <trkpt lat="45.15045" lon="5.63723">
        <ele>1850</ele>
        <time>2014-06-28T09:03:30.000Z</time>
      </trkpt>
      <trkpt lat="45.15047" lon="5.63722">
        <ele>1850</ele>
        <time>2014-06-28T09:03:31.000Z</time>
      </trkpt>
      <trkpt lat="45.15049" lon="5.6372">
        <ele>1851</ele>
        <time>2014-06-28T09:03:32.000Z</time>
      </trkpt>
      <trkpt lat="45.15051" lon="5.63719">
        <ele>1851</ele>
        <time>2014-06-28T09:03:33.000Z</time>
      </trkpt>
      <trkpt lat="45.15053" lon="5.63718">
        <ele>1850</ele>
        <time>2014-06-28T09:03:34.000Z</time>
      </trkpt>
      <trkpt lat="45.15055" lon="5.63717">
        <ele>1850</ele>
        <time>2014-06-28T09:03:35.000Z</time>
      </trkpt>
      <trkpt lat="45.15058" lon="5.63716">
        <ele>1850</ele>
        <time>2014-06-28T09:03:36.000Z</time>
      </trkpt>
      <trkpt lat="45.1506" lon="5.63715">
        <ele>1850</ele>
        <time>2014-06-28T09:03:37.000Z</time>
      </trkpt>
      <trkpt lat="45.15062" lon="5.63714">
        <ele>1850</ele>
        <time>2014-06-28T09:03:38.000Z</time>
      </trkpt>
      <trkpt lat="45.15064" lon="5.63714">
        <ele>1850</ele>
        <time>2014-06-28T09:03:39.000Z</time>
      </trkpt>
      <trkpt lat="45.15065" lon="5.63713">
        <ele>1850</ele>
        <time>2014-06-28T09:03:40.000Z</time>
      </trkpt>
      <trkpt lat="45.15067" lon="5.63712">
        <ele>1850</ele>
        <time>2014-06-28T09:03:41.000Z</time>
      </trkpt>
      <trkpt lat="45.15068" lon="5.63711">
        <ele>1850</ele>
        <time>2014-06-28T09:03:42.000Z</time>
      </trkpt>
      <trkpt lat="45.15069" lon="5.6371">
        <ele>1850</ele>
        <time>2014-06-28T09:03:43.000Z</time>
      </trkpt>
      <trkpt lat="45.1507" lon="5.6371">
        <ele>1850</ele>
        <time>2014-06-28T09:03:44.000Z</time>
      </trkpt>
      <trkpt lat="45.15071" lon="5.6371">
        <ele>1850</ele>
        <time>2014-06-28T09:03:45.000Z</time>
      </trkpt>
      <trkpt lat="45.15072" lon="5.6371">
        <ele>1850</ele>
        <time>2014-06-28T09:03:46.000Z</time>
      </trkpt>
      <trkpt lat="45.15073" lon="5.63709">
        <ele>1850</ele>
        <time>2014-06-28T09:03:47.000Z</time>
      </trkpt>
      <trkpt lat="45.15075" lon="5.63708">
        <ele>1850</ele>
        <time>2014-06-28T09:03:48.000Z</time>
      </trkpt>
      <trkpt lat="45.15076" lon="5.63708">
        <ele>1850</ele>
        <time>2014-06-28T09:03:49.000Z</time>
      </trkpt>
      <trkpt lat="45.15077" lon="5.63708">
        <ele>1850</ele>
        <time>2014-06-28T09:03:50.000Z</time>
      </trkpt>
      <trkpt lat="45.15078" lon="5.63709">
        <ele>1851</ele>
        <time>2014-06-28T09:03:51.000Z</time>
      </trkpt>
      <trkpt lat="45.15079" lon="5.6371">
        <ele>1851</ele>
        <time>2014-06-28T09:03:52.000Z</time>
      </trkpt>
      <trkpt lat="45.15079" lon="5.63711">
        <ele>1851</ele>
        <time>2014-06-28T09:03:53.000Z</time>
      </trkpt>
      <trkpt lat="45.1508" lon="5.63711">
        <ele>1851</ele>
        <time>2014-06-28T09:03:54.000Z</time>
      </trkpt>
      <trkpt lat="45.1508" lon="5.63712">
        <ele>1851</ele>
        <time>2014-06-28T09:03:55.000Z</time>
      </trkpt>
      <trkpt lat="45.15081" lon="5.63713">
        <ele>1851</ele>
        <time>2014-06-28T09:03:56.000Z</time>
      </trkpt>
      <trkpt lat="45.15082" lon="5.63713">
        <ele>1851</ele>
        <time>2014-06-28T09:03:57.000Z</time>
      </trkpt>
      <trkpt lat="45.15083" lon="5.63713">
        <ele>1851</ele>
        <time>2014-06-28T09:03:58.000Z</time>
      </trkpt>
      <trkpt lat="45.15084" lon="5.63713">
        <ele>1851</ele>
        <time>2014-06-28T09:03:59.000Z</time>
      </trkpt>
      <trkpt lat="45.15084" lon="5.63713">
        <ele>1851</ele>
        <time>2014-06-28T09:04:00.000Z</time>
      </trkpt>
      <trkpt lat="45.15086" lon="5.63714">
        <ele>1850</ele>
        <time>2014-06-28T09:04:01.000Z</time>
      </trkpt>
      <trkpt lat="45.15087" lon="5.63715">
        <ele>1850</ele>
        <time>2014-06-28T09:04:02.000Z</time>
      </trkpt>
      <trkpt lat="45.15088" lon="5.63716">
        <ele>1850</ele>
        <time>2014-06-28T09:04:03.000Z</time>
      </trkpt>
      <trkpt lat="45.15089" lon="5.63717">
        <ele>1850</ele>
        <time>2014-06-28T09:04:04.000Z</time>
      </trkpt>
      <trkpt lat="45.1509" lon="5.63717">
        <ele>1850</ele>
        <time>2014-06-28T09:04:05.000Z</time>
      </trkpt>
      <trkpt lat="45.1509" lon="5.63718">
        <ele>1850</ele>
        <time>2014-06-28T09:04:06.000Z</time>
      </trkpt>
      <trkpt lat="45.1509" lon="5.63718">
        <ele>1850</ele>
        <time>2014-06-28T09:04:07.000Z</time>
      </trkpt>
      <trkpt lat="45.15091" lon="5.63719">
        <ele>1850</ele>
        <time>2014-06-28T09:04:08.000Z</time>
      </trkpt>
      <trkpt lat="45.15092" lon="5.6372">
        <ele>1850</ele>
        <time>2014-06-28T09:04:09.000Z</time>
      </trkpt>
      <trkpt lat="45.15092" lon="5.6372">
        <ele>1850</ele>
        <time>2014-06-28T09:04:10.000Z</time>
      </trkpt>
      <trkpt lat="45.15093" lon="5.6372">
        <ele>1849</ele>
        <time>2014-06-28T09:04:11.000Z</time>
      </trkpt>
      <trkpt lat="45.15093" lon="5.6372">
        <ele>1849</ele>
        <time>2014-06-28T09:04:12.000Z</time>
      </trkpt>
      <trkpt lat="45.15093" lon="5.63721">
        <ele>1849</ele>
        <time>2014-06-28T09:04:13.000Z</time>
      </trkpt>
      <trkpt lat="45.15093" lon="5.6372">
        <ele>1849</ele>
        <time>2014-06-28T09:04:14.000Z</time>
      </trkpt>
      <trkpt lat="45.15094" lon="5.63719">
        <ele>1849</ele>
        <time>2014-06-28T09:04:15.000Z</time>
      </trkpt>
      <trkpt lat="45.15094" lon="5.63719">
        <ele>1849</ele>
        <time>2014-06-28T09:04:16.000Z</time>
      </trkpt>
      <trkpt lat="45.15095" lon="5.63718">
        <ele>1849</ele>
        <time>2014-06-28T09:04:17.000Z</time>
      </trkpt>
      <trkpt lat="45.15096" lon="5.63717">
        <ele>1849</ele>
        <time>2014-06-28T09:04:18.000Z</time>
      </trkpt>
      <trkpt lat="45.15098" lon="5.63716">
        <ele>1849</ele>
        <time>2014-06-28T09:04:19.000Z</time>
      </trkpt>
      <trkpt lat="45.15099" lon="5.63717">
        <ele>1848</ele>
        <time>2014-06-28T09:04:20.000Z</time>
      </trkpt>
      <trkpt lat="45.151" lon="5.63717">
        <ele>1848</ele>
        <time>2014-06-28T09:04:21.000Z</time>
      </trkpt>
      <trkpt lat="45.15101" lon="5.63718">
        <ele>1848</ele>
        <time>2014-06-28T09:04:22.000Z</time>
      </trkpt>
      <trkpt lat="45.15103" lon="5.63719">
        <ele>1848</ele>
        <time>2014-06-28T09:04:23.000Z</time>
      </trkpt>
      <trkpt lat="45.15104" lon="5.63719">
        <ele>1848</ele>
        <time>2014-06-28T09:04:24.000Z</time>
      </trkpt>
      <trkpt lat="45.15105" lon="5.63719">
        <ele>1847</ele>
        <time>2014-06-28T09:04:25.000Z</time>
      </trkpt>
      <trkpt lat="45.15107" lon="5.63719">
        <ele>1847</ele>
        <time>2014-06-28T09:04:26.000Z</time>
      </trkpt>
      <trkpt lat="45.15108" lon="5.63719">
        <ele>1847</ele>
        <time>2014-06-28T09:04:27.000Z</time>
      </trkpt>
      <trkpt lat="45.1511" lon="5.63719">
        <ele>1846</ele>
        <time>2014-06-28T09:04:28.000Z</time>
      </trkpt>
      <trkpt lat="45.15111" lon="5.63719">
        <ele>1846</ele>
        <time>2014-06-28T09:04:29.000Z</time>
      </trkpt>
      <trkpt lat="45.15112" lon="5.63719">
        <ele>1846</ele>
        <time>2014-06-28T09:04:30.000Z</time>
      </trkpt>
      <trkpt lat="45.15113" lon="5.63719">
        <ele>1845</ele>
        <time>2014-06-28T09:04:31.000Z</time>
      </trkpt>
      <trkpt lat="45.15115" lon="5.63719">
        <ele>1845</ele>
        <time>2014-06-28T09:04:32.000Z</time>
      </trkpt>
      <trkpt lat="45.15116" lon="5.63718">
        <ele>1844</ele>
        <time>2014-06-28T09:04:33.000Z</time>
      </trkpt>
      <trkpt lat="45.15118" lon="5.63718">
        <ele>1844</ele>
        <time>2014-06-28T09:04:34.000Z</time>
      </trkpt>
      <trkpt lat="45.1512" lon="5.63716">
        <ele>1843</ele>
        <time>2014-06-28T09:04:35.000Z</time>
      </trkpt>
      <trkpt lat="45.15121" lon="5.63715">
        <ele>1843</ele>
        <time>2014-06-28T09:04:36.000Z</time>
      </trkpt>
      <trkpt lat="45.15122" lon="5.63714">
        <ele>1842</ele>
        <time>2014-06-28T09:04:37.000Z</time>
      </trkpt>
      <trkpt lat="45.15123" lon="5.63714">
        <ele>1842</ele>
        <time>2014-06-28T09:04:38.000Z</time>
      </trkpt>
      <trkpt lat="45.15125" lon="5.63714">
        <ele>1841</ele>
        <time>2014-06-28T09:04:39.000Z</time>
      </trkpt>
      <trkpt lat="45.15127" lon="5.63715">
        <ele>1840</ele>
        <time>2014-06-28T09:04:40.000Z</time>
      </trkpt>
      <trkpt lat="45.15129" lon="5.63715">
        <ele>1840</ele>
        <time>2014-06-28T09:04:41.000Z</time>
      </trkpt>
      <trkpt lat="45.15131" lon="5.63716">
        <ele>1840</ele>
        <time>2014-06-28T09:04:42.000Z</time>
      </trkpt>
      <trkpt lat="45.15132" lon="5.63716">
        <ele>1839</ele>
        <time>2014-06-28T09:04:43.000Z</time>
      </trkpt>
      <trkpt lat="45.15134" lon="5.63716">
        <ele>1839</ele>
        <time>2014-06-28T09:04:44.000Z</time>
      </trkpt>
      <trkpt lat="45.15136" lon="5.63716">
        <ele>1839</ele>
        <time>2014-06-28T09:04:45.000Z</time>
      </trkpt>
      <trkpt lat="45.15138" lon="5.63715">
        <ele>1838</ele>
        <time>2014-06-28T09:04:46.000Z</time>
      </trkpt>
      <trkpt lat="45.15139" lon="5.63715">
        <ele>1838</ele>
        <time>2014-06-28T09:04:47.000Z</time>
      </trkpt>
      <trkpt lat="45.15142" lon="5.63714">
        <ele>1838</ele>
        <time>2014-06-28T09:04:48.000Z</time>
      </trkpt>
      <trkpt lat="45.15144" lon="5.63712">
        <ele>1837</ele>
        <time>2014-06-28T09:04:49.000Z</time>
      </trkpt>
      <trkpt lat="45.15146" lon="5.63711">
        <ele>1837</ele>
        <time>2014-06-28T09:04:50.000Z</time>
      </trkpt>
      <trkpt lat="45.15148" lon="5.63709">
        <ele>1836</ele>
        <time>2014-06-28T09:04:51.000Z</time>
      </trkpt>
      <trkpt lat="45.1515" lon="5.63707">
        <ele>1835</ele>
        <time>2014-06-28T09:04:52.000Z</time>
      </trkpt>
      <trkpt lat="45.15151" lon="5.63706">
        <ele>1835</ele>
        <time>2014-06-28T09:04:53.000Z</time>
      </trkpt>
      <trkpt lat="45.15153" lon="5.63705">
        <ele>1834</ele>
        <time>2014-06-28T09:04:54.000Z</time>
      </trkpt>
      <trkpt lat="45.15154" lon="5.63704">
        <ele>1834</ele>
        <time>2014-06-28T09:04:55.000Z</time>
      </trkpt>
      <trkpt lat="45.15155" lon="5.63702">
        <ele>1833</ele>
        <time>2014-06-28T09:04:56.000Z</time>
      </trkpt>
      <trkpt lat="45.15156" lon="5.63701">
        <ele>1832</ele>
        <time>2014-06-28T09:04:57.000Z</time>
      </trkpt>
      <trkpt lat="45.15157" lon="5.63699">
        <ele>1832</ele>
        <time>2014-06-28T09:04:58.000Z</time>
      </trkpt>
      <trkpt lat="45.15158" lon="5.63697">
        <ele>1831</ele>
        <time>2014-06-28T09:04:59.000Z</time>
      </trkpt>
      <trkpt lat="45.1516" lon="5.63696">
        <ele>1831</ele>
        <time>2014-06-28T09:05:00.000Z</time>
      </trkpt>
      <trkpt lat="45.15161" lon="5.63695">
        <ele>1830</ele>
        <time>2014-06-28T09:05:01.000Z</time>
      </trkpt>
      <trkpt lat="45.15163" lon="5.63694">
        <ele>1830</ele>
        <time>2014-06-28T09:05:02.000Z</time>
      </trkpt>
      <trkpt lat="45.15164" lon="5.63694">
        <ele>1829</ele>
        <time>2014-06-28T09:05:03.000Z</time>
      </trkpt>
      <trkpt lat="45.15166" lon="5.63694">
        <ele>1828</ele>
        <time>2014-06-28T09:05:04.000Z</time>
      </trkpt>
      <trkpt lat="45.15168" lon="5.63693">
        <ele>1828</ele>
        <time>2014-06-28T09:05:05.000Z</time>
      </trkpt>
      <trkpt lat="45.1517" lon="5.63694">
        <ele>1827</ele>
        <time>2014-06-28T09:05:06.000Z</time>
      </trkpt>
      <trkpt lat="45.15172" lon="5.63694">
        <ele>1827</ele>
        <time>2014-06-28T09:05:07.000Z</time>
      </trkpt>
      <trkpt lat="45.15173" lon="5.63694">
        <ele>1826</ele>
        <time>2014-06-28T09:05:08.000Z</time>
      </trkpt>
      <trkpt lat="45.15173" lon="5.63693">
        <ele>1826</ele>
        <time>2014-06-28T09:05:09.000Z</time>
      </trkpt>
      <trkpt lat="45.15174" lon="5.63692">
        <ele>1825</ele>
        <time>2014-06-28T09:05:10.000Z</time>
      </trkpt>
      <trkpt lat="45.15175" lon="5.63691">
        <ele>1824</ele>
        <time>2014-06-28T09:05:11.000Z</time>
      </trkpt>
      <trkpt lat="45.15176" lon="5.6369">
        <ele>1824</ele>
        <time>2014-06-28T09:05:12.000Z</time>
      </trkpt>
      <trkpt lat="45.15177" lon="5.63689">
        <ele>1823</ele>
        <time>2014-06-28T09:05:13.000Z</time>
      </trkpt>
      <trkpt lat="45.15178" lon="5.63689">
        <ele>1823</ele>
        <time>2014-06-28T09:05:14.000Z</time>
      </trkpt>
      <trkpt lat="45.1518" lon="5.63689">
        <ele>1822</ele>
        <time>2014-06-28T09:05:15.000Z</time>
      </trkpt>
      <trkpt lat="45.1518" lon="5.63688">
        <ele>1822</ele>
        <time>2014-06-28T09:05:16.000Z</time>
      </trkpt>
      <trkpt lat="45.15181" lon="5.63688">
        <ele>1821</ele>
        <time>2014-06-28T09:05:17.000Z</time>
      </trkpt>
      <trkpt lat="45.15182" lon="5.63688">
        <ele>1821</ele>
        <time>2014-06-28T09:05:18.000Z</time>
      </trkpt>
      <trkpt lat="45.15183" lon="5.63687">
        <ele>1821</ele>
        <time>2014-06-28T09:05:19.000Z</time>
      </trkpt>
      <trkpt lat="45.15183" lon="5.63687">
        <ele>1820</ele>
        <time>2014-06-28T09:05:20.000Z</time>
      </trkpt>
      <trkpt lat="45.15184" lon="5.63686">
        <ele>1820</ele>
        <time>2014-06-28T09:05:21.000Z</time>
      </trkpt>
      <trkpt lat="45.15184" lon="5.63685">
        <ele>1819</ele>
        <time>2014-06-28T09:05:22.000Z</time>
      </trkpt>
      <trkpt lat="45.15184" lon="5.63684">
        <ele>1819</ele>
        <time>2014-06-28T09:05:23.000Z</time>
      </trkpt>
      <trkpt lat="45.15184" lon="5.63683">
        <ele>1819</ele>
        <time>2014-06-28T09:05:24.000Z</time>
      </trkpt>
      <trkpt lat="45.15184" lon="5.63682">
        <ele>1818</ele>
        <time>2014-06-28T09:05:25.000Z</time>
      </trkpt>
      <trkpt lat="45.15184" lon="5.63681">
        <ele>1818</ele>
        <time>2014-06-28T09:05:26.000Z</time>
      </trkpt>
      <trkpt lat="45.15183" lon="5.6368">
        <ele>1817</ele>
        <time>2014-06-28T09:05:27.000Z</time>
      </trkpt>
      <trkpt lat="45.15184" lon="5.63679">
        <ele>1817</ele>
        <time>2014-06-28T09:05:28.000Z</time>
      </trkpt>
      <trkpt lat="45.15184" lon="5.63678">
        <ele>1817</ele>
        <time>2014-06-28T09:05:29.000Z</time>
      </trkpt>
      <trkpt lat="45.15184" lon="5.63677">
        <ele>1816</ele>
        <time>2014-06-28T09:05:30.000Z</time>
      </trkpt>
      <trkpt lat="45.15185" lon="5.63676">
        <ele>1816</ele>
        <time>2014-06-28T09:05:31.000Z</time>
      </trkpt>
      <trkpt lat="45.15185" lon="5.63675">
        <ele>1815</ele>
        <time>2014-06-28T09:05:32.000Z</time>
      </trkpt>
      <trkpt lat="45.15185" lon="5.63674">
        <ele>1815</ele>
        <time>2014-06-28T09:05:33.000Z</time>
      </trkpt>
      <trkpt lat="45.15186" lon="5.63673">
        <ele>1815</ele>
        <time>2014-06-28T09:05:34.000Z</time>
      </trkpt>
      <trkpt lat="45.15186" lon="5.63673">
        <ele>1814</ele>
        <time>2014-06-28T09:05:35.000Z</time>
      </trkpt>
      <trkpt lat="45.15187" lon="5.63673">
        <ele>1814</ele>
        <time>2014-06-28T09:05:36.000Z</time>
      </trkpt>
      <trkpt lat="45.15187" lon="5.63673">
        <ele>1814</ele>
        <time>2014-06-28T09:05:37.000Z</time>
      </trkpt>
      <trkpt lat="45.15187" lon="5.63673">
        <ele>1814</ele>
        <time>2014-06-28T09:05:38.000Z</time>
      </trkpt>
      <trkpt lat="45.15188" lon="5.63673">
        <ele>1813</ele>
        <time>2014-06-28T09:05:39.000Z</time>
      </trkpt>
      <trkpt lat="45.15188" lon="5.63672">
        <ele>1813</ele>
        <time>2014-06-28T09:05:40.000Z</time>
      </trkpt>
      <trkpt lat="45.15188" lon="5.63672">
        <ele>1813</ele>
        <time>2014-06-28T09:05:41.000Z</time>
      </trkpt>
      <trkpt lat="45.15188" lon="5.63672">
        <ele>1812</ele>
        <time>2014-06-28T09:05:42.000Z</time>
      </trkpt>
      <trkpt lat="45.15188" lon="5.63672">
        <ele>1812</ele>
        <time>2014-06-28T09:05:43.000Z</time>
      </trkpt>
      <trkpt lat="45.15189" lon="5.63671">
        <ele>1812</ele>
        <time>2014-06-28T09:05:44.000Z</time>
      </trkpt>
      <trkpt lat="45.15189" lon="5.6367">
        <ele>1812</ele>
        <time>2014-06-28T09:05:45.000Z</time>
      </trkpt>
      <trkpt lat="45.15188" lon="5.6367">
        <ele>1811</ele>
        <time>2014-06-28T09:05:46.000Z</time>
      </trkpt>
      <trkpt lat="45.15188" lon="5.63669">
        <ele>1811</ele>
        <time>2014-06-28T09:05:47.000Z</time>
      </trkpt>
      <trkpt lat="45.15188" lon="5.63669">
        <ele>1811</ele>
        <time>2014-06-28T09:05:48.000Z</time>
      </trkpt>
      <trkpt lat="45.15188" lon="5.63668">
        <ele>1811</ele>
        <time>2014-06-28T09:05:49.000Z</time>
      </trkpt>
      <trkpt lat="45.15188" lon="5.63667">
        <ele>1810</ele>
        <time>2014-06-28T09:05:50.000Z</time>
      </trkpt>
      <trkpt lat="45.15188" lon="5.63666">
        <ele>1810</ele>
        <time>2014-06-28T09:05:51.000Z</time>
      </trkpt>
      <trkpt lat="45.15188" lon="5.63666">
        <ele>1810</ele>
        <time>2014-06-28T09:05:52.000Z</time>
      </trkpt>
      <trkpt lat="45.15188" lon="5.63666">
        <ele>1809</ele>
        <time>2014-06-28T09:05:53.000Z</time>
      </trkpt>
      <trkpt lat="45.15188" lon="5.63665">
        <ele>1809</ele>
        <time>2014-06-28T09:05:54.000Z</time>
      </trkpt>
      <trkpt lat="45.15188" lon="5.63665">
        <ele>1809</ele>
        <time>2014-06-28T09:05:55.000Z</time>
      </trkpt>
      <trkpt lat="45.15188" lon="5.63664">
        <ele>1809</ele>
        <time>2014-06-28T09:05:56.000Z</time>
      </trkpt>
      <trkpt lat="45.15188" lon="5.63664">
        <ele>1809</ele>
        <time>2014-06-28T09:05:57.000Z</time>
      </trkpt>
      <trkpt lat="45.15188" lon="5.63663">
        <ele>1809</ele>
        <time>2014-06-28T09:05:58.000Z</time>
      </trkpt>
      <trkpt lat="45.15188" lon="5.63662">
        <ele>1808</ele>
        <time>2014-06-28T09:05:59.000Z</time>
      </trkpt>
      <trkpt lat="45.15189" lon="5.63661">
        <ele>1808</ele>
        <time>2014-06-28T09:06:00.000Z</time>
      </trkpt>
      <trkpt lat="45.15189" lon="5.63661">
        <ele>1808</ele>
        <time>2014-06-28T09:06:01.000Z</time>
      </trkpt>
      <trkpt lat="45.15189" lon="5.6366">
        <ele>1808</ele>
        <time>2014-06-28T09:06:02.000Z</time>
      </trkpt>
      <trkpt lat="45.15189" lon="5.63659">
        <ele>1808</ele>
        <time>2014-06-28T09:06:03.000Z</time>
      </trkpt>
      <trkpt lat="45.15189" lon="5.63658">
        <ele>1807</ele>
        <time>2014-06-28T09:06:04.000Z</time>
      </trkpt>
      <trkpt lat="45.1519" lon="5.63658">
        <ele>1807</ele>
        <time>2014-06-28T09:06:05.000Z</time>
      </trkpt>
      <trkpt lat="45.15191" lon="5.63658">
        <ele>1807</ele>
        <time>2014-06-28T09:06:06.000Z</time>
      </trkpt>
      <trkpt lat="45.15191" lon="5.63658">
        <ele>1807</ele>
        <time>2014-06-28T09:06:07.000Z</time>
      </trkpt>
      <trkpt lat="45.15192" lon="5.63659">
        <ele>1807</ele>
        <time>2014-06-28T09:06:08.000Z</time>
      </trkpt>
      <trkpt lat="45.15192" lon="5.63658">
        <ele>1806</ele>
        <time>2014-06-28T09:06:09.000Z</time>
      </trkpt>
      <trkpt lat="45.15193" lon="5.63658">
        <ele>1806</ele>
        <time>2014-06-28T09:06:10.000Z</time>
      </trkpt>
      <trkpt lat="45.15193" lon="5.63658">
        <ele>1805</ele>
        <time>2014-06-28T09:06:11.000Z</time>
      </trkpt>
      <trkpt lat="45.15193" lon="5.63657">
        <ele>1805</ele>
        <time>2014-06-28T09:06:12.000Z</time>
      </trkpt>
      <trkpt lat="45.15194" lon="5.63656">
        <ele>1805</ele>
        <time>2014-06-28T09:06:13.000Z</time>
      </trkpt>
      <trkpt lat="45.15195" lon="5.63657">
        <ele>1804</ele>
        <time>2014-06-28T09:06:14.000Z</time>
      </trkpt>
      <trkpt lat="45.15195" lon="5.63657">
        <ele>1804</ele>
        <time>2014-06-28T09:06:15.000Z</time>
      </trkpt>
      <trkpt lat="45.15196" lon="5.63658">
        <ele>1803</ele>
        <time>2014-06-28T09:06:16.000Z</time>
      </trkpt>
      <trkpt lat="45.15196" lon="5.63658">
        <ele>1803</ele>
        <time>2014-06-28T09:06:17.000Z</time>
      </trkpt>
      <trkpt lat="45.15197" lon="5.63658">
        <ele>1803</ele>
        <time>2014-06-28T09:06:18.000Z</time>
      </trkpt>
      <trkpt lat="45.15197" lon="5.63658">
        <ele>1803</ele>
        <time>2014-06-28T09:06:19.000Z</time>
      </trkpt>
      <trkpt lat="45.15198" lon="5.63657">
        <ele>1803</ele>
        <time>2014-06-28T09:06:20.000Z</time>
      </trkpt>
      <trkpt lat="45.15199" lon="5.63657">
        <ele>1802</ele>
        <time>2014-06-28T09:06:21.000Z</time>
      </trkpt>
      <trkpt lat="45.15199" lon="5.63657">
        <ele>1802</ele>
        <time>2014-06-28T09:06:22.000Z</time>
      </trkpt>
      <trkpt lat="45.152" lon="5.63656">
        <ele>1802</ele>
        <time>2014-06-28T09:06:23.000Z</time>
      </trkpt>
      <trkpt lat="45.152" lon="5.63656">
        <ele>1801</ele>
        <time>2014-06-28T09:06:24.000Z</time>
      </trkpt>
      <trkpt lat="45.152" lon="5.63655">
        <ele>1801</ele>
        <time>2014-06-28T09:06:25.000Z</time>
      </trkpt>
      <trkpt lat="45.152" lon="5.63653">
        <ele>1801</ele>
        <time>2014-06-28T09:06:26.000Z</time>
      </trkpt>
      <trkpt lat="45.152" lon="5.63652">
        <ele>1800</ele>
        <time>2014-06-28T09:06:27.000Z</time>
      </trkpt>
      <trkpt lat="45.152" lon="5.63651">
        <ele>1800</ele>
        <time>2014-06-28T09:06:28.000Z</time>
      </trkpt>
      <trkpt lat="45.152" lon="5.6365">
        <ele>1799</ele>
        <time>2014-06-28T09:06:29.000Z</time>
      </trkpt>
      <trkpt lat="45.152" lon="5.6365">
        <ele>1799</ele>
        <time>2014-06-28T09:06:30.000Z</time>
      </trkpt>
      <trkpt lat="45.152" lon="5.6365">
        <ele>1799</ele>
        <time>2014-06-28T09:06:31.000Z</time>
      </trkpt>
      <trkpt lat="45.15201" lon="5.63649">
        <ele>1799</ele>
        <time>2014-06-28T09:06:32.000Z</time>
      </trkpt>
      <trkpt lat="45.15202" lon="5.63649">
        <ele>1798</ele>
        <time>2014-06-28T09:06:33.000Z</time>
      </trkpt>
      <trkpt lat="45.15202" lon="5.6365">
        <ele>1798</ele>
        <time>2014-06-28T09:06:34.000Z</time>
      </trkpt>
      <trkpt lat="45.15203" lon="5.6365">
        <ele>1798</ele>
        <time>2014-06-28T09:06:35.000Z</time>
      </trkpt>
      <trkpt lat="45.15203" lon="5.63649">
        <ele>1797</ele>
        <time>2014-06-28T09:06:36.000Z</time>
      </trkpt>
      <trkpt lat="45.15204" lon="5.63648">
        <ele>1797</ele>
        <time>2014-06-28T09:06:37.000Z</time>
      </trkpt>
      <trkpt lat="45.15205" lon="5.63648">
        <ele>1797</ele>
        <time>2014-06-28T09:06:38.000Z</time>
      </trkpt>
      <trkpt lat="45.15205" lon="5.63647">
        <ele>1796</ele>
        <time>2014-06-28T09:06:39.000Z</time>
      </trkpt>
      <trkpt lat="45.15204" lon="5.63645">
        <ele>1796</ele>
        <time>2014-06-28T09:06:40.000Z</time>
      </trkpt>
      <trkpt lat="45.15204" lon="5.63643">
        <ele>1795</ele>
        <time>2014-06-28T09:06:41.000Z</time>
      </trkpt>
      <trkpt lat="45.15205" lon="5.63642">
        <ele>1795</ele>
        <time>2014-06-28T09:06:42.000Z</time>
      </trkpt>
      <trkpt lat="45.15205" lon="5.6364">
        <ele>1795</ele>
        <time>2014-06-28T09:06:43.000Z</time>
      </trkpt>
      <trkpt lat="45.15206" lon="5.63639">
        <ele>1794</ele>
        <time>2014-06-28T09:06:44.000Z</time>
      </trkpt>
      <trkpt lat="45.15206" lon="5.63638">
        <ele>1793</ele>
        <time>2014-06-28T09:06:45.000Z</time>
      </trkpt>
      <trkpt lat="45.15207" lon="5.63637">
        <ele>1793</ele>
        <time>2014-06-28T09:06:46.000Z</time>
      </trkpt>
      <trkpt lat="45.15208" lon="5.63638">
        <ele>1792</ele>
        <time>2014-06-28T09:06:47.000Z</time>
      </trkpt>
      <trkpt lat="45.15209" lon="5.63639">
        <ele>1792</ele>
        <time>2014-06-28T09:06:48.000Z</time>
      </trkpt>
      <trkpt lat="45.15209" lon="5.63639">
        <ele>1791</ele>
        <time>2014-06-28T09:06:49.000Z</time>
      </trkpt>
      <trkpt lat="45.15209" lon="5.6364">
        <ele>1791</ele>
        <time>2014-06-28T09:06:50.000Z</time>
      </trkpt>
      <trkpt lat="45.15209" lon="5.6364">
        <ele>1791</ele>
        <time>2014-06-28T09:06:51.000Z</time>
      </trkpt>
      <trkpt lat="45.15209" lon="5.6364">
        <ele>1791</ele>
        <time>2014-06-28T09:06:52.000Z</time>
      </trkpt>
      <trkpt lat="45.15209" lon="5.6364">
        <ele>1790</ele>
        <time>2014-06-28T09:06:53.000Z</time>
      </trkpt>
      <trkpt lat="45.1521" lon="5.6364">
        <ele>1790</ele>
        <time>2014-06-28T09:06:54.000Z</time>
      </trkpt>
      <trkpt lat="45.1521" lon="5.6364">
        <ele>1790</ele>
        <time>2014-06-28T09:06:55.000Z</time>
      </trkpt>
      <trkpt lat="45.1521" lon="5.6364">
        <ele>1790</ele>
        <time>2014-06-28T09:06:56.000Z</time>
      </trkpt>
      <trkpt lat="45.1521" lon="5.6364">
        <ele>1790</ele>
        <time>2014-06-28T09:06:57.000Z</time>
      </trkpt>
      <trkpt lat="45.1521" lon="5.6364">
        <ele>1790</ele>
        <time>2014-06-28T09:06:58.000Z</time>
      </trkpt>
      <trkpt lat="45.1521" lon="5.6364">
        <ele>1789</ele>
        <time>2014-06-28T09:06:59.000Z</time>
      </trkpt>
      <trkpt lat="45.1521" lon="5.6364">
        <ele>1789</ele>
        <time>2014-06-28T09:07:00.000Z</time>
      </trkpt>
      <trkpt lat="45.1521" lon="5.6364">
        <ele>1789</ele>
        <time>2014-06-28T09:07:01.000Z</time>
      </trkpt>
      <trkpt lat="45.15209" lon="5.6364">
        <ele>1789</ele>
        <time>2014-06-28T09:07:02.000Z</time>
      </trkpt>
      <trkpt lat="45.15209" lon="5.6364">
        <ele>1789</ele>
        <time>2014-06-28T09:07:03.000Z</time>
      </trkpt>
      <trkpt lat="45.15209" lon="5.6364">
        <ele>1789</ele>
        <time>2014-06-28T09:07:04.000Z</time>
      </trkpt>
      <trkpt lat="45.1521" lon="5.6364">
        <ele>1789</ele>
        <time>2014-06-28T09:07:05.000Z</time>
      </trkpt>
      <trkpt lat="45.1521" lon="5.6364">
        <ele>1789</ele>
        <time>2014-06-28T09:07:06.000Z</time>
      </trkpt>
      <trkpt lat="45.1521" lon="5.63639">
        <ele>1788</ele>
        <time>2014-06-28T09:07:07.000Z</time>
      </trkpt>
      <trkpt lat="45.1521" lon="5.6364">
        <ele>1788</ele>
        <time>2014-06-28T09:07:08.000Z</time>
      </trkpt>
      <trkpt lat="45.1521" lon="5.6364">
        <ele>1788</ele>
        <time>2014-06-28T09:07:09.000Z</time>
      </trkpt>
      <trkpt lat="45.1521" lon="5.6364">
        <ele>1788</ele>
        <time>2014-06-28T09:07:10.000Z</time>
      </trkpt>
      <trkpt lat="45.1521" lon="5.6364">
        <ele>1788</ele>
        <time>2014-06-28T09:07:11.000Z</time>
      </trkpt>
      <trkpt lat="45.1521" lon="5.6364">
        <ele>1788</ele>
        <time>2014-06-28T09:07:12.000Z</time>
      </trkpt>
      <trkpt lat="45.1521" lon="5.6364">
        <ele>1788</ele>
        <time>2014-06-28T09:07:13.000Z</time>
      </trkpt>
      <trkpt lat="45.1521" lon="5.6364">
        <ele>1788</ele>
        <time>2014-06-28T09:07:14.000Z</time>
      </trkpt>
      <trkpt lat="45.1521" lon="5.6364">
        <ele>1788</ele>
        <time>2014-06-28T09:07:15.000Z</time>
      </trkpt>
      <trkpt lat="45.1521" lon="5.6364">
        <ele>1788</ele>
        <time>2014-06-28T09:07:16.000Z</time>
      </trkpt>
      <trkpt lat="45.1521" lon="5.6364">
        <ele>1788</ele>
        <time>2014-06-28T09:07:17.000Z</time>
      </trkpt>
      <trkpt lat="45.1521" lon="5.6364">
        <ele>1788</ele>
        <time>2014-06-28T09:07:18.000Z</time>
      </trkpt>
      <trkpt lat="45.1521" lon="5.6364">
        <ele>1787</ele>
        <time>2014-06-28T09:07:19.000Z</time>
      </trkpt>
      <trkpt lat="45.1521" lon="5.6364">
        <ele>1787</ele>
        <time>2014-06-28T09:07:20.000Z</time>
      </trkpt>
      <trkpt lat="45.1521" lon="5.6364">
        <ele>1787</ele>
        <time>2014-06-28T09:07:21.000Z</time>
      </trkpt>
      <trkpt lat="45.1521" lon="5.63641">
        <ele>1787</ele>
        <time>2014-06-28T09:07:22.000Z</time>
      </trkpt>
      <trkpt lat="45.1521" lon="5.63641">
        <ele>1787</ele>
        <time>2014-06-28T09:07:23.000Z</time>
      </trkpt>
      <trkpt lat="45.1521" lon="5.63641">
        <ele>1787</ele>
        <time>2014-06-28T09:07:24.000Z</time>
      </trkpt>
      <trkpt lat="45.1521" lon="5.63641">
        <ele>1787</ele>
        <time>2014-06-28T09:07:25.000Z</time>
      </trkpt>
      <trkpt lat="45.1521" lon="5.63641">
        <ele>1787</ele>
        <time>2014-06-28T09:07:26.000Z</time>
      </trkpt>
      <trkpt lat="45.1521" lon="5.63641">
        <ele>1787</ele>
        <time>2014-06-28T09:07:27.000Z</time>
      </trkpt>
      <trkpt lat="45.1521" lon="5.63641">
        <ele>1787</ele>
        <time>2014-06-28T09:07:28.000Z</time>
      </trkpt>
      <trkpt lat="45.1521" lon="5.63641">
        <ele>1787</ele>
        <time>2014-06-28T09:07:29.000Z</time>
      </trkpt>
      <trkpt lat="45.1521" lon="5.63641">
        <ele>1787</ele>
        <time>2014-06-28T09:07:30.000Z</time>
      </trkpt>
      <trkpt lat="45.1521" lon="5.63641">
        <ele>1787</ele>
        <time>2014-06-28T09:07:31.000Z</time>
      </trkpt>
      <trkpt lat="45.1521" lon="5.63641">
        <ele>1787</ele>
        <time>2014-06-28T09:07:32.000Z</time>
      </trkpt>
      <trkpt lat="45.1521" lon="5.63641">
        <ele>1787</ele>
        <time>2014-06-28T09:07:33.000Z</time>
      </trkpt>
      <trkpt lat="45.1521" lon="5.63641">
        <ele>1787</ele>
        <time>2014-06-28T09:07:34.000Z</time>
      </trkpt>
      <trkpt lat="45.1521" lon="5.63641">
        <ele>1787</ele>
        <time>2014-06-28T09:07:35.000Z</time>
      </trkpt>
      <trkpt lat="45.1521" lon="5.63641">
        <ele>1787</ele>
        <time>2014-06-28T09:07:36.000Z</time>
      </trkpt>
      <trkpt lat="45.1521" lon="5.63641">
        <ele>1787</ele>
        <time>2014-06-28T09:07:37.000Z</time>
      </trkpt>
      <trkpt lat="45.1521" lon="5.63641">
        <ele>1787</ele>
        <time>2014-06-28T09:07:38.000Z</time>
      </trkpt>
      <trkpt lat="45.1521" lon="5.63641">
        <ele>1787</ele>
        <time>2014-06-28T09:07:39.000Z</time>
      </trkpt>
      <trkpt lat="45.15209" lon="5.6364">
        <ele>1787</ele>
        <time>2014-06-28T09:07:40.000Z</time>
      </trkpt>
      <trkpt lat="45.15209" lon="5.6364">
        <ele>1787</ele>
        <time>2014-06-28T09:07:41.000Z</time>
      </trkpt>
      <trkpt lat="45.15208" lon="5.63639">
        <ele>1787</ele>
        <time>2014-06-28T09:07:42.000Z</time>
      </trkpt>
      <trkpt lat="45.15208" lon="5.63639">
        <ele>1787</ele>
        <time>2014-06-28T09:07:43.000Z</time>
      </trkpt>
      <trkpt lat="45.15208" lon="5.63639">
        <ele>1787</ele>
        <time>2014-06-28T09:07:44.000Z</time>
      </trkpt>
      <trkpt lat="45.15208" lon="5.63639">
        <ele>1787</ele>
        <time>2014-06-28T09:07:45.000Z</time>
      </trkpt>
      <trkpt lat="45.15208" lon="5.63639">
        <ele>1787</ele>
        <time>2014-06-28T09:07:46.000Z</time>
      </trkpt>
      <trkpt lat="45.15208" lon="5.63639">
        <ele>1786</ele>
        <time>2014-06-28T09:07:47.000Z</time>
      </trkpt>
      <trkpt lat="45.15208" lon="5.63639">
        <ele>1786</ele>
        <time>2014-06-28T09:07:48.000Z</time>
      </trkpt>
      <trkpt lat="45.15208" lon="5.63639">
        <ele>1786</ele>
        <time>2014-06-28T09:07:49.000Z</time>
      </trkpt>
      <trkpt lat="45.15208" lon="5.63639">
        <ele>1786</ele>
        <time>2014-06-28T09:07:50.000Z</time>
      </trkpt>
      <trkpt lat="45.15208" lon="5.63639">
        <ele>1786</ele>
        <time>2014-06-28T09:07:51.000Z</time>
      </trkpt>
      <trkpt lat="45.15209" lon="5.63638">
        <ele>1786</ele>
        <time>2014-06-28T09:07:52.000Z</time>
      </trkpt>
      <trkpt lat="45.15209" lon="5.63638">
        <ele>1786</ele>
        <time>2014-06-28T09:07:53.000Z</time>
      </trkpt>
      <trkpt lat="45.15209" lon="5.63638">
        <ele>1786</ele>
        <time>2014-06-28T09:07:54.000Z</time>
      </trkpt>
      <trkpt lat="45.1521" lon="5.63638">
        <ele>1786</ele>
        <time>2014-06-28T09:07:55.000Z</time>
      </trkpt>
      <trkpt lat="45.15211" lon="5.63639">
        <ele>1786</ele>
        <time>2014-06-28T09:07:56.000Z</time>
      </trkpt>
      <trkpt lat="45.15211" lon="5.63639">
        <ele>1786</ele>
        <time>2014-06-28T09:07:57.000Z</time>
      </trkpt>
      <trkpt lat="45.15212" lon="5.63638">
        <ele>1786</ele>
        <time>2014-06-28T09:07:58.000Z</time>
      </trkpt>
      <trkpt lat="45.15212" lon="5.63638">
        <ele>1785</ele>
        <time>2014-06-28T09:07:59.000Z</time>
      </trkpt>
      <trkpt lat="45.15212" lon="5.63637">
        <ele>1785</ele>
        <time>2014-06-28T09:08:00.000Z</time>
      </trkpt>
      <trkpt lat="45.15213" lon="5.63636">
        <ele>1785</ele>
        <time>2014-06-28T09:08:01.000Z</time>
      </trkpt>
      <trkpt lat="45.15214" lon="5.63636">
        <ele>1784</ele>
        <time>2014-06-28T09:08:02.000Z</time>
      </trkpt>
      <trkpt lat="45.15216" lon="5.63635">
        <ele>1784</ele>
        <time>2014-06-28T09:08:03.000Z</time>
      </trkpt>
      <trkpt lat="45.15217" lon="5.63634">
        <ele>1784</ele>
        <time>2014-06-28T09:08:04.000Z</time>
      </trkpt>
      <trkpt lat="45.15218" lon="5.63634">
        <ele>1784</ele>
        <time>2014-06-28T09:08:05.000Z</time>
      </trkpt>
      <trkpt lat="45.15219" lon="5.63634">
        <ele>1783</ele>
        <time>2014-06-28T09:08:06.000Z</time>
      </trkpt>
      <trkpt lat="45.1522" lon="5.63634">
        <ele>1783</ele>
        <time>2014-06-28T09:08:07.000Z</time>
      </trkpt>
      <trkpt lat="45.15221" lon="5.63634">
        <ele>1783</ele>
        <time>2014-06-28T09:08:08.000Z</time>
      </trkpt>
      <trkpt lat="45.15221" lon="5.63634">
        <ele>1783</ele>
        <time>2014-06-28T09:08:09.000Z</time>
      </trkpt>
      <trkpt lat="45.15221" lon="5.63634">
        <ele>1782</ele>
        <time>2014-06-28T09:08:10.000Z</time>
      </trkpt>
      <trkpt lat="45.15221" lon="5.63634">
        <ele>1782</ele>
        <time>2014-06-28T09:08:11.000Z</time>
      </trkpt>
      <trkpt lat="45.15221" lon="5.63634">
        <ele>1782</ele>
        <time>2014-06-28T09:08:12.000Z</time>
      </trkpt>
      <trkpt lat="45.15221" lon="5.63634">
        <ele>1782</ele>
        <time>2014-06-28T09:08:13.000Z</time>
      </trkpt>
      <trkpt lat="45.15221" lon="5.63633">
        <ele>1782</ele>
        <time>2014-06-28T09:08:14.000Z</time>
      </trkpt>
      <trkpt lat="45.15221" lon="5.63633">
        <ele>1782</ele>
        <time>2014-06-28T09:08:15.000Z</time>
      </trkpt>
      <trkpt lat="45.15222" lon="5.63633">
        <ele>1782</ele>
        <time>2014-06-28T09:08:16.000Z</time>
      </trkpt>
      <trkpt lat="45.15222" lon="5.63634">
        <ele>1782</ele>
        <time>2014-06-28T09:08:17.000Z</time>
      </trkpt>
      <trkpt lat="45.15223" lon="5.63633">
        <ele>1782</ele>
        <time>2014-06-28T09:08:18.000Z</time>
      </trkpt>
      <trkpt lat="45.15224" lon="5.63633">
        <ele>1782</ele>
        <time>2014-06-28T09:08:19.000Z</time>
      </trkpt>
      <trkpt lat="45.15224" lon="5.63632">
        <ele>1782</ele>
        <time>2014-06-28T09:08:20.000Z</time>
      </trkpt>
      <trkpt lat="45.15224" lon="5.6363">
        <ele>1782</ele>
        <time>2014-06-28T09:08:21.000Z</time>
      </trkpt>
      <trkpt lat="45.15225" lon="5.63629">
        <ele>1781</ele>
        <time>2014-06-28T09:08:22.000Z</time>
      </trkpt>
      <trkpt lat="45.15225" lon="5.63628">
        <ele>1781</ele>
        <time>2014-06-28T09:08:23.000Z</time>
      </trkpt>
      <trkpt lat="45.15225" lon="5.63627">
        <ele>1781</ele>
        <time>2014-06-28T09:08:24.000Z</time>
      </trkpt>
      <trkpt lat="45.15226" lon="5.63626">
        <ele>1780</ele>
        <time>2014-06-28T09:08:25.000Z</time>
      </trkpt>
      <trkpt lat="45.15226" lon="5.63625">
        <ele>1780</ele>
        <time>2014-06-28T09:08:26.000Z</time>
      </trkpt>
      <trkpt lat="45.15226" lon="5.63625">
        <ele>1780</ele>
        <time>2014-06-28T09:08:27.000Z</time>
      </trkpt>
      <trkpt lat="45.15227" lon="5.63624">
        <ele>1780</ele>
        <time>2014-06-28T09:08:28.000Z</time>
      </trkpt>
      <trkpt lat="45.15227" lon="5.63624">
        <ele>1780</ele>
        <time>2014-06-28T09:08:29.000Z</time>
      </trkpt>
      <trkpt lat="45.15227" lon="5.63624">
        <ele>1779</ele>
        <time>2014-06-28T09:08:30.000Z</time>
      </trkpt>
      <trkpt lat="45.15226" lon="5.63624">
        <ele>1779</ele>
        <time>2014-06-28T09:08:31.000Z</time>
      </trkpt>
      <trkpt lat="45.15226" lon="5.63625">
        <ele>1779</ele>
        <time>2014-06-28T09:08:32.000Z</time>
      </trkpt>
      <trkpt lat="45.15226" lon="5.63624">
        <ele>1779</ele>
        <time>2014-06-28T09:08:33.000Z</time>
      </trkpt>
      <trkpt lat="45.15226" lon="5.63624">
        <ele>1779</ele>
        <time>2014-06-28T09:08:34.000Z</time>
      </trkpt>
      <trkpt lat="45.15226" lon="5.63624">
        <ele>1779</ele>
        <time>2014-06-28T09:08:35.000Z</time>
      </trkpt>
      <trkpt lat="45.15225" lon="5.63624">
        <ele>1779</ele>
        <time>2014-06-28T09:08:36.000Z</time>
      </trkpt>
      <trkpt lat="45.15225" lon="5.63623">
        <ele>1779</ele>
        <time>2014-06-28T09:08:37.000Z</time>
      </trkpt>
      <trkpt lat="45.15225" lon="5.63622">
        <ele>1779</ele>
        <time>2014-06-28T09:08:38.000Z</time>
      </trkpt>
      <trkpt lat="45.15225" lon="5.63622">
        <ele>1778</ele>
        <time>2014-06-28T09:08:39.000Z</time>
      </trkpt>
      <trkpt lat="45.15225" lon="5.63621">
        <ele>1778</ele>
        <time>2014-06-28T09:08:40.000Z</time>
      </trkpt>
      <trkpt lat="45.15226" lon="5.63621">
        <ele>1778</ele>
        <time>2014-06-28T09:08:41.000Z</time>
      </trkpt>
      <trkpt lat="45.15225" lon="5.63621">
        <ele>1778</ele>
        <time>2014-06-28T09:08:42.000Z</time>
      </trkpt>
      <trkpt lat="45.15225" lon="5.63621">
        <ele>1778</ele>
        <time>2014-06-28T09:08:43.000Z</time>
      </trkpt>
      <trkpt lat="45.15225" lon="5.63621">
        <ele>1778</ele>
        <time>2014-06-28T09:08:44.000Z</time>
      </trkpt>
      <trkpt lat="45.15225" lon="5.63621">
        <ele>1778</ele>
        <time>2014-06-28T09:08:45.000Z</time>
      </trkpt>
      <trkpt lat="45.15225" lon="5.63621">
        <ele>1778</ele>
        <time>2014-06-28T09:08:46.000Z</time>
      </trkpt>
      <trkpt lat="45.15226" lon="5.6362">
        <ele>1778</ele>
        <time>2014-06-28T09:08:47.000Z</time>
      </trkpt>
      <trkpt lat="45.15226" lon="5.6362">
        <ele>1777</ele>
        <time>2014-06-28T09:08:48.000Z</time>
      </trkpt>
      <trkpt lat="45.15226" lon="5.6362">
        <ele>1777</ele>
        <time>2014-06-28T09:08:49.000Z</time>
      </trkpt>
      <trkpt lat="45.15226" lon="5.6362">
        <ele>1777</ele>
        <time>2014-06-28T09:08:50.000Z</time>
      </trkpt>
      <trkpt lat="45.15226" lon="5.6362">
        <ele>1777</ele>
        <time>2014-06-28T09:08:51.000Z</time>
      </trkpt>
      <trkpt lat="45.15226" lon="5.6362">
        <ele>1777</ele>
        <time>2014-06-28T09:08:52.000Z</time>
      </trkpt>
      <trkpt lat="45.15226" lon="5.6362">
        <ele>1777</ele>
        <time>2014-06-28T09:08:53.000Z</time>
      </trkpt>
      <trkpt lat="45.15227" lon="5.6362">
        <ele>1777</ele>
        <time>2014-06-28T09:08:54.000Z</time>
      </trkpt>
      <trkpt lat="45.15227" lon="5.6362">
        <ele>1777</ele>
        <time>2014-06-28T09:08:55.000Z</time>
      </trkpt>
      <trkpt lat="45.15227" lon="5.6362">
        <ele>1777</ele>
        <time>2014-06-28T09:08:56.000Z</time>
      </trkpt>
      <trkpt lat="45.15227" lon="5.63621">
        <ele>1776</ele>
        <time>2014-06-28T09:08:57.000Z</time>
      </trkpt>
      <trkpt lat="45.15227" lon="5.63621">
        <ele>1776</ele>
        <time>2014-06-28T09:08:58.000Z</time>
      </trkpt>
      <trkpt lat="45.15228" lon="5.63621">
        <ele>1776</ele>
        <time>2014-06-28T09:08:59.000Z</time>
      </trkpt>
      <trkpt lat="45.15229" lon="5.63621">
        <ele>1776</ele>
        <time>2014-06-28T09:09:00.000Z</time>
      </trkpt>
      <trkpt lat="45.15229" lon="5.63621">
        <ele>1776</ele>
        <time>2014-06-28T09:09:01.000Z</time>
      </trkpt>
      <trkpt lat="45.1523" lon="5.63621">
        <ele>1775</ele>
        <time>2014-06-28T09:09:02.000Z</time>
      </trkpt>
      <trkpt lat="45.1523" lon="5.6362">
        <ele>1775</ele>
        <time>2014-06-28T09:09:03.000Z</time>
      </trkpt>
      <trkpt lat="45.15231" lon="5.63619">
        <ele>1775</ele>
        <time>2014-06-28T09:09:04.000Z</time>
      </trkpt>
      <trkpt lat="45.15231" lon="5.63618">
        <ele>1774</ele>
        <time>2014-06-28T09:09:05.000Z</time>
      </trkpt>
      <trkpt lat="45.15232" lon="5.63618">
        <ele>1774</ele>
        <time>2014-06-28T09:09:06.000Z</time>
      </trkpt>
      <trkpt lat="45.15232" lon="5.63618">
        <ele>1774</ele>
        <time>2014-06-28T09:09:07.000Z</time>
      </trkpt>
      <trkpt lat="45.15233" lon="5.63618">
        <ele>1773</ele>
        <time>2014-06-28T09:09:08.000Z</time>
      </trkpt>
      <trkpt lat="45.15233" lon="5.63618">
        <ele>1773</ele>
        <time>2014-06-28T09:09:09.000Z</time>
      </trkpt>
      <trkpt lat="45.15234" lon="5.63618">
        <ele>1773</ele>
        <time>2014-06-28T09:09:10.000Z</time>
      </trkpt>
      <trkpt lat="45.15235" lon="5.63619">
        <ele>1773</ele>
        <time>2014-06-28T09:09:11.000Z</time>
      </trkpt>
      <trkpt lat="45.15236" lon="5.63619">
        <ele>1772</ele>
        <time>2014-06-28T09:09:12.000Z</time>
      </trkpt>
      <trkpt lat="45.15236" lon="5.6362">
        <ele>1772</ele>
        <time>2014-06-28T09:09:13.000Z</time>
      </trkpt>
      <trkpt lat="45.15237" lon="5.63622">
        <ele>1772</ele>
        <time>2014-06-28T09:09:14.000Z</time>
      </trkpt>
      <trkpt lat="45.15237" lon="5.63623">
        <ele>1772</ele>
        <time>2014-06-28T09:09:15.000Z</time>
      </trkpt>
      <trkpt lat="45.15238" lon="5.63623">
        <ele>1771</ele>
        <time>2014-06-28T09:09:16.000Z</time>
      </trkpt>
      <trkpt lat="45.15238" lon="5.63622">
        <ele>1771</ele>
        <time>2014-06-28T09:09:17.000Z</time>
      </trkpt>
      <trkpt lat="45.15239" lon="5.63622">
        <ele>1771</ele>
        <time>2014-06-28T09:09:18.000Z</time>
      </trkpt>
      <trkpt lat="45.15239" lon="5.63622">
        <ele>1770</ele>
        <time>2014-06-28T09:09:19.000Z</time>
      </trkpt>
      <trkpt lat="45.1524" lon="5.63622">
        <ele>1770</ele>
        <time>2014-06-28T09:09:20.000Z</time>
      </trkpt>
      <trkpt lat="45.1524" lon="5.63622">
        <ele>1770</ele>
        <time>2014-06-28T09:09:21.000Z</time>
      </trkpt>
      <trkpt lat="45.15241" lon="5.63621">
        <ele>1769</ele>
        <time>2014-06-28T09:09:22.000Z</time>
      </trkpt>
      <trkpt lat="45.15242" lon="5.63621">
        <ele>1769</ele>
        <time>2014-06-28T09:09:23.000Z</time>
      </trkpt>
      <trkpt lat="45.15242" lon="5.63622">
        <ele>1769</ele>
        <time>2014-06-28T09:09:24.000Z</time>
      </trkpt>
      <trkpt lat="45.15243" lon="5.63622">
        <ele>1768</ele>
        <time>2014-06-28T09:09:25.000Z</time>
      </trkpt>
      <trkpt lat="45.15243" lon="5.63622">
        <ele>1768</ele>
        <time>2014-06-28T09:09:26.000Z</time>
      </trkpt>
      <trkpt lat="45.15244" lon="5.63622">
        <ele>1768</ele>
        <time>2014-06-28T09:09:27.000Z</time>
      </trkpt>
      <trkpt lat="45.15245" lon="5.63621">
        <ele>1767</ele>
        <time>2014-06-28T09:09:28.000Z</time>
      </trkpt>
      <trkpt lat="45.15245" lon="5.63621">
        <ele>1767</ele>
        <time>2014-06-28T09:09:29.000Z</time>
      </trkpt>
      <trkpt lat="45.15246" lon="5.63621">
        <ele>1767</ele>
        <time>2014-06-28T09:09:30.000Z</time>
      </trkpt>
      <trkpt lat="45.15247" lon="5.63621">
        <ele>1766</ele>
        <time>2014-06-28T09:09:31.000Z</time>
      </trkpt>
      <trkpt lat="45.15247" lon="5.63621">
        <ele>1766</ele>
        <time>2014-06-28T09:09:32.000Z</time>
      </trkpt>
      <trkpt lat="45.15247" lon="5.63621">
        <ele>1766</ele>
        <time>2014-06-28T09:09:33.000Z</time>
      </trkpt>
      <trkpt lat="45.15248" lon="5.63621">
        <ele>1765</ele>
        <time>2014-06-28T09:09:34.000Z</time>
      </trkpt>
      <trkpt lat="45.15248" lon="5.63621">
        <ele>1765</ele>
        <time>2014-06-28T09:09:35.000Z</time>
      </trkpt>
      <trkpt lat="45.15248" lon="5.63621">
        <ele>1765</ele>
        <time>2014-06-28T09:09:36.000Z</time>
      </trkpt>
      <trkpt lat="45.15249" lon="5.63622">
        <ele>1764</ele>
        <time>2014-06-28T09:09:37.000Z</time>
      </trkpt>
      <trkpt lat="45.15249" lon="5.63622">
        <ele>1764</ele>
        <time>2014-06-28T09:09:38.000Z</time>
      </trkpt>
      <trkpt lat="45.15249" lon="5.63623">
        <ele>1764</ele>
        <time>2014-06-28T09:09:39.000Z</time>
      </trkpt>
      <trkpt lat="45.1525" lon="5.63623">
        <ele>1764</ele>
        <time>2014-06-28T09:09:40.000Z</time>
      </trkpt>
      <trkpt lat="45.15251" lon="5.63623">
        <ele>1763</ele>
        <time>2014-06-28T09:09:41.000Z</time>
      </trkpt>
      <trkpt lat="45.15251" lon="5.63624">
        <ele>1763</ele>
        <time>2014-06-28T09:09:42.000Z</time>
      </trkpt>
      <trkpt lat="45.15252" lon="5.63624">
        <ele>1763</ele>
        <time>2014-06-28T09:09:43.000Z</time>
      </trkpt>
      <trkpt lat="45.15252" lon="5.63625">
        <ele>1763</ele>
        <time>2014-06-28T09:09:44.000Z</time>
      </trkpt>
      <trkpt lat="45.15253" lon="5.63625">
        <ele>1762</ele>
        <time>2014-06-28T09:09:45.000Z</time>
      </trkpt>
      <trkpt lat="45.15254" lon="5.63625">
        <ele>1762</ele>
        <time>2014-06-28T09:09:46.000Z</time>
      </trkpt>
      <trkpt lat="45.15254" lon="5.63625">
        <ele>1762</ele>
        <time>2014-06-28T09:09:47.000Z</time>
      </trkpt>
      <trkpt lat="45.15254" lon="5.63624">
        <ele>1762</ele>
        <time>2014-06-28T09:09:48.000Z</time>
      </trkpt>
      <trkpt lat="45.15255" lon="5.63624">
        <ele>1761</ele>
        <time>2014-06-28T09:09:49.000Z</time>
      </trkpt>
      <trkpt lat="45.15255" lon="5.63623">
        <ele>1761</ele>
        <time>2014-06-28T09:09:50.000Z</time>
      </trkpt>
      <trkpt lat="45.15256" lon="5.63623">
        <ele>1761</ele>
        <time>2014-06-28T09:09:51.000Z</time>
      </trkpt>
      <trkpt lat="45.15257" lon="5.63622">
        <ele>1760</ele>
        <time>2014-06-28T09:09:52.000Z</time>
      </trkpt>
      <trkpt lat="45.15258" lon="5.63622">
        <ele>1760</ele>
        <time>2014-06-28T09:09:53.000Z</time>
      </trkpt>
      <trkpt lat="45.15259" lon="5.63621">
        <ele>1759</ele>
        <time>2014-06-28T09:09:54.000Z</time>
      </trkpt>
      <trkpt lat="45.1526" lon="5.63621">
        <ele>1759</ele>
        <time>2014-06-28T09:09:55.000Z</time>
      </trkpt>
      <trkpt lat="45.15261" lon="5.63621">
        <ele>1759</ele>
        <time>2014-06-28T09:09:56.000Z</time>
      </trkpt>
      <trkpt lat="45.15261" lon="5.63622">
        <ele>1759</ele>
        <time>2014-06-28T09:09:57.000Z</time>
      </trkpt>
      <trkpt lat="45.15262" lon="5.63622">
        <ele>1758</ele>
        <time>2014-06-28T09:09:58.000Z</time>
      </trkpt>
      <trkpt lat="45.15262" lon="5.63623">
        <ele>1758</ele>
        <time>2014-06-28T09:09:59.000Z</time>
      </trkpt>
      <trkpt lat="45.15262" lon="5.63623">
        <ele>1758</ele>
        <time>2014-06-28T09:10:00.000Z</time>
      </trkpt>
      <trkpt lat="45.15263" lon="5.63623">
        <ele>1758</ele>
        <time>2014-06-28T09:10:01.000Z</time>
      </trkpt>
      <trkpt lat="45.15264" lon="5.63622">
        <ele>1758</ele>
        <time>2014-06-28T09:10:02.000Z</time>
      </trkpt>
      <trkpt lat="45.15265" lon="5.63622">
        <ele>1758</ele>
        <time>2014-06-28T09:10:03.000Z</time>
      </trkpt>
      <trkpt lat="45.15265" lon="5.63621">
        <ele>1757</ele>
        <time>2014-06-28T09:10:04.000Z</time>
      </trkpt>
      <trkpt lat="45.15265" lon="5.63621">
        <ele>1757</ele>
        <time>2014-06-28T09:10:05.000Z</time>
      </trkpt>
      <trkpt lat="45.15266" lon="5.6362">
        <ele>1757</ele>
        <time>2014-06-28T09:10:06.000Z</time>
      </trkpt>
      <trkpt lat="45.15266" lon="5.63619">
        <ele>1756</ele>
        <time>2014-06-28T09:10:07.000Z</time>
      </trkpt>
      <trkpt lat="45.15266" lon="5.63618">
        <ele>1756</ele>
        <time>2014-06-28T09:10:08.000Z</time>
      </trkpt>
      <trkpt lat="45.15266" lon="5.63617">
        <ele>1755</ele>
        <time>2014-06-28T09:10:09.000Z</time>
      </trkpt>
      <trkpt lat="45.15266" lon="5.63617">
        <ele>1755</ele>
        <time>2014-06-28T09:10:10.000Z</time>
      </trkpt>
      <trkpt lat="45.15266" lon="5.63616">
        <ele>1755</ele>
        <time>2014-06-28T09:10:11.000Z</time>
      </trkpt>
      <trkpt lat="45.15266" lon="5.63616">
        <ele>1754</ele>
        <time>2014-06-28T09:10:12.000Z</time>
      </trkpt>
      <trkpt lat="45.15267" lon="5.63615">
        <ele>1753</ele>
        <time>2014-06-28T09:10:13.000Z</time>
      </trkpt>
      <trkpt lat="45.15268" lon="5.63616">
        <ele>1753</ele>
        <time>2014-06-28T09:10:14.000Z</time>
      </trkpt>
      <trkpt lat="45.15268" lon="5.63616">
        <ele>1752</ele>
        <time>2014-06-28T09:10:15.000Z</time>
      </trkpt>
      <trkpt lat="45.15269" lon="5.63616">
        <ele>1752</ele>
        <time>2014-06-28T09:10:16.000Z</time>
      </trkpt>
      <trkpt lat="45.15269" lon="5.63615">
        <ele>1751</ele>
        <time>2014-06-28T09:10:17.000Z</time>
      </trkpt>
      <trkpt lat="45.1527" lon="5.63615">
        <ele>1751</ele>
        <time>2014-06-28T09:10:18.000Z</time>
      </trkpt>
      <trkpt lat="45.1527" lon="5.63615">
        <ele>1750</ele>
        <time>2014-06-28T09:10:19.000Z</time>
      </trkpt>
      <trkpt lat="45.15271" lon="5.63616">
        <ele>1750</ele>
        <time>2014-06-28T09:10:20.000Z</time>
      </trkpt>
      <trkpt lat="45.15271" lon="5.63616">
        <ele>1749</ele>
        <time>2014-06-28T09:10:21.000Z</time>
      </trkpt>
      <trkpt lat="45.15271" lon="5.63615">
        <ele>1749</ele>
        <time>2014-06-28T09:10:22.000Z</time>
      </trkpt>
      <trkpt lat="45.15272" lon="5.63615">
        <ele>1749</ele>
        <time>2014-06-28T09:10:23.000Z</time>
      </trkpt>
      <trkpt lat="45.15273" lon="5.63614">
        <ele>1748</ele>
        <time>2014-06-28T09:10:24.000Z</time>
      </trkpt>
      <trkpt lat="45.15273" lon="5.63613">
        <ele>1748</ele>
        <time>2014-06-28T09:10:25.000Z</time>
      </trkpt>
      <trkpt lat="45.15274" lon="5.63612">
        <ele>1747</ele>
        <time>2014-06-28T09:10:26.000Z</time>
      </trkpt>
      <trkpt lat="45.15275" lon="5.63611">
        <ele>1747</ele>
        <time>2014-06-28T09:10:27.000Z</time>
      </trkpt>
      <trkpt lat="45.15275" lon="5.6361">
        <ele>1746</ele>
        <time>2014-06-28T09:10:28.000Z</time>
      </trkpt>
      <trkpt lat="45.15275" lon="5.63608">
        <ele>1746</ele>
        <time>2014-06-28T09:10:29.000Z</time>
      </trkpt>
      <trkpt lat="45.15275" lon="5.63606">
        <ele>1745</ele>
        <time>2014-06-28T09:10:30.000Z</time>
      </trkpt>
      <trkpt lat="45.15275" lon="5.63604">
        <ele>1744</ele>
        <time>2014-06-28T09:10:31.000Z</time>
      </trkpt>
      <trkpt lat="45.15276" lon="5.63602">
        <ele>1744</ele>
        <time>2014-06-28T09:10:32.000Z</time>
      </trkpt>
      <trkpt lat="45.15276" lon="5.63601">
        <ele>1743</ele>
        <time>2014-06-28T09:10:33.000Z</time>
      </trkpt>
      <trkpt lat="45.15276" lon="5.63599">
        <ele>1743</ele>
        <time>2014-06-28T09:10:34.000Z</time>
      </trkpt>
      <trkpt lat="45.15276" lon="5.63598">
        <ele>1742</ele>
        <time>2014-06-28T09:10:35.000Z</time>
      </trkpt>
      <trkpt lat="45.15276" lon="5.63597">
        <ele>1742</ele>
        <time>2014-06-28T09:10:36.000Z</time>
      </trkpt>
      <trkpt lat="45.15276" lon="5.63596">
        <ele>1741</ele>
        <time>2014-06-28T09:10:37.000Z</time>
      </trkpt>
      <trkpt lat="45.15277" lon="5.63595">
        <ele>1741</ele>
        <time>2014-06-28T09:10:38.000Z</time>
      </trkpt>
      <trkpt lat="45.15277" lon="5.63594">
        <ele>1740</ele>
        <time>2014-06-28T09:10:39.000Z</time>
      </trkpt>
      <trkpt lat="45.15277" lon="5.63593">
        <ele>1740</ele>
        <time>2014-06-28T09:10:40.000Z</time>
      </trkpt>
      <trkpt lat="45.15278" lon="5.63593">
        <ele>1739</ele>
        <time>2014-06-28T09:10:41.000Z</time>
      </trkpt>
      <trkpt lat="45.15279" lon="5.63592">
        <ele>1739</ele>
        <time>2014-06-28T09:10:42.000Z</time>
      </trkpt>
      <trkpt lat="45.15279" lon="5.63591">
        <ele>1739</ele>
        <time>2014-06-28T09:10:43.000Z</time>
      </trkpt>
      <trkpt lat="45.15279" lon="5.6359">
        <ele>1738</ele>
        <time>2014-06-28T09:10:44.000Z</time>
      </trkpt>
      <trkpt lat="45.1528" lon="5.6359">
        <ele>1738</ele>
        <time>2014-06-28T09:10:45.000Z</time>
      </trkpt>
      <trkpt lat="45.1528" lon="5.63589">
        <ele>1737</ele>
        <time>2014-06-28T09:10:46.000Z</time>
      </trkpt>
      <trkpt lat="45.1528" lon="5.63589">
        <ele>1737</ele>
        <time>2014-06-28T09:10:47.000Z</time>
      </trkpt>
      <trkpt lat="45.15281" lon="5.63589">
        <ele>1736</ele>
        <time>2014-06-28T09:10:48.000Z</time>
      </trkpt>
      <trkpt lat="45.15282" lon="5.63589">
        <ele>1736</ele>
        <time>2014-06-28T09:10:49.000Z</time>
      </trkpt>
      <trkpt lat="45.15283" lon="5.63589">
        <ele>1736</ele>
        <time>2014-06-28T09:10:50.000Z</time>
      </trkpt>
      <trkpt lat="45.15283" lon="5.63589">
        <ele>1735</ele>
        <time>2014-06-28T09:10:51.000Z</time>
      </trkpt>
      <trkpt lat="45.15284" lon="5.63588">
        <ele>1734</ele>
        <time>2014-06-28T09:10:52.000Z</time>
      </trkpt>
      <trkpt lat="45.15284" lon="5.63588">
        <ele>1734</ele>
        <time>2014-06-28T09:10:53.000Z</time>
      </trkpt>
      <trkpt lat="45.15284" lon="5.63587">
        <ele>1734</ele>
        <time>2014-06-28T09:10:54.000Z</time>
      </trkpt>
      <trkpt lat="45.15284" lon="5.63586">
        <ele>1733</ele>
        <time>2014-06-28T09:10:55.000Z</time>
      </trkpt>
      <trkpt lat="45.15285" lon="5.63585">
        <ele>1733</ele>
        <time>2014-06-28T09:10:56.000Z</time>
      </trkpt>
      <trkpt lat="45.15286" lon="5.63584">
        <ele>1732</ele>
        <time>2014-06-28T09:10:57.000Z</time>
      </trkpt>
      <trkpt lat="45.15287" lon="5.63584">
        <ele>1732</ele>
        <time>2014-06-28T09:10:58.000Z</time>
      </trkpt>
      <trkpt lat="45.15288" lon="5.63584">
        <ele>1732</ele>
        <time>2014-06-28T09:10:59.000Z</time>
      </trkpt>
      <trkpt lat="45.15289" lon="5.63585">
        <ele>1731</ele>
        <time>2014-06-28T09:11:00.000Z</time>
      </trkpt>
      <trkpt lat="45.15291" lon="5.63585">
        <ele>1731</ele>
        <time>2014-06-28T09:11:01.000Z</time>
      </trkpt>
      <trkpt lat="45.15292" lon="5.63585">
        <ele>1730</ele>
        <time>2014-06-28T09:11:02.000Z</time>
      </trkpt>
      <trkpt lat="45.15294" lon="5.63585">
        <ele>1730</ele>
        <time>2014-06-28T09:11:03.000Z</time>
      </trkpt>
      <trkpt lat="45.15296" lon="5.63585">
        <ele>1729</ele>
        <time>2014-06-28T09:11:04.000Z</time>
      </trkpt>
      <trkpt lat="45.15297" lon="5.63586">
        <ele>1729</ele>
        <time>2014-06-28T09:11:05.000Z</time>
      </trkpt>
      <trkpt lat="45.15299" lon="5.63586">
        <ele>1728</ele>
        <time>2014-06-28T09:11:06.000Z</time>
      </trkpt>
      <trkpt lat="45.153" lon="5.63587">
        <ele>1728</ele>
        <time>2014-06-28T09:11:07.000Z</time>
      </trkpt>
      <trkpt lat="45.15301" lon="5.63586">
        <ele>1727</ele>
        <time>2014-06-28T09:11:08.000Z</time>
      </trkpt>
      <trkpt lat="45.15302" lon="5.63586">
        <ele>1727</ele>
        <time>2014-06-28T09:11:09.000Z</time>
      </trkpt>
      <trkpt lat="45.15303" lon="5.63585">
        <ele>1726</ele>
        <time>2014-06-28T09:11:10.000Z</time>
      </trkpt>
      <trkpt lat="45.15304" lon="5.63584">
        <ele>1726</ele>
        <time>2014-06-28T09:11:11.000Z</time>
      </trkpt>
      <trkpt lat="45.15305" lon="5.63582">
        <ele>1725</ele>
        <time>2014-06-28T09:11:12.000Z</time>
      </trkpt>
      <trkpt lat="45.15307" lon="5.6358">
        <ele>1724</ele>
        <time>2014-06-28T09:11:13.000Z</time>
      </trkpt>
      <trkpt lat="45.15308" lon="5.63579">
        <ele>1723</ele>
        <time>2014-06-28T09:11:14.000Z</time>
      </trkpt>
      <trkpt lat="45.15309" lon="5.63578">
        <ele>1723</ele>
        <time>2014-06-28T09:11:15.000Z</time>
      </trkpt>
      <trkpt lat="45.1531" lon="5.63576">
        <ele>1722</ele>
        <time>2014-06-28T09:11:16.000Z</time>
      </trkpt>
      <trkpt lat="45.15311" lon="5.63575">
        <ele>1721</ele>
        <time>2014-06-28T09:11:17.000Z</time>
      </trkpt>
      <trkpt lat="45.15312" lon="5.63575">
        <ele>1720</ele>
        <time>2014-06-28T09:11:18.000Z</time>
      </trkpt>
      <trkpt lat="45.15312" lon="5.63574">
        <ele>1720</ele>
        <time>2014-06-28T09:11:19.000Z</time>
      </trkpt>
      <trkpt lat="45.15313" lon="5.63573">
        <ele>1719</ele>
        <time>2014-06-28T09:11:20.000Z</time>
      </trkpt>
      <trkpt lat="45.15313" lon="5.63572">
        <ele>1718</ele>
        <time>2014-06-28T09:11:21.000Z</time>
      </trkpt>
      <trkpt lat="45.15314" lon="5.63571">
        <ele>1718</ele>
        <time>2014-06-28T09:11:22.000Z</time>
      </trkpt>
      <trkpt lat="45.15314" lon="5.63571">
        <ele>1717</ele>
        <time>2014-06-28T09:11:23.000Z</time>
      </trkpt>
      <trkpt lat="45.15315" lon="5.63571">
        <ele>1717</ele>
        <time>2014-06-28T09:11:24.000Z</time>
      </trkpt>
      <trkpt lat="45.15316" lon="5.63571">
        <ele>1716</ele>
        <time>2014-06-28T09:11:25.000Z</time>
      </trkpt>
      <trkpt lat="45.15316" lon="5.6357">
        <ele>1716</ele>
        <time>2014-06-28T09:11:26.000Z</time>
      </trkpt>
      <trkpt lat="45.15317" lon="5.6357">
        <ele>1715</ele>
        <time>2014-06-28T09:11:27.000Z</time>
      </trkpt>
      <trkpt lat="45.15318" lon="5.63569">
        <ele>1715</ele>
        <time>2014-06-28T09:11:28.000Z</time>
      </trkpt>
      <trkpt lat="45.15319" lon="5.63569">
        <ele>1715</ele>
        <time>2014-06-28T09:11:29.000Z</time>
      </trkpt>
      <trkpt lat="45.1532" lon="5.63568">
        <ele>1714</ele>
        <time>2014-06-28T09:11:30.000Z</time>
      </trkpt>
      <trkpt lat="45.15321" lon="5.63566">
        <ele>1714</ele>
        <time>2014-06-28T09:11:31.000Z</time>
      </trkpt>
      <trkpt lat="45.15321" lon="5.63566">
        <ele>1713</ele>
        <time>2014-06-28T09:11:32.000Z</time>
      </trkpt>
      <trkpt lat="45.15322" lon="5.63565">
        <ele>1713</ele>
        <time>2014-06-28T09:11:33.000Z</time>
      </trkpt>
      <trkpt lat="45.15323" lon="5.63564">
        <ele>1712</ele>
        <time>2014-06-28T09:11:34.000Z</time>
      </trkpt>
      <trkpt lat="45.15323" lon="5.63563">
        <ele>1712</ele>
        <time>2014-06-28T09:11:35.000Z</time>
      </trkpt>
      <trkpt lat="45.15324" lon="5.63563">
        <ele>1711</ele>
        <time>2014-06-28T09:11:36.000Z</time>
      </trkpt>
      <trkpt lat="45.15325" lon="5.63562">
        <ele>1711</ele>
        <time>2014-06-28T09:11:37.000Z</time>
      </trkpt>
      <trkpt lat="45.15326" lon="5.63562">
        <ele>1710</ele>
        <time>2014-06-28T09:11:38.000Z</time>
      </trkpt>
      <trkpt lat="45.15327" lon="5.63561">
        <ele>1710</ele>
        <time>2014-06-28T09:11:39.000Z</time>
      </trkpt>
      <trkpt lat="45.15328" lon="5.63561">
        <ele>1710</ele>
        <time>2014-06-28T09:11:40.000Z</time>
      </trkpt>
      <trkpt lat="45.1533" lon="5.6356">
        <ele>1709</ele>
        <time>2014-06-28T09:11:41.000Z</time>
      </trkpt>
      <trkpt lat="45.15331" lon="5.6356">
        <ele>1708</ele>
        <time>2014-06-28T09:11:42.000Z</time>
      </trkpt>
      <trkpt lat="45.15331" lon="5.63559">
        <ele>1708</ele>
        <time>2014-06-28T09:11:43.000Z</time>
      </trkpt>
      <trkpt lat="45.15333" lon="5.63557">
        <ele>1707</ele>
        <time>2014-06-28T09:11:44.000Z</time>
      </trkpt>
      <trkpt lat="45.15334" lon="5.63556">
        <ele>1707</ele>
        <time>2014-06-28T09:11:45.000Z</time>
      </trkpt>
      <trkpt lat="45.15335" lon="5.63555">
        <ele>1706</ele>
        <time>2014-06-28T09:11:46.000Z</time>
      </trkpt>
      <trkpt lat="45.15336" lon="5.63554">
        <ele>1706</ele>
        <time>2014-06-28T09:11:47.000Z</time>
      </trkpt>
      <trkpt lat="45.15335" lon="5.63552">
        <ele>1705</ele>
        <time>2014-06-28T09:11:48.000Z</time>
      </trkpt>
      <trkpt lat="45.15335" lon="5.63551">
        <ele>1705</ele>
        <time>2014-06-28T09:11:49.000Z</time>
      </trkpt>
      <trkpt lat="45.15335" lon="5.63549">
        <ele>1705</ele>
        <time>2014-06-28T09:11:50.000Z</time>
      </trkpt>
      <trkpt lat="45.15334" lon="5.63547">
        <ele>1704</ele>
        <time>2014-06-28T09:11:51.000Z</time>
      </trkpt>
      <trkpt lat="45.15334" lon="5.63544">
        <ele>1704</ele>
        <time>2014-06-28T09:11:52.000Z</time>
      </trkpt>
      <trkpt lat="45.15334" lon="5.63543">
        <ele>1703</ele>
        <time>2014-06-28T09:11:53.000Z</time>
      </trkpt>
      <trkpt lat="45.15334" lon="5.63541">
        <ele>1703</ele>
        <time>2014-06-28T09:11:54.000Z</time>
      </trkpt>
      <trkpt lat="45.15335" lon="5.6354">
        <ele>1703</ele>
        <time>2014-06-28T09:11:55.000Z</time>
      </trkpt>
      <trkpt lat="45.15336" lon="5.6354">
        <ele>1702</ele>
        <time>2014-06-28T09:11:56.000Z</time>
      </trkpt>
      <trkpt lat="45.15338" lon="5.63539">
        <ele>1702</ele>
        <time>2014-06-28T09:11:57.000Z</time>
      </trkpt>
      <trkpt lat="45.1534" lon="5.63538">
        <ele>1702</ele>
        <time>2014-06-28T09:11:58.000Z</time>
      </trkpt>
      <trkpt lat="45.15342" lon="5.63537">
        <ele>1701</ele>
        <time>2014-06-28T09:11:59.000Z</time>
      </trkpt>
      <trkpt lat="45.15345" lon="5.63536">
        <ele>1701</ele>
        <time>2014-06-28T09:12:00.000Z</time>
      </trkpt>
      <trkpt lat="45.15347" lon="5.63536">
        <ele>1701</ele>
        <time>2014-06-28T09:12:01.000Z</time>
      </trkpt>
      <trkpt lat="45.15349" lon="5.63535">
        <ele>1700</ele>
        <time>2014-06-28T09:12:02.000Z</time>
      </trkpt>
      <trkpt lat="45.15351" lon="5.63533">
        <ele>1700</ele>
        <time>2014-06-28T09:12:03.000Z</time>
      </trkpt>
      <trkpt lat="45.15354" lon="5.63531">
        <ele>1700</ele>
        <time>2014-06-28T09:12:04.000Z</time>
      </trkpt>
      <trkpt lat="45.15357" lon="5.63529">
        <ele>1699</ele>
        <time>2014-06-28T09:12:05.000Z</time>
      </trkpt>
      <trkpt lat="45.15359" lon="5.63527">
        <ele>1699</ele>
        <time>2014-06-28T09:12:06.000Z</time>
      </trkpt>
      <trkpt lat="45.15362" lon="5.63525">
        <ele>1699</ele>
        <time>2014-06-28T09:12:07.000Z</time>
      </trkpt>
      <trkpt lat="45.15364" lon="5.63522">
        <ele>1698</ele>
        <time>2014-06-28T09:12:08.000Z</time>
      </trkpt>
      <trkpt lat="45.15367" lon="5.6352">
        <ele>1698</ele>
        <time>2014-06-28T09:12:09.000Z</time>
      </trkpt>
      <trkpt lat="45.15369" lon="5.63519">
        <ele>1697</ele>
        <time>2014-06-28T09:12:10.000Z</time>
      </trkpt>
      <trkpt lat="45.15371" lon="5.63517">
        <ele>1697</ele>
        <time>2014-06-28T09:12:11.000Z</time>
      </trkpt>
      <trkpt lat="45.15374" lon="5.63515">
        <ele>1696</ele>
        <time>2014-06-28T09:12:12.000Z</time>
      </trkpt>
      <trkpt lat="45.15376" lon="5.63513">
        <ele>1696</ele>
        <time>2014-06-28T09:12:13.000Z</time>
      </trkpt>
      <trkpt lat="45.15378" lon="5.6351">
        <ele>1695</ele>
        <time>2014-06-28T09:12:14.000Z</time>
      </trkpt>
      <trkpt lat="45.1538" lon="5.63509">
        <ele>1694</ele>
        <time>2014-06-28T09:12:15.000Z</time>
      </trkpt>
      <trkpt lat="45.15382" lon="5.63507">
        <ele>1694</ele>
        <time>2014-06-28T09:12:16.000Z</time>
      </trkpt>
      <trkpt lat="45.15385" lon="5.63506">
        <ele>1693</ele>
        <time>2014-06-28T09:12:17.000Z</time>
      </trkpt>
      <trkpt lat="45.15387" lon="5.63505">
        <ele>1692</ele>
        <time>2014-06-28T09:12:18.000Z</time>
      </trkpt>
      <trkpt lat="45.15389" lon="5.63503">
        <ele>1692</ele>
        <time>2014-06-28T09:12:19.000Z</time>
      </trkpt>
      <trkpt lat="45.15392" lon="5.63501">
        <ele>1691</ele>
        <time>2014-06-28T09:12:20.000Z</time>
      </trkpt>
      <trkpt lat="45.15394" lon="5.635">
        <ele>1691</ele>
        <time>2014-06-28T09:12:21.000Z</time>
      </trkpt>
      <trkpt lat="45.15396" lon="5.63498">
        <ele>1690</ele>
        <time>2014-06-28T09:12:22.000Z</time>
      </trkpt>
      <trkpt lat="45.15399" lon="5.63497">
        <ele>1689</ele>
        <time>2014-06-28T09:12:23.000Z</time>
      </trkpt>
      <trkpt lat="45.15402" lon="5.63496">
        <ele>1689</ele>
        <time>2014-06-28T09:12:24.000Z</time>
      </trkpt>
      <trkpt lat="45.15404" lon="5.63496">
        <ele>1688</ele>
        <time>2014-06-28T09:12:25.000Z</time>
      </trkpt>
      <trkpt lat="45.15407" lon="5.63495">
        <ele>1688</ele>
        <time>2014-06-28T09:12:26.000Z</time>
      </trkpt>
      <trkpt lat="45.1541" lon="5.63494">
        <ele>1687</ele>
        <time>2014-06-28T09:12:27.000Z</time>
      </trkpt>
      <trkpt lat="45.15413" lon="5.63494">
        <ele>1687</ele>
        <time>2014-06-28T09:12:28.000Z</time>
      </trkpt>
      <trkpt lat="45.15416" lon="5.63493">
        <ele>1686</ele>
        <time>2014-06-28T09:12:29.000Z</time>
      </trkpt>
      <trkpt lat="45.1542" lon="5.63493">
        <ele>1686</ele>
        <time>2014-06-28T09:12:30.000Z</time>
      </trkpt>
      <trkpt lat="45.15423" lon="5.63491">
        <ele>1685</ele>
        <time>2014-06-28T09:12:31.000Z</time>
      </trkpt>
      <trkpt lat="45.15426" lon="5.6349">
        <ele>1685</ele>
        <time>2014-06-28T09:12:32.000Z</time>
      </trkpt>
      <trkpt lat="45.15429" lon="5.63488">
        <ele>1685</ele>
        <time>2014-06-28T09:12:33.000Z</time>
      </trkpt>
      <trkpt lat="45.15432" lon="5.63487">
        <ele>1684</ele>
        <time>2014-06-28T09:12:34.000Z</time>
      </trkpt>
      <trkpt lat="45.15435" lon="5.63485">
        <ele>1684</ele>
        <time>2014-06-28T09:12:35.000Z</time>
      </trkpt>
      <trkpt lat="45.15437" lon="5.63483">
        <ele>1683</ele>
        <time>2014-06-28T09:12:36.000Z</time>
      </trkpt>
      <trkpt lat="45.1544" lon="5.63482">
        <ele>1683</ele>
        <time>2014-06-28T09:12:37.000Z</time>
      </trkpt>
      <trkpt lat="45.15443" lon="5.6348">
        <ele>1683</ele>
        <time>2014-06-28T09:12:38.000Z</time>
      </trkpt>
      <trkpt lat="45.15445" lon="5.63479">
        <ele>1682</ele>
        <time>2014-06-28T09:12:39.000Z</time>
      </trkpt>
      <trkpt lat="45.15448" lon="5.63477">
        <ele>1682</ele>
        <time>2014-06-28T09:12:40.000Z</time>
      </trkpt>
      <trkpt lat="45.15451" lon="5.63475">
        <ele>1681</ele>
        <time>2014-06-28T09:12:41.000Z</time>
      </trkpt>
      <trkpt lat="45.15453" lon="5.63473">
        <ele>1681</ele>
        <time>2014-06-28T09:12:42.000Z</time>
      </trkpt>
      <trkpt lat="45.15456" lon="5.63471">
        <ele>1680</ele>
        <time>2014-06-28T09:12:43.000Z</time>
      </trkpt>
      <trkpt lat="45.15458" lon="5.63469">
        <ele>1680</ele>
        <time>2014-06-28T09:12:44.000Z</time>
      </trkpt>
      <trkpt lat="45.15461" lon="5.63468">
        <ele>1679</ele>
        <time>2014-06-28T09:12:45.000Z</time>
      </trkpt>
      <trkpt lat="45.15463" lon="5.63467">
        <ele>1679</ele>
        <time>2014-06-28T09:12:46.000Z</time>
      </trkpt>
      <trkpt lat="45.15466" lon="5.63465">
        <ele>1678</ele>
        <time>2014-06-28T09:12:47.000Z</time>
      </trkpt>
      <trkpt lat="45.15468" lon="5.63464">
        <ele>1678</ele>
        <time>2014-06-28T09:12:48.000Z</time>
      </trkpt>
      <trkpt lat="45.1547" lon="5.63463">
        <ele>1678</ele>
        <time>2014-06-28T09:12:49.000Z</time>
      </trkpt>
      <trkpt lat="45.15472" lon="5.63461">
        <ele>1677</ele>
        <time>2014-06-28T09:12:50.000Z</time>
      </trkpt>
      <trkpt lat="45.15474" lon="5.6346">
        <ele>1677</ele>
        <time>2014-06-28T09:12:51.000Z</time>
      </trkpt>
      <trkpt lat="45.15477" lon="5.63459">
        <ele>1676</ele>
        <time>2014-06-28T09:12:52.000Z</time>
      </trkpt>
      <trkpt lat="45.15479" lon="5.63457">
        <ele>1676</ele>
        <time>2014-06-28T09:12:53.000Z</time>
      </trkpt>
      <trkpt lat="45.15481" lon="5.63456">
        <ele>1675</ele>
        <time>2014-06-28T09:12:54.000Z</time>
      </trkpt>
      <trkpt lat="45.15484" lon="5.63455">
        <ele>1675</ele>
        <time>2014-06-28T09:12:55.000Z</time>
      </trkpt>
      <trkpt lat="45.15486" lon="5.63453">
        <ele>1674</ele>
        <time>2014-06-28T09:12:56.000Z</time>
      </trkpt>
      <trkpt lat="45.15489" lon="5.63453">
        <ele>1674</ele>
        <time>2014-06-28T09:12:57.000Z</time>
      </trkpt>
      <trkpt lat="45.15491" lon="5.63452">
        <ele>1673</ele>
        <time>2014-06-28T09:12:58.000Z</time>
      </trkpt>
      <trkpt lat="45.15494" lon="5.63451">
        <ele>1673</ele>
        <time>2014-06-28T09:12:59.000Z</time>
      </trkpt>
      <trkpt lat="45.15496" lon="5.6345">
        <ele>1672</ele>
        <time>2014-06-28T09:13:00.000Z</time>
      </trkpt>
      <trkpt lat="45.15499" lon="5.6345">
        <ele>1672</ele>
        <time>2014-06-28T09:13:01.000Z</time>
      </trkpt>
      <trkpt lat="45.15501" lon="5.6345">
        <ele>1671</ele>
        <time>2014-06-28T09:13:02.000Z</time>
      </trkpt>
      <trkpt lat="45.15503" lon="5.63451">
        <ele>1670</ele>
        <time>2014-06-28T09:13:03.000Z</time>
      </trkpt>
      <trkpt lat="45.15506" lon="5.63451">
        <ele>1670</ele>
        <time>2014-06-28T09:13:04.000Z</time>
      </trkpt>
      <trkpt lat="45.15509" lon="5.63451">
        <ele>1669</ele>
        <time>2014-06-28T09:13:05.000Z</time>
      </trkpt>
      <trkpt lat="45.15511" lon="5.63451">
        <ele>1669</ele>
        <time>2014-06-28T09:13:06.000Z</time>
      </trkpt>
      <trkpt lat="45.15514" lon="5.63451">
        <ele>1668</ele>
        <time>2014-06-28T09:13:07.000Z</time>
      </trkpt>
      <trkpt lat="45.15517" lon="5.63451">
        <ele>1668</ele>
        <time>2014-06-28T09:13:08.000Z</time>
      </trkpt>
      <trkpt lat="45.1552" lon="5.6345">
        <ele>1667</ele>
        <time>2014-06-28T09:13:09.000Z</time>
      </trkpt>
      <trkpt lat="45.15523" lon="5.6345">
        <ele>1667</ele>
        <time>2014-06-28T09:13:10.000Z</time>
      </trkpt>
      <trkpt lat="45.15526" lon="5.63449">
        <ele>1667</ele>
        <time>2014-06-28T09:13:11.000Z</time>
      </trkpt>
      <trkpt lat="45.1553" lon="5.63449">
        <ele>1666</ele>
        <time>2014-06-28T09:13:12.000Z</time>
      </trkpt>
      <trkpt lat="45.15533" lon="5.63448">
        <ele>1666</ele>
        <time>2014-06-28T09:13:13.000Z</time>
      </trkpt>
      <trkpt lat="45.15536" lon="5.63448">
        <ele>1665</ele>
        <time>2014-06-28T09:13:14.000Z</time>
      </trkpt>
      <trkpt lat="45.15539" lon="5.63448">
        <ele>1665</ele>
        <time>2014-06-28T09:13:15.000Z</time>
      </trkpt>
      <trkpt lat="45.15541" lon="5.63448">
        <ele>1665</ele>
        <time>2014-06-28T09:13:16.000Z</time>
      </trkpt>
      <trkpt lat="45.15544" lon="5.63449">
        <ele>1664</ele>
        <time>2014-06-28T09:13:17.000Z</time>
      </trkpt>
      <trkpt lat="45.15547" lon="5.6345">
        <ele>1664</ele>
        <time>2014-06-28T09:13:18.000Z</time>
      </trkpt>
      <trkpt lat="45.1555" lon="5.63451">
        <ele>1663</ele>
        <time>2014-06-28T09:13:19.000Z</time>
      </trkpt>
      <trkpt lat="45.15553" lon="5.63452">
        <ele>1662</ele>
        <time>2014-06-28T09:13:20.000Z</time>
      </trkpt>
      <trkpt lat="45.15556" lon="5.63453">
        <ele>1662</ele>
        <time>2014-06-28T09:13:21.000Z</time>
      </trkpt>
      <trkpt lat="45.15559" lon="5.63454">
        <ele>1661</ele>
        <time>2014-06-28T09:13:22.000Z</time>
      </trkpt>
      <trkpt lat="45.15562" lon="5.63454">
        <ele>1661</ele>
        <time>2014-06-28T09:13:23.000Z</time>
      </trkpt>
      <trkpt lat="45.15564" lon="5.63453">
        <ele>1660</ele>
        <time>2014-06-28T09:13:24.000Z</time>
      </trkpt>
      <trkpt lat="45.15567" lon="5.63453">
        <ele>1660</ele>
        <time>2014-06-28T09:13:25.000Z</time>
      </trkpt>
      <trkpt lat="45.15571" lon="5.63451">
        <ele>1659</ele>
        <time>2014-06-28T09:13:26.000Z</time>
      </trkpt>
      <trkpt lat="45.15574" lon="5.6345">
        <ele>1659</ele>
        <time>2014-06-28T09:13:27.000Z</time>
      </trkpt>
      <trkpt lat="45.15577" lon="5.63449">
        <ele>1658</ele>
        <time>2014-06-28T09:13:28.000Z</time>
      </trkpt>
      <trkpt lat="45.1558" lon="5.63449">
        <ele>1658</ele>
        <time>2014-06-28T09:13:29.000Z</time>
      </trkpt>
      <trkpt lat="45.15583" lon="5.63449">
        <ele>1657</ele>
        <time>2014-06-28T09:13:30.000Z</time>
      </trkpt>
      <trkpt lat="45.15585" lon="5.63449">
        <ele>1657</ele>
        <time>2014-06-28T09:13:31.000Z</time>
      </trkpt>
      <trkpt lat="45.15586" lon="5.63449">
        <ele>1656</ele>
        <time>2014-06-28T09:13:32.000Z</time>
      </trkpt>
      <trkpt lat="45.15587" lon="5.63449">
        <ele>1656</ele>
        <time>2014-06-28T09:13:33.000Z</time>
      </trkpt>
      <trkpt lat="45.15587" lon="5.63449">
        <ele>1655</ele>
        <time>2014-06-28T09:13:34.000Z</time>
      </trkpt>
      <trkpt lat="45.15587" lon="5.63449">
        <ele>1655</ele>
        <time>2014-06-28T09:13:35.000Z</time>
      </trkpt>
      <trkpt lat="45.15588" lon="5.63449">
        <ele>1654</ele>
        <time>2014-06-28T09:13:36.000Z</time>
      </trkpt>
      <trkpt lat="45.15589" lon="5.63449">
        <ele>1654</ele>
        <time>2014-06-28T09:13:37.000Z</time>
      </trkpt>
      <trkpt lat="45.1559" lon="5.6345">
        <ele>1654</ele>
        <time>2014-06-28T09:13:38.000Z</time>
      </trkpt>
      <trkpt lat="45.15592" lon="5.6345">
        <ele>1653</ele>
        <time>2014-06-28T09:13:39.000Z</time>
      </trkpt>
      <trkpt lat="45.15594" lon="5.6345">
        <ele>1653</ele>
        <time>2014-06-28T09:13:40.000Z</time>
      </trkpt>
      <trkpt lat="45.15596" lon="5.6345">
        <ele>1652</ele>
        <time>2014-06-28T09:13:41.000Z</time>
      </trkpt>
      <trkpt lat="45.15599" lon="5.6345">
        <ele>1652</ele>
        <time>2014-06-28T09:13:42.000Z</time>
      </trkpt>
      <trkpt lat="45.15601" lon="5.63451">
        <ele>1651</ele>
        <time>2014-06-28T09:13:43.000Z</time>
      </trkpt>
      <trkpt lat="45.15604" lon="5.63451">
        <ele>1651</ele>
        <time>2014-06-28T09:13:44.000Z</time>
      </trkpt>
      <trkpt lat="45.15606" lon="5.63452">
        <ele>1650</ele>
        <time>2014-06-28T09:13:45.000Z</time>
      </trkpt>
      <trkpt lat="45.15609" lon="5.63453">
        <ele>1650</ele>
        <time>2014-06-28T09:13:46.000Z</time>
      </trkpt>
      <trkpt lat="45.15611" lon="5.63455">
        <ele>1649</ele>
        <time>2014-06-28T09:13:47.000Z</time>
      </trkpt>
      <trkpt lat="45.15613" lon="5.63457">
        <ele>1649</ele>
        <time>2014-06-28T09:13:48.000Z</time>
      </trkpt>
      <trkpt lat="45.15615" lon="5.63458">
        <ele>1648</ele>
        <time>2014-06-28T09:13:49.000Z</time>
      </trkpt>
      <trkpt lat="45.15618" lon="5.63459">
        <ele>1648</ele>
        <time>2014-06-28T09:13:50.000Z</time>
      </trkpt>
      <trkpt lat="45.1562" lon="5.63461">
        <ele>1647</ele>
        <time>2014-06-28T09:13:51.000Z</time>
      </trkpt>
      <trkpt lat="45.15623" lon="5.63462">
        <ele>1647</ele>
        <time>2014-06-28T09:13:52.000Z</time>
      </trkpt>
      <trkpt lat="45.15625" lon="5.63464">
        <ele>1647</ele>
        <time>2014-06-28T09:13:53.000Z</time>
      </trkpt>
      <trkpt lat="45.15628" lon="5.63466">
        <ele>1646</ele>
        <time>2014-06-28T09:13:54.000Z</time>
      </trkpt>
      <trkpt lat="45.1563" lon="5.63469">
        <ele>1646</ele>
        <time>2014-06-28T09:13:55.000Z</time>
      </trkpt>
      <trkpt lat="45.15632" lon="5.63472">
        <ele>1646</ele>
        <time>2014-06-28T09:13:56.000Z</time>
      </trkpt>
      <trkpt lat="45.15634" lon="5.63474">
        <ele>1645</ele>
        <time>2014-06-28T09:13:57.000Z</time>
      </trkpt>
      <trkpt lat="45.15636" lon="5.63476">
        <ele>1645</ele>
        <time>2014-06-28T09:13:58.000Z</time>
      </trkpt>
      <trkpt lat="45.15638" lon="5.63478">
        <ele>1644</ele>
        <time>2014-06-28T09:13:59.000Z</time>
      </trkpt>
      <trkpt lat="45.15641" lon="5.63481">
        <ele>1644</ele>
        <time>2014-06-28T09:14:00.000Z</time>
      </trkpt>
      <trkpt lat="45.15643" lon="5.63484">
        <ele>1644</ele>
        <time>2014-06-28T09:14:01.000Z</time>
      </trkpt>
      <trkpt lat="45.15644" lon="5.63488">
        <ele>1644</ele>
        <time>2014-06-28T09:14:02.000Z</time>
      </trkpt>
      <trkpt lat="45.15646" lon="5.63491">
        <ele>1643</ele>
        <time>2014-06-28T09:14:03.000Z</time>
      </trkpt>
      <trkpt lat="45.15648" lon="5.63495">
        <ele>1643</ele>
        <time>2014-06-28T09:14:04.000Z</time>
      </trkpt>
      <trkpt lat="45.15648" lon="5.63499">
        <ele>1643</ele>
        <time>2014-06-28T09:14:05.000Z</time>
      </trkpt>
      <trkpt lat="45.15648" lon="5.63502">
        <ele>1642</ele>
        <time>2014-06-28T09:14:06.000Z</time>
      </trkpt>
      <trkpt lat="45.15647" lon="5.63506">
        <ele>1642</ele>
        <time>2014-06-28T09:14:07.000Z</time>
      </trkpt>
      <trkpt lat="45.15646" lon="5.63509">
        <ele>1641</ele>
        <time>2014-06-28T09:14:08.000Z</time>
      </trkpt>
      <trkpt lat="45.15643" lon="5.63511">
        <ele>1641</ele>
        <time>2014-06-28T09:14:09.000Z</time>
      </trkpt>
      <trkpt lat="45.15641" lon="5.63513">
        <ele>1640</ele>
        <time>2014-06-28T09:14:10.000Z</time>
      </trkpt>
      <trkpt lat="45.15639" lon="5.63514">
        <ele>1640</ele>
        <time>2014-06-28T09:14:11.000Z</time>
      </trkpt>
      <trkpt lat="45.15637" lon="5.63514">
        <ele>1639</ele>
        <time>2014-06-28T09:14:12.000Z</time>
      </trkpt>
      <trkpt lat="45.15634" lon="5.63513">
        <ele>1639</ele>
        <time>2014-06-28T09:14:13.000Z</time>
      </trkpt>
      <trkpt lat="45.15632" lon="5.63512">
        <ele>1639</ele>
        <time>2014-06-28T09:14:14.000Z</time>
      </trkpt>
      <trkpt lat="45.1563" lon="5.63511">
        <ele>1639</ele>
        <time>2014-06-28T09:14:15.000Z</time>
      </trkpt>
      <trkpt lat="45.15628" lon="5.63511">
        <ele>1639</ele>
        <time>2014-06-28T09:14:16.000Z</time>
      </trkpt>
      <trkpt lat="45.15625" lon="5.6351">
        <ele>1638</ele>
        <time>2014-06-28T09:14:17.000Z</time>
      </trkpt>
      <trkpt lat="45.15622" lon="5.6351">
        <ele>1638</ele>
        <time>2014-06-28T09:14:18.000Z</time>
      </trkpt>
      <trkpt lat="45.15619" lon="5.6351">
        <ele>1638</ele>
        <time>2014-06-28T09:14:19.000Z</time>
      </trkpt>
      <trkpt lat="45.15617" lon="5.6351">
        <ele>1638</ele>
        <time>2014-06-28T09:14:20.000Z</time>
      </trkpt>
      <trkpt lat="45.15614" lon="5.63509">
        <ele>1638</ele>
        <time>2014-06-28T09:14:21.000Z</time>
      </trkpt>
      <trkpt lat="45.15611" lon="5.63509">
        <ele>1638</ele>
        <time>2014-06-28T09:14:22.000Z</time>
      </trkpt>
      <trkpt lat="45.15609" lon="5.63509">
        <ele>1637</ele>
        <time>2014-06-28T09:14:23.000Z</time>
      </trkpt>
      <trkpt lat="45.15606" lon="5.63508">
        <ele>1637</ele>
        <time>2014-06-28T09:14:24.000Z</time>
      </trkpt>
      <trkpt lat="45.15603" lon="5.63507">
        <ele>1637</ele>
        <time>2014-06-28T09:14:25.000Z</time>
      </trkpt>
      <trkpt lat="45.15601" lon="5.63507">
        <ele>1637</ele>
        <time>2014-06-28T09:14:26.000Z</time>
      </trkpt>
      <trkpt lat="45.15599" lon="5.63506">
        <ele>1637</ele>
        <time>2014-06-28T09:14:27.000Z</time>
      </trkpt>
      <trkpt lat="45.15597" lon="5.63506">
        <ele>1637</ele>
        <time>2014-06-28T09:14:28.000Z</time>
      </trkpt>
      <trkpt lat="45.15594" lon="5.63505">
        <ele>1637</ele>
        <time>2014-06-28T09:14:29.000Z</time>
      </trkpt>
      <trkpt lat="45.15592" lon="5.63505">
        <ele>1637</ele>
        <time>2014-06-28T09:14:30.000Z</time>
      </trkpt>
      <trkpt lat="45.1559" lon="5.63506">
        <ele>1637</ele>
        <time>2014-06-28T09:14:31.000Z</time>
      </trkpt>
      <trkpt lat="45.15588" lon="5.63507">
        <ele>1636</ele>
        <time>2014-06-28T09:14:32.000Z</time>
      </trkpt>
      <trkpt lat="45.15585" lon="5.63509">
        <ele>1636</ele>
        <time>2014-06-28T09:14:33.000Z</time>
      </trkpt>
      <trkpt lat="45.15583" lon="5.63511">
        <ele>1636</ele>
        <time>2014-06-28T09:14:34.000Z</time>
      </trkpt>
      <trkpt lat="45.15581" lon="5.63513">
        <ele>1636</ele>
        <time>2014-06-28T09:14:35.000Z</time>
      </trkpt>
      <trkpt lat="45.15579" lon="5.63515">
        <ele>1635</ele>
        <time>2014-06-28T09:14:36.000Z</time>
      </trkpt>
      <trkpt lat="45.15578" lon="5.63517">
        <ele>1635</ele>
        <time>2014-06-28T09:14:37.000Z</time>
      </trkpt>
      <trkpt lat="45.15577" lon="5.6352">
        <ele>1634</ele>
        <time>2014-06-28T09:14:38.000Z</time>
      </trkpt>
      <trkpt lat="45.15576" lon="5.63523">
        <ele>1634</ele>
        <time>2014-06-28T09:14:39.000Z</time>
      </trkpt>
      <trkpt lat="45.15576" lon="5.63526">
        <ele>1633</ele>
        <time>2014-06-28T09:14:40.000Z</time>
      </trkpt>
      <trkpt lat="45.15577" lon="5.63529">
        <ele>1633</ele>
        <time>2014-06-28T09:14:41.000Z</time>
      </trkpt>
      <trkpt lat="45.15578" lon="5.63532">
        <ele>1632</ele>
        <time>2014-06-28T09:14:42.000Z</time>
      </trkpt>
      <trkpt lat="45.15579" lon="5.63535">
        <ele>1631</ele>
        <time>2014-06-28T09:14:43.000Z</time>
      </trkpt>
      <trkpt lat="45.15581" lon="5.63538">
        <ele>1631</ele>
        <time>2014-06-28T09:14:44.000Z</time>
      </trkpt>
      <trkpt lat="45.15583" lon="5.63539">
        <ele>1631</ele>
        <time>2014-06-28T09:14:45.000Z</time>
      </trkpt>
      <trkpt lat="45.15584" lon="5.63541">
        <ele>1630</ele>
        <time>2014-06-28T09:14:46.000Z</time>
      </trkpt>
      <trkpt lat="45.15586" lon="5.63541">
        <ele>1630</ele>
        <time>2014-06-28T09:14:47.000Z</time>
      </trkpt>
      <trkpt lat="45.15588" lon="5.63542">
        <ele>1630</ele>
        <time>2014-06-28T09:14:48.000Z</time>
      </trkpt>
      <trkpt lat="45.15591" lon="5.63544">
        <ele>1629</ele>
        <time>2014-06-28T09:14:49.000Z</time>
      </trkpt>
      <trkpt lat="45.15594" lon="5.63545">
        <ele>1629</ele>
        <time>2014-06-28T09:14:50.000Z</time>
      </trkpt>
      <trkpt lat="45.15598" lon="5.63548">
        <ele>1629</ele>
        <time>2014-06-28T09:14:51.000Z</time>
      </trkpt>
      <trkpt lat="45.15601" lon="5.63551">
        <ele>1628</ele>
        <time>2014-06-28T09:14:52.000Z</time>
      </trkpt>
      <trkpt lat="45.15604" lon="5.63554">
        <ele>1628</ele>
        <time>2014-06-28T09:14:53.000Z</time>
      </trkpt>
      <trkpt lat="45.15607" lon="5.63557">
        <ele>1628</ele>
        <time>2014-06-28T09:14:54.000Z</time>
      </trkpt>
      <trkpt lat="45.1561" lon="5.63561">
        <ele>1627</ele>
        <time>2014-06-28T09:14:55.000Z</time>
      </trkpt>
      <trkpt lat="45.15611" lon="5.63565">
        <ele>1627</ele>
        <time>2014-06-28T09:14:56.000Z</time>
      </trkpt>
      <trkpt lat="45.15612" lon="5.63568">
        <ele>1627</ele>
        <time>2014-06-28T09:14:57.000Z</time>
      </trkpt>
      <trkpt lat="45.15613" lon="5.63571">
        <ele>1627</ele>
        <time>2014-06-28T09:14:58.000Z</time>
      </trkpt>
      <trkpt lat="45.15614" lon="5.63574">
        <ele>1627</ele>
        <time>2014-06-28T09:14:59.000Z</time>
      </trkpt>
      <trkpt lat="45.15614" lon="5.63578">
        <ele>1626</ele>
        <time>2014-06-28T09:15:00.000Z</time>
      </trkpt>
      <trkpt lat="45.15614" lon="5.63581">
        <ele>1626</ele>
        <time>2014-06-28T09:15:01.000Z</time>
      </trkpt>
      <trkpt lat="45.15613" lon="5.63585">
        <ele>1626</ele>
        <time>2014-06-28T09:15:02.000Z</time>
      </trkpt>
      <trkpt lat="45.15613" lon="5.63588">
        <ele>1626</ele>
        <time>2014-06-28T09:15:03.000Z</time>
      </trkpt>
      <trkpt lat="45.15613" lon="5.63591">
        <ele>1626</ele>
        <time>2014-06-28T09:15:04.000Z</time>
      </trkpt>
      <trkpt lat="45.15614" lon="5.63594">
        <ele>1626</ele>
        <time>2014-06-28T09:15:05.000Z</time>
      </trkpt>
      <trkpt lat="45.15614" lon="5.63597">
        <ele>1626</ele>
        <time>2014-06-28T09:15:06.000Z</time>
      </trkpt>
      <trkpt lat="45.15615" lon="5.636">
        <ele>1625</ele>
        <time>2014-06-28T09:15:07.000Z</time>
      </trkpt>
      <trkpt lat="45.15616" lon="5.63603">
        <ele>1625</ele>
        <time>2014-06-28T09:15:08.000Z</time>
      </trkpt>
      <trkpt lat="45.15616" lon="5.63606">
        <ele>1625</ele>
        <time>2014-06-28T09:15:09.000Z</time>
      </trkpt>
      <trkpt lat="45.15616" lon="5.63608">
        <ele>1625</ele>
        <time>2014-06-28T09:15:10.000Z</time>
      </trkpt>
      <trkpt lat="45.15616" lon="5.63612">
        <ele>1624</ele>
        <time>2014-06-28T09:15:11.000Z</time>
      </trkpt>
      <trkpt lat="45.15617" lon="5.63615">
        <ele>1624</ele>
        <time>2014-06-28T09:15:12.000Z</time>
      </trkpt>
      <trkpt lat="45.15617" lon="5.63618">
        <ele>1623</ele>
        <time>2014-06-28T09:15:13.000Z</time>
      </trkpt>
      <trkpt lat="45.15618" lon="5.6362">
        <ele>1623</ele>
        <time>2014-06-28T09:15:14.000Z</time>
      </trkpt>
      <trkpt lat="45.15618" lon="5.63623">
        <ele>1623</ele>
        <time>2014-06-28T09:15:15.000Z</time>
      </trkpt>
      <trkpt lat="45.15618" lon="5.63626">
        <ele>1622</ele>
        <time>2014-06-28T09:15:16.000Z</time>
      </trkpt>
      <trkpt lat="45.15619" lon="5.63629">
        <ele>1622</ele>
        <time>2014-06-28T09:15:17.000Z</time>
      </trkpt>
      <trkpt lat="45.15619" lon="5.63632">
        <ele>1621</ele>
        <time>2014-06-28T09:15:18.000Z</time>
      </trkpt>
      <trkpt lat="45.1562" lon="5.63635">
        <ele>1620</ele>
        <time>2014-06-28T09:15:19.000Z</time>
      </trkpt>
      <trkpt lat="45.15621" lon="5.63638">
        <ele>1619</ele>
        <time>2014-06-28T09:15:20.000Z</time>
      </trkpt>
      <trkpt lat="45.15622" lon="5.63641">
        <ele>1619</ele>
        <time>2014-06-28T09:15:21.000Z</time>
      </trkpt>
      <trkpt lat="45.15623" lon="5.63644">
        <ele>1618</ele>
        <time>2014-06-28T09:15:22.000Z</time>
      </trkpt>
      <trkpt lat="45.15624" lon="5.63646">
        <ele>1617</ele>
        <time>2014-06-28T09:15:23.000Z</time>
      </trkpt>
      <trkpt lat="45.15624" lon="5.63649">
        <ele>1616</ele>
        <time>2014-06-28T09:15:24.000Z</time>
      </trkpt>
      <trkpt lat="45.15625" lon="5.63651">
        <ele>1615</ele>
        <time>2014-06-28T09:15:25.000Z</time>
      </trkpt>
      <trkpt lat="45.15627" lon="5.63652">
        <ele>1614</ele>
        <time>2014-06-28T09:15:26.000Z</time>
      </trkpt>
      <trkpt lat="45.15628" lon="5.63653">
        <ele>1614</ele>
        <time>2014-06-28T09:15:27.000Z</time>
      </trkpt>
      <trkpt lat="45.15629" lon="5.63654">
        <ele>1613</ele>
        <time>2014-06-28T09:15:28.000Z</time>
      </trkpt>
      <trkpt lat="45.1563" lon="5.63655">
        <ele>1612</ele>
        <time>2014-06-28T09:15:29.000Z</time>
      </trkpt>
      <trkpt lat="45.15631" lon="5.63655">
        <ele>1612</ele>
        <time>2014-06-28T09:15:30.000Z</time>
      </trkpt>
      <trkpt lat="45.15633" lon="5.63656">
        <ele>1611</ele>
        <time>2014-06-28T09:15:31.000Z</time>
      </trkpt>
      <trkpt lat="45.15634" lon="5.63657">
        <ele>1610</ele>
        <time>2014-06-28T09:15:32.000Z</time>
      </trkpt>
      <trkpt lat="45.15636" lon="5.63657">
        <ele>1609</ele>
        <time>2014-06-28T09:15:33.000Z</time>
      </trkpt>
      <trkpt lat="45.15638" lon="5.63657">
        <ele>1609</ele>
        <time>2014-06-28T09:15:34.000Z</time>
      </trkpt>
      <trkpt lat="45.1564" lon="5.63657">
        <ele>1608</ele>
        <time>2014-06-28T09:15:35.000Z</time>
      </trkpt>
      <trkpt lat="45.15642" lon="5.63656">
        <ele>1607</ele>
        <time>2014-06-28T09:15:36.000Z</time>
      </trkpt>
      <trkpt lat="45.15644" lon="5.63655">
        <ele>1606</ele>
        <time>2014-06-28T09:15:37.000Z</time>
      </trkpt>
      <trkpt lat="45.15646" lon="5.63654">
        <ele>1605</ele>
        <time>2014-06-28T09:15:38.000Z</time>
      </trkpt>
      <trkpt lat="45.15648" lon="5.63653">
        <ele>1604</ele>
        <time>2014-06-28T09:15:39.000Z</time>
      </trkpt>
      <trkpt lat="45.1565" lon="5.63652">
        <ele>1603</ele>
        <time>2014-06-28T09:15:40.000Z</time>
      </trkpt>
      <trkpt lat="45.15652" lon="5.63652">
        <ele>1603</ele>
        <time>2014-06-28T09:15:41.000Z</time>
      </trkpt>
      <trkpt lat="45.15653" lon="5.63651">
        <ele>1602</ele>
        <time>2014-06-28T09:15:42.000Z</time>
      </trkpt>
      <trkpt lat="45.15654" lon="5.6365">
        <ele>1601</ele>
        <time>2014-06-28T09:15:43.000Z</time>
      </trkpt>
      <trkpt lat="45.15655" lon="5.63649">
        <ele>1600</ele>
        <time>2014-06-28T09:15:44.000Z</time>
      </trkpt>
      <trkpt lat="45.15656" lon="5.63648">
        <ele>1600</ele>
        <time>2014-06-28T09:15:45.000Z</time>
      </trkpt>
      <trkpt lat="45.15657" lon="5.63647">
        <ele>1599</ele>
        <time>2014-06-28T09:15:46.000Z</time>
      </trkpt>
      <trkpt lat="45.15658" lon="5.63646">
        <ele>1599</ele>
        <time>2014-06-28T09:15:47.000Z</time>
      </trkpt>
      <trkpt lat="45.15659" lon="5.63645">
        <ele>1598</ele>
        <time>2014-06-28T09:15:48.000Z</time>
      </trkpt>
      <trkpt lat="45.15661" lon="5.63644">
        <ele>1597</ele>
        <time>2014-06-28T09:15:49.000Z</time>
      </trkpt>
      <trkpt lat="45.15662" lon="5.63643">
        <ele>1597</ele>
        <time>2014-06-28T09:15:50.000Z</time>
      </trkpt>
      <trkpt lat="45.15664" lon="5.63642">
        <ele>1596</ele>
        <time>2014-06-28T09:15:51.000Z</time>
      </trkpt>
      <trkpt lat="45.15665" lon="5.63642">
        <ele>1595</ele>
        <time>2014-06-28T09:15:52.000Z</time>
      </trkpt>
      <trkpt lat="45.15667" lon="5.63642">
        <ele>1595</ele>
        <time>2014-06-28T09:15:53.000Z</time>
      </trkpt>
      <trkpt lat="45.15668" lon="5.63642">
        <ele>1594</ele>
        <time>2014-06-28T09:15:54.000Z</time>
      </trkpt>
      <trkpt lat="45.1567" lon="5.63642">
        <ele>1594</ele>
        <time>2014-06-28T09:15:55.000Z</time>
      </trkpt>
      <trkpt lat="45.15672" lon="5.63641">
        <ele>1593</ele>
        <time>2014-06-28T09:15:56.000Z</time>
      </trkpt>
      <trkpt lat="45.15675" lon="5.63641">
        <ele>1593</ele>
        <time>2014-06-28T09:15:57.000Z</time>
      </trkpt>
      <trkpt lat="45.15677" lon="5.6364">
        <ele>1592</ele>
        <time>2014-06-28T09:15:58.000Z</time>
      </trkpt>
      <trkpt lat="45.15679" lon="5.63639">
        <ele>1592</ele>
        <time>2014-06-28T09:15:59.000Z</time>
      </trkpt>
      <trkpt lat="45.15682" lon="5.63638">
        <ele>1591</ele>
        <time>2014-06-28T09:16:00.000Z</time>
      </trkpt>
      <trkpt lat="45.15684" lon="5.63637">
        <ele>1591</ele>
        <time>2014-06-28T09:16:01.000Z</time>
      </trkpt>
      <trkpt lat="45.15687" lon="5.63637">
        <ele>1590</ele>
        <time>2014-06-28T09:16:02.000Z</time>
      </trkpt>
      <trkpt lat="45.15689" lon="5.63638">
        <ele>1590</ele>
        <time>2014-06-28T09:16:03.000Z</time>
      </trkpt>
      <trkpt lat="45.15692" lon="5.63639">
        <ele>1589</ele>
        <time>2014-06-28T09:16:04.000Z</time>
      </trkpt>
      <trkpt lat="45.15694" lon="5.63642">
        <ele>1588</ele>
        <time>2014-06-28T09:16:05.000Z</time>
      </trkpt>
      <trkpt lat="45.15696" lon="5.63645">
        <ele>1588</ele>
        <time>2014-06-28T09:16:06.000Z</time>
      </trkpt>
      <trkpt lat="45.15698" lon="5.63648">
        <ele>1587</ele>
        <time>2014-06-28T09:16:07.000Z</time>
      </trkpt>
      <trkpt lat="45.157" lon="5.6365">
        <ele>1586</ele>
        <time>2014-06-28T09:16:08.000Z</time>
      </trkpt>
      <trkpt lat="45.15702" lon="5.63654">
        <ele>1586</ele>
        <time>2014-06-28T09:16:09.000Z</time>
      </trkpt>
      <trkpt lat="45.15704" lon="5.63657">
        <ele>1585</ele>
        <time>2014-06-28T09:16:10.000Z</time>
      </trkpt>
      <trkpt lat="45.15706" lon="5.6366">
        <ele>1584</ele>
        <time>2014-06-28T09:16:11.000Z</time>
      </trkpt>
      <trkpt lat="45.15707" lon="5.63663">
        <ele>1584</ele>
        <time>2014-06-28T09:16:12.000Z</time>
      </trkpt>
      <trkpt lat="45.15707" lon="5.63665">
        <ele>1583</ele>
        <time>2014-06-28T09:16:13.000Z</time>
      </trkpt>
      <trkpt lat="45.15708" lon="5.63668">
        <ele>1582</ele>
        <time>2014-06-28T09:16:14.000Z</time>
      </trkpt>
      <trkpt lat="45.1571" lon="5.6367">
        <ele>1582</ele>
        <time>2014-06-28T09:16:15.000Z</time>
      </trkpt>
      <trkpt lat="45.15712" lon="5.63672">
        <ele>1581</ele>
        <time>2014-06-28T09:16:16.000Z</time>
      </trkpt>
      <trkpt lat="45.15713" lon="5.63674">
        <ele>1580</ele>
        <time>2014-06-28T09:16:17.000Z</time>
      </trkpt>
      <trkpt lat="45.15714" lon="5.63676">
        <ele>1580</ele>
        <time>2014-06-28T09:16:18.000Z</time>
      </trkpt>
      <trkpt lat="45.15716" lon="5.63677">
        <ele>1579</ele>
        <time>2014-06-28T09:16:19.000Z</time>
      </trkpt>
      <trkpt lat="45.15717" lon="5.63678">
        <ele>1579</ele>
        <time>2014-06-28T09:16:20.000Z</time>
      </trkpt>
      <trkpt lat="45.15719" lon="5.63679">
        <ele>1578</ele>
        <time>2014-06-28T09:16:21.000Z</time>
      </trkpt>
      <trkpt lat="45.15721" lon="5.6368">
        <ele>1578</ele>
        <time>2014-06-28T09:16:22.000Z</time>
      </trkpt>
      <trkpt lat="45.15722" lon="5.6368">
        <ele>1577</ele>
        <time>2014-06-28T09:16:23.000Z</time>
      </trkpt>
      <trkpt lat="45.15724" lon="5.63681">
        <ele>1577</ele>
        <time>2014-06-28T09:16:24.000Z</time>
      </trkpt>
      <trkpt lat="45.15726" lon="5.63681">
        <ele>1576</ele>
        <time>2014-06-28T09:16:25.000Z</time>
      </trkpt>
      <trkpt lat="45.15727" lon="5.63681">
        <ele>1576</ele>
        <time>2014-06-28T09:16:26.000Z</time>
      </trkpt>
      <trkpt lat="45.15729" lon="5.63681">
        <ele>1575</ele>
        <time>2014-06-28T09:16:27.000Z</time>
      </trkpt>
      <trkpt lat="45.15731" lon="5.63681">
        <ele>1575</ele>
        <time>2014-06-28T09:16:28.000Z</time>
      </trkpt>
      <trkpt lat="45.15732" lon="5.63681">
        <ele>1575</ele>
        <time>2014-06-28T09:16:29.000Z</time>
      </trkpt>
      <trkpt lat="45.15734" lon="5.6368">
        <ele>1574</ele>
        <time>2014-06-28T09:16:30.000Z</time>
      </trkpt>
      <trkpt lat="45.15735" lon="5.6368">
        <ele>1574</ele>
        <time>2014-06-28T09:16:31.000Z</time>
      </trkpt>
      <trkpt lat="45.15737" lon="5.63681">
        <ele>1574</ele>
        <time>2014-06-28T09:16:32.000Z</time>
      </trkpt>
      <trkpt lat="45.15739" lon="5.63682">
        <ele>1573</ele>
        <time>2014-06-28T09:16:33.000Z</time>
      </trkpt>
      <trkpt lat="45.1574" lon="5.63683">
        <ele>1573</ele>
        <time>2014-06-28T09:16:34.000Z</time>
      </trkpt>
      <trkpt lat="45.15742" lon="5.63683">
        <ele>1573</ele>
        <time>2014-06-28T09:16:35.000Z</time>
      </trkpt>
      <trkpt lat="45.15743" lon="5.63683">
        <ele>1573</ele>
        <time>2014-06-28T09:16:36.000Z</time>
      </trkpt>
      <trkpt lat="45.15745" lon="5.63683">
        <ele>1572</ele>
        <time>2014-06-28T09:16:37.000Z</time>
      </trkpt>
      <trkpt lat="45.15747" lon="5.63683">
        <ele>1572</ele>
        <time>2014-06-28T09:16:38.000Z</time>
      </trkpt>
      <trkpt lat="45.15748" lon="5.63683">
        <ele>1572</ele>
        <time>2014-06-28T09:16:39.000Z</time>
      </trkpt>
      <trkpt lat="45.1575" lon="5.63683">
        <ele>1572</ele>
        <time>2014-06-28T09:16:40.000Z</time>
      </trkpt>
      <trkpt lat="45.15751" lon="5.63683">
        <ele>1571</ele>
        <time>2014-06-28T09:16:41.000Z</time>
      </trkpt>
      <trkpt lat="45.15753" lon="5.63683">
        <ele>1571</ele>
        <time>2014-06-28T09:16:42.000Z</time>
      </trkpt>
      <trkpt lat="45.15754" lon="5.63683">
        <ele>1571</ele>
        <time>2014-06-28T09:16:43.000Z</time>
      </trkpt>
      <trkpt lat="45.15755" lon="5.63683">
        <ele>1571</ele>
        <time>2014-06-28T09:16:44.000Z</time>
      </trkpt>
      <trkpt lat="45.15757" lon="5.63683">
        <ele>1570</ele>
        <time>2014-06-28T09:16:45.000Z</time>
      </trkpt>
      <trkpt lat="45.15759" lon="5.63683">
        <ele>1570</ele>
        <time>2014-06-28T09:16:46.000Z</time>
      </trkpt>
      <trkpt lat="45.15762" lon="5.63684">
        <ele>1570</ele>
        <time>2014-06-28T09:16:47.000Z</time>
      </trkpt>
      <trkpt lat="45.15764" lon="5.63684">
        <ele>1570</ele>
        <time>2014-06-28T09:16:48.000Z</time>
      </trkpt>
      <trkpt lat="45.15767" lon="5.63685">
        <ele>1569</ele>
        <time>2014-06-28T09:16:49.000Z</time>
      </trkpt>
      <trkpt lat="45.15769" lon="5.63686">
        <ele>1569</ele>
        <time>2014-06-28T09:16:50.000Z</time>
      </trkpt>
      <trkpt lat="45.15772" lon="5.63687">
        <ele>1568</ele>
        <time>2014-06-28T09:16:51.000Z</time>
      </trkpt>
      <trkpt lat="45.15774" lon="5.63689">
        <ele>1568</ele>
        <time>2014-06-28T09:16:52.000Z</time>
      </trkpt>
      <trkpt lat="45.15777" lon="5.6369">
        <ele>1567</ele>
        <time>2014-06-28T09:16:53.000Z</time>
      </trkpt>
      <trkpt lat="45.15779" lon="5.6369">
        <ele>1566</ele>
        <time>2014-06-28T09:16:54.000Z</time>
      </trkpt>
      <trkpt lat="45.15782" lon="5.6369">
        <ele>1566</ele>
        <time>2014-06-28T09:16:55.000Z</time>
      </trkpt>
      <trkpt lat="45.15784" lon="5.6369">
        <ele>1565</ele>
        <time>2014-06-28T09:16:56.000Z</time>
      </trkpt>
      <trkpt lat="45.15786" lon="5.6369">
        <ele>1565</ele>
        <time>2014-06-28T09:16:57.000Z</time>
      </trkpt>
      <trkpt lat="45.15788" lon="5.6369">
        <ele>1564</ele>
        <time>2014-06-28T09:16:58.000Z</time>
      </trkpt>
      <trkpt lat="45.1579" lon="5.63691">
        <ele>1564</ele>
        <time>2014-06-28T09:16:59.000Z</time>
      </trkpt>
      <trkpt lat="45.15792" lon="5.63693">
        <ele>1563</ele>
        <time>2014-06-28T09:17:00.000Z</time>
      </trkpt>
      <trkpt lat="45.15794" lon="5.63695">
        <ele>1562</ele>
        <time>2014-06-28T09:17:01.000Z</time>
      </trkpt>
      <trkpt lat="45.15797" lon="5.63696">
        <ele>1562</ele>
        <time>2014-06-28T09:17:02.000Z</time>
      </trkpt>
      <trkpt lat="45.15799" lon="5.63697">
        <ele>1561</ele>
        <time>2014-06-28T09:17:03.000Z</time>
      </trkpt>
      <trkpt lat="45.15801" lon="5.63697">
        <ele>1561</ele>
        <time>2014-06-28T09:17:04.000Z</time>
      </trkpt>
      <trkpt lat="45.15802" lon="5.63697">
        <ele>1561</ele>
        <time>2014-06-28T09:17:05.000Z</time>
      </trkpt>
      <trkpt lat="45.15804" lon="5.63697">
        <ele>1560</ele>
        <time>2014-06-28T09:17:06.000Z</time>
      </trkpt>
      <trkpt lat="45.15806" lon="5.63696">
        <ele>1560</ele>
        <time>2014-06-28T09:17:07.000Z</time>
      </trkpt>
      <trkpt lat="45.15808" lon="5.63696">
        <ele>1560</ele>
        <time>2014-06-28T09:17:08.000Z</time>
      </trkpt>
      <trkpt lat="45.1581" lon="5.63696">
        <ele>1559</ele>
        <time>2014-06-28T09:17:09.000Z</time>
      </trkpt>
      <trkpt lat="45.15812" lon="5.63696">
        <ele>1559</ele>
        <time>2014-06-28T09:17:10.000Z</time>
      </trkpt>
      <trkpt lat="45.15814" lon="5.63696">
        <ele>1558</ele>
        <time>2014-06-28T09:17:11.000Z</time>
      </trkpt>
      <trkpt lat="45.15816" lon="5.63696">
        <ele>1557</ele>
        <time>2014-06-28T09:17:12.000Z</time>
      </trkpt>
      <trkpt lat="45.15818" lon="5.63697">
        <ele>1557</ele>
        <time>2014-06-28T09:17:13.000Z</time>
      </trkpt>
      <trkpt lat="45.15819" lon="5.63697">
        <ele>1556</ele>
        <time>2014-06-28T09:17:14.000Z</time>
      </trkpt>
      <trkpt lat="45.15821" lon="5.63697">
        <ele>1556</ele>
        <time>2014-06-28T09:17:15.000Z</time>
      </trkpt>
      <trkpt lat="45.15822" lon="5.63696">
        <ele>1556</ele>
        <time>2014-06-28T09:17:16.000Z</time>
      </trkpt>
      <trkpt lat="45.15824" lon="5.63696">
        <ele>1555</ele>
        <time>2014-06-28T09:17:17.000Z</time>
      </trkpt>
      <trkpt lat="45.15826" lon="5.63696">
        <ele>1555</ele>
        <time>2014-06-28T09:17:18.000Z</time>
      </trkpt>
      <trkpt lat="45.15828" lon="5.63696">
        <ele>1554</ele>
        <time>2014-06-28T09:17:19.000Z</time>
      </trkpt>
      <trkpt lat="45.1583" lon="5.63695">
        <ele>1554</ele>
        <time>2014-06-28T09:17:20.000Z</time>
      </trkpt>
      <trkpt lat="45.15832" lon="5.63695">
        <ele>1553</ele>
        <time>2014-06-28T09:17:21.000Z</time>
      </trkpt>
      <trkpt lat="45.15835" lon="5.63695">
        <ele>1553</ele>
        <time>2014-06-28T09:17:22.000Z</time>
      </trkpt>
      <trkpt lat="45.15838" lon="5.63695">
        <ele>1552</ele>
        <time>2014-06-28T09:17:23.000Z</time>
      </trkpt>
      <trkpt lat="45.15841" lon="5.63694">
        <ele>1552</ele>
        <time>2014-06-28T09:17:24.000Z</time>
      </trkpt>
      <trkpt lat="45.15843" lon="5.63694">
        <ele>1551</ele>
        <time>2014-06-28T09:17:25.000Z</time>
      </trkpt>
      <trkpt lat="45.15846" lon="5.63694">
        <ele>1550</ele>
        <time>2014-06-28T09:17:26.000Z</time>
      </trkpt>
      <trkpt lat="45.15848" lon="5.63694">
        <ele>1550</ele>
        <time>2014-06-28T09:17:27.000Z</time>
      </trkpt>
      <trkpt lat="45.15851" lon="5.63694">
        <ele>1549</ele>
        <time>2014-06-28T09:17:28.000Z</time>
      </trkpt>
      <trkpt lat="45.15854" lon="5.63695">
        <ele>1548</ele>
        <time>2014-06-28T09:17:29.000Z</time>
      </trkpt>
      <trkpt lat="45.15856" lon="5.63696">
        <ele>1547</ele>
        <time>2014-06-28T09:17:30.000Z</time>
      </trkpt>
      <trkpt lat="45.15859" lon="5.63698">
        <ele>1547</ele>
        <time>2014-06-28T09:17:31.000Z</time>
      </trkpt>
      <trkpt lat="45.15862" lon="5.63699">
        <ele>1546</ele>
        <time>2014-06-28T09:17:32.000Z</time>
      </trkpt>
      <trkpt lat="45.15864" lon="5.63699">
        <ele>1546</ele>
        <time>2014-06-28T09:17:33.000Z</time>
      </trkpt>
      <trkpt lat="45.15867" lon="5.637">
        <ele>1545</ele>
        <time>2014-06-28T09:17:34.000Z</time>
      </trkpt>
      <trkpt lat="45.15869" lon="5.63701">
        <ele>1544</ele>
        <time>2014-06-28T09:17:35.000Z</time>
      </trkpt>
      <trkpt lat="45.15872" lon="5.63703">
        <ele>1544</ele>
        <time>2014-06-28T09:17:36.000Z</time>
      </trkpt>
      <trkpt lat="45.15875" lon="5.63704">
        <ele>1543</ele>
        <time>2014-06-28T09:17:37.000Z</time>
      </trkpt>
      <trkpt lat="45.15878" lon="5.63706">
        <ele>1542</ele>
        <time>2014-06-28T09:17:38.000Z</time>
      </trkpt>
      <trkpt lat="45.15881" lon="5.63708">
        <ele>1542</ele>
        <time>2014-06-28T09:17:39.000Z</time>
      </trkpt>
      <trkpt lat="45.15883" lon="5.63709">
        <ele>1541</ele>
        <time>2014-06-28T09:17:40.000Z</time>
      </trkpt>
      <trkpt lat="45.15886" lon="5.6371">
        <ele>1540</ele>
        <time>2014-06-28T09:17:41.000Z</time>
      </trkpt>
      <trkpt lat="45.15889" lon="5.63711">
        <ele>1540</ele>
        <time>2014-06-28T09:17:42.000Z</time>
      </trkpt>
      <trkpt lat="45.15891" lon="5.63711">
        <ele>1539</ele>
        <time>2014-06-28T09:17:43.000Z</time>
      </trkpt>
      <trkpt lat="45.15894" lon="5.63712">
        <ele>1538</ele>
        <time>2014-06-28T09:17:44.000Z</time>
      </trkpt>
      <trkpt lat="45.15896" lon="5.63712">
        <ele>1538</ele>
        <time>2014-06-28T09:17:45.000Z</time>
      </trkpt>
      <trkpt lat="45.15899" lon="5.63713">
        <ele>1537</ele>
        <time>2014-06-28T09:17:46.000Z</time>
      </trkpt>
      <trkpt lat="45.15902" lon="5.63714">
        <ele>1537</ele>
        <time>2014-06-28T09:17:47.000Z</time>
      </trkpt>
      <trkpt lat="45.15905" lon="5.63714">
        <ele>1536</ele>
        <time>2014-06-28T09:17:48.000Z</time>
      </trkpt>
      <trkpt lat="45.15909" lon="5.63715">
        <ele>1536</ele>
        <time>2014-06-28T09:17:49.000Z</time>
      </trkpt>
      <trkpt lat="45.15911" lon="5.63715">
        <ele>1535</ele>
        <time>2014-06-28T09:17:50.000Z</time>
      </trkpt>
      <trkpt lat="45.15915" lon="5.63715">
        <ele>1535</ele>
        <time>2014-06-28T09:17:51.000Z</time>
      </trkpt>
      <trkpt lat="45.15917" lon="5.63716">
        <ele>1534</ele>
        <time>2014-06-28T09:17:52.000Z</time>
      </trkpt>
      <trkpt lat="45.1592" lon="5.63717">
        <ele>1534</ele>
        <time>2014-06-28T09:17:53.000Z</time>
      </trkpt>
      <trkpt lat="45.15924" lon="5.63718">
        <ele>1534</ele>
        <time>2014-06-28T09:17:54.000Z</time>
      </trkpt>
      <trkpt lat="45.15927" lon="5.63719">
        <ele>1533</ele>
        <time>2014-06-28T09:17:55.000Z</time>
      </trkpt>
      <trkpt lat="45.1593" lon="5.6372">
        <ele>1533</ele>
        <time>2014-06-28T09:17:56.000Z</time>
      </trkpt>
      <trkpt lat="45.15934" lon="5.6372">
        <ele>1533</ele>
        <time>2014-06-28T09:17:57.000Z</time>
      </trkpt>
      <trkpt lat="45.15937" lon="5.63721">
        <ele>1532</ele>
        <time>2014-06-28T09:17:58.000Z</time>
      </trkpt>
      <trkpt lat="45.1594" lon="5.63722">
        <ele>1532</ele>
        <time>2014-06-28T09:17:59.000Z</time>
      </trkpt>
      <trkpt lat="45.15944" lon="5.63723">
        <ele>1532</ele>
        <time>2014-06-28T09:18:00.000Z</time>
      </trkpt>
      <trkpt lat="45.15947" lon="5.63724">
        <ele>1531</ele>
        <time>2014-06-28T09:18:01.000Z</time>
      </trkpt>
      <trkpt lat="45.1595" lon="5.63724">
        <ele>1531</ele>
        <time>2014-06-28T09:18:02.000Z</time>
      </trkpt>
      <trkpt lat="45.15953" lon="5.63725">
        <ele>1531</ele>
        <time>2014-06-28T09:18:03.000Z</time>
      </trkpt>
      <trkpt lat="45.15956" lon="5.63726">
        <ele>1531</ele>
        <time>2014-06-28T09:18:04.000Z</time>
      </trkpt>
      <trkpt lat="45.15958" lon="5.63726">
        <ele>1530</ele>
        <time>2014-06-28T09:18:05.000Z</time>
      </trkpt>
      <trkpt lat="45.15961" lon="5.63727">
        <ele>1530</ele>
        <time>2014-06-28T09:18:06.000Z</time>
      </trkpt>
      <trkpt lat="45.15963" lon="5.63727">
        <ele>1529</ele>
        <time>2014-06-28T09:18:07.000Z</time>
      </trkpt>
      <trkpt lat="45.15966" lon="5.63727">
        <ele>1529</ele>
        <time>2014-06-28T09:18:08.000Z</time>
      </trkpt>
      <trkpt lat="45.15969" lon="5.63727">
        <ele>1529</ele>
        <time>2014-06-28T09:18:09.000Z</time>
      </trkpt>
      <trkpt lat="45.15971" lon="5.63726">
        <ele>1528</ele>
        <time>2014-06-28T09:18:10.000Z</time>
      </trkpt>
      <trkpt lat="45.15974" lon="5.63726">
        <ele>1528</ele>
        <time>2014-06-28T09:18:11.000Z</time>
      </trkpt>
      <trkpt lat="45.15976" lon="5.63725">
        <ele>1527</ele>
        <time>2014-06-28T09:18:12.000Z</time>
      </trkpt>
      <trkpt lat="45.15979" lon="5.63724">
        <ele>1527</ele>
        <time>2014-06-28T09:18:13.000Z</time>
      </trkpt>
      <trkpt lat="45.15981" lon="5.63722">
        <ele>1526</ele>
        <time>2014-06-28T09:18:14.000Z</time>
      </trkpt>
      <trkpt lat="45.15984" lon="5.6372">
        <ele>1526</ele>
        <time>2014-06-28T09:18:15.000Z</time>
      </trkpt>
      <trkpt lat="45.15986" lon="5.63718">
        <ele>1525</ele>
        <time>2014-06-28T09:18:16.000Z</time>
      </trkpt>
      <trkpt lat="45.15988" lon="5.63715">
        <ele>1524</ele>
        <time>2014-06-28T09:18:17.000Z</time>
      </trkpt>
      <trkpt lat="45.1599" lon="5.63712">
        <ele>1524</ele>
        <time>2014-06-28T09:18:18.000Z</time>
      </trkpt>
      <trkpt lat="45.15991" lon="5.63709">
        <ele>1523</ele>
        <time>2014-06-28T09:18:19.000Z</time>
      </trkpt>
      <trkpt lat="45.15991" lon="5.63706">
        <ele>1523</ele>
        <time>2014-06-28T09:18:20.000Z</time>
      </trkpt>
      <trkpt lat="45.15991" lon="5.63703">
        <ele>1522</ele>
        <time>2014-06-28T09:18:21.000Z</time>
      </trkpt>
      <trkpt lat="45.15991" lon="5.63699">
        <ele>1522</ele>
        <time>2014-06-28T09:18:22.000Z</time>
      </trkpt>
      <trkpt lat="45.1599" lon="5.63696">
        <ele>1522</ele>
        <time>2014-06-28T09:18:23.000Z</time>
      </trkpt>
      <trkpt lat="45.15989" lon="5.63693">
        <ele>1521</ele>
        <time>2014-06-28T09:18:24.000Z</time>
      </trkpt>
      <trkpt lat="45.15988" lon="5.63689">
        <ele>1521</ele>
        <time>2014-06-28T09:18:25.000Z</time>
      </trkpt>
      <trkpt lat="45.15987" lon="5.63686">
        <ele>1520</ele>
        <time>2014-06-28T09:18:26.000Z</time>
      </trkpt>
      <trkpt lat="45.15986" lon="5.63683">
        <ele>1520</ele>
        <time>2014-06-28T09:18:27.000Z</time>
      </trkpt>
      <trkpt lat="45.15986" lon="5.6368">
        <ele>1520</ele>
        <time>2014-06-28T09:18:28.000Z</time>
      </trkpt>
      <trkpt lat="45.15985" lon="5.63677">
        <ele>1519</ele>
        <time>2014-06-28T09:18:29.000Z</time>
      </trkpt>
      <trkpt lat="45.15985" lon="5.63674">
        <ele>1519</ele>
        <time>2014-06-28T09:18:30.000Z</time>
      </trkpt>
      <trkpt lat="45.15985" lon="5.63671">
        <ele>1518</ele>
        <time>2014-06-28T09:18:31.000Z</time>
      </trkpt>
      <trkpt lat="45.15985" lon="5.63668">
        <ele>1518</ele>
        <time>2014-06-28T09:18:32.000Z</time>
      </trkpt>
      <trkpt lat="45.15985" lon="5.63665">
        <ele>1518</ele>
        <time>2014-06-28T09:18:33.000Z</time>
      </trkpt>
      <trkpt lat="45.15984" lon="5.63662">
        <ele>1517</ele>
        <time>2014-06-28T09:18:34.000Z</time>
      </trkpt>
      <trkpt lat="45.15984" lon="5.63659">
        <ele>1517</ele>
        <time>2014-06-28T09:18:35.000Z</time>
      </trkpt>
      <trkpt lat="45.15983" lon="5.63656">
        <ele>1517</ele>
        <time>2014-06-28T09:18:36.000Z</time>
      </trkpt>
      <trkpt lat="45.15983" lon="5.63653">
        <ele>1516</ele>
        <time>2014-06-28T09:18:37.000Z</time>
      </trkpt>
      <trkpt lat="45.15983" lon="5.63651">
        <ele>1516</ele>
        <time>2014-06-28T09:18:38.000Z</time>
      </trkpt>
      <trkpt lat="45.15984" lon="5.63648">
        <ele>1516</ele>
        <time>2014-06-28T09:18:39.000Z</time>
      </trkpt>
      <trkpt lat="45.15984" lon="5.63645">
        <ele>1515</ele>
        <time>2014-06-28T09:18:40.000Z</time>
      </trkpt>
      <trkpt lat="45.15984" lon="5.63644">
        <ele>1515</ele>
        <time>2014-06-28T09:18:41.000Z</time>
      </trkpt>
      <trkpt lat="45.15984" lon="5.63642">
        <ele>1515</ele>
        <time>2014-06-28T09:18:42.000Z</time>
      </trkpt>
      <trkpt lat="45.15983" lon="5.63639">
        <ele>1514</ele>
        <time>2014-06-28T09:18:43.000Z</time>
      </trkpt>
      <trkpt lat="45.15983" lon="5.63637">
        <ele>1514</ele>
        <time>2014-06-28T09:18:44.000Z</time>
      </trkpt>
      <trkpt lat="45.15982" lon="5.63635">
        <ele>1514</ele>
        <time>2014-06-28T09:18:45.000Z</time>
      </trkpt>
      <trkpt lat="45.15981" lon="5.63632">
        <ele>1513</ele>
        <time>2014-06-28T09:18:46.000Z</time>
      </trkpt>
      <trkpt lat="45.15981" lon="5.6363">
        <ele>1513</ele>
        <time>2014-06-28T09:18:47.000Z</time>
      </trkpt>
      <trkpt lat="45.15981" lon="5.63628">
        <ele>1512</ele>
        <time>2014-06-28T09:18:48.000Z</time>
      </trkpt>
      <trkpt lat="45.1598" lon="5.63625">
        <ele>1512</ele>
        <time>2014-06-28T09:18:49.000Z</time>
      </trkpt>
      <trkpt lat="45.1598" lon="5.63623">
        <ele>1511</ele>
        <time>2014-06-28T09:18:50.000Z</time>
      </trkpt>
      <trkpt lat="45.1598" lon="5.6362">
        <ele>1511</ele>
        <time>2014-06-28T09:18:51.000Z</time>
      </trkpt>
      <trkpt lat="45.1598" lon="5.63618">
        <ele>1511</ele>
        <time>2014-06-28T09:18:52.000Z</time>
      </trkpt>
      <trkpt lat="45.1598" lon="5.63615">
        <ele>1510</ele>
        <time>2014-06-28T09:18:53.000Z</time>
      </trkpt>
      <trkpt lat="45.15979" lon="5.63612">
        <ele>1510</ele>
        <time>2014-06-28T09:18:54.000Z</time>
      </trkpt>
      <trkpt lat="45.15979" lon="5.63609">
        <ele>1510</ele>
        <time>2014-06-28T09:18:55.000Z</time>
      </trkpt>
      <trkpt lat="45.15978" lon="5.63606">
        <ele>1509</ele>
        <time>2014-06-28T09:18:56.000Z</time>
      </trkpt>
      <trkpt lat="45.15978" lon="5.63603">
        <ele>1509</ele>
        <time>2014-06-28T09:18:57.000Z</time>
      </trkpt>
      <trkpt lat="45.15978" lon="5.63599">
        <ele>1509</ele>
        <time>2014-06-28T09:18:58.000Z</time>
      </trkpt>
      <trkpt lat="45.15978" lon="5.63596">
        <ele>1508</ele>
        <time>2014-06-28T09:18:59.000Z</time>
      </trkpt>
      <trkpt lat="45.15979" lon="5.63592">
        <ele>1508</ele>
        <time>2014-06-28T09:19:00.000Z</time>
      </trkpt>
      <trkpt lat="45.15978" lon="5.63589">
        <ele>1507</ele>
        <time>2014-06-28T09:19:01.000Z</time>
      </trkpt>
      <trkpt lat="45.15978" lon="5.63585">
        <ele>1507</ele>
        <time>2014-06-28T09:19:02.000Z</time>
      </trkpt>
      <trkpt lat="45.15978" lon="5.63582">
        <ele>1506</ele>
        <time>2014-06-28T09:19:03.000Z</time>
      </trkpt>
      <trkpt lat="45.15978" lon="5.63579">
        <ele>1506</ele>
        <time>2014-06-28T09:19:04.000Z</time>
      </trkpt>
      <trkpt lat="45.15978" lon="5.63576">
        <ele>1505</ele>
        <time>2014-06-28T09:19:05.000Z</time>
      </trkpt>
      <trkpt lat="45.15977" lon="5.63573">
        <ele>1505</ele>
        <time>2014-06-28T09:19:06.000Z</time>
      </trkpt>
      <trkpt lat="45.15976" lon="5.63569">
        <ele>1504</ele>
        <time>2014-06-28T09:19:07.000Z</time>
      </trkpt>
      <trkpt lat="45.15976" lon="5.63566">
        <ele>1504</ele>
        <time>2014-06-28T09:19:08.000Z</time>
      </trkpt>
      <trkpt lat="45.15976" lon="5.63562">
        <ele>1503</ele>
        <time>2014-06-28T09:19:09.000Z</time>
      </trkpt>
      <trkpt lat="45.15976" lon="5.63558">
        <ele>1503</ele>
        <time>2014-06-28T09:19:10.000Z</time>
      </trkpt>
      <trkpt lat="45.15976" lon="5.63554">
        <ele>1502</ele>
        <time>2014-06-28T09:19:11.000Z</time>
      </trkpt>
      <trkpt lat="45.15975" lon="5.6355">
        <ele>1502</ele>
        <time>2014-06-28T09:19:12.000Z</time>
      </trkpt>
      <trkpt lat="45.15975" lon="5.63546">
        <ele>1501</ele>
        <time>2014-06-28T09:19:13.000Z</time>
      </trkpt>
      <trkpt lat="45.15975" lon="5.63542">
        <ele>1500</ele>
        <time>2014-06-28T09:19:14.000Z</time>
      </trkpt>
      <trkpt lat="45.15974" lon="5.63538">
        <ele>1500</ele>
        <time>2014-06-28T09:19:15.000Z</time>
      </trkpt>
      <trkpt lat="45.15973" lon="5.63534">
        <ele>1499</ele>
        <time>2014-06-28T09:19:16.000Z</time>
      </trkpt>
      <trkpt lat="45.15973" lon="5.6353">
        <ele>1498</ele>
        <time>2014-06-28T09:19:17.000Z</time>
      </trkpt>
      <trkpt lat="45.15972" lon="5.63526">
        <ele>1498</ele>
        <time>2014-06-28T09:19:18.000Z</time>
      </trkpt>
      <trkpt lat="45.15971" lon="5.63522">
        <ele>1497</ele>
        <time>2014-06-28T09:19:19.000Z</time>
      </trkpt>
      <trkpt lat="45.15971" lon="5.63519">
        <ele>1497</ele>
        <time>2014-06-28T09:19:20.000Z</time>
      </trkpt>
      <trkpt lat="45.15971" lon="5.63515">
        <ele>1496</ele>
        <time>2014-06-28T09:19:21.000Z</time>
      </trkpt>
      <trkpt lat="45.15971" lon="5.63511">
        <ele>1496</ele>
        <time>2014-06-28T09:19:22.000Z</time>
      </trkpt>
      <trkpt lat="45.15971" lon="5.63508">
        <ele>1495</ele>
        <time>2014-06-28T09:19:23.000Z</time>
      </trkpt>
      <trkpt lat="45.15972" lon="5.63505">
        <ele>1495</ele>
        <time>2014-06-28T09:19:24.000Z</time>
      </trkpt>
      <trkpt lat="45.15972" lon="5.63501">
        <ele>1494</ele>
        <time>2014-06-28T09:19:25.000Z</time>
      </trkpt>
      <trkpt lat="45.15971" lon="5.63497">
        <ele>1493</ele>
        <time>2014-06-28T09:19:26.000Z</time>
      </trkpt>
      <trkpt lat="45.15971" lon="5.63493">
        <ele>1493</ele>
        <time>2014-06-28T09:19:27.000Z</time>
      </trkpt>
      <trkpt lat="45.15971" lon="5.63488">
        <ele>1492</ele>
        <time>2014-06-28T09:19:28.000Z</time>
      </trkpt>
      <trkpt lat="45.1597" lon="5.63484">
        <ele>1492</ele>
        <time>2014-06-28T09:19:29.000Z</time>
      </trkpt>
      <trkpt lat="45.1597" lon="5.6348">
        <ele>1491</ele>
        <time>2014-06-28T09:19:30.000Z</time>
      </trkpt>
      <trkpt lat="45.1597" lon="5.63476">
        <ele>1491</ele>
        <time>2014-06-28T09:19:31.000Z</time>
      </trkpt>
      <trkpt lat="45.1597" lon="5.63473">
        <ele>1490</ele>
        <time>2014-06-28T09:19:32.000Z</time>
      </trkpt>
      <trkpt lat="45.1597" lon="5.63469">
        <ele>1489</ele>
        <time>2014-06-28T09:19:33.000Z</time>
      </trkpt>
      <trkpt lat="45.1597" lon="5.63466">
        <ele>1489</ele>
        <time>2014-06-28T09:19:34.000Z</time>
      </trkpt>
      <trkpt lat="45.1597" lon="5.63463">
        <ele>1488</ele>
        <time>2014-06-28T09:19:35.000Z</time>
      </trkpt>
      <trkpt lat="45.1597" lon="5.6346">
        <ele>1488</ele>
        <time>2014-06-28T09:19:36.000Z</time>
      </trkpt>
      <trkpt lat="45.1597" lon="5.63458">
        <ele>1487</ele>
        <time>2014-06-28T09:19:37.000Z</time>
      </trkpt>
      <trkpt lat="45.1597" lon="5.63455">
        <ele>1486</ele>
        <time>2014-06-28T09:19:38.000Z</time>
      </trkpt>
      <trkpt lat="45.1597" lon="5.63452">
        <ele>1486</ele>
        <time>2014-06-28T09:19:39.000Z</time>
      </trkpt>
      <trkpt lat="45.1597" lon="5.63449">
        <ele>1485</ele>
        <time>2014-06-28T09:19:40.000Z</time>
      </trkpt>
      <trkpt lat="45.15971" lon="5.63446">
        <ele>1484</ele>
        <time>2014-06-28T09:19:41.000Z</time>
      </trkpt>
      <trkpt lat="45.15972" lon="5.63442">
        <ele>1484</ele>
        <time>2014-06-28T09:19:42.000Z</time>
      </trkpt>
      <trkpt lat="45.15972" lon="5.63439">
        <ele>1483</ele>
        <time>2014-06-28T09:19:43.000Z</time>
      </trkpt>
      <trkpt lat="45.15973" lon="5.63435">
        <ele>1483</ele>
        <time>2014-06-28T09:19:44.000Z</time>
      </trkpt>
      <trkpt lat="45.15973" lon="5.63432">
        <ele>1482</ele>
        <time>2014-06-28T09:19:45.000Z</time>
      </trkpt>
      <trkpt lat="45.15973" lon="5.63428">
        <ele>1482</ele>
        <time>2014-06-28T09:19:46.000Z</time>
      </trkpt>
      <trkpt lat="45.15974" lon="5.63425">
        <ele>1481</ele>
        <time>2014-06-28T09:19:47.000Z</time>
      </trkpt>
      <trkpt lat="45.15974" lon="5.63423">
        <ele>1480</ele>
        <time>2014-06-28T09:19:48.000Z</time>
      </trkpt>
      <trkpt lat="45.15975" lon="5.6342">
        <ele>1480</ele>
        <time>2014-06-28T09:19:49.000Z</time>
      </trkpt>
      <trkpt lat="45.15976" lon="5.63418">
        <ele>1479</ele>
        <time>2014-06-28T09:19:50.000Z</time>
      </trkpt>
      <trkpt lat="45.15978" lon="5.63416">
        <ele>1478</ele>
        <time>2014-06-28T09:19:51.000Z</time>
      </trkpt>
      <trkpt lat="45.15979" lon="5.63413">
        <ele>1477</ele>
        <time>2014-06-28T09:19:52.000Z</time>
      </trkpt>
      <trkpt lat="45.1598" lon="5.63411">
        <ele>1476</ele>
        <time>2014-06-28T09:19:53.000Z</time>
      </trkpt>
      <trkpt lat="45.15981" lon="5.63409">
        <ele>1475</ele>
        <time>2014-06-28T09:19:54.000Z</time>
      </trkpt>
      <trkpt lat="45.15982" lon="5.63407">
        <ele>1475</ele>
        <time>2014-06-28T09:19:55.000Z</time>
      </trkpt>
      <trkpt lat="45.15984" lon="5.63405">
        <ele>1474</ele>
        <time>2014-06-28T09:19:56.000Z</time>
      </trkpt>
      <trkpt lat="45.15985" lon="5.63403">
        <ele>1473</ele>
        <time>2014-06-28T09:19:57.000Z</time>
      </trkpt>
      <trkpt lat="45.15987" lon="5.63401">
        <ele>1472</ele>
        <time>2014-06-28T09:19:58.000Z</time>
      </trkpt>
      <trkpt lat="45.15988" lon="5.63399">
        <ele>1471</ele>
        <time>2014-06-28T09:19:59.000Z</time>
      </trkpt>
      <trkpt lat="45.1599" lon="5.63398">
        <ele>1471</ele>
        <time>2014-06-28T09:20:00.000Z</time>
      </trkpt>
      <trkpt lat="45.15992" lon="5.63396">
        <ele>1470</ele>
        <time>2014-06-28T09:20:01.000Z</time>
      </trkpt>
      <trkpt lat="45.15995" lon="5.63395">
        <ele>1469</ele>
        <time>2014-06-28T09:20:02.000Z</time>
      </trkpt>
      <trkpt lat="45.15997" lon="5.63393">
        <ele>1468</ele>
        <time>2014-06-28T09:20:03.000Z</time>
      </trkpt>
      <trkpt lat="45.15999" lon="5.63391">
        <ele>1468</ele>
        <time>2014-06-28T09:20:04.000Z</time>
      </trkpt>
      <trkpt lat="45.16001" lon="5.63389">
        <ele>1467</ele>
        <time>2014-06-28T09:20:05.000Z</time>
      </trkpt>
      <trkpt lat="45.16004" lon="5.63387">
        <ele>1466</ele>
        <time>2014-06-28T09:20:06.000Z</time>
      </trkpt>
      <trkpt lat="45.16006" lon="5.63385">
        <ele>1465</ele>
        <time>2014-06-28T09:20:07.000Z</time>
      </trkpt>
      <trkpt lat="45.16009" lon="5.63384">
        <ele>1465</ele>
        <time>2014-06-28T09:20:08.000Z</time>
      </trkpt>
      <trkpt lat="45.16011" lon="5.63382">
        <ele>1464</ele>
        <time>2014-06-28T09:20:09.000Z</time>
      </trkpt>
      <trkpt lat="45.16014" lon="5.63381">
        <ele>1463</ele>
        <time>2014-06-28T09:20:10.000Z</time>
      </trkpt>
      <trkpt lat="45.16017" lon="5.63381">
        <ele>1462</ele>
        <time>2014-06-28T09:20:11.000Z</time>
      </trkpt>
      <trkpt lat="45.16019" lon="5.6338">
        <ele>1462</ele>
        <time>2014-06-28T09:20:12.000Z</time>
      </trkpt>
      <trkpt lat="45.16021" lon="5.6338">
        <ele>1461</ele>
        <time>2014-06-28T09:20:13.000Z</time>
      </trkpt>
      <trkpt lat="45.16023" lon="5.63379">
        <ele>1461</ele>
        <time>2014-06-28T09:20:14.000Z</time>
      </trkpt>
      <trkpt lat="45.16023" lon="5.63379">
        <ele>1460</ele>
        <time>2014-06-28T09:20:15.000Z</time>
      </trkpt>
      <trkpt lat="45.16024" lon="5.63379">
        <ele>1460</ele>
        <time>2014-06-28T09:20:16.000Z</time>
      </trkpt>
      <trkpt lat="45.16024" lon="5.63378">
        <ele>1459</ele>
        <time>2014-06-28T09:20:17.000Z</time>
      </trkpt>
      <trkpt lat="45.16025" lon="5.63379">
        <ele>1459</ele>
        <time>2014-06-28T09:20:18.000Z</time>
      </trkpt>
      <trkpt lat="45.16025" lon="5.63378">
        <ele>1458</ele>
        <time>2014-06-28T09:20:19.000Z</time>
      </trkpt>
      <trkpt lat="45.16024" lon="5.63378">
        <ele>1458</ele>
        <time>2014-06-28T09:20:20.000Z</time>
      </trkpt>
      <trkpt lat="45.16024" lon="5.63378">
        <ele>1458</ele>
        <time>2014-06-28T09:20:21.000Z</time>
      </trkpt>
      <trkpt lat="45.16024" lon="5.63378">
        <ele>1457</ele>
        <time>2014-06-28T09:20:22.000Z</time>
      </trkpt>
      <trkpt lat="45.16024" lon="5.63377">
        <ele>1457</ele>
        <time>2014-06-28T09:20:23.000Z</time>
      </trkpt>
      <trkpt lat="45.16024" lon="5.63377">
        <ele>1457</ele>
        <time>2014-06-28T09:20:24.000Z</time>
      </trkpt>
      <trkpt lat="45.16024" lon="5.63377">
        <ele>1457</ele>
        <time>2014-06-28T09:20:25.000Z</time>
      </trkpt>
      <trkpt lat="45.16023" lon="5.63377">
        <ele>1457</ele>
        <time>2014-06-28T09:20:26.000Z</time>
      </trkpt>
      <trkpt lat="45.16023" lon="5.63377">
        <ele>1457</ele>
        <time>2014-06-28T09:20:27.000Z</time>
      </trkpt>
      <trkpt lat="45.16023" lon="5.63377">
        <ele>1457</ele>
        <time>2014-06-28T09:20:28.000Z</time>
      </trkpt>
      <trkpt lat="45.16023" lon="5.63377">
        <ele>1456</ele>
        <time>2014-06-28T09:20:29.000Z</time>
      </trkpt>
      <trkpt lat="45.16023" lon="5.63377">
        <ele>1456</ele>
        <time>2014-06-28T09:20:30.000Z</time>
      </trkpt>
      <trkpt lat="45.16023" lon="5.63378">
        <ele>1456</ele>
        <time>2014-06-28T09:20:31.000Z</time>
      </trkpt>
      <trkpt lat="45.16023" lon="5.63378">
        <ele>1456</ele>
        <time>2014-06-28T09:20:32.000Z</time>
      </trkpt>
      <trkpt lat="45.16024" lon="5.63379">
        <ele>1456</ele>
        <time>2014-06-28T09:20:33.000Z</time>
      </trkpt>
      <trkpt lat="45.16024" lon="5.6338">
        <ele>1456</ele>
        <time>2014-06-28T09:20:34.000Z</time>
      </trkpt>
      <trkpt lat="45.16025" lon="5.63381">
        <ele>1455</ele>
        <time>2014-06-28T09:20:35.000Z</time>
      </trkpt>
      <trkpt lat="45.16025" lon="5.63383">
        <ele>1455</ele>
        <time>2014-06-28T09:20:36.000Z</time>
      </trkpt>
      <trkpt lat="45.16026" lon="5.63384">
        <ele>1455</ele>
        <time>2014-06-28T09:20:37.000Z</time>
      </trkpt>
      <trkpt lat="45.16027" lon="5.63385">
        <ele>1455</ele>
        <time>2014-06-28T09:20:38.000Z</time>
      </trkpt>
      <trkpt lat="45.16028" lon="5.63386">
        <ele>1455</ele>
        <time>2014-06-28T09:20:39.000Z</time>
      </trkpt>
      <trkpt lat="45.1603" lon="5.63386">
        <ele>1455</ele>
        <time>2014-06-28T09:20:40.000Z</time>
      </trkpt>
      <trkpt lat="45.16031" lon="5.63387">
        <ele>1454</ele>
        <time>2014-06-28T09:20:41.000Z</time>
      </trkpt>
      <trkpt lat="45.16033" lon="5.63387">
        <ele>1454</ele>
        <time>2014-06-28T09:20:42.000Z</time>
      </trkpt>
      <trkpt lat="45.16035" lon="5.63388">
        <ele>1454</ele>
        <time>2014-06-28T09:20:43.000Z</time>
      </trkpt>
      <trkpt lat="45.16038" lon="5.63388">
        <ele>1454</ele>
        <time>2014-06-28T09:20:44.000Z</time>
      </trkpt>
      <trkpt lat="45.16039" lon="5.63388">
        <ele>1454</ele>
        <time>2014-06-28T09:20:45.000Z</time>
      </trkpt>
      <trkpt lat="45.16041" lon="5.63388">
        <ele>1454</ele>
        <time>2014-06-28T09:20:46.000Z</time>
      </trkpt>
      <trkpt lat="45.16041" lon="5.63389">
        <ele>1454</ele>
        <time>2014-06-28T09:20:47.000Z</time>
      </trkpt>
      <trkpt lat="45.16041" lon="5.63388">
        <ele>1454</ele>
        <time>2014-06-28T09:20:48.000Z</time>
      </trkpt>
      <trkpt lat="45.16041" lon="5.63388">
        <ele>1454</ele>
        <time>2014-06-28T09:20:49.000Z</time>
      </trkpt>
      <trkpt lat="45.1604" lon="5.63388">
        <ele>1454</ele>
        <time>2014-06-28T09:20:50.000Z</time>
      </trkpt>
      <trkpt lat="45.1604" lon="5.63388">
        <ele>1454</ele>
        <time>2014-06-28T09:20:51.000Z</time>
      </trkpt>
      <trkpt lat="45.16039" lon="5.63388">
        <ele>1453</ele>
        <time>2014-06-28T09:20:52.000Z</time>
      </trkpt>
      <trkpt lat="45.16038" lon="5.63388">
        <ele>1453</ele>
        <time>2014-06-28T09:20:53.000Z</time>
      </trkpt>
      <trkpt lat="45.16037" lon="5.63389">
        <ele>1453</ele>
        <time>2014-06-28T09:20:54.000Z</time>
      </trkpt>
      <trkpt lat="45.16037" lon="5.6339">
        <ele>1453</ele>
        <time>2014-06-28T09:20:55.000Z</time>
      </trkpt>
      <trkpt lat="45.16036" lon="5.6339">
        <ele>1453</ele>
        <time>2014-06-28T09:20:56.000Z</time>
      </trkpt>
      <trkpt lat="45.16036" lon="5.63391">
        <ele>1452</ele>
        <time>2014-06-28T09:20:57.000Z</time>
      </trkpt>
      <trkpt lat="45.16036" lon="5.63393">
        <ele>1452</ele>
        <time>2014-06-28T09:20:58.000Z</time>
      </trkpt>
      <trkpt lat="45.16035" lon="5.63395">
        <ele>1452</ele>
        <time>2014-06-28T09:20:59.000Z</time>
      </trkpt>
      <trkpt lat="45.16035" lon="5.63398">
        <ele>1452</ele>
        <time>2014-06-28T09:21:00.000Z</time>
      </trkpt>
      <trkpt lat="45.16035" lon="5.634">
        <ele>1452</ele>
        <time>2014-06-28T09:21:01.000Z</time>
      </trkpt>
      <trkpt lat="45.16034" lon="5.63402">
        <ele>1452</ele>
        <time>2014-06-28T09:21:02.000Z</time>
      </trkpt>
      <trkpt lat="45.16033" lon="5.63405">
        <ele>1452</ele>
        <time>2014-06-28T09:21:03.000Z</time>
      </trkpt>
      <trkpt lat="45.16032" lon="5.63408">
        <ele>1452</ele>
        <time>2014-06-28T09:21:04.000Z</time>
      </trkpt>
      <trkpt lat="45.16032" lon="5.6341">
        <ele>1451</ele>
        <time>2014-06-28T09:21:05.000Z</time>
      </trkpt>
      <trkpt lat="45.16031" lon="5.63414">
        <ele>1451</ele>
        <time>2014-06-28T09:21:06.000Z</time>
      </trkpt>
      <trkpt lat="45.1603" lon="5.63417">
        <ele>1451</ele>
        <time>2014-06-28T09:21:07.000Z</time>
      </trkpt>
      <trkpt lat="45.1603" lon="5.6342">
        <ele>1451</ele>
        <time>2014-06-28T09:21:08.000Z</time>
      </trkpt>
      <trkpt lat="45.16031" lon="5.63424">
        <ele>1451</ele>
        <time>2014-06-28T09:21:09.000Z</time>
      </trkpt>
      <trkpt lat="45.16031" lon="5.63427">
        <ele>1451</ele>
        <time>2014-06-28T09:21:10.000Z</time>
      </trkpt>
      <trkpt lat="45.16031" lon="5.6343">
        <ele>1451</ele>
        <time>2014-06-28T09:21:11.000Z</time>
      </trkpt>
      <trkpt lat="45.1603" lon="5.63433">
        <ele>1451</ele>
        <time>2014-06-28T09:21:12.000Z</time>
      </trkpt>
      <trkpt lat="45.1603" lon="5.63435">
        <ele>1451</ele>
        <time>2014-06-28T09:21:13.000Z</time>
      </trkpt>
      <trkpt lat="45.1603" lon="5.63437">
        <ele>1451</ele>
        <time>2014-06-28T09:21:14.000Z</time>
      </trkpt>
      <trkpt lat="45.1603" lon="5.63439">
        <ele>1451</ele>
        <time>2014-06-28T09:21:15.000Z</time>
      </trkpt>
      <trkpt lat="45.16031" lon="5.63442">
        <ele>1451</ele>
        <time>2014-06-28T09:21:16.000Z</time>
      </trkpt>
      <trkpt lat="45.16031" lon="5.63444">
        <ele>1451</ele>
        <time>2014-06-28T09:21:17.000Z</time>
      </trkpt>
      <trkpt lat="45.16031" lon="5.63447">
        <ele>1451</ele>
        <time>2014-06-28T09:21:18.000Z</time>
      </trkpt>
      <trkpt lat="45.16031" lon="5.63449">
        <ele>1451</ele>
        <time>2014-06-28T09:21:19.000Z</time>
      </trkpt>
      <trkpt lat="45.16032" lon="5.63452">
        <ele>1451</ele>
        <time>2014-06-28T09:21:20.000Z</time>
      </trkpt>
      <trkpt lat="45.16033" lon="5.63456">
        <ele>1451</ele>
        <time>2014-06-28T09:21:21.000Z</time>
      </trkpt>
      <trkpt lat="45.16033" lon="5.63459">
        <ele>1451</ele>
        <time>2014-06-28T09:21:22.000Z</time>
      </trkpt>
      <trkpt lat="45.16034" lon="5.63463">
        <ele>1451</ele>
        <time>2014-06-28T09:21:23.000Z</time>
      </trkpt>
      <trkpt lat="45.16034" lon="5.63466">
        <ele>1451</ele>
        <time>2014-06-28T09:21:24.000Z</time>
      </trkpt>
      <trkpt lat="45.16035" lon="5.63468">
        <ele>1451</ele>
        <time>2014-06-28T09:21:25.000Z</time>
      </trkpt>
      <trkpt lat="45.16036" lon="5.63471">
        <ele>1451</ele>
        <time>2014-06-28T09:21:26.000Z</time>
      </trkpt>
      <trkpt lat="45.16036" lon="5.63474">
        <ele>1451</ele>
        <time>2014-06-28T09:21:27.000Z</time>
      </trkpt>
      <trkpt lat="45.16037" lon="5.63477">
        <ele>1451</ele>
        <time>2014-06-28T09:21:28.000Z</time>
      </trkpt>
      <trkpt lat="45.16038" lon="5.6348">
        <ele>1451</ele>
        <time>2014-06-28T09:21:29.000Z</time>
      </trkpt>
      <trkpt lat="45.16039" lon="5.63483">
        <ele>1451</ele>
        <time>2014-06-28T09:21:30.000Z</time>
      </trkpt>
      <trkpt lat="45.16039" lon="5.63487">
        <ele>1451</ele>
        <time>2014-06-28T09:21:31.000Z</time>
      </trkpt>
      <trkpt lat="45.1604" lon="5.63489">
        <ele>1450</ele>
        <time>2014-06-28T09:21:32.000Z</time>
      </trkpt>
      <trkpt lat="45.1604" lon="5.63492">
        <ele>1450</ele>
        <time>2014-06-28T09:21:33.000Z</time>
      </trkpt>
      <trkpt lat="45.1604" lon="5.63494">
        <ele>1450</ele>
        <time>2014-06-28T09:21:34.000Z</time>
      </trkpt>
      <trkpt lat="45.16041" lon="5.63496">
        <ele>1450</ele>
        <time>2014-06-28T09:21:35.000Z</time>
      </trkpt>
      <trkpt lat="45.16041" lon="5.63499">
        <ele>1450</ele>
        <time>2014-06-28T09:21:36.000Z</time>
      </trkpt>
      <trkpt lat="45.16042" lon="5.63501">
        <ele>1450</ele>
        <time>2014-06-28T09:21:37.000Z</time>
      </trkpt>
      <trkpt lat="45.16043" lon="5.63504">
        <ele>1450</ele>
        <time>2014-06-28T09:21:38.000Z</time>
      </trkpt>
      <trkpt lat="45.16044" lon="5.63507">
        <ele>1450</ele>
        <time>2014-06-28T09:21:39.000Z</time>
      </trkpt>
      <trkpt lat="45.16044" lon="5.6351">
        <ele>1450</ele>
        <time>2014-06-28T09:21:40.000Z</time>
      </trkpt>
      <trkpt lat="45.16045" lon="5.63512">
        <ele>1450</ele>
        <time>2014-06-28T09:21:41.000Z</time>
      </trkpt>
      <trkpt lat="45.16046" lon="5.63514">
        <ele>1450</ele>
        <time>2014-06-28T09:21:42.000Z</time>
      </trkpt>
      <trkpt lat="45.16046" lon="5.63517">
        <ele>1450</ele>
        <time>2014-06-28T09:21:43.000Z</time>
      </trkpt>
      <trkpt lat="45.16047" lon="5.63519">
        <ele>1450</ele>
        <time>2014-06-28T09:21:44.000Z</time>
      </trkpt>
      <trkpt lat="45.16047" lon="5.63522">
        <ele>1450</ele>
        <time>2014-06-28T09:21:45.000Z</time>
      </trkpt>
      <trkpt lat="45.16048" lon="5.63524">
        <ele>1449</ele>
        <time>2014-06-28T09:21:46.000Z</time>
      </trkpt>
      <trkpt lat="45.16048" lon="5.63526">
        <ele>1449</ele>
        <time>2014-06-28T09:21:47.000Z</time>
      </trkpt>
      <trkpt lat="45.16048" lon="5.63528">
        <ele>1449</ele>
        <time>2014-06-28T09:21:48.000Z</time>
      </trkpt>
      <trkpt lat="45.16049" lon="5.6353">
        <ele>1449</ele>
        <time>2014-06-28T09:21:49.000Z</time>
      </trkpt>
      <trkpt lat="45.16049" lon="5.63532">
        <ele>1449</ele>
        <time>2014-06-28T09:21:50.000Z</time>
      </trkpt>
      <trkpt lat="45.1605" lon="5.63533">
        <ele>1449</ele>
        <time>2014-06-28T09:21:51.000Z</time>
      </trkpt>
      <trkpt lat="45.1605" lon="5.63535">
        <ele>1449</ele>
        <time>2014-06-28T09:21:52.000Z</time>
      </trkpt>
      <trkpt lat="45.16051" lon="5.63538">
        <ele>1449</ele>
        <time>2014-06-28T09:21:53.000Z</time>
      </trkpt>
      <trkpt lat="45.16052" lon="5.6354">
        <ele>1449</ele>
        <time>2014-06-28T09:21:54.000Z</time>
      </trkpt>
      <trkpt lat="45.16052" lon="5.63542">
        <ele>1449</ele>
        <time>2014-06-28T09:21:55.000Z</time>
      </trkpt>
      <trkpt lat="45.16052" lon="5.63544">
        <ele>1449</ele>
        <time>2014-06-28T09:21:56.000Z</time>
      </trkpt>
      <trkpt lat="45.16053" lon="5.63547">
        <ele>1449</ele>
        <time>2014-06-28T09:21:57.000Z</time>
      </trkpt>
      <trkpt lat="45.16053" lon="5.63549">
        <ele>1449</ele>
        <time>2014-06-28T09:21:58.000Z</time>
      </trkpt>
      <trkpt lat="45.16053" lon="5.63552">
        <ele>1449</ele>
        <time>2014-06-28T09:21:59.000Z</time>
      </trkpt>
      <trkpt lat="45.16054" lon="5.63556">
        <ele>1449</ele>
        <time>2014-06-28T09:22:00.000Z</time>
      </trkpt>
      <trkpt lat="45.16054" lon="5.63559">
        <ele>1449</ele>
        <time>2014-06-28T09:22:01.000Z</time>
      </trkpt>
      <trkpt lat="45.16055" lon="5.63562">
        <ele>1449</ele>
        <time>2014-06-28T09:22:02.000Z</time>
      </trkpt>
      <trkpt lat="45.16055" lon="5.63565">
        <ele>1449</ele>
        <time>2014-06-28T09:22:03.000Z</time>
      </trkpt>
      <trkpt lat="45.16056" lon="5.63567">
        <ele>1449</ele>
        <time>2014-06-28T09:22:04.000Z</time>
      </trkpt>
      <trkpt lat="45.16057" lon="5.63569">
        <ele>1449</ele>
        <time>2014-06-28T09:22:05.000Z</time>
      </trkpt>
      <trkpt lat="45.16058" lon="5.6357">
        <ele>1449</ele>
        <time>2014-06-28T09:22:06.000Z</time>
      </trkpt>
      <trkpt lat="45.16058" lon="5.63571">
        <ele>1449</ele>
        <time>2014-06-28T09:22:07.000Z</time>
      </trkpt>
      <trkpt lat="45.16058" lon="5.63571">
        <ele>1449</ele>
        <time>2014-06-28T09:22:08.000Z</time>
      </trkpt>
      <trkpt lat="45.16059" lon="5.63572">
        <ele>1450</ele>
        <time>2014-06-28T09:22:09.000Z</time>
      </trkpt>
      <trkpt lat="45.16059" lon="5.63572">
        <ele>1450</ele>
        <time>2014-06-28T09:22:10.000Z</time>
      </trkpt>
      <trkpt lat="45.16059" lon="5.63573">
        <ele>1450</ele>
        <time>2014-06-28T09:22:11.000Z</time>
      </trkpt>
      <trkpt lat="45.1606" lon="5.63573">
        <ele>1450</ele>
        <time>2014-06-28T09:22:12.000Z</time>
      </trkpt>
      <trkpt lat="45.1606" lon="5.63574">
        <ele>1450</ele>
        <time>2014-06-28T09:22:13.000Z</time>
      </trkpt>
      <trkpt lat="45.1606" lon="5.63574">
        <ele>1450</ele>
        <time>2014-06-28T09:22:14.000Z</time>
      </trkpt>
      <trkpt lat="45.16061" lon="5.63574">
        <ele>1450</ele>
        <time>2014-06-28T09:22:15.000Z</time>
      </trkpt>
      <trkpt lat="45.16061" lon="5.63574">
        <ele>1450</ele>
        <time>2014-06-28T09:22:16.000Z</time>
      </trkpt>
      <trkpt lat="45.16061" lon="5.63575">
        <ele>1450</ele>
        <time>2014-06-28T09:22:17.000Z</time>
      </trkpt>
      <trkpt lat="45.16062" lon="5.63575">
        <ele>1450</ele>
        <time>2014-06-28T09:22:18.000Z</time>
      </trkpt>
      <trkpt lat="45.16062" lon="5.63576">
        <ele>1450</ele>
        <time>2014-06-28T09:22:19.000Z</time>
      </trkpt>
      <trkpt lat="45.16062" lon="5.63577">
        <ele>1450</ele>
        <time>2014-06-28T09:22:20.000Z</time>
      </trkpt>
      <trkpt lat="45.16063" lon="5.63578">
        <ele>1450</ele>
        <time>2014-06-28T09:22:21.000Z</time>
      </trkpt>
      <trkpt lat="45.16063" lon="5.63579">
        <ele>1449</ele>
        <time>2014-06-28T09:22:22.000Z</time>
      </trkpt>
      <trkpt lat="45.16064" lon="5.63579">
        <ele>1449</ele>
        <time>2014-06-28T09:22:23.000Z</time>
      </trkpt>
      <trkpt lat="45.16064" lon="5.63579">
        <ele>1449</ele>
        <time>2014-06-28T09:22:24.000Z</time>
      </trkpt>
      <trkpt lat="45.16064" lon="5.6358">
        <ele>1448</ele>
        <time>2014-06-28T09:22:25.000Z</time>
      </trkpt>
      <trkpt lat="45.16065" lon="5.6358">
        <ele>1448</ele>
        <time>2014-06-28T09:22:26.000Z</time>
      </trkpt>
      <trkpt lat="45.16065" lon="5.63582">
        <ele>1448</ele>
        <time>2014-06-28T09:22:27.000Z</time>
      </trkpt>
      <trkpt lat="45.16065" lon="5.63583">
        <ele>1447</ele>
        <time>2014-06-28T09:22:28.000Z</time>
      </trkpt>
      <trkpt lat="45.16066" lon="5.63584">
        <ele>1447</ele>
        <time>2014-06-28T09:22:29.000Z</time>
      </trkpt>
      <trkpt lat="45.16066" lon="5.63585">
        <ele>1447</ele>
        <time>2014-06-28T09:22:30.000Z</time>
      </trkpt>
      <trkpt lat="45.16067" lon="5.63587">
        <ele>1446</ele>
        <time>2014-06-28T09:22:31.000Z</time>
      </trkpt>
      <trkpt lat="45.16067" lon="5.63588">
        <ele>1446</ele>
        <time>2014-06-28T09:22:32.000Z</time>
      </trkpt>
      <trkpt lat="45.16068" lon="5.6359">
        <ele>1446</ele>
        <time>2014-06-28T09:22:33.000Z</time>
      </trkpt>
      <trkpt lat="45.16069" lon="5.63591">
        <ele>1445</ele>
        <time>2014-06-28T09:22:34.000Z</time>
      </trkpt>
      <trkpt lat="45.16069" lon="5.63594">
        <ele>1445</ele>
        <time>2014-06-28T09:22:35.000Z</time>
      </trkpt>
      <trkpt lat="45.1607" lon="5.63597">
        <ele>1445</ele>
        <time>2014-06-28T09:22:36.000Z</time>
      </trkpt>
      <trkpt lat="45.16071" lon="5.636">
        <ele>1444</ele>
        <time>2014-06-28T09:22:37.000Z</time>
      </trkpt>
      <trkpt lat="45.16072" lon="5.63602">
        <ele>1444</ele>
        <time>2014-06-28T09:22:38.000Z</time>
      </trkpt>
      <trkpt lat="45.16073" lon="5.63605">
        <ele>1444</ele>
        <time>2014-06-28T09:22:39.000Z</time>
      </trkpt>
      <trkpt lat="45.16073" lon="5.63608">
        <ele>1444</ele>
        <time>2014-06-28T09:22:40.000Z</time>
      </trkpt>
      <trkpt lat="45.16074" lon="5.63611">
        <ele>1443</ele>
        <time>2014-06-28T09:22:41.000Z</time>
      </trkpt>
      <trkpt lat="45.16074" lon="5.63614">
        <ele>1443</ele>
        <time>2014-06-28T09:22:42.000Z</time>
      </trkpt>
      <trkpt lat="45.16075" lon="5.63617">
        <ele>1443</ele>
        <time>2014-06-28T09:22:43.000Z</time>
      </trkpt>
      <trkpt lat="45.16075" lon="5.6362">
        <ele>1443</ele>
        <time>2014-06-28T09:22:44.000Z</time>
      </trkpt>
      <trkpt lat="45.16076" lon="5.63623">
        <ele>1442</ele>
        <time>2014-06-28T09:22:45.000Z</time>
      </trkpt>
      <trkpt lat="45.16077" lon="5.63627">
        <ele>1442</ele>
        <time>2014-06-28T09:22:46.000Z</time>
      </trkpt>
      <trkpt lat="45.16078" lon="5.63629">
        <ele>1442</ele>
        <time>2014-06-28T09:22:47.000Z</time>
      </trkpt>
      <trkpt lat="45.16079" lon="5.63632">
        <ele>1442</ele>
        <time>2014-06-28T09:22:48.000Z</time>
      </trkpt>
      <trkpt lat="45.1608" lon="5.63635">
        <ele>1442</ele>
        <time>2014-06-28T09:22:49.000Z</time>
      </trkpt>
      <trkpt lat="45.1608" lon="5.63638">
        <ele>1442</ele>
        <time>2014-06-28T09:22:50.000Z</time>
      </trkpt>
      <trkpt lat="45.16082" lon="5.63642">
        <ele>1442</ele>
        <time>2014-06-28T09:22:51.000Z</time>
      </trkpt>
      <trkpt lat="45.16083" lon="5.63645">
        <ele>1441</ele>
        <time>2014-06-28T09:22:52.000Z</time>
      </trkpt>
      <trkpt lat="45.16084" lon="5.63649">
        <ele>1441</ele>
        <time>2014-06-28T09:22:53.000Z</time>
      </trkpt>
      <trkpt lat="45.16085" lon="5.63652">
        <ele>1441</ele>
        <time>2014-06-28T09:22:54.000Z</time>
      </trkpt>
      <trkpt lat="45.16085" lon="5.63655">
        <ele>1441</ele>
        <time>2014-06-28T09:22:55.000Z</time>
      </trkpt>
      <trkpt lat="45.16086" lon="5.63657">
        <ele>1441</ele>
        <time>2014-06-28T09:22:56.000Z</time>
      </trkpt>
      <trkpt lat="45.16087" lon="5.63659">
        <ele>1441</ele>
        <time>2014-06-28T09:22:57.000Z</time>
      </trkpt>
      <trkpt lat="45.16087" lon="5.63661">
        <ele>1441</ele>
        <time>2014-06-28T09:22:58.000Z</time>
      </trkpt>
      <trkpt lat="45.16088" lon="5.63662">
        <ele>1441</ele>
        <time>2014-06-28T09:22:59.000Z</time>
      </trkpt>
      <trkpt lat="45.16088" lon="5.63663">
        <ele>1440</ele>
        <time>2014-06-28T09:23:00.000Z</time>
      </trkpt>
      <trkpt lat="45.16089" lon="5.63664">
        <ele>1440</ele>
        <time>2014-06-28T09:23:01.000Z</time>
      </trkpt>
      <trkpt lat="45.16089" lon="5.63665">
        <ele>1440</ele>
        <time>2014-06-28T09:23:02.000Z</time>
      </trkpt>
      <trkpt lat="45.16089" lon="5.63666">
        <ele>1440</ele>
        <time>2014-06-28T09:23:03.000Z</time>
      </trkpt>
      <trkpt lat="45.1609" lon="5.63667">
        <ele>1439</ele>
        <time>2014-06-28T09:23:04.000Z</time>
      </trkpt>
      <trkpt lat="45.16091" lon="5.63668">
        <ele>1439</ele>
        <time>2014-06-28T09:23:05.000Z</time>
      </trkpt>
      <trkpt lat="45.16092" lon="5.63669">
        <ele>1438</ele>
        <time>2014-06-28T09:23:06.000Z</time>
      </trkpt>
      <trkpt lat="45.16093" lon="5.63669">
        <ele>1438</ele>
        <time>2014-06-28T09:23:07.000Z</time>
      </trkpt>
      <trkpt lat="45.16094" lon="5.63669">
        <ele>1437</ele>
        <time>2014-06-28T09:23:08.000Z</time>
      </trkpt>
      <trkpt lat="45.16095" lon="5.63669">
        <ele>1437</ele>
        <time>2014-06-28T09:23:09.000Z</time>
      </trkpt>
      <trkpt lat="45.16096" lon="5.63669">
        <ele>1436</ele>
        <time>2014-06-28T09:23:10.000Z</time>
      </trkpt>
      <trkpt lat="45.16097" lon="5.63669">
        <ele>1436</ele>
        <time>2014-06-28T09:23:11.000Z</time>
      </trkpt>
      <trkpt lat="45.16098" lon="5.63669">
        <ele>1435</ele>
        <time>2014-06-28T09:23:12.000Z</time>
      </trkpt>
      <trkpt lat="45.16099" lon="5.63669">
        <ele>1435</ele>
        <time>2014-06-28T09:23:13.000Z</time>
      </trkpt>
      <trkpt lat="45.161" lon="5.6367">
        <ele>1435</ele>
        <time>2014-06-28T09:23:14.000Z</time>
      </trkpt>
      <trkpt lat="45.16101" lon="5.6367">
        <ele>1435</ele>
        <time>2014-06-28T09:23:15.000Z</time>
      </trkpt>
      <trkpt lat="45.16102" lon="5.6367">
        <ele>1434</ele>
        <time>2014-06-28T09:23:16.000Z</time>
      </trkpt>
      <trkpt lat="45.16103" lon="5.6367">
        <ele>1434</ele>
        <time>2014-06-28T09:23:17.000Z</time>
      </trkpt>
      <trkpt lat="45.16103" lon="5.63671">
        <ele>1434</ele>
        <time>2014-06-28T09:23:18.000Z</time>
      </trkpt>
      <trkpt lat="45.16104" lon="5.63671">
        <ele>1434</ele>
        <time>2014-06-28T09:23:19.000Z</time>
      </trkpt>
      <trkpt lat="45.16105" lon="5.63671">
        <ele>1433</ele>
        <time>2014-06-28T09:23:20.000Z</time>
      </trkpt>
      <trkpt lat="45.16106" lon="5.6367">
        <ele>1433</ele>
        <time>2014-06-28T09:23:21.000Z</time>
      </trkpt>
      <trkpt lat="45.16107" lon="5.6367">
        <ele>1433</ele>
        <time>2014-06-28T09:23:22.000Z</time>
      </trkpt>
      <trkpt lat="45.16108" lon="5.6367">
        <ele>1433</ele>
        <time>2014-06-28T09:23:23.000Z</time>
      </trkpt>
      <trkpt lat="45.16109" lon="5.6367">
        <ele>1433</ele>
        <time>2014-06-28T09:23:24.000Z</time>
      </trkpt>
      <trkpt lat="45.1611" lon="5.6367">
        <ele>1432</ele>
        <time>2014-06-28T09:23:25.000Z</time>
      </trkpt>
      <trkpt lat="45.16111" lon="5.6367">
        <ele>1432</ele>
        <time>2014-06-28T09:23:26.000Z</time>
      </trkpt>
      <trkpt lat="45.16112" lon="5.6367">
        <ele>1432</ele>
        <time>2014-06-28T09:23:27.000Z</time>
      </trkpt>
      <trkpt lat="45.16113" lon="5.6367">
        <ele>1431</ele>
        <time>2014-06-28T09:23:28.000Z</time>
      </trkpt>
      <trkpt lat="45.16114" lon="5.63669">
        <ele>1431</ele>
        <time>2014-06-28T09:23:29.000Z</time>
      </trkpt>
      <trkpt lat="45.16114" lon="5.63669">
        <ele>1430</ele>
        <time>2014-06-28T09:23:30.000Z</time>
      </trkpt>
      <trkpt lat="45.16115" lon="5.63669">
        <ele>1430</ele>
        <time>2014-06-28T09:23:31.000Z</time>
      </trkpt>
      <trkpt lat="45.16115" lon="5.63669">
        <ele>1429</ele>
        <time>2014-06-28T09:23:32.000Z</time>
      </trkpt>
      <trkpt lat="45.16116" lon="5.63669">
        <ele>1429</ele>
        <time>2014-06-28T09:23:33.000Z</time>
      </trkpt>
      <trkpt lat="45.16117" lon="5.63669">
        <ele>1429</ele>
        <time>2014-06-28T09:23:34.000Z</time>
      </trkpt>
      <trkpt lat="45.16118" lon="5.63669">
        <ele>1428</ele>
        <time>2014-06-28T09:23:35.000Z</time>
      </trkpt>
      <trkpt lat="45.16119" lon="5.63668">
        <ele>1427</ele>
        <time>2014-06-28T09:23:36.000Z</time>
      </trkpt>
      <trkpt lat="45.16119" lon="5.63668">
        <ele>1427</ele>
        <time>2014-06-28T09:23:37.000Z</time>
      </trkpt>
      <trkpt lat="45.1612" lon="5.63668">
        <ele>1426</ele>
        <time>2014-06-28T09:23:38.000Z</time>
      </trkpt>
      <trkpt lat="45.1612" lon="5.63668">
        <ele>1426</ele>
        <time>2014-06-28T09:23:39.000Z</time>
      </trkpt>
      <trkpt lat="45.16121" lon="5.63667">
        <ele>1425</ele>
        <time>2014-06-28T09:23:40.000Z</time>
      </trkpt>
      <trkpt lat="45.16122" lon="5.63667">
        <ele>1425</ele>
        <time>2014-06-28T09:23:41.000Z</time>
      </trkpt>
      <trkpt lat="45.16122" lon="5.63667">
        <ele>1425</ele>
        <time>2014-06-28T09:23:42.000Z</time>
      </trkpt>
      <trkpt lat="45.16122" lon="5.63666">
        <ele>1424</ele>
        <time>2014-06-28T09:23:43.000Z</time>
      </trkpt>
      <trkpt lat="45.16122" lon="5.63666">
        <ele>1424</ele>
        <time>2014-06-28T09:23:44.000Z</time>
      </trkpt>
      <trkpt lat="45.16122" lon="5.63665">
        <ele>1424</ele>
        <time>2014-06-28T09:23:45.000Z</time>
      </trkpt>
      <trkpt lat="45.16123" lon="5.63665">
        <ele>1424</ele>
        <time>2014-06-28T09:23:46.000Z</time>
      </trkpt>
      <trkpt lat="45.16123" lon="5.63666">
        <ele>1423</ele>
        <time>2014-06-28T09:23:47.000Z</time>
      </trkpt>
      <trkpt lat="45.16123" lon="5.63666">
        <ele>1423</ele>
        <time>2014-06-28T09:23:48.000Z</time>
      </trkpt>
      <trkpt lat="45.16123" lon="5.63666">
        <ele>1423</ele>
        <time>2014-06-28T09:23:49.000Z</time>
      </trkpt>
      <trkpt lat="45.16124" lon="5.63666">
        <ele>1423</ele>
        <time>2014-06-28T09:23:50.000Z</time>
      </trkpt>
      <trkpt lat="45.16124" lon="5.63666">
        <ele>1423</ele>
        <time>2014-06-28T09:23:51.000Z</time>
      </trkpt>
      <trkpt lat="45.16125" lon="5.63666">
        <ele>1423</ele>
        <time>2014-06-28T09:23:52.000Z</time>
      </trkpt>
      <trkpt lat="45.16125" lon="5.63667">
        <ele>1423</ele>
        <time>2014-06-28T09:23:53.000Z</time>
      </trkpt>
      <trkpt lat="45.16126" lon="5.63667">
        <ele>1423</ele>
        <time>2014-06-28T09:23:54.000Z</time>
      </trkpt>
      <trkpt lat="45.16126" lon="5.63667">
        <ele>1422</ele>
        <time>2014-06-28T09:23:55.000Z</time>
      </trkpt>
      <trkpt lat="45.16126" lon="5.63668">
        <ele>1422</ele>
        <time>2014-06-28T09:23:56.000Z</time>
      </trkpt>
      <trkpt lat="45.16126" lon="5.63668">
        <ele>1422</ele>
        <time>2014-06-28T09:23:57.000Z</time>
      </trkpt>
      <trkpt lat="45.16127" lon="5.63668">
        <ele>1422</ele>
        <time>2014-06-28T09:23:58.000Z</time>
      </trkpt>
      <trkpt lat="45.16127" lon="5.63668">
        <ele>1422</ele>
        <time>2014-06-28T09:23:59.000Z</time>
      </trkpt>
      <trkpt lat="45.16127" lon="5.63668">
        <ele>1422</ele>
        <time>2014-06-28T09:24:00.000Z</time>
      </trkpt>
      <trkpt lat="45.16127" lon="5.63668">
        <ele>1422</ele>
        <time>2014-06-28T09:24:01.000Z</time>
      </trkpt>
      <trkpt lat="45.16127" lon="5.63669">
        <ele>1421</ele>
        <time>2014-06-28T09:24:02.000Z</time>
      </trkpt>
      <trkpt lat="45.16128" lon="5.63669">
        <ele>1421</ele>
        <time>2014-06-28T09:24:03.000Z</time>
      </trkpt>
      <trkpt lat="45.16128" lon="5.63669">
        <ele>1421</ele>
        <time>2014-06-28T09:24:04.000Z</time>
      </trkpt>
      <trkpt lat="45.16128" lon="5.63669">
        <ele>1421</ele>
        <time>2014-06-28T09:24:05.000Z</time>
      </trkpt>
      <trkpt lat="45.16128" lon="5.63669">
        <ele>1421</ele>
        <time>2014-06-28T09:24:06.000Z</time>
      </trkpt>
      <trkpt lat="45.16129" lon="5.63669">
        <ele>1420</ele>
        <time>2014-06-28T09:24:07.000Z</time>
      </trkpt>
      <trkpt lat="45.16129" lon="5.63669">
        <ele>1420</ele>
        <time>2014-06-28T09:24:08.000Z</time>
      </trkpt>
      <trkpt lat="45.16129" lon="5.63668">
        <ele>1420</ele>
        <time>2014-06-28T09:24:09.000Z</time>
      </trkpt>
      <trkpt lat="45.16129" lon="5.63668">
        <ele>1420</ele>
        <time>2014-06-28T09:24:10.000Z</time>
      </trkpt>
      <trkpt lat="45.16129" lon="5.63668">
        <ele>1420</ele>
        <time>2014-06-28T09:24:11.000Z</time>
      </trkpt>
      <trkpt lat="45.16129" lon="5.63667">
        <ele>1420</ele>
        <time>2014-06-28T09:24:12.000Z</time>
      </trkpt>
      <trkpt lat="45.16129" lon="5.63667">
        <ele>1420</ele>
        <time>2014-06-28T09:24:13.000Z</time>
      </trkpt>
      <trkpt lat="45.16129" lon="5.63666">
        <ele>1419</ele>
        <time>2014-06-28T09:24:14.000Z</time>
      </trkpt>
      <trkpt lat="45.1613" lon="5.63665">
        <ele>1419</ele>
        <time>2014-06-28T09:24:15.000Z</time>
      </trkpt>
      <trkpt lat="45.1613" lon="5.63664">
        <ele>1419</ele>
        <time>2014-06-28T09:24:16.000Z</time>
      </trkpt>
      <trkpt lat="45.16129" lon="5.63662">
        <ele>1419</ele>
        <time>2014-06-28T09:24:17.000Z</time>
      </trkpt>
      <trkpt lat="45.16129" lon="5.63661">
        <ele>1419</ele>
        <time>2014-06-28T09:24:18.000Z</time>
      </trkpt>
      <trkpt lat="45.16129" lon="5.6366">
        <ele>1418</ele>
        <time>2014-06-28T09:24:19.000Z</time>
      </trkpt>
      <trkpt lat="45.16129" lon="5.63659">
        <ele>1418</ele>
        <time>2014-06-28T09:24:20.000Z</time>
      </trkpt>
      <trkpt lat="45.16129" lon="5.63657">
        <ele>1418</ele>
        <time>2014-06-28T09:24:21.000Z</time>
      </trkpt>
      <trkpt lat="45.16129" lon="5.63656">
        <ele>1418</ele>
        <time>2014-06-28T09:24:22.000Z</time>
      </trkpt>
      <trkpt lat="45.16129" lon="5.63653">
        <ele>1417</ele>
        <time>2014-06-28T09:24:23.000Z</time>
      </trkpt>
      <trkpt lat="45.1613" lon="5.63651">
        <ele>1417</ele>
        <time>2014-06-28T09:24:24.000Z</time>
      </trkpt>
      <trkpt lat="45.1613" lon="5.63649">
        <ele>1417</ele>
        <time>2014-06-28T09:24:25.000Z</time>
      </trkpt>
      <trkpt lat="45.16129" lon="5.63647">
        <ele>1417</ele>
        <time>2014-06-28T09:24:26.000Z</time>
      </trkpt>
      <trkpt lat="45.16129" lon="5.63644">
        <ele>1416</ele>
        <time>2014-06-28T09:24:27.000Z</time>
      </trkpt>
      <trkpt lat="45.16129" lon="5.63641">
        <ele>1416</ele>
        <time>2014-06-28T09:24:28.000Z</time>
      </trkpt>
      <trkpt lat="45.16129" lon="5.63639">
        <ele>1416</ele>
        <time>2014-06-28T09:24:29.000Z</time>
      </trkpt>
      <trkpt lat="45.16129" lon="5.63637">
        <ele>1416</ele>
        <time>2014-06-28T09:24:30.000Z</time>
      </trkpt>
      <trkpt lat="45.16128" lon="5.63635">
        <ele>1415</ele>
        <time>2014-06-28T09:24:31.000Z</time>
      </trkpt>
      <trkpt lat="45.16128" lon="5.63633">
        <ele>1415</ele>
        <time>2014-06-28T09:24:32.000Z</time>
      </trkpt>
      <trkpt lat="45.16129" lon="5.6363">
        <ele>1415</ele>
        <time>2014-06-28T09:24:33.000Z</time>
      </trkpt>
      <trkpt lat="45.16129" lon="5.63627">
        <ele>1414</ele>
        <time>2014-06-28T09:24:34.000Z</time>
      </trkpt>
      <trkpt lat="45.1613" lon="5.63624">
        <ele>1414</ele>
        <time>2014-06-28T09:24:35.000Z</time>
      </trkpt>
      <trkpt lat="45.1613" lon="5.63621">
        <ele>1414</ele>
        <time>2014-06-28T09:24:36.000Z</time>
      </trkpt>
      <trkpt lat="45.1613" lon="5.63619">
        <ele>1413</ele>
        <time>2014-06-28T09:24:37.000Z</time>
      </trkpt>
      <trkpt lat="45.16131" lon="5.63615">
        <ele>1413</ele>
        <time>2014-06-28T09:24:38.000Z</time>
      </trkpt>
      <trkpt lat="45.16131" lon="5.63612">
        <ele>1412</ele>
        <time>2014-06-28T09:24:39.000Z</time>
      </trkpt>
      <trkpt lat="45.16132" lon="5.63608">
        <ele>1412</ele>
        <time>2014-06-28T09:24:40.000Z</time>
      </trkpt>
      <trkpt lat="45.16131" lon="5.63605">
        <ele>1412</ele>
        <time>2014-06-28T09:24:41.000Z</time>
      </trkpt>
      <trkpt lat="45.16132" lon="5.63602">
        <ele>1411</ele>
        <time>2014-06-28T09:24:42.000Z</time>
      </trkpt>
      <trkpt lat="45.16132" lon="5.63599">
        <ele>1411</ele>
        <time>2014-06-28T09:24:43.000Z</time>
      </trkpt>
      <trkpt lat="45.16132" lon="5.63597">
        <ele>1411</ele>
        <time>2014-06-28T09:24:44.000Z</time>
      </trkpt>
      <trkpt lat="45.16132" lon="5.63595">
        <ele>1410</ele>
        <time>2014-06-28T09:24:45.000Z</time>
      </trkpt>
      <trkpt lat="45.16132" lon="5.63593">
        <ele>1410</ele>
        <time>2014-06-28T09:24:46.000Z</time>
      </trkpt>
      <trkpt lat="45.16132" lon="5.63592">
        <ele>1410</ele>
        <time>2014-06-28T09:24:47.000Z</time>
      </trkpt>
      <trkpt lat="45.16132" lon="5.63591">
        <ele>1410</ele>
        <time>2014-06-28T09:24:48.000Z</time>
      </trkpt>
      <trkpt lat="45.16132" lon="5.6359">
        <ele>1409</ele>
        <time>2014-06-28T09:24:49.000Z</time>
      </trkpt>
      <trkpt lat="45.16132" lon="5.63589">
        <ele>1409</ele>
        <time>2014-06-28T09:24:50.000Z</time>
      </trkpt>
      <trkpt lat="45.16133" lon="5.63588">
        <ele>1409</ele>
        <time>2014-06-28T09:24:51.000Z</time>
      </trkpt>
      <trkpt lat="45.16133" lon="5.63587">
        <ele>1409</ele>
        <time>2014-06-28T09:24:52.000Z</time>
      </trkpt>
      <trkpt lat="45.16133" lon="5.63586">
        <ele>1409</ele>
        <time>2014-06-28T09:24:53.000Z</time>
      </trkpt>
      <trkpt lat="45.16133" lon="5.63585">
        <ele>1409</ele>
        <time>2014-06-28T09:24:54.000Z</time>
      </trkpt>
      <trkpt lat="45.16134" lon="5.63584">
        <ele>1409</ele>
        <time>2014-06-28T09:24:55.000Z</time>
      </trkpt>
      <trkpt lat="45.16134" lon="5.63583">
        <ele>1408</ele>
        <time>2014-06-28T09:24:56.000Z</time>
      </trkpt>
      <trkpt lat="45.16134" lon="5.63582">
        <ele>1408</ele>
        <time>2014-06-28T09:24:57.000Z</time>
      </trkpt>
      <trkpt lat="45.16134" lon="5.63581">
        <ele>1408</ele>
        <time>2014-06-28T09:24:58.000Z</time>
      </trkpt>
      <trkpt lat="45.16133" lon="5.6358">
        <ele>1408</ele>
        <time>2014-06-28T09:24:59.000Z</time>
      </trkpt>
      <trkpt lat="45.16133" lon="5.63578">
        <ele>1408</ele>
        <time>2014-06-28T09:25:00.000Z</time>
      </trkpt>
      <trkpt lat="45.16133" lon="5.63577">
        <ele>1407</ele>
        <time>2014-06-28T09:25:01.000Z</time>
      </trkpt>
      <trkpt lat="45.16133" lon="5.63575">
        <ele>1407</ele>
        <time>2014-06-28T09:25:02.000Z</time>
      </trkpt>
      <trkpt lat="45.16133" lon="5.63574">
        <ele>1407</ele>
        <time>2014-06-28T09:25:03.000Z</time>
      </trkpt>
      <trkpt lat="45.16134" lon="5.63573">
        <ele>1406</ele>
        <time>2014-06-28T09:25:04.000Z</time>
      </trkpt>
      <trkpt lat="45.16134" lon="5.63572">
        <ele>1406</ele>
        <time>2014-06-28T09:25:05.000Z</time>
      </trkpt>
      <trkpt lat="45.16134" lon="5.6357">
        <ele>1406</ele>
        <time>2014-06-28T09:25:06.000Z</time>
      </trkpt>
      <trkpt lat="45.16135" lon="5.63569">
        <ele>1405</ele>
        <time>2014-06-28T09:25:07.000Z</time>
      </trkpt>
      <trkpt lat="45.16135" lon="5.63568">
        <ele>1405</ele>
        <time>2014-06-28T09:25:08.000Z</time>
      </trkpt>
      <trkpt lat="45.16136" lon="5.63566">
        <ele>1405</ele>
        <time>2014-06-28T09:25:09.000Z</time>
      </trkpt>
      <trkpt lat="45.16137" lon="5.63565">
        <ele>1405</ele>
        <time>2014-06-28T09:25:10.000Z</time>
      </trkpt>
      <trkpt lat="45.16137" lon="5.63564">
        <ele>1404</ele>
        <time>2014-06-28T09:25:11.000Z</time>
      </trkpt>
      <trkpt lat="45.16137" lon="5.63563">
        <ele>1404</ele>
        <time>2014-06-28T09:25:12.000Z</time>
      </trkpt>
      <trkpt lat="45.16138" lon="5.63561">
        <ele>1404</ele>
        <time>2014-06-28T09:25:13.000Z</time>
      </trkpt>
      <trkpt lat="45.16139" lon="5.63559">
        <ele>1403</ele>
        <time>2014-06-28T09:25:14.000Z</time>
      </trkpt>
      <trkpt lat="45.1614" lon="5.63557">
        <ele>1403</ele>
        <time>2014-06-28T09:25:15.000Z</time>
      </trkpt>
      <trkpt lat="45.1614" lon="5.63555">
        <ele>1403</ele>
        <time>2014-06-28T09:25:16.000Z</time>
      </trkpt>
      <trkpt lat="45.16141" lon="5.63553">
        <ele>1403</ele>
        <time>2014-06-28T09:25:17.000Z</time>
      </trkpt>
      <trkpt lat="45.16142" lon="5.63552">
        <ele>1403</ele>
        <time>2014-06-28T09:25:18.000Z</time>
      </trkpt>
      <trkpt lat="45.16142" lon="5.6355">
        <ele>1402</ele>
        <time>2014-06-28T09:25:19.000Z</time>
      </trkpt>
      <trkpt lat="45.16142" lon="5.63548">
        <ele>1402</ele>
        <time>2014-06-28T09:25:20.000Z</time>
      </trkpt>
      <trkpt lat="45.16142" lon="5.63547">
        <ele>1402</ele>
        <time>2014-06-28T09:25:21.000Z</time>
      </trkpt>
      <trkpt lat="45.16142" lon="5.63545">
        <ele>1402</ele>
        <time>2014-06-28T09:25:22.000Z</time>
      </trkpt>
      <trkpt lat="45.16141" lon="5.63544">
        <ele>1402</ele>
        <time>2014-06-28T09:25:23.000Z</time>
      </trkpt>
      <trkpt lat="45.16141" lon="5.63544">
        <ele>1402</ele>
        <time>2014-06-28T09:25:24.000Z</time>
      </trkpt>
      <trkpt lat="45.16142" lon="5.63544">
        <ele>1402</ele>
        <time>2014-06-28T09:25:25.000Z</time>
      </trkpt>
      <trkpt lat="45.16142" lon="5.63544">
        <ele>1402</ele>
        <time>2014-06-28T09:25:26.000Z</time>
      </trkpt>
      <trkpt lat="45.16142" lon="5.63544">
        <ele>1402</ele>
        <time>2014-06-28T09:25:27.000Z</time>
      </trkpt>
      <trkpt lat="45.16143" lon="5.63544">
        <ele>1401</ele>
        <time>2014-06-28T09:25:28.000Z</time>
      </trkpt>
      <trkpt lat="45.16143" lon="5.63545">
        <ele>1401</ele>
        <time>2014-06-28T09:25:29.000Z</time>
      </trkpt>
      <trkpt lat="45.16144" lon="5.63547">
        <ele>1401</ele>
        <time>2014-06-28T09:25:30.000Z</time>
      </trkpt>
      <trkpt lat="45.16145" lon="5.63549">
        <ele>1400</ele>
        <time>2014-06-28T09:25:31.000Z</time>
      </trkpt>
      <trkpt lat="45.16145" lon="5.63551">
        <ele>1400</ele>
        <time>2014-06-28T09:25:32.000Z</time>
      </trkpt>
      <trkpt lat="45.16147" lon="5.63552">
        <ele>1400</ele>
        <time>2014-06-28T09:25:33.000Z</time>
      </trkpt>
      <trkpt lat="45.16148" lon="5.63554">
        <ele>1400</ele>
        <time>2014-06-28T09:25:34.000Z</time>
      </trkpt>
      <trkpt lat="45.16149" lon="5.63555">
        <ele>1400</ele>
        <time>2014-06-28T09:25:35.000Z</time>
      </trkpt>
      <trkpt lat="45.16149" lon="5.63557">
        <ele>1399</ele>
        <time>2014-06-28T09:25:36.000Z</time>
      </trkpt>
      <trkpt lat="45.1615" lon="5.63558">
        <ele>1399</ele>
        <time>2014-06-28T09:25:37.000Z</time>
      </trkpt>
      <trkpt lat="45.16151" lon="5.6356">
        <ele>1399</ele>
        <time>2014-06-28T09:25:38.000Z</time>
      </trkpt>
      <trkpt lat="45.16152" lon="5.63562">
        <ele>1399</ele>
        <time>2014-06-28T09:25:39.000Z</time>
      </trkpt>
      <trkpt lat="45.16152" lon="5.63563">
        <ele>1399</ele>
        <time>2014-06-28T09:25:40.000Z</time>
      </trkpt>
      <trkpt lat="45.16153" lon="5.63565">
        <ele>1398</ele>
        <time>2014-06-28T09:25:41.000Z</time>
      </trkpt>
      <trkpt lat="45.16153" lon="5.63566">
        <ele>1398</ele>
        <time>2014-06-28T09:25:42.000Z</time>
      </trkpt>
      <trkpt lat="45.16154" lon="5.63567">
        <ele>1398</ele>
        <time>2014-06-28T09:25:43.000Z</time>
      </trkpt>
      <trkpt lat="45.16155" lon="5.63569">
        <ele>1398</ele>
        <time>2014-06-28T09:25:44.000Z</time>
      </trkpt>
      <trkpt lat="45.16156" lon="5.6357">
        <ele>1398</ele>
        <time>2014-06-28T09:25:45.000Z</time>
      </trkpt>
      <trkpt lat="45.16157" lon="5.63571">
        <ele>1397</ele>
        <time>2014-06-28T09:25:46.000Z</time>
      </trkpt>
      <trkpt lat="45.16158" lon="5.63573">
        <ele>1397</ele>
        <time>2014-06-28T09:25:47.000Z</time>
      </trkpt>
      <trkpt lat="45.16159" lon="5.63575">
        <ele>1397</ele>
        <time>2014-06-28T09:25:48.000Z</time>
      </trkpt>
      <trkpt lat="45.1616" lon="5.63577">
        <ele>1396</ele>
        <time>2014-06-28T09:25:49.000Z</time>
      </trkpt>
      <trkpt lat="45.16161" lon="5.63579">
        <ele>1396</ele>
        <time>2014-06-28T09:25:50.000Z</time>
      </trkpt>
      <trkpt lat="45.16162" lon="5.6358">
        <ele>1396</ele>
        <time>2014-06-28T09:25:51.000Z</time>
      </trkpt>
      <trkpt lat="45.16163" lon="5.63582">
        <ele>1396</ele>
        <time>2014-06-28T09:25:52.000Z</time>
      </trkpt>
      <trkpt lat="45.16163" lon="5.63584">
        <ele>1396</ele>
        <time>2014-06-28T09:25:53.000Z</time>
      </trkpt>
      <trkpt lat="45.16163" lon="5.63586">
        <ele>1396</ele>
        <time>2014-06-28T09:25:54.000Z</time>
      </trkpt>
      <trkpt lat="45.16164" lon="5.63588">
        <ele>1395</ele>
        <time>2014-06-28T09:25:55.000Z</time>
      </trkpt>
      <trkpt lat="45.16164" lon="5.63589">
        <ele>1395</ele>
        <time>2014-06-28T09:25:56.000Z</time>
      </trkpt>
      <trkpt lat="45.16164" lon="5.63591">
        <ele>1395</ele>
        <time>2014-06-28T09:25:57.000Z</time>
      </trkpt>
      <trkpt lat="45.16165" lon="5.63592">
        <ele>1394</ele>
        <time>2014-06-28T09:25:58.000Z</time>
      </trkpt>
      <trkpt lat="45.16165" lon="5.63593">
        <ele>1394</ele>
        <time>2014-06-28T09:25:59.000Z</time>
      </trkpt>
      <trkpt lat="45.16166" lon="5.63594">
        <ele>1394</ele>
        <time>2014-06-28T09:26:00.000Z</time>
      </trkpt>
      <trkpt lat="45.16167" lon="5.63595">
        <ele>1393</ele>
        <time>2014-06-28T09:26:01.000Z</time>
      </trkpt>
      <trkpt lat="45.16168" lon="5.63597">
        <ele>1393</ele>
        <time>2014-06-28T09:26:02.000Z</time>
      </trkpt>
      <trkpt lat="45.16168" lon="5.63599">
        <ele>1393</ele>
        <time>2014-06-28T09:26:03.000Z</time>
      </trkpt>
      <trkpt lat="45.16169" lon="5.636">
        <ele>1392</ele>
        <time>2014-06-28T09:26:04.000Z</time>
      </trkpt>
      <trkpt lat="45.1617" lon="5.63601">
        <ele>1392</ele>
        <time>2014-06-28T09:26:05.000Z</time>
      </trkpt>
      <trkpt lat="45.1617" lon="5.63603">
        <ele>1392</ele>
        <time>2014-06-28T09:26:06.000Z</time>
      </trkpt>
      <trkpt lat="45.16171" lon="5.63605">
        <ele>1391</ele>
        <time>2014-06-28T09:26:07.000Z</time>
      </trkpt>
      <trkpt lat="45.16171" lon="5.63606">
        <ele>1391</ele>
        <time>2014-06-28T09:26:08.000Z</time>
      </trkpt>
      <trkpt lat="45.16172" lon="5.63608">
        <ele>1390</ele>
        <time>2014-06-28T09:26:09.000Z</time>
      </trkpt>
      <trkpt lat="45.16173" lon="5.63609">
        <ele>1390</ele>
        <time>2014-06-28T09:26:10.000Z</time>
      </trkpt>
      <trkpt lat="45.16173" lon="5.6361">
        <ele>1390</ele>
        <time>2014-06-28T09:26:11.000Z</time>
      </trkpt>
      <trkpt lat="45.16174" lon="5.63612">
        <ele>1389</ele>
        <time>2014-06-28T09:26:12.000Z</time>
      </trkpt>
      <trkpt lat="45.16175" lon="5.63613">
        <ele>1389</ele>
        <time>2014-06-28T09:26:13.000Z</time>
      </trkpt>
      <trkpt lat="45.16176" lon="5.63613">
        <ele>1388</ele>
        <time>2014-06-28T09:26:14.000Z</time>
      </trkpt>
      <trkpt lat="45.16176" lon="5.63614">
        <ele>1388</ele>
        <time>2014-06-28T09:26:15.000Z</time>
      </trkpt>
      <trkpt lat="45.16177" lon="5.63615">
        <ele>1387</ele>
        <time>2014-06-28T09:26:16.000Z</time>
      </trkpt>
      <trkpt lat="45.16178" lon="5.63616">
        <ele>1387</ele>
        <time>2014-06-28T09:26:17.000Z</time>
      </trkpt>
      <trkpt lat="45.16178" lon="5.63617">
        <ele>1386</ele>
        <time>2014-06-28T09:26:18.000Z</time>
      </trkpt>
      <trkpt lat="45.16179" lon="5.63618">
        <ele>1386</ele>
        <time>2014-06-28T09:26:19.000Z</time>
      </trkpt>
      <trkpt lat="45.1618" lon="5.6362">
        <ele>1386</ele>
        <time>2014-06-28T09:26:20.000Z</time>
      </trkpt>
      <trkpt lat="45.16181" lon="5.63621">
        <ele>1385</ele>
        <time>2014-06-28T09:26:21.000Z</time>
      </trkpt>
      <trkpt lat="45.16183" lon="5.63623">
        <ele>1385</ele>
        <time>2014-06-28T09:26:22.000Z</time>
      </trkpt>
      <trkpt lat="45.16184" lon="5.63624">
        <ele>1384</ele>
        <time>2014-06-28T09:26:23.000Z</time>
      </trkpt>
      <trkpt lat="45.16185" lon="5.63626">
        <ele>1384</ele>
        <time>2014-06-28T09:26:24.000Z</time>
      </trkpt>
      <trkpt lat="45.16186" lon="5.63627">
        <ele>1384</ele>
        <time>2014-06-28T09:26:25.000Z</time>
      </trkpt>
      <trkpt lat="45.16187" lon="5.63629">
        <ele>1383</ele>
        <time>2014-06-28T09:26:26.000Z</time>
      </trkpt>
      <trkpt lat="45.16189" lon="5.63631">
        <ele>1383</ele>
        <time>2014-06-28T09:26:27.000Z</time>
      </trkpt>
      <trkpt lat="45.1619" lon="5.63632">
        <ele>1382</ele>
        <time>2014-06-28T09:26:28.000Z</time>
      </trkpt>
      <trkpt lat="45.16191" lon="5.63634">
        <ele>1382</ele>
        <time>2014-06-28T09:26:29.000Z</time>
      </trkpt>
      <trkpt lat="45.16191" lon="5.63635">
        <ele>1381</ele>
        <time>2014-06-28T09:26:30.000Z</time>
      </trkpt>
      <trkpt lat="45.16192" lon="5.63636">
        <ele>1381</ele>
        <time>2014-06-28T09:26:31.000Z</time>
      </trkpt>
      <trkpt lat="45.16192" lon="5.63637">
        <ele>1380</ele>
        <time>2014-06-28T09:26:32.000Z</time>
      </trkpt>
      <trkpt lat="45.16193" lon="5.63638">
        <ele>1380</ele>
        <time>2014-06-28T09:26:33.000Z</time>
      </trkpt>
      <trkpt lat="45.16194" lon="5.63639">
        <ele>1379</ele>
        <time>2014-06-28T09:26:34.000Z</time>
      </trkpt>
      <trkpt lat="45.16195" lon="5.6364">
        <ele>1379</ele>
        <time>2014-06-28T09:26:35.000Z</time>
      </trkpt>
      <trkpt lat="45.16195" lon="5.63641">
        <ele>1378</ele>
        <time>2014-06-28T09:26:36.000Z</time>
      </trkpt>
      <trkpt lat="45.16196" lon="5.63642">
        <ele>1378</ele>
        <time>2014-06-28T09:26:37.000Z</time>
      </trkpt>
      <trkpt lat="45.16197" lon="5.63643">
        <ele>1377</ele>
        <time>2014-06-28T09:26:38.000Z</time>
      </trkpt>
      <trkpt lat="45.16199" lon="5.63644">
        <ele>1377</ele>
        <time>2014-06-28T09:26:39.000Z</time>
      </trkpt>
      <trkpt lat="45.16199" lon="5.63645">
        <ele>1376</ele>
        <time>2014-06-28T09:26:40.000Z</time>
      </trkpt>
      <trkpt lat="45.162" lon="5.63645">
        <ele>1376</ele>
        <time>2014-06-28T09:26:41.000Z</time>
      </trkpt>
      <trkpt lat="45.16201" lon="5.63646">
        <ele>1375</ele>
        <time>2014-06-28T09:26:42.000Z</time>
      </trkpt>
      <trkpt lat="45.16203" lon="5.63646">
        <ele>1375</ele>
        <time>2014-06-28T09:26:43.000Z</time>
      </trkpt>
      <trkpt lat="45.16204" lon="5.63646">
        <ele>1374</ele>
        <time>2014-06-28T09:26:44.000Z</time>
      </trkpt>
      <trkpt lat="45.16206" lon="5.63646">
        <ele>1374</ele>
        <time>2014-06-28T09:26:45.000Z</time>
      </trkpt>
      <trkpt lat="45.16208" lon="5.63647">
        <ele>1373</ele>
        <time>2014-06-28T09:26:46.000Z</time>
      </trkpt>
      <trkpt lat="45.1621" lon="5.63649">
        <ele>1372</ele>
        <time>2014-06-28T09:26:47.000Z</time>
      </trkpt>
      <trkpt lat="45.16213" lon="5.6365">
        <ele>1371</ele>
        <time>2014-06-28T09:26:48.000Z</time>
      </trkpt>
      <trkpt lat="45.16215" lon="5.63652">
        <ele>1370</ele>
        <time>2014-06-28T09:26:49.000Z</time>
      </trkpt>
      <trkpt lat="45.16217" lon="5.63654">
        <ele>1369</ele>
        <time>2014-06-28T09:26:50.000Z</time>
      </trkpt>
      <trkpt lat="45.16219" lon="5.63655">
        <ele>1369</ele>
        <time>2014-06-28T09:26:51.000Z</time>
      </trkpt>
      <trkpt lat="45.16221" lon="5.63657">
        <ele>1368</ele>
        <time>2014-06-28T09:26:52.000Z</time>
      </trkpt>
      <trkpt lat="45.16223" lon="5.63659">
        <ele>1367</ele>
        <time>2014-06-28T09:26:53.000Z</time>
      </trkpt>
      <trkpt lat="45.16224" lon="5.63661">
        <ele>1367</ele>
        <time>2014-06-28T09:26:54.000Z</time>
      </trkpt>
      <trkpt lat="45.16226" lon="5.63663">
        <ele>1366</ele>
        <time>2014-06-28T09:26:55.000Z</time>
      </trkpt>
      <trkpt lat="45.16227" lon="5.63665">
        <ele>1365</ele>
        <time>2014-06-28T09:26:56.000Z</time>
      </trkpt>
      <trkpt lat="45.16227" lon="5.63668">
        <ele>1365</ele>
        <time>2014-06-28T09:26:57.000Z</time>
      </trkpt>
      <trkpt lat="45.16228" lon="5.6367">
        <ele>1364</ele>
        <time>2014-06-28T09:26:58.000Z</time>
      </trkpt>
      <trkpt lat="45.16229" lon="5.63673">
        <ele>1363</ele>
        <time>2014-06-28T09:26:59.000Z</time>
      </trkpt>
      <trkpt lat="45.1623" lon="5.63674">
        <ele>1363</ele>
        <time>2014-06-28T09:27:00.000Z</time>
      </trkpt>
      <trkpt lat="45.1623" lon="5.63677">
        <ele>1362</ele>
        <time>2014-06-28T09:27:01.000Z</time>
      </trkpt>
      <trkpt lat="45.16231" lon="5.63679">
        <ele>1362</ele>
        <time>2014-06-28T09:27:02.000Z</time>
      </trkpt>
      <trkpt lat="45.16231" lon="5.63681">
        <ele>1361</ele>
        <time>2014-06-28T09:27:03.000Z</time>
      </trkpt>
      <trkpt lat="45.16232" lon="5.63683">
        <ele>1361</ele>
        <time>2014-06-28T09:27:04.000Z</time>
      </trkpt>
      <trkpt lat="45.16233" lon="5.63684">
        <ele>1360</ele>
        <time>2014-06-28T09:27:05.000Z</time>
      </trkpt>
      <trkpt lat="45.16233" lon="5.63686">
        <ele>1360</ele>
        <time>2014-06-28T09:27:06.000Z</time>
      </trkpt>
      <trkpt lat="45.16234" lon="5.63688">
        <ele>1359</ele>
        <time>2014-06-28T09:27:07.000Z</time>
      </trkpt>
      <trkpt lat="45.16235" lon="5.6369">
        <ele>1359</ele>
        <time>2014-06-28T09:27:08.000Z</time>
      </trkpt>
      <trkpt lat="45.16236" lon="5.63693">
        <ele>1358</ele>
        <time>2014-06-28T09:27:09.000Z</time>
      </trkpt>
      <trkpt lat="45.16237" lon="5.63695">
        <ele>1358</ele>
        <time>2014-06-28T09:27:10.000Z</time>
      </trkpt>
      <trkpt lat="45.16238" lon="5.63697">
        <ele>1357</ele>
        <time>2014-06-28T09:27:11.000Z</time>
      </trkpt>
      <trkpt lat="45.1624" lon="5.63699">
        <ele>1357</ele>
        <time>2014-06-28T09:27:12.000Z</time>
      </trkpt>
      <trkpt lat="45.16241" lon="5.63702">
        <ele>1356</ele>
        <time>2014-06-28T09:27:13.000Z</time>
      </trkpt>
      <trkpt lat="45.16242" lon="5.63705">
        <ele>1355</ele>
        <time>2014-06-28T09:27:14.000Z</time>
      </trkpt>
      <trkpt lat="45.16243" lon="5.63707">
        <ele>1355</ele>
        <time>2014-06-28T09:27:15.000Z</time>
      </trkpt>
      <trkpt lat="45.16245" lon="5.6371">
        <ele>1354</ele>
        <time>2014-06-28T09:27:16.000Z</time>
      </trkpt>
      <trkpt lat="45.16246" lon="5.63713">
        <ele>1354</ele>
        <time>2014-06-28T09:27:17.000Z</time>
      </trkpt>
      <trkpt lat="45.16247" lon="5.63716">
        <ele>1353</ele>
        <time>2014-06-28T09:27:18.000Z</time>
      </trkpt>
      <trkpt lat="45.16248" lon="5.63719">
        <ele>1353</ele>
        <time>2014-06-28T09:27:19.000Z</time>
      </trkpt>
      <trkpt lat="45.16249" lon="5.63721">
        <ele>1352</ele>
        <time>2014-06-28T09:27:20.000Z</time>
      </trkpt>
      <trkpt lat="45.16249" lon="5.63724">
        <ele>1352</ele>
        <time>2014-06-28T09:27:21.000Z</time>
      </trkpt>
      <trkpt lat="45.1625" lon="5.63726">
        <ele>1351</ele>
        <time>2014-06-28T09:27:22.000Z</time>
      </trkpt>
      <trkpt lat="45.1625" lon="5.63727">
        <ele>1351</ele>
        <time>2014-06-28T09:27:23.000Z</time>
      </trkpt>
      <trkpt lat="45.16251" lon="5.63729">
        <ele>1351</ele>
        <time>2014-06-28T09:27:24.000Z</time>
      </trkpt>
      <trkpt lat="45.16251" lon="5.6373">
        <ele>1350</ele>
        <time>2014-06-28T09:27:25.000Z</time>
      </trkpt>
      <trkpt lat="45.16251" lon="5.63731">
        <ele>1350</ele>
        <time>2014-06-28T09:27:26.000Z</time>
      </trkpt>
      <trkpt lat="45.16251" lon="5.63733">
        <ele>1350</ele>
        <time>2014-06-28T09:27:27.000Z</time>
      </trkpt>
      <trkpt lat="45.16251" lon="5.63734">
        <ele>1349</ele>
        <time>2014-06-28T09:27:28.000Z</time>
      </trkpt>
      <trkpt lat="45.16251" lon="5.63736">
        <ele>1349</ele>
        <time>2014-06-28T09:27:29.000Z</time>
      </trkpt>
      <trkpt lat="45.16251" lon="5.63737">
        <ele>1349</ele>
        <time>2014-06-28T09:27:30.000Z</time>
      </trkpt>
      <trkpt lat="45.16251" lon="5.63739">
        <ele>1349</ele>
        <time>2014-06-28T09:27:31.000Z</time>
      </trkpt>
      <trkpt lat="45.16251" lon="5.6374">
        <ele>1349</ele>
        <time>2014-06-28T09:27:32.000Z</time>
      </trkpt>
      <trkpt lat="45.16251" lon="5.63742">
        <ele>1348</ele>
        <time>2014-06-28T09:27:33.000Z</time>
      </trkpt>
      <trkpt lat="45.16251" lon="5.63745">
        <ele>1348</ele>
        <time>2014-06-28T09:27:34.000Z</time>
      </trkpt>
      <trkpt lat="45.16251" lon="5.63747">
        <ele>1348</ele>
        <time>2014-06-28T09:27:35.000Z</time>
      </trkpt>
      <trkpt lat="45.1625" lon="5.63749">
        <ele>1348</ele>
        <time>2014-06-28T09:27:36.000Z</time>
      </trkpt>
      <trkpt lat="45.1625" lon="5.63751">
        <ele>1348</ele>
        <time>2014-06-28T09:27:37.000Z</time>
      </trkpt>
      <trkpt lat="45.1625" lon="5.63753">
        <ele>1348</ele>
        <time>2014-06-28T09:27:38.000Z</time>
      </trkpt>
      <trkpt lat="45.1625" lon="5.63755">
        <ele>1348</ele>
        <time>2014-06-28T09:27:39.000Z</time>
      </trkpt>
      <trkpt lat="45.1625" lon="5.63758">
        <ele>1347</ele>
        <time>2014-06-28T09:27:40.000Z</time>
      </trkpt>
      <trkpt lat="45.1625" lon="5.6376">
        <ele>1347</ele>
        <time>2014-06-28T09:27:41.000Z</time>
      </trkpt>
      <trkpt lat="45.1625" lon="5.63763">
        <ele>1347</ele>
        <time>2014-06-28T09:27:42.000Z</time>
      </trkpt>
      <trkpt lat="45.1625" lon="5.63766">
        <ele>1347</ele>
        <time>2014-06-28T09:27:43.000Z</time>
      </trkpt>
      <trkpt lat="45.1625" lon="5.63768">
        <ele>1347</ele>
        <time>2014-06-28T09:27:44.000Z</time>
      </trkpt>
      <trkpt lat="45.16251" lon="5.63772">
        <ele>1347</ele>
        <time>2014-06-28T09:27:45.000Z</time>
      </trkpt>
      <trkpt lat="45.16252" lon="5.63775">
        <ele>1346</ele>
        <time>2014-06-28T09:27:46.000Z</time>
      </trkpt>
      <trkpt lat="45.16253" lon="5.63778">
        <ele>1346</ele>
        <time>2014-06-28T09:27:47.000Z</time>
      </trkpt>
      <trkpt lat="45.16254" lon="5.63782">
        <ele>1346</ele>
        <time>2014-06-28T09:27:48.000Z</time>
      </trkpt>
      <trkpt lat="45.16255" lon="5.63786">
        <ele>1346</ele>
        <time>2014-06-28T09:27:49.000Z</time>
      </trkpt>
      <trkpt lat="45.16256" lon="5.63789">
        <ele>1345</ele>
        <time>2014-06-28T09:27:50.000Z</time>
      </trkpt>
      <trkpt lat="45.16257" lon="5.63791">
        <ele>1345</ele>
        <time>2014-06-28T09:27:51.000Z</time>
      </trkpt>
      <trkpt lat="45.16257" lon="5.63792">
        <ele>1345</ele>
        <time>2014-06-28T09:27:52.000Z</time>
      </trkpt>
      <trkpt lat="45.16257" lon="5.63793">
        <ele>1345</ele>
        <time>2014-06-28T09:27:53.000Z</time>
      </trkpt>
      <trkpt lat="45.16257" lon="5.63793">
        <ele>1344</ele>
        <time>2014-06-28T09:27:54.000Z</time>
      </trkpt>
      <trkpt lat="45.16257" lon="5.63794">
        <ele>1344</ele>
        <time>2014-06-28T09:27:55.000Z</time>
      </trkpt>
      <trkpt lat="45.16257" lon="5.63795">
        <ele>1344</ele>
        <time>2014-06-28T09:27:56.000Z</time>
      </trkpt>
      <trkpt lat="45.16257" lon="5.63795">
        <ele>1344</ele>
        <time>2014-06-28T09:27:57.000Z</time>
      </trkpt>
      <trkpt lat="45.16256" lon="5.63796">
        <ele>1344</ele>
        <time>2014-06-28T09:27:58.000Z</time>
      </trkpt>
      <trkpt lat="45.16256" lon="5.63796">
        <ele>1343</ele>
        <time>2014-06-28T09:27:59.000Z</time>
      </trkpt>
      <trkpt lat="45.16256" lon="5.63797">
        <ele>1343</ele>
        <time>2014-06-28T09:28:00.000Z</time>
      </trkpt>
      <trkpt lat="45.16256" lon="5.63798">
        <ele>1343</ele>
        <time>2014-06-28T09:28:01.000Z</time>
      </trkpt>
      <trkpt lat="45.16256" lon="5.63799">
        <ele>1342</ele>
        <time>2014-06-28T09:28:02.000Z</time>
      </trkpt>
      <trkpt lat="45.16256" lon="5.638">
        <ele>1342</ele>
        <time>2014-06-28T09:28:03.000Z</time>
      </trkpt>
      <trkpt lat="45.16257" lon="5.63801">
        <ele>1342</ele>
        <time>2014-06-28T09:28:04.000Z</time>
      </trkpt>
      <trkpt lat="45.16257" lon="5.63802">
        <ele>1341</ele>
        <time>2014-06-28T09:28:05.000Z</time>
      </trkpt>
      <trkpt lat="45.16258" lon="5.63802">
        <ele>1341</ele>
        <time>2014-06-28T09:28:06.000Z</time>
      </trkpt>
      <trkpt lat="45.16259" lon="5.63802">
        <ele>1341</ele>
        <time>2014-06-28T09:28:07.000Z</time>
      </trkpt>
      <trkpt lat="45.16259" lon="5.63801">
        <ele>1341</ele>
        <time>2014-06-28T09:28:08.000Z</time>
      </trkpt>
      <trkpt lat="45.1626" lon="5.63801">
        <ele>1341</ele>
        <time>2014-06-28T09:28:09.000Z</time>
      </trkpt>
      <trkpt lat="45.1626" lon="5.638">
        <ele>1341</ele>
        <time>2014-06-28T09:28:10.000Z</time>
      </trkpt>
      <trkpt lat="45.16261" lon="5.63798">
        <ele>1340</ele>
        <time>2014-06-28T09:28:11.000Z</time>
      </trkpt>
      <trkpt lat="45.16261" lon="5.63797">
        <ele>1340</ele>
        <time>2014-06-28T09:28:12.000Z</time>
      </trkpt>
      <trkpt lat="45.16261" lon="5.63796">
        <ele>1340</ele>
        <time>2014-06-28T09:28:13.000Z</time>
      </trkpt>
      <trkpt lat="45.16262" lon="5.63796">
        <ele>1339</ele>
        <time>2014-06-28T09:28:14.000Z</time>
      </trkpt>
      <trkpt lat="45.16262" lon="5.63795">
        <ele>1339</ele>
        <time>2014-06-28T09:28:15.000Z</time>
      </trkpt>
      <trkpt lat="45.16262" lon="5.63794">
        <ele>1338</ele>
        <time>2014-06-28T09:28:16.000Z</time>
      </trkpt>
      <trkpt lat="45.16262" lon="5.63793">
        <ele>1338</ele>
        <time>2014-06-28T09:28:17.000Z</time>
      </trkpt>
      <trkpt lat="45.16263" lon="5.63792">
        <ele>1338</ele>
        <time>2014-06-28T09:28:18.000Z</time>
      </trkpt>
      <trkpt lat="45.16264" lon="5.63791">
        <ele>1337</ele>
        <time>2014-06-28T09:28:19.000Z</time>
      </trkpt>
      <trkpt lat="45.16264" lon="5.6379">
        <ele>1337</ele>
        <time>2014-06-28T09:28:20.000Z</time>
      </trkpt>
      <trkpt lat="45.16265" lon="5.63788">
        <ele>1336</ele>
        <time>2014-06-28T09:28:21.000Z</time>
      </trkpt>
      <trkpt lat="45.16266" lon="5.63786">
        <ele>1336</ele>
        <time>2014-06-28T09:28:22.000Z</time>
      </trkpt>
      <trkpt lat="45.16266" lon="5.63784">
        <ele>1335</ele>
        <time>2014-06-28T09:28:23.000Z</time>
      </trkpt>
      <trkpt lat="45.16267" lon="5.63783">
        <ele>1335</ele>
        <time>2014-06-28T09:28:24.000Z</time>
      </trkpt>
      <trkpt lat="45.16267" lon="5.63781">
        <ele>1335</ele>
        <time>2014-06-28T09:28:25.000Z</time>
      </trkpt>
      <trkpt lat="45.16267" lon="5.63779">
        <ele>1334</ele>
        <time>2014-06-28T09:28:26.000Z</time>
      </trkpt>
      <trkpt lat="45.16268" lon="5.63777">
        <ele>1334</ele>
        <time>2014-06-28T09:28:27.000Z</time>
      </trkpt>
      <trkpt lat="45.16268" lon="5.63773">
        <ele>1333</ele>
        <time>2014-06-28T09:28:28.000Z</time>
      </trkpt>
      <trkpt lat="45.16269" lon="5.6377">
        <ele>1333</ele>
        <time>2014-06-28T09:28:29.000Z</time>
      </trkpt>
      <trkpt lat="45.1627" lon="5.63766">
        <ele>1333</ele>
        <time>2014-06-28T09:28:30.000Z</time>
      </trkpt>
      <trkpt lat="45.16271" lon="5.63763">
        <ele>1332</ele>
        <time>2014-06-28T09:28:31.000Z</time>
      </trkpt>
      <trkpt lat="45.16271" lon="5.63759">
        <ele>1332</ele>
        <time>2014-06-28T09:28:32.000Z</time>
      </trkpt>
      <trkpt lat="45.16273" lon="5.63756">
        <ele>1332</ele>
        <time>2014-06-28T09:28:33.000Z</time>
      </trkpt>
      <trkpt lat="45.16274" lon="5.63752">
        <ele>1331</ele>
        <time>2014-06-28T09:28:34.000Z</time>
      </trkpt>
      <trkpt lat="45.16276" lon="5.63749">
        <ele>1331</ele>
        <time>2014-06-28T09:28:35.000Z</time>
      </trkpt>
      <trkpt lat="45.16277" lon="5.63745">
        <ele>1330</ele>
        <time>2014-06-28T09:28:36.000Z</time>
      </trkpt>
      <trkpt lat="45.16278" lon="5.63743">
        <ele>1330</ele>
        <time>2014-06-28T09:28:37.000Z</time>
      </trkpt>
      <trkpt lat="45.16279" lon="5.6374">
        <ele>1329</ele>
        <time>2014-06-28T09:28:38.000Z</time>
      </trkpt>
      <trkpt lat="45.16279" lon="5.63738">
        <ele>1329</ele>
        <time>2014-06-28T09:28:39.000Z</time>
      </trkpt>
      <trkpt lat="45.16279" lon="5.63736">
        <ele>1329</ele>
        <time>2014-06-28T09:28:40.000Z</time>
      </trkpt>
      <trkpt lat="45.16279" lon="5.63733">
        <ele>1328</ele>
        <time>2014-06-28T09:28:41.000Z</time>
      </trkpt>
      <trkpt lat="45.16279" lon="5.63731">
        <ele>1328</ele>
        <time>2014-06-28T09:28:42.000Z</time>
      </trkpt>
      <trkpt lat="45.16279" lon="5.63728">
        <ele>1327</ele>
        <time>2014-06-28T09:28:43.000Z</time>
      </trkpt>
      <trkpt lat="45.16279" lon="5.63724">
        <ele>1327</ele>
        <time>2014-06-28T09:28:44.000Z</time>
      </trkpt>
      <trkpt lat="45.1628" lon="5.6372">
        <ele>1326</ele>
        <time>2014-06-28T09:28:45.000Z</time>
      </trkpt>
      <trkpt lat="45.1628" lon="5.63716">
        <ele>1325</ele>
        <time>2014-06-28T09:28:46.000Z</time>
      </trkpt>
      <trkpt lat="45.16281" lon="5.63713">
        <ele>1325</ele>
        <time>2014-06-28T09:28:47.000Z</time>
      </trkpt>
      <trkpt lat="45.16281" lon="5.6371">
        <ele>1324</ele>
        <time>2014-06-28T09:28:48.000Z</time>
      </trkpt>
      <trkpt lat="45.16282" lon="5.63707">
        <ele>1324</ele>
        <time>2014-06-28T09:28:49.000Z</time>
      </trkpt>
      <trkpt lat="45.16282" lon="5.63705">
        <ele>1323</ele>
        <time>2014-06-28T09:28:50.000Z</time>
      </trkpt>
      <trkpt lat="45.16282" lon="5.63703">
        <ele>1322</ele>
        <time>2014-06-28T09:28:51.000Z</time>
      </trkpt>
      <trkpt lat="45.16283" lon="5.637">
        <ele>1322</ele>
        <time>2014-06-28T09:28:52.000Z</time>
      </trkpt>
      <trkpt lat="45.16283" lon="5.63698">
        <ele>1321</ele>
        <time>2014-06-28T09:28:53.000Z</time>
      </trkpt>
      <trkpt lat="45.16284" lon="5.63696">
        <ele>1320</ele>
        <time>2014-06-28T09:28:54.000Z</time>
      </trkpt>
      <trkpt lat="45.16285" lon="5.63694">
        <ele>1320</ele>
        <time>2014-06-28T09:28:55.000Z</time>
      </trkpt>
      <trkpt lat="45.16285" lon="5.63692">
        <ele>1319</ele>
        <time>2014-06-28T09:28:56.000Z</time>
      </trkpt>
      <trkpt lat="45.16285" lon="5.6369">
        <ele>1319</ele>
        <time>2014-06-28T09:28:57.000Z</time>
      </trkpt>
      <trkpt lat="45.16285" lon="5.63689">
        <ele>1319</ele>
        <time>2014-06-28T09:28:58.000Z</time>
      </trkpt>
      <trkpt lat="45.16285" lon="5.63687">
        <ele>1318</ele>
        <time>2014-06-28T09:28:59.000Z</time>
      </trkpt>
      <trkpt lat="45.16286" lon="5.63685">
        <ele>1318</ele>
        <time>2014-06-28T09:29:00.000Z</time>
      </trkpt>
      <trkpt lat="45.16287" lon="5.63683">
        <ele>1318</ele>
        <time>2014-06-28T09:29:01.000Z</time>
      </trkpt>
      <trkpt lat="45.16288" lon="5.63682">
        <ele>1317</ele>
        <time>2014-06-28T09:29:02.000Z</time>
      </trkpt>
      <trkpt lat="45.16289" lon="5.6368">
        <ele>1317</ele>
        <time>2014-06-28T09:29:03.000Z</time>
      </trkpt>
      <trkpt lat="45.1629" lon="5.63678">
        <ele>1316</ele>
        <time>2014-06-28T09:29:04.000Z</time>
      </trkpt>
      <trkpt lat="45.16292" lon="5.63676">
        <ele>1316</ele>
        <time>2014-06-28T09:29:05.000Z</time>
      </trkpt>
      <trkpt lat="45.16293" lon="5.63674">
        <ele>1316</ele>
        <time>2014-06-28T09:29:06.000Z</time>
      </trkpt>
      <trkpt lat="45.16295" lon="5.63671">
        <ele>1315</ele>
        <time>2014-06-28T09:29:07.000Z</time>
      </trkpt>
      <trkpt lat="45.16297" lon="5.63669">
        <ele>1315</ele>
        <time>2014-06-28T09:29:08.000Z</time>
      </trkpt>
      <trkpt lat="45.16298" lon="5.63667">
        <ele>1314</ele>
        <time>2014-06-28T09:29:09.000Z</time>
      </trkpt>
      <trkpt lat="45.16299" lon="5.63665">
        <ele>1314</ele>
        <time>2014-06-28T09:29:10.000Z</time>
      </trkpt>
      <trkpt lat="45.163" lon="5.63664">
        <ele>1313</ele>
        <time>2014-06-28T09:29:11.000Z</time>
      </trkpt>
      <trkpt lat="45.16301" lon="5.63662">
        <ele>1313</ele>
        <time>2014-06-28T09:29:12.000Z</time>
      </trkpt>
      <trkpt lat="45.16301" lon="5.63662">
        <ele>1313</ele>
        <time>2014-06-28T09:29:13.000Z</time>
      </trkpt>
      <trkpt lat="45.16301" lon="5.63661">
        <ele>1312</ele>
        <time>2014-06-28T09:29:14.000Z</time>
      </trkpt>
      <trkpt lat="45.16301" lon="5.6366">
        <ele>1312</ele>
        <time>2014-06-28T09:29:15.000Z</time>
      </trkpt>
      <trkpt lat="45.16301" lon="5.6366">
        <ele>1312</ele>
        <time>2014-06-28T09:29:16.000Z</time>
      </trkpt>
      <trkpt lat="45.16302" lon="5.6366">
        <ele>1311</ele>
        <time>2014-06-28T09:29:17.000Z</time>
      </trkpt>
      <trkpt lat="45.16302" lon="5.6366">
        <ele>1311</ele>
        <time>2014-06-28T09:29:18.000Z</time>
      </trkpt>
      <trkpt lat="45.16301" lon="5.63659">
        <ele>1311</ele>
        <time>2014-06-28T09:29:19.000Z</time>
      </trkpt>
      <trkpt lat="45.16301" lon="5.63659">
        <ele>1310</ele>
        <time>2014-06-28T09:29:20.000Z</time>
      </trkpt>
      <trkpt lat="45.16301" lon="5.63659">
        <ele>1310</ele>
        <time>2014-06-28T09:29:21.000Z</time>
      </trkpt>
      <trkpt lat="45.16301" lon="5.63659">
        <ele>1310</ele>
        <time>2014-06-28T09:29:22.000Z</time>
      </trkpt>
      <trkpt lat="45.16301" lon="5.63659">
        <ele>1310</ele>
        <time>2014-06-28T09:29:23.000Z</time>
      </trkpt>
      <trkpt lat="45.16301" lon="5.63659">
        <ele>1310</ele>
        <time>2014-06-28T09:29:24.000Z</time>
      </trkpt>
      <trkpt lat="45.16301" lon="5.63658">
        <ele>1309</ele>
        <time>2014-06-28T09:29:25.000Z</time>
      </trkpt>
      <trkpt lat="45.163" lon="5.63658">
        <ele>1309</ele>
        <time>2014-06-28T09:29:26.000Z</time>
      </trkpt>
      <trkpt lat="45.163" lon="5.63658">
        <ele>1309</ele>
        <time>2014-06-28T09:29:27.000Z</time>
      </trkpt>
      <trkpt lat="45.163" lon="5.63658">
        <ele>1309</ele>
        <time>2014-06-28T09:29:28.000Z</time>
      </trkpt>
      <trkpt lat="45.163" lon="5.63658">
        <ele>1308</ele>
        <time>2014-06-28T09:29:29.000Z</time>
      </trkpt>
      <trkpt lat="45.163" lon="5.63657">
        <ele>1308</ele>
        <time>2014-06-28T09:29:30.000Z</time>
      </trkpt>
      <trkpt lat="45.163" lon="5.63657">
        <ele>1308</ele>
        <time>2014-06-28T09:29:31.000Z</time>
      </trkpt>
      <trkpt lat="45.163" lon="5.63657">
        <ele>1308</ele>
        <time>2014-06-28T09:29:32.000Z</time>
      </trkpt>
      <trkpt lat="45.16299" lon="5.63657">
        <ele>1308</ele>
        <time>2014-06-28T09:29:33.000Z</time>
      </trkpt>
      <trkpt lat="45.16299" lon="5.63657">
        <ele>1307</ele>
        <time>2014-06-28T09:29:34.000Z</time>
      </trkpt>
      <trkpt lat="45.16299" lon="5.63657">
        <ele>1307</ele>
        <time>2014-06-28T09:29:35.000Z</time>
      </trkpt>
      <trkpt lat="45.16299" lon="5.63657">
        <ele>1307</ele>
        <time>2014-06-28T09:29:36.000Z</time>
      </trkpt>
      <trkpt lat="45.16299" lon="5.63658">
        <ele>1307</ele>
        <time>2014-06-28T09:29:37.000Z</time>
      </trkpt>
      <trkpt lat="45.16299" lon="5.63658">
        <ele>1307</ele>
        <time>2014-06-28T09:29:38.000Z</time>
      </trkpt>
      <trkpt lat="45.16299" lon="5.63658">
        <ele>1307</ele>
        <time>2014-06-28T09:29:39.000Z</time>
      </trkpt>
      <trkpt lat="45.16299" lon="5.63658">
        <ele>1307</ele>
        <time>2014-06-28T09:29:40.000Z</time>
      </trkpt>
      <trkpt lat="45.16299" lon="5.63658">
        <ele>1307</ele>
        <time>2014-06-28T09:29:41.000Z</time>
      </trkpt>
      <trkpt lat="45.16299" lon="5.63657">
        <ele>1306</ele>
        <time>2014-06-28T09:29:42.000Z</time>
      </trkpt>
      <trkpt lat="45.16299" lon="5.63657">
        <ele>1306</ele>
        <time>2014-06-28T09:29:43.000Z</time>
      </trkpt>
      <trkpt lat="45.16298" lon="5.63657">
        <ele>1306</ele>
        <time>2014-06-28T09:29:44.000Z</time>
      </trkpt>
      <trkpt lat="45.16298" lon="5.63656">
        <ele>1306</ele>
        <time>2014-06-28T09:29:45.000Z</time>
      </trkpt>
      <trkpt lat="45.16298" lon="5.63656">
        <ele>1306</ele>
        <time>2014-06-28T09:29:46.000Z</time>
      </trkpt>
      <trkpt lat="45.16298" lon="5.63655">
        <ele>1306</ele>
        <time>2014-06-28T09:29:47.000Z</time>
      </trkpt>
      <trkpt lat="45.16298" lon="5.63654">
        <ele>1306</ele>
        <time>2014-06-28T09:29:48.000Z</time>
      </trkpt>
      <trkpt lat="45.16297" lon="5.63653">
        <ele>1306</ele>
        <time>2014-06-28T09:29:49.000Z</time>
      </trkpt>
      <trkpt lat="45.16297" lon="5.63652">
        <ele>1306</ele>
        <time>2014-06-28T09:29:50.000Z</time>
      </trkpt>
      <trkpt lat="45.16297" lon="5.63651">
        <ele>1305</ele>
        <time>2014-06-28T09:29:51.000Z</time>
      </trkpt>
      <trkpt lat="45.16297" lon="5.6365">
        <ele>1305</ele>
        <time>2014-06-28T09:29:52.000Z</time>
      </trkpt>
      <trkpt lat="45.16297" lon="5.63649">
        <ele>1305</ele>
        <time>2014-06-28T09:29:53.000Z</time>
      </trkpt>
      <trkpt lat="45.16297" lon="5.63648">
        <ele>1305</ele>
        <time>2014-06-28T09:29:54.000Z</time>
      </trkpt>
      <trkpt lat="45.16297" lon="5.63647">
        <ele>1305</ele>
        <time>2014-06-28T09:29:55.000Z</time>
      </trkpt>
      <trkpt lat="45.16298" lon="5.63646">
        <ele>1305</ele>
        <time>2014-06-28T09:29:56.000Z</time>
      </trkpt>
      <trkpt lat="45.16298" lon="5.63644">
        <ele>1305</ele>
        <time>2014-06-28T09:29:57.000Z</time>
      </trkpt>
      <trkpt lat="45.16298" lon="5.63643">
        <ele>1305</ele>
        <time>2014-06-28T09:29:58.000Z</time>
      </trkpt>
      <trkpt lat="45.16299" lon="5.63641">
        <ele>1305</ele>
        <time>2014-06-28T09:29:59.000Z</time>
      </trkpt>
      <trkpt lat="45.163" lon="5.63639">
        <ele>1305</ele>
        <time>2014-06-28T09:30:00.000Z</time>
      </trkpt>
      <trkpt lat="45.16301" lon="5.63637">
        <ele>1305</ele>
        <time>2014-06-28T09:30:01.000Z</time>
      </trkpt>
      <trkpt lat="45.16302" lon="5.63635">
        <ele>1305</ele>
        <time>2014-06-28T09:30:02.000Z</time>
      </trkpt>
      <trkpt lat="45.16304" lon="5.63634">
        <ele>1305</ele>
        <time>2014-06-28T09:30:03.000Z</time>
      </trkpt>
      <trkpt lat="45.16305" lon="5.63631">
        <ele>1305</ele>
        <time>2014-06-28T09:30:04.000Z</time>
      </trkpt>
      <trkpt lat="45.16306" lon="5.63629">
        <ele>1305</ele>
        <time>2014-06-28T09:30:05.000Z</time>
      </trkpt>
      <trkpt lat="45.16308" lon="5.63627">
        <ele>1305</ele>
        <time>2014-06-28T09:30:06.000Z</time>
      </trkpt>
      <trkpt lat="45.16309" lon="5.63625">
        <ele>1305</ele>
        <time>2014-06-28T09:30:07.000Z</time>
      </trkpt>
      <trkpt lat="45.1631" lon="5.63624">
        <ele>1304</ele>
        <time>2014-06-28T09:30:08.000Z</time>
      </trkpt>
      <trkpt lat="45.16311" lon="5.63623">
        <ele>1304</ele>
        <time>2014-06-28T09:30:09.000Z</time>
      </trkpt>
      <trkpt lat="45.16311" lon="5.63621">
        <ele>1304</ele>
        <time>2014-06-28T09:30:10.000Z</time>
      </trkpt>
      <trkpt lat="45.16312" lon="5.6362">
        <ele>1304</ele>
        <time>2014-06-28T09:30:11.000Z</time>
      </trkpt>
      <trkpt lat="45.16312" lon="5.63619">
        <ele>1304</ele>
        <time>2014-06-28T09:30:12.000Z</time>
      </trkpt>
      <trkpt lat="45.16312" lon="5.63618">
        <ele>1304</ele>
        <time>2014-06-28T09:30:13.000Z</time>
      </trkpt>
      <trkpt lat="45.16313" lon="5.63617">
        <ele>1304</ele>
        <time>2014-06-28T09:30:14.000Z</time>
      </trkpt>
      <trkpt lat="45.16313" lon="5.63616">
        <ele>1304</ele>
        <time>2014-06-28T09:30:15.000Z</time>
      </trkpt>
      <trkpt lat="45.16313" lon="5.63616">
        <ele>1303</ele>
        <time>2014-06-28T09:30:16.000Z</time>
      </trkpt>
      <trkpt lat="45.16313" lon="5.63616">
        <ele>1303</ele>
        <time>2014-06-28T09:30:17.000Z</time>
      </trkpt>
      <trkpt lat="45.16313" lon="5.63616">
        <ele>1303</ele>
        <time>2014-06-28T09:30:18.000Z</time>
      </trkpt>
      <trkpt lat="45.16313" lon="5.63616">
        <ele>1302</ele>
        <time>2014-06-28T09:30:19.000Z</time>
      </trkpt>
      <trkpt lat="45.16314" lon="5.63616">
        <ele>1302</ele>
        <time>2014-06-28T09:30:20.000Z</time>
      </trkpt>
      <trkpt lat="45.16314" lon="5.63616">
        <ele>1301</ele>
        <time>2014-06-28T09:30:21.000Z</time>
      </trkpt>
      <trkpt lat="45.16315" lon="5.63615">
        <ele>1301</ele>
        <time>2014-06-28T09:30:22.000Z</time>
      </trkpt>
      <trkpt lat="45.16315" lon="5.63614">
        <ele>1300</ele>
        <time>2014-06-28T09:30:23.000Z</time>
      </trkpt>
      <trkpt lat="45.16316" lon="5.63613">
        <ele>1300</ele>
        <time>2014-06-28T09:30:24.000Z</time>
      </trkpt>
      <trkpt lat="45.16316" lon="5.63612">
        <ele>1300</ele>
        <time>2014-06-28T09:30:25.000Z</time>
      </trkpt>
      <trkpt lat="45.16316" lon="5.63611">
        <ele>1299</ele>
        <time>2014-06-28T09:30:26.000Z</time>
      </trkpt>
      <trkpt lat="45.16317" lon="5.63611">
        <ele>1299</ele>
        <time>2014-06-28T09:30:27.000Z</time>
      </trkpt>
      <trkpt lat="45.16317" lon="5.6361">
        <ele>1299</ele>
        <time>2014-06-28T09:30:28.000Z</time>
      </trkpt>
      <trkpt lat="45.16318" lon="5.63609">
        <ele>1299</ele>
        <time>2014-06-28T09:30:29.000Z</time>
      </trkpt>
      <trkpt lat="45.16319" lon="5.63608">
        <ele>1298</ele>
        <time>2014-06-28T09:30:30.000Z</time>
      </trkpt>
      <trkpt lat="45.1632" lon="5.63607">
        <ele>1298</ele>
        <time>2014-06-28T09:30:31.000Z</time>
      </trkpt>
      <trkpt lat="45.16322" lon="5.63606">
        <ele>1298</ele>
        <time>2014-06-28T09:30:32.000Z</time>
      </trkpt>
      <trkpt lat="45.16324" lon="5.63605">
        <ele>1298</ele>
        <time>2014-06-28T09:30:33.000Z</time>
      </trkpt>
      <trkpt lat="45.16326" lon="5.63603">
        <ele>1297</ele>
        <time>2014-06-28T09:30:34.000Z</time>
      </trkpt>
      <trkpt lat="45.16328" lon="5.63601">
        <ele>1297</ele>
        <time>2014-06-28T09:30:35.000Z</time>
      </trkpt>
      <trkpt lat="45.16331" lon="5.63599">
        <ele>1297</ele>
        <time>2014-06-28T09:30:36.000Z</time>
      </trkpt>
      <trkpt lat="45.16333" lon="5.63597">
        <ele>1296</ele>
        <time>2014-06-28T09:30:37.000Z</time>
      </trkpt>
      <trkpt lat="45.16334" lon="5.63595">
        <ele>1296</ele>
        <time>2014-06-28T09:30:38.000Z</time>
      </trkpt>
      <trkpt lat="45.16336" lon="5.63594">
        <ele>1295</ele>
        <time>2014-06-28T09:30:39.000Z</time>
      </trkpt>
      <trkpt lat="45.16337" lon="5.63592">
        <ele>1295</ele>
        <time>2014-06-28T09:30:40.000Z</time>
      </trkpt>
      <trkpt lat="45.16338" lon="5.6359">
        <ele>1294</ele>
        <time>2014-06-28T09:30:41.000Z</time>
      </trkpt>
      <trkpt lat="45.1634" lon="5.63588">
        <ele>1294</ele>
        <time>2014-06-28T09:30:42.000Z</time>
      </trkpt>
      <trkpt lat="45.16341" lon="5.63587">
        <ele>1293</ele>
        <time>2014-06-28T09:30:43.000Z</time>
      </trkpt>
      <trkpt lat="45.16341" lon="5.63585">
        <ele>1293</ele>
        <time>2014-06-28T09:30:44.000Z</time>
      </trkpt>
      <trkpt lat="45.16342" lon="5.63583">
        <ele>1292</ele>
        <time>2014-06-28T09:30:45.000Z</time>
      </trkpt>
      <trkpt lat="45.16342" lon="5.6358">
        <ele>1292</ele>
        <time>2014-06-28T09:30:46.000Z</time>
      </trkpt>
      <trkpt lat="45.16343" lon="5.63578">
        <ele>1292</ele>
        <time>2014-06-28T09:30:47.000Z</time>
      </trkpt>
      <trkpt lat="45.16344" lon="5.63576">
        <ele>1291</ele>
        <time>2014-06-28T09:30:48.000Z</time>
      </trkpt>
      <trkpt lat="45.16344" lon="5.63574">
        <ele>1291</ele>
        <time>2014-06-28T09:30:49.000Z</time>
      </trkpt>
      <trkpt lat="45.16345" lon="5.63571">
        <ele>1291</ele>
        <time>2014-06-28T09:30:50.000Z</time>
      </trkpt>
      <trkpt lat="45.16346" lon="5.63569">
        <ele>1291</ele>
        <time>2014-06-28T09:30:51.000Z</time>
      </trkpt>
      <trkpt lat="45.16347" lon="5.63566">
        <ele>1291</ele>
        <time>2014-06-28T09:30:52.000Z</time>
      </trkpt>
      <trkpt lat="45.16348" lon="5.63563">
        <ele>1290</ele>
        <time>2014-06-28T09:30:53.000Z</time>
      </trkpt>
      <trkpt lat="45.16348" lon="5.63559">
        <ele>1290</ele>
        <time>2014-06-28T09:30:54.000Z</time>
      </trkpt>
      <trkpt lat="45.16349" lon="5.63556">
        <ele>1290</ele>
        <time>2014-06-28T09:30:55.000Z</time>
      </trkpt>
      <trkpt lat="45.1635" lon="5.63553">
        <ele>1290</ele>
        <time>2014-06-28T09:30:56.000Z</time>
      </trkpt>
      <trkpt lat="45.16351" lon="5.6355">
        <ele>1290</ele>
        <time>2014-06-28T09:30:57.000Z</time>
      </trkpt>
      <trkpt lat="45.16351" lon="5.63548">
        <ele>1289</ele>
        <time>2014-06-28T09:30:58.000Z</time>
      </trkpt>
      <trkpt lat="45.16352" lon="5.63545">
        <ele>1289</ele>
        <time>2014-06-28T09:30:59.000Z</time>
      </trkpt>
      <trkpt lat="45.16352" lon="5.63544">
        <ele>1289</ele>
        <time>2014-06-28T09:31:00.000Z</time>
      </trkpt>
      <trkpt lat="45.16352" lon="5.63542">
        <ele>1289</ele>
        <time>2014-06-28T09:31:01.000Z</time>
      </trkpt>
      <trkpt lat="45.16352" lon="5.6354">
        <ele>1289</ele>
        <time>2014-06-28T09:31:02.000Z</time>
      </trkpt>
      <trkpt lat="45.16352" lon="5.63538">
        <ele>1289</ele>
        <time>2014-06-28T09:31:03.000Z</time>
      </trkpt>
      <trkpt lat="45.16353" lon="5.63536">
        <ele>1289</ele>
        <time>2014-06-28T09:31:04.000Z</time>
      </trkpt>
      <trkpt lat="45.16353" lon="5.63534">
        <ele>1289</ele>
        <time>2014-06-28T09:31:05.000Z</time>
      </trkpt>
      <trkpt lat="45.16353" lon="5.63532">
        <ele>1288</ele>
        <time>2014-06-28T09:31:06.000Z</time>
      </trkpt>
      <trkpt lat="45.16354" lon="5.63531">
        <ele>1288</ele>
        <time>2014-06-28T09:31:07.000Z</time>
      </trkpt>
      <trkpt lat="45.16354" lon="5.63529">
        <ele>1288</ele>
        <time>2014-06-28T09:31:08.000Z</time>
      </trkpt>
      <trkpt lat="45.16355" lon="5.63528">
        <ele>1288</ele>
        <time>2014-06-28T09:31:09.000Z</time>
      </trkpt>
      <trkpt lat="45.16355" lon="5.63527">
        <ele>1288</ele>
        <time>2014-06-28T09:31:10.000Z</time>
      </trkpt>
      <trkpt lat="45.16356" lon="5.63525">
        <ele>1288</ele>
        <time>2014-06-28T09:31:11.000Z</time>
      </trkpt>
      <trkpt lat="45.16357" lon="5.63524">
        <ele>1288</ele>
        <time>2014-06-28T09:31:12.000Z</time>
      </trkpt>
      <trkpt lat="45.16358" lon="5.63522">
        <ele>1288</ele>
        <time>2014-06-28T09:31:13.000Z</time>
      </trkpt>
      <trkpt lat="45.16359" lon="5.6352">
        <ele>1288</ele>
        <time>2014-06-28T09:31:14.000Z</time>
      </trkpt>
      <trkpt lat="45.1636" lon="5.63519">
        <ele>1288</ele>
        <time>2014-06-28T09:31:15.000Z</time>
      </trkpt>
      <trkpt lat="45.1636" lon="5.63517">
        <ele>1288</ele>
        <time>2014-06-28T09:31:16.000Z</time>
      </trkpt>
      <trkpt lat="45.1636" lon="5.63515">
        <ele>1288</ele>
        <time>2014-06-28T09:31:17.000Z</time>
      </trkpt>
      <trkpt lat="45.16359" lon="5.63512">
        <ele>1288</ele>
        <time>2014-06-28T09:31:18.000Z</time>
      </trkpt>
      <trkpt lat="45.16359" lon="5.6351">
        <ele>1288</ele>
        <time>2014-06-28T09:31:19.000Z</time>
      </trkpt>
      <trkpt lat="45.1636" lon="5.63509">
        <ele>1288</ele>
        <time>2014-06-28T09:31:20.000Z</time>
      </trkpt>
      <trkpt lat="45.1636" lon="5.63508">
        <ele>1288</ele>
        <time>2014-06-28T09:31:21.000Z</time>
      </trkpt>
      <trkpt lat="45.1636" lon="5.63507">
        <ele>1288</ele>
        <time>2014-06-28T09:31:22.000Z</time>
      </trkpt>
      <trkpt lat="45.16361" lon="5.63506">
        <ele>1288</ele>
        <time>2014-06-28T09:31:23.000Z</time>
      </trkpt>
      <trkpt lat="45.16361" lon="5.63505">
        <ele>1288</ele>
        <time>2014-06-28T09:31:24.000Z</time>
      </trkpt>
      <trkpt lat="45.16362" lon="5.63504">
        <ele>1288</ele>
        <time>2014-06-28T09:31:25.000Z</time>
      </trkpt>
      <trkpt lat="45.16362" lon="5.63503">
        <ele>1288</ele>
        <time>2014-06-28T09:31:26.000Z</time>
      </trkpt>
      <trkpt lat="45.16363" lon="5.63501">
        <ele>1288</ele>
        <time>2014-06-28T09:31:27.000Z</time>
      </trkpt>
      <trkpt lat="45.16363" lon="5.635">
        <ele>1288</ele>
        <time>2014-06-28T09:31:28.000Z</time>
      </trkpt>
      <trkpt lat="45.16363" lon="5.63499">
        <ele>1288</ele>
        <time>2014-06-28T09:31:29.000Z</time>
      </trkpt>
      <trkpt lat="45.16364" lon="5.63497">
        <ele>1287</ele>
        <time>2014-06-28T09:31:30.000Z</time>
      </trkpt>
      <trkpt lat="45.16365" lon="5.63496">
        <ele>1287</ele>
        <time>2014-06-28T09:31:31.000Z</time>
      </trkpt>
      <trkpt lat="45.16365" lon="5.63495">
        <ele>1287</ele>
        <time>2014-06-28T09:31:32.000Z</time>
      </trkpt>
      <trkpt lat="45.16366" lon="5.63494">
        <ele>1287</ele>
        <time>2014-06-28T09:31:33.000Z</time>
      </trkpt>
      <trkpt lat="45.16367" lon="5.63492">
        <ele>1287</ele>
        <time>2014-06-28T09:31:34.000Z</time>
      </trkpt>
      <trkpt lat="45.16367" lon="5.63491">
        <ele>1287</ele>
        <time>2014-06-28T09:31:35.000Z</time>
      </trkpt>
      <trkpt lat="45.16367" lon="5.63491">
        <ele>1287</ele>
        <time>2014-06-28T09:31:36.000Z</time>
      </trkpt>
      <trkpt lat="45.16367" lon="5.6349">
        <ele>1286</ele>
        <time>2014-06-28T09:31:37.000Z</time>
      </trkpt>
      <trkpt lat="45.16367" lon="5.6349">
        <ele>1286</ele>
        <time>2014-06-28T09:31:38.000Z</time>
      </trkpt>
      <trkpt lat="45.16367" lon="5.63489">
        <ele>1286</ele>
        <time>2014-06-28T09:31:39.000Z</time>
      </trkpt>
      <trkpt lat="45.16367" lon="5.63488">
        <ele>1286</ele>
        <time>2014-06-28T09:31:40.000Z</time>
      </trkpt>
      <trkpt lat="45.16367" lon="5.63487">
        <ele>1286</ele>
        <time>2014-06-28T09:31:41.000Z</time>
      </trkpt>
      <trkpt lat="45.16366" lon="5.63487">
        <ele>1285</ele>
        <time>2014-06-28T09:31:42.000Z</time>
      </trkpt>
      <trkpt lat="45.16366" lon="5.63487">
        <ele>1285</ele>
        <time>2014-06-28T09:31:43.000Z</time>
      </trkpt>
      <trkpt lat="45.16366" lon="5.63486">
        <ele>1285</ele>
        <time>2014-06-28T09:31:44.000Z</time>
      </trkpt>
      <trkpt lat="45.16365" lon="5.63487">
        <ele>1285</ele>
        <time>2014-06-28T09:31:45.000Z</time>
      </trkpt>
      <trkpt lat="45.16365" lon="5.63486">
        <ele>1285</ele>
        <time>2014-06-28T09:31:46.000Z</time>
      </trkpt>
      <trkpt lat="45.16365" lon="5.63486">
        <ele>1284</ele>
        <time>2014-06-28T09:31:47.000Z</time>
      </trkpt>
      <trkpt lat="45.16365" lon="5.63485">
        <ele>1284</ele>
        <time>2014-06-28T09:31:48.000Z</time>
      </trkpt>
      <trkpt lat="45.16365" lon="5.63484">
        <ele>1284</ele>
        <time>2014-06-28T09:31:49.000Z</time>
      </trkpt>
      <trkpt lat="45.16366" lon="5.63483">
        <ele>1284</ele>
        <time>2014-06-28T09:31:50.000Z</time>
      </trkpt>
      <trkpt lat="45.16366" lon="5.63481">
        <ele>1284</ele>
        <time>2014-06-28T09:31:51.000Z</time>
      </trkpt>
      <trkpt lat="45.16366" lon="5.6348">
        <ele>1284</ele>
        <time>2014-06-28T09:31:52.000Z</time>
      </trkpt>
      <trkpt lat="45.16366" lon="5.63479">
        <ele>1284</ele>
        <time>2014-06-28T09:31:53.000Z</time>
      </trkpt>
      <trkpt lat="45.16366" lon="5.63478">
        <ele>1284</ele>
        <time>2014-06-28T09:31:54.000Z</time>
      </trkpt>
      <trkpt lat="45.16367" lon="5.63476">
        <ele>1284</ele>
        <time>2014-06-28T09:31:55.000Z</time>
      </trkpt>
      <trkpt lat="45.16367" lon="5.63475">
        <ele>1284</ele>
        <time>2014-06-28T09:31:56.000Z</time>
      </trkpt>
      <trkpt lat="45.16367" lon="5.63474">
        <ele>1284</ele>
        <time>2014-06-28T09:31:57.000Z</time>
      </trkpt>
      <trkpt lat="45.16368" lon="5.63474">
        <ele>1284</ele>
        <time>2014-06-28T09:31:58.000Z</time>
      </trkpt>
      <trkpt lat="45.16368" lon="5.63473">
        <ele>1283</ele>
        <time>2014-06-28T09:31:59.000Z</time>
      </trkpt>
      <trkpt lat="45.16369" lon="5.63473">
        <ele>1283</ele>
        <time>2014-06-28T09:32:00.000Z</time>
      </trkpt>
      <trkpt lat="45.16369" lon="5.63472">
        <ele>1283</ele>
        <time>2014-06-28T09:32:01.000Z</time>
      </trkpt>
      <trkpt lat="45.1637" lon="5.63472">
        <ele>1283</ele>
        <time>2014-06-28T09:32:02.000Z</time>
      </trkpt>
      <trkpt lat="45.1637" lon="5.63472">
        <ele>1283</ele>
        <time>2014-06-28T09:32:03.000Z</time>
      </trkpt>
      <trkpt lat="45.16371" lon="5.63471">
        <ele>1283</ele>
        <time>2014-06-28T09:32:04.000Z</time>
      </trkpt>
      <trkpt lat="45.16371" lon="5.63471">
        <ele>1283</ele>
        <time>2014-06-28T09:32:05.000Z</time>
      </trkpt>
      <trkpt lat="45.16371" lon="5.63471">
        <ele>1283</ele>
        <time>2014-06-28T09:32:06.000Z</time>
      </trkpt>
      <trkpt lat="45.16371" lon="5.6347">
        <ele>1283</ele>
        <time>2014-06-28T09:32:07.000Z</time>
      </trkpt>
      <trkpt lat="45.16371" lon="5.6347">
        <ele>1283</ele>
        <time>2014-06-28T09:32:08.000Z</time>
      </trkpt>
      <trkpt lat="45.16372" lon="5.6347">
        <ele>1283</ele>
        <time>2014-06-28T09:32:09.000Z</time>
      </trkpt>
      <trkpt lat="45.16372" lon="5.6347">
        <ele>1283</ele>
        <time>2014-06-28T09:32:10.000Z</time>
      </trkpt>
      <trkpt lat="45.16372" lon="5.63469">
        <ele>1282</ele>
        <time>2014-06-28T09:32:11.000Z</time>
      </trkpt>
      <trkpt lat="45.16372" lon="5.63469">
        <ele>1282</ele>
        <time>2014-06-28T09:32:12.000Z</time>
      </trkpt>
      <trkpt lat="45.16372" lon="5.63469">
        <ele>1282</ele>
        <time>2014-06-28T09:32:13.000Z</time>
      </trkpt>
      <trkpt lat="45.16372" lon="5.63468">
        <ele>1282</ele>
        <time>2014-06-28T09:32:14.000Z</time>
      </trkpt>
      <trkpt lat="45.16373" lon="5.63468">
        <ele>1282</ele>
        <time>2014-06-28T09:32:15.000Z</time>
      </trkpt>
      <trkpt lat="45.16373" lon="5.63467">
        <ele>1282</ele>
        <time>2014-06-28T09:32:16.000Z</time>
      </trkpt>
      <trkpt lat="45.16374" lon="5.63467">
        <ele>1282</ele>
        <time>2014-06-28T09:32:17.000Z</time>
      </trkpt>
      <trkpt lat="45.16374" lon="5.63466">
        <ele>1282</ele>
        <time>2014-06-28T09:32:18.000Z</time>
      </trkpt>
      <trkpt lat="45.16375" lon="5.63465">
        <ele>1282</ele>
        <time>2014-06-28T09:32:19.000Z</time>
      </trkpt>
      <trkpt lat="45.16375" lon="5.63464">
        <ele>1282</ele>
        <time>2014-06-28T09:32:20.000Z</time>
      </trkpt>
      <trkpt lat="45.16376" lon="5.63462">
        <ele>1282</ele>
        <time>2014-06-28T09:32:21.000Z</time>
      </trkpt>
      <trkpt lat="45.16376" lon="5.63461">
        <ele>1282</ele>
        <time>2014-06-28T09:32:22.000Z</time>
      </trkpt>
      <trkpt lat="45.16376" lon="5.6346">
        <ele>1282</ele>
        <time>2014-06-28T09:32:23.000Z</time>
      </trkpt>
      <trkpt lat="45.16377" lon="5.63459">
        <ele>1281</ele>
        <time>2014-06-28T09:32:24.000Z</time>
      </trkpt>
      <trkpt lat="45.16377" lon="5.63458">
        <ele>1281</ele>
        <time>2014-06-28T09:32:25.000Z</time>
      </trkpt>
      <trkpt lat="45.16378" lon="5.63457">
        <ele>1281</ele>
        <time>2014-06-28T09:32:26.000Z</time>
      </trkpt>
      <trkpt lat="45.16379" lon="5.63456">
        <ele>1281</ele>
        <time>2014-06-28T09:32:27.000Z</time>
      </trkpt>
      <trkpt lat="45.16379" lon="5.63455">
        <ele>1281</ele>
        <time>2014-06-28T09:32:28.000Z</time>
      </trkpt>
      <trkpt lat="45.1638" lon="5.63453">
        <ele>1281</ele>
        <time>2014-06-28T09:32:29.000Z</time>
      </trkpt>
      <trkpt lat="45.16381" lon="5.63452">
        <ele>1281</ele>
        <time>2014-06-28T09:32:30.000Z</time>
      </trkpt>
      <trkpt lat="45.16382" lon="5.63451">
        <ele>1281</ele>
        <time>2014-06-28T09:32:31.000Z</time>
      </trkpt>
      <trkpt lat="45.16382" lon="5.6345">
        <ele>1281</ele>
        <time>2014-06-28T09:32:32.000Z</time>
      </trkpt>
      <trkpt lat="45.16382" lon="5.63448">
        <ele>1280</ele>
        <time>2014-06-28T09:32:33.000Z</time>
      </trkpt>
      <trkpt lat="45.16382" lon="5.63447">
        <ele>1280</ele>
        <time>2014-06-28T09:32:34.000Z</time>
      </trkpt>
      <trkpt lat="45.16383" lon="5.63445">
        <ele>1280</ele>
        <time>2014-06-28T09:32:35.000Z</time>
      </trkpt>
      <trkpt lat="45.16383" lon="5.63443">
        <ele>1280</ele>
        <time>2014-06-28T09:32:36.000Z</time>
      </trkpt>
      <trkpt lat="45.16384" lon="5.63442">
        <ele>1279</ele>
        <time>2014-06-28T09:32:37.000Z</time>
      </trkpt>
      <trkpt lat="45.16385" lon="5.6344">
        <ele>1279</ele>
        <time>2014-06-28T09:32:38.000Z</time>
      </trkpt>
      <trkpt lat="45.16386" lon="5.63439">
        <ele>1279</ele>
        <time>2014-06-28T09:32:39.000Z</time>
      </trkpt>
      <trkpt lat="45.16387" lon="5.63437">
        <ele>1278</ele>
        <time>2014-06-28T09:32:40.000Z</time>
      </trkpt>
      <trkpt lat="45.16387" lon="5.63436">
        <ele>1278</ele>
        <time>2014-06-28T09:32:41.000Z</time>
      </trkpt>
      <trkpt lat="45.16388" lon="5.63434">
        <ele>1278</ele>
        <time>2014-06-28T09:32:42.000Z</time>
      </trkpt>
      <trkpt lat="45.16388" lon="5.63433">
        <ele>1278</ele>
        <time>2014-06-28T09:32:43.000Z</time>
      </trkpt>
      <trkpt lat="45.16389" lon="5.63431">
        <ele>1278</ele>
        <time>2014-06-28T09:32:44.000Z</time>
      </trkpt>
      <trkpt lat="45.16389" lon="5.6343">
        <ele>1278</ele>
        <time>2014-06-28T09:32:45.000Z</time>
      </trkpt>
      <trkpt lat="45.1639" lon="5.63428">
        <ele>1278</ele>
        <time>2014-06-28T09:32:46.000Z</time>
      </trkpt>
      <trkpt lat="45.16391" lon="5.63426">
        <ele>1278</ele>
        <time>2014-06-28T09:32:47.000Z</time>
      </trkpt>
      <trkpt lat="45.16392" lon="5.63424">
        <ele>1278</ele>
        <time>2014-06-28T09:32:48.000Z</time>
      </trkpt>
      <trkpt lat="45.16393" lon="5.63421">
        <ele>1278</ele>
        <time>2014-06-28T09:32:49.000Z</time>
      </trkpt>
      <trkpt lat="45.16394" lon="5.63419">
        <ele>1278</ele>
        <time>2014-06-28T09:32:50.000Z</time>
      </trkpt>
      <trkpt lat="45.16395" lon="5.63417">
        <ele>1278</ele>
        <time>2014-06-28T09:32:51.000Z</time>
      </trkpt>
      <trkpt lat="45.16396" lon="5.63415">
        <ele>1278</ele>
        <time>2014-06-28T09:32:52.000Z</time>
      </trkpt>
      <trkpt lat="45.16396" lon="5.63413">
        <ele>1278</ele>
        <time>2014-06-28T09:32:53.000Z</time>
      </trkpt>
      <trkpt lat="45.16397" lon="5.63412">
        <ele>1278</ele>
        <time>2014-06-28T09:32:54.000Z</time>
      </trkpt>
      <trkpt lat="45.16398" lon="5.6341">
        <ele>1278</ele>
        <time>2014-06-28T09:32:55.000Z</time>
      </trkpt>
      <trkpt lat="45.16399" lon="5.63408">
        <ele>1278</ele>
        <time>2014-06-28T09:32:56.000Z</time>
      </trkpt>
      <trkpt lat="45.16399" lon="5.63406">
        <ele>1278</ele>
        <time>2014-06-28T09:32:57.000Z</time>
      </trkpt>
      <trkpt lat="45.164" lon="5.63404">
        <ele>1278</ele>
        <time>2014-06-28T09:32:58.000Z</time>
      </trkpt>
      <trkpt lat="45.164" lon="5.63401">
        <ele>1278</ele>
        <time>2014-06-28T09:32:59.000Z</time>
      </trkpt>
      <trkpt lat="45.16401" lon="5.63399">
        <ele>1278</ele>
        <time>2014-06-28T09:33:00.000Z</time>
      </trkpt>
      <trkpt lat="45.16402" lon="5.63396">
        <ele>1278</ele>
        <time>2014-06-28T09:33:01.000Z</time>
      </trkpt>
      <trkpt lat="45.16402" lon="5.63394">
        <ele>1278</ele>
        <time>2014-06-28T09:33:02.000Z</time>
      </trkpt>
      <trkpt lat="45.16402" lon="5.63392">
        <ele>1278</ele>
        <time>2014-06-28T09:33:03.000Z</time>
      </trkpt>
      <trkpt lat="45.16402" lon="5.63389">
        <ele>1278</ele>
        <time>2014-06-28T09:33:04.000Z</time>
      </trkpt>
      <trkpt lat="45.16401" lon="5.63387">
        <ele>1278</ele>
        <time>2014-06-28T09:33:05.000Z</time>
      </trkpt>
      <trkpt lat="45.16401" lon="5.63384">
        <ele>1278</ele>
        <time>2014-06-28T09:33:06.000Z</time>
      </trkpt>
      <trkpt lat="45.16401" lon="5.63381">
        <ele>1278</ele>
        <time>2014-06-28T09:33:07.000Z</time>
      </trkpt>
      <trkpt lat="45.164" lon="5.63379">
        <ele>1278</ele>
        <time>2014-06-28T09:33:08.000Z</time>
      </trkpt>
      <trkpt lat="45.164" lon="5.63376">
        <ele>1278</ele>
        <time>2014-06-28T09:33:09.000Z</time>
      </trkpt>
      <trkpt lat="45.16399" lon="5.63374">
        <ele>1278</ele>
        <time>2014-06-28T09:33:10.000Z</time>
      </trkpt>
      <trkpt lat="45.16399" lon="5.63372">
        <ele>1278</ele>
        <time>2014-06-28T09:33:11.000Z</time>
      </trkpt>
      <trkpt lat="45.16399" lon="5.63369">
        <ele>1278</ele>
        <time>2014-06-28T09:33:12.000Z</time>
      </trkpt>
      <trkpt lat="45.164" lon="5.63367">
        <ele>1278</ele>
        <time>2014-06-28T09:33:13.000Z</time>
      </trkpt>
      <trkpt lat="45.164" lon="5.63364">
        <ele>1278</ele>
        <time>2014-06-28T09:33:14.000Z</time>
      </trkpt>
      <trkpt lat="45.16401" lon="5.63362">
        <ele>1278</ele>
        <time>2014-06-28T09:33:15.000Z</time>
      </trkpt>
      <trkpt lat="45.16402" lon="5.63359">
        <ele>1278</ele>
        <time>2014-06-28T09:33:16.000Z</time>
      </trkpt>
      <trkpt lat="45.16402" lon="5.63356">
        <ele>1278</ele>
        <time>2014-06-28T09:33:17.000Z</time>
      </trkpt>
      <trkpt lat="45.16403" lon="5.63353">
        <ele>1278</ele>
        <time>2014-06-28T09:33:18.000Z</time>
      </trkpt>
      <trkpt lat="45.16404" lon="5.63349">
        <ele>1278</ele>
        <time>2014-06-28T09:33:19.000Z</time>
      </trkpt>
      <trkpt lat="45.16404" lon="5.63346">
        <ele>1279</ele>
        <time>2014-06-28T09:33:20.000Z</time>
      </trkpt>
      <trkpt lat="45.16405" lon="5.63343">
        <ele>1279</ele>
        <time>2014-06-28T09:33:21.000Z</time>
      </trkpt>
      <trkpt lat="45.16406" lon="5.63339">
        <ele>1279</ele>
        <time>2014-06-28T09:33:22.000Z</time>
      </trkpt>
      <trkpt lat="45.16406" lon="5.63336">
        <ele>1279</ele>
        <time>2014-06-28T09:33:23.000Z</time>
      </trkpt>
      <trkpt lat="45.16407" lon="5.63333">
        <ele>1279</ele>
        <time>2014-06-28T09:33:24.000Z</time>
      </trkpt>
      <trkpt lat="45.16407" lon="5.63331">
        <ele>1279</ele>
        <time>2014-06-28T09:33:25.000Z</time>
      </trkpt>
      <trkpt lat="45.16407" lon="5.63329">
        <ele>1279</ele>
        <time>2014-06-28T09:33:26.000Z</time>
      </trkpt>
      <trkpt lat="45.16407" lon="5.63327">
        <ele>1279</ele>
        <time>2014-06-28T09:33:27.000Z</time>
      </trkpt>
      <trkpt lat="45.16407" lon="5.63325">
        <ele>1280</ele>
        <time>2014-06-28T09:33:28.000Z</time>
      </trkpt>
      <trkpt lat="45.16407" lon="5.63323">
        <ele>1280</ele>
        <time>2014-06-28T09:33:29.000Z</time>
      </trkpt>
      <trkpt lat="45.16407" lon="5.63322">
        <ele>1280</ele>
        <time>2014-06-28T09:33:30.000Z</time>
      </trkpt>
      <trkpt lat="45.16406" lon="5.63321">
        <ele>1280</ele>
        <time>2014-06-28T09:33:31.000Z</time>
      </trkpt>
      <trkpt lat="45.16406" lon="5.6332">
        <ele>1280</ele>
        <time>2014-06-28T09:33:32.000Z</time>
      </trkpt>
      <trkpt lat="45.16406" lon="5.63319">
        <ele>1280</ele>
        <time>2014-06-28T09:33:33.000Z</time>
      </trkpt>
      <trkpt lat="45.16406" lon="5.63318">
        <ele>1280</ele>
        <time>2014-06-28T09:33:34.000Z</time>
      </trkpt>
      <trkpt lat="45.16406" lon="5.63318">
        <ele>1281</ele>
        <time>2014-06-28T09:33:35.000Z</time>
      </trkpt>
      <trkpt lat="45.16406" lon="5.63317">
        <ele>1281</ele>
        <time>2014-06-28T09:33:36.000Z</time>
      </trkpt>
      <trkpt lat="45.16406" lon="5.63316">
        <ele>1281</ele>
        <time>2014-06-28T09:33:37.000Z</time>
      </trkpt>
      <trkpt lat="45.16406" lon="5.63316">
        <ele>1281</ele>
        <time>2014-06-28T09:33:38.000Z</time>
      </trkpt>
      <trkpt lat="45.16405" lon="5.63315">
        <ele>1281</ele>
        <time>2014-06-28T09:33:39.000Z</time>
      </trkpt>
      <trkpt lat="45.16405" lon="5.63315">
        <ele>1281</ele>
        <time>2014-06-28T09:33:40.000Z</time>
      </trkpt>
      <trkpt lat="45.16405" lon="5.63314">
        <ele>1281</ele>
        <time>2014-06-28T09:33:41.000Z</time>
      </trkpt>
      <trkpt lat="45.16405" lon="5.63314">
        <ele>1282</ele>
        <time>2014-06-28T09:33:42.000Z</time>
      </trkpt>
      <trkpt lat="45.16405" lon="5.63313">
        <ele>1282</ele>
        <time>2014-06-28T09:33:43.000Z</time>
      </trkpt>
      <trkpt lat="45.16405" lon="5.63313">
        <ele>1282</ele>
        <time>2014-06-28T09:33:44.000Z</time>
      </trkpt>
      <trkpt lat="45.16405" lon="5.63313">
        <ele>1283</ele>
        <time>2014-06-28T09:33:45.000Z</time>
      </trkpt>
      <trkpt lat="45.16405" lon="5.63312">
        <ele>1283</ele>
        <time>2014-06-28T09:33:46.000Z</time>
      </trkpt>
      <trkpt lat="45.16405" lon="5.63312">
        <ele>1283</ele>
        <time>2014-06-28T09:33:47.000Z</time>
      </trkpt>
      <trkpt lat="45.16405" lon="5.63312">
        <ele>1283</ele>
        <time>2014-06-28T09:33:48.000Z</time>
      </trkpt>
      <trkpt lat="45.16405" lon="5.63312">
        <ele>1283</ele>
        <time>2014-06-28T09:33:49.000Z</time>
      </trkpt>
      <trkpt lat="45.16405" lon="5.63312">
        <ele>1284</ele>
        <time>2014-06-28T09:33:50.000Z</time>
      </trkpt>
      <trkpt lat="45.16405" lon="5.63311">
        <ele>1284</ele>
        <time>2014-06-28T09:33:51.000Z</time>
      </trkpt>
      <trkpt lat="45.16405" lon="5.63311">
        <ele>1284</ele>
        <time>2014-06-28T09:33:52.000Z</time>
      </trkpt>
      <trkpt lat="45.16405" lon="5.63311">
        <ele>1284</ele>
        <time>2014-06-28T09:33:53.000Z</time>
      </trkpt>
      <trkpt lat="45.16405" lon="5.6331">
        <ele>1284</ele>
        <time>2014-06-28T09:33:54.000Z</time>
      </trkpt>
      <trkpt lat="45.16405" lon="5.63309">
        <ele>1284</ele>
        <time>2014-06-28T09:33:55.000Z</time>
      </trkpt>
      <trkpt lat="45.16405" lon="5.63307">
        <ele>1284</ele>
        <time>2014-06-28T09:33:56.000Z</time>
      </trkpt>
      <trkpt lat="45.16406" lon="5.63305">
        <ele>1284</ele>
        <time>2014-06-28T09:33:57.000Z</time>
      </trkpt>
      <trkpt lat="45.16406" lon="5.63304">
        <ele>1284</ele>
        <time>2014-06-28T09:33:58.000Z</time>
      </trkpt>
      <trkpt lat="45.16407" lon="5.63302">
        <ele>1284</ele>
        <time>2014-06-28T09:33:59.000Z</time>
      </trkpt>
      <trkpt lat="45.16407" lon="5.63301">
        <ele>1284</ele>
        <time>2014-06-28T09:34:00.000Z</time>
      </trkpt>
      <trkpt lat="45.16409" lon="5.63299">
        <ele>1284</ele>
        <time>2014-06-28T09:34:01.000Z</time>
      </trkpt>
      <trkpt lat="45.1641" lon="5.63298">
        <ele>1284</ele>
        <time>2014-06-28T09:34:02.000Z</time>
      </trkpt>
      <trkpt lat="45.16411" lon="5.63296">
        <ele>1284</ele>
        <time>2014-06-28T09:34:03.000Z</time>
      </trkpt>
      <trkpt lat="45.16412" lon="5.63294">
        <ele>1284</ele>
        <time>2014-06-28T09:34:04.000Z</time>
      </trkpt>
      <trkpt lat="45.16414" lon="5.63293">
        <ele>1284</ele>
        <time>2014-06-28T09:34:05.000Z</time>
      </trkpt>
      <trkpt lat="45.16415" lon="5.63292">
        <ele>1284</ele>
        <time>2014-06-28T09:34:06.000Z</time>
      </trkpt>
      <trkpt lat="45.16417" lon="5.6329">
        <ele>1284</ele>
        <time>2014-06-28T09:34:07.000Z</time>
      </trkpt>
      <trkpt lat="45.16419" lon="5.63287">
        <ele>1284</ele>
        <time>2014-06-28T09:34:08.000Z</time>
      </trkpt>
      <trkpt lat="45.16421" lon="5.63285">
        <ele>1284</ele>
        <time>2014-06-28T09:34:09.000Z</time>
      </trkpt>
      <trkpt lat="45.16423" lon="5.63283">
        <ele>1284</ele>
        <time>2014-06-28T09:34:10.000Z</time>
      </trkpt>
      <trkpt lat="45.16425" lon="5.63282">
        <ele>1284</ele>
        <time>2014-06-28T09:34:11.000Z</time>
      </trkpt>
      <trkpt lat="45.16427" lon="5.63281">
        <ele>1283</ele>
        <time>2014-06-28T09:34:12.000Z</time>
      </trkpt>
      <trkpt lat="45.16428" lon="5.63281">
        <ele>1283</ele>
        <time>2014-06-28T09:34:13.000Z</time>
      </trkpt>
      <trkpt lat="45.16429" lon="5.6328">
        <ele>1283</ele>
        <time>2014-06-28T09:34:14.000Z</time>
      </trkpt>
      <trkpt lat="45.16429" lon="5.6328">
        <ele>1282</ele>
        <time>2014-06-28T09:34:15.000Z</time>
      </trkpt>
      <trkpt lat="45.16429" lon="5.63279">
        <ele>1282</ele>
        <time>2014-06-28T09:34:16.000Z</time>
      </trkpt>
      <trkpt lat="45.16429" lon="5.63279">
        <ele>1282</ele>
        <time>2014-06-28T09:34:17.000Z</time>
      </trkpt>
      <trkpt lat="45.1643" lon="5.63279">
        <ele>1282</ele>
        <time>2014-06-28T09:34:18.000Z</time>
      </trkpt>
      <trkpt lat="45.16431" lon="5.63279">
        <ele>1281</ele>
        <time>2014-06-28T09:34:19.000Z</time>
      </trkpt>
      <trkpt lat="45.16432" lon="5.6328">
        <ele>1281</ele>
        <time>2014-06-28T09:34:20.000Z</time>
      </trkpt>
      <trkpt lat="45.16433" lon="5.6328">
        <ele>1281</ele>
        <time>2014-06-28T09:34:21.000Z</time>
      </trkpt>
      <trkpt lat="45.16433" lon="5.6328">
        <ele>1280</ele>
        <time>2014-06-28T09:34:22.000Z</time>
      </trkpt>
      <trkpt lat="45.16434" lon="5.6328">
        <ele>1280</ele>
        <time>2014-06-28T09:34:23.000Z</time>
      </trkpt>
      <trkpt lat="45.16434" lon="5.6328">
        <ele>1280</ele>
        <time>2014-06-28T09:34:24.000Z</time>
      </trkpt>
      <trkpt lat="45.16434" lon="5.6328">
        <ele>1279</ele>
        <time>2014-06-28T09:34:25.000Z</time>
      </trkpt>
      <trkpt lat="45.16434" lon="5.6328">
        <ele>1279</ele>
        <time>2014-06-28T09:34:26.000Z</time>
      </trkpt>
      <trkpt lat="45.16435" lon="5.63281">
        <ele>1279</ele>
        <time>2014-06-28T09:34:27.000Z</time>
      </trkpt>
      <trkpt lat="45.16436" lon="5.63282">
        <ele>1279</ele>
        <time>2014-06-28T09:34:28.000Z</time>
      </trkpt>
      <trkpt lat="45.16437" lon="5.63283">
        <ele>1278</ele>
        <time>2014-06-28T09:34:29.000Z</time>
      </trkpt>
      <trkpt lat="45.16439" lon="5.63285">
        <ele>1278</ele>
        <time>2014-06-28T09:34:30.000Z</time>
      </trkpt>
      <trkpt lat="45.16441" lon="5.63285">
        <ele>1278</ele>
        <time>2014-06-28T09:34:31.000Z</time>
      </trkpt>
      <trkpt lat="45.16444" lon="5.63286">
        <ele>1277</ele>
        <time>2014-06-28T09:34:32.000Z</time>
      </trkpt>
      <trkpt lat="45.16447" lon="5.63285">
        <ele>1277</ele>
        <time>2014-06-28T09:34:33.000Z</time>
      </trkpt>
      <trkpt lat="45.1645" lon="5.63285">
        <ele>1277</ele>
        <time>2014-06-28T09:34:34.000Z</time>
      </trkpt>
      <trkpt lat="45.16453" lon="5.63284">
        <ele>1276</ele>
        <time>2014-06-28T09:34:35.000Z</time>
      </trkpt>
      <trkpt lat="45.16455" lon="5.63283">
        <ele>1276</ele>
        <time>2014-06-28T09:34:36.000Z</time>
      </trkpt>
      <trkpt lat="45.16458" lon="5.63282">
        <ele>1276</ele>
        <time>2014-06-28T09:34:37.000Z</time>
      </trkpt>
      <trkpt lat="45.16461" lon="5.63281">
        <ele>1275</ele>
        <time>2014-06-28T09:34:38.000Z</time>
      </trkpt>
      <trkpt lat="45.16463" lon="5.6328">
        <ele>1275</ele>
        <time>2014-06-28T09:34:39.000Z</time>
      </trkpt>
      <trkpt lat="45.16465" lon="5.63279">
        <ele>1275</ele>
        <time>2014-06-28T09:34:40.000Z</time>
      </trkpt>
      <trkpt lat="45.16468" lon="5.63279">
        <ele>1274</ele>
        <time>2014-06-28T09:34:41.000Z</time>
      </trkpt>
      <trkpt lat="45.1647" lon="5.63279">
        <ele>1274</ele>
        <time>2014-06-28T09:34:42.000Z</time>
      </trkpt>
      <trkpt lat="45.16473" lon="5.63279">
        <ele>1274</ele>
        <time>2014-06-28T09:34:43.000Z</time>
      </trkpt>
      <trkpt lat="45.16476" lon="5.6328">
        <ele>1273</ele>
        <time>2014-06-28T09:34:44.000Z</time>
      </trkpt>
      <trkpt lat="45.16478" lon="5.63282">
        <ele>1273</ele>
        <time>2014-06-28T09:34:45.000Z</time>
      </trkpt>
      <trkpt lat="45.16481" lon="5.63284">
        <ele>1272</ele>
        <time>2014-06-28T09:34:46.000Z</time>
      </trkpt>
      <trkpt lat="45.16483" lon="5.63285">
        <ele>1272</ele>
        <time>2014-06-28T09:34:47.000Z</time>
      </trkpt>
      <trkpt lat="45.16485" lon="5.63287">
        <ele>1271</ele>
        <time>2014-06-28T09:34:48.000Z</time>
      </trkpt>
      <trkpt lat="45.16488" lon="5.63288">
        <ele>1271</ele>
        <time>2014-06-28T09:34:49.000Z</time>
      </trkpt>
      <trkpt lat="45.1649" lon="5.63288">
        <ele>1270</ele>
        <time>2014-06-28T09:34:50.000Z</time>
      </trkpt>
      <trkpt lat="45.16492" lon="5.63288">
        <ele>1270</ele>
        <time>2014-06-28T09:34:51.000Z</time>
      </trkpt>
      <trkpt lat="45.16493" lon="5.63287">
        <ele>1270</ele>
        <time>2014-06-28T09:34:52.000Z</time>
      </trkpt>
      <trkpt lat="45.16495" lon="5.63286">
        <ele>1269</ele>
        <time>2014-06-28T09:34:53.000Z</time>
      </trkpt>
      <trkpt lat="45.16496" lon="5.63284">
        <ele>1269</ele>
        <time>2014-06-28T09:34:54.000Z</time>
      </trkpt>
      <trkpt lat="45.16497" lon="5.63282">
        <ele>1268</ele>
        <time>2014-06-28T09:34:55.000Z</time>
      </trkpt>
      <trkpt lat="45.16496" lon="5.63279">
        <ele>1268</ele>
        <time>2014-06-28T09:34:56.000Z</time>
      </trkpt>
      <trkpt lat="45.16496" lon="5.63277">
        <ele>1267</ele>
        <time>2014-06-28T09:34:57.000Z</time>
      </trkpt>
      <trkpt lat="45.16494" lon="5.63274">
        <ele>1267</ele>
        <time>2014-06-28T09:34:58.000Z</time>
      </trkpt>
      <trkpt lat="45.16492" lon="5.63271">
        <ele>1266</ele>
        <time>2014-06-28T09:34:59.000Z</time>
      </trkpt>
      <trkpt lat="45.16491" lon="5.63269">
        <ele>1266</ele>
        <time>2014-06-28T09:35:00.000Z</time>
      </trkpt>
      <trkpt lat="45.16489" lon="5.63266">
        <ele>1265</ele>
        <time>2014-06-28T09:35:01.000Z</time>
      </trkpt>
      <trkpt lat="45.16486" lon="5.63263">
        <ele>1264</ele>
        <time>2014-06-28T09:35:02.000Z</time>
      </trkpt>
      <trkpt lat="45.16484" lon="5.6326">
        <ele>1264</ele>
        <time>2014-06-28T09:35:03.000Z</time>
      </trkpt>
      <trkpt lat="45.16483" lon="5.63257">
        <ele>1264</ele>
        <time>2014-06-28T09:35:04.000Z</time>
      </trkpt>
      <trkpt lat="45.16481" lon="5.63254">
        <ele>1263</ele>
        <time>2014-06-28T09:35:05.000Z</time>
      </trkpt>
      <trkpt lat="45.16481" lon="5.6325">
        <ele>1263</ele>
        <time>2014-06-28T09:35:06.000Z</time>
      </trkpt>
      <trkpt lat="45.1648" lon="5.63247">
        <ele>1263</ele>
        <time>2014-06-28T09:35:07.000Z</time>
      </trkpt>
      <trkpt lat="45.1648" lon="5.63244">
        <ele>1262</ele>
        <time>2014-06-28T09:35:08.000Z</time>
      </trkpt>
      <trkpt lat="45.16481" lon="5.63242">
        <ele>1262</ele>
        <time>2014-06-28T09:35:09.000Z</time>
      </trkpt>
      <trkpt lat="45.16482" lon="5.63241">
        <ele>1261</ele>
        <time>2014-06-28T09:35:10.000Z</time>
      </trkpt>
      <trkpt lat="45.16485" lon="5.6324">
        <ele>1261</ele>
        <time>2014-06-28T09:35:11.000Z</time>
      </trkpt>
      <trkpt lat="45.16487" lon="5.6324">
        <ele>1261</ele>
        <time>2014-06-28T09:35:12.000Z</time>
      </trkpt>
      <trkpt lat="45.1649" lon="5.63241">
        <ele>1261</ele>
        <time>2014-06-28T09:35:13.000Z</time>
      </trkpt>
      <trkpt lat="45.16493" lon="5.63242">
        <ele>1260</ele>
        <time>2014-06-28T09:35:14.000Z</time>
      </trkpt>
      <trkpt lat="45.16496" lon="5.63242">
        <ele>1260</ele>
        <time>2014-06-28T09:35:15.000Z</time>
      </trkpt>
      <trkpt lat="45.16498" lon="5.63243">
        <ele>1260</ele>
        <time>2014-06-28T09:35:16.000Z</time>
      </trkpt>
      <trkpt lat="45.16501" lon="5.63244">
        <ele>1260</ele>
        <time>2014-06-28T09:35:17.000Z</time>
      </trkpt>
      <trkpt lat="45.16504" lon="5.63245">
        <ele>1260</ele>
        <time>2014-06-28T09:35:18.000Z</time>
      </trkpt>
      <trkpt lat="45.16507" lon="5.63246">
        <ele>1259</ele>
        <time>2014-06-28T09:35:19.000Z</time>
      </trkpt>
      <trkpt lat="45.1651" lon="5.63247">
        <ele>1259</ele>
        <time>2014-06-28T09:35:20.000Z</time>
      </trkpt>
      <trkpt lat="45.16513" lon="5.63248">
        <ele>1259</ele>
        <time>2014-06-28T09:35:21.000Z</time>
      </trkpt>
      <trkpt lat="45.16517" lon="5.63249">
        <ele>1258</ele>
        <time>2014-06-28T09:35:22.000Z</time>
      </trkpt>
      <trkpt lat="45.1652" lon="5.6325">
        <ele>1258</ele>
        <time>2014-06-28T09:35:23.000Z</time>
      </trkpt>
      <trkpt lat="45.16523" lon="5.63251">
        <ele>1258</ele>
        <time>2014-06-28T09:35:24.000Z</time>
      </trkpt>
      <trkpt lat="45.16527" lon="5.63252">
        <ele>1257</ele>
        <time>2014-06-28T09:35:25.000Z</time>
      </trkpt>
      <trkpt lat="45.1653" lon="5.63253">
        <ele>1257</ele>
        <time>2014-06-28T09:35:26.000Z</time>
      </trkpt>
      <trkpt lat="45.16534" lon="5.63255">
        <ele>1257</ele>
        <time>2014-06-28T09:35:27.000Z</time>
      </trkpt>
      <trkpt lat="45.16538" lon="5.63256">
        <ele>1256</ele>
        <time>2014-06-28T09:35:28.000Z</time>
      </trkpt>
      <trkpt lat="45.16542" lon="5.63257">
        <ele>1256</ele>
        <time>2014-06-28T09:35:29.000Z</time>
      </trkpt>
      <trkpt lat="45.16545" lon="5.63258">
        <ele>1255</ele>
        <time>2014-06-28T09:35:30.000Z</time>
      </trkpt>
      <trkpt lat="45.16549" lon="5.6326">
        <ele>1254</ele>
        <time>2014-06-28T09:35:31.000Z</time>
      </trkpt>
      <trkpt lat="45.16553" lon="5.63261">
        <ele>1254</ele>
        <time>2014-06-28T09:35:32.000Z</time>
      </trkpt>
      <trkpt lat="45.16558" lon="5.63262">
        <ele>1253</ele>
        <time>2014-06-28T09:35:33.000Z</time>
      </trkpt>
      <trkpt lat="45.16562" lon="5.63263">
        <ele>1252</ele>
        <time>2014-06-28T09:35:34.000Z</time>
      </trkpt>
      <trkpt lat="45.16566" lon="5.63264">
        <ele>1251</ele>
        <time>2014-06-28T09:35:35.000Z</time>
      </trkpt>
      <trkpt lat="45.1657" lon="5.63266">
        <ele>1251</ele>
        <time>2014-06-28T09:35:36.000Z</time>
      </trkpt>
      <trkpt lat="45.16573" lon="5.63267">
        <ele>1250</ele>
        <time>2014-06-28T09:35:37.000Z</time>
      </trkpt>
      <trkpt lat="45.16577" lon="5.63268">
        <ele>1249</ele>
        <time>2014-06-28T09:35:38.000Z</time>
      </trkpt>
      <trkpt lat="45.1658" lon="5.63269">
        <ele>1249</ele>
        <time>2014-06-28T09:35:39.000Z</time>
      </trkpt>
      <trkpt lat="45.16584" lon="5.6327">
        <ele>1248</ele>
        <time>2014-06-28T09:35:40.000Z</time>
      </trkpt>
      <trkpt lat="45.16588" lon="5.63272">
        <ele>1248</ele>
        <time>2014-06-28T09:35:41.000Z</time>
      </trkpt>
      <trkpt lat="45.16591" lon="5.63273">
        <ele>1247</ele>
        <time>2014-06-28T09:35:42.000Z</time>
      </trkpt>
      <trkpt lat="45.16595" lon="5.63274">
        <ele>1247</ele>
        <time>2014-06-28T09:35:43.000Z</time>
      </trkpt>
      <trkpt lat="45.16599" lon="5.63275">
        <ele>1246</ele>
        <time>2014-06-28T09:35:44.000Z</time>
      </trkpt>
      <trkpt lat="45.16603" lon="5.63277">
        <ele>1246</ele>
        <time>2014-06-28T09:35:45.000Z</time>
      </trkpt>
      <trkpt lat="45.16606" lon="5.63278">
        <ele>1245</ele>
        <time>2014-06-28T09:35:46.000Z</time>
      </trkpt>
      <trkpt lat="45.1661" lon="5.63279">
        <ele>1245</ele>
        <time>2014-06-28T09:35:47.000Z</time>
      </trkpt>
      <trkpt lat="45.16613" lon="5.6328">
        <ele>1244</ele>
        <time>2014-06-28T09:35:48.000Z</time>
      </trkpt>
      <trkpt lat="45.16616" lon="5.63281">
        <ele>1244</ele>
        <time>2014-06-28T09:35:49.000Z</time>
      </trkpt>
      <trkpt lat="45.16619" lon="5.63282">
        <ele>1244</ele>
        <time>2014-06-28T09:35:50.000Z</time>
      </trkpt>
      <trkpt lat="45.16622" lon="5.63284">
        <ele>1244</ele>
        <time>2014-06-28T09:35:51.000Z</time>
      </trkpt>
      <trkpt lat="45.16625" lon="5.63285">
        <ele>1243</ele>
        <time>2014-06-28T09:35:52.000Z</time>
      </trkpt>
      <trkpt lat="45.16629" lon="5.63286">
        <ele>1243</ele>
        <time>2014-06-28T09:35:53.000Z</time>
      </trkpt>
      <trkpt lat="45.16632" lon="5.63288">
        <ele>1243</ele>
        <time>2014-06-28T09:35:54.000Z</time>
      </trkpt>
      <trkpt lat="45.16635" lon="5.63289">
        <ele>1243</ele>
        <time>2014-06-28T09:35:55.000Z</time>
      </trkpt>
      <trkpt lat="45.16638" lon="5.63291">
        <ele>1242</ele>
        <time>2014-06-28T09:35:56.000Z</time>
      </trkpt>
      <trkpt lat="45.16641" lon="5.63292">
        <ele>1242</ele>
        <time>2014-06-28T09:35:57.000Z</time>
      </trkpt>
      <trkpt lat="45.16644" lon="5.63293">
        <ele>1242</ele>
        <time>2014-06-28T09:35:58.000Z</time>
      </trkpt>
      <trkpt lat="45.16647" lon="5.63295">
        <ele>1242</ele>
        <time>2014-06-28T09:35:59.000Z</time>
      </trkpt>
      <trkpt lat="45.1665" lon="5.63296">
        <ele>1241</ele>
        <time>2014-06-28T09:36:00.000Z</time>
      </trkpt>
      <trkpt lat="45.16653" lon="5.63298">
        <ele>1241</ele>
        <time>2014-06-28T09:36:01.000Z</time>
      </trkpt>
      <trkpt lat="45.16656" lon="5.633">
        <ele>1241</ele>
        <time>2014-06-28T09:36:02.000Z</time>
      </trkpt>
      <trkpt lat="45.16659" lon="5.63302">
        <ele>1241</ele>
        <time>2014-06-28T09:36:03.000Z</time>
      </trkpt>
      <trkpt lat="45.16662" lon="5.63304">
        <ele>1241</ele>
        <time>2014-06-28T09:36:04.000Z</time>
      </trkpt>
      <trkpt lat="45.16665" lon="5.63306">
        <ele>1241</ele>
        <time>2014-06-28T09:36:05.000Z</time>
      </trkpt>
      <trkpt lat="45.16668" lon="5.63307">
        <ele>1240</ele>
        <time>2014-06-28T09:36:06.000Z</time>
      </trkpt>
      <trkpt lat="45.16671" lon="5.63308">
        <ele>1240</ele>
        <time>2014-06-28T09:36:07.000Z</time>
      </trkpt>
      <trkpt lat="45.16675" lon="5.6331">
        <ele>1240</ele>
        <time>2014-06-28T09:36:08.000Z</time>
      </trkpt>
      <trkpt lat="45.16678" lon="5.63311">
        <ele>1240</ele>
        <time>2014-06-28T09:36:09.000Z</time>
      </trkpt>
      <trkpt lat="45.16681" lon="5.63312">
        <ele>1240</ele>
        <time>2014-06-28T09:36:10.000Z</time>
      </trkpt>
      <trkpt lat="45.16684" lon="5.63313">
        <ele>1240</ele>
        <time>2014-06-28T09:36:11.000Z</time>
      </trkpt>
      <trkpt lat="45.16687" lon="5.63315">
        <ele>1240</ele>
        <time>2014-06-28T09:36:12.000Z</time>
      </trkpt>
      <trkpt lat="45.16691" lon="5.63315">
        <ele>1239</ele>
        <time>2014-06-28T09:36:13.000Z</time>
      </trkpt>
      <trkpt lat="45.16694" lon="5.63316">
        <ele>1239</ele>
        <time>2014-06-28T09:36:14.000Z</time>
      </trkpt>
      <trkpt lat="45.16697" lon="5.63317">
        <ele>1239</ele>
        <time>2014-06-28T09:36:15.000Z</time>
      </trkpt>
      <trkpt lat="45.167" lon="5.63318">
        <ele>1239</ele>
        <time>2014-06-28T09:36:16.000Z</time>
      </trkpt>
      <trkpt lat="45.16704" lon="5.63319">
        <ele>1239</ele>
        <time>2014-06-28T09:36:17.000Z</time>
      </trkpt>
      <trkpt lat="45.16707" lon="5.6332">
        <ele>1239</ele>
        <time>2014-06-28T09:36:18.000Z</time>
      </trkpt>
      <trkpt lat="45.1671" lon="5.63321">
        <ele>1239</ele>
        <time>2014-06-28T09:36:19.000Z</time>
      </trkpt>
      <trkpt lat="45.16713" lon="5.63323">
        <ele>1239</ele>
        <time>2014-06-28T09:36:20.000Z</time>
      </trkpt>
      <trkpt lat="45.16717" lon="5.63324">
        <ele>1238</ele>
        <time>2014-06-28T09:36:21.000Z</time>
      </trkpt>
      <trkpt lat="45.1672" lon="5.63325">
        <ele>1238</ele>
        <time>2014-06-28T09:36:22.000Z</time>
      </trkpt>
      <trkpt lat="45.16723" lon="5.63326">
        <ele>1238</ele>
        <time>2014-06-28T09:36:23.000Z</time>
      </trkpt>
      <trkpt lat="45.16726" lon="5.63327">
        <ele>1238</ele>
        <time>2014-06-28T09:36:24.000Z</time>
      </trkpt>
      <trkpt lat="45.16729" lon="5.63328">
        <ele>1238</ele>
        <time>2014-06-28T09:36:25.000Z</time>
      </trkpt>
      <trkpt lat="45.16732" lon="5.6333">
        <ele>1238</ele>
        <time>2014-06-28T09:36:26.000Z</time>
      </trkpt>
      <trkpt lat="45.16736" lon="5.63331">
        <ele>1237</ele>
        <time>2014-06-28T09:36:27.000Z</time>
      </trkpt>
      <trkpt lat="45.16739" lon="5.63332">
        <ele>1237</ele>
        <time>2014-06-28T09:36:28.000Z</time>
      </trkpt>
      <trkpt lat="45.16742" lon="5.63333">
        <ele>1237</ele>
        <time>2014-06-28T09:36:29.000Z</time>
      </trkpt>
      <trkpt lat="45.16745" lon="5.63334">
        <ele>1237</ele>
        <time>2014-06-28T09:36:30.000Z</time>
      </trkpt>
      <trkpt lat="45.16748" lon="5.63335">
        <ele>1237</ele>
        <time>2014-06-28T09:36:31.000Z</time>
      </trkpt>
      <trkpt lat="45.16752" lon="5.63337">
        <ele>1236</ele>
        <time>2014-06-28T09:36:32.000Z</time>
      </trkpt>
      <trkpt lat="45.16755" lon="5.63338">
        <ele>1236</ele>
        <time>2014-06-28T09:36:33.000Z</time>
      </trkpt>
      <trkpt lat="45.16759" lon="5.6334">
        <ele>1236</ele>
        <time>2014-06-28T09:36:34.000Z</time>
      </trkpt>
      <trkpt lat="45.16762" lon="5.63342">
        <ele>1236</ele>
        <time>2014-06-28T09:36:35.000Z</time>
      </trkpt>
      <trkpt lat="45.16766" lon="5.63343">
        <ele>1235</ele>
        <time>2014-06-28T09:36:36.000Z</time>
      </trkpt>
      <trkpt lat="45.16769" lon="5.63345">
        <ele>1235</ele>
        <time>2014-06-28T09:36:37.000Z</time>
      </trkpt>
      <trkpt lat="45.16772" lon="5.63346">
        <ele>1235</ele>
        <time>2014-06-28T09:36:38.000Z</time>
      </trkpt>
      <trkpt lat="45.16776" lon="5.63347">
        <ele>1235</ele>
        <time>2014-06-28T09:36:39.000Z</time>
      </trkpt>
      <trkpt lat="45.16779" lon="5.63348">
        <ele>1234</ele>
        <time>2014-06-28T09:36:40.000Z</time>
      </trkpt>
      <trkpt lat="45.16782" lon="5.6335">
        <ele>1234</ele>
        <time>2014-06-28T09:36:41.000Z</time>
      </trkpt>
      <trkpt lat="45.16786" lon="5.63351">
        <ele>1234</ele>
        <time>2014-06-28T09:36:42.000Z</time>
      </trkpt>
      <trkpt lat="45.16789" lon="5.63352">
        <ele>1233</ele>
        <time>2014-06-28T09:36:43.000Z</time>
      </trkpt>
      <trkpt lat="45.16793" lon="5.63353">
        <ele>1233</ele>
        <time>2014-06-28T09:36:44.000Z</time>
      </trkpt>
      <trkpt lat="45.16796" lon="5.63354">
        <ele>1233</ele>
        <time>2014-06-28T09:36:45.000Z</time>
      </trkpt>
      <trkpt lat="45.16799" lon="5.63355">
        <ele>1233</ele>
        <time>2014-06-28T09:36:46.000Z</time>
      </trkpt>
      <trkpt lat="45.16803" lon="5.63356">
        <ele>1232</ele>
        <time>2014-06-28T09:36:47.000Z</time>
      </trkpt>
      <trkpt lat="45.16806" lon="5.63357">
        <ele>1232</ele>
        <time>2014-06-28T09:36:48.000Z</time>
      </trkpt>
      <trkpt lat="45.16809" lon="5.63357">
        <ele>1232</ele>
        <time>2014-06-28T09:36:49.000Z</time>
      </trkpt>
      <trkpt lat="45.16812" lon="5.63358">
        <ele>1232</ele>
        <time>2014-06-28T09:36:50.000Z</time>
      </trkpt>
      <trkpt lat="45.16815" lon="5.63358">
        <ele>1232</ele>
        <time>2014-06-28T09:36:51.000Z</time>
      </trkpt>
      <trkpt lat="45.16818" lon="5.63359">
        <ele>1231</ele>
        <time>2014-06-28T09:36:52.000Z</time>
      </trkpt>
      <trkpt lat="45.16821" lon="5.63359">
        <ele>1231</ele>
        <time>2014-06-28T09:36:53.000Z</time>
      </trkpt>
      <trkpt lat="45.16825" lon="5.63358">
        <ele>1231</ele>
        <time>2014-06-28T09:36:54.000Z</time>
      </trkpt>
      <trkpt lat="45.16828" lon="5.63358">
        <ele>1231</ele>
        <time>2014-06-28T09:36:55.000Z</time>
      </trkpt>
      <trkpt lat="45.16832" lon="5.63357">
        <ele>1230</ele>
        <time>2014-06-28T09:36:56.000Z</time>
      </trkpt>
      <trkpt lat="45.16835" lon="5.63357">
        <ele>1230</ele>
        <time>2014-06-28T09:36:57.000Z</time>
      </trkpt>
      <trkpt lat="45.16838" lon="5.63358">
        <ele>1229</ele>
        <time>2014-06-28T09:36:58.000Z</time>
      </trkpt>
      <trkpt lat="45.16841" lon="5.63361">
        <ele>1229</ele>
        <time>2014-06-28T09:36:59.000Z</time>
      </trkpt>
      <trkpt lat="45.16845" lon="5.63363">
        <ele>1228</ele>
        <time>2014-06-28T09:37:00.000Z</time>
      </trkpt>
      <trkpt lat="45.16849" lon="5.63366">
        <ele>1227</ele>
        <time>2014-06-28T09:37:01.000Z</time>
      </trkpt>
      <trkpt lat="45.16852" lon="5.63369">
        <ele>1226</ele>
        <time>2014-06-28T09:37:02.000Z</time>
      </trkpt>
      <trkpt lat="45.16856" lon="5.6337">
        <ele>1226</ele>
        <time>2014-06-28T09:37:03.000Z</time>
      </trkpt>
      <trkpt lat="45.1686" lon="5.6337">
        <ele>1225</ele>
        <time>2014-06-28T09:37:04.000Z</time>
      </trkpt>
      <trkpt lat="45.16864" lon="5.6337">
        <ele>1224</ele>
        <time>2014-06-28T09:37:05.000Z</time>
      </trkpt>
      <trkpt lat="45.16868" lon="5.63369">
        <ele>1223</ele>
        <time>2014-06-28T09:37:06.000Z</time>
      </trkpt>
      <trkpt lat="45.16873" lon="5.63368">
        <ele>1223</ele>
        <time>2014-06-28T09:37:07.000Z</time>
      </trkpt>
      <trkpt lat="45.16877" lon="5.63368">
        <ele>1222</ele>
        <time>2014-06-28T09:37:08.000Z</time>
      </trkpt>
      <trkpt lat="45.16882" lon="5.63368">
        <ele>1222</ele>
        <time>2014-06-28T09:37:09.000Z</time>
      </trkpt>
      <trkpt lat="45.16886" lon="5.63368">
        <ele>1221</ele>
        <time>2014-06-28T09:37:10.000Z</time>
      </trkpt>
      <trkpt lat="45.1689" lon="5.63369">
        <ele>1221</ele>
        <time>2014-06-28T09:37:11.000Z</time>
      </trkpt>
      <trkpt lat="45.16894" lon="5.63369">
        <ele>1220</ele>
        <time>2014-06-28T09:37:12.000Z</time>
      </trkpt>
      <trkpt lat="45.16898" lon="5.6337">
        <ele>1219</ele>
        <time>2014-06-28T09:37:13.000Z</time>
      </trkpt>
      <trkpt lat="45.16901" lon="5.63371">
        <ele>1219</ele>
        <time>2014-06-28T09:37:14.000Z</time>
      </trkpt>
      <trkpt lat="45.16905" lon="5.63372">
        <ele>1219</ele>
        <time>2014-06-28T09:37:15.000Z</time>
      </trkpt>
      <trkpt lat="45.16908" lon="5.63373">
        <ele>1218</ele>
        <time>2014-06-28T09:37:16.000Z</time>
      </trkpt>
      <trkpt lat="45.16911" lon="5.63374">
        <ele>1218</ele>
        <time>2014-06-28T09:37:17.000Z</time>
      </trkpt>
      <trkpt lat="45.16914" lon="5.63374">
        <ele>1217</ele>
        <time>2014-06-28T09:37:18.000Z</time>
      </trkpt>
      <trkpt lat="45.16917" lon="5.63375">
        <ele>1217</ele>
        <time>2014-06-28T09:37:19.000Z</time>
      </trkpt>
      <trkpt lat="45.16919" lon="5.63376">
        <ele>1216</ele>
        <time>2014-06-28T09:37:20.000Z</time>
      </trkpt>
      <trkpt lat="45.16921" lon="5.63376">
        <ele>1216</ele>
        <time>2014-06-28T09:37:21.000Z</time>
      </trkpt>
      <trkpt lat="45.16924" lon="5.63377">
        <ele>1215</ele>
        <time>2014-06-28T09:37:22.000Z</time>
      </trkpt>
      <trkpt lat="45.16927" lon="5.63377">
        <ele>1215</ele>
        <time>2014-06-28T09:37:23.000Z</time>
      </trkpt>
      <trkpt lat="45.16929" lon="5.63378">
        <ele>1215</ele>
        <time>2014-06-28T09:37:24.000Z</time>
      </trkpt>
      <trkpt lat="45.16932" lon="5.63378">
        <ele>1215</ele>
        <time>2014-06-28T09:37:25.000Z</time>
      </trkpt>
      <trkpt lat="45.16935" lon="5.63379">
        <ele>1214</ele>
        <time>2014-06-28T09:37:26.000Z</time>
      </trkpt>
      <trkpt lat="45.16938" lon="5.63379">
        <ele>1214</ele>
        <time>2014-06-28T09:37:27.000Z</time>
      </trkpt>
      <trkpt lat="45.16941" lon="5.63379">
        <ele>1214</ele>
        <time>2014-06-28T09:37:28.000Z</time>
      </trkpt>
      <trkpt lat="45.16944" lon="5.63379">
        <ele>1214</ele>
        <time>2014-06-28T09:37:29.000Z</time>
      </trkpt>
      <trkpt lat="45.16947" lon="5.63379">
        <ele>1213</ele>
        <time>2014-06-28T09:37:30.000Z</time>
      </trkpt>
      <trkpt lat="45.16949" lon="5.63379">
        <ele>1213</ele>
        <time>2014-06-28T09:37:31.000Z</time>
      </trkpt>
      <trkpt lat="45.16951" lon="5.63379">
        <ele>1213</ele>
        <time>2014-06-28T09:37:32.000Z</time>
      </trkpt>
      <trkpt lat="45.16954" lon="5.63379">
        <ele>1213</ele>
        <time>2014-06-28T09:37:33.000Z</time>
      </trkpt>
      <trkpt lat="45.16957" lon="5.6338">
        <ele>1213</ele>
        <time>2014-06-28T09:37:34.000Z</time>
      </trkpt>
      <trkpt lat="45.1696" lon="5.63381">
        <ele>1213</ele>
        <time>2014-06-28T09:37:35.000Z</time>
      </trkpt>
      <trkpt lat="45.16963" lon="5.63382">
        <ele>1212</ele>
        <time>2014-06-28T09:37:36.000Z</time>
      </trkpt>
      <trkpt lat="45.16966" lon="5.63383">
        <ele>1212</ele>
        <time>2014-06-28T09:37:37.000Z</time>
      </trkpt>
      <trkpt lat="45.16969" lon="5.63384">
        <ele>1212</ele>
        <time>2014-06-28T09:37:38.000Z</time>
      </trkpt>
      <trkpt lat="45.16972" lon="5.63386">
        <ele>1212</ele>
        <time>2014-06-28T09:37:39.000Z</time>
      </trkpt>
      <trkpt lat="45.16975" lon="5.63387">
        <ele>1212</ele>
        <time>2014-06-28T09:37:40.000Z</time>
      </trkpt>
      <trkpt lat="45.16977" lon="5.63389">
        <ele>1211</ele>
        <time>2014-06-28T09:37:41.000Z</time>
      </trkpt>
      <trkpt lat="45.1698" lon="5.6339">
        <ele>1211</ele>
        <time>2014-06-28T09:37:42.000Z</time>
      </trkpt>
      <trkpt lat="45.16983" lon="5.63391">
        <ele>1211</ele>
        <time>2014-06-28T09:37:43.000Z</time>
      </trkpt>
      <trkpt lat="45.16986" lon="5.63393">
        <ele>1211</ele>
        <time>2014-06-28T09:37:44.000Z</time>
      </trkpt>
      <trkpt lat="45.16989" lon="5.63394">
        <ele>1210</ele>
        <time>2014-06-28T09:37:45.000Z</time>
      </trkpt>
      <trkpt lat="45.16991" lon="5.63396">
        <ele>1210</ele>
        <time>2014-06-28T09:37:46.000Z</time>
      </trkpt>
      <trkpt lat="45.16994" lon="5.63397">
        <ele>1209</ele>
        <time>2014-06-28T09:37:47.000Z</time>
      </trkpt>
      <trkpt lat="45.16997" lon="5.63398">
        <ele>1209</ele>
        <time>2014-06-28T09:37:48.000Z</time>
      </trkpt>
      <trkpt lat="45.17" lon="5.634">
        <ele>1208</ele>
        <time>2014-06-28T09:37:49.000Z</time>
      </trkpt>
      <trkpt lat="45.17002" lon="5.63401">
        <ele>1208</ele>
        <time>2014-06-28T09:37:50.000Z</time>
      </trkpt>
      <trkpt lat="45.17004" lon="5.63402">
        <ele>1208</ele>
        <time>2014-06-28T09:37:51.000Z</time>
      </trkpt>
      <trkpt lat="45.17007" lon="5.63403">
        <ele>1207</ele>
        <time>2014-06-28T09:37:52.000Z</time>
      </trkpt>
      <trkpt lat="45.17009" lon="5.63404">
        <ele>1207</ele>
        <time>2014-06-28T09:37:53.000Z</time>
      </trkpt>
      <trkpt lat="45.17011" lon="5.63405">
        <ele>1207</ele>
        <time>2014-06-28T09:37:54.000Z</time>
      </trkpt>
      <trkpt lat="45.17014" lon="5.63406">
        <ele>1206</ele>
        <time>2014-06-28T09:37:55.000Z</time>
      </trkpt>
      <trkpt lat="45.17016" lon="5.63407">
        <ele>1206</ele>
        <time>2014-06-28T09:37:56.000Z</time>
      </trkpt>
      <trkpt lat="45.17018" lon="5.63408">
        <ele>1206</ele>
        <time>2014-06-28T09:37:57.000Z</time>
      </trkpt>
      <trkpt lat="45.17021" lon="5.63409">
        <ele>1205</ele>
        <time>2014-06-28T09:37:58.000Z</time>
      </trkpt>
      <trkpt lat="45.17023" lon="5.6341">
        <ele>1205</ele>
        <time>2014-06-28T09:37:59.000Z</time>
      </trkpt>
      <trkpt lat="45.17026" lon="5.63411">
        <ele>1205</ele>
        <time>2014-06-28T09:38:00.000Z</time>
      </trkpt>
      <trkpt lat="45.17028" lon="5.63411">
        <ele>1204</ele>
        <time>2014-06-28T09:38:01.000Z</time>
      </trkpt>
      <trkpt lat="45.17031" lon="5.63411">
        <ele>1204</ele>
        <time>2014-06-28T09:38:02.000Z</time>
      </trkpt>
      <trkpt lat="45.17034" lon="5.63411">
        <ele>1203</ele>
        <time>2014-06-28T09:38:03.000Z</time>
      </trkpt>
      <trkpt lat="45.17037" lon="5.63412">
        <ele>1203</ele>
        <time>2014-06-28T09:38:04.000Z</time>
      </trkpt>
      <trkpt lat="45.17039" lon="5.63413">
        <ele>1203</ele>
        <time>2014-06-28T09:38:05.000Z</time>
      </trkpt>
      <trkpt lat="45.17042" lon="5.63414">
        <ele>1202</ele>
        <time>2014-06-28T09:38:06.000Z</time>
      </trkpt>
      <trkpt lat="45.17044" lon="5.63415">
        <ele>1202</ele>
        <time>2014-06-28T09:38:07.000Z</time>
      </trkpt>
      <trkpt lat="45.17047" lon="5.63416">
        <ele>1202</ele>
        <time>2014-06-28T09:38:08.000Z</time>
      </trkpt>
      <trkpt lat="45.1705" lon="5.63417">
        <ele>1202</ele>
        <time>2014-06-28T09:38:09.000Z</time>
      </trkpt>
      <trkpt lat="45.17052" lon="5.63419">
        <ele>1201</ele>
        <time>2014-06-28T09:38:10.000Z</time>
      </trkpt>
      <trkpt lat="45.17055" lon="5.63421">
        <ele>1201</ele>
        <time>2014-06-28T09:38:11.000Z</time>
      </trkpt>
      <trkpt lat="45.17057" lon="5.63423">
        <ele>1200</ele>
        <time>2014-06-28T09:38:12.000Z</time>
      </trkpt>
      <trkpt lat="45.1706" lon="5.63425">
        <ele>1200</ele>
        <time>2014-06-28T09:38:13.000Z</time>
      </trkpt>
      <trkpt lat="45.17062" lon="5.63428">
        <ele>1199</ele>
        <time>2014-06-28T09:38:14.000Z</time>
      </trkpt>
      <trkpt lat="45.17065" lon="5.6343">
        <ele>1198</ele>
        <time>2014-06-28T09:38:15.000Z</time>
      </trkpt>
      <trkpt lat="45.17069" lon="5.63433">
        <ele>1198</ele>
        <time>2014-06-28T09:38:16.000Z</time>
      </trkpt>
      <trkpt lat="45.17072" lon="5.63436">
        <ele>1197</ele>
        <time>2014-06-28T09:38:17.000Z</time>
      </trkpt>
      <trkpt lat="45.17075" lon="5.63438">
        <ele>1196</ele>
        <time>2014-06-28T09:38:18.000Z</time>
      </trkpt>
      <trkpt lat="45.17079" lon="5.63441">
        <ele>1196</ele>
        <time>2014-06-28T09:38:19.000Z</time>
      </trkpt>
      <trkpt lat="45.17082" lon="5.63443">
        <ele>1195</ele>
        <time>2014-06-28T09:38:20.000Z</time>
      </trkpt>
      <trkpt lat="45.17085" lon="5.63446">
        <ele>1194</ele>
        <time>2014-06-28T09:38:21.000Z</time>
      </trkpt>
      <trkpt lat="45.17088" lon="5.63448">
        <ele>1193</ele>
        <time>2014-06-28T09:38:22.000Z</time>
      </trkpt>
      <trkpt lat="45.17091" lon="5.63449">
        <ele>1192</ele>
        <time>2014-06-28T09:38:23.000Z</time>
      </trkpt>
      <trkpt lat="45.17093" lon="5.63451">
        <ele>1191</ele>
        <time>2014-06-28T09:38:24.000Z</time>
      </trkpt>
      <trkpt lat="45.17095" lon="5.63452">
        <ele>1190</ele>
        <time>2014-06-28T09:38:25.000Z</time>
      </trkpt>
      <trkpt lat="45.17095" lon="5.63453">
        <ele>1189</ele>
        <time>2014-06-28T09:38:26.000Z</time>
      </trkpt>
      <trkpt lat="45.17096" lon="5.63454">
        <ele>1189</ele>
        <time>2014-06-28T09:38:27.000Z</time>
      </trkpt>
      <trkpt lat="45.17096" lon="5.63455">
        <ele>1188</ele>
        <time>2014-06-28T09:38:28.000Z</time>
      </trkpt>
      <trkpt lat="45.17098" lon="5.63456">
        <ele>1188</ele>
        <time>2014-06-28T09:38:29.000Z</time>
      </trkpt>
      <trkpt lat="45.17099" lon="5.63456">
        <ele>1187</ele>
        <time>2014-06-28T09:38:30.000Z</time>
      </trkpt>
      <trkpt lat="45.171" lon="5.63457">
        <ele>1187</ele>
        <time>2014-06-28T09:38:31.000Z</time>
      </trkpt>
      <trkpt lat="45.17101" lon="5.63457">
        <ele>1186</ele>
        <time>2014-06-28T09:38:32.000Z</time>
      </trkpt>
      <trkpt lat="45.17101" lon="5.63457">
        <ele>1186</ele>
        <time>2014-06-28T09:38:33.000Z</time>
      </trkpt>
      <trkpt lat="45.17101" lon="5.63457">
        <ele>1185</ele>
        <time>2014-06-28T09:38:34.000Z</time>
      </trkpt>
      <trkpt lat="45.17101" lon="5.63457">
        <ele>1185</ele>
        <time>2014-06-28T09:38:35.000Z</time>
      </trkpt>
      <trkpt lat="45.17102" lon="5.63457">
        <ele>1185</ele>
        <time>2014-06-28T09:38:36.000Z</time>
      </trkpt>
      <trkpt lat="45.17102" lon="5.63458">
        <ele>1185</ele>
        <time>2014-06-28T09:38:37.000Z</time>
      </trkpt>
      <trkpt lat="45.17102" lon="5.63458">
        <ele>1185</ele>
        <time>2014-06-28T09:38:38.000Z</time>
      </trkpt>
      <trkpt lat="45.17102" lon="5.63458">
        <ele>1184</ele>
        <time>2014-06-28T09:38:39.000Z</time>
      </trkpt>
      <trkpt lat="45.17102" lon="5.63458">
        <ele>1184</ele>
        <time>2014-06-28T09:38:40.000Z</time>
      </trkpt>
      <trkpt lat="45.17102" lon="5.63459">
        <ele>1184</ele>
        <time>2014-06-28T09:38:41.000Z</time>
      </trkpt>
      <trkpt lat="45.17102" lon="5.63459">
        <ele>1184</ele>
        <time>2014-06-28T09:38:42.000Z</time>
      </trkpt>
      <trkpt lat="45.17102" lon="5.63459">
        <ele>1184</ele>
        <time>2014-06-28T09:38:43.000Z</time>
      </trkpt>
      <trkpt lat="45.17101" lon="5.6346">
        <ele>1183</ele>
        <time>2014-06-28T09:38:44.000Z</time>
      </trkpt>
      <trkpt lat="45.171" lon="5.6346">
        <ele>1183</ele>
        <time>2014-06-28T09:38:45.000Z</time>
      </trkpt>
      <trkpt lat="45.17099" lon="5.63461">
        <ele>1183</ele>
        <time>2014-06-28T09:38:46.000Z</time>
      </trkpt>
      <trkpt lat="45.17098" lon="5.63463">
        <ele>1183</ele>
        <time>2014-06-28T09:38:47.000Z</time>
      </trkpt>
      <trkpt lat="45.17097" lon="5.63464">
        <ele>1183</ele>
        <time>2014-06-28T09:38:48.000Z</time>
      </trkpt>
      <trkpt lat="45.17097" lon="5.63465">
        <ele>1183</ele>
        <time>2014-06-28T09:38:49.000Z</time>
      </trkpt>
      <trkpt lat="45.17096" lon="5.63467">
        <ele>1183</ele>
        <time>2014-06-28T09:38:50.000Z</time>
      </trkpt>
      <trkpt lat="45.17096" lon="5.63468">
        <ele>1182</ele>
        <time>2014-06-28T09:38:51.000Z</time>
      </trkpt>
      <trkpt lat="45.17095" lon="5.6347">
        <ele>1182</ele>
        <time>2014-06-28T09:38:52.000Z</time>
      </trkpt>
      <trkpt lat="45.17094" lon="5.63471">
        <ele>1182</ele>
        <time>2014-06-28T09:38:53.000Z</time>
      </trkpt>
      <trkpt lat="45.17093" lon="5.63472">
        <ele>1182</ele>
        <time>2014-06-28T09:38:54.000Z</time>
      </trkpt>
      <trkpt lat="45.17092" lon="5.63473">
        <ele>1182</ele>
        <time>2014-06-28T09:38:55.000Z</time>
      </trkpt>
      <trkpt lat="45.17091" lon="5.63474">
        <ele>1182</ele>
        <time>2014-06-28T09:38:56.000Z</time>
      </trkpt>
      <trkpt lat="45.17089" lon="5.63475">
        <ele>1182</ele>
        <time>2014-06-28T09:38:57.000Z</time>
      </trkpt>
      <trkpt lat="45.17088" lon="5.63476">
        <ele>1182</ele>
        <time>2014-06-28T09:38:58.000Z</time>
      </trkpt>
      <trkpt lat="45.17086" lon="5.63477">
        <ele>1182</ele>
        <time>2014-06-28T09:38:59.000Z</time>
      </trkpt>
      <trkpt lat="45.17083" lon="5.63478">
        <ele>1182</ele>
        <time>2014-06-28T09:39:00.000Z</time>
      </trkpt>
      <trkpt lat="45.1708" lon="5.63479">
        <ele>1182</ele>
        <time>2014-06-28T09:39:01.000Z</time>
      </trkpt>
      <trkpt lat="45.17078" lon="5.6348">
        <ele>1182</ele>
        <time>2014-06-28T09:39:02.000Z</time>
      </trkpt>
      <trkpt lat="45.17075" lon="5.63481">
        <ele>1182</ele>
        <time>2014-06-28T09:39:03.000Z</time>
      </trkpt>
      <trkpt lat="45.17072" lon="5.63483">
        <ele>1182</ele>
        <time>2014-06-28T09:39:04.000Z</time>
      </trkpt>
      <trkpt lat="45.17069" lon="5.63484">
        <ele>1181</ele>
        <time>2014-06-28T09:39:05.000Z</time>
      </trkpt>
      <trkpt lat="45.17066" lon="5.63485">
        <ele>1181</ele>
        <time>2014-06-28T09:39:06.000Z</time>
      </trkpt>
      <trkpt lat="45.17063" lon="5.63486">
        <ele>1181</ele>
        <time>2014-06-28T09:39:07.000Z</time>
      </trkpt>
      <trkpt lat="45.17061" lon="5.63487">
        <ele>1181</ele>
        <time>2014-06-28T09:39:08.000Z</time>
      </trkpt>
      <trkpt lat="45.17058" lon="5.63488">
        <ele>1181</ele>
        <time>2014-06-28T09:39:09.000Z</time>
      </trkpt>
      <trkpt lat="45.17055" lon="5.63489">
        <ele>1181</ele>
        <time>2014-06-28T09:39:10.000Z</time>
      </trkpt>
      <trkpt lat="45.17052" lon="5.63491">
        <ele>1181</ele>
        <time>2014-06-28T09:39:11.000Z</time>
      </trkpt>
      <trkpt lat="45.17048" lon="5.63492">
        <ele>1180</ele>
        <time>2014-06-28T09:39:12.000Z</time>
      </trkpt>
      <trkpt lat="45.17045" lon="5.63493">
        <ele>1180</ele>
        <time>2014-06-28T09:39:13.000Z</time>
      </trkpt>
      <trkpt lat="45.17042" lon="5.63495">
        <ele>1180</ele>
        <time>2014-06-28T09:39:14.000Z</time>
      </trkpt>
      <trkpt lat="45.17038" lon="5.63497">
        <ele>1180</ele>
        <time>2014-06-28T09:39:15.000Z</time>
      </trkpt>
      <trkpt lat="45.17035" lon="5.63499">
        <ele>1180</ele>
        <time>2014-06-28T09:39:16.000Z</time>
      </trkpt>
      <trkpt lat="45.17032" lon="5.63501">
        <ele>1180</ele>
        <time>2014-06-28T09:39:17.000Z</time>
      </trkpt>
      <trkpt lat="45.17029" lon="5.63503">
        <ele>1180</ele>
        <time>2014-06-28T09:39:18.000Z</time>
      </trkpt>
      <trkpt lat="45.17026" lon="5.63505">
        <ele>1180</ele>
        <time>2014-06-28T09:39:19.000Z</time>
      </trkpt>
      <trkpt lat="45.17023" lon="5.63506">
        <ele>1180</ele>
        <time>2014-06-28T09:39:20.000Z</time>
      </trkpt>
      <trkpt lat="45.1702" lon="5.63509">
        <ele>1180</ele>
        <time>2014-06-28T09:39:21.000Z</time>
      </trkpt>
      <trkpt lat="45.17018" lon="5.63511">
        <ele>1180</ele>
        <time>2014-06-28T09:39:22.000Z</time>
      </trkpt>
      <trkpt lat="45.17016" lon="5.63514">
        <ele>1180</ele>
        <time>2014-06-28T09:39:23.000Z</time>
      </trkpt>
      <trkpt lat="45.17014" lon="5.63517">
        <ele>1179</ele>
        <time>2014-06-28T09:39:24.000Z</time>
      </trkpt>
      <trkpt lat="45.17012" lon="5.6352">
        <ele>1179</ele>
        <time>2014-06-28T09:39:25.000Z</time>
      </trkpt>
      <trkpt lat="45.17011" lon="5.63524">
        <ele>1179</ele>
        <time>2014-06-28T09:39:26.000Z</time>
      </trkpt>
      <trkpt lat="45.17009" lon="5.63527">
        <ele>1179</ele>
        <time>2014-06-28T09:39:27.000Z</time>
      </trkpt>
      <trkpt lat="45.17008" lon="5.63531">
        <ele>1179</ele>
        <time>2014-06-28T09:39:28.000Z</time>
      </trkpt>
      <trkpt lat="45.17007" lon="5.63535">
        <ele>1179</ele>
        <time>2014-06-28T09:39:29.000Z</time>
      </trkpt>
      <trkpt lat="45.17005" lon="5.63539">
        <ele>1179</ele>
        <time>2014-06-28T09:39:30.000Z</time>
      </trkpt>
      <trkpt lat="45.17004" lon="5.63542">
        <ele>1179</ele>
        <time>2014-06-28T09:39:31.000Z</time>
      </trkpt>
      <trkpt lat="45.17003" lon="5.63546">
        <ele>1180</ele>
        <time>2014-06-28T09:39:32.000Z</time>
      </trkpt>
      <trkpt lat="45.17001" lon="5.63549">
        <ele>1180</ele>
        <time>2014-06-28T09:39:33.000Z</time>
      </trkpt>
      <trkpt lat="45.16999" lon="5.63553">
        <ele>1180</ele>
        <time>2014-06-28T09:39:34.000Z</time>
      </trkpt>
      <trkpt lat="45.16997" lon="5.63556">
        <ele>1180</ele>
        <time>2014-06-28T09:39:35.000Z</time>
      </trkpt>
      <trkpt lat="45.16995" lon="5.6356">
        <ele>1179</ele>
        <time>2014-06-28T09:39:36.000Z</time>
      </trkpt>
      <trkpt lat="45.16993" lon="5.63564">
        <ele>1179</ele>
        <time>2014-06-28T09:39:37.000Z</time>
      </trkpt>
      <trkpt lat="45.16991" lon="5.63568">
        <ele>1179</ele>
        <time>2014-06-28T09:39:38.000Z</time>
      </trkpt>
      <trkpt lat="45.16989" lon="5.63572">
        <ele>1179</ele>
        <time>2014-06-28T09:39:39.000Z</time>
      </trkpt>
      <trkpt lat="45.16987" lon="5.63576">
        <ele>1178</ele>
        <time>2014-06-28T09:39:40.000Z</time>
      </trkpt>
      <trkpt lat="45.16984" lon="5.6358">
        <ele>1178</ele>
        <time>2014-06-28T09:39:41.000Z</time>
      </trkpt>
      <trkpt lat="45.16982" lon="5.63584">
        <ele>1178</ele>
        <time>2014-06-28T09:39:42.000Z</time>
      </trkpt>
      <trkpt lat="45.1698" lon="5.63588">
        <ele>1178</ele>
        <time>2014-06-28T09:39:43.000Z</time>
      </trkpt>
      <trkpt lat="45.16977" lon="5.63591">
        <ele>1177</ele>
        <time>2014-06-28T09:39:44.000Z</time>
      </trkpt>
      <trkpt lat="45.16975" lon="5.63595">
        <ele>1177</ele>
        <time>2014-06-28T09:39:45.000Z</time>
      </trkpt>
      <trkpt lat="45.16972" lon="5.63599">
        <ele>1177</ele>
        <time>2014-06-28T09:39:46.000Z</time>
      </trkpt>
      <trkpt lat="45.16969" lon="5.63603">
        <ele>1176</ele>
        <time>2014-06-28T09:39:47.000Z</time>
      </trkpt>
      <trkpt lat="45.16967" lon="5.63607">
        <ele>1176</ele>
        <time>2014-06-28T09:39:48.000Z</time>
      </trkpt>
      <trkpt lat="45.16964" lon="5.6361">
        <ele>1176</ele>
        <time>2014-06-28T09:39:49.000Z</time>
      </trkpt>
      <trkpt lat="45.16962" lon="5.63614">
        <ele>1175</ele>
        <time>2014-06-28T09:39:50.000Z</time>
      </trkpt>
      <trkpt lat="45.16959" lon="5.63617">
        <ele>1175</ele>
        <time>2014-06-28T09:39:51.000Z</time>
      </trkpt>
      <trkpt lat="45.16956" lon="5.63621">
        <ele>1175</ele>
        <time>2014-06-28T09:39:52.000Z</time>
      </trkpt>
      <trkpt lat="45.16953" lon="5.63624">
        <ele>1174</ele>
        <time>2014-06-28T09:39:53.000Z</time>
      </trkpt>
      <trkpt lat="45.1695" lon="5.63627">
        <ele>1174</ele>
        <time>2014-06-28T09:39:54.000Z</time>
      </trkpt>
      <trkpt lat="45.16948" lon="5.6363">
        <ele>1174</ele>
        <time>2014-06-28T09:39:55.000Z</time>
      </trkpt>
      <trkpt lat="45.16945" lon="5.63632">
        <ele>1173</ele>
        <time>2014-06-28T09:39:56.000Z</time>
      </trkpt>
      <trkpt lat="45.16942" lon="5.63635">
        <ele>1173</ele>
        <time>2014-06-28T09:39:57.000Z</time>
      </trkpt>
      <trkpt lat="45.16939" lon="5.63637">
        <ele>1173</ele>
        <time>2014-06-28T09:39:58.000Z</time>
      </trkpt>
      <trkpt lat="45.16936" lon="5.63638">
        <ele>1172</ele>
        <time>2014-06-28T09:39:59.000Z</time>
      </trkpt>
      <trkpt lat="45.16932" lon="5.6364">
        <ele>1172</ele>
        <time>2014-06-28T09:40:00.000Z</time>
      </trkpt>
      <trkpt lat="45.16929" lon="5.63641">
        <ele>1171</ele>
        <time>2014-06-28T09:40:01.000Z</time>
      </trkpt>
      <trkpt lat="45.16925" lon="5.63642">
        <ele>1171</ele>
        <time>2014-06-28T09:40:02.000Z</time>
      </trkpt>
      <trkpt lat="45.16922" lon="5.63643">
        <ele>1171</ele>
        <time>2014-06-28T09:40:03.000Z</time>
      </trkpt>
      <trkpt lat="45.16919" lon="5.63644">
        <ele>1170</ele>
        <time>2014-06-28T09:40:04.000Z</time>
      </trkpt>
      <trkpt lat="45.16916" lon="5.63644">
        <ele>1170</ele>
        <time>2014-06-28T09:40:05.000Z</time>
      </trkpt>
      <trkpt lat="45.16913" lon="5.63644">
        <ele>1170</ele>
        <time>2014-06-28T09:40:06.000Z</time>
      </trkpt>
      <trkpt lat="45.1691" lon="5.63644">
        <ele>1170</ele>
        <time>2014-06-28T09:40:07.000Z</time>
      </trkpt>
      <trkpt lat="45.16907" lon="5.63644">
        <ele>1169</ele>
        <time>2014-06-28T09:40:08.000Z</time>
      </trkpt>
      <trkpt lat="45.16904" lon="5.63644">
        <ele>1169</ele>
        <time>2014-06-28T09:40:09.000Z</time>
      </trkpt>
      <trkpt lat="45.16901" lon="5.63643">
        <ele>1169</ele>
        <time>2014-06-28T09:40:10.000Z</time>
      </trkpt>
      <trkpt lat="45.16898" lon="5.63643">
        <ele>1168</ele>
        <time>2014-06-28T09:40:11.000Z</time>
      </trkpt>
      <trkpt lat="45.16895" lon="5.63642">
        <ele>1168</ele>
        <time>2014-06-28T09:40:12.000Z</time>
      </trkpt>
      <trkpt lat="45.16892" lon="5.63642">
        <ele>1168</ele>
        <time>2014-06-28T09:40:13.000Z</time>
      </trkpt>
      <trkpt lat="45.16889" lon="5.63641">
        <ele>1167</ele>
        <time>2014-06-28T09:40:14.000Z</time>
      </trkpt>
      <trkpt lat="45.16886" lon="5.63641">
        <ele>1167</ele>
        <time>2014-06-28T09:40:15.000Z</time>
      </trkpt>
      <trkpt lat="45.16883" lon="5.6364">
        <ele>1167</ele>
        <time>2014-06-28T09:40:16.000Z</time>
      </trkpt>
      <trkpt lat="45.1688" lon="5.63639">
        <ele>1167</ele>
        <time>2014-06-28T09:40:17.000Z</time>
      </trkpt>
      <trkpt lat="45.16877" lon="5.63638">
        <ele>1166</ele>
        <time>2014-06-28T09:40:18.000Z</time>
      </trkpt>
      <trkpt lat="45.16874" lon="5.63637">
        <ele>1166</ele>
        <time>2014-06-28T09:40:19.000Z</time>
      </trkpt>
      <trkpt lat="45.1687" lon="5.63636">
        <ele>1166</ele>
        <time>2014-06-28T09:40:20.000Z</time>
      </trkpt>
      <trkpt lat="45.16867" lon="5.63635">
        <ele>1166</ele>
        <time>2014-06-28T09:40:21.000Z</time>
      </trkpt>
      <trkpt lat="45.16864" lon="5.63635">
        <ele>1165</ele>
        <time>2014-06-28T09:40:22.000Z</time>
      </trkpt>
      <trkpt lat="45.16861" lon="5.63634">
        <ele>1165</ele>
        <time>2014-06-28T09:40:23.000Z</time>
      </trkpt>
      <trkpt lat="45.16858" lon="5.63633">
        <ele>1165</ele>
        <time>2014-06-28T09:40:24.000Z</time>
      </trkpt>
      <trkpt lat="45.16855" lon="5.63633">
        <ele>1165</ele>
        <time>2014-06-28T09:40:25.000Z</time>
      </trkpt>
      <trkpt lat="45.16852" lon="5.63632">
        <ele>1165</ele>
        <time>2014-06-28T09:40:26.000Z</time>
      </trkpt>
      <trkpt lat="45.16849" lon="5.63632">
        <ele>1164</ele>
        <time>2014-06-28T09:40:27.000Z</time>
      </trkpt>
      <trkpt lat="45.16846" lon="5.63632">
        <ele>1164</ele>
        <time>2014-06-28T09:40:28.000Z</time>
      </trkpt>
      <trkpt lat="45.16843" lon="5.63632">
        <ele>1164</ele>
        <time>2014-06-28T09:40:29.000Z</time>
      </trkpt>
      <trkpt lat="45.1684" lon="5.63632">
        <ele>1164</ele>
        <time>2014-06-28T09:40:30.000Z</time>
      </trkpt>
      <trkpt lat="45.16837" lon="5.63632">
        <ele>1164</ele>
        <time>2014-06-28T09:40:31.000Z</time>
      </trkpt>
      <trkpt lat="45.16835" lon="5.63633">
        <ele>1164</ele>
        <time>2014-06-28T09:40:32.000Z</time>
      </trkpt>
      <trkpt lat="45.16832" lon="5.63633">
        <ele>1164</ele>
        <time>2014-06-28T09:40:33.000Z</time>
      </trkpt>
      <trkpt lat="45.16829" lon="5.63634">
        <ele>1164</ele>
        <time>2014-06-28T09:40:34.000Z</time>
      </trkpt>
      <trkpt lat="45.16826" lon="5.63635">
        <ele>1164</ele>
        <time>2014-06-28T09:40:35.000Z</time>
      </trkpt>
      <trkpt lat="45.16824" lon="5.63635">
        <ele>1164</ele>
        <time>2014-06-28T09:40:36.000Z</time>
      </trkpt>
      <trkpt lat="45.16821" lon="5.63636">
        <ele>1164</ele>
        <time>2014-06-28T09:40:37.000Z</time>
      </trkpt>
      <trkpt lat="45.16818" lon="5.63637">
        <ele>1164</ele>
        <time>2014-06-28T09:40:38.000Z</time>
      </trkpt>
      <trkpt lat="45.16815" lon="5.63638">
        <ele>1164</ele>
        <time>2014-06-28T09:40:39.000Z</time>
      </trkpt>
      <trkpt lat="45.16812" lon="5.63639">
        <ele>1164</ele>
        <time>2014-06-28T09:40:40.000Z</time>
      </trkpt>
      <trkpt lat="45.1681" lon="5.6364">
        <ele>1164</ele>
        <time>2014-06-28T09:40:41.000Z</time>
      </trkpt>
      <trkpt lat="45.16807" lon="5.63641">
        <ele>1164</ele>
        <time>2014-06-28T09:40:42.000Z</time>
      </trkpt>
      <trkpt lat="45.16804" lon="5.63642">
        <ele>1164</ele>
        <time>2014-06-28T09:40:43.000Z</time>
      </trkpt>
      <trkpt lat="45.16802" lon="5.63643">
        <ele>1164</ele>
        <time>2014-06-28T09:40:44.000Z</time>
      </trkpt>
      <trkpt lat="45.16799" lon="5.63644">
        <ele>1164</ele>
        <time>2014-06-28T09:40:45.000Z</time>
      </trkpt>
      <trkpt lat="45.16796" lon="5.63644">
        <ele>1164</ele>
        <time>2014-06-28T09:40:46.000Z</time>
      </trkpt>
      <trkpt lat="45.16793" lon="5.63645">
        <ele>1164</ele>
        <time>2014-06-28T09:40:47.000Z</time>
      </trkpt>
      <trkpt lat="45.1679" lon="5.63647">
        <ele>1164</ele>
        <time>2014-06-28T09:40:48.000Z</time>
      </trkpt>
      <trkpt lat="45.16787" lon="5.63648">
        <ele>1164</ele>
        <time>2014-06-28T09:40:49.000Z</time>
      </trkpt>
      <trkpt lat="45.16784" lon="5.63649">
        <ele>1164</ele>
        <time>2014-06-28T09:40:50.000Z</time>
      </trkpt>
      <trkpt lat="45.16782" lon="5.63649">
        <ele>1164</ele>
        <time>2014-06-28T09:40:51.000Z</time>
      </trkpt>
      <trkpt lat="45.16779" lon="5.63649">
        <ele>1164</ele>
        <time>2014-06-28T09:40:52.000Z</time>
      </trkpt>
      <trkpt lat="45.16777" lon="5.63649">
        <ele>1164</ele>
        <time>2014-06-28T09:40:53.000Z</time>
      </trkpt>
      <trkpt lat="45.16774" lon="5.6365">
        <ele>1164</ele>
        <time>2014-06-28T09:40:54.000Z</time>
      </trkpt>
      <trkpt lat="45.16772" lon="5.6365">
        <ele>1164</ele>
        <time>2014-06-28T09:40:55.000Z</time>
      </trkpt>
      <trkpt lat="45.16769" lon="5.6365">
        <ele>1164</ele>
        <time>2014-06-28T09:40:56.000Z</time>
      </trkpt>
      <trkpt lat="45.16767" lon="5.6365">
        <ele>1164</ele>
        <time>2014-06-28T09:40:57.000Z</time>
      </trkpt>
      <trkpt lat="45.16764" lon="5.6365">
        <ele>1163</ele>
        <time>2014-06-28T09:40:58.000Z</time>
      </trkpt>
      <trkpt lat="45.16762" lon="5.6365">
        <ele>1163</ele>
        <time>2014-06-28T09:40:59.000Z</time>
      </trkpt>
      <trkpt lat="45.16759" lon="5.6365">
        <ele>1163</ele>
        <time>2014-06-28T09:41:00.000Z</time>
      </trkpt>
      <trkpt lat="45.16757" lon="5.6365">
        <ele>1163</ele>
        <time>2014-06-28T09:41:01.000Z</time>
      </trkpt>
      <trkpt lat="45.16754" lon="5.63651">
        <ele>1163</ele>
        <time>2014-06-28T09:41:02.000Z</time>
      </trkpt>
      <trkpt lat="45.16752" lon="5.63651">
        <ele>1163</ele>
        <time>2014-06-28T09:41:03.000Z</time>
      </trkpt>
      <trkpt lat="45.16749" lon="5.63652">
        <ele>1163</ele>
        <time>2014-06-28T09:41:04.000Z</time>
      </trkpt>
      <trkpt lat="45.16747" lon="5.63652">
        <ele>1162</ele>
        <time>2014-06-28T09:41:05.000Z</time>
      </trkpt>
      <trkpt lat="45.16744" lon="5.63652">
        <ele>1162</ele>
        <time>2014-06-28T09:41:06.000Z</time>
      </trkpt>
      <trkpt lat="45.16741" lon="5.63651">
        <ele>1162</ele>
        <time>2014-06-28T09:41:07.000Z</time>
      </trkpt>
      <trkpt lat="45.16738" lon="5.6365">
        <ele>1162</ele>
        <time>2014-06-28T09:41:08.000Z</time>
      </trkpt>
      <trkpt lat="45.16736" lon="5.63648">
        <ele>1162</ele>
        <time>2014-06-28T09:41:09.000Z</time>
      </trkpt>
      <trkpt lat="45.16733" lon="5.63647">
        <ele>1162</ele>
        <time>2014-06-28T09:41:10.000Z</time>
      </trkpt>
      <trkpt lat="45.16731" lon="5.63646">
        <ele>1162</ele>
        <time>2014-06-28T09:41:11.000Z</time>
      </trkpt>
      <trkpt lat="45.16729" lon="5.63645">
        <ele>1162</ele>
        <time>2014-06-28T09:41:12.000Z</time>
      </trkpt>
      <trkpt lat="45.16726" lon="5.63644">
        <ele>1162</ele>
        <time>2014-06-28T09:41:13.000Z</time>
      </trkpt>
      <trkpt lat="45.16724" lon="5.63643">
        <ele>1162</ele>
        <time>2014-06-28T09:41:14.000Z</time>
      </trkpt>
      <trkpt lat="45.16722" lon="5.63642">
        <ele>1161</ele>
        <time>2014-06-28T09:41:15.000Z</time>
      </trkpt>
      <trkpt lat="45.16719" lon="5.63641">
        <ele>1161</ele>
        <time>2014-06-28T09:41:16.000Z</time>
      </trkpt>
      <trkpt lat="45.16717" lon="5.63641">
        <ele>1161</ele>
        <time>2014-06-28T09:41:17.000Z</time>
      </trkpt>
      <trkpt lat="45.16714" lon="5.6364">
        <ele>1161</ele>
        <time>2014-06-28T09:41:18.000Z</time>
      </trkpt>
      <trkpt lat="45.16712" lon="5.6364">
        <ele>1161</ele>
        <time>2014-06-28T09:41:19.000Z</time>
      </trkpt>
      <trkpt lat="45.16709" lon="5.6364">
        <ele>1161</ele>
        <time>2014-06-28T09:41:20.000Z</time>
      </trkpt>
      <trkpt lat="45.16707" lon="5.6364">
        <ele>1161</ele>
        <time>2014-06-28T09:41:21.000Z</time>
      </trkpt>
      <trkpt lat="45.16705" lon="5.6364">
        <ele>1160</ele>
        <time>2014-06-28T09:41:22.000Z</time>
      </trkpt>
      <trkpt lat="45.16702" lon="5.6364">
        <ele>1160</ele>
        <time>2014-06-28T09:41:23.000Z</time>
      </trkpt>
      <trkpt lat="45.167" lon="5.6364">
        <ele>1160</ele>
        <time>2014-06-28T09:41:24.000Z</time>
      </trkpt>
      <trkpt lat="45.16697" lon="5.63641">
        <ele>1160</ele>
        <time>2014-06-28T09:41:25.000Z</time>
      </trkpt>
      <trkpt lat="45.16695" lon="5.63641">
        <ele>1160</ele>
        <time>2014-06-28T09:41:26.000Z</time>
      </trkpt>
      <trkpt lat="45.16693" lon="5.63643">
        <ele>1160</ele>
        <time>2014-06-28T09:41:27.000Z</time>
      </trkpt>
      <trkpt lat="45.16691" lon="5.63644">
        <ele>1159</ele>
        <time>2014-06-28T09:41:28.000Z</time>
      </trkpt>
      <trkpt lat="45.16689" lon="5.63647">
        <ele>1159</ele>
        <time>2014-06-28T09:41:29.000Z</time>
      </trkpt>
      <trkpt lat="45.16687" lon="5.6365">
        <ele>1159</ele>
        <time>2014-06-28T09:41:30.000Z</time>
      </trkpt>
      <trkpt lat="45.16685" lon="5.63653">
        <ele>1159</ele>
        <time>2014-06-28T09:41:31.000Z</time>
      </trkpt>
      <trkpt lat="45.16683" lon="5.63656">
        <ele>1159</ele>
        <time>2014-06-28T09:41:32.000Z</time>
      </trkpt>
      <trkpt lat="45.16682" lon="5.6366">
        <ele>1159</ele>
        <time>2014-06-28T09:41:33.000Z</time>
      </trkpt>
      <trkpt lat="45.1668" lon="5.63664">
        <ele>1159</ele>
        <time>2014-06-28T09:41:34.000Z</time>
      </trkpt>
      <trkpt lat="45.16679" lon="5.63668">
        <ele>1158</ele>
        <time>2014-06-28T09:41:35.000Z</time>
      </trkpt>
      <trkpt lat="45.16678" lon="5.63672">
        <ele>1158</ele>
        <time>2014-06-28T09:41:36.000Z</time>
      </trkpt>
      <trkpt lat="45.16676" lon="5.63675">
        <ele>1158</ele>
        <time>2014-06-28T09:41:37.000Z</time>
      </trkpt>
      <trkpt lat="45.16675" lon="5.63679">
        <ele>1158</ele>
        <time>2014-06-28T09:41:38.000Z</time>
      </trkpt>
      <trkpt lat="45.16674" lon="5.63683">
        <ele>1157</ele>
        <time>2014-06-28T09:41:39.000Z</time>
      </trkpt>
      <trkpt lat="45.16672" lon="5.63687">
        <ele>1157</ele>
        <time>2014-06-28T09:41:40.000Z</time>
      </trkpt>
      <trkpt lat="45.16671" lon="5.6369">
        <ele>1157</ele>
        <time>2014-06-28T09:41:41.000Z</time>
      </trkpt>
      <trkpt lat="45.16669" lon="5.63694">
        <ele>1157</ele>
        <time>2014-06-28T09:41:42.000Z</time>
      </trkpt>
      <trkpt lat="45.16668" lon="5.63697">
        <ele>1157</ele>
        <time>2014-06-28T09:41:43.000Z</time>
      </trkpt>
      <trkpt lat="45.16667" lon="5.637">
        <ele>1157</ele>
        <time>2014-06-28T09:41:44.000Z</time>
      </trkpt>
      <trkpt lat="45.16665" lon="5.63703">
        <ele>1156</ele>
        <time>2014-06-28T09:41:45.000Z</time>
      </trkpt>
      <trkpt lat="45.16663" lon="5.63706">
        <ele>1156</ele>
        <time>2014-06-28T09:41:46.000Z</time>
      </trkpt>
      <trkpt lat="45.16662" lon="5.6371">
        <ele>1156</ele>
        <time>2014-06-28T09:41:47.000Z</time>
      </trkpt>
      <trkpt lat="45.1666" lon="5.63713">
        <ele>1156</ele>
        <time>2014-06-28T09:41:48.000Z</time>
      </trkpt>
      <trkpt lat="45.16658" lon="5.63715">
        <ele>1156</ele>
        <time>2014-06-28T09:41:49.000Z</time>
      </trkpt>
      <trkpt lat="45.16657" lon="5.63718">
        <ele>1156</ele>
        <time>2014-06-28T09:41:50.000Z</time>
      </trkpt>
      <trkpt lat="45.16655" lon="5.6372">
        <ele>1156</ele>
        <time>2014-06-28T09:41:51.000Z</time>
      </trkpt>
      <trkpt lat="45.16654" lon="5.63722">
        <ele>1156</ele>
        <time>2014-06-28T09:41:52.000Z</time>
      </trkpt>
      <trkpt lat="45.16652" lon="5.63725">
        <ele>1156</ele>
        <time>2014-06-28T09:41:53.000Z</time>
      </trkpt>
      <trkpt lat="45.16651" lon="5.63727">
        <ele>1156</ele>
        <time>2014-06-28T09:41:54.000Z</time>
      </trkpt>
      <trkpt lat="45.16651" lon="5.63728">
        <ele>1156</ele>
        <time>2014-06-28T09:41:55.000Z</time>
      </trkpt>
      <trkpt lat="45.16652" lon="5.63729">
        <ele>1156</ele>
        <time>2014-06-28T09:41:56.000Z</time>
      </trkpt>
      <trkpt lat="45.16654" lon="5.63728">
        <ele>1155</ele>
        <time>2014-06-28T09:41:57.000Z</time>
      </trkpt>
      <trkpt lat="45.16657" lon="5.63727">
        <ele>1155</ele>
        <time>2014-06-28T09:41:58.000Z</time>
      </trkpt>
      <trkpt lat="45.1666" lon="5.63725">
        <ele>1155</ele>
        <time>2014-06-28T09:41:59.000Z</time>
      </trkpt>
      <trkpt lat="45.16664" lon="5.63723">
        <ele>1155</ele>
        <time>2014-06-28T09:42:00.000Z</time>
      </trkpt>
      <trkpt lat="45.16667" lon="5.63721">
        <ele>1155</ele>
        <time>2014-06-28T09:42:01.000Z</time>
      </trkpt>
      <trkpt lat="45.1667" lon="5.63719">
        <ele>1154</ele>
        <time>2014-06-28T09:42:02.000Z</time>
      </trkpt>
      <trkpt lat="45.16674" lon="5.63717">
        <ele>1154</ele>
        <time>2014-06-28T09:42:03.000Z</time>
      </trkpt>
      <trkpt lat="45.16677" lon="5.63715">
        <ele>1154</ele>
        <time>2014-06-28T09:42:04.000Z</time>
      </trkpt>
      <trkpt lat="45.1668" lon="5.63712">
        <ele>1154</ele>
        <time>2014-06-28T09:42:05.000Z</time>
      </trkpt>
      <trkpt lat="45.16683" lon="5.6371">
        <ele>1154</ele>
        <time>2014-06-28T09:42:06.000Z</time>
      </trkpt>
      <trkpt lat="45.16686" lon="5.63708">
        <ele>1153</ele>
        <time>2014-06-28T09:42:07.000Z</time>
      </trkpt>
      <trkpt lat="45.16689" lon="5.63706">
        <ele>1153</ele>
        <time>2014-06-28T09:42:08.000Z</time>
      </trkpt>
      <trkpt lat="45.16692" lon="5.63705">
        <ele>1153</ele>
        <time>2014-06-28T09:42:09.000Z</time>
      </trkpt>
      <trkpt lat="45.16695" lon="5.63703">
        <ele>1153</ele>
        <time>2014-06-28T09:42:10.000Z</time>
      </trkpt>
      <trkpt lat="45.16698" lon="5.63701">
        <ele>1153</ele>
        <time>2014-06-28T09:42:11.000Z</time>
      </trkpt>
      <trkpt lat="45.167" lon="5.637">
        <ele>1153</ele>
        <time>2014-06-28T09:42:12.000Z</time>
      </trkpt>
      <trkpt lat="45.16703" lon="5.63698">
        <ele>1152</ele>
        <time>2014-06-28T09:42:13.000Z</time>
      </trkpt>
      <trkpt lat="45.16705" lon="5.63697">
        <ele>1152</ele>
        <time>2014-06-28T09:42:14.000Z</time>
      </trkpt>
      <trkpt lat="45.16708" lon="5.63695">
        <ele>1152</ele>
        <time>2014-06-28T09:42:15.000Z</time>
      </trkpt>
      <trkpt lat="45.16711" lon="5.63695">
        <ele>1152</ele>
        <time>2014-06-28T09:42:16.000Z</time>
      </trkpt>
      <trkpt lat="45.16713" lon="5.63694">
        <ele>1152</ele>
        <time>2014-06-28T09:42:17.000Z</time>
      </trkpt>
      <trkpt lat="45.16716" lon="5.63694">
        <ele>1151</ele>
        <time>2014-06-28T09:42:18.000Z</time>
      </trkpt>
      <trkpt lat="45.16718" lon="5.63694">
        <ele>1151</ele>
        <time>2014-06-28T09:42:19.000Z</time>
      </trkpt>
      <trkpt lat="45.16721" lon="5.63694">
        <ele>1151</ele>
        <time>2014-06-28T09:42:20.000Z</time>
      </trkpt>
      <trkpt lat="45.16723" lon="5.63694">
        <ele>1151</ele>
        <time>2014-06-28T09:42:21.000Z</time>
      </trkpt>
      <trkpt lat="45.16726" lon="5.63694">
        <ele>1151</ele>
        <time>2014-06-28T09:42:22.000Z</time>
      </trkpt>
      <trkpt lat="45.16728" lon="5.63696">
        <ele>1150</ele>
        <time>2014-06-28T09:42:23.000Z</time>
      </trkpt>
      <trkpt lat="45.16731" lon="5.63696">
        <ele>1150</ele>
        <time>2014-06-28T09:42:24.000Z</time>
      </trkpt>
      <trkpt lat="45.16734" lon="5.63697">
        <ele>1150</ele>
        <time>2014-06-28T09:42:25.000Z</time>
      </trkpt>
      <trkpt lat="45.16736" lon="5.63698">
        <ele>1150</ele>
        <time>2014-06-28T09:42:26.000Z</time>
      </trkpt>
      <trkpt lat="45.16738" lon="5.63699">
        <ele>1150</ele>
        <time>2014-06-28T09:42:27.000Z</time>
      </trkpt>
      <trkpt lat="45.16741" lon="5.637">
        <ele>1150</ele>
        <time>2014-06-28T09:42:28.000Z</time>
      </trkpt>
      <trkpt lat="45.16743" lon="5.63701">
        <ele>1149</ele>
        <time>2014-06-28T09:42:29.000Z</time>
      </trkpt>
      <trkpt lat="45.16745" lon="5.63703">
        <ele>1149</ele>
        <time>2014-06-28T09:42:30.000Z</time>
      </trkpt>
      <trkpt lat="45.16747" lon="5.63705">
        <ele>1149</ele>
        <time>2014-06-28T09:42:31.000Z</time>
      </trkpt>
      <trkpt lat="45.16749" lon="5.63706">
        <ele>1149</ele>
        <time>2014-06-28T09:42:32.000Z</time>
      </trkpt>
      <trkpt lat="45.1675" lon="5.63708">
        <ele>1149</ele>
        <time>2014-06-28T09:42:33.000Z</time>
      </trkpt>
      <trkpt lat="45.1675" lon="5.6371">
        <ele>1148</ele>
        <time>2014-06-28T09:42:34.000Z</time>
      </trkpt>
      <trkpt lat="45.16749" lon="5.63712">
        <ele>1148</ele>
        <time>2014-06-28T09:42:35.000Z</time>
      </trkpt>
      <trkpt lat="45.16747" lon="5.63713">
        <ele>1148</ele>
        <time>2014-06-28T09:42:36.000Z</time>
      </trkpt>
      <trkpt lat="45.16745" lon="5.63715">
        <ele>1148</ele>
        <time>2014-06-28T09:42:37.000Z</time>
      </trkpt>
      <trkpt lat="45.16742" lon="5.63716">
        <ele>1148</ele>
        <time>2014-06-28T09:42:38.000Z</time>
      </trkpt>
      <trkpt lat="45.1674" lon="5.63718">
        <ele>1147</ele>
        <time>2014-06-28T09:42:39.000Z</time>
      </trkpt>
      <trkpt lat="45.16737" lon="5.63719">
        <ele>1147</ele>
        <time>2014-06-28T09:42:40.000Z</time>
      </trkpt>
      <trkpt lat="45.16735" lon="5.6372">
        <ele>1147</ele>
        <time>2014-06-28T09:42:41.000Z</time>
      </trkpt>
      <trkpt lat="45.16732" lon="5.63721">
        <ele>1147</ele>
        <time>2014-06-28T09:42:42.000Z</time>
      </trkpt>
      <trkpt lat="45.1673" lon="5.63723">
        <ele>1147</ele>
        <time>2014-06-28T09:42:43.000Z</time>
      </trkpt>
      <trkpt lat="45.16727" lon="5.63724">
        <ele>1146</ele>
        <time>2014-06-28T09:42:44.000Z</time>
      </trkpt>
      <trkpt lat="45.16725" lon="5.63726">
        <ele>1146</ele>
        <time>2014-06-28T09:42:45.000Z</time>
      </trkpt>
      <trkpt lat="45.16723" lon="5.63728">
        <ele>1146</ele>
        <time>2014-06-28T09:42:46.000Z</time>
      </trkpt>
      <trkpt lat="45.16721" lon="5.6373">
        <ele>1146</ele>
        <time>2014-06-28T09:42:47.000Z</time>
      </trkpt>
      <trkpt lat="45.16719" lon="5.63731">
        <ele>1146</ele>
        <time>2014-06-28T09:42:48.000Z</time>
      </trkpt>
      <trkpt lat="45.16717" lon="5.63733">
        <ele>1146</ele>
        <time>2014-06-28T09:42:49.000Z</time>
      </trkpt>
      <trkpt lat="45.16715" lon="5.63735">
        <ele>1146</ele>
        <time>2014-06-28T09:42:50.000Z</time>
      </trkpt>
      <trkpt lat="45.16713" lon="5.63737">
        <ele>1145</ele>
        <time>2014-06-28T09:42:51.000Z</time>
      </trkpt>
      <trkpt lat="45.16711" lon="5.63739">
        <ele>1145</ele>
        <time>2014-06-28T09:42:52.000Z</time>
      </trkpt>
      <trkpt lat="45.16709" lon="5.63742">
        <ele>1145</ele>
        <time>2014-06-28T09:42:53.000Z</time>
      </trkpt>
      <trkpt lat="45.16708" lon="5.63745">
        <ele>1145</ele>
        <time>2014-06-28T09:42:54.000Z</time>
      </trkpt>
      <trkpt lat="45.16707" lon="5.63748">
        <ele>1145</ele>
        <time>2014-06-28T09:42:55.000Z</time>
      </trkpt>
      <trkpt lat="45.16707" lon="5.63752">
        <ele>1145</ele>
        <time>2014-06-28T09:42:56.000Z</time>
      </trkpt>
      <trkpt lat="45.16707" lon="5.63754">
        <ele>1145</ele>
        <time>2014-06-28T09:42:57.000Z</time>
      </trkpt>
      <trkpt lat="45.16707" lon="5.63757">
        <ele>1145</ele>
        <time>2014-06-28T09:42:58.000Z</time>
      </trkpt>
      <trkpt lat="45.16708" lon="5.63758">
        <ele>1144</ele>
        <time>2014-06-28T09:42:59.000Z</time>
      </trkpt>
      <trkpt lat="45.1671" lon="5.63759">
        <ele>1144</ele>
        <time>2014-06-28T09:43:00.000Z</time>
      </trkpt>
      <trkpt lat="45.16711" lon="5.6376">
        <ele>1144</ele>
        <time>2014-06-28T09:43:01.000Z</time>
      </trkpt>
      <trkpt lat="45.16714" lon="5.63762">
        <ele>1144</ele>
        <time>2014-06-28T09:43:02.000Z</time>
      </trkpt>
      <trkpt lat="45.16716" lon="5.63763">
        <ele>1144</ele>
        <time>2014-06-28T09:43:03.000Z</time>
      </trkpt>
      <trkpt lat="45.16718" lon="5.63764">
        <ele>1144</ele>
        <time>2014-06-28T09:43:04.000Z</time>
      </trkpt>
      <trkpt lat="45.16721" lon="5.63766">
        <ele>1144</ele>
        <time>2014-06-28T09:43:05.000Z</time>
      </trkpt>
      <trkpt lat="45.16724" lon="5.63768">
        <ele>1143</ele>
        <time>2014-06-28T09:43:06.000Z</time>
      </trkpt>
      <trkpt lat="45.16726" lon="5.6377">
        <ele>1143</ele>
        <time>2014-06-28T09:43:07.000Z</time>
      </trkpt>
      <trkpt lat="45.16729" lon="5.63773">
        <ele>1143</ele>
        <time>2014-06-28T09:43:08.000Z</time>
      </trkpt>
      <trkpt lat="45.16732" lon="5.63775">
        <ele>1143</ele>
        <time>2014-06-28T09:43:09.000Z</time>
      </trkpt>
      <trkpt lat="45.16735" lon="5.63777">
        <ele>1142</ele>
        <time>2014-06-28T09:43:10.000Z</time>
      </trkpt>
      <trkpt lat="45.16737" lon="5.63779">
        <ele>1142</ele>
        <time>2014-06-28T09:43:11.000Z</time>
      </trkpt>
      <trkpt lat="45.1674" lon="5.63782">
        <ele>1142</ele>
        <time>2014-06-28T09:43:12.000Z</time>
      </trkpt>
      <trkpt lat="45.16742" lon="5.63784">
        <ele>1142</ele>
        <time>2014-06-28T09:43:13.000Z</time>
      </trkpt>
      <trkpt lat="45.16745" lon="5.63787">
        <ele>1141</ele>
        <time>2014-06-28T09:43:14.000Z</time>
      </trkpt>
      <trkpt lat="45.16747" lon="5.6379">
        <ele>1141</ele>
        <time>2014-06-28T09:43:15.000Z</time>
      </trkpt>
      <trkpt lat="45.1675" lon="5.63793">
        <ele>1141</ele>
        <time>2014-06-28T09:43:16.000Z</time>
      </trkpt>
      <trkpt lat="45.16752" lon="5.63796">
        <ele>1141</ele>
        <time>2014-06-28T09:43:17.000Z</time>
      </trkpt>
      <trkpt lat="45.16754" lon="5.63799">
        <ele>1141</ele>
        <time>2014-06-28T09:43:18.000Z</time>
      </trkpt>
      <trkpt lat="45.16755" lon="5.63802">
        <ele>1140</ele>
        <time>2014-06-28T09:43:19.000Z</time>
      </trkpt>
      <trkpt lat="45.16758" lon="5.63805">
        <ele>1140</ele>
        <time>2014-06-28T09:43:20.000Z</time>
      </trkpt>
      <trkpt lat="45.16759" lon="5.63808">
        <ele>1140</ele>
        <time>2014-06-28T09:43:21.000Z</time>
      </trkpt>
      <trkpt lat="45.16761" lon="5.63811">
        <ele>1140</ele>
        <time>2014-06-28T09:43:22.000Z</time>
      </trkpt>
      <trkpt lat="45.16762" lon="5.63814">
        <ele>1139</ele>
        <time>2014-06-28T09:43:23.000Z</time>
      </trkpt>
      <trkpt lat="45.16764" lon="5.63817">
        <ele>1139</ele>
        <time>2014-06-28T09:43:24.000Z</time>
      </trkpt>
      <trkpt lat="45.16765" lon="5.63821">
        <ele>1139</ele>
        <time>2014-06-28T09:43:25.000Z</time>
      </trkpt>
      <trkpt lat="45.16766" lon="5.63824">
        <ele>1139</ele>
        <time>2014-06-28T09:43:26.000Z</time>
      </trkpt>
      <trkpt lat="45.16767" lon="5.63828">
        <ele>1139</ele>
        <time>2014-06-28T09:43:27.000Z</time>
      </trkpt>
      <trkpt lat="45.16768" lon="5.63832">
        <ele>1138</ele>
        <time>2014-06-28T09:43:28.000Z</time>
      </trkpt>
      <trkpt lat="45.16769" lon="5.63836">
        <ele>1138</ele>
        <time>2014-06-28T09:43:29.000Z</time>
      </trkpt>
      <trkpt lat="45.1677" lon="5.6384">
        <ele>1138</ele>
        <time>2014-06-28T09:43:30.000Z</time>
      </trkpt>
      <trkpt lat="45.16771" lon="5.63844">
        <ele>1138</ele>
        <time>2014-06-28T09:43:31.000Z</time>
      </trkpt>
      <trkpt lat="45.16772" lon="5.63849">
        <ele>1138</ele>
        <time>2014-06-28T09:43:32.000Z</time>
      </trkpt>
      <trkpt lat="45.16773" lon="5.63854">
        <ele>1137</ele>
        <time>2014-06-28T09:43:33.000Z</time>
      </trkpt>
      <trkpt lat="45.16774" lon="5.63859">
        <ele>1137</ele>
        <time>2014-06-28T09:43:34.000Z</time>
      </trkpt>
      <trkpt lat="45.16774" lon="5.63864">
        <ele>1137</ele>
        <time>2014-06-28T09:43:35.000Z</time>
      </trkpt>
      <trkpt lat="45.16775" lon="5.63869">
        <ele>1137</ele>
        <time>2014-06-28T09:43:36.000Z</time>
      </trkpt>
      <trkpt lat="45.16776" lon="5.63874">
        <ele>1136</ele>
        <time>2014-06-28T09:43:37.000Z</time>
      </trkpt>
      <trkpt lat="45.16778" lon="5.63879">
        <ele>1136</ele>
        <time>2014-06-28T09:43:38.000Z</time>
      </trkpt>
      <trkpt lat="45.16779" lon="5.63883">
        <ele>1136</ele>
        <time>2014-06-28T09:43:39.000Z</time>
      </trkpt>
      <trkpt lat="45.1678" lon="5.63887">
        <ele>1136</ele>
        <time>2014-06-28T09:43:40.000Z</time>
      </trkpt>
      <trkpt lat="45.16781" lon="5.63891">
        <ele>1136</ele>
        <time>2014-06-28T09:43:41.000Z</time>
      </trkpt>
      <trkpt lat="45.16783" lon="5.63896">
        <ele>1136</ele>
        <time>2014-06-28T09:43:42.000Z</time>
      </trkpt>
      <trkpt lat="45.16784" lon="5.639">
        <ele>1135</ele>
        <time>2014-06-28T09:43:43.000Z</time>
      </trkpt>
      <trkpt lat="45.16785" lon="5.63904">
        <ele>1135</ele>
        <time>2014-06-28T09:43:44.000Z</time>
      </trkpt>
      <trkpt lat="45.16786" lon="5.63908">
        <ele>1135</ele>
        <time>2014-06-28T09:43:45.000Z</time>
      </trkpt>
      <trkpt lat="45.16787" lon="5.63912">
        <ele>1135</ele>
        <time>2014-06-28T09:43:46.000Z</time>
      </trkpt>
      <trkpt lat="45.16789" lon="5.63915">
        <ele>1135</ele>
        <time>2014-06-28T09:43:47.000Z</time>
      </trkpt>
      <trkpt lat="45.1679" lon="5.63918">
        <ele>1135</ele>
        <time>2014-06-28T09:43:48.000Z</time>
      </trkpt>
      <trkpt lat="45.16791" lon="5.63922">
        <ele>1134</ele>
        <time>2014-06-28T09:43:49.000Z</time>
      </trkpt>
      <trkpt lat="45.16793" lon="5.63926">
        <ele>1134</ele>
        <time>2014-06-28T09:43:50.000Z</time>
      </trkpt>
      <trkpt lat="45.16794" lon="5.6393">
        <ele>1134</ele>
        <time>2014-06-28T09:43:51.000Z</time>
      </trkpt>
      <trkpt lat="45.16796" lon="5.63934">
        <ele>1133</ele>
        <time>2014-06-28T09:43:52.000Z</time>
      </trkpt>
      <trkpt lat="45.16798" lon="5.63938">
        <ele>1132</ele>
        <time>2014-06-28T09:43:53.000Z</time>
      </trkpt>
      <trkpt lat="45.16799" lon="5.63942">
        <ele>1131</ele>
        <time>2014-06-28T09:43:54.000Z</time>
      </trkpt>
      <trkpt lat="45.16801" lon="5.63945">
        <ele>1131</ele>
        <time>2014-06-28T09:43:55.000Z</time>
      </trkpt>
      <trkpt lat="45.16802" lon="5.63949">
        <ele>1130</ele>
        <time>2014-06-28T09:43:56.000Z</time>
      </trkpt>
      <trkpt lat="45.16804" lon="5.63953">
        <ele>1129</ele>
        <time>2014-06-28T09:43:57.000Z</time>
      </trkpt>
      <trkpt lat="45.16805" lon="5.63955">
        <ele>1129</ele>
        <time>2014-06-28T09:43:58.000Z</time>
      </trkpt>
      <trkpt lat="45.16806" lon="5.63957">
        <ele>1128</ele>
        <time>2014-06-28T09:43:59.000Z</time>
      </trkpt>
      <trkpt lat="45.16807" lon="5.63959">
        <ele>1128</ele>
        <time>2014-06-28T09:44:00.000Z</time>
      </trkpt>
      <trkpt lat="45.16809" lon="5.63959">
        <ele>1127</ele>
        <time>2014-06-28T09:44:01.000Z</time>
      </trkpt>
      <trkpt lat="45.1681" lon="5.63959">
        <ele>1126</ele>
        <time>2014-06-28T09:44:02.000Z</time>
      </trkpt>
      <trkpt lat="45.16811" lon="5.63958">
        <ele>1125</ele>
        <time>2014-06-28T09:44:03.000Z</time>
      </trkpt>
      <trkpt lat="45.16812" lon="5.63958">
        <ele>1124</ele>
        <time>2014-06-28T09:44:04.000Z</time>
      </trkpt>
      <trkpt lat="45.16814" lon="5.63957">
        <ele>1123</ele>
        <time>2014-06-28T09:44:05.000Z</time>
      </trkpt>
      <trkpt lat="45.16816" lon="5.63956">
        <ele>1122</ele>
        <time>2014-06-28T09:44:06.000Z</time>
      </trkpt>
      <trkpt lat="45.16818" lon="5.63955">
        <ele>1121</ele>
        <time>2014-06-28T09:44:07.000Z</time>
      </trkpt>
      <trkpt lat="45.1682" lon="5.63954">
        <ele>1120</ele>
        <time>2014-06-28T09:44:08.000Z</time>
      </trkpt>
      <trkpt lat="45.16822" lon="5.63953">
        <ele>1119</ele>
        <time>2014-06-28T09:44:09.000Z</time>
      </trkpt>
      <trkpt lat="45.16824" lon="5.63952">
        <ele>1118</ele>
        <time>2014-06-28T09:44:10.000Z</time>
      </trkpt>
      <trkpt lat="45.16827" lon="5.63953">
        <ele>1117</ele>
        <time>2014-06-28T09:44:11.000Z</time>
      </trkpt>
      <trkpt lat="45.16829" lon="5.63953">
        <ele>1116</ele>
        <time>2014-06-28T09:44:12.000Z</time>
      </trkpt>
      <trkpt lat="45.16831" lon="5.63954">
        <ele>1115</ele>
        <time>2014-06-28T09:44:13.000Z</time>
      </trkpt>
      <trkpt lat="45.16833" lon="5.63955">
        <ele>1114</ele>
        <time>2014-06-28T09:44:14.000Z</time>
      </trkpt>
      <trkpt lat="45.16834" lon="5.63956">
        <ele>1113</ele>
        <time>2014-06-28T09:44:15.000Z</time>
      </trkpt>
      <trkpt lat="45.16834" lon="5.63956">
        <ele>1112</ele>
        <time>2014-06-28T09:44:16.000Z</time>
      </trkpt>
      <trkpt lat="45.16834" lon="5.63957">
        <ele>1112</ele>
        <time>2014-06-28T09:44:17.000Z</time>
      </trkpt>
      <trkpt lat="45.16833" lon="5.63958">
        <ele>1111</ele>
        <time>2014-06-28T09:44:18.000Z</time>
      </trkpt>
      <trkpt lat="45.1683" lon="5.6396">
        <ele>1110</ele>
        <time>2014-06-28T09:44:19.000Z</time>
      </trkpt>
      <trkpt lat="45.16829" lon="5.63962">
        <ele>1110</ele>
        <time>2014-06-28T09:44:20.000Z</time>
      </trkpt>
      <trkpt lat="45.16827" lon="5.63964">
        <ele>1109</ele>
        <time>2014-06-28T09:44:21.000Z</time>
      </trkpt>
      <trkpt lat="45.16825" lon="5.63967">
        <ele>1108</ele>
        <time>2014-06-28T09:44:22.000Z</time>
      </trkpt>
      <trkpt lat="45.16823" lon="5.63969">
        <ele>1108</ele>
        <time>2014-06-28T09:44:23.000Z</time>
      </trkpt>
      <trkpt lat="45.16822" lon="5.63972">
        <ele>1107</ele>
        <time>2014-06-28T09:44:24.000Z</time>
      </trkpt>
      <trkpt lat="45.16822" lon="5.63975">
        <ele>1107</ele>
        <time>2014-06-28T09:44:25.000Z</time>
      </trkpt>
      <trkpt lat="45.16821" lon="5.63979">
        <ele>1106</ele>
        <time>2014-06-28T09:44:26.000Z</time>
      </trkpt>
      <trkpt lat="45.16821" lon="5.63983">
        <ele>1105</ele>
        <time>2014-06-28T09:44:27.000Z</time>
      </trkpt>
      <trkpt lat="45.16821" lon="5.63988">
        <ele>1105</ele>
        <time>2014-06-28T09:44:28.000Z</time>
      </trkpt>
      <trkpt lat="45.16821" lon="5.63993">
        <ele>1104</ele>
        <time>2014-06-28T09:44:29.000Z</time>
      </trkpt>
      <trkpt lat="45.16821" lon="5.63997">
        <ele>1104</ele>
        <time>2014-06-28T09:44:30.000Z</time>
      </trkpt>
      <trkpt lat="45.16821" lon="5.64002">
        <ele>1103</ele>
        <time>2014-06-28T09:44:31.000Z</time>
      </trkpt>
      <trkpt lat="45.16822" lon="5.64007">
        <ele>1103</ele>
        <time>2014-06-28T09:44:32.000Z</time>
      </trkpt>
      <trkpt lat="45.16822" lon="5.64011">
        <ele>1103</ele>
        <time>2014-06-28T09:44:33.000Z</time>
      </trkpt>
      <trkpt lat="45.16823" lon="5.64015">
        <ele>1102</ele>
        <time>2014-06-28T09:44:34.000Z</time>
      </trkpt>
      <trkpt lat="45.16824" lon="5.64018">
        <ele>1102</ele>
        <time>2014-06-28T09:44:35.000Z</time>
      </trkpt>
      <trkpt lat="45.16825" lon="5.64021">
        <ele>1101</ele>
        <time>2014-06-28T09:44:36.000Z</time>
      </trkpt>
      <trkpt lat="45.16827" lon="5.64024">
        <ele>1101</ele>
        <time>2014-06-28T09:44:37.000Z</time>
      </trkpt>
      <trkpt lat="45.16828" lon="5.64026">
        <ele>1100</ele>
        <time>2014-06-28T09:44:38.000Z</time>
      </trkpt>
      <trkpt lat="45.1683" lon="5.64029">
        <ele>1100</ele>
        <time>2014-06-28T09:44:39.000Z</time>
      </trkpt>
      <trkpt lat="45.16831" lon="5.64031">
        <ele>1100</ele>
        <time>2014-06-28T09:44:40.000Z</time>
      </trkpt>
      <trkpt lat="45.16832" lon="5.64033">
        <ele>1099</ele>
        <time>2014-06-28T09:44:41.000Z</time>
      </trkpt>
      <trkpt lat="45.16833" lon="5.64034">
        <ele>1099</ele>
        <time>2014-06-28T09:44:42.000Z</time>
      </trkpt>
      <trkpt lat="45.16833" lon="5.64035">
        <ele>1099</ele>
        <time>2014-06-28T09:44:43.000Z</time>
      </trkpt>
      <trkpt lat="45.16834" lon="5.64035">
        <ele>1099</ele>
        <time>2014-06-28T09:44:44.000Z</time>
      </trkpt>
      <trkpt lat="45.16834" lon="5.64036">
        <ele>1099</ele>
        <time>2014-06-28T09:44:45.000Z</time>
      </trkpt>
      <trkpt lat="45.16834" lon="5.64036">
        <ele>1099</ele>
        <time>2014-06-28T09:44:46.000Z</time>
      </trkpt>
      <trkpt lat="45.16834" lon="5.64036">
        <ele>1099</ele>
        <time>2014-06-28T09:44:47.000Z</time>
      </trkpt>
      <trkpt lat="45.16834" lon="5.64036">
        <ele>1099</ele>
        <time>2014-06-28T09:44:48.000Z</time>
      </trkpt>
      <trkpt lat="45.16835" lon="5.64036">
        <ele>1098</ele>
        <time>2014-06-28T09:44:49.000Z</time>
      </trkpt>
      <trkpt lat="45.16835" lon="5.64036">
        <ele>1098</ele>
        <time>2014-06-28T09:44:50.000Z</time>
      </trkpt>
      <trkpt lat="45.16835" lon="5.64037">
        <ele>1098</ele>
        <time>2014-06-28T09:44:51.000Z</time>
      </trkpt>
      <trkpt lat="45.16835" lon="5.64037">
        <ele>1098</ele>
        <time>2014-06-28T09:44:52.000Z</time>
      </trkpt>
      <trkpt lat="45.16835" lon="5.64037">
        <ele>1098</ele>
        <time>2014-06-28T09:44:53.000Z</time>
      </trkpt>
      <trkpt lat="45.16835" lon="5.64037">
        <ele>1098</ele>
        <time>2014-06-28T09:44:54.000Z</time>
      </trkpt>
      <trkpt lat="45.16836" lon="5.64037">
        <ele>1098</ele>
        <time>2014-06-28T09:44:55.000Z</time>
      </trkpt>
      <trkpt lat="45.16836" lon="5.64037">
        <ele>1098</ele>
        <time>2014-06-28T09:44:56.000Z</time>
      </trkpt>
      <trkpt lat="45.16836" lon="5.64037">
        <ele>1098</ele>
        <time>2014-06-28T09:44:57.000Z</time>
      </trkpt>
      <trkpt lat="45.16836" lon="5.64037">
        <ele>1098</ele>
        <time>2014-06-28T09:44:58.000Z</time>
      </trkpt>
      <trkpt lat="45.16836" lon="5.64037">
        <ele>1098</ele>
        <time>2014-06-28T09:44:59.000Z</time>
      </trkpt>
      <trkpt lat="45.16836" lon="5.64037">
        <ele>1098</ele>
        <time>2014-06-28T09:45:00.000Z</time>
      </trkpt>
      <trkpt lat="45.16836" lon="5.64037">
        <ele>1097</ele>
        <time>2014-06-28T09:45:01.000Z</time>
      </trkpt>
      <trkpt lat="45.16836" lon="5.64037">
        <ele>1097</ele>
        <time>2014-06-28T09:45:02.000Z</time>
      </trkpt>
      <trkpt lat="45.16837" lon="5.64037">
        <ele>1097</ele>
        <time>2014-06-28T09:45:03.000Z</time>
      </trkpt>
      <trkpt lat="45.16837" lon="5.64037">
        <ele>1097</ele>
        <time>2014-06-28T09:45:04.000Z</time>
      </trkpt>
      <trkpt lat="45.16837" lon="5.64037">
        <ele>1097</ele>
        <time>2014-06-28T09:45:05.000Z</time>
      </trkpt>
      <trkpt lat="45.16837" lon="5.64037">
        <ele>1097</ele>
        <time>2014-06-28T09:45:06.000Z</time>
      </trkpt>
      <trkpt lat="45.16837" lon="5.64037">
        <ele>1097</ele>
        <time>2014-06-28T09:45:07.000Z</time>
      </trkpt>
      <trkpt lat="45.16837" lon="5.64038">
        <ele>1097</ele>
        <time>2014-06-28T09:45:08.000Z</time>
      </trkpt>
      <trkpt lat="45.16837" lon="5.64038">
        <ele>1097</ele>
        <time>2014-06-28T09:45:09.000Z</time>
      </trkpt>
      <trkpt lat="45.16837" lon="5.64038">
        <ele>1097</ele>
        <time>2014-06-28T09:45:10.000Z</time>
      </trkpt>
      <trkpt lat="45.16837" lon="5.64038">
        <ele>1097</ele>
        <time>2014-06-28T09:45:11.000Z</time>
      </trkpt>
      <trkpt lat="45.16837" lon="5.64038">
        <ele>1097</ele>
        <time>2014-06-28T09:45:12.000Z</time>
      </trkpt>
      <trkpt lat="45.16837" lon="5.64038">
        <ele>1097</ele>
        <time>2014-06-28T09:45:13.000Z</time>
      </trkpt>
      <trkpt lat="45.16837" lon="5.64038">
        <ele>1097</ele>
        <time>2014-06-28T09:45:14.000Z</time>
      </trkpt>
      <trkpt lat="45.16838" lon="5.64038">
        <ele>1097</ele>
        <time>2014-06-28T09:45:15.000Z</time>
      </trkpt>
      <trkpt lat="45.16838" lon="5.64038">
        <ele>1097</ele>
        <time>2014-06-28T09:45:16.000Z</time>
      </trkpt>
      <trkpt lat="45.16837" lon="5.64038">
        <ele>1097</ele>
        <time>2014-06-28T09:45:17.000Z</time>
      </trkpt>
      <trkpt lat="45.16837" lon="5.64038">
        <ele>1097</ele>
        <time>2014-06-28T09:45:18.000Z</time>
      </trkpt>
      <trkpt lat="45.16837" lon="5.64038">
        <ele>1097</ele>
        <time>2014-06-28T09:45:19.000Z</time>
      </trkpt>
      <trkpt lat="45.16837" lon="5.64038">
        <ele>1096</ele>
        <time>2014-06-28T09:45:20.000Z</time>
      </trkpt>
      <trkpt lat="45.16837" lon="5.64038">
        <ele>1096</ele>
        <time>2014-06-28T09:45:21.000Z</time>
      </trkpt>
      <trkpt lat="45.16837" lon="5.64037">
        <ele>1096</ele>
        <time>2014-06-28T09:45:22.000Z</time>
      </trkpt>
      <trkpt lat="45.16836" lon="5.64036">
        <ele>1096</ele>
        <time>2014-06-28T09:45:23.000Z</time>
      </trkpt>
      <trkpt lat="45.16835" lon="5.64036">
        <ele>1096</ele>
        <time>2014-06-28T09:45:24.000Z</time>
      </trkpt>
      <trkpt lat="45.16834" lon="5.64035">
        <ele>1096</ele>
        <time>2014-06-28T09:45:25.000Z</time>
      </trkpt>
      <trkpt lat="45.16833" lon="5.64035">
        <ele>1096</ele>
        <time>2014-06-28T09:45:26.000Z</time>
      </trkpt>
      <trkpt lat="45.16833" lon="5.64035">
        <ele>1096</ele>
        <time>2014-06-28T09:45:27.000Z</time>
      </trkpt>
      <trkpt lat="45.16832" lon="5.64035">
        <ele>1096</ele>
        <time>2014-06-28T09:45:28.000Z</time>
      </trkpt>
      <trkpt lat="45.16832" lon="5.64035">
        <ele>1096</ele>
        <time>2014-06-28T09:45:29.000Z</time>
      </trkpt>
      <trkpt lat="45.16831" lon="5.64037">
        <ele>1096</ele>
        <time>2014-06-28T09:45:30.000Z</time>
      </trkpt>
      <trkpt lat="45.16832" lon="5.64038">
        <ele>1096</ele>
        <time>2014-06-28T09:45:31.000Z</time>
      </trkpt>
      <trkpt lat="45.16832" lon="5.64039">
        <ele>1095</ele>
        <time>2014-06-28T09:45:32.000Z</time>
      </trkpt>
      <trkpt lat="45.16833" lon="5.64041">
        <ele>1095</ele>
        <time>2014-06-28T09:45:33.000Z</time>
      </trkpt>
      <trkpt lat="45.16833" lon="5.64043">
        <ele>1095</ele>
        <time>2014-06-28T09:45:34.000Z</time>
      </trkpt>
      <trkpt lat="45.16834" lon="5.64045">
        <ele>1095</ele>
        <time>2014-06-28T09:45:35.000Z</time>
      </trkpt>
      <trkpt lat="45.16835" lon="5.64047">
        <ele>1095</ele>
        <time>2014-06-28T09:45:36.000Z</time>
      </trkpt>
      <trkpt lat="45.16835" lon="5.64049">
        <ele>1094</ele>
        <time>2014-06-28T09:45:37.000Z</time>
      </trkpt>
      <trkpt lat="45.16835" lon="5.64051">
        <ele>1094</ele>
        <time>2014-06-28T09:45:38.000Z</time>
      </trkpt>
      <trkpt lat="45.16835" lon="5.64053">
        <ele>1094</ele>
        <time>2014-06-28T09:45:39.000Z</time>
      </trkpt>
      <trkpt lat="45.16834" lon="5.64055">
        <ele>1094</ele>
        <time>2014-06-28T09:45:40.000Z</time>
      </trkpt>
      <trkpt lat="45.16833" lon="5.64058">
        <ele>1093</ele>
        <time>2014-06-28T09:45:41.000Z</time>
      </trkpt>
      <trkpt lat="45.16832" lon="5.64061">
        <ele>1093</ele>
        <time>2014-06-28T09:45:42.000Z</time>
      </trkpt>
      <trkpt lat="45.16831" lon="5.64064">
        <ele>1092</ele>
        <time>2014-06-28T09:45:43.000Z</time>
      </trkpt>
      <trkpt lat="45.16829" lon="5.64068">
        <ele>1092</ele>
        <time>2014-06-28T09:45:44.000Z</time>
      </trkpt>
      <trkpt lat="45.16828" lon="5.64071">
        <ele>1092</ele>
        <time>2014-06-28T09:45:45.000Z</time>
      </trkpt>
      <trkpt lat="45.16827" lon="5.64074">
        <ele>1091</ele>
        <time>2014-06-28T09:45:46.000Z</time>
      </trkpt>
      <trkpt lat="45.16826" lon="5.64077">
        <ele>1091</ele>
        <time>2014-06-28T09:45:47.000Z</time>
      </trkpt>
      <trkpt lat="45.16824" lon="5.6408">
        <ele>1091</ele>
        <time>2014-06-28T09:45:48.000Z</time>
      </trkpt>
      <trkpt lat="45.16823" lon="5.64083">
        <ele>1090</ele>
        <time>2014-06-28T09:45:49.000Z</time>
      </trkpt>
      <trkpt lat="45.16821" lon="5.64087">
        <ele>1090</ele>
        <time>2014-06-28T09:45:50.000Z</time>
      </trkpt>
      <trkpt lat="45.16819" lon="5.6409">
        <ele>1090</ele>
        <time>2014-06-28T09:45:51.000Z</time>
      </trkpt>
      <trkpt lat="45.16817" lon="5.64093">
        <ele>1089</ele>
        <time>2014-06-28T09:45:52.000Z</time>
      </trkpt>
      <trkpt lat="45.16815" lon="5.64096">
        <ele>1089</ele>
        <time>2014-06-28T09:45:53.000Z</time>
      </trkpt>
      <trkpt lat="45.16813" lon="5.64099">
        <ele>1089</ele>
        <time>2014-06-28T09:45:54.000Z</time>
      </trkpt>
      <trkpt lat="45.1681" lon="5.64102">
        <ele>1089</ele>
        <time>2014-06-28T09:45:55.000Z</time>
      </trkpt>
      <trkpt lat="45.16807" lon="5.64105">
        <ele>1089</ele>
        <time>2014-06-28T09:45:56.000Z</time>
      </trkpt>
      <trkpt lat="45.16804" lon="5.64107">
        <ele>1089</ele>
        <time>2014-06-28T09:45:57.000Z</time>
      </trkpt>
      <trkpt lat="45.16801" lon="5.64109">
        <ele>1089</ele>
        <time>2014-06-28T09:45:58.000Z</time>
      </trkpt>
      <trkpt lat="45.16798" lon="5.64111">
        <ele>1089</ele>
        <time>2014-06-28T09:45:59.000Z</time>
      </trkpt>
      <trkpt lat="45.16795" lon="5.64112">
        <ele>1089</ele>
        <time>2014-06-28T09:46:00.000Z</time>
      </trkpt>
      <trkpt lat="45.16792" lon="5.64114">
        <ele>1088</ele>
        <time>2014-06-28T09:46:01.000Z</time>
      </trkpt>
      <trkpt lat="45.16789" lon="5.64116">
        <ele>1088</ele>
        <time>2014-06-28T09:46:02.000Z</time>
      </trkpt>
      <trkpt lat="45.16785" lon="5.64118">
        <ele>1088</ele>
        <time>2014-06-28T09:46:03.000Z</time>
      </trkpt>
      <trkpt lat="45.16781" lon="5.64121">
        <ele>1088</ele>
        <time>2014-06-28T09:46:04.000Z</time>
      </trkpt>
      <trkpt lat="45.16778" lon="5.64123">
        <ele>1088</ele>
        <time>2014-06-28T09:46:05.000Z</time>
      </trkpt>
      <trkpt lat="45.16774" lon="5.64126">
        <ele>1088</ele>
        <time>2014-06-28T09:46:06.000Z</time>
      </trkpt>
      <trkpt lat="45.16771" lon="5.64129">
        <ele>1087</ele>
        <time>2014-06-28T09:46:07.000Z</time>
      </trkpt>
      <trkpt lat="45.16768" lon="5.64133">
        <ele>1087</ele>
        <time>2014-06-28T09:46:08.000Z</time>
      </trkpt>
      <trkpt lat="45.16765" lon="5.64135">
        <ele>1087</ele>
        <time>2014-06-28T09:46:09.000Z</time>
      </trkpt>
      <trkpt lat="45.16762" lon="5.64137">
        <ele>1087</ele>
        <time>2014-06-28T09:46:10.000Z</time>
      </trkpt>
      <trkpt lat="45.16759" lon="5.64139">
        <ele>1087</ele>
        <time>2014-06-28T09:46:11.000Z</time>
      </trkpt>
      <trkpt lat="45.16757" lon="5.6414">
        <ele>1087</ele>
        <time>2014-06-28T09:46:12.000Z</time>
      </trkpt>
      <trkpt lat="45.16754" lon="5.64142">
        <ele>1087</ele>
        <time>2014-06-28T09:46:13.000Z</time>
      </trkpt>
      <trkpt lat="45.16752" lon="5.64143">
        <ele>1087</ele>
        <time>2014-06-28T09:46:14.000Z</time>
      </trkpt>
      <trkpt lat="45.16749" lon="5.64144">
        <ele>1087</ele>
        <time>2014-06-28T09:46:15.000Z</time>
      </trkpt>
      <trkpt lat="45.16746" lon="5.64146">
        <ele>1087</ele>
        <time>2014-06-28T09:46:16.000Z</time>
      </trkpt>
      <trkpt lat="45.16743" lon="5.64147">
        <ele>1087</ele>
        <time>2014-06-28T09:46:17.000Z</time>
      </trkpt>
      <trkpt lat="45.16741" lon="5.64149">
        <ele>1087</ele>
        <time>2014-06-28T09:46:18.000Z</time>
      </trkpt>
      <trkpt lat="45.16738" lon="5.6415">
        <ele>1086</ele>
        <time>2014-06-28T09:46:19.000Z</time>
      </trkpt>
      <trkpt lat="45.16736" lon="5.64152">
        <ele>1086</ele>
        <time>2014-06-28T09:46:20.000Z</time>
      </trkpt>
      <trkpt lat="45.16734" lon="5.64154">
        <ele>1086</ele>
        <time>2014-06-28T09:46:21.000Z</time>
      </trkpt>
      <trkpt lat="45.16731" lon="5.64155">
        <ele>1086</ele>
        <time>2014-06-28T09:46:22.000Z</time>
      </trkpt>
      <trkpt lat="45.16729" lon="5.64156">
        <ele>1086</ele>
        <time>2014-06-28T09:46:23.000Z</time>
      </trkpt>
      <trkpt lat="45.16726" lon="5.64158">
        <ele>1086</ele>
        <time>2014-06-28T09:46:24.000Z</time>
      </trkpt>
      <trkpt lat="45.16723" lon="5.64159">
        <ele>1086</ele>
        <time>2014-06-28T09:46:25.000Z</time>
      </trkpt>
      <trkpt lat="45.1672" lon="5.6416">
        <ele>1085</ele>
        <time>2014-06-28T09:46:26.000Z</time>
      </trkpt>
      <trkpt lat="45.16717" lon="5.64162">
        <ele>1085</ele>
        <time>2014-06-28T09:46:27.000Z</time>
      </trkpt>
      <trkpt lat="45.16715" lon="5.64164">
        <ele>1085</ele>
        <time>2014-06-28T09:46:28.000Z</time>
      </trkpt>
      <trkpt lat="45.16712" lon="5.64166">
        <ele>1084</ele>
        <time>2014-06-28T09:46:29.000Z</time>
      </trkpt>
      <trkpt lat="45.16708" lon="5.64169">
        <ele>1084</ele>
        <time>2014-06-28T09:46:30.000Z</time>
      </trkpt>
      <trkpt lat="45.16705" lon="5.64171">
        <ele>1084</ele>
        <time>2014-06-28T09:46:31.000Z</time>
      </trkpt>
      <trkpt lat="45.16703" lon="5.64174">
        <ele>1084</ele>
        <time>2014-06-28T09:46:32.000Z</time>
      </trkpt>
      <trkpt lat="45.167" lon="5.64176">
        <ele>1084</ele>
        <time>2014-06-28T09:46:33.000Z</time>
      </trkpt>
      <trkpt lat="45.16698" lon="5.64179">
        <ele>1084</ele>
        <time>2014-06-28T09:46:34.000Z</time>
      </trkpt>
      <trkpt lat="45.16696" lon="5.64181">
        <ele>1083</ele>
        <time>2014-06-28T09:46:35.000Z</time>
      </trkpt>
      <trkpt lat="45.16694" lon="5.64184">
        <ele>1083</ele>
        <time>2014-06-28T09:46:36.000Z</time>
      </trkpt>
      <trkpt lat="45.16692" lon="5.64186">
        <ele>1083</ele>
        <time>2014-06-28T09:46:37.000Z</time>
      </trkpt>
      <trkpt lat="45.16689" lon="5.64188">
        <ele>1083</ele>
        <time>2014-06-28T09:46:38.000Z</time>
      </trkpt>
      <trkpt lat="45.16687" lon="5.64191">
        <ele>1083</ele>
        <time>2014-06-28T09:46:39.000Z</time>
      </trkpt>
      <trkpt lat="45.16685" lon="5.64194">
        <ele>1083</ele>
        <time>2014-06-28T09:46:40.000Z</time>
      </trkpt>
      <trkpt lat="45.16683" lon="5.64197">
        <ele>1083</ele>
        <time>2014-06-28T09:46:41.000Z</time>
      </trkpt>
      <trkpt lat="45.16681" lon="5.642">
        <ele>1083</ele>
        <time>2014-06-28T09:46:42.000Z</time>
      </trkpt>
      <trkpt lat="45.16679" lon="5.64203">
        <ele>1083</ele>
        <time>2014-06-28T09:46:43.000Z</time>
      </trkpt>
      <trkpt lat="45.16677" lon="5.64205">
        <ele>1083</ele>
        <time>2014-06-28T09:46:44.000Z</time>
      </trkpt>
      <trkpt lat="45.16674" lon="5.64208">
        <ele>1083</ele>
        <time>2014-06-28T09:46:45.000Z</time>
      </trkpt>
      <trkpt lat="45.16672" lon="5.6421">
        <ele>1083</ele>
        <time>2014-06-28T09:46:46.000Z</time>
      </trkpt>
      <trkpt lat="45.1667" lon="5.64213">
        <ele>1083</ele>
        <time>2014-06-28T09:46:47.000Z</time>
      </trkpt>
      <trkpt lat="45.16667" lon="5.64216">
        <ele>1083</ele>
        <time>2014-06-28T09:46:48.000Z</time>
      </trkpt>
      <trkpt lat="45.16665" lon="5.64218">
        <ele>1083</ele>
        <time>2014-06-28T09:46:49.000Z</time>
      </trkpt>
      <trkpt lat="45.16663" lon="5.6422">
        <ele>1083</ele>
        <time>2014-06-28T09:46:50.000Z</time>
      </trkpt>
      <trkpt lat="45.16661" lon="5.64223">
        <ele>1083</ele>
        <time>2014-06-28T09:46:51.000Z</time>
      </trkpt>
      <trkpt lat="45.16659" lon="5.64226">
        <ele>1083</ele>
        <time>2014-06-28T09:46:52.000Z</time>
      </trkpt>
      <trkpt lat="45.16656" lon="5.64229">
        <ele>1083</ele>
        <time>2014-06-28T09:46:53.000Z</time>
      </trkpt>
      <trkpt lat="45.16654" lon="5.64231">
        <ele>1083</ele>
        <time>2014-06-28T09:46:54.000Z</time>
      </trkpt>
      <trkpt lat="45.16652" lon="5.64234">
        <ele>1083</ele>
        <time>2014-06-28T09:46:55.000Z</time>
      </trkpt>
      <trkpt lat="45.1665" lon="5.64237">
        <ele>1083</ele>
        <time>2014-06-28T09:46:56.000Z</time>
      </trkpt>
      <trkpt lat="45.16648" lon="5.6424">
        <ele>1083</ele>
        <time>2014-06-28T09:46:57.000Z</time>
      </trkpt>
      <trkpt lat="45.16645" lon="5.64244">
        <ele>1083</ele>
        <time>2014-06-28T09:46:58.000Z</time>
      </trkpt>
      <trkpt lat="45.16643" lon="5.64247">
        <ele>1083</ele>
        <time>2014-06-28T09:46:59.000Z</time>
      </trkpt>
      <trkpt lat="45.1664" lon="5.64251">
        <ele>1083</ele>
        <time>2014-06-28T09:47:00.000Z</time>
      </trkpt>
      <trkpt lat="45.16637" lon="5.64256">
        <ele>1083</ele>
        <time>2014-06-28T09:47:01.000Z</time>
      </trkpt>
      <trkpt lat="45.16634" lon="5.64259">
        <ele>1083</ele>
        <time>2014-06-28T09:47:02.000Z</time>
      </trkpt>
      <trkpt lat="45.16632" lon="5.64263">
        <ele>1083</ele>
        <time>2014-06-28T09:47:03.000Z</time>
      </trkpt>
      <trkpt lat="45.16629" lon="5.64266">
        <ele>1083</ele>
        <time>2014-06-28T09:47:04.000Z</time>
      </trkpt>
      <trkpt lat="45.16627" lon="5.64269">
        <ele>1083</ele>
        <time>2014-06-28T09:47:05.000Z</time>
      </trkpt>
      <trkpt lat="45.16624" lon="5.64272">
        <ele>1083</ele>
        <time>2014-06-28T09:47:06.000Z</time>
      </trkpt>
      <trkpt lat="45.16622" lon="5.64275">
        <ele>1083</ele>
        <time>2014-06-28T09:47:07.000Z</time>
      </trkpt>
      <trkpt lat="45.1662" lon="5.64278">
        <ele>1083</ele>
        <time>2014-06-28T09:47:08.000Z</time>
      </trkpt>
      <trkpt lat="45.16618" lon="5.6428">
        <ele>1082</ele>
        <time>2014-06-28T09:47:09.000Z</time>
      </trkpt>
      <trkpt lat="45.16617" lon="5.64282">
        <ele>1082</ele>
        <time>2014-06-28T09:47:10.000Z</time>
      </trkpt>
      <trkpt lat="45.16616" lon="5.64283">
        <ele>1082</ele>
        <time>2014-06-28T09:47:11.000Z</time>
      </trkpt>
      <trkpt lat="45.16616" lon="5.64284">
        <ele>1082</ele>
        <time>2014-06-28T09:47:12.000Z</time>
      </trkpt>
      <trkpt lat="45.16615" lon="5.64285">
        <ele>1081</ele>
        <time>2014-06-28T09:47:13.000Z</time>
      </trkpt>
      <trkpt lat="45.16615" lon="5.64287">
        <ele>1081</ele>
        <time>2014-06-28T09:47:14.000Z</time>
      </trkpt>
      <trkpt lat="45.16615" lon="5.64289">
        <ele>1080</ele>
        <time>2014-06-28T09:47:15.000Z</time>
      </trkpt>
      <trkpt lat="45.16614" lon="5.64291">
        <ele>1080</ele>
        <time>2014-06-28T09:47:16.000Z</time>
      </trkpt>
      <trkpt lat="45.16614" lon="5.64293">
        <ele>1080</ele>
        <time>2014-06-28T09:47:17.000Z</time>
      </trkpt>
      <trkpt lat="45.16614" lon="5.64295">
        <ele>1079</ele>
        <time>2014-06-28T09:47:18.000Z</time>
      </trkpt>
      <trkpt lat="45.16614" lon="5.64297">
        <ele>1079</ele>
        <time>2014-06-28T09:47:19.000Z</time>
      </trkpt>
      <trkpt lat="45.16614" lon="5.64299">
        <ele>1078</ele>
        <time>2014-06-28T09:47:20.000Z</time>
      </trkpt>
      <trkpt lat="45.16614" lon="5.64301">
        <ele>1078</ele>
        <time>2014-06-28T09:47:21.000Z</time>
      </trkpt>
      <trkpt lat="45.16614" lon="5.64302">
        <ele>1078</ele>
        <time>2014-06-28T09:47:22.000Z</time>
      </trkpt>
      <trkpt lat="45.16614" lon="5.64304">
        <ele>1078</ele>
        <time>2014-06-28T09:47:23.000Z</time>
      </trkpt>
      <trkpt lat="45.16613" lon="5.64307">
        <ele>1077</ele>
        <time>2014-06-28T09:47:24.000Z</time>
      </trkpt>
      <trkpt lat="45.16613" lon="5.64309">
        <ele>1077</ele>
        <time>2014-06-28T09:47:25.000Z</time>
      </trkpt>
      <trkpt lat="45.16613" lon="5.64312">
        <ele>1076</ele>
        <time>2014-06-28T09:47:26.000Z</time>
      </trkpt>
      <trkpt lat="45.16613" lon="5.64315">
        <ele>1076</ele>
        <time>2014-06-28T09:47:27.000Z</time>
      </trkpt>
      <trkpt lat="45.16613" lon="5.64318">
        <ele>1076</ele>
        <time>2014-06-28T09:47:28.000Z</time>
      </trkpt>
      <trkpt lat="45.16612" lon="5.64321">
        <ele>1075</ele>
        <time>2014-06-28T09:47:29.000Z</time>
      </trkpt>
      <trkpt lat="45.16612" lon="5.64324">
        <ele>1075</ele>
        <time>2014-06-28T09:47:30.000Z</time>
      </trkpt>
      <trkpt lat="45.16612" lon="5.64327">
        <ele>1075</ele>
        <time>2014-06-28T09:47:31.000Z</time>
      </trkpt>
      <trkpt lat="45.16611" lon="5.64328">
        <ele>1074</ele>
        <time>2014-06-28T09:47:32.000Z</time>
      </trkpt>
      <trkpt lat="45.16611" lon="5.64328">
        <ele>1074</ele>
        <time>2014-06-28T09:47:33.000Z</time>
      </trkpt>
      <trkpt lat="45.16611" lon="5.64327">
        <ele>1074</ele>
        <time>2014-06-28T09:47:34.000Z</time>
      </trkpt>
      <trkpt lat="45.16611" lon="5.64326">
        <ele>1073</ele>
        <time>2014-06-28T09:47:35.000Z</time>
      </trkpt>
      <trkpt lat="45.16611" lon="5.64325">
        <ele>1072</ele>
        <time>2014-06-28T09:47:36.000Z</time>
      </trkpt>
      <trkpt lat="45.16611" lon="5.64325">
        <ele>1072</ele>
        <time>2014-06-28T09:47:37.000Z</time>
      </trkpt>
      <trkpt lat="45.16611" lon="5.64324">
        <ele>1072</ele>
        <time>2014-06-28T09:47:38.000Z</time>
      </trkpt>
      <trkpt lat="45.16612" lon="5.64323">
        <ele>1071</ele>
        <time>2014-06-28T09:47:39.000Z</time>
      </trkpt>
      <trkpt lat="45.16612" lon="5.64323">
        <ele>1071</ele>
        <time>2014-06-28T09:47:40.000Z</time>
      </trkpt>
      <trkpt lat="45.16612" lon="5.64323">
        <ele>1070</ele>
        <time>2014-06-28T09:47:41.000Z</time>
      </trkpt>
      <trkpt lat="45.16612" lon="5.64323">
        <ele>1070</ele>
        <time>2014-06-28T09:47:42.000Z</time>
      </trkpt>
      <trkpt lat="45.16612" lon="5.64323">
        <ele>1070</ele>
        <time>2014-06-28T09:47:43.000Z</time>
      </trkpt>
      <trkpt lat="45.16612" lon="5.64323">
        <ele>1069</ele>
        <time>2014-06-28T09:47:44.000Z</time>
      </trkpt>
      <trkpt lat="45.16612" lon="5.64323">
        <ele>1069</ele>
        <time>2014-06-28T09:47:45.000Z</time>
      </trkpt>
      <trkpt lat="45.16612" lon="5.64323">
        <ele>1069</ele>
        <time>2014-06-28T09:47:46.000Z</time>
      </trkpt>
      <trkpt lat="45.16612" lon="5.64323">
        <ele>1069</ele>
        <time>2014-06-28T09:47:47.000Z</time>
      </trkpt>
      <trkpt lat="45.16612" lon="5.64323">
        <ele>1068</ele>
        <time>2014-06-28T09:47:48.000Z</time>
      </trkpt>
      <trkpt lat="45.16612" lon="5.64323">
        <ele>1068</ele>
        <time>2014-06-28T09:47:49.000Z</time>
      </trkpt>
      <trkpt lat="45.16612" lon="5.64323">
        <ele>1068</ele>
        <time>2014-06-28T09:47:50.000Z</time>
      </trkpt>
      <trkpt lat="45.16612" lon="5.64323">
        <ele>1068</ele>
        <time>2014-06-28T09:47:51.000Z</time>
      </trkpt>
      <trkpt lat="45.16612" lon="5.64323">
        <ele>1068</ele>
        <time>2014-06-28T09:47:52.000Z</time>
      </trkpt>
      <trkpt lat="45.16612" lon="5.64323">
        <ele>1068</ele>
        <time>2014-06-28T09:47:53.000Z</time>
      </trkpt>
      <trkpt lat="45.16612" lon="5.64323">
        <ele>1068</ele>
        <time>2014-06-28T09:47:54.000Z</time>
      </trkpt>
      <trkpt lat="45.16612" lon="5.64323">
        <ele>1068</ele>
        <time>2014-06-28T09:47:55.000Z</time>
      </trkpt>
      <trkpt lat="45.16612" lon="5.64323">
        <ele>1067</ele>
        <time>2014-06-28T09:47:56.000Z</time>
      </trkpt>
      <trkpt lat="45.16612" lon="5.64324">
        <ele>1067</ele>
        <time>2014-06-28T09:47:57.000Z</time>
      </trkpt>
      <trkpt lat="45.16612" lon="5.64324">
        <ele>1067</ele>
        <time>2014-06-28T09:47:58.000Z</time>
      </trkpt>
      <trkpt lat="45.16612" lon="5.64323">
        <ele>1067</ele>
        <time>2014-06-28T09:47:59.000Z</time>
      </trkpt>
      <trkpt lat="45.16612" lon="5.64323">
        <ele>1067</ele>
        <time>2014-06-28T09:48:00.000Z</time>
      </trkpt>
      <trkpt lat="45.16612" lon="5.64324">
        <ele>1067</ele>
        <time>2014-06-28T09:48:01.000Z</time>
      </trkpt>
      <trkpt lat="45.16612" lon="5.64324">
        <ele>1067</ele>
        <time>2014-06-28T09:48:02.000Z</time>
      </trkpt>
      <trkpt lat="45.16612" lon="5.64324">
        <ele>1067</ele>
        <time>2014-06-28T09:48:03.000Z</time>
      </trkpt>
      <trkpt lat="45.16612" lon="5.64324">
        <ele>1067</ele>
        <time>2014-06-28T09:48:04.000Z</time>
      </trkpt>
      <trkpt lat="45.16612" lon="5.64324">
        <ele>1066</ele>
        <time>2014-06-28T09:48:05.000Z</time>
      </trkpt>
      <trkpt lat="45.16612" lon="5.64324">
        <ele>1066</ele>
        <time>2014-06-28T09:48:06.000Z</time>
      </trkpt>
      <trkpt lat="45.16612" lon="5.64324">
        <ele>1066</ele>
        <time>2014-06-28T09:48:07.000Z</time>
      </trkpt>
      <trkpt lat="45.16612" lon="5.64324">
        <ele>1066</ele>
        <time>2014-06-28T09:48:08.000Z</time>
      </trkpt>
      <trkpt lat="45.16612" lon="5.64324">
        <ele>1066</ele>
        <time>2014-06-28T09:48:09.000Z</time>
      </trkpt>
      <trkpt lat="45.16612" lon="5.64324">
        <ele>1066</ele>
        <time>2014-06-28T09:48:10.000Z</time>
      </trkpt>
      <trkpt lat="45.16612" lon="5.64324">
        <ele>1066</ele>
        <time>2014-06-28T09:48:11.000Z</time>
      </trkpt>
      <trkpt lat="45.16612" lon="5.64325">
        <ele>1066</ele>
        <time>2014-06-28T09:48:12.000Z</time>
      </trkpt>
      <trkpt lat="45.16612" lon="5.64325">
        <ele>1066</ele>
        <time>2014-06-28T09:48:13.000Z</time>
      </trkpt>
      <trkpt lat="45.16613" lon="5.64325">
        <ele>1066</ele>
        <time>2014-06-28T09:48:14.000Z</time>
      </trkpt>
      <trkpt lat="45.16613" lon="5.64325">
        <ele>1066</ele>
        <time>2014-06-28T09:48:15.000Z</time>
      </trkpt>
      <trkpt lat="45.16614" lon="5.64324">
        <ele>1066</ele>
        <time>2014-06-28T09:48:16.000Z</time>
      </trkpt>
      <trkpt lat="45.16614" lon="5.64324">
        <ele>1066</ele>
        <time>2014-06-28T09:48:17.000Z</time>
      </trkpt>
      <trkpt lat="45.16615" lon="5.64323">
        <ele>1066</ele>
        <time>2014-06-28T09:48:18.000Z</time>
      </trkpt>
      <trkpt lat="45.16615" lon="5.64322">
        <ele>1065</ele>
        <time>2014-06-28T09:48:19.000Z</time>
      </trkpt>
      <trkpt lat="45.16615" lon="5.64322">
        <ele>1065</ele>
        <time>2014-06-28T09:48:20.000Z</time>
      </trkpt>
      <trkpt lat="45.16615" lon="5.64322">
        <ele>1065</ele>
        <time>2014-06-28T09:48:21.000Z</time>
      </trkpt>
      <trkpt lat="45.16615" lon="5.64323">
        <ele>1065</ele>
        <time>2014-06-28T09:48:22.000Z</time>
      </trkpt>
      <trkpt lat="45.16615" lon="5.64323">
        <ele>1065</ele>
        <time>2014-06-28T09:48:23.000Z</time>
      </trkpt>
      <trkpt lat="45.16614" lon="5.64324">
        <ele>1065</ele>
        <time>2014-06-28T09:48:24.000Z</time>
      </trkpt>
      <trkpt lat="45.16615" lon="5.64325">
        <ele>1065</ele>
        <time>2014-06-28T09:48:25.000Z</time>
      </trkpt>
      <trkpt lat="45.16615" lon="5.64325">
        <ele>1065</ele>
        <time>2014-06-28T09:48:26.000Z</time>
      </trkpt>
      <trkpt lat="45.16615" lon="5.64326">
        <ele>1065</ele>
        <time>2014-06-28T09:48:27.000Z</time>
      </trkpt>
      <trkpt lat="45.16615" lon="5.64326">
        <ele>1065</ele>
        <time>2014-06-28T09:48:28.000Z</time>
      </trkpt>
      <trkpt lat="45.16615" lon="5.64326">
        <ele>1065</ele>
        <time>2014-06-28T09:48:29.000Z</time>
      </trkpt>
      <trkpt lat="45.16615" lon="5.64326">
        <ele>1065</ele>
        <time>2014-06-28T09:48:30.000Z</time>
      </trkpt>
      <trkpt lat="45.16615" lon="5.64326">
        <ele>1065</ele>
        <time>2014-06-28T09:48:31.000Z</time>
      </trkpt>
      <trkpt lat="45.16615" lon="5.64326">
        <ele>1065</ele>
        <time>2014-06-28T09:48:32.000Z</time>
      </trkpt>
      <trkpt lat="45.16615" lon="5.64326">
        <ele>1065</ele>
        <time>2014-06-28T09:48:33.000Z</time>
      </trkpt>
      <trkpt lat="45.16615" lon="5.64326">
        <ele>1065</ele>
        <time>2014-06-28T09:48:34.000Z</time>
      </trkpt>
      <trkpt lat="45.16615" lon="5.64326">
        <ele>1065</ele>
        <time>2014-06-28T09:48:35.000Z</time>
      </trkpt>
      <trkpt lat="45.16615" lon="5.64326">
        <ele>1065</ele>
        <time>2014-06-28T09:48:36.000Z</time>
      </trkpt>
      <trkpt lat="45.16615" lon="5.64326">
        <ele>1065</ele>
        <time>2014-06-28T09:48:37.000Z</time>
      </trkpt>
      <trkpt lat="45.16615" lon="5.64326">
        <ele>1065</ele>
        <time>2014-06-28T09:48:38.000Z</time>
      </trkpt>
      <trkpt lat="45.16615" lon="5.64326">
        <ele>1065</ele>
        <time>2014-06-28T09:48:39.000Z</time>
      </trkpt>
      <trkpt lat="45.16615" lon="5.64326">
        <ele>1065</ele>
        <time>2014-06-28T09:48:40.000Z</time>
      </trkpt>
      <trkpt lat="45.16615" lon="5.64326">
        <ele>1065</ele>
        <time>2014-06-28T09:48:41.000Z</time>
      </trkpt>
      <trkpt lat="45.16615" lon="5.64326">
        <ele>1065</ele>
        <time>2014-06-28T09:48:42.000Z</time>
      </trkpt>
      <trkpt lat="45.16615" lon="5.64326">
        <ele>1066</ele>
        <time>2014-06-28T09:48:43.000Z</time>
      </trkpt>
      <trkpt lat="45.16615" lon="5.64326">
        <ele>1066</ele>
        <time>2014-06-28T09:48:44.000Z</time>
      </trkpt>
      <trkpt lat="45.16615" lon="5.64326">
        <ele>1066</ele>
        <time>2014-06-28T09:48:45.000Z</time>
      </trkpt>
      <trkpt lat="45.16615" lon="5.64326">
        <ele>1066</ele>
        <time>2014-06-28T09:48:46.000Z</time>
      </trkpt>
      <trkpt lat="45.16615" lon="5.64327">
        <ele>1066</ele>
        <time>2014-06-28T09:48:47.000Z</time>
      </trkpt>
      <trkpt lat="45.16615" lon="5.64327">
        <ele>1066</ele>
        <time>2014-06-28T09:48:48.000Z</time>
      </trkpt>
      <trkpt lat="45.16615" lon="5.64327">
        <ele>1066</ele>
        <time>2014-06-28T09:48:49.000Z</time>
      </trkpt>
      <trkpt lat="45.16614" lon="5.64327">
        <ele>1066</ele>
        <time>2014-06-28T09:48:50.000Z</time>
      </trkpt>
      <trkpt lat="45.16614" lon="5.64327">
        <ele>1066</ele>
        <time>2014-06-28T09:48:51.000Z</time>
      </trkpt>
      <trkpt lat="45.16614" lon="5.64327">
        <ele>1066</ele>
        <time>2014-06-28T09:48:52.000Z</time>
      </trkpt>
      <trkpt lat="45.16614" lon="5.64327">
        <ele>1066</ele>
        <time>2014-06-28T09:48:53.000Z</time>
      </trkpt>
      <trkpt lat="45.16614" lon="5.64327">
        <ele>1066</ele>
        <time>2014-06-28T09:48:54.000Z</time>
      </trkpt>
      <trkpt lat="45.16614" lon="5.64327">
        <ele>1066</ele>
        <time>2014-06-28T09:48:55.000Z</time>
      </trkpt>
      <trkpt lat="45.16614" lon="5.64327">
        <ele>1066</ele>
        <time>2014-06-28T09:48:56.000Z</time>
      </trkpt>
      <trkpt lat="45.16614" lon="5.64327">
        <ele>1066</ele>
        <time>2014-06-28T09:48:57.000Z</time>
      </trkpt>
      <trkpt lat="45.16614" lon="5.64327">
        <ele>1066</ele>
        <time>2014-06-28T09:48:58.000Z</time>
      </trkpt>
      <trkpt lat="45.16614" lon="5.64327">
        <ele>1066</ele>
        <time>2014-06-28T09:48:59.000Z</time>
      </trkpt>
      <trkpt lat="45.16614" lon="5.64327">
        <ele>1067</ele>
        <time>2014-06-28T09:49:00.000Z</time>
      </trkpt>
      <trkpt lat="45.16614" lon="5.64327">
        <ele>1067</ele>
        <time>2014-06-28T09:49:01.000Z</time>
      </trkpt>
      <trkpt lat="45.16614" lon="5.64328">
        <ele>1067</ele>
        <time>2014-06-28T09:49:02.000Z</time>
      </trkpt>
      <trkpt lat="45.16614" lon="5.64328">
        <ele>1067</ele>
        <time>2014-06-28T09:49:03.000Z</time>
      </trkpt>
      <trkpt lat="45.16614" lon="5.64328">
        <ele>1067</ele>
        <time>2014-06-28T09:49:04.000Z</time>
      </trkpt>
      <trkpt lat="45.16614" lon="5.64328">
        <ele>1067</ele>
        <time>2014-06-28T09:49:05.000Z</time>
      </trkpt>
      <trkpt lat="45.16614" lon="5.64328">
        <ele>1067</ele>
        <time>2014-06-28T09:49:06.000Z</time>
      </trkpt>
      <trkpt lat="45.16614" lon="5.64328">
        <ele>1067</ele>
        <time>2014-06-28T09:49:07.000Z</time>
      </trkpt>
      <trkpt lat="45.16614" lon="5.64328">
        <ele>1067</ele>
        <time>2014-06-28T09:49:08.000Z</time>
      </trkpt>
      <trkpt lat="45.16615" lon="5.64328">
        <ele>1067</ele>
        <time>2014-06-28T09:49:09.000Z</time>
      </trkpt>
      <trkpt lat="45.16615" lon="5.64328">
        <ele>1067</ele>
        <time>2014-06-28T09:49:10.000Z</time>
      </trkpt>
      <trkpt lat="45.16615" lon="5.64328">
        <ele>1067</ele>
        <time>2014-06-28T09:49:11.000Z</time>
      </trkpt>
      <trkpt lat="45.16615" lon="5.64328">
        <ele>1067</ele>
        <time>2014-06-28T09:49:12.000Z</time>
      </trkpt>
      <trkpt lat="45.16615" lon="5.64328">
        <ele>1067</ele>
        <time>2014-06-28T09:49:13.000Z</time>
      </trkpt>
      <trkpt lat="45.16615" lon="5.64328">
        <ele>1067</ele>
        <time>2014-06-28T09:49:14.000Z</time>
      </trkpt>
      <trkpt lat="45.16615" lon="5.64328">
        <ele>1067</ele>
        <time>2014-06-28T09:49:15.000Z</time>
      </trkpt>
      <trkpt lat="45.16615" lon="5.64328">
        <ele>1067</ele>
        <time>2014-06-28T09:49:16.000Z</time>
      </trkpt>
      <trkpt lat="45.16615" lon="5.64328">
        <ele>1067</ele>
        <time>2014-06-28T09:49:17.000Z</time>
      </trkpt>
      <trkpt lat="45.16615" lon="5.64328">
        <ele>1067</ele>
        <time>2014-06-28T09:49:18.000Z</time>
      </trkpt>
      <trkpt lat="45.16615" lon="5.64328">
        <ele>1068</ele>
        <time>2014-06-28T09:49:19.000Z</time>
      </trkpt>
      <trkpt lat="45.16615" lon="5.64328">
        <ele>1068</ele>
        <time>2014-06-28T09:49:20.000Z</time>
      </trkpt>
      <trkpt lat="45.16615" lon="5.64328">
        <ele>1068</ele>
        <time>2014-06-28T09:49:21.000Z</time>
      </trkpt>
      <trkpt lat="45.16615" lon="5.64328">
        <ele>1068</ele>
        <time>2014-06-28T09:49:22.000Z</time>
      </trkpt>
      <trkpt lat="45.16615" lon="5.64328">
        <ele>1068</ele>
        <time>2014-06-28T09:49:23.000Z</time>
      </trkpt>
      <trkpt lat="45.16615" lon="5.64328">
        <ele>1068</ele>
        <time>2014-06-28T09:49:24.000Z</time>
      </trkpt>
      <trkpt lat="45.16615" lon="5.64328">
        <ele>1068</ele>
        <time>2014-06-28T09:49:25.000Z</time>
      </trkpt>
      <trkpt lat="45.16615" lon="5.64328">
        <ele>1068</ele>
        <time>2014-06-28T09:49:26.000Z</time>
      </trkpt>
      <trkpt lat="45.16615" lon="5.64328">
        <ele>1068</ele>
        <time>2014-06-28T09:49:27.000Z</time>
      </trkpt>
      <trkpt lat="45.16615" lon="5.64328">
        <ele>1068</ele>
        <time>2014-06-28T09:49:28.000Z</time>
      </trkpt>
      <trkpt lat="45.16615" lon="5.64328">
        <ele>1068</ele>
        <time>2014-06-28T09:49:29.000Z</time>
      </trkpt>
      <trkpt lat="45.16615" lon="5.64328">
        <ele>1068</ele>
        <time>2014-06-28T09:49:30.000Z</time>
      </trkpt>
      <trkpt lat="45.16615" lon="5.64328">
        <ele>1068</ele>
        <time>2014-06-28T09:49:31.000Z</time>
      </trkpt>
      <trkpt lat="45.16615" lon="5.64328">
        <ele>1068</ele>
        <time>2014-06-28T09:49:32.000Z</time>
      </trkpt>
      <trkpt lat="45.16615" lon="5.64328">
        <ele>1068</ele>
        <time>2014-06-28T09:49:33.000Z</time>
      </trkpt>
      <trkpt lat="45.16615" lon="5.64328">
        <ele>1068</ele>
        <time>2014-06-28T09:49:34.000Z</time>
      </trkpt>
      <trkpt lat="45.16615" lon="5.64328">
        <ele>1068</ele>
        <time>2014-06-28T09:49:35.000Z</time>
      </trkpt>
      <trkpt lat="45.16615" lon="5.64328">
        <ele>1068</ele>
        <time>2014-06-28T09:49:36.000Z</time>
      </trkpt>
      <trkpt lat="45.16615" lon="5.64328">
        <ele>1068</ele>
        <time>2014-06-28T09:49:37.000Z</time>
      </trkpt>
      <trkpt lat="45.16615" lon="5.64328">
        <ele>1068</ele>
        <time>2014-06-28T09:49:38.000Z</time>
      </trkpt>
      <trkpt lat="45.16616" lon="5.64328">
        <ele>1068</ele>
        <time>2014-06-28T09:49:39.000Z</time>
      </trkpt>
      <trkpt lat="45.16616" lon="5.64328">
        <ele>1068</ele>
        <time>2014-06-28T09:49:40.000Z</time>
      </trkpt>
      <trkpt lat="45.16616" lon="5.64328">
        <ele>1068</ele>
        <time>2014-06-28T09:49:41.000Z</time>
      </trkpt>
      <trkpt lat="45.16616" lon="5.64328">
        <ele>1068</ele>
        <time>2014-06-28T09:49:42.000Z</time>
      </trkpt>
      <trkpt lat="45.16616" lon="5.64328">
        <ele>1068</ele>
        <time>2014-06-28T09:49:43.000Z</time>
      </trkpt>
      <trkpt lat="45.16617" lon="5.64328">
        <ele>1067</ele>
        <time>2014-06-28T09:49:44.000Z</time>
      </trkpt>
      <trkpt lat="45.16618" lon="5.64329">
        <ele>1067</ele>
        <time>2014-06-28T09:49:45.000Z</time>
      </trkpt>
      <trkpt lat="45.16618" lon="5.64329">
        <ele>1067</ele>
        <time>2014-06-28T09:49:46.000Z</time>
      </trkpt>
      <trkpt lat="45.16619" lon="5.64329">
        <ele>1067</ele>
        <time>2014-06-28T09:49:47.000Z</time>
      </trkpt>
      <trkpt lat="45.16619" lon="5.64329">
        <ele>1067</ele>
        <time>2014-06-28T09:49:48.000Z</time>
      </trkpt>
      <trkpt lat="45.16619" lon="5.64329">
        <ele>1067</ele>
        <time>2014-06-28T09:49:49.000Z</time>
      </trkpt>
      <trkpt lat="45.16619" lon="5.64329">
        <ele>1067</ele>
        <time>2014-06-28T09:49:50.000Z</time>
      </trkpt>
      <trkpt lat="45.16619" lon="5.64329">
        <ele>1067</ele>
        <time>2014-06-28T09:49:51.000Z</time>
      </trkpt>
      <trkpt lat="45.16619" lon="5.64328">
        <ele>1067</ele>
        <time>2014-06-28T09:49:52.000Z</time>
      </trkpt>
      <trkpt lat="45.16619" lon="5.64328">
        <ele>1067</ele>
        <time>2014-06-28T09:49:53.000Z</time>
      </trkpt>
      <trkpt lat="45.16619" lon="5.64328">
        <ele>1067</ele>
        <time>2014-06-28T09:49:54.000Z</time>
      </trkpt>
      <trkpt lat="45.16619" lon="5.64328">
        <ele>1067</ele>
        <time>2014-06-28T09:49:55.000Z</time>
      </trkpt>
      <trkpt lat="45.16619" lon="5.64328">
        <ele>1067</ele>
        <time>2014-06-28T09:49:56.000Z</time>
      </trkpt>
      <trkpt lat="45.16619" lon="5.64328">
        <ele>1066</ele>
        <time>2014-06-28T09:49:57.000Z</time>
      </trkpt>
      <trkpt lat="45.16619" lon="5.64328">
        <ele>1066</ele>
        <time>2014-06-28T09:49:58.000Z</time>
      </trkpt>
      <trkpt lat="45.16619" lon="5.64328">
        <ele>1066</ele>
        <time>2014-06-28T09:49:59.000Z</time>
      </trkpt>
      <trkpt lat="45.16619" lon="5.64328">
        <ele>1066</ele>
        <time>2014-06-28T09:50:00.000Z</time>
      </trkpt>
      <trkpt lat="45.16619" lon="5.64328">
        <ele>1066</ele>
        <time>2014-06-28T09:50:01.000Z</time>
      </trkpt>
      <trkpt lat="45.16619" lon="5.64328">
        <ele>1066</ele>
        <time>2014-06-28T09:50:02.000Z</time>
      </trkpt>
      <trkpt lat="45.16619" lon="5.64328">
        <ele>1066</ele>
        <time>2014-06-28T09:50:03.000Z</time>
      </trkpt>
      <trkpt lat="45.16619" lon="5.64328">
        <ele>1066</ele>
        <time>2014-06-28T09:50:04.000Z</time>
      </trkpt>
      <trkpt lat="45.16619" lon="5.64328">
        <ele>1066</ele>
        <time>2014-06-28T09:50:05.000Z</time>
      </trkpt>
      <trkpt lat="45.16619" lon="5.64328">
        <ele>1066</ele>
        <time>2014-06-28T09:50:06.000Z</time>
      </trkpt>
      <trkpt lat="45.16619" lon="5.64327">
        <ele>1066</ele>
        <time>2014-06-28T09:50:07.000Z</time>
      </trkpt>
      <trkpt lat="45.16619" lon="5.64327">
        <ele>1066</ele>
        <time>2014-06-28T09:50:08.000Z</time>
      </trkpt>
      <trkpt lat="45.16619" lon="5.64327">
        <ele>1066</ele>
        <time>2014-06-28T09:50:09.000Z</time>
      </trkpt>
      <trkpt lat="45.16619" lon="5.64327">
        <ele>1066</ele>
        <time>2014-06-28T09:50:10.000Z</time>
      </trkpt>
      <trkpt lat="45.16619" lon="5.64327">
        <ele>1066</ele>
        <time>2014-06-28T09:50:11.000Z</time>
      </trkpt>
      <trkpt lat="45.16619" lon="5.64327">
        <ele>1066</ele>
        <time>2014-06-28T09:50:12.000Z</time>
      </trkpt>
      <trkpt lat="45.1662" lon="5.64327">
        <ele>1066</ele>
        <time>2014-06-28T09:50:13.000Z</time>
      </trkpt>
      <trkpt lat="45.1662" lon="5.64327">
        <ele>1066</ele>
        <time>2014-06-28T09:50:14.000Z</time>
      </trkpt>
      <trkpt lat="45.16619" lon="5.64327">
        <ele>1066</ele>
        <time>2014-06-28T09:50:15.000Z</time>
      </trkpt>
      <trkpt lat="45.16619" lon="5.64328">
        <ele>1066</ele>
        <time>2014-06-28T09:50:16.000Z</time>
      </trkpt>
      <trkpt lat="45.16619" lon="5.64328">
        <ele>1065</ele>
        <time>2014-06-28T09:50:17.000Z</time>
      </trkpt>
      <trkpt lat="45.16619" lon="5.64328">
        <ele>1065</ele>
        <time>2014-06-28T09:50:18.000Z</time>
      </trkpt>
      <trkpt lat="45.16619" lon="5.64327">
        <ele>1065</ele>
        <time>2014-06-28T09:50:19.000Z</time>
      </trkpt>
      <trkpt lat="45.16619" lon="5.64327">
        <ele>1065</ele>
        <time>2014-06-28T09:50:20.000Z</time>
      </trkpt>
      <trkpt lat="45.16619" lon="5.64327">
        <ele>1065</ele>
        <time>2014-06-28T09:50:21.000Z</time>
      </trkpt>
      <trkpt lat="45.16619" lon="5.64327">
        <ele>1065</ele>
        <time>2014-06-28T09:50:22.000Z</time>
      </trkpt>
      <trkpt lat="45.16619" lon="5.64327">
        <ele>1065</ele>
        <time>2014-06-28T09:50:23.000Z</time>
      </trkpt>
      <trkpt lat="45.1662" lon="5.64327">
        <ele>1065</ele>
        <time>2014-06-28T09:50:24.000Z</time>
      </trkpt>
      <trkpt lat="45.1662" lon="5.64327">
        <ele>1065</ele>
        <time>2014-06-28T09:50:25.000Z</time>
      </trkpt>
      <trkpt lat="45.1662" lon="5.64328">
        <ele>1065</ele>
        <time>2014-06-28T09:50:26.000Z</time>
      </trkpt>
      <trkpt lat="45.1662" lon="5.64328">
        <ele>1065</ele>
        <time>2014-06-28T09:50:27.000Z</time>
      </trkpt>
      <trkpt lat="45.1662" lon="5.6433">
        <ele>1065</ele>
        <time>2014-06-28T09:50:28.000Z</time>
      </trkpt>
      <trkpt lat="45.1662" lon="5.64331">
        <ele>1065</ele>
        <time>2014-06-28T09:50:29.000Z</time>
      </trkpt>
      <trkpt lat="45.16619" lon="5.64332">
        <ele>1065</ele>
        <time>2014-06-28T09:50:30.000Z</time>
      </trkpt>
      <trkpt lat="45.16619" lon="5.64334">
        <ele>1065</ele>
        <time>2014-06-28T09:50:31.000Z</time>
      </trkpt>
      <trkpt lat="45.16619" lon="5.64336">
        <ele>1064</ele>
        <time>2014-06-28T09:50:32.000Z</time>
      </trkpt>
      <trkpt lat="45.16619" lon="5.64338">
        <ele>1064</ele>
        <time>2014-06-28T09:50:33.000Z</time>
      </trkpt>
      <trkpt lat="45.16619" lon="5.6434">
        <ele>1064</ele>
        <time>2014-06-28T09:50:34.000Z</time>
      </trkpt>
      <trkpt lat="45.16619" lon="5.64342">
        <ele>1064</ele>
        <time>2014-06-28T09:50:35.000Z</time>
      </trkpt>
      <trkpt lat="45.16619" lon="5.64344">
        <ele>1064</ele>
        <time>2014-06-28T09:50:36.000Z</time>
      </trkpt>
      <trkpt lat="45.1662" lon="5.64346">
        <ele>1064</ele>
        <time>2014-06-28T09:50:37.000Z</time>
      </trkpt>
      <trkpt lat="45.1662" lon="5.64348">
        <ele>1064</ele>
        <time>2014-06-28T09:50:38.000Z</time>
      </trkpt>
      <trkpt lat="45.16621" lon="5.6435">
        <ele>1064</ele>
        <time>2014-06-28T09:50:39.000Z</time>
      </trkpt>
      <trkpt lat="45.16621" lon="5.64352">
        <ele>1064</ele>
        <time>2014-06-28T09:50:40.000Z</time>
      </trkpt>
      <trkpt lat="45.16621" lon="5.64353">
        <ele>1063</ele>
        <time>2014-06-28T09:50:41.000Z</time>
      </trkpt>
      <trkpt lat="45.16622" lon="5.64355">
        <ele>1063</ele>
        <time>2014-06-28T09:50:42.000Z</time>
      </trkpt>
      <trkpt lat="45.16622" lon="5.64356">
        <ele>1063</ele>
        <time>2014-06-28T09:50:43.000Z</time>
      </trkpt>
      <trkpt lat="45.16622" lon="5.64357">
        <ele>1063</ele>
        <time>2014-06-28T09:50:44.000Z</time>
      </trkpt>
      <trkpt lat="45.16622" lon="5.64358">
        <ele>1063</ele>
        <time>2014-06-28T09:50:45.000Z</time>
      </trkpt>
      <trkpt lat="45.16622" lon="5.64358">
        <ele>1063</ele>
        <time>2014-06-28T09:50:46.000Z</time>
      </trkpt>
      <trkpt lat="45.16622" lon="5.64359">
        <ele>1063</ele>
        <time>2014-06-28T09:50:47.000Z</time>
      </trkpt>
      <trkpt lat="45.16622" lon="5.64359">
        <ele>1062</ele>
        <time>2014-06-28T09:50:48.000Z</time>
      </trkpt>
      <trkpt lat="45.16623" lon="5.6436">
        <ele>1062</ele>
        <time>2014-06-28T09:50:49.000Z</time>
      </trkpt>
      <trkpt lat="45.16623" lon="5.6436">
        <ele>1062</ele>
        <time>2014-06-28T09:50:50.000Z</time>
      </trkpt>
      <trkpt lat="45.16623" lon="5.6436">
        <ele>1062</ele>
        <time>2014-06-28T09:50:51.000Z</time>
      </trkpt>
      <trkpt lat="45.16623" lon="5.6436">
        <ele>1062</ele>
        <time>2014-06-28T09:50:52.000Z</time>
      </trkpt>
      <trkpt lat="45.16623" lon="5.64361">
        <ele>1062</ele>
        <time>2014-06-28T09:50:53.000Z</time>
      </trkpt>
      <trkpt lat="45.16623" lon="5.64361">
        <ele>1062</ele>
        <time>2014-06-28T09:50:54.000Z</time>
      </trkpt>
      <trkpt lat="45.16623" lon="5.64362">
        <ele>1062</ele>
        <time>2014-06-28T09:50:55.000Z</time>
      </trkpt>
      <trkpt lat="45.16624" lon="5.64362">
        <ele>1062</ele>
        <time>2014-06-28T09:50:56.000Z</time>
      </trkpt>
      <trkpt lat="45.16624" lon="5.64362">
        <ele>1062</ele>
        <time>2014-06-28T09:50:57.000Z</time>
      </trkpt>
      <trkpt lat="45.16624" lon="5.64362">
        <ele>1062</ele>
        <time>2014-06-28T09:50:58.000Z</time>
      </trkpt>
      <trkpt lat="45.16624" lon="5.64363">
        <ele>1061</ele>
        <time>2014-06-28T09:50:59.000Z</time>
      </trkpt>
      <trkpt lat="45.16624" lon="5.64363">
        <ele>1061</ele>
        <time>2014-06-28T09:51:00.000Z</time>
      </trkpt>
      <trkpt lat="45.16624" lon="5.64363">
        <ele>1061</ele>
        <time>2014-06-28T09:51:01.000Z</time>
      </trkpt>
      <trkpt lat="45.16624" lon="5.64363">
        <ele>1061</ele>
        <time>2014-06-28T09:51:02.000Z</time>
      </trkpt>
      <trkpt lat="45.16624" lon="5.64364">
        <ele>1061</ele>
        <time>2014-06-28T09:51:03.000Z</time>
      </trkpt>
      <trkpt lat="45.16624" lon="5.64364">
        <ele>1061</ele>
        <time>2014-06-28T09:51:04.000Z</time>
      </trkpt>
      <trkpt lat="45.16624" lon="5.64364">
        <ele>1061</ele>
        <time>2014-06-28T09:51:05.000Z</time>
      </trkpt>
      <trkpt lat="45.16624" lon="5.64364">
        <ele>1061</ele>
        <time>2014-06-28T09:51:06.000Z</time>
      </trkpt>
      <trkpt lat="45.16624" lon="5.64363">
        <ele>1061</ele>
        <time>2014-06-28T09:51:07.000Z</time>
      </trkpt>
      <trkpt lat="45.16625" lon="5.64363">
        <ele>1061</ele>
        <time>2014-06-28T09:51:08.000Z</time>
      </trkpt>
      <trkpt lat="45.16625" lon="5.64363">
        <ele>1061</ele>
        <time>2014-06-28T09:51:09.000Z</time>
      </trkpt>
      <trkpt lat="45.16625" lon="5.64363">
        <ele>1061</ele>
        <time>2014-06-28T09:51:10.000Z</time>
      </trkpt>
      <trkpt lat="45.16625" lon="5.64363">
        <ele>1060</ele>
        <time>2014-06-28T09:51:11.000Z</time>
      </trkpt>
      <trkpt lat="45.16625" lon="5.64363">
        <ele>1060</ele>
        <time>2014-06-28T09:51:12.000Z</time>
      </trkpt>
      <trkpt lat="45.16625" lon="5.64363">
        <ele>1060</ele>
        <time>2014-06-28T09:51:13.000Z</time>
      </trkpt>
      <trkpt lat="45.16625" lon="5.64363">
        <ele>1060</ele>
        <time>2014-06-28T09:51:14.000Z</time>
      </trkpt>
      <trkpt lat="45.16625" lon="5.64363">
        <ele>1060</ele>
        <time>2014-06-28T09:51:15.000Z</time>
      </trkpt>
      <trkpt lat="45.16625" lon="5.64364">
        <ele>1060</ele>
        <time>2014-06-28T09:51:16.000Z</time>
      </trkpt>
      <trkpt lat="45.16625" lon="5.64364">
        <ele>1060</ele>
        <time>2014-06-28T09:51:17.000Z</time>
      </trkpt>
      <trkpt lat="45.16625" lon="5.64365">
        <ele>1060</ele>
        <time>2014-06-28T09:51:18.000Z</time>
      </trkpt>
      <trkpt lat="45.16625" lon="5.64366">
        <ele>1060</ele>
        <time>2014-06-28T09:51:19.000Z</time>
      </trkpt>
      <trkpt lat="45.16625" lon="5.64368">
        <ele>1060</ele>
        <time>2014-06-28T09:51:20.000Z</time>
      </trkpt>
      <trkpt lat="45.16625" lon="5.64369">
        <ele>1060</ele>
        <time>2014-06-28T09:51:21.000Z</time>
      </trkpt>
      <trkpt lat="45.16625" lon="5.64371">
        <ele>1060</ele>
        <time>2014-06-28T09:51:22.000Z</time>
      </trkpt>
      <trkpt lat="45.16624" lon="5.64372">
        <ele>1060</ele>
        <time>2014-06-28T09:51:23.000Z</time>
      </trkpt>
      <trkpt lat="45.16624" lon="5.64373">
        <ele>1060</ele>
        <time>2014-06-28T09:51:24.000Z</time>
      </trkpt>
      <trkpt lat="45.16624" lon="5.64375">
        <ele>1060</ele>
        <time>2014-06-28T09:51:25.000Z</time>
      </trkpt>
      <trkpt lat="45.16624" lon="5.64376">
        <ele>1060</ele>
        <time>2014-06-28T09:51:26.000Z</time>
      </trkpt>
      <trkpt lat="45.16624" lon="5.64378">
        <ele>1059</ele>
        <time>2014-06-28T09:51:27.000Z</time>
      </trkpt>
      <trkpt lat="45.16624" lon="5.6438">
        <ele>1059</ele>
        <time>2014-06-28T09:51:28.000Z</time>
      </trkpt>
      <trkpt lat="45.16624" lon="5.64382">
        <ele>1059</ele>
        <time>2014-06-28T09:51:29.000Z</time>
      </trkpt>
      <trkpt lat="45.16624" lon="5.64384">
        <ele>1059</ele>
        <time>2014-06-28T09:51:30.000Z</time>
      </trkpt>
      <trkpt lat="45.16624" lon="5.64386">
        <ele>1059</ele>
        <time>2014-06-28T09:51:31.000Z</time>
      </trkpt>
      <trkpt lat="45.16624" lon="5.64389">
        <ele>1059</ele>
        <time>2014-06-28T09:51:32.000Z</time>
      </trkpt>
      <trkpt lat="45.16624" lon="5.64391">
        <ele>1058</ele>
        <time>2014-06-28T09:51:33.000Z</time>
      </trkpt>
      <trkpt lat="45.16624" lon="5.64394">
        <ele>1058</ele>
        <time>2014-06-28T09:51:34.000Z</time>
      </trkpt>
      <trkpt lat="45.16625" lon="5.64397">
        <ele>1058</ele>
        <time>2014-06-28T09:51:35.000Z</time>
      </trkpt>
      <trkpt lat="45.16625" lon="5.644">
        <ele>1058</ele>
        <time>2014-06-28T09:51:36.000Z</time>
      </trkpt>
      <trkpt lat="45.16625" lon="5.64403">
        <ele>1058</ele>
        <time>2014-06-28T09:51:37.000Z</time>
      </trkpt>
      <trkpt lat="45.16626" lon="5.64406">
        <ele>1058</ele>
        <time>2014-06-28T09:51:38.000Z</time>
      </trkpt>
      <trkpt lat="45.16626" lon="5.64409">
        <ele>1058</ele>
        <time>2014-06-28T09:51:39.000Z</time>
      </trkpt>
      <trkpt lat="45.16626" lon="5.64412">
        <ele>1058</ele>
        <time>2014-06-28T09:51:40.000Z</time>
      </trkpt>
      <trkpt lat="45.16626" lon="5.64415">
        <ele>1058</ele>
        <time>2014-06-28T09:51:41.000Z</time>
      </trkpt>
      <trkpt lat="45.16626" lon="5.64417">
        <ele>1058</ele>
        <time>2014-06-28T09:51:42.000Z</time>
      </trkpt>
      <trkpt lat="45.16626" lon="5.6442">
        <ele>1057</ele>
        <time>2014-06-28T09:51:43.000Z</time>
      </trkpt>
      <trkpt lat="45.16626" lon="5.64422">
        <ele>1057</ele>
        <time>2014-06-28T09:51:44.000Z</time>
      </trkpt>
      <trkpt lat="45.16626" lon="5.64425">
        <ele>1057</ele>
        <time>2014-06-28T09:51:45.000Z</time>
      </trkpt>
      <trkpt lat="45.16625" lon="5.64428">
        <ele>1057</ele>
        <time>2014-06-28T09:51:46.000Z</time>
      </trkpt>
      <trkpt lat="45.16625" lon="5.64431">
        <ele>1057</ele>
        <time>2014-06-28T09:51:47.000Z</time>
      </trkpt>
      <trkpt lat="45.16625" lon="5.64434">
        <ele>1057</ele>
        <time>2014-06-28T09:51:48.000Z</time>
      </trkpt>
      <trkpt lat="45.16625" lon="5.64437">
        <ele>1057</ele>
        <time>2014-06-28T09:51:49.000Z</time>
      </trkpt>
      <trkpt lat="45.16625" lon="5.64439">
        <ele>1057</ele>
        <time>2014-06-28T09:51:50.000Z</time>
      </trkpt>
      <trkpt lat="45.16625" lon="5.64442">
        <ele>1056</ele>
        <time>2014-06-28T09:51:51.000Z</time>
      </trkpt>
      <trkpt lat="45.16625" lon="5.64444">
        <ele>1056</ele>
        <time>2014-06-28T09:51:52.000Z</time>
      </trkpt>
      <trkpt lat="45.16625" lon="5.64447">
        <ele>1056</ele>
        <time>2014-06-28T09:51:53.000Z</time>
      </trkpt>
      <trkpt lat="45.16625" lon="5.64449">
        <ele>1056</ele>
        <time>2014-06-28T09:51:54.000Z</time>
      </trkpt>
      <trkpt lat="45.16625" lon="5.64452">
        <ele>1056</ele>
        <time>2014-06-28T09:51:55.000Z</time>
      </trkpt>
      <trkpt lat="45.16625" lon="5.64454">
        <ele>1056</ele>
        <time>2014-06-28T09:51:56.000Z</time>
      </trkpt>
      <trkpt lat="45.16625" lon="5.64457">
        <ele>1056</ele>
        <time>2014-06-28T09:51:57.000Z</time>
      </trkpt>
      <trkpt lat="45.16625" lon="5.6446">
        <ele>1056</ele>
        <time>2014-06-28T09:51:58.000Z</time>
      </trkpt>
      <trkpt lat="45.16626" lon="5.64463">
        <ele>1055</ele>
        <time>2014-06-28T09:51:59.000Z</time>
      </trkpt>
      <trkpt lat="45.16626" lon="5.64465">
        <ele>1055</ele>
        <time>2014-06-28T09:52:00.000Z</time>
      </trkpt>
      <trkpt lat="45.16626" lon="5.64468">
        <ele>1055</ele>
        <time>2014-06-28T09:52:01.000Z</time>
      </trkpt>
      <trkpt lat="45.16626" lon="5.6447">
        <ele>1055</ele>
        <time>2014-06-28T09:52:02.000Z</time>
      </trkpt>
      <trkpt lat="45.16625" lon="5.64472">
        <ele>1056</ele>
        <time>2014-06-28T09:52:03.000Z</time>
      </trkpt>
      <trkpt lat="45.16625" lon="5.64474">
        <ele>1056</ele>
        <time>2014-06-28T09:52:04.000Z</time>
      </trkpt>
      <trkpt lat="45.16625" lon="5.64476">
        <ele>1056</ele>
        <time>2014-06-28T09:52:05.000Z</time>
      </trkpt>
      <trkpt lat="45.16625" lon="5.64479">
        <ele>1056</ele>
        <time>2014-06-28T09:52:06.000Z</time>
      </trkpt>
      <trkpt lat="45.16625" lon="5.64481">
        <ele>1056</ele>
        <time>2014-06-28T09:52:07.000Z</time>
      </trkpt>
      <trkpt lat="45.16624" lon="5.64484">
        <ele>1056</ele>
        <time>2014-06-28T09:52:08.000Z</time>
      </trkpt>
      <trkpt lat="45.16624" lon="5.64486">
        <ele>1056</ele>
        <time>2014-06-28T09:52:09.000Z</time>
      </trkpt>
      <trkpt lat="45.16623" lon="5.64489">
        <ele>1055</ele>
        <time>2014-06-28T09:52:10.000Z</time>
      </trkpt>
      <trkpt lat="45.16622" lon="5.64492">
        <ele>1055</ele>
        <time>2014-06-28T09:52:11.000Z</time>
      </trkpt>
      <trkpt lat="45.16622" lon="5.64494">
        <ele>1055</ele>
        <time>2014-06-28T09:52:12.000Z</time>
      </trkpt>
      <trkpt lat="45.1662" lon="5.64496">
        <ele>1055</ele>
        <time>2014-06-28T09:52:13.000Z</time>
      </trkpt>
      <trkpt lat="45.16619" lon="5.64499">
        <ele>1055</ele>
        <time>2014-06-28T09:52:14.000Z</time>
      </trkpt>
      <trkpt lat="45.16618" lon="5.64501">
        <ele>1055</ele>
        <time>2014-06-28T09:52:15.000Z</time>
      </trkpt>
      <trkpt lat="45.16616" lon="5.64504">
        <ele>1055</ele>
        <time>2014-06-28T09:52:16.000Z</time>
      </trkpt>
      <trkpt lat="45.16615" lon="5.64507">
        <ele>1055</ele>
        <time>2014-06-28T09:52:17.000Z</time>
      </trkpt>
      <trkpt lat="45.16613" lon="5.6451">
        <ele>1055</ele>
        <time>2014-06-28T09:52:18.000Z</time>
      </trkpt>
      <trkpt lat="45.16611" lon="5.64514">
        <ele>1055</ele>
        <time>2014-06-28T09:52:19.000Z</time>
      </trkpt>
      <trkpt lat="45.16609" lon="5.64517">
        <ele>1055</ele>
        <time>2014-06-28T09:52:20.000Z</time>
      </trkpt>
      <trkpt lat="45.16607" lon="5.64521">
        <ele>1055</ele>
        <time>2014-06-28T09:52:21.000Z</time>
      </trkpt>
      <trkpt lat="45.16605" lon="5.64524">
        <ele>1055</ele>
        <time>2014-06-28T09:52:22.000Z</time>
      </trkpt>
      <trkpt lat="45.16603" lon="5.64528">
        <ele>1055</ele>
        <time>2014-06-28T09:52:23.000Z</time>
      </trkpt>
      <trkpt lat="45.16601" lon="5.64532">
        <ele>1055</ele>
        <time>2014-06-28T09:52:24.000Z</time>
      </trkpt>
      <trkpt lat="45.16598" lon="5.64536">
        <ele>1055</ele>
        <time>2014-06-28T09:52:25.000Z</time>
      </trkpt>
      <trkpt lat="45.16596" lon="5.64539">
        <ele>1055</ele>
        <time>2014-06-28T09:52:26.000Z</time>
      </trkpt>
      <trkpt lat="45.16593" lon="5.64543">
        <ele>1055</ele>
        <time>2014-06-28T09:52:27.000Z</time>
      </trkpt>
      <trkpt lat="45.1659" lon="5.64547">
        <ele>1055</ele>
        <time>2014-06-28T09:52:28.000Z</time>
      </trkpt>
      <trkpt lat="45.16588" lon="5.64551">
        <ele>1055</ele>
        <time>2014-06-28T09:52:29.000Z</time>
      </trkpt>
      <trkpt lat="45.16585" lon="5.64554">
        <ele>1056</ele>
        <time>2014-06-28T09:52:30.000Z</time>
      </trkpt>
      <trkpt lat="45.16583" lon="5.64558">
        <ele>1056</ele>
        <time>2014-06-28T09:52:31.000Z</time>
      </trkpt>
      <trkpt lat="45.1658" lon="5.64561">
        <ele>1056</ele>
        <time>2014-06-28T09:52:32.000Z</time>
      </trkpt>
      <trkpt lat="45.16578" lon="5.64564">
        <ele>1056</ele>
        <time>2014-06-28T09:52:33.000Z</time>
      </trkpt>
      <trkpt lat="45.16576" lon="5.64568">
        <ele>1056</ele>
        <time>2014-06-28T09:52:34.000Z</time>
      </trkpt>
      <trkpt lat="45.16574" lon="5.64571">
        <ele>1056</ele>
        <time>2014-06-28T09:52:35.000Z</time>
      </trkpt>
      <trkpt lat="45.16572" lon="5.64574">
        <ele>1056</ele>
        <time>2014-06-28T09:52:36.000Z</time>
      </trkpt>
      <trkpt lat="45.1657" lon="5.64576">
        <ele>1056</ele>
        <time>2014-06-28T09:52:37.000Z</time>
      </trkpt>
      <trkpt lat="45.16569" lon="5.6458">
        <ele>1057</ele>
        <time>2014-06-28T09:52:38.000Z</time>
      </trkpt>
      <trkpt lat="45.16568" lon="5.64583">
        <ele>1057</ele>
        <time>2014-06-28T09:52:39.000Z</time>
      </trkpt>
      <trkpt lat="45.16567" lon="5.64587">
        <ele>1057</ele>
        <time>2014-06-28T09:52:40.000Z</time>
      </trkpt>
      <trkpt lat="45.16566" lon="5.6459">
        <ele>1057</ele>
        <time>2014-06-28T09:52:41.000Z</time>
      </trkpt>
      <trkpt lat="45.16566" lon="5.64594">
        <ele>1057</ele>
        <time>2014-06-28T09:52:42.000Z</time>
      </trkpt>
      <trkpt lat="45.16566" lon="5.64598">
        <ele>1057</ele>
        <time>2014-06-28T09:52:43.000Z</time>
      </trkpt>
      <trkpt lat="45.16566" lon="5.64602">
        <ele>1057</ele>
        <time>2014-06-28T09:52:44.000Z</time>
      </trkpt>
      <trkpt lat="45.16567" lon="5.64606">
        <ele>1057</ele>
        <time>2014-06-28T09:52:45.000Z</time>
      </trkpt>
      <trkpt lat="45.16567" lon="5.64611">
        <ele>1057</ele>
        <time>2014-06-28T09:52:46.000Z</time>
      </trkpt>
      <trkpt lat="45.16569" lon="5.64615">
        <ele>1057</ele>
        <time>2014-06-28T09:52:47.000Z</time>
      </trkpt>
      <trkpt lat="45.1657" lon="5.6462">
        <ele>1057</ele>
        <time>2014-06-28T09:52:48.000Z</time>
      </trkpt>
      <trkpt lat="45.16571" lon="5.64625">
        <ele>1057</ele>
        <time>2014-06-28T09:52:49.000Z</time>
      </trkpt>
      <trkpt lat="45.16572" lon="5.6463">
        <ele>1057</ele>
        <time>2014-06-28T09:52:50.000Z</time>
      </trkpt>
      <trkpt lat="45.16574" lon="5.64636">
        <ele>1057</ele>
        <time>2014-06-28T09:52:51.000Z</time>
      </trkpt>
      <trkpt lat="45.16575" lon="5.64642">
        <ele>1057</ele>
        <time>2014-06-28T09:52:52.000Z</time>
      </trkpt>
      <trkpt lat="45.16577" lon="5.64648">
        <ele>1057</ele>
        <time>2014-06-28T09:52:53.000Z</time>
      </trkpt>
      <trkpt lat="45.16578" lon="5.64654">
        <ele>1057</ele>
        <time>2014-06-28T09:52:54.000Z</time>
      </trkpt>
      <trkpt lat="45.1658" lon="5.64659">
        <ele>1057</ele>
        <time>2014-06-28T09:52:55.000Z</time>
      </trkpt>
      <trkpt lat="45.16582" lon="5.64664">
        <ele>1057</ele>
        <time>2014-06-28T09:52:56.000Z</time>
      </trkpt>
      <trkpt lat="45.16583" lon="5.64669">
        <ele>1057</ele>
        <time>2014-06-28T09:52:57.000Z</time>
      </trkpt>
      <trkpt lat="45.16584" lon="5.64673">
        <ele>1057</ele>
        <time>2014-06-28T09:52:58.000Z</time>
      </trkpt>
      <trkpt lat="45.16586" lon="5.64678">
        <ele>1057</ele>
        <time>2014-06-28T09:52:59.000Z</time>
      </trkpt>
      <trkpt lat="45.16587" lon="5.64682">
        <ele>1057</ele>
        <time>2014-06-28T09:53:00.000Z</time>
      </trkpt>
      <trkpt lat="45.16588" lon="5.64685">
        <ele>1057</ele>
        <time>2014-06-28T09:53:01.000Z</time>
      </trkpt>
      <trkpt lat="45.16589" lon="5.64689">
        <ele>1057</ele>
        <time>2014-06-28T09:53:02.000Z</time>
      </trkpt>
      <trkpt lat="45.1659" lon="5.64692">
        <ele>1056</ele>
        <time>2014-06-28T09:53:03.000Z</time>
      </trkpt>
      <trkpt lat="45.16591" lon="5.64696">
        <ele>1056</ele>
        <time>2014-06-28T09:53:04.000Z</time>
      </trkpt>
      <trkpt lat="45.16593" lon="5.647">
        <ele>1056</ele>
        <time>2014-06-28T09:53:05.000Z</time>
      </trkpt>
      <trkpt lat="45.16593" lon="5.64704">
        <ele>1056</ele>
        <time>2014-06-28T09:53:06.000Z</time>
      </trkpt>
      <trkpt lat="45.16595" lon="5.64707">
        <ele>1056</ele>
        <time>2014-06-28T09:53:07.000Z</time>
      </trkpt>
      <trkpt lat="45.16596" lon="5.64711">
        <ele>1056</ele>
        <time>2014-06-28T09:53:08.000Z</time>
      </trkpt>
      <trkpt lat="45.16597" lon="5.64714">
        <ele>1056</ele>
        <time>2014-06-28T09:53:09.000Z</time>
      </trkpt>
      <trkpt lat="45.16598" lon="5.64717">
        <ele>1056</ele>
        <time>2014-06-28T09:53:10.000Z</time>
      </trkpt>
      <trkpt lat="45.16599" lon="5.6472">
        <ele>1056</ele>
        <time>2014-06-28T09:53:11.000Z</time>
      </trkpt>
      <trkpt lat="45.166" lon="5.64723">
        <ele>1055</ele>
        <time>2014-06-28T09:53:12.000Z</time>
      </trkpt>
      <trkpt lat="45.16601" lon="5.64727">
        <ele>1055</ele>
        <time>2014-06-28T09:53:13.000Z</time>
      </trkpt>
      <trkpt lat="45.16602" lon="5.6473">
        <ele>1055</ele>
        <time>2014-06-28T09:53:14.000Z</time>
      </trkpt>
      <trkpt lat="45.16603" lon="5.64734">
        <ele>1055</ele>
        <time>2014-06-28T09:53:15.000Z</time>
      </trkpt>
      <trkpt lat="45.16604" lon="5.64737">
        <ele>1055</ele>
        <time>2014-06-28T09:53:16.000Z</time>
      </trkpt>
      <trkpt lat="45.16605" lon="5.64739">
        <ele>1054</ele>
        <time>2014-06-28T09:53:17.000Z</time>
      </trkpt>
      <trkpt lat="45.16606" lon="5.64742">
        <ele>1054</ele>
        <time>2014-06-28T09:53:18.000Z</time>
      </trkpt>
      <trkpt lat="45.16607" lon="5.64744">
        <ele>1054</ele>
        <time>2014-06-28T09:53:19.000Z</time>
      </trkpt>
      <trkpt lat="45.16608" lon="5.64745">
        <ele>1054</ele>
        <time>2014-06-28T09:53:20.000Z</time>
      </trkpt>
      <trkpt lat="45.16609" lon="5.64747">
        <ele>1054</ele>
        <time>2014-06-28T09:53:21.000Z</time>
      </trkpt>
      <trkpt lat="45.16609" lon="5.64747">
        <ele>1053</ele>
        <time>2014-06-28T09:53:22.000Z</time>
      </trkpt>
      <trkpt lat="45.1661" lon="5.64748">
        <ele>1053</ele>
        <time>2014-06-28T09:53:23.000Z</time>
      </trkpt>
      <trkpt lat="45.1661" lon="5.64749">
        <ele>1053</ele>
        <time>2014-06-28T09:53:24.000Z</time>
      </trkpt>
      <trkpt lat="45.1661" lon="5.64749">
        <ele>1053</ele>
        <time>2014-06-28T09:53:25.000Z</time>
      </trkpt>
      <trkpt lat="45.16611" lon="5.64749">
        <ele>1053</ele>
        <time>2014-06-28T09:53:26.000Z</time>
      </trkpt>
      <trkpt lat="45.16611" lon="5.64749">
        <ele>1052</ele>
        <time>2014-06-28T09:53:27.000Z</time>
      </trkpt>
      <trkpt lat="45.16611" lon="5.64749">
        <ele>1052</ele>
        <time>2014-06-28T09:53:28.000Z</time>
      </trkpt>
      <trkpt lat="45.16611" lon="5.64749">
        <ele>1052</ele>
        <time>2014-06-28T09:53:29.000Z</time>
      </trkpt>
      <trkpt lat="45.16612" lon="5.64749">
        <ele>1052</ele>
        <time>2014-06-28T09:53:30.000Z</time>
      </trkpt>
      <trkpt lat="45.16612" lon="5.64749">
        <ele>1052</ele>
        <time>2014-06-28T09:53:31.000Z</time>
      </trkpt>
      <trkpt lat="45.16612" lon="5.64749">
        <ele>1052</ele>
        <time>2014-06-28T09:53:32.000Z</time>
      </trkpt>
      <trkpt lat="45.16612" lon="5.64749">
        <ele>1052</ele>
        <time>2014-06-28T09:53:33.000Z</time>
      </trkpt>
      <trkpt lat="45.16612" lon="5.64749">
        <ele>1051</ele>
        <time>2014-06-28T09:53:34.000Z</time>
      </trkpt>
      <trkpt lat="45.16613" lon="5.64749">
        <ele>1051</ele>
        <time>2014-06-28T09:53:35.000Z</time>
      </trkpt>
      <trkpt lat="45.16613" lon="5.64748">
        <ele>1051</ele>
        <time>2014-06-28T09:53:36.000Z</time>
      </trkpt>
      <trkpt lat="45.16613" lon="5.64748">
        <ele>1051</ele>
        <time>2014-06-28T09:53:37.000Z</time>
      </trkpt>
      <trkpt lat="45.16613" lon="5.64748">
        <ele>1051</ele>
        <time>2014-06-28T09:53:38.000Z</time>
      </trkpt>
      <trkpt lat="45.16613" lon="5.64748">
        <ele>1051</ele>
        <time>2014-06-28T09:53:39.000Z</time>
      </trkpt>
      <trkpt lat="45.16613" lon="5.64748">
        <ele>1051</ele>
        <time>2014-06-28T09:53:40.000Z</time>
      </trkpt>
      <trkpt lat="45.16614" lon="5.64748">
        <ele>1051</ele>
        <time>2014-06-28T09:53:41.000Z</time>
      </trkpt>
      <trkpt lat="45.16614" lon="5.64747">
        <ele>1051</ele>
        <time>2014-06-28T09:53:42.000Z</time>
      </trkpt>
      <trkpt lat="45.16614" lon="5.64747">
        <ele>1051</ele>
        <time>2014-06-28T09:53:43.000Z</time>
      </trkpt>
      <trkpt lat="45.16614" lon="5.64747">
        <ele>1051</ele>
        <time>2014-06-28T09:53:44.000Z</time>
      </trkpt>
      <trkpt lat="45.16614" lon="5.64747">
        <ele>1051</ele>
        <time>2014-06-28T09:53:45.000Z</time>
      </trkpt>
      <trkpt lat="45.16614" lon="5.64747">
        <ele>1051</ele>
        <time>2014-06-28T09:53:46.000Z</time>
      </trkpt>
      <trkpt lat="45.16614" lon="5.64747">
        <ele>1051</ele>
        <time>2014-06-28T09:53:47.000Z</time>
      </trkpt>
      <trkpt lat="45.16614" lon="5.64747">
        <ele>1051</ele>
        <time>2014-06-28T09:53:48.000Z</time>
      </trkpt>
      <trkpt lat="45.16614" lon="5.64747">
        <ele>1051</ele>
        <time>2014-06-28T09:53:49.000Z</time>
      </trkpt>
      <trkpt lat="45.16614" lon="5.64746">
        <ele>1050</ele>
        <time>2014-06-28T09:53:50.000Z</time>
      </trkpt>
      <trkpt lat="45.16615" lon="5.64746">
        <ele>1050</ele>
        <time>2014-06-28T09:53:51.000Z</time>
      </trkpt>
      <trkpt lat="45.16615" lon="5.64746">
        <ele>1050</ele>
        <time>2014-06-28T09:53:52.000Z</time>
      </trkpt>
      <trkpt lat="45.16615" lon="5.64746">
        <ele>1050</ele>
        <time>2014-06-28T09:53:53.000Z</time>
      </trkpt>
      <trkpt lat="45.16614" lon="5.64746">
        <ele>1050</ele>
        <time>2014-06-28T09:53:54.000Z</time>
      </trkpt>
      <trkpt lat="45.16614" lon="5.64745">
        <ele>1050</ele>
        <time>2014-06-28T09:53:55.000Z</time>
      </trkpt>
      <trkpt lat="45.16613" lon="5.64744">
        <ele>1050</ele>
        <time>2014-06-28T09:53:56.000Z</time>
      </trkpt>
      <trkpt lat="45.16613" lon="5.64742">
        <ele>1050</ele>
        <time>2014-06-28T09:53:57.000Z</time>
      </trkpt>
      <trkpt lat="45.16612" lon="5.6474">
        <ele>1050</ele>
        <time>2014-06-28T09:53:58.000Z</time>
      </trkpt>
      <trkpt lat="45.16611" lon="5.64738">
        <ele>1050</ele>
        <time>2014-06-28T09:53:59.000Z</time>
      </trkpt>
      <trkpt lat="45.16611" lon="5.64736">
        <ele>1049</ele>
        <time>2014-06-28T09:54:00.000Z</time>
      </trkpt>
      <trkpt lat="45.16611" lon="5.64734">
        <ele>1049</ele>
        <time>2014-06-28T09:54:01.000Z</time>
      </trkpt>
      <trkpt lat="45.1661" lon="5.64731">
        <ele>1049</ele>
        <time>2014-06-28T09:54:02.000Z</time>
      </trkpt>
      <trkpt lat="45.16609" lon="5.64729">
        <ele>1049</ele>
        <time>2014-06-28T09:54:03.000Z</time>
      </trkpt>
      <trkpt lat="45.16609" lon="5.64726">
        <ele>1049</ele>
        <time>2014-06-28T09:54:04.000Z</time>
      </trkpt>
      <trkpt lat="45.16608" lon="5.64723">
        <ele>1048</ele>
        <time>2014-06-28T09:54:05.000Z</time>
      </trkpt>
      <trkpt lat="45.16607" lon="5.64721">
        <ele>1048</ele>
        <time>2014-06-28T09:54:06.000Z</time>
      </trkpt>
      <trkpt lat="45.16606" lon="5.64719">
        <ele>1048</ele>
        <time>2014-06-28T09:54:07.000Z</time>
      </trkpt>
      <trkpt lat="45.16606" lon="5.64717">
        <ele>1048</ele>
        <time>2014-06-28T09:54:08.000Z</time>
      </trkpt>
      <trkpt lat="45.16606" lon="5.64714">
        <ele>1048</ele>
        <time>2014-06-28T09:54:09.000Z</time>
      </trkpt>
      <trkpt lat="45.16605" lon="5.64712">
        <ele>1048</ele>
        <time>2014-06-28T09:54:10.000Z</time>
      </trkpt>
      <trkpt lat="45.16605" lon="5.6471">
        <ele>1048</ele>
        <time>2014-06-28T09:54:11.000Z</time>
      </trkpt>
      <trkpt lat="45.16605" lon="5.64708">
        <ele>1048</ele>
        <time>2014-06-28T09:54:12.000Z</time>
      </trkpt>
      <trkpt lat="45.16604" lon="5.64705">
        <ele>1048</ele>
        <time>2014-06-28T09:54:13.000Z</time>
      </trkpt>
      <trkpt lat="45.16604" lon="5.64703">
        <ele>1048</ele>
        <time>2014-06-28T09:54:14.000Z</time>
      </trkpt>
      <trkpt lat="45.16603" lon="5.647">
        <ele>1048</ele>
        <time>2014-06-28T09:54:15.000Z</time>
      </trkpt>
      <trkpt lat="45.16602" lon="5.64698">
        <ele>1048</ele>
        <time>2014-06-28T09:54:16.000Z</time>
      </trkpt>
      <trkpt lat="45.16601" lon="5.64695">
        <ele>1048</ele>
        <time>2014-06-28T09:54:17.000Z</time>
      </trkpt>
      <trkpt lat="45.166" lon="5.64692">
        <ele>1048</ele>
        <time>2014-06-28T09:54:18.000Z</time>
      </trkpt>
      <trkpt lat="45.16599" lon="5.6469">
        <ele>1049</ele>
        <time>2014-06-28T09:54:19.000Z</time>
      </trkpt>
      <trkpt lat="45.16597" lon="5.64687">
        <ele>1049</ele>
        <time>2014-06-28T09:54:20.000Z</time>
      </trkpt>
      <trkpt lat="45.16596" lon="5.64684">
        <ele>1049</ele>
        <time>2014-06-28T09:54:21.000Z</time>
      </trkpt>
      <trkpt lat="45.16595" lon="5.64681">
        <ele>1049</ele>
        <time>2014-06-28T09:54:22.000Z</time>
      </trkpt>
      <trkpt lat="45.16594" lon="5.64678">
        <ele>1049</ele>
        <time>2014-06-28T09:54:23.000Z</time>
      </trkpt>
      <trkpt lat="45.16593" lon="5.64675">
        <ele>1049</ele>
        <time>2014-06-28T09:54:24.000Z</time>
      </trkpt>
      <trkpt lat="45.16592" lon="5.64672">
        <ele>1049</ele>
        <time>2014-06-28T09:54:25.000Z</time>
      </trkpt>
      <trkpt lat="45.16591" lon="5.64669">
        <ele>1049</ele>
        <time>2014-06-28T09:54:26.000Z</time>
      </trkpt>
      <trkpt lat="45.1659" lon="5.64665">
        <ele>1049</ele>
        <time>2014-06-28T09:54:27.000Z</time>
      </trkpt>
      <trkpt lat="45.16589" lon="5.64662">
        <ele>1049</ele>
        <time>2014-06-28T09:54:28.000Z</time>
      </trkpt>
      <trkpt lat="45.16588" lon="5.64659">
        <ele>1049</ele>
        <time>2014-06-28T09:54:29.000Z</time>
      </trkpt>
      <trkpt lat="45.16587" lon="5.64656">
        <ele>1049</ele>
        <time>2014-06-28T09:54:30.000Z</time>
      </trkpt>
      <trkpt lat="45.16586" lon="5.64653">
        <ele>1049</ele>
        <time>2014-06-28T09:54:31.000Z</time>
      </trkpt>
      <trkpt lat="45.16585" lon="5.6465">
        <ele>1049</ele>
        <time>2014-06-28T09:54:32.000Z</time>
      </trkpt>
      <trkpt lat="45.16584" lon="5.64647">
        <ele>1050</ele>
        <time>2014-06-28T09:54:33.000Z</time>
      </trkpt>
      <trkpt lat="45.16583" lon="5.64645">
        <ele>1050</ele>
        <time>2014-06-28T09:54:34.000Z</time>
      </trkpt>
      <trkpt lat="45.16582" lon="5.64643">
        <ele>1050</ele>
        <time>2014-06-28T09:54:35.000Z</time>
      </trkpt>
      <trkpt lat="45.16581" lon="5.64641">
        <ele>1050</ele>
        <time>2014-06-28T09:54:36.000Z</time>
      </trkpt>
      <trkpt lat="45.16581" lon="5.6464">
        <ele>1050</ele>
        <time>2014-06-28T09:54:37.000Z</time>
      </trkpt>
      <trkpt lat="45.1658" lon="5.64638">
        <ele>1050</ele>
        <time>2014-06-28T09:54:38.000Z</time>
      </trkpt>
      <trkpt lat="45.16579" lon="5.64637">
        <ele>1050</ele>
        <time>2014-06-28T09:54:39.000Z</time>
      </trkpt>
      <trkpt lat="45.16578" lon="5.64636">
        <ele>1050</ele>
        <time>2014-06-28T09:54:40.000Z</time>
      </trkpt>
      <trkpt lat="45.16578" lon="5.64635">
        <ele>1050</ele>
        <time>2014-06-28T09:54:41.000Z</time>
      </trkpt>
      <trkpt lat="45.16577" lon="5.64634">
        <ele>1050</ele>
        <time>2014-06-28T09:54:42.000Z</time>
      </trkpt>
      <trkpt lat="45.16576" lon="5.64633">
        <ele>1049</ele>
        <time>2014-06-28T09:54:43.000Z</time>
      </trkpt>
      <trkpt lat="45.16575" lon="5.64632">
        <ele>1049</ele>
        <time>2014-06-28T09:54:44.000Z</time>
      </trkpt>
      <trkpt lat="45.16574" lon="5.64631">
        <ele>1049</ele>
        <time>2014-06-28T09:54:45.000Z</time>
      </trkpt>
      <trkpt lat="45.16573" lon="5.64631">
        <ele>1049</ele>
        <time>2014-06-28T09:54:46.000Z</time>
      </trkpt>
      <trkpt lat="45.16572" lon="5.64631">
        <ele>1049</ele>
        <time>2014-06-28T09:54:47.000Z</time>
      </trkpt>
      <trkpt lat="45.16571" lon="5.6463">
        <ele>1050</ele>
        <time>2014-06-28T09:54:48.000Z</time>
      </trkpt>
      <trkpt lat="45.16571" lon="5.6463">
        <ele>1050</ele>
        <time>2014-06-28T09:54:49.000Z</time>
      </trkpt>
      <trkpt lat="45.16571" lon="5.6463">
        <ele>1050</ele>
        <time>2014-06-28T09:54:50.000Z</time>
      </trkpt>
      <trkpt lat="45.1657" lon="5.64631">
        <ele>1050</ele>
        <time>2014-06-28T09:54:51.000Z</time>
      </trkpt>
      <trkpt lat="45.1657" lon="5.64631">
        <ele>1050</ele>
        <time>2014-06-28T09:54:52.000Z</time>
      </trkpt>
      <trkpt lat="45.1657" lon="5.64631">
        <ele>1050</ele>
        <time>2014-06-28T09:54:53.000Z</time>
      </trkpt>
      <trkpt lat="45.1657" lon="5.64631">
        <ele>1050</ele>
        <time>2014-06-28T09:54:54.000Z</time>
      </trkpt>
      <trkpt lat="45.1657" lon="5.64631">
        <ele>1050</ele>
        <time>2014-06-28T09:54:55.000Z</time>
      </trkpt>
      <trkpt lat="45.16569" lon="5.64631">
        <ele>1050</ele>
        <time>2014-06-28T09:54:56.000Z</time>
      </trkpt>
      <trkpt lat="45.16569" lon="5.64631">
        <ele>1050</ele>
        <time>2014-06-28T09:54:57.000Z</time>
      </trkpt>
      <trkpt lat="45.16569" lon="5.64632">
        <ele>1050</ele>
        <time>2014-06-28T09:54:58.000Z</time>
      </trkpt>
      <trkpt lat="45.16569" lon="5.64633">
        <ele>1050</ele>
        <time>2014-06-28T09:54:59.000Z</time>
      </trkpt>
      <trkpt lat="45.1657" lon="5.64634">
        <ele>1050</ele>
        <time>2014-06-28T09:55:00.000Z</time>
      </trkpt>
      <trkpt lat="45.1657" lon="5.64635">
        <ele>1050</ele>
        <time>2014-06-28T09:55:01.000Z</time>
      </trkpt>
      <trkpt lat="45.16571" lon="5.64638">
        <ele>1050</ele>
        <time>2014-06-28T09:55:02.000Z</time>
      </trkpt>
      <trkpt lat="45.16571" lon="5.6464">
        <ele>1050</ele>
        <time>2014-06-28T09:55:03.000Z</time>
      </trkpt>
      <trkpt lat="45.16572" lon="5.64643">
        <ele>1050</ele>
        <time>2014-06-28T09:55:04.000Z</time>
      </trkpt>
      <trkpt lat="45.16573" lon="5.64646">
        <ele>1050</ele>
        <time>2014-06-28T09:55:05.000Z</time>
      </trkpt>
      <trkpt lat="45.16574" lon="5.64649">
        <ele>1050</ele>
        <time>2014-06-28T09:55:06.000Z</time>
      </trkpt>
      <trkpt lat="45.16574" lon="5.64652">
        <ele>1050</ele>
        <time>2014-06-28T09:55:07.000Z</time>
      </trkpt>
      <trkpt lat="45.16575" lon="5.64655">
        <ele>1049</ele>
        <time>2014-06-28T09:55:08.000Z</time>
      </trkpt>
      <trkpt lat="45.16576" lon="5.64659">
        <ele>1049</ele>
        <time>2014-06-28T09:55:09.000Z</time>
      </trkpt>
      <trkpt lat="45.16577" lon="5.64662">
        <ele>1049</ele>
        <time>2014-06-28T09:55:10.000Z</time>
      </trkpt>
      <trkpt lat="45.16578" lon="5.64664">
        <ele>1049</ele>
        <time>2014-06-28T09:55:11.000Z</time>
      </trkpt>
      <trkpt lat="45.16579" lon="5.64667">
        <ele>1049</ele>
        <time>2014-06-28T09:55:12.000Z</time>
      </trkpt>
      <trkpt lat="45.1658" lon="5.64669">
        <ele>1049</ele>
        <time>2014-06-28T09:55:13.000Z</time>
      </trkpt>
      <trkpt lat="45.1658" lon="5.64671">
        <ele>1049</ele>
        <time>2014-06-28T09:55:14.000Z</time>
      </trkpt>
      <trkpt lat="45.16581" lon="5.64674">
        <ele>1049</ele>
        <time>2014-06-28T09:55:15.000Z</time>
      </trkpt>
      <trkpt lat="45.16582" lon="5.64677">
        <ele>1049</ele>
        <time>2014-06-28T09:55:16.000Z</time>
      </trkpt>
      <trkpt lat="45.16583" lon="5.64681">
        <ele>1049</ele>
        <time>2014-06-28T09:55:17.000Z</time>
      </trkpt>
      <trkpt lat="45.16584" lon="5.64684">
        <ele>1049</ele>
        <time>2014-06-28T09:55:18.000Z</time>
      </trkpt>
      <trkpt lat="45.16584" lon="5.64687">
        <ele>1048</ele>
        <time>2014-06-28T09:55:19.000Z</time>
      </trkpt>
      <trkpt lat="45.16584" lon="5.64691">
        <ele>1048</ele>
        <time>2014-06-28T09:55:20.000Z</time>
      </trkpt>
      <trkpt lat="45.16583" lon="5.64693">
        <ele>1048</ele>
        <time>2014-06-28T09:55:21.000Z</time>
      </trkpt>
      <trkpt lat="45.16583" lon="5.64696">
        <ele>1048</ele>
        <time>2014-06-28T09:55:22.000Z</time>
      </trkpt>
      <trkpt lat="45.16582" lon="5.64699">
        <ele>1048</ele>
        <time>2014-06-28T09:55:23.000Z</time>
      </trkpt>
      <trkpt lat="45.16582" lon="5.64701">
        <ele>1048</ele>
        <time>2014-06-28T09:55:24.000Z</time>
      </trkpt>
      <trkpt lat="45.16581" lon="5.64704">
        <ele>1048</ele>
        <time>2014-06-28T09:55:25.000Z</time>
      </trkpt>
      <trkpt lat="45.1658" lon="5.64707">
        <ele>1048</ele>
        <time>2014-06-28T09:55:26.000Z</time>
      </trkpt>
      <trkpt lat="45.1658" lon="5.6471">
        <ele>1047</ele>
        <time>2014-06-28T09:55:27.000Z</time>
      </trkpt>
      <trkpt lat="45.16579" lon="5.64713">
        <ele>1047</ele>
        <time>2014-06-28T09:55:28.000Z</time>
      </trkpt>
      <trkpt lat="45.16578" lon="5.64715">
        <ele>1047</ele>
        <time>2014-06-28T09:55:29.000Z</time>
      </trkpt>
      <trkpt lat="45.16577" lon="5.64718">
        <ele>1047</ele>
        <time>2014-06-28T09:55:30.000Z</time>
      </trkpt>
      <trkpt lat="45.16576" lon="5.64721">
        <ele>1047</ele>
        <time>2014-06-28T09:55:31.000Z</time>
      </trkpt>
      <trkpt lat="45.16575" lon="5.64724">
        <ele>1047</ele>
        <time>2014-06-28T09:55:32.000Z</time>
      </trkpt>
      <trkpt lat="45.16574" lon="5.64728">
        <ele>1046</ele>
        <time>2014-06-28T09:55:33.000Z</time>
      </trkpt>
      <trkpt lat="45.16572" lon="5.64731">
        <ele>1046</ele>
        <time>2014-06-28T09:55:34.000Z</time>
      </trkpt>
      <trkpt lat="45.16571" lon="5.64735">
        <ele>1046</ele>
        <time>2014-06-28T09:55:35.000Z</time>
      </trkpt>
      <trkpt lat="45.16569" lon="5.64738">
        <ele>1046</ele>
        <time>2014-06-28T09:55:36.000Z</time>
      </trkpt>
      <trkpt lat="45.16567" lon="5.64742">
        <ele>1046</ele>
        <time>2014-06-28T09:55:37.000Z</time>
      </trkpt>
      <trkpt lat="45.16564" lon="5.64746">
        <ele>1046</ele>
        <time>2014-06-28T09:55:38.000Z</time>
      </trkpt>
      <trkpt lat="45.16562" lon="5.64749">
        <ele>1045</ele>
        <time>2014-06-28T09:55:39.000Z</time>
      </trkpt>
      <trkpt lat="45.16559" lon="5.64753">
        <ele>1045</ele>
        <time>2014-06-28T09:55:40.000Z</time>
      </trkpt>
      <trkpt lat="45.16557" lon="5.64756">
        <ele>1045</ele>
        <time>2014-06-28T09:55:41.000Z</time>
      </trkpt>
      <trkpt lat="45.16554" lon="5.6476">
        <ele>1045</ele>
        <time>2014-06-28T09:55:42.000Z</time>
      </trkpt>
      <trkpt lat="45.16551" lon="5.64764">
        <ele>1045</ele>
        <time>2014-06-28T09:55:43.000Z</time>
      </trkpt>
      <trkpt lat="45.16549" lon="5.64768">
        <ele>1045</ele>
        <time>2014-06-28T09:55:44.000Z</time>
      </trkpt>
      <trkpt lat="45.16546" lon="5.64772">
        <ele>1045</ele>
        <time>2014-06-28T09:55:45.000Z</time>
      </trkpt>
      <trkpt lat="45.16544" lon="5.64777">
        <ele>1045</ele>
        <time>2014-06-28T09:55:46.000Z</time>
      </trkpt>
      <trkpt lat="45.16541" lon="5.64781">
        <ele>1045</ele>
        <time>2014-06-28T09:55:47.000Z</time>
      </trkpt>
      <trkpt lat="45.16539" lon="5.64785">
        <ele>1045</ele>
        <time>2014-06-28T09:55:48.000Z</time>
      </trkpt>
      <trkpt lat="45.16536" lon="5.64788">
        <ele>1045</ele>
        <time>2014-06-28T09:55:49.000Z</time>
      </trkpt>
      <trkpt lat="45.16534" lon="5.64792">
        <ele>1045</ele>
        <time>2014-06-28T09:55:50.000Z</time>
      </trkpt>
      <trkpt lat="45.16532" lon="5.64795">
        <ele>1045</ele>
        <time>2014-06-28T09:55:51.000Z</time>
      </trkpt>
      <trkpt lat="45.1653" lon="5.64799">
        <ele>1045</ele>
        <time>2014-06-28T09:55:52.000Z</time>
      </trkpt>
      <trkpt lat="45.16529" lon="5.64801">
        <ele>1045</ele>
        <time>2014-06-28T09:55:53.000Z</time>
      </trkpt>
      <trkpt lat="45.16527" lon="5.64804">
        <ele>1045</ele>
        <time>2014-06-28T09:55:54.000Z</time>
      </trkpt>
      <trkpt lat="45.16526" lon="5.64808">
        <ele>1045</ele>
        <time>2014-06-28T09:55:55.000Z</time>
      </trkpt>
      <trkpt lat="45.16525" lon="5.64811">
        <ele>1045</ele>
        <time>2014-06-28T09:55:56.000Z</time>
      </trkpt>
      <trkpt lat="45.16523" lon="5.64814">
        <ele>1044</ele>
        <time>2014-06-28T09:55:57.000Z</time>
      </trkpt>
      <trkpt lat="45.16522" lon="5.64817">
        <ele>1044</ele>
        <time>2014-06-28T09:55:58.000Z</time>
      </trkpt>
      <trkpt lat="45.16522" lon="5.6482">
        <ele>1044</ele>
        <time>2014-06-28T09:55:59.000Z</time>
      </trkpt>
      <trkpt lat="45.16521" lon="5.64823">
        <ele>1044</ele>
        <time>2014-06-28T09:56:00.000Z</time>
      </trkpt>
      <trkpt lat="45.16521" lon="5.64826">
        <ele>1044</ele>
        <time>2014-06-28T09:56:01.000Z</time>
      </trkpt>
      <trkpt lat="45.16521" lon="5.6483">
        <ele>1044</ele>
        <time>2014-06-28T09:56:02.000Z</time>
      </trkpt>
      <trkpt lat="45.16521" lon="5.64833">
        <ele>1044</ele>
        <time>2014-06-28T09:56:03.000Z</time>
      </trkpt>
      <trkpt lat="45.16521" lon="5.64837">
        <ele>1044</ele>
        <time>2014-06-28T09:56:04.000Z</time>
      </trkpt>
      <trkpt lat="45.16521" lon="5.64841">
        <ele>1044</ele>
        <time>2014-06-28T09:56:05.000Z</time>
      </trkpt>
      <trkpt lat="45.16521" lon="5.64844">
        <ele>1044</ele>
        <time>2014-06-28T09:56:06.000Z</time>
      </trkpt>
      <trkpt lat="45.16521" lon="5.64848">
        <ele>1043</ele>
        <time>2014-06-28T09:56:07.000Z</time>
      </trkpt>
      <trkpt lat="45.1652" lon="5.64852">
        <ele>1043</ele>
        <time>2014-06-28T09:56:08.000Z</time>
      </trkpt>
      <trkpt lat="45.1652" lon="5.64856">
        <ele>1043</ele>
        <time>2014-06-28T09:56:09.000Z</time>
      </trkpt>
      <trkpt lat="45.16519" lon="5.64859">
        <ele>1043</ele>
        <time>2014-06-28T09:56:10.000Z</time>
      </trkpt>
      <trkpt lat="45.16517" lon="5.64863">
        <ele>1043</ele>
        <time>2014-06-28T09:56:11.000Z</time>
      </trkpt>
      <trkpt lat="45.16516" lon="5.64866">
        <ele>1043</ele>
        <time>2014-06-28T09:56:12.000Z</time>
      </trkpt>
      <trkpt lat="45.16516" lon="5.64869">
        <ele>1042</ele>
        <time>2014-06-28T09:56:13.000Z</time>
      </trkpt>
      <trkpt lat="45.16515" lon="5.64872">
        <ele>1042</ele>
        <time>2014-06-28T09:56:14.000Z</time>
      </trkpt>
      <trkpt lat="45.16514" lon="5.64874">
        <ele>1042</ele>
        <time>2014-06-28T09:56:15.000Z</time>
      </trkpt>
      <trkpt lat="45.16513" lon="5.64877">
        <ele>1042</ele>
        <time>2014-06-28T09:56:16.000Z</time>
      </trkpt>
      <trkpt lat="45.16512" lon="5.64879">
        <ele>1042</ele>
        <time>2014-06-28T09:56:17.000Z</time>
      </trkpt>
      <trkpt lat="45.16511" lon="5.64882">
        <ele>1041</ele>
        <time>2014-06-28T09:56:18.000Z</time>
      </trkpt>
      <trkpt lat="45.1651" lon="5.64884">
        <ele>1041</ele>
        <time>2014-06-28T09:56:19.000Z</time>
      </trkpt>
      <trkpt lat="45.16509" lon="5.64885">
        <ele>1041</ele>
        <time>2014-06-28T09:56:20.000Z</time>
      </trkpt>
      <trkpt lat="45.16508" lon="5.64888">
        <ele>1041</ele>
        <time>2014-06-28T09:56:21.000Z</time>
      </trkpt>
      <trkpt lat="45.16507" lon="5.6489">
        <ele>1041</ele>
        <time>2014-06-28T09:56:22.000Z</time>
      </trkpt>
      <trkpt lat="45.16506" lon="5.64893">
        <ele>1040</ele>
        <time>2014-06-28T09:56:23.000Z</time>
      </trkpt>
      <trkpt lat="45.16505" lon="5.64895">
        <ele>1040</ele>
        <time>2014-06-28T09:56:24.000Z</time>
      </trkpt>
      <trkpt lat="45.16503" lon="5.64897">
        <ele>1040</ele>
        <time>2014-06-28T09:56:25.000Z</time>
      </trkpt>
      <trkpt lat="45.16502" lon="5.649">
        <ele>1040</ele>
        <time>2014-06-28T09:56:26.000Z</time>
      </trkpt>
      <trkpt lat="45.16501" lon="5.64903">
        <ele>1040</ele>
        <time>2014-06-28T09:56:27.000Z</time>
      </trkpt>
      <trkpt lat="45.16499" lon="5.64906">
        <ele>1040</ele>
        <time>2014-06-28T09:56:28.000Z</time>
      </trkpt>
      <trkpt lat="45.16497" lon="5.64909">
        <ele>1039</ele>
        <time>2014-06-28T09:56:29.000Z</time>
      </trkpt>
      <trkpt lat="45.16495" lon="5.64912">
        <ele>1039</ele>
        <time>2014-06-28T09:56:30.000Z</time>
      </trkpt>
      <trkpt lat="45.16494" lon="5.64916">
        <ele>1039</ele>
        <time>2014-06-28T09:56:31.000Z</time>
      </trkpt>
      <trkpt lat="45.16492" lon="5.6492">
        <ele>1039</ele>
        <time>2014-06-28T09:56:32.000Z</time>
      </trkpt>
      <trkpt lat="45.1649" lon="5.64924">
        <ele>1038</ele>
        <time>2014-06-28T09:56:33.000Z</time>
      </trkpt>
      <trkpt lat="45.16489" lon="5.64929">
        <ele>1038</ele>
        <time>2014-06-28T09:56:34.000Z</time>
      </trkpt>
      <trkpt lat="45.16488" lon="5.64934">
        <ele>1038</ele>
        <time>2014-06-28T09:56:35.000Z</time>
      </trkpt>
      <trkpt lat="45.16487" lon="5.64938">
        <ele>1037</ele>
        <time>2014-06-28T09:56:36.000Z</time>
      </trkpt>
      <trkpt lat="45.16486" lon="5.64943">
        <ele>1037</ele>
        <time>2014-06-28T09:56:37.000Z</time>
      </trkpt>
      <trkpt lat="45.16484" lon="5.64947">
        <ele>1037</ele>
        <time>2014-06-28T09:56:38.000Z</time>
      </trkpt>
      <trkpt lat="45.16483" lon="5.64951">
        <ele>1037</ele>
        <time>2014-06-28T09:56:39.000Z</time>
      </trkpt>
      <trkpt lat="45.16481" lon="5.64955">
        <ele>1036</ele>
        <time>2014-06-28T09:56:40.000Z</time>
      </trkpt>
      <trkpt lat="45.16479" lon="5.64959">
        <ele>1036</ele>
        <time>2014-06-28T09:56:41.000Z</time>
      </trkpt>
      <trkpt lat="45.16478" lon="5.64962">
        <ele>1036</ele>
        <time>2014-06-28T09:56:42.000Z</time>
      </trkpt>
      <trkpt lat="45.16476" lon="5.64964">
        <ele>1036</ele>
        <time>2014-06-28T09:56:43.000Z</time>
      </trkpt>
      <trkpt lat="45.16475" lon="5.64966">
        <ele>1036</ele>
        <time>2014-06-28T09:56:44.000Z</time>
      </trkpt>
      <trkpt lat="45.16473" lon="5.64968">
        <ele>1035</ele>
        <time>2014-06-28T09:56:45.000Z</time>
      </trkpt>
      <trkpt lat="45.16471" lon="5.6497">
        <ele>1035</ele>
        <time>2014-06-28T09:56:46.000Z</time>
      </trkpt>
      <trkpt lat="45.16469" lon="5.64972">
        <ele>1035</ele>
        <time>2014-06-28T09:56:47.000Z</time>
      </trkpt>
      <trkpt lat="45.16467" lon="5.64974">
        <ele>1035</ele>
        <time>2014-06-28T09:56:48.000Z</time>
      </trkpt>
      <trkpt lat="45.16465" lon="5.64976">
        <ele>1035</ele>
        <time>2014-06-28T09:56:49.000Z</time>
      </trkpt>
      <trkpt lat="45.16464" lon="5.64978">
        <ele>1035</ele>
        <time>2014-06-28T09:56:50.000Z</time>
      </trkpt>
      <trkpt lat="45.16463" lon="5.64981">
        <ele>1034</ele>
        <time>2014-06-28T09:56:51.000Z</time>
      </trkpt>
      <trkpt lat="45.16462" lon="5.64985">
        <ele>1034</ele>
        <time>2014-06-28T09:56:52.000Z</time>
      </trkpt>
      <trkpt lat="45.16462" lon="5.64989">
        <ele>1034</ele>
        <time>2014-06-28T09:56:53.000Z</time>
      </trkpt>
      <trkpt lat="45.16462" lon="5.64993">
        <ele>1033</ele>
        <time>2014-06-28T09:56:54.000Z</time>
      </trkpt>
      <trkpt lat="45.16462" lon="5.64997">
        <ele>1033</ele>
        <time>2014-06-28T09:56:55.000Z</time>
      </trkpt>
      <trkpt lat="45.16462" lon="5.65001">
        <ele>1033</ele>
        <time>2014-06-28T09:56:56.000Z</time>
      </trkpt>
      <trkpt lat="45.16462" lon="5.65005">
        <ele>1032</ele>
        <time>2014-06-28T09:56:57.000Z</time>
      </trkpt>
      <trkpt lat="45.16462" lon="5.65009">
        <ele>1032</ele>
        <time>2014-06-28T09:56:58.000Z</time>
      </trkpt>
      <trkpt lat="45.16462" lon="5.65013">
        <ele>1032</ele>
        <time>2014-06-28T09:56:59.000Z</time>
      </trkpt>
      <trkpt lat="45.16462" lon="5.65017">
        <ele>1031</ele>
        <time>2014-06-28T09:57:00.000Z</time>
      </trkpt>
      <trkpt lat="45.16462" lon="5.65021">
        <ele>1031</ele>
        <time>2014-06-28T09:57:01.000Z</time>
      </trkpt>
      <trkpt lat="45.16462" lon="5.65025">
        <ele>1031</ele>
        <time>2014-06-28T09:57:02.000Z</time>
      </trkpt>
      <trkpt lat="45.16462" lon="5.65029">
        <ele>1030</ele>
        <time>2014-06-28T09:57:03.000Z</time>
      </trkpt>
      <trkpt lat="45.16463" lon="5.65031">
        <ele>1030</ele>
        <time>2014-06-28T09:57:04.000Z</time>
      </trkpt>
      <trkpt lat="45.16463" lon="5.65034">
        <ele>1030</ele>
        <time>2014-06-28T09:57:05.000Z</time>
      </trkpt>
      <trkpt lat="45.16464" lon="5.65037">
        <ele>1029</ele>
        <time>2014-06-28T09:57:06.000Z</time>
      </trkpt>
      <trkpt lat="45.16464" lon="5.65039">
        <ele>1029</ele>
        <time>2014-06-28T09:57:07.000Z</time>
      </trkpt>
      <trkpt lat="45.16464" lon="5.65042">
        <ele>1028</ele>
        <time>2014-06-28T09:57:08.000Z</time>
      </trkpt>
      <trkpt lat="45.16465" lon="5.65044">
        <ele>1028</ele>
        <time>2014-06-28T09:57:09.000Z</time>
      </trkpt>
      <trkpt lat="45.16465" lon="5.65046">
        <ele>1028</ele>
        <time>2014-06-28T09:57:10.000Z</time>
      </trkpt>
      <trkpt lat="45.16466" lon="5.65049">
        <ele>1027</ele>
        <time>2014-06-28T09:57:11.000Z</time>
      </trkpt>
      <trkpt lat="45.16467" lon="5.65051">
        <ele>1027</ele>
        <time>2014-06-28T09:57:12.000Z</time>
      </trkpt>
      <trkpt lat="45.16467" lon="5.65054">
        <ele>1026</ele>
        <time>2014-06-28T09:57:13.000Z</time>
      </trkpt>
      <trkpt lat="45.16468" lon="5.65058">
        <ele>1026</ele>
        <time>2014-06-28T09:57:14.000Z</time>
      </trkpt>
      <trkpt lat="45.16469" lon="5.65061">
        <ele>1025</ele>
        <time>2014-06-28T09:57:15.000Z</time>
      </trkpt>
      <trkpt lat="45.16469" lon="5.65065">
        <ele>1025</ele>
        <time>2014-06-28T09:57:16.000Z</time>
      </trkpt>
      <trkpt lat="45.16469" lon="5.65069">
        <ele>1024</ele>
        <time>2014-06-28T09:57:17.000Z</time>
      </trkpt>
      <trkpt lat="45.16469" lon="5.65073">
        <ele>1024</ele>
        <time>2014-06-28T09:57:18.000Z</time>
      </trkpt>
      <trkpt lat="45.16469" lon="5.65077">
        <ele>1024</ele>
        <time>2014-06-28T09:57:19.000Z</time>
      </trkpt>
      <trkpt lat="45.16468" lon="5.65082">
        <ele>1023</ele>
        <time>2014-06-28T09:57:20.000Z</time>
      </trkpt>
      <trkpt lat="45.16467" lon="5.65086">
        <ele>1023</ele>
        <time>2014-06-28T09:57:21.000Z</time>
      </trkpt>
      <trkpt lat="45.16466" lon="5.65091">
        <ele>1022</ele>
        <time>2014-06-28T09:57:22.000Z</time>
      </trkpt>
      <trkpt lat="45.16465" lon="5.65095">
        <ele>1022</ele>
        <time>2014-06-28T09:57:23.000Z</time>
      </trkpt>
      <trkpt lat="45.16464" lon="5.65099">
        <ele>1021</ele>
        <time>2014-06-28T09:57:24.000Z</time>
      </trkpt>
      <trkpt lat="45.16463" lon="5.65104">
        <ele>1020</ele>
        <time>2014-06-28T09:57:25.000Z</time>
      </trkpt>
      <trkpt lat="45.16462" lon="5.65108">
        <ele>1020</ele>
        <time>2014-06-28T09:57:26.000Z</time>
      </trkpt>
      <trkpt lat="45.16462" lon="5.65113">
        <ele>1019</ele>
        <time>2014-06-28T09:57:27.000Z</time>
      </trkpt>
      <trkpt lat="45.16461" lon="5.65118">
        <ele>1019</ele>
        <time>2014-06-28T09:57:28.000Z</time>
      </trkpt>
      <trkpt lat="45.16461" lon="5.65123">
        <ele>1018</ele>
        <time>2014-06-28T09:57:29.000Z</time>
      </trkpt>
      <trkpt lat="45.16461" lon="5.65128">
        <ele>1018</ele>
        <time>2014-06-28T09:57:30.000Z</time>
      </trkpt>
      <trkpt lat="45.16461" lon="5.65132">
        <ele>1017</ele>
        <time>2014-06-28T09:57:31.000Z</time>
      </trkpt>
      <trkpt lat="45.16461" lon="5.65136">
        <ele>1017</ele>
        <time>2014-06-28T09:57:32.000Z</time>
      </trkpt>
      <trkpt lat="45.16461" lon="5.65138">
        <ele>1017</ele>
        <time>2014-06-28T09:57:33.000Z</time>
      </trkpt>
      <trkpt lat="45.16462" lon="5.65141">
        <ele>1016</ele>
        <time>2014-06-28T09:57:34.000Z</time>
      </trkpt>
      <trkpt lat="45.16462" lon="5.65142">
        <ele>1015</ele>
        <time>2014-06-28T09:57:35.000Z</time>
      </trkpt>
      <trkpt lat="45.16463" lon="5.65144">
        <ele>1015</ele>
        <time>2014-06-28T09:57:36.000Z</time>
      </trkpt>
      <trkpt lat="45.16464" lon="5.65145">
        <ele>1014</ele>
        <time>2014-06-28T09:57:37.000Z</time>
      </trkpt>
      <trkpt lat="45.16464" lon="5.65146">
        <ele>1014</ele>
        <time>2014-06-28T09:57:38.000Z</time>
      </trkpt>
      <trkpt lat="45.16465" lon="5.65148">
        <ele>1013</ele>
        <time>2014-06-28T09:57:39.000Z</time>
      </trkpt>
      <trkpt lat="45.16466" lon="5.6515">
        <ele>1012</ele>
        <time>2014-06-28T09:57:40.000Z</time>
      </trkpt>
      <trkpt lat="45.16466" lon="5.65151">
        <ele>1012</ele>
        <time>2014-06-28T09:57:41.000Z</time>
      </trkpt>
      <trkpt lat="45.16467" lon="5.65153">
        <ele>1011</ele>
        <time>2014-06-28T09:57:42.000Z</time>
      </trkpt>
      <trkpt lat="45.16468" lon="5.65155">
        <ele>1011</ele>
        <time>2014-06-28T09:57:43.000Z</time>
      </trkpt>
      <trkpt lat="45.16469" lon="5.65158">
        <ele>1010</ele>
        <time>2014-06-28T09:57:44.000Z</time>
      </trkpt>
      <trkpt lat="45.1647" lon="5.65161">
        <ele>1009</ele>
        <time>2014-06-28T09:57:45.000Z</time>
      </trkpt>
      <trkpt lat="45.16471" lon="5.65164">
        <ele>1009</ele>
        <time>2014-06-28T09:57:46.000Z</time>
      </trkpt>
      <trkpt lat="45.16473" lon="5.65167">
        <ele>1008</ele>
        <time>2014-06-28T09:57:47.000Z</time>
      </trkpt>
      <trkpt lat="45.16474" lon="5.6517">
        <ele>1007</ele>
        <time>2014-06-28T09:57:48.000Z</time>
      </trkpt>
      <trkpt lat="45.16475" lon="5.65172">
        <ele>1007</ele>
        <time>2014-06-28T09:57:49.000Z</time>
      </trkpt>
      <trkpt lat="45.16477" lon="5.65173">
        <ele>1006</ele>
        <time>2014-06-28T09:57:50.000Z</time>
      </trkpt>
      <trkpt lat="45.16478" lon="5.65175">
        <ele>1006</ele>
        <time>2014-06-28T09:57:51.000Z</time>
      </trkpt>
      <trkpt lat="45.1648" lon="5.65176">
        <ele>1005</ele>
        <time>2014-06-28T09:57:52.000Z</time>
      </trkpt>
      <trkpt lat="45.16481" lon="5.65177">
        <ele>1005</ele>
        <time>2014-06-28T09:57:53.000Z</time>
      </trkpt>
      <trkpt lat="45.16483" lon="5.65178">
        <ele>1004</ele>
        <time>2014-06-28T09:57:54.000Z</time>
      </trkpt>
      <trkpt lat="45.16484" lon="5.65179">
        <ele>1004</ele>
        <time>2014-06-28T09:57:55.000Z</time>
      </trkpt>
      <trkpt lat="45.16486" lon="5.65179">
        <ele>1003</ele>
        <time>2014-06-28T09:57:56.000Z</time>
      </trkpt>
      <trkpt lat="45.16488" lon="5.6518">
        <ele>1002</ele>
        <time>2014-06-28T09:57:57.000Z</time>
      </trkpt>
      <trkpt lat="45.16491" lon="5.6518">
        <ele>1002</ele>
        <time>2014-06-28T09:57:58.000Z</time>
      </trkpt>
      <trkpt lat="45.16493" lon="5.65181">
        <ele>1001</ele>
        <time>2014-06-28T09:57:59.000Z</time>
      </trkpt>
      <trkpt lat="45.16495" lon="5.65181">
        <ele>1000</ele>
        <time>2014-06-28T09:58:00.000Z</time>
      </trkpt>
      <trkpt lat="45.16497" lon="5.65181">
        <ele>999</ele>
        <time>2014-06-28T09:58:01.000Z</time>
      </trkpt>
      <trkpt lat="45.16499" lon="5.65181">
        <ele>998</ele>
        <time>2014-06-28T09:58:02.000Z</time>
      </trkpt>
      <trkpt lat="45.16501" lon="5.65182">
        <ele>998</ele>
        <time>2014-06-28T09:58:03.000Z</time>
      </trkpt>
      <trkpt lat="45.16503" lon="5.65183">
        <ele>997</ele>
        <time>2014-06-28T09:58:04.000Z</time>
      </trkpt>
      <trkpt lat="45.16505" lon="5.65184">
        <ele>996</ele>
        <time>2014-06-28T09:58:05.000Z</time>
      </trkpt>
      <trkpt lat="45.16507" lon="5.65185">
        <ele>995</ele>
        <time>2014-06-28T09:58:06.000Z</time>
      </trkpt>
      <trkpt lat="45.16509" lon="5.65185">
        <ele>995</ele>
        <time>2014-06-28T09:58:07.000Z</time>
      </trkpt>
      <trkpt lat="45.16511" lon="5.65186">
        <ele>994</ele>
        <time>2014-06-28T09:58:08.000Z</time>
      </trkpt>
      <trkpt lat="45.16514" lon="5.65186">
        <ele>994</ele>
        <time>2014-06-28T09:58:09.000Z</time>
      </trkpt>
      <trkpt lat="45.16516" lon="5.65188">
        <ele>993</ele>
        <time>2014-06-28T09:58:10.000Z</time>
      </trkpt>
      <trkpt lat="45.16518" lon="5.65189">
        <ele>992</ele>
        <time>2014-06-28T09:58:11.000Z</time>
      </trkpt>
      <trkpt lat="45.1652" lon="5.6519">
        <ele>992</ele>
        <time>2014-06-28T09:58:12.000Z</time>
      </trkpt>
      <trkpt lat="45.16521" lon="5.65191">
        <ele>991</ele>
        <time>2014-06-28T09:58:13.000Z</time>
      </trkpt>
      <trkpt lat="45.16523" lon="5.65192">
        <ele>991</ele>
        <time>2014-06-28T09:58:14.000Z</time>
      </trkpt>
      <trkpt lat="45.16525" lon="5.65194">
        <ele>990</ele>
        <time>2014-06-28T09:58:15.000Z</time>
      </trkpt>
      <trkpt lat="45.16526" lon="5.65196">
        <ele>990</ele>
        <time>2014-06-28T09:58:16.000Z</time>
      </trkpt>
      <trkpt lat="45.16527" lon="5.65198">
        <ele>989</ele>
        <time>2014-06-28T09:58:17.000Z</time>
      </trkpt>
      <trkpt lat="45.16529" lon="5.652">
        <ele>989</ele>
        <time>2014-06-28T09:58:18.000Z</time>
      </trkpt>
      <trkpt lat="45.16531" lon="5.65201">
        <ele>988</ele>
        <time>2014-06-28T09:58:19.000Z</time>
      </trkpt>
      <trkpt lat="45.16533" lon="5.65202">
        <ele>988</ele>
        <time>2014-06-28T09:58:20.000Z</time>
      </trkpt>
      <trkpt lat="45.16535" lon="5.65204">
        <ele>988</ele>
        <time>2014-06-28T09:58:21.000Z</time>
      </trkpt>
      <trkpt lat="45.16537" lon="5.65205">
        <ele>987</ele>
        <time>2014-06-28T09:58:22.000Z</time>
      </trkpt>
      <trkpt lat="45.16539" lon="5.65207">
        <ele>987</ele>
        <time>2014-06-28T09:58:23.000Z</time>
      </trkpt>
      <trkpt lat="45.16541" lon="5.65209">
        <ele>986</ele>
        <time>2014-06-28T09:58:24.000Z</time>
      </trkpt>
      <trkpt lat="45.16544" lon="5.65212">
        <ele>986</ele>
        <time>2014-06-28T09:58:25.000Z</time>
      </trkpt>
      <trkpt lat="45.16546" lon="5.65214">
        <ele>985</ele>
        <time>2014-06-28T09:58:26.000Z</time>
      </trkpt>
      <trkpt lat="45.16548" lon="5.65217">
        <ele>985</ele>
        <time>2014-06-28T09:58:27.000Z</time>
      </trkpt>
      <trkpt lat="45.1655" lon="5.65219">
        <ele>984</ele>
        <time>2014-06-28T09:58:28.000Z</time>
      </trkpt>
      <trkpt lat="45.16552" lon="5.65222">
        <ele>984</ele>
        <time>2014-06-28T09:58:29.000Z</time>
      </trkpt>
      <trkpt lat="45.16555" lon="5.65225">
        <ele>983</ele>
        <time>2014-06-28T09:58:30.000Z</time>
      </trkpt>
      <trkpt lat="45.16557" lon="5.65227">
        <ele>983</ele>
        <time>2014-06-28T09:58:31.000Z</time>
      </trkpt>
      <trkpt lat="45.16559" lon="5.6523">
        <ele>982</ele>
        <time>2014-06-28T09:58:32.000Z</time>
      </trkpt>
      <trkpt lat="45.16561" lon="5.65232">
        <ele>982</ele>
        <time>2014-06-28T09:58:33.000Z</time>
      </trkpt>
      <trkpt lat="45.16562" lon="5.65234">
        <ele>981</ele>
        <time>2014-06-28T09:58:34.000Z</time>
      </trkpt>
      <trkpt lat="45.16564" lon="5.65236">
        <ele>981</ele>
        <time>2014-06-28T09:58:35.000Z</time>
      </trkpt>
      <trkpt lat="45.16565" lon="5.65237">
        <ele>980</ele>
        <time>2014-06-28T09:58:36.000Z</time>
      </trkpt>
      <trkpt lat="45.16566" lon="5.65239">
        <ele>980</ele>
        <time>2014-06-28T09:58:37.000Z</time>
      </trkpt>
      <trkpt lat="45.16566" lon="5.65241">
        <ele>979</ele>
        <time>2014-06-28T09:58:38.000Z</time>
      </trkpt>
      <trkpt lat="45.16567" lon="5.65243">
        <ele>979</ele>
        <time>2014-06-28T09:58:39.000Z</time>
      </trkpt>
      <trkpt lat="45.16567" lon="5.65244">
        <ele>979</ele>
        <time>2014-06-28T09:58:40.000Z</time>
      </trkpt>
      <trkpt lat="45.16567" lon="5.65246">
        <ele>979</ele>
        <time>2014-06-28T09:58:41.000Z</time>
      </trkpt>
      <trkpt lat="45.16567" lon="5.65248">
        <ele>978</ele>
        <time>2014-06-28T09:58:42.000Z</time>
      </trkpt>
      <trkpt lat="45.16567" lon="5.6525">
        <ele>978</ele>
        <time>2014-06-28T09:58:43.000Z</time>
      </trkpt>
      <trkpt lat="45.16566" lon="5.65253">
        <ele>978</ele>
        <time>2014-06-28T09:58:44.000Z</time>
      </trkpt>
      <trkpt lat="45.16566" lon="5.65255">
        <ele>978</ele>
        <time>2014-06-28T09:58:45.000Z</time>
      </trkpt>
      <trkpt lat="45.16566" lon="5.65258">
        <ele>977</ele>
        <time>2014-06-28T09:58:46.000Z</time>
      </trkpt>
      <trkpt lat="45.16565" lon="5.65262">
        <ele>977</ele>
        <time>2014-06-28T09:58:47.000Z</time>
      </trkpt>
      <trkpt lat="45.16565" lon="5.65266">
        <ele>977</ele>
        <time>2014-06-28T09:58:48.000Z</time>
      </trkpt>
      <trkpt lat="45.16565" lon="5.6527">
        <ele>976</ele>
        <time>2014-06-28T09:58:49.000Z</time>
      </trkpt>
      <trkpt lat="45.16565" lon="5.65274">
        <ele>976</ele>
        <time>2014-06-28T09:58:50.000Z</time>
      </trkpt>
      <trkpt lat="45.16565" lon="5.65278">
        <ele>976</ele>
        <time>2014-06-28T09:58:51.000Z</time>
      </trkpt>
      <trkpt lat="45.16566" lon="5.65281">
        <ele>976</ele>
        <time>2014-06-28T09:58:52.000Z</time>
      </trkpt>
      <trkpt lat="45.16566" lon="5.65285">
        <ele>975</ele>
        <time>2014-06-28T09:58:53.000Z</time>
      </trkpt>
      <trkpt lat="45.16566" lon="5.65288">
        <ele>975</ele>
        <time>2014-06-28T09:58:54.000Z</time>
      </trkpt>
      <trkpt lat="45.16566" lon="5.65292">
        <ele>975</ele>
        <time>2014-06-28T09:58:55.000Z</time>
      </trkpt>
      <trkpt lat="45.16566" lon="5.65295">
        <ele>974</ele>
        <time>2014-06-28T09:58:56.000Z</time>
      </trkpt>
      <trkpt lat="45.16566" lon="5.65299">
        <ele>974</ele>
        <time>2014-06-28T09:58:57.000Z</time>
      </trkpt>
      <trkpt lat="45.16567" lon="5.65302">
        <ele>974</ele>
        <time>2014-06-28T09:58:58.000Z</time>
      </trkpt>
      <trkpt lat="45.16567" lon="5.65305">
        <ele>974</ele>
        <time>2014-06-28T09:58:59.000Z</time>
      </trkpt>
      <trkpt lat="45.16566" lon="5.65308">
        <ele>973</ele>
        <time>2014-06-28T09:59:00.000Z</time>
      </trkpt>
      <trkpt lat="45.16566" lon="5.65311">
        <ele>973</ele>
        <time>2014-06-28T09:59:01.000Z</time>
      </trkpt>
      <trkpt lat="45.16566" lon="5.65314">
        <ele>973</ele>
        <time>2014-06-28T09:59:02.000Z</time>
      </trkpt>
      <trkpt lat="45.16566" lon="5.65317">
        <ele>973</ele>
        <time>2014-06-28T09:59:03.000Z</time>
      </trkpt>
      <trkpt lat="45.16566" lon="5.6532">
        <ele>972</ele>
        <time>2014-06-28T09:59:04.000Z</time>
      </trkpt>
      <trkpt lat="45.16566" lon="5.65323">
        <ele>972</ele>
        <time>2014-06-28T09:59:05.000Z</time>
      </trkpt>
      <trkpt lat="45.16567" lon="5.65327">
        <ele>972</ele>
        <time>2014-06-28T09:59:06.000Z</time>
      </trkpt>
      <trkpt lat="45.16568" lon="5.6533">
        <ele>972</ele>
        <time>2014-06-28T09:59:07.000Z</time>
      </trkpt>
      <trkpt lat="45.16569" lon="5.65334">
        <ele>971</ele>
        <time>2014-06-28T09:59:08.000Z</time>
      </trkpt>
      <trkpt lat="45.16571" lon="5.65336">
        <ele>971</ele>
        <time>2014-06-28T09:59:09.000Z</time>
      </trkpt>
      <trkpt lat="45.16572" lon="5.65339">
        <ele>970</ele>
        <time>2014-06-28T09:59:10.000Z</time>
      </trkpt>
      <trkpt lat="45.16573" lon="5.65341">
        <ele>970</ele>
        <time>2014-06-28T09:59:11.000Z</time>
      </trkpt>
      <trkpt lat="45.16575" lon="5.65343">
        <ele>969</ele>
        <time>2014-06-28T09:59:12.000Z</time>
      </trkpt>
      <trkpt lat="45.16576" lon="5.65344">
        <ele>969</ele>
        <time>2014-06-28T09:59:13.000Z</time>
      </trkpt>
      <trkpt lat="45.16578" lon="5.65345">
        <ele>968</ele>
        <time>2014-06-28T09:59:14.000Z</time>
      </trkpt>
      <trkpt lat="45.1658" lon="5.65345">
        <ele>967</ele>
        <time>2014-06-28T09:59:15.000Z</time>
      </trkpt>
      <trkpt lat="45.16582" lon="5.65346">
        <ele>967</ele>
        <time>2014-06-28T09:59:16.000Z</time>
      </trkpt>
      <trkpt lat="45.16584" lon="5.65346">
        <ele>966</ele>
        <time>2014-06-28T09:59:17.000Z</time>
      </trkpt>
      <trkpt lat="45.16586" lon="5.65346">
        <ele>966</ele>
        <time>2014-06-28T09:59:18.000Z</time>
      </trkpt>
      <trkpt lat="45.16589" lon="5.65346">
        <ele>965</ele>
        <time>2014-06-28T09:59:19.000Z</time>
      </trkpt>
      <trkpt lat="45.16591" lon="5.65347">
        <ele>965</ele>
        <time>2014-06-28T09:59:20.000Z</time>
      </trkpt>
      <trkpt lat="45.16594" lon="5.65349">
        <ele>964</ele>
        <time>2014-06-28T09:59:21.000Z</time>
      </trkpt>
      <trkpt lat="45.16597" lon="5.65351">
        <ele>963</ele>
        <time>2014-06-28T09:59:22.000Z</time>
      </trkpt>
      <trkpt lat="45.16599" lon="5.65353">
        <ele>962</ele>
        <time>2014-06-28T09:59:23.000Z</time>
      </trkpt>
      <trkpt lat="45.16601" lon="5.65355">
        <ele>961</ele>
        <time>2014-06-28T09:59:24.000Z</time>
      </trkpt>
      <trkpt lat="45.16604" lon="5.65358">
        <ele>960</ele>
        <time>2014-06-28T09:59:25.000Z</time>
      </trkpt>
      <trkpt lat="45.16606" lon="5.65361">
        <ele>959</ele>
        <time>2014-06-28T09:59:26.000Z</time>
      </trkpt>
      <trkpt lat="45.16608" lon="5.65365">
        <ele>959</ele>
        <time>2014-06-28T09:59:27.000Z</time>
      </trkpt>
      <trkpt lat="45.1661" lon="5.65368">
        <ele>958</ele>
        <time>2014-06-28T09:59:28.000Z</time>
      </trkpt>
      <trkpt lat="45.16612" lon="5.65371">
        <ele>957</ele>
        <time>2014-06-28T09:59:29.000Z</time>
      </trkpt>
      <trkpt lat="45.16614" lon="5.65375">
        <ele>956</ele>
        <time>2014-06-28T09:59:30.000Z</time>
      </trkpt>
      <trkpt lat="45.16616" lon="5.65379">
        <ele>956</ele>
        <time>2014-06-28T09:59:31.000Z</time>
      </trkpt>
      <trkpt lat="45.16618" lon="5.65383">
        <ele>955</ele>
        <time>2014-06-28T09:59:32.000Z</time>
      </trkpt>
      <trkpt lat="45.1662" lon="5.65387">
        <ele>954</ele>
        <time>2014-06-28T09:59:33.000Z</time>
      </trkpt>
      <trkpt lat="45.16621" lon="5.6539">
        <ele>953</ele>
        <time>2014-06-28T09:59:34.000Z</time>
      </trkpt>
      <trkpt lat="45.16623" lon="5.65393">
        <ele>953</ele>
        <time>2014-06-28T09:59:35.000Z</time>
      </trkpt>
      <trkpt lat="45.16625" lon="5.65396">
        <ele>952</ele>
        <time>2014-06-28T09:59:36.000Z</time>
      </trkpt>
      <trkpt lat="45.16626" lon="5.65397">
        <ele>952</ele>
        <time>2014-06-28T09:59:37.000Z</time>
      </trkpt>
      <trkpt lat="45.16628" lon="5.65399">
        <ele>951</ele>
        <time>2014-06-28T09:59:38.000Z</time>
      </trkpt>
      <trkpt lat="45.16629" lon="5.654">
        <ele>951</ele>
        <time>2014-06-28T09:59:39.000Z</time>
      </trkpt>
      <trkpt lat="45.16631" lon="5.654">
        <ele>950</ele>
        <time>2014-06-28T09:59:40.000Z</time>
      </trkpt>
      <trkpt lat="45.16633" lon="5.654">
        <ele>949</ele>
        <time>2014-06-28T09:59:41.000Z</time>
      </trkpt>
      <trkpt lat="45.16635" lon="5.65399">
        <ele>949</ele>
        <time>2014-06-28T09:59:42.000Z</time>
      </trkpt>
      <trkpt lat="45.16638" lon="5.65398">
        <ele>948</ele>
        <time>2014-06-28T09:59:43.000Z</time>
      </trkpt>
      <trkpt lat="45.1664" lon="5.65396">
        <ele>947</ele>
        <time>2014-06-28T09:59:44.000Z</time>
      </trkpt>
      <trkpt lat="45.16643" lon="5.65393">
        <ele>947</ele>
        <time>2014-06-28T09:59:45.000Z</time>
      </trkpt>
      <trkpt lat="45.16645" lon="5.65391">
        <ele>946</ele>
        <time>2014-06-28T09:59:46.000Z</time>
      </trkpt>
      <trkpt lat="45.16648" lon="5.65387">
        <ele>945</ele>
        <time>2014-06-28T09:59:47.000Z</time>
      </trkpt>
      <trkpt lat="45.16651" lon="5.65384">
        <ele>944</ele>
        <time>2014-06-28T09:59:48.000Z</time>
      </trkpt>
      <trkpt lat="45.16653" lon="5.6538">
        <ele>943</ele>
        <time>2014-06-28T09:59:49.000Z</time>
      </trkpt>
      <trkpt lat="45.16655" lon="5.65376">
        <ele>942</ele>
        <time>2014-06-28T09:59:50.000Z</time>
      </trkpt>
      <trkpt lat="45.16656" lon="5.65372">
        <ele>941</ele>
        <time>2014-06-28T09:59:51.000Z</time>
      </trkpt>
      <trkpt lat="45.16658" lon="5.65368">
        <ele>940</ele>
        <time>2014-06-28T09:59:52.000Z</time>
      </trkpt>
      <trkpt lat="45.1666" lon="5.65364">
        <ele>939</ele>
        <time>2014-06-28T09:59:53.000Z</time>
      </trkpt>
      <trkpt lat="45.16662" lon="5.6536">
        <ele>938</ele>
        <time>2014-06-28T09:59:54.000Z</time>
      </trkpt>
      <trkpt lat="45.16664" lon="5.65355">
        <ele>937</ele>
        <time>2014-06-28T09:59:55.000Z</time>
      </trkpt>
      <trkpt lat="45.16665" lon="5.65351">
        <ele>937</ele>
        <time>2014-06-28T09:59:56.000Z</time>
      </trkpt>
      <trkpt lat="45.16667" lon="5.65347">
        <ele>936</ele>
        <time>2014-06-28T09:59:57.000Z</time>
      </trkpt>
      <trkpt lat="45.16668" lon="5.65343">
        <ele>936</ele>
        <time>2014-06-28T09:59:58.000Z</time>
      </trkpt>
      <trkpt lat="45.1667" lon="5.6534">
        <ele>935</ele>
        <time>2014-06-28T09:59:59.000Z</time>
      </trkpt>
      <trkpt lat="45.16671" lon="5.65338">
        <ele>935</ele>
        <time>2014-06-28T10:00:00.000Z</time>
      </trkpt>
      <trkpt lat="45.16674" lon="5.65337">
        <ele>934</ele>
        <time>2014-06-28T10:00:01.000Z</time>
      </trkpt>
      <trkpt lat="45.16676" lon="5.65337">
        <ele>934</ele>
        <time>2014-06-28T10:00:02.000Z</time>
      </trkpt>
      <trkpt lat="45.16678" lon="5.65337">
        <ele>933</ele>
        <time>2014-06-28T10:00:03.000Z</time>
      </trkpt>
      <trkpt lat="45.16681" lon="5.65338">
        <ele>933</ele>
        <time>2014-06-28T10:00:04.000Z</time>
      </trkpt>
      <trkpt lat="45.16683" lon="5.65339">
        <ele>932</ele>
        <time>2014-06-28T10:00:05.000Z</time>
      </trkpt>
      <trkpt lat="45.16685" lon="5.6534">
        <ele>932</ele>
        <time>2014-06-28T10:00:06.000Z</time>
      </trkpt>
      <trkpt lat="45.16686" lon="5.65342">
        <ele>931</ele>
        <time>2014-06-28T10:00:07.000Z</time>
      </trkpt>
      <trkpt lat="45.16688" lon="5.65344">
        <ele>931</ele>
        <time>2014-06-28T10:00:08.000Z</time>
      </trkpt>
      <trkpt lat="45.16688" lon="5.65346">
        <ele>930</ele>
        <time>2014-06-28T10:00:09.000Z</time>
      </trkpt>
      <trkpt lat="45.16688" lon="5.65349">
        <ele>930</ele>
        <time>2014-06-28T10:00:10.000Z</time>
      </trkpt>
      <trkpt lat="45.16687" lon="5.65352">
        <ele>929</ele>
        <time>2014-06-28T10:00:11.000Z</time>
      </trkpt>
      <trkpt lat="45.16686" lon="5.65355">
        <ele>929</ele>
        <time>2014-06-28T10:00:12.000Z</time>
      </trkpt>
      <trkpt lat="45.16685" lon="5.65358">
        <ele>929</ele>
        <time>2014-06-28T10:00:13.000Z</time>
      </trkpt>
      <trkpt lat="45.16683" lon="5.65361">
        <ele>928</ele>
        <time>2014-06-28T10:00:14.000Z</time>
      </trkpt>
      <trkpt lat="45.16682" lon="5.65363">
        <ele>928</ele>
        <time>2014-06-28T10:00:15.000Z</time>
      </trkpt>
      <trkpt lat="45.1668" lon="5.65367">
        <ele>928</ele>
        <time>2014-06-28T10:00:16.000Z</time>
      </trkpt>
      <trkpt lat="45.16678" lon="5.6537">
        <ele>928</ele>
        <time>2014-06-28T10:00:17.000Z</time>
      </trkpt>
      <trkpt lat="45.16676" lon="5.65373">
        <ele>928</ele>
        <time>2014-06-28T10:00:18.000Z</time>
      </trkpt>
      <trkpt lat="45.16673" lon="5.65377">
        <ele>927</ele>
        <time>2014-06-28T10:00:19.000Z</time>
      </trkpt>
      <trkpt lat="45.16671" lon="5.6538">
        <ele>927</ele>
        <time>2014-06-28T10:00:20.000Z</time>
      </trkpt>
      <trkpt lat="45.16669" lon="5.65383">
        <ele>927</ele>
        <time>2014-06-28T10:00:21.000Z</time>
      </trkpt>
      <trkpt lat="45.16666" lon="5.65385">
        <ele>927</ele>
        <time>2014-06-28T10:00:22.000Z</time>
      </trkpt>
      <trkpt lat="45.16663" lon="5.65388">
        <ele>927</ele>
        <time>2014-06-28T10:00:23.000Z</time>
      </trkpt>
      <trkpt lat="45.1666" lon="5.6539">
        <ele>927</ele>
        <time>2014-06-28T10:00:24.000Z</time>
      </trkpt>
      <trkpt lat="45.16656" lon="5.65392">
        <ele>927</ele>
        <time>2014-06-28T10:00:25.000Z</time>
      </trkpt>
      <trkpt lat="45.16652" lon="5.65395">
        <ele>927</ele>
        <time>2014-06-28T10:00:26.000Z</time>
      </trkpt>
      <trkpt lat="45.16648" lon="5.65397">
        <ele>927</ele>
        <time>2014-06-28T10:00:27.000Z</time>
      </trkpt>
      <trkpt lat="45.16644" lon="5.65398">
        <ele>927</ele>
        <time>2014-06-28T10:00:28.000Z</time>
      </trkpt>
      <trkpt lat="45.1664" lon="5.654">
        <ele>927</ele>
        <time>2014-06-28T10:00:29.000Z</time>
      </trkpt>
      <trkpt lat="45.16636" lon="5.65401">
        <ele>927</ele>
        <time>2014-06-28T10:00:30.000Z</time>
      </trkpt>
      <trkpt lat="45.16633" lon="5.65402">
        <ele>927</ele>
        <time>2014-06-28T10:00:31.000Z</time>
      </trkpt>
      <trkpt lat="45.16629" lon="5.65403">
        <ele>927</ele>
        <time>2014-06-28T10:00:32.000Z</time>
      </trkpt>
      <trkpt lat="45.16626" lon="5.65403">
        <ele>927</ele>
        <time>2014-06-28T10:00:33.000Z</time>
      </trkpt>
      <trkpt lat="45.16622" lon="5.65404">
        <ele>927</ele>
        <time>2014-06-28T10:00:34.000Z</time>
      </trkpt>
      <trkpt lat="45.16619" lon="5.65404">
        <ele>927</ele>
        <time>2014-06-28T10:00:35.000Z</time>
      </trkpt>
      <trkpt lat="45.16615" lon="5.65405">
        <ele>927</ele>
        <time>2014-06-28T10:00:36.000Z</time>
      </trkpt>
      <trkpt lat="45.16612" lon="5.65405">
        <ele>928</ele>
        <time>2014-06-28T10:00:37.000Z</time>
      </trkpt>
      <trkpt lat="45.16608" lon="5.65406">
        <ele>928</ele>
        <time>2014-06-28T10:00:38.000Z</time>
      </trkpt>
      <trkpt lat="45.16605" lon="5.65407">
        <ele>928</ele>
        <time>2014-06-28T10:00:39.000Z</time>
      </trkpt>
      <trkpt lat="45.16602" lon="5.65408">
        <ele>928</ele>
        <time>2014-06-28T10:00:40.000Z</time>
      </trkpt>
      <trkpt lat="45.16598" lon="5.6541">
        <ele>928</ele>
        <time>2014-06-28T10:00:41.000Z</time>
      </trkpt>
      <trkpt lat="45.16595" lon="5.65411">
        <ele>928</ele>
        <time>2014-06-28T10:00:42.000Z</time>
      </trkpt>
      <trkpt lat="45.16592" lon="5.65414">
        <ele>928</ele>
        <time>2014-06-28T10:00:43.000Z</time>
      </trkpt>
      <trkpt lat="45.1659" lon="5.65417">
        <ele>929</ele>
        <time>2014-06-28T10:00:44.000Z</time>
      </trkpt>
      <trkpt lat="45.16588" lon="5.65419">
        <ele>929</ele>
        <time>2014-06-28T10:00:45.000Z</time>
      </trkpt>
      <trkpt lat="45.16585" lon="5.65422">
        <ele>929</ele>
        <time>2014-06-28T10:00:46.000Z</time>
      </trkpt>
      <trkpt lat="45.16583" lon="5.65425">
        <ele>929</ele>
        <time>2014-06-28T10:00:47.000Z</time>
      </trkpt>
      <trkpt lat="45.16581" lon="5.65427">
        <ele>929</ele>
        <time>2014-06-28T10:00:48.000Z</time>
      </trkpt>
      <trkpt lat="45.16578" lon="5.65429">
        <ele>930</ele>
        <time>2014-06-28T10:00:49.000Z</time>
      </trkpt>
      <trkpt lat="45.16576" lon="5.65432">
        <ele>930</ele>
        <time>2014-06-28T10:00:50.000Z</time>
      </trkpt>
      <trkpt lat="45.16573" lon="5.65435">
        <ele>930</ele>
        <time>2014-06-28T10:00:51.000Z</time>
      </trkpt>
      <trkpt lat="45.16571" lon="5.65438">
        <ele>930</ele>
        <time>2014-06-28T10:00:52.000Z</time>
      </trkpt>
      <trkpt lat="45.16568" lon="5.6544">
        <ele>930</ele>
        <time>2014-06-28T10:00:53.000Z</time>
      </trkpt>
      <trkpt lat="45.16566" lon="5.65443">
        <ele>930</ele>
        <time>2014-06-28T10:00:54.000Z</time>
      </trkpt>
      <trkpt lat="45.16564" lon="5.65446">
        <ele>931</ele>
        <time>2014-06-28T10:00:55.000Z</time>
      </trkpt>
      <trkpt lat="45.16561" lon="5.65448">
        <ele>931</ele>
        <time>2014-06-28T10:00:56.000Z</time>
      </trkpt>
      <trkpt lat="45.1656" lon="5.65451">
        <ele>931</ele>
        <time>2014-06-28T10:00:57.000Z</time>
      </trkpt>
      <trkpt lat="45.16558" lon="5.65453">
        <ele>931</ele>
        <time>2014-06-28T10:00:58.000Z</time>
      </trkpt>
      <trkpt lat="45.16556" lon="5.65455">
        <ele>931</ele>
        <time>2014-06-28T10:00:59.000Z</time>
      </trkpt>
      <trkpt lat="45.16555" lon="5.65457">
        <ele>931</ele>
        <time>2014-06-28T10:01:00.000Z</time>
      </trkpt>
      <trkpt lat="45.16553" lon="5.65459">
        <ele>932</ele>
        <time>2014-06-28T10:01:01.000Z</time>
      </trkpt>
      <trkpt lat="45.16551" lon="5.65461">
        <ele>932</ele>
        <time>2014-06-28T10:01:02.000Z</time>
      </trkpt>
      <trkpt lat="45.1655" lon="5.65463">
        <ele>932</ele>
        <time>2014-06-28T10:01:03.000Z</time>
      </trkpt>
      <trkpt lat="45.16548" lon="5.65465">
        <ele>932</ele>
        <time>2014-06-28T10:01:04.000Z</time>
      </trkpt>
      <trkpt lat="45.16547" lon="5.65467">
        <ele>932</ele>
        <time>2014-06-28T10:01:05.000Z</time>
      </trkpt>
      <trkpt lat="45.16546" lon="5.6547">
        <ele>932</ele>
        <time>2014-06-28T10:01:06.000Z</time>
      </trkpt>
      <trkpt lat="45.16544" lon="5.65472">
        <ele>932</ele>
        <time>2014-06-28T10:01:07.000Z</time>
      </trkpt>
      <trkpt lat="45.16543" lon="5.65475">
        <ele>932</ele>
        <time>2014-06-28T10:01:08.000Z</time>
      </trkpt>
      <trkpt lat="45.16541" lon="5.65477">
        <ele>932</ele>
        <time>2014-06-28T10:01:09.000Z</time>
      </trkpt>
      <trkpt lat="45.16539" lon="5.65481">
        <ele>932</ele>
        <time>2014-06-28T10:01:10.000Z</time>
      </trkpt>
      <trkpt lat="45.16538" lon="5.65484">
        <ele>932</ele>
        <time>2014-06-28T10:01:11.000Z</time>
      </trkpt>
      <trkpt lat="45.16536" lon="5.65486">
        <ele>932</ele>
        <time>2014-06-28T10:01:12.000Z</time>
      </trkpt>
      <trkpt lat="45.16534" lon="5.65489">
        <ele>932</ele>
        <time>2014-06-28T10:01:13.000Z</time>
      </trkpt>
      <trkpt lat="45.16532" lon="5.65492">
        <ele>932</ele>
        <time>2014-06-28T10:01:14.000Z</time>
      </trkpt>
      <trkpt lat="45.1653" lon="5.65494">
        <ele>932</ele>
        <time>2014-06-28T10:01:15.000Z</time>
      </trkpt>
      <trkpt lat="45.16527" lon="5.65498">
        <ele>932</ele>
        <time>2014-06-28T10:01:16.000Z</time>
      </trkpt>
      <trkpt lat="45.16525" lon="5.65501">
        <ele>932</ele>
        <time>2014-06-28T10:01:17.000Z</time>
      </trkpt>
      <trkpt lat="45.16522" lon="5.65504">
        <ele>932</ele>
        <time>2014-06-28T10:01:18.000Z</time>
      </trkpt>
      <trkpt lat="45.16519" lon="5.65508">
        <ele>932</ele>
        <time>2014-06-28T10:01:19.000Z</time>
      </trkpt>
      <trkpt lat="45.16516" lon="5.65511">
        <ele>932</ele>
        <time>2014-06-28T10:01:20.000Z</time>
      </trkpt>
      <trkpt lat="45.16513" lon="5.65514">
        <ele>932</ele>
        <time>2014-06-28T10:01:21.000Z</time>
      </trkpt>
      <trkpt lat="45.16509" lon="5.65517">
        <ele>932</ele>
        <time>2014-06-28T10:01:22.000Z</time>
      </trkpt>
      <trkpt lat="45.16506" lon="5.6552">
        <ele>931</ele>
        <time>2014-06-28T10:01:23.000Z</time>
      </trkpt>
      <trkpt lat="45.16502" lon="5.65523">
        <ele>931</ele>
        <time>2014-06-28T10:01:24.000Z</time>
      </trkpt>
      <trkpt lat="45.16499" lon="5.65526">
        <ele>931</ele>
        <time>2014-06-28T10:01:25.000Z</time>
      </trkpt>
      <trkpt lat="45.16495" lon="5.65528">
        <ele>931</ele>
        <time>2014-06-28T10:01:26.000Z</time>
      </trkpt>
      <trkpt lat="45.16492" lon="5.6553">
        <ele>931</ele>
        <time>2014-06-28T10:01:27.000Z</time>
      </trkpt>
      <trkpt lat="45.16489" lon="5.65532">
        <ele>931</ele>
        <time>2014-06-28T10:01:28.000Z</time>
      </trkpt>
      <trkpt lat="45.16485" lon="5.65534">
        <ele>931</ele>
        <time>2014-06-28T10:01:29.000Z</time>
      </trkpt>
      <trkpt lat="45.16482" lon="5.65536">
        <ele>931</ele>
        <time>2014-06-28T10:01:30.000Z</time>
      </trkpt>
      <trkpt lat="45.16479" lon="5.65537">
        <ele>931</ele>
        <time>2014-06-28T10:01:31.000Z</time>
      </trkpt>
      <trkpt lat="45.16475" lon="5.65539">
        <ele>931</ele>
        <time>2014-06-28T10:01:32.000Z</time>
      </trkpt>
      <trkpt lat="45.16472" lon="5.6554">
        <ele>930</ele>
        <time>2014-06-28T10:01:33.000Z</time>
      </trkpt>
      <trkpt lat="45.16469" lon="5.65541">
        <ele>930</ele>
        <time>2014-06-28T10:01:34.000Z</time>
      </trkpt>
      <trkpt lat="45.16466" lon="5.65542">
        <ele>930</ele>
        <time>2014-06-28T10:01:35.000Z</time>
      </trkpt>
      <trkpt lat="45.16462" lon="5.65542">
        <ele>930</ele>
        <time>2014-06-28T10:01:36.000Z</time>
      </trkpt>
      <trkpt lat="45.16459" lon="5.65543">
        <ele>930</ele>
        <time>2014-06-28T10:01:37.000Z</time>
      </trkpt>
      <trkpt lat="45.16456" lon="5.65543">
        <ele>930</ele>
        <time>2014-06-28T10:01:38.000Z</time>
      </trkpt>
      <trkpt lat="45.16453" lon="5.65543">
        <ele>930</ele>
        <time>2014-06-28T10:01:39.000Z</time>
      </trkpt>
      <trkpt lat="45.1645" lon="5.65544">
        <ele>930</ele>
        <time>2014-06-28T10:01:40.000Z</time>
      </trkpt>
      <trkpt lat="45.16447" lon="5.65544">
        <ele>930</ele>
        <time>2014-06-28T10:01:41.000Z</time>
      </trkpt>
      <trkpt lat="45.16444" lon="5.65545">
        <ele>930</ele>
        <time>2014-06-28T10:01:42.000Z</time>
      </trkpt>
      <trkpt lat="45.1644" lon="5.65545">
        <ele>930</ele>
        <time>2014-06-28T10:01:43.000Z</time>
      </trkpt>
      <trkpt lat="45.16437" lon="5.65546">
        <ele>930</ele>
        <time>2014-06-28T10:01:44.000Z</time>
      </trkpt>
      <trkpt lat="45.16434" lon="5.65546">
        <ele>930</ele>
        <time>2014-06-28T10:01:45.000Z</time>
      </trkpt>
      <trkpt lat="45.16431" lon="5.65547">
        <ele>930</ele>
        <time>2014-06-28T10:01:46.000Z</time>
      </trkpt>
      <trkpt lat="45.16428" lon="5.65548">
        <ele>930</ele>
        <time>2014-06-28T10:01:47.000Z</time>
      </trkpt>
      <trkpt lat="45.16425" lon="5.65548">
        <ele>929</ele>
        <time>2014-06-28T10:01:48.000Z</time>
      </trkpt>
      <trkpt lat="45.16423" lon="5.65549">
        <ele>929</ele>
        <time>2014-06-28T10:01:49.000Z</time>
      </trkpt>
      <trkpt lat="45.1642" lon="5.65551">
        <ele>929</ele>
        <time>2014-06-28T10:01:50.000Z</time>
      </trkpt>
      <trkpt lat="45.16418" lon="5.65552">
        <ele>929</ele>
        <time>2014-06-28T10:01:51.000Z</time>
      </trkpt>
      <trkpt lat="45.16415" lon="5.65554">
        <ele>929</ele>
        <time>2014-06-28T10:01:52.000Z</time>
      </trkpt>
      <trkpt lat="45.16413" lon="5.65555">
        <ele>929</ele>
        <time>2014-06-28T10:01:53.000Z</time>
      </trkpt>
      <trkpt lat="45.16411" lon="5.65557">
        <ele>929</ele>
        <time>2014-06-28T10:01:54.000Z</time>
      </trkpt>
      <trkpt lat="45.16409" lon="5.65558">
        <ele>929</ele>
        <time>2014-06-28T10:01:55.000Z</time>
      </trkpt>
      <trkpt lat="45.16407" lon="5.65559">
        <ele>929</ele>
        <time>2014-06-28T10:01:56.000Z</time>
      </trkpt>
      <trkpt lat="45.16405" lon="5.6556">
        <ele>928</ele>
        <time>2014-06-28T10:01:57.000Z</time>
      </trkpt>
      <trkpt lat="45.16404" lon="5.65561">
        <ele>928</ele>
        <time>2014-06-28T10:01:58.000Z</time>
      </trkpt>
      <trkpt lat="45.16402" lon="5.65562">
        <ele>928</ele>
        <time>2014-06-28T10:01:59.000Z</time>
      </trkpt>
      <trkpt lat="45.164" lon="5.65564">
        <ele>928</ele>
        <time>2014-06-28T10:02:00.000Z</time>
      </trkpt>
      <trkpt lat="45.16399" lon="5.65566">
        <ele>928</ele>
        <time>2014-06-28T10:02:01.000Z</time>
      </trkpt>
      <trkpt lat="45.16397" lon="5.65568">
        <ele>928</ele>
        <time>2014-06-28T10:02:02.000Z</time>
      </trkpt>
      <trkpt lat="45.16395" lon="5.65571">
        <ele>927</ele>
        <time>2014-06-28T10:02:03.000Z</time>
      </trkpt>
      <trkpt lat="45.16394" lon="5.65574">
        <ele>927</ele>
        <time>2014-06-28T10:02:04.000Z</time>
      </trkpt>
      <trkpt lat="45.16392" lon="5.65577">
        <ele>927</ele>
        <time>2014-06-28T10:02:05.000Z</time>
      </trkpt>
      <trkpt lat="45.16391" lon="5.6558">
        <ele>927</ele>
        <time>2014-06-28T10:02:06.000Z</time>
      </trkpt>
      <trkpt lat="45.16389" lon="5.65583">
        <ele>927</ele>
        <time>2014-06-28T10:02:07.000Z</time>
      </trkpt>
      <trkpt lat="45.16387" lon="5.65586">
        <ele>927</ele>
        <time>2014-06-28T10:02:08.000Z</time>
      </trkpt>
      <trkpt lat="45.16384" lon="5.6559">
        <ele>927</ele>
        <time>2014-06-28T10:02:09.000Z</time>
      </trkpt>
      <trkpt lat="45.16382" lon="5.65594">
        <ele>926</ele>
        <time>2014-06-28T10:02:10.000Z</time>
      </trkpt>
      <trkpt lat="45.16379" lon="5.65598">
        <ele>926</ele>
        <time>2014-06-28T10:02:11.000Z</time>
      </trkpt>
      <trkpt lat="45.16376" lon="5.65603">
        <ele>926</ele>
        <time>2014-06-28T10:02:12.000Z</time>
      </trkpt>
      <trkpt lat="45.16373" lon="5.65607">
        <ele>926</ele>
        <time>2014-06-28T10:02:13.000Z</time>
      </trkpt>
      <trkpt lat="45.16369" lon="5.65612">
        <ele>925</ele>
        <time>2014-06-28T10:02:14.000Z</time>
      </trkpt>
      <trkpt lat="45.16366" lon="5.65617">
        <ele>925</ele>
        <time>2014-06-28T10:02:15.000Z</time>
      </trkpt>
      <trkpt lat="45.16363" lon="5.65621">
        <ele>925</ele>
        <time>2014-06-28T10:02:16.000Z</time>
      </trkpt>
      <trkpt lat="45.16359" lon="5.65626">
        <ele>924</ele>
        <time>2014-06-28T10:02:17.000Z</time>
      </trkpt>
      <trkpt lat="45.16356" lon="5.6563">
        <ele>924</ele>
        <time>2014-06-28T10:02:18.000Z</time>
      </trkpt>
      <trkpt lat="45.16353" lon="5.65634">
        <ele>923</ele>
        <time>2014-06-28T10:02:19.000Z</time>
      </trkpt>
      <trkpt lat="45.16349" lon="5.65638">
        <ele>923</ele>
        <time>2014-06-28T10:02:20.000Z</time>
      </trkpt>
      <trkpt lat="45.16346" lon="5.65641">
        <ele>923</ele>
        <time>2014-06-28T10:02:21.000Z</time>
      </trkpt>
      <trkpt lat="45.16343" lon="5.65643">
        <ele>922</ele>
        <time>2014-06-28T10:02:22.000Z</time>
      </trkpt>
      <trkpt lat="45.1634" lon="5.65645">
        <ele>922</ele>
        <time>2014-06-28T10:02:23.000Z</time>
      </trkpt>
      <trkpt lat="45.16337" lon="5.65646">
        <ele>921</ele>
        <time>2014-06-28T10:02:24.000Z</time>
      </trkpt>
      <trkpt lat="45.16334" lon="5.65647">
        <ele>921</ele>
        <time>2014-06-28T10:02:25.000Z</time>
      </trkpt>
      <trkpt lat="45.16331" lon="5.65648">
        <ele>920</ele>
        <time>2014-06-28T10:02:26.000Z</time>
      </trkpt>
      <trkpt lat="45.16327" lon="5.65648">
        <ele>920</ele>
        <time>2014-06-28T10:02:27.000Z</time>
      </trkpt>
      <trkpt lat="45.16324" lon="5.65649">
        <ele>919</ele>
        <time>2014-06-28T10:02:28.000Z</time>
      </trkpt>
      <trkpt lat="45.16321" lon="5.65649">
        <ele>918</ele>
        <time>2014-06-28T10:02:29.000Z</time>
      </trkpt>
      <trkpt lat="45.16318" lon="5.65648">
        <ele>918</ele>
        <time>2014-06-28T10:02:30.000Z</time>
      </trkpt>
      <trkpt lat="45.16315" lon="5.65648">
        <ele>917</ele>
        <time>2014-06-28T10:02:31.000Z</time>
      </trkpt>
      <trkpt lat="45.16312" lon="5.65647">
        <ele>916</ele>
        <time>2014-06-28T10:02:32.000Z</time>
      </trkpt>
      <trkpt lat="45.1631" lon="5.65646">
        <ele>916</ele>
        <time>2014-06-28T10:02:33.000Z</time>
      </trkpt>
      <trkpt lat="45.16307" lon="5.65645">
        <ele>915</ele>
        <time>2014-06-28T10:02:34.000Z</time>
      </trkpt>
      <trkpt lat="45.16304" lon="5.65643">
        <ele>914</ele>
        <time>2014-06-28T10:02:35.000Z</time>
      </trkpt>
      <trkpt lat="45.16302" lon="5.65641">
        <ele>914</ele>
        <time>2014-06-28T10:02:36.000Z</time>
      </trkpt>
      <trkpt lat="45.16299" lon="5.65639">
        <ele>913</ele>
        <time>2014-06-28T10:02:37.000Z</time>
      </trkpt>
      <trkpt lat="45.16296" lon="5.65638">
        <ele>912</ele>
        <time>2014-06-28T10:02:38.000Z</time>
      </trkpt>
      <trkpt lat="45.16294" lon="5.65636">
        <ele>912</ele>
        <time>2014-06-28T10:02:39.000Z</time>
      </trkpt>
      <trkpt lat="45.16292" lon="5.65633">
        <ele>912</ele>
        <time>2014-06-28T10:02:40.000Z</time>
      </trkpt>
      <trkpt lat="45.1629" lon="5.65631">
        <ele>911</ele>
        <time>2014-06-28T10:02:41.000Z</time>
      </trkpt>
      <trkpt lat="45.16288" lon="5.65629">
        <ele>911</ele>
        <time>2014-06-28T10:02:42.000Z</time>
      </trkpt>
      <trkpt lat="45.16285" lon="5.65627">
        <ele>910</ele>
        <time>2014-06-28T10:02:43.000Z</time>
      </trkpt>
      <trkpt lat="45.16283" lon="5.65625">
        <ele>910</ele>
        <time>2014-06-28T10:02:44.000Z</time>
      </trkpt>
      <trkpt lat="45.16281" lon="5.65623">
        <ele>910</ele>
        <time>2014-06-28T10:02:45.000Z</time>
      </trkpt>
      <trkpt lat="45.16278" lon="5.65621">
        <ele>909</ele>
        <time>2014-06-28T10:02:46.000Z</time>
      </trkpt>
      <trkpt lat="45.16276" lon="5.65619">
        <ele>909</ele>
        <time>2014-06-28T10:02:47.000Z</time>
      </trkpt>
      <trkpt lat="45.16273" lon="5.65616">
        <ele>909</ele>
        <time>2014-06-28T10:02:48.000Z</time>
      </trkpt>
      <trkpt lat="45.16271" lon="5.65614">
        <ele>908</ele>
        <time>2014-06-28T10:02:49.000Z</time>
      </trkpt>
      <trkpt lat="45.16269" lon="5.6561">
        <ele>908</ele>
        <time>2014-06-28T10:02:50.000Z</time>
      </trkpt>
      <trkpt lat="45.16266" lon="5.65607">
        <ele>908</ele>
        <time>2014-06-28T10:02:51.000Z</time>
      </trkpt>
      <trkpt lat="45.16263" lon="5.65604">
        <ele>907</ele>
        <time>2014-06-28T10:02:52.000Z</time>
      </trkpt>
      <trkpt lat="45.16261" lon="5.65601">
        <ele>907</ele>
        <time>2014-06-28T10:02:53.000Z</time>
      </trkpt>
      <trkpt lat="45.16259" lon="5.65598">
        <ele>906</ele>
        <time>2014-06-28T10:02:54.000Z</time>
      </trkpt>
      <trkpt lat="45.16256" lon="5.65595">
        <ele>906</ele>
        <time>2014-06-28T10:02:55.000Z</time>
      </trkpt>
      <trkpt lat="45.16254" lon="5.65592">
        <ele>905</ele>
        <time>2014-06-28T10:02:56.000Z</time>
      </trkpt>
      <trkpt lat="45.16252" lon="5.65589">
        <ele>905</ele>
        <time>2014-06-28T10:02:57.000Z</time>
      </trkpt>
      <trkpt lat="45.16249" lon="5.65587">
        <ele>905</ele>
        <time>2014-06-28T10:02:58.000Z</time>
      </trkpt>
      <trkpt lat="45.16247" lon="5.65584">
        <ele>904</ele>
        <time>2014-06-28T10:02:59.000Z</time>
      </trkpt>
      <trkpt lat="45.16244" lon="5.65582">
        <ele>904</ele>
        <time>2014-06-28T10:03:00.000Z</time>
      </trkpt>
      <trkpt lat="45.16242" lon="5.6558">
        <ele>904</ele>
        <time>2014-06-28T10:03:01.000Z</time>
      </trkpt>
      <trkpt lat="45.1624" lon="5.65578">
        <ele>903</ele>
        <time>2014-06-28T10:03:02.000Z</time>
      </trkpt>
      <trkpt lat="45.16238" lon="5.65576">
        <ele>903</ele>
        <time>2014-06-28T10:03:03.000Z</time>
      </trkpt>
      <trkpt lat="45.16236" lon="5.65574">
        <ele>903</ele>
        <time>2014-06-28T10:03:04.000Z</time>
      </trkpt>
      <trkpt lat="45.16234" lon="5.65572">
        <ele>902</ele>
        <time>2014-06-28T10:03:05.000Z</time>
      </trkpt>
      <trkpt lat="45.16231" lon="5.65569">
        <ele>902</ele>
        <time>2014-06-28T10:03:06.000Z</time>
      </trkpt>
      <trkpt lat="45.16229" lon="5.65567">
        <ele>902</ele>
        <time>2014-06-28T10:03:07.000Z</time>
      </trkpt>
      <trkpt lat="45.16227" lon="5.65565">
        <ele>901</ele>
        <time>2014-06-28T10:03:08.000Z</time>
      </trkpt>
      <trkpt lat="45.16226" lon="5.65562">
        <ele>901</ele>
        <time>2014-06-28T10:03:09.000Z</time>
      </trkpt>
      <trkpt lat="45.16224" lon="5.65559">
        <ele>901</ele>
        <time>2014-06-28T10:03:10.000Z</time>
      </trkpt>
      <trkpt lat="45.16222" lon="5.65557">
        <ele>900</ele>
        <time>2014-06-28T10:03:11.000Z</time>
      </trkpt>
      <trkpt lat="45.16219" lon="5.65554">
        <ele>900</ele>
        <time>2014-06-28T10:03:12.000Z</time>
      </trkpt>
      <trkpt lat="45.16217" lon="5.65551">
        <ele>899</ele>
        <time>2014-06-28T10:03:13.000Z</time>
      </trkpt>
      <trkpt lat="45.16215" lon="5.65548">
        <ele>899</ele>
        <time>2014-06-28T10:03:14.000Z</time>
      </trkpt>
      <trkpt lat="45.16213" lon="5.65545">
        <ele>899</ele>
        <time>2014-06-28T10:03:15.000Z</time>
      </trkpt>
      <trkpt lat="45.1621" lon="5.65542">
        <ele>898</ele>
        <time>2014-06-28T10:03:16.000Z</time>
      </trkpt>
      <trkpt lat="45.16208" lon="5.65538">
        <ele>898</ele>
        <time>2014-06-28T10:03:17.000Z</time>
      </trkpt>
      <trkpt lat="45.16206" lon="5.65535">
        <ele>898</ele>
        <time>2014-06-28T10:03:18.000Z</time>
      </trkpt>
      <trkpt lat="45.16204" lon="5.65533">
        <ele>897</ele>
        <time>2014-06-28T10:03:19.000Z</time>
      </trkpt>
      <trkpt lat="45.16202" lon="5.6553">
        <ele>897</ele>
        <time>2014-06-28T10:03:20.000Z</time>
      </trkpt>
      <trkpt lat="45.162" lon="5.65526">
        <ele>897</ele>
        <time>2014-06-28T10:03:21.000Z</time>
      </trkpt>
      <trkpt lat="45.16198" lon="5.65522">
        <ele>896</ele>
        <time>2014-06-28T10:03:22.000Z</time>
      </trkpt>
      <trkpt lat="45.16196" lon="5.65519">
        <ele>896</ele>
        <time>2014-06-28T10:03:23.000Z</time>
      </trkpt>
      <trkpt lat="45.16194" lon="5.65516">
        <ele>896</ele>
        <time>2014-06-28T10:03:24.000Z</time>
      </trkpt>
      <trkpt lat="45.16192" lon="5.65513">
        <ele>896</ele>
        <time>2014-06-28T10:03:25.000Z</time>
      </trkpt>
      <trkpt lat="45.1619" lon="5.65511">
        <ele>896</ele>
        <time>2014-06-28T10:03:26.000Z</time>
      </trkpt>
      <trkpt lat="45.16188" lon="5.65508">
        <ele>895</ele>
        <time>2014-06-28T10:03:27.000Z</time>
      </trkpt>
      <trkpt lat="45.16185" lon="5.65505">
        <ele>895</ele>
        <time>2014-06-28T10:03:28.000Z</time>
      </trkpt>
      <trkpt lat="45.16183" lon="5.65502">
        <ele>895</ele>
        <time>2014-06-28T10:03:29.000Z</time>
      </trkpt>
      <trkpt lat="45.16181" lon="5.655">
        <ele>895</ele>
        <time>2014-06-28T10:03:30.000Z</time>
      </trkpt>
      <trkpt lat="45.16179" lon="5.65497">
        <ele>894</ele>
        <time>2014-06-28T10:03:31.000Z</time>
      </trkpt>
      <trkpt lat="45.16176" lon="5.65495">
        <ele>894</ele>
        <time>2014-06-28T10:03:32.000Z</time>
      </trkpt>
      <trkpt lat="45.16173" lon="5.65493">
        <ele>894</ele>
        <time>2014-06-28T10:03:33.000Z</time>
      </trkpt>
      <trkpt lat="45.16171" lon="5.65491">
        <ele>894</ele>
        <time>2014-06-28T10:03:34.000Z</time>
      </trkpt>
      <trkpt lat="45.16168" lon="5.6549">
        <ele>894</ele>
        <time>2014-06-28T10:03:35.000Z</time>
      </trkpt>
      <trkpt lat="45.16165" lon="5.65489">
        <ele>893</ele>
        <time>2014-06-28T10:03:36.000Z</time>
      </trkpt>
      <trkpt lat="45.16163" lon="5.65489">
        <ele>893</ele>
        <time>2014-06-28T10:03:37.000Z</time>
      </trkpt>
      <trkpt lat="45.1616" lon="5.65488">
        <ele>893</ele>
        <time>2014-06-28T10:03:38.000Z</time>
      </trkpt>
      <trkpt lat="45.16157" lon="5.65488">
        <ele>893</ele>
        <time>2014-06-28T10:03:39.000Z</time>
      </trkpt>
      <trkpt lat="45.16154" lon="5.65488">
        <ele>893</ele>
        <time>2014-06-28T10:03:40.000Z</time>
      </trkpt>
      <trkpt lat="45.16151" lon="5.65489">
        <ele>893</ele>
        <time>2014-06-28T10:03:41.000Z</time>
      </trkpt>
      <trkpt lat="45.16147" lon="5.65489">
        <ele>893</ele>
        <time>2014-06-28T10:03:42.000Z</time>
      </trkpt>
      <trkpt lat="45.16144" lon="5.6549">
        <ele>893</ele>
        <time>2014-06-28T10:03:43.000Z</time>
      </trkpt>
      <trkpt lat="45.16141" lon="5.6549">
        <ele>893</ele>
        <time>2014-06-28T10:03:44.000Z</time>
      </trkpt>
      <trkpt lat="45.16138" lon="5.65491">
        <ele>893</ele>
        <time>2014-06-28T10:03:45.000Z</time>
      </trkpt>
      <trkpt lat="45.16135" lon="5.65492">
        <ele>893</ele>
        <time>2014-06-28T10:03:46.000Z</time>
      </trkpt>
      <trkpt lat="45.16132" lon="5.65494">
        <ele>893</ele>
        <time>2014-06-28T10:03:47.000Z</time>
      </trkpt>
      <trkpt lat="45.16129" lon="5.65496">
        <ele>893</ele>
        <time>2014-06-28T10:03:48.000Z</time>
      </trkpt>
      <trkpt lat="45.16126" lon="5.65498">
        <ele>893</ele>
        <time>2014-06-28T10:03:49.000Z</time>
      </trkpt>
      <trkpt lat="45.16123" lon="5.65501">
        <ele>893</ele>
        <time>2014-06-28T10:03:50.000Z</time>
      </trkpt>
      <trkpt lat="45.1612" lon="5.65503">
        <ele>893</ele>
        <time>2014-06-28T10:03:51.000Z</time>
      </trkpt>
      <trkpt lat="45.16117" lon="5.65506">
        <ele>893</ele>
        <time>2014-06-28T10:03:52.000Z</time>
      </trkpt>
      <trkpt lat="45.16114" lon="5.65508">
        <ele>893</ele>
        <time>2014-06-28T10:03:53.000Z</time>
      </trkpt>
      <trkpt lat="45.16112" lon="5.65511">
        <ele>892</ele>
        <time>2014-06-28T10:03:54.000Z</time>
      </trkpt>
      <trkpt lat="45.16109" lon="5.65513">
        <ele>892</ele>
        <time>2014-06-28T10:03:55.000Z</time>
      </trkpt>
      <trkpt lat="45.16107" lon="5.65516">
        <ele>892</ele>
        <time>2014-06-28T10:03:56.000Z</time>
      </trkpt>
      <trkpt lat="45.16106" lon="5.65518">
        <ele>892</ele>
        <time>2014-06-28T10:03:57.000Z</time>
      </trkpt>
      <trkpt lat="45.16104" lon="5.65522">
        <ele>892</ele>
        <time>2014-06-28T10:03:58.000Z</time>
      </trkpt>
      <trkpt lat="45.16102" lon="5.65525">
        <ele>892</ele>
        <time>2014-06-28T10:03:59.000Z</time>
      </trkpt>
      <trkpt lat="45.16101" lon="5.65528">
        <ele>892</ele>
        <time>2014-06-28T10:04:00.000Z</time>
      </trkpt>
      <trkpt lat="45.161" lon="5.65532">
        <ele>892</ele>
        <time>2014-06-28T10:04:01.000Z</time>
      </trkpt>
      <trkpt lat="45.16099" lon="5.65535">
        <ele>892</ele>
        <time>2014-06-28T10:04:02.000Z</time>
      </trkpt>
      <trkpt lat="45.16098" lon="5.65539">
        <ele>892</ele>
        <time>2014-06-28T10:04:03.000Z</time>
      </trkpt>
      <trkpt lat="45.16098" lon="5.65542">
        <ele>892</ele>
        <time>2014-06-28T10:04:04.000Z</time>
      </trkpt>
      <trkpt lat="45.16098" lon="5.65546">
        <ele>892</ele>
        <time>2014-06-28T10:04:05.000Z</time>
      </trkpt>
      <trkpt lat="45.16098" lon="5.6555">
        <ele>892</ele>
        <time>2014-06-28T10:04:06.000Z</time>
      </trkpt>
      <trkpt lat="45.16098" lon="5.65553">
        <ele>892</ele>
        <time>2014-06-28T10:04:07.000Z</time>
      </trkpt>
      <trkpt lat="45.16098" lon="5.65557">
        <ele>892</ele>
        <time>2014-06-28T10:04:08.000Z</time>
      </trkpt>
      <trkpt lat="45.16098" lon="5.6556">
        <ele>892</ele>
        <time>2014-06-28T10:04:09.000Z</time>
      </trkpt>
      <trkpt lat="45.16098" lon="5.65564">
        <ele>892</ele>
        <time>2014-06-28T10:04:10.000Z</time>
      </trkpt>
      <trkpt lat="45.16098" lon="5.65569">
        <ele>891</ele>
        <time>2014-06-28T10:04:11.000Z</time>
      </trkpt>
      <trkpt lat="45.16098" lon="5.65573">
        <ele>891</ele>
        <time>2014-06-28T10:04:12.000Z</time>
      </trkpt>
      <trkpt lat="45.16098" lon="5.65578">
        <ele>891</ele>
        <time>2014-06-28T10:04:13.000Z</time>
      </trkpt>
      <trkpt lat="45.16099" lon="5.65583">
        <ele>891</ele>
        <time>2014-06-28T10:04:14.000Z</time>
      </trkpt>
      <trkpt lat="45.161" lon="5.65589">
        <ele>891</ele>
        <time>2014-06-28T10:04:15.000Z</time>
      </trkpt>
      <trkpt lat="45.161" lon="5.65594">
        <ele>891</ele>
        <time>2014-06-28T10:04:16.000Z</time>
      </trkpt>
      <trkpt lat="45.161" lon="5.65599">
        <ele>891</ele>
        <time>2014-06-28T10:04:17.000Z</time>
      </trkpt>
      <trkpt lat="45.16101" lon="5.65604">
        <ele>891</ele>
        <time>2014-06-28T10:04:18.000Z</time>
      </trkpt>
      <trkpt lat="45.16101" lon="5.65609">
        <ele>891</ele>
        <time>2014-06-28T10:04:19.000Z</time>
      </trkpt>
      <trkpt lat="45.16102" lon="5.65613">
        <ele>890</ele>
        <time>2014-06-28T10:04:20.000Z</time>
      </trkpt>
      <trkpt lat="45.16103" lon="5.65618">
        <ele>890</ele>
        <time>2014-06-28T10:04:21.000Z</time>
      </trkpt>
      <trkpt lat="45.16104" lon="5.65623">
        <ele>890</ele>
        <time>2014-06-28T10:04:22.000Z</time>
      </trkpt>
      <trkpt lat="45.16105" lon="5.65627">
        <ele>890</ele>
        <time>2014-06-28T10:04:23.000Z</time>
      </trkpt>
      <trkpt lat="45.16106" lon="5.65632">
        <ele>889</ele>
        <time>2014-06-28T10:04:24.000Z</time>
      </trkpt>
      <trkpt lat="45.16107" lon="5.65635">
        <ele>889</ele>
        <time>2014-06-28T10:04:25.000Z</time>
      </trkpt>
      <trkpt lat="45.16109" lon="5.65639">
        <ele>889</ele>
        <time>2014-06-28T10:04:26.000Z</time>
      </trkpt>
      <trkpt lat="45.1611" lon="5.65642">
        <ele>889</ele>
        <time>2014-06-28T10:04:27.000Z</time>
      </trkpt>
      <trkpt lat="45.16111" lon="5.65645">
        <ele>888</ele>
        <time>2014-06-28T10:04:28.000Z</time>
      </trkpt>
      <trkpt lat="45.16113" lon="5.65648">
        <ele>888</ele>
        <time>2014-06-28T10:04:29.000Z</time>
      </trkpt>
      <trkpt lat="45.16115" lon="5.6565">
        <ele>888</ele>
        <time>2014-06-28T10:04:30.000Z</time>
      </trkpt>
      <trkpt lat="45.16117" lon="5.65652">
        <ele>888</ele>
        <time>2014-06-28T10:04:31.000Z</time>
      </trkpt>
      <trkpt lat="45.16119" lon="5.65654">
        <ele>887</ele>
        <time>2014-06-28T10:04:32.000Z</time>
      </trkpt>
      <trkpt lat="45.16121" lon="5.65655">
        <ele>887</ele>
        <time>2014-06-28T10:04:33.000Z</time>
      </trkpt>
      <trkpt lat="45.16124" lon="5.65656">
        <ele>887</ele>
        <time>2014-06-28T10:04:34.000Z</time>
      </trkpt>
      <trkpt lat="45.16126" lon="5.65657">
        <ele>886</ele>
        <time>2014-06-28T10:04:35.000Z</time>
      </trkpt>
      <trkpt lat="45.16128" lon="5.65658">
        <ele>886</ele>
        <time>2014-06-28T10:04:36.000Z</time>
      </trkpt>
      <trkpt lat="45.16131" lon="5.65659">
        <ele>886</ele>
        <time>2014-06-28T10:04:37.000Z</time>
      </trkpt>
      <trkpt lat="45.16134" lon="5.65659">
        <ele>885</ele>
        <time>2014-06-28T10:04:38.000Z</time>
      </trkpt>
      <trkpt lat="45.16137" lon="5.65659">
        <ele>885</ele>
        <time>2014-06-28T10:04:39.000Z</time>
      </trkpt>
      <trkpt lat="45.1614" lon="5.65659">
        <ele>885</ele>
        <time>2014-06-28T10:04:40.000Z</time>
      </trkpt>
      <trkpt lat="45.16143" lon="5.65658">
        <ele>884</ele>
        <time>2014-06-28T10:04:41.000Z</time>
      </trkpt>
      <trkpt lat="45.16147" lon="5.65656">
        <ele>884</ele>
        <time>2014-06-28T10:04:42.000Z</time>
      </trkpt>
      <trkpt lat="45.16151" lon="5.65654">
        <ele>883</ele>
        <time>2014-06-28T10:04:43.000Z</time>
      </trkpt>
      <trkpt lat="45.16156" lon="5.65653">
        <ele>883</ele>
        <time>2014-06-28T10:04:44.000Z</time>
      </trkpt>
      <trkpt lat="45.1616" lon="5.65651">
        <ele>883</ele>
        <time>2014-06-28T10:04:45.000Z</time>
      </trkpt>
      <trkpt lat="45.16165" lon="5.65649">
        <ele>882</ele>
        <time>2014-06-28T10:04:46.000Z</time>
      </trkpt>
      <trkpt lat="45.1617" lon="5.65647">
        <ele>882</ele>
        <time>2014-06-28T10:04:47.000Z</time>
      </trkpt>
      <trkpt lat="45.16175" lon="5.65644">
        <ele>881</ele>
        <time>2014-06-28T10:04:48.000Z</time>
      </trkpt>
      <trkpt lat="45.1618" lon="5.65642">
        <ele>881</ele>
        <time>2014-06-28T10:04:49.000Z</time>
      </trkpt>
      <trkpt lat="45.16185" lon="5.6564">
        <ele>880</ele>
        <time>2014-06-28T10:04:50.000Z</time>
      </trkpt>
      <trkpt lat="45.1619" lon="5.65639">
        <ele>880</ele>
        <time>2014-06-28T10:04:51.000Z</time>
      </trkpt>
      <trkpt lat="45.16194" lon="5.65638">
        <ele>879</ele>
        <time>2014-06-28T10:04:52.000Z</time>
      </trkpt>
      <trkpt lat="45.16199" lon="5.65638">
        <ele>879</ele>
        <time>2014-06-28T10:04:53.000Z</time>
      </trkpt>
      <trkpt lat="45.16203" lon="5.65638">
        <ele>878</ele>
        <time>2014-06-28T10:04:54.000Z</time>
      </trkpt>
      <trkpt lat="45.16207" lon="5.65638">
        <ele>877</ele>
        <time>2014-06-28T10:04:55.000Z</time>
      </trkpt>
      <trkpt lat="45.16211" lon="5.65638">
        <ele>877</ele>
        <time>2014-06-28T10:04:56.000Z</time>
      </trkpt>
      <trkpt lat="45.16214" lon="5.65639">
        <ele>877</ele>
        <time>2014-06-28T10:04:57.000Z</time>
      </trkpt>
      <trkpt lat="45.16217" lon="5.65639">
        <ele>876</ele>
        <time>2014-06-28T10:04:58.000Z</time>
      </trkpt>
      <trkpt lat="45.16221" lon="5.6564">
        <ele>876</ele>
        <time>2014-06-28T10:04:59.000Z</time>
      </trkpt>
      <trkpt lat="45.16224" lon="5.65642">
        <ele>875</ele>
        <time>2014-06-28T10:05:00.000Z</time>
      </trkpt>
      <trkpt lat="45.16226" lon="5.65643">
        <ele>875</ele>
        <time>2014-06-28T10:05:01.000Z</time>
      </trkpt>
      <trkpt lat="45.16229" lon="5.65645">
        <ele>875</ele>
        <time>2014-06-28T10:05:02.000Z</time>
      </trkpt>
      <trkpt lat="45.16231" lon="5.65647">
        <ele>874</ele>
        <time>2014-06-28T10:05:03.000Z</time>
      </trkpt>
      <trkpt lat="45.16233" lon="5.6565">
        <ele>874</ele>
        <time>2014-06-28T10:05:04.000Z</time>
      </trkpt>
      <trkpt lat="45.16235" lon="5.65654">
        <ele>873</ele>
        <time>2014-06-28T10:05:05.000Z</time>
      </trkpt>
      <trkpt lat="45.16237" lon="5.65657">
        <ele>873</ele>
        <time>2014-06-28T10:05:06.000Z</time>
      </trkpt>
      <trkpt lat="45.16239" lon="5.65662">
        <ele>872</ele>
        <time>2014-06-28T10:05:07.000Z</time>
      </trkpt>
      <trkpt lat="45.1624" lon="5.65665">
        <ele>872</ele>
        <time>2014-06-28T10:05:08.000Z</time>
      </trkpt>
      <trkpt lat="45.16241" lon="5.6567">
        <ele>871</ele>
        <time>2014-06-28T10:05:09.000Z</time>
      </trkpt>
      <trkpt lat="45.16243" lon="5.65674">
        <ele>871</ele>
        <time>2014-06-28T10:05:10.000Z</time>
      </trkpt>
      <trkpt lat="45.16245" lon="5.65677">
        <ele>870</ele>
        <time>2014-06-28T10:05:11.000Z</time>
      </trkpt>
      <trkpt lat="45.16246" lon="5.65681">
        <ele>870</ele>
        <time>2014-06-28T10:05:12.000Z</time>
      </trkpt>
      <trkpt lat="45.16248" lon="5.65685">
        <ele>870</ele>
        <time>2014-06-28T10:05:13.000Z</time>
      </trkpt>
      <trkpt lat="45.16249" lon="5.65689">
        <ele>870</ele>
        <time>2014-06-28T10:05:14.000Z</time>
      </trkpt>
      <trkpt lat="45.16251" lon="5.65693">
        <ele>869</ele>
        <time>2014-06-28T10:05:15.000Z</time>
      </trkpt>
      <trkpt lat="45.16252" lon="5.65697">
        <ele>869</ele>
        <time>2014-06-28T10:05:16.000Z</time>
      </trkpt>
      <trkpt lat="45.16254" lon="5.65701">
        <ele>869</ele>
        <time>2014-06-28T10:05:17.000Z</time>
      </trkpt>
      <trkpt lat="45.16255" lon="5.65705">
        <ele>868</ele>
        <time>2014-06-28T10:05:18.000Z</time>
      </trkpt>
      <trkpt lat="45.16257" lon="5.65709">
        <ele>868</ele>
        <time>2014-06-28T10:05:19.000Z</time>
      </trkpt>
      <trkpt lat="45.16258" lon="5.65713">
        <ele>868</ele>
        <time>2014-06-28T10:05:20.000Z</time>
      </trkpt>
      <trkpt lat="45.1626" lon="5.65717">
        <ele>868</ele>
        <time>2014-06-28T10:05:21.000Z</time>
      </trkpt>
      <trkpt lat="45.16262" lon="5.6572">
        <ele>868</ele>
        <time>2014-06-28T10:05:22.000Z</time>
      </trkpt>
      <trkpt lat="45.16264" lon="5.65724">
        <ele>867</ele>
        <time>2014-06-28T10:05:23.000Z</time>
      </trkpt>
      <trkpt lat="45.16266" lon="5.65727">
        <ele>867</ele>
        <time>2014-06-28T10:05:24.000Z</time>
      </trkpt>
      <trkpt lat="45.16268" lon="5.65729">
        <ele>867</ele>
        <time>2014-06-28T10:05:25.000Z</time>
      </trkpt>
      <trkpt lat="45.1627" lon="5.65732">
        <ele>867</ele>
        <time>2014-06-28T10:05:26.000Z</time>
      </trkpt>
      <trkpt lat="45.16272" lon="5.65735">
        <ele>867</ele>
        <time>2014-06-28T10:05:27.000Z</time>
      </trkpt>
      <trkpt lat="45.16274" lon="5.65737">
        <ele>866</ele>
        <time>2014-06-28T10:05:28.000Z</time>
      </trkpt>
      <trkpt lat="45.16277" lon="5.65739">
        <ele>866</ele>
        <time>2014-06-28T10:05:29.000Z</time>
      </trkpt>
      <trkpt lat="45.16281" lon="5.6574">
        <ele>866</ele>
        <time>2014-06-28T10:05:30.000Z</time>
      </trkpt>
      <trkpt lat="45.16284" lon="5.6574">
        <ele>866</ele>
        <time>2014-06-28T10:05:31.000Z</time>
      </trkpt>
      <trkpt lat="45.16288" lon="5.6574">
        <ele>866</ele>
        <time>2014-06-28T10:05:32.000Z</time>
      </trkpt>
      <trkpt lat="45.16291" lon="5.6574">
        <ele>865</ele>
        <time>2014-06-28T10:05:33.000Z</time>
      </trkpt>
      <trkpt lat="45.16294" lon="5.65739">
        <ele>865</ele>
        <time>2014-06-28T10:05:34.000Z</time>
      </trkpt>
      <trkpt lat="45.16298" lon="5.65739">
        <ele>865</ele>
        <time>2014-06-28T10:05:35.000Z</time>
      </trkpt>
      <trkpt lat="45.16301" lon="5.65739">
        <ele>865</ele>
        <time>2014-06-28T10:05:36.000Z</time>
      </trkpt>
      <trkpt lat="45.16305" lon="5.65739">
        <ele>865</ele>
        <time>2014-06-28T10:05:37.000Z</time>
      </trkpt>
      <trkpt lat="45.16308" lon="5.65738">
        <ele>864</ele>
        <time>2014-06-28T10:05:38.000Z</time>
      </trkpt>
      <trkpt lat="45.16311" lon="5.65738">
        <ele>864</ele>
        <time>2014-06-28T10:05:39.000Z</time>
      </trkpt>
      <trkpt lat="45.16314" lon="5.65737">
        <ele>864</ele>
        <time>2014-06-28T10:05:40.000Z</time>
      </trkpt>
      <trkpt lat="45.16318" lon="5.65737">
        <ele>864</ele>
        <time>2014-06-28T10:05:41.000Z</time>
      </trkpt>
      <trkpt lat="45.16321" lon="5.65736">
        <ele>864</ele>
        <time>2014-06-28T10:05:42.000Z</time>
      </trkpt>
      <trkpt lat="45.16324" lon="5.65736">
        <ele>864</ele>
        <time>2014-06-28T10:05:43.000Z</time>
      </trkpt>
      <trkpt lat="45.16328" lon="5.65735">
        <ele>864</ele>
        <time>2014-06-28T10:05:44.000Z</time>
      </trkpt>
      <trkpt lat="45.16331" lon="5.65734">
        <ele>863</ele>
        <time>2014-06-28T10:05:45.000Z</time>
      </trkpt>
      <trkpt lat="45.16334" lon="5.65734">
        <ele>863</ele>
        <time>2014-06-28T10:05:46.000Z</time>
      </trkpt>
      <trkpt lat="45.16337" lon="5.65734">
        <ele>863</ele>
        <time>2014-06-28T10:05:47.000Z</time>
      </trkpt>
      <trkpt lat="45.16341" lon="5.65734">
        <ele>863</ele>
        <time>2014-06-28T10:05:48.000Z</time>
      </trkpt>
      <trkpt lat="45.16345" lon="5.65734">
        <ele>863</ele>
        <time>2014-06-28T10:05:49.000Z</time>
      </trkpt>
      <trkpt lat="45.16349" lon="5.65733">
        <ele>863</ele>
        <time>2014-06-28T10:05:50.000Z</time>
      </trkpt>
      <trkpt lat="45.16353" lon="5.65733">
        <ele>863</ele>
        <time>2014-06-28T10:05:51.000Z</time>
      </trkpt>
      <trkpt lat="45.16357" lon="5.65733">
        <ele>863</ele>
        <time>2014-06-28T10:05:52.000Z</time>
      </trkpt>
      <trkpt lat="45.16361" lon="5.65732">
        <ele>863</ele>
        <time>2014-06-28T10:05:53.000Z</time>
      </trkpt>
      <trkpt lat="45.16364" lon="5.65732">
        <ele>863</ele>
        <time>2014-06-28T10:05:54.000Z</time>
      </trkpt>
      <trkpt lat="45.16368" lon="5.65732">
        <ele>862</ele>
        <time>2014-06-28T10:05:55.000Z</time>
      </trkpt>
      <trkpt lat="45.16371" lon="5.65732">
        <ele>862</ele>
        <time>2014-06-28T10:05:56.000Z</time>
      </trkpt>
      <trkpt lat="45.16374" lon="5.65732">
        <ele>862</ele>
        <time>2014-06-28T10:05:57.000Z</time>
      </trkpt>
      <trkpt lat="45.16377" lon="5.65733">
        <ele>862</ele>
        <time>2014-06-28T10:05:58.000Z</time>
      </trkpt>
      <trkpt lat="45.1638" lon="5.65733">
        <ele>862</ele>
        <time>2014-06-28T10:05:59.000Z</time>
      </trkpt>
      <trkpt lat="45.16383" lon="5.65733">
        <ele>862</ele>
        <time>2014-06-28T10:06:00.000Z</time>
      </trkpt>
      <trkpt lat="45.16386" lon="5.65734">
        <ele>861</ele>
        <time>2014-06-28T10:06:01.000Z</time>
      </trkpt>
      <trkpt lat="45.16389" lon="5.65734">
        <ele>861</ele>
        <time>2014-06-28T10:06:02.000Z</time>
      </trkpt>
      <trkpt lat="45.16392" lon="5.65735">
        <ele>861</ele>
        <time>2014-06-28T10:06:03.000Z</time>
      </trkpt>
      <trkpt lat="45.16394" lon="5.65735">
        <ele>861</ele>
        <time>2014-06-28T10:06:04.000Z</time>
      </trkpt>
      <trkpt lat="45.16397" lon="5.65736">
        <ele>861</ele>
        <time>2014-06-28T10:06:05.000Z</time>
      </trkpt>
      <trkpt lat="45.16399" lon="5.65735">
        <ele>861</ele>
        <time>2014-06-28T10:06:06.000Z</time>
      </trkpt>
      <trkpt lat="45.16402" lon="5.65736">
        <ele>860</ele>
        <time>2014-06-28T10:06:07.000Z</time>
      </trkpt>
      <trkpt lat="45.16404" lon="5.65736">
        <ele>860</ele>
        <time>2014-06-28T10:06:08.000Z</time>
      </trkpt>
      <trkpt lat="45.16406" lon="5.65736">
        <ele>860</ele>
        <time>2014-06-28T10:06:09.000Z</time>
      </trkpt>
      <trkpt lat="45.16409" lon="5.65736">
        <ele>860</ele>
        <time>2014-06-28T10:06:10.000Z</time>
      </trkpt>
      <trkpt lat="45.16411" lon="5.65736">
        <ele>860</ele>
        <time>2014-06-28T10:06:11.000Z</time>
      </trkpt>
      <trkpt lat="45.16414" lon="5.65735">
        <ele>860</ele>
        <time>2014-06-28T10:06:12.000Z</time>
      </trkpt>
      <trkpt lat="45.16416" lon="5.65734">
        <ele>860</ele>
        <time>2014-06-28T10:06:13.000Z</time>
      </trkpt>
      <trkpt lat="45.16419" lon="5.65734">
        <ele>860</ele>
        <time>2014-06-28T10:06:14.000Z</time>
      </trkpt>
      <trkpt lat="45.16421" lon="5.65733">
        <ele>860</ele>
        <time>2014-06-28T10:06:15.000Z</time>
      </trkpt>
      <trkpt lat="45.16424" lon="5.65733">
        <ele>860</ele>
        <time>2014-06-28T10:06:16.000Z</time>
      </trkpt>
      <trkpt lat="45.16427" lon="5.65733">
        <ele>860</ele>
        <time>2014-06-28T10:06:17.000Z</time>
      </trkpt>
      <trkpt lat="45.1643" lon="5.65733">
        <ele>859</ele>
        <time>2014-06-28T10:06:18.000Z</time>
      </trkpt>
      <trkpt lat="45.16433" lon="5.65732">
        <ele>859</ele>
        <time>2014-06-28T10:06:19.000Z</time>
      </trkpt>
      <trkpt lat="45.16436" lon="5.65732">
        <ele>859</ele>
        <time>2014-06-28T10:06:20.000Z</time>
      </trkpt>
      <trkpt lat="45.16439" lon="5.65732">
        <ele>859</ele>
        <time>2014-06-28T10:06:21.000Z</time>
      </trkpt>
      <trkpt lat="45.16442" lon="5.65731">
        <ele>859</ele>
        <time>2014-06-28T10:06:22.000Z</time>
      </trkpt>
      <trkpt lat="45.16445" lon="5.6573">
        <ele>859</ele>
        <time>2014-06-28T10:06:23.000Z</time>
      </trkpt>
      <trkpt lat="45.16448" lon="5.65729">
        <ele>859</ele>
        <time>2014-06-28T10:06:24.000Z</time>
      </trkpt>
      <trkpt lat="45.16452" lon="5.65728">
        <ele>859</ele>
        <time>2014-06-28T10:06:25.000Z</time>
      </trkpt>
      <trkpt lat="45.16455" lon="5.65728">
        <ele>859</ele>
        <time>2014-06-28T10:06:26.000Z</time>
      </trkpt>
      <trkpt lat="45.16458" lon="5.65727">
        <ele>859</ele>
        <time>2014-06-28T10:06:27.000Z</time>
      </trkpt>
      <trkpt lat="45.16461" lon="5.65727">
        <ele>859</ele>
        <time>2014-06-28T10:06:28.000Z</time>
      </trkpt>
      <trkpt lat="45.16465" lon="5.65726">
        <ele>858</ele>
        <time>2014-06-28T10:06:29.000Z</time>
      </trkpt>
      <trkpt lat="45.16468" lon="5.65725">
        <ele>858</ele>
        <time>2014-06-28T10:06:30.000Z</time>
      </trkpt>
      <trkpt lat="45.16472" lon="5.65724">
        <ele>858</ele>
        <time>2014-06-28T10:06:31.000Z</time>
      </trkpt>
      <trkpt lat="45.16476" lon="5.65722">
        <ele>858</ele>
        <time>2014-06-28T10:06:32.000Z</time>
      </trkpt>
      <trkpt lat="45.16479" lon="5.65721">
        <ele>858</ele>
        <time>2014-06-28T10:06:33.000Z</time>
      </trkpt>
      <trkpt lat="45.16483" lon="5.6572">
        <ele>858</ele>
        <time>2014-06-28T10:06:34.000Z</time>
      </trkpt>
      <trkpt lat="45.16486" lon="5.65718">
        <ele>858</ele>
        <time>2014-06-28T10:06:35.000Z</time>
      </trkpt>
      <trkpt lat="45.16489" lon="5.65717">
        <ele>858</ele>
        <time>2014-06-28T10:06:36.000Z</time>
      </trkpt>
      <trkpt lat="45.16493" lon="5.65716">
        <ele>858</ele>
        <time>2014-06-28T10:06:37.000Z</time>
      </trkpt>
      <trkpt lat="45.16496" lon="5.65715">
        <ele>858</ele>
        <time>2014-06-28T10:06:38.000Z</time>
      </trkpt>
      <trkpt lat="45.16499" lon="5.65714">
        <ele>858</ele>
        <time>2014-06-28T10:06:39.000Z</time>
      </trkpt>
      <trkpt lat="45.16502" lon="5.65713">
        <ele>858</ele>
        <time>2014-06-28T10:06:40.000Z</time>
      </trkpt>
      <trkpt lat="45.16506" lon="5.65713">
        <ele>858</ele>
        <time>2014-06-28T10:06:41.000Z</time>
      </trkpt>
      <trkpt lat="45.16508" lon="5.65712">
        <ele>858</ele>
        <time>2014-06-28T10:06:42.000Z</time>
      </trkpt>
      <trkpt lat="45.16511" lon="5.65712">
        <ele>858</ele>
        <time>2014-06-28T10:06:43.000Z</time>
      </trkpt>
      <trkpt lat="45.16514" lon="5.65711">
        <ele>858</ele>
        <time>2014-06-28T10:06:44.000Z</time>
      </trkpt>
      <trkpt lat="45.16517" lon="5.6571">
        <ele>858</ele>
        <time>2014-06-28T10:06:45.000Z</time>
      </trkpt>
      <trkpt lat="45.1652" lon="5.65709">
        <ele>858</ele>
        <time>2014-06-28T10:06:46.000Z</time>
      </trkpt>
      <trkpt lat="45.16523" lon="5.65708">
        <ele>858</ele>
        <time>2014-06-28T10:06:47.000Z</time>
      </trkpt>
      <trkpt lat="45.16525" lon="5.65707">
        <ele>858</ele>
        <time>2014-06-28T10:06:48.000Z</time>
      </trkpt>
      <trkpt lat="45.16528" lon="5.65706">
        <ele>858</ele>
        <time>2014-06-28T10:06:49.000Z</time>
      </trkpt>
      <trkpt lat="45.1653" lon="5.65705">
        <ele>858</ele>
        <time>2014-06-28T10:06:50.000Z</time>
      </trkpt>
      <trkpt lat="45.16533" lon="5.65705">
        <ele>858</ele>
        <time>2014-06-28T10:06:51.000Z</time>
      </trkpt>
      <trkpt lat="45.16534" lon="5.65705">
        <ele>858</ele>
        <time>2014-06-28T10:06:52.000Z</time>
      </trkpt>
      <trkpt lat="45.16536" lon="5.65704">
        <ele>857</ele>
        <time>2014-06-28T10:06:53.000Z</time>
      </trkpt>
      <trkpt lat="45.16538" lon="5.65704">
        <ele>857</ele>
        <time>2014-06-28T10:06:54.000Z</time>
      </trkpt>
      <trkpt lat="45.1654" lon="5.65703">
        <ele>857</ele>
        <time>2014-06-28T10:06:55.000Z</time>
      </trkpt>
      <trkpt lat="45.16543" lon="5.65702">
        <ele>857</ele>
        <time>2014-06-28T10:06:56.000Z</time>
      </trkpt>
      <trkpt lat="45.16545" lon="5.65701">
        <ele>857</ele>
        <time>2014-06-28T10:06:57.000Z</time>
      </trkpt>
      <trkpt lat="45.16547" lon="5.65701">
        <ele>857</ele>
        <time>2014-06-28T10:06:58.000Z</time>
      </trkpt>
      <trkpt lat="45.16549" lon="5.657">
        <ele>857</ele>
        <time>2014-06-28T10:06:59.000Z</time>
      </trkpt>
      <trkpt lat="45.16552" lon="5.65699">
        <ele>857</ele>
        <time>2014-06-28T10:07:00.000Z</time>
      </trkpt>
      <trkpt lat="45.16555" lon="5.65699">
        <ele>857</ele>
        <time>2014-06-28T10:07:01.000Z</time>
      </trkpt>
      <trkpt lat="45.16558" lon="5.65698">
        <ele>857</ele>
        <time>2014-06-28T10:07:02.000Z</time>
      </trkpt>
      <trkpt lat="45.16561" lon="5.65697">
        <ele>856</ele>
        <time>2014-06-28T10:07:03.000Z</time>
      </trkpt>
      <trkpt lat="45.16564" lon="5.65696">
        <ele>856</ele>
        <time>2014-06-28T10:07:04.000Z</time>
      </trkpt>
      <trkpt lat="45.16568" lon="5.65694">
        <ele>856</ele>
        <time>2014-06-28T10:07:05.000Z</time>
      </trkpt>
      <trkpt lat="45.16571" lon="5.65692">
        <ele>856</ele>
        <time>2014-06-28T10:07:06.000Z</time>
      </trkpt>
      <trkpt lat="45.16575" lon="5.6569">
        <ele>856</ele>
        <time>2014-06-28T10:07:07.000Z</time>
      </trkpt>
      <trkpt lat="45.16579" lon="5.65688">
        <ele>856</ele>
        <time>2014-06-28T10:07:08.000Z</time>
      </trkpt>
      <trkpt lat="45.16583" lon="5.65686">
        <ele>856</ele>
        <time>2014-06-28T10:07:09.000Z</time>
      </trkpt>
      <trkpt lat="45.16588" lon="5.65684">
        <ele>856</ele>
        <time>2014-06-28T10:07:10.000Z</time>
      </trkpt>
      <trkpt lat="45.16592" lon="5.65682">
        <ele>855</ele>
        <time>2014-06-28T10:07:11.000Z</time>
      </trkpt>
      <trkpt lat="45.16597" lon="5.65679">
        <ele>855</ele>
        <time>2014-06-28T10:07:12.000Z</time>
      </trkpt>
      <trkpt lat="45.16603" lon="5.65678">
        <ele>855</ele>
        <time>2014-06-28T10:07:13.000Z</time>
      </trkpt>
      <trkpt lat="45.16608" lon="5.65676">
        <ele>855</ele>
        <time>2014-06-28T10:07:14.000Z</time>
      </trkpt>
      <trkpt lat="45.16612" lon="5.65675">
        <ele>855</ele>
        <time>2014-06-28T10:07:15.000Z</time>
      </trkpt>
      <trkpt lat="45.16617" lon="5.65674">
        <ele>854</ele>
        <time>2014-06-28T10:07:16.000Z</time>
      </trkpt>
      <trkpt lat="45.1662" lon="5.65674">
        <ele>854</ele>
        <time>2014-06-28T10:07:17.000Z</time>
      </trkpt>
      <trkpt lat="45.16624" lon="5.65674">
        <ele>854</ele>
        <time>2014-06-28T10:07:18.000Z</time>
      </trkpt>
      <trkpt lat="45.16627" lon="5.65674">
        <ele>854</ele>
        <time>2014-06-28T10:07:19.000Z</time>
      </trkpt>
      <trkpt lat="45.16631" lon="5.65675">
        <ele>854</ele>
        <time>2014-06-28T10:07:20.000Z</time>
      </trkpt>
      <trkpt lat="45.16634" lon="5.65675">
        <ele>853</ele>
        <time>2014-06-28T10:07:21.000Z</time>
      </trkpt>
      <trkpt lat="45.16637" lon="5.65677">
        <ele>853</ele>
        <time>2014-06-28T10:07:22.000Z</time>
      </trkpt>
      <trkpt lat="45.1664" lon="5.65679">
        <ele>853</ele>
        <time>2014-06-28T10:07:23.000Z</time>
      </trkpt>
      <trkpt lat="45.16643" lon="5.65681">
        <ele>852</ele>
        <time>2014-06-28T10:07:24.000Z</time>
      </trkpt>
      <trkpt lat="45.16647" lon="5.65684">
        <ele>852</ele>
        <time>2014-06-28T10:07:25.000Z</time>
      </trkpt>
      <trkpt lat="45.1665" lon="5.65687">
        <ele>852</ele>
        <time>2014-06-28T10:07:26.000Z</time>
      </trkpt>
      <trkpt lat="45.16652" lon="5.6569">
        <ele>851</ele>
        <time>2014-06-28T10:07:27.000Z</time>
      </trkpt>
      <trkpt lat="45.16654" lon="5.65694">
        <ele>851</ele>
        <time>2014-06-28T10:07:28.000Z</time>
      </trkpt>
      <trkpt lat="45.16656" lon="5.65698">
        <ele>851</ele>
        <time>2014-06-28T10:07:29.000Z</time>
      </trkpt>
      <trkpt lat="45.16658" lon="5.65702">
        <ele>850</ele>
        <time>2014-06-28T10:07:30.000Z</time>
      </trkpt>
      <trkpt lat="45.1666" lon="5.65706">
        <ele>850</ele>
        <time>2014-06-28T10:07:31.000Z</time>
      </trkpt>
      <trkpt lat="45.16661" lon="5.65709">
        <ele>849</ele>
        <time>2014-06-28T10:07:32.000Z</time>
      </trkpt>
      <trkpt lat="45.16663" lon="5.65714">
        <ele>849</ele>
        <time>2014-06-28T10:07:33.000Z</time>
      </trkpt>
      <trkpt lat="45.16664" lon="5.65718">
        <ele>848</ele>
        <time>2014-06-28T10:07:34.000Z</time>
      </trkpt>
      <trkpt lat="45.16666" lon="5.65722">
        <ele>848</ele>
        <time>2014-06-28T10:07:35.000Z</time>
      </trkpt>
      <trkpt lat="45.16667" lon="5.65726">
        <ele>847</ele>
        <time>2014-06-28T10:07:36.000Z</time>
      </trkpt>
      <trkpt lat="45.16669" lon="5.6573">
        <ele>847</ele>
        <time>2014-06-28T10:07:37.000Z</time>
      </trkpt>
      <trkpt lat="45.1667" lon="5.65734">
        <ele>846</ele>
        <time>2014-06-28T10:07:38.000Z</time>
      </trkpt>
      <trkpt lat="45.16672" lon="5.65738">
        <ele>846</ele>
        <time>2014-06-28T10:07:39.000Z</time>
      </trkpt>
      <trkpt lat="45.16673" lon="5.65741">
        <ele>846</ele>
        <time>2014-06-28T10:07:40.000Z</time>
      </trkpt>
      <trkpt lat="45.16674" lon="5.65745">
        <ele>845</ele>
        <time>2014-06-28T10:07:41.000Z</time>
      </trkpt>
      <trkpt lat="45.16676" lon="5.65748">
        <ele>845</ele>
        <time>2014-06-28T10:07:42.000Z</time>
      </trkpt>
      <trkpt lat="45.16677" lon="5.65752">
        <ele>845</ele>
        <time>2014-06-28T10:07:43.000Z</time>
      </trkpt>
      <trkpt lat="45.16679" lon="5.65755">
        <ele>844</ele>
        <time>2014-06-28T10:07:44.000Z</time>
      </trkpt>
      <trkpt lat="45.16681" lon="5.65757">
        <ele>844</ele>
        <time>2014-06-28T10:07:45.000Z</time>
      </trkpt>
      <trkpt lat="45.16682" lon="5.6576">
        <ele>844</ele>
        <time>2014-06-28T10:07:46.000Z</time>
      </trkpt>
      <trkpt lat="45.16684" lon="5.65762">
        <ele>843</ele>
        <time>2014-06-28T10:07:47.000Z</time>
      </trkpt>
      <trkpt lat="45.16686" lon="5.65765">
        <ele>843</ele>
        <time>2014-06-28T10:07:48.000Z</time>
      </trkpt>
      <trkpt lat="45.16688" lon="5.65767">
        <ele>843</ele>
        <time>2014-06-28T10:07:49.000Z</time>
      </trkpt>
      <trkpt lat="45.1669" lon="5.6577">
        <ele>842</ele>
        <time>2014-06-28T10:07:50.000Z</time>
      </trkpt>
      <trkpt lat="45.16692" lon="5.65772">
        <ele>842</ele>
        <time>2014-06-28T10:07:51.000Z</time>
      </trkpt>
      <trkpt lat="45.16694" lon="5.65774">
        <ele>842</ele>
        <time>2014-06-28T10:07:52.000Z</time>
      </trkpt>
      <trkpt lat="45.16696" lon="5.65777">
        <ele>842</ele>
        <time>2014-06-28T10:07:53.000Z</time>
      </trkpt>
      <trkpt lat="45.16699" lon="5.6578">
        <ele>841</ele>
        <time>2014-06-28T10:07:54.000Z</time>
      </trkpt>
      <trkpt lat="45.16701" lon="5.65783">
        <ele>841</ele>
        <time>2014-06-28T10:07:55.000Z</time>
      </trkpt>
      <trkpt lat="45.16703" lon="5.65786">
        <ele>841</ele>
        <time>2014-06-28T10:07:56.000Z</time>
      </trkpt>
      <trkpt lat="45.16706" lon="5.6579">
        <ele>840</ele>
        <time>2014-06-28T10:07:57.000Z</time>
      </trkpt>
      <trkpt lat="45.16708" lon="5.65793">
        <ele>840</ele>
        <time>2014-06-28T10:07:58.000Z</time>
      </trkpt>
      <trkpt lat="45.1671" lon="5.65796">
        <ele>839</ele>
        <time>2014-06-28T10:07:59.000Z</time>
      </trkpt>
      <trkpt lat="45.16712" lon="5.658">
        <ele>839</ele>
        <time>2014-06-28T10:08:00.000Z</time>
      </trkpt>
      <trkpt lat="45.16715" lon="5.65804">
        <ele>839</ele>
        <time>2014-06-28T10:08:01.000Z</time>
      </trkpt>
      <trkpt lat="45.16717" lon="5.65808">
        <ele>838</ele>
        <time>2014-06-28T10:08:02.000Z</time>
      </trkpt>
      <trkpt lat="45.16719" lon="5.65811">
        <ele>838</ele>
        <time>2014-06-28T10:08:03.000Z</time>
      </trkpt>
      <trkpt lat="45.16721" lon="5.65815">
        <ele>837</ele>
        <time>2014-06-28T10:08:04.000Z</time>
      </trkpt>
      <trkpt lat="45.16723" lon="5.65819">
        <ele>837</ele>
        <time>2014-06-28T10:08:05.000Z</time>
      </trkpt>
      <trkpt lat="45.16724" lon="5.65823">
        <ele>836</ele>
        <time>2014-06-28T10:08:06.000Z</time>
      </trkpt>
      <trkpt lat="45.16726" lon="5.65827">
        <ele>836</ele>
        <time>2014-06-28T10:08:07.000Z</time>
      </trkpt>
      <trkpt lat="45.16728" lon="5.65831">
        <ele>836</ele>
        <time>2014-06-28T10:08:08.000Z</time>
      </trkpt>
      <trkpt lat="45.1673" lon="5.65834">
        <ele>835</ele>
        <time>2014-06-28T10:08:09.000Z</time>
      </trkpt>
      <trkpt lat="45.16733" lon="5.65837">
        <ele>835</ele>
        <time>2014-06-28T10:08:10.000Z</time>
      </trkpt>
      <trkpt lat="45.16736" lon="5.65839">
        <ele>835</ele>
        <time>2014-06-28T10:08:11.000Z</time>
      </trkpt>
      <trkpt lat="45.16739" lon="5.65842">
        <ele>834</ele>
        <time>2014-06-28T10:08:12.000Z</time>
      </trkpt>
      <trkpt lat="45.16741" lon="5.65845">
        <ele>834</ele>
        <time>2014-06-28T10:08:13.000Z</time>
      </trkpt>
      <trkpt lat="45.16744" lon="5.65847">
        <ele>833</ele>
        <time>2014-06-28T10:08:14.000Z</time>
      </trkpt>
      <trkpt lat="45.16747" lon="5.6585">
        <ele>833</ele>
        <time>2014-06-28T10:08:15.000Z</time>
      </trkpt>
      <trkpt lat="45.16749" lon="5.65853">
        <ele>833</ele>
        <time>2014-06-28T10:08:16.000Z</time>
      </trkpt>
      <trkpt lat="45.16751" lon="5.65855">
        <ele>832</ele>
        <time>2014-06-28T10:08:17.000Z</time>
      </trkpt>
      <trkpt lat="45.16753" lon="5.65859">
        <ele>832</ele>
        <time>2014-06-28T10:08:18.000Z</time>
      </trkpt>
      <trkpt lat="45.16755" lon="5.65862">
        <ele>832</ele>
        <time>2014-06-28T10:08:19.000Z</time>
      </trkpt>
      <trkpt lat="45.16756" lon="5.65865">
        <ele>831</ele>
        <time>2014-06-28T10:08:20.000Z</time>
      </trkpt>
      <trkpt lat="45.16758" lon="5.65869">
        <ele>831</ele>
        <time>2014-06-28T10:08:21.000Z</time>
      </trkpt>
      <trkpt lat="45.1676" lon="5.65873">
        <ele>831</ele>
        <time>2014-06-28T10:08:22.000Z</time>
      </trkpt>
      <trkpt lat="45.16762" lon="5.65876">
        <ele>830</ele>
        <time>2014-06-28T10:08:23.000Z</time>
      </trkpt>
      <trkpt lat="45.16764" lon="5.65879">
        <ele>830</ele>
        <time>2014-06-28T10:08:24.000Z</time>
      </trkpt>
      <trkpt lat="45.16765" lon="5.65883">
        <ele>830</ele>
        <time>2014-06-28T10:08:25.000Z</time>
      </trkpt>
      <trkpt lat="45.16767" lon="5.65887">
        <ele>829</ele>
        <time>2014-06-28T10:08:26.000Z</time>
      </trkpt>
      <trkpt lat="45.16769" lon="5.65891">
        <ele>829</ele>
        <time>2014-06-28T10:08:27.000Z</time>
      </trkpt>
      <trkpt lat="45.1677" lon="5.65895">
        <ele>829</ele>
        <time>2014-06-28T10:08:28.000Z</time>
      </trkpt>
      <trkpt lat="45.16773" lon="5.65899">
        <ele>828</ele>
        <time>2014-06-28T10:08:29.000Z</time>
      </trkpt>
      <trkpt lat="45.16775" lon="5.65902">
        <ele>828</ele>
        <time>2014-06-28T10:08:30.000Z</time>
      </trkpt>
      <trkpt lat="45.16777" lon="5.65905">
        <ele>828</ele>
        <time>2014-06-28T10:08:31.000Z</time>
      </trkpt>
      <trkpt lat="45.16779" lon="5.65908">
        <ele>828</ele>
        <time>2014-06-28T10:08:32.000Z</time>
      </trkpt>
      <trkpt lat="45.16781" lon="5.65912">
        <ele>828</ele>
        <time>2014-06-28T10:08:33.000Z</time>
      </trkpt>
      <trkpt lat="45.16784" lon="5.65915">
        <ele>827</ele>
        <time>2014-06-28T10:08:34.000Z</time>
      </trkpt>
      <trkpt lat="45.16786" lon="5.65918">
        <ele>827</ele>
        <time>2014-06-28T10:08:35.000Z</time>
      </trkpt>
      <trkpt lat="45.16789" lon="5.65921">
        <ele>827</ele>
        <time>2014-06-28T10:08:36.000Z</time>
      </trkpt>
      <trkpt lat="45.16791" lon="5.65925">
        <ele>827</ele>
        <time>2014-06-28T10:08:37.000Z</time>
      </trkpt>
      <trkpt lat="45.16793" lon="5.65928">
        <ele>827</ele>
        <time>2014-06-28T10:08:38.000Z</time>
      </trkpt>
      <trkpt lat="45.16794" lon="5.65932">
        <ele>826</ele>
        <time>2014-06-28T10:08:39.000Z</time>
      </trkpt>
      <trkpt lat="45.16796" lon="5.65936">
        <ele>826</ele>
        <time>2014-06-28T10:08:40.000Z</time>
      </trkpt>
      <trkpt lat="45.16798" lon="5.6594">
        <ele>826</ele>
        <time>2014-06-28T10:08:41.000Z</time>
      </trkpt>
      <trkpt lat="45.16799" lon="5.65944">
        <ele>826</ele>
        <time>2014-06-28T10:08:42.000Z</time>
      </trkpt>
      <trkpt lat="45.16801" lon="5.65947">
        <ele>826</ele>
        <time>2014-06-28T10:08:43.000Z</time>
      </trkpt>
      <trkpt lat="45.16803" lon="5.65951">
        <ele>825</ele>
        <time>2014-06-28T10:08:44.000Z</time>
      </trkpt>
      <trkpt lat="45.16805" lon="5.65954">
        <ele>825</ele>
        <time>2014-06-28T10:08:45.000Z</time>
      </trkpt>
      <trkpt lat="45.16807" lon="5.65956">
        <ele>825</ele>
        <time>2014-06-28T10:08:46.000Z</time>
      </trkpt>
      <trkpt lat="45.16809" lon="5.65958">
        <ele>825</ele>
        <time>2014-06-28T10:08:47.000Z</time>
      </trkpt>
      <trkpt lat="45.16811" lon="5.6596">
        <ele>825</ele>
        <time>2014-06-28T10:08:48.000Z</time>
      </trkpt>
      <trkpt lat="45.16813" lon="5.65961">
        <ele>825</ele>
        <time>2014-06-28T10:08:49.000Z</time>
      </trkpt>
      <trkpt lat="45.16815" lon="5.65963">
        <ele>825</ele>
        <time>2014-06-28T10:08:50.000Z</time>
      </trkpt>
      <trkpt lat="45.16816" lon="5.65965">
        <ele>824</ele>
        <time>2014-06-28T10:08:51.000Z</time>
      </trkpt>
      <trkpt lat="45.16818" lon="5.65968">
        <ele>824</ele>
        <time>2014-06-28T10:08:52.000Z</time>
      </trkpt>
      <trkpt lat="45.1682" lon="5.65971">
        <ele>824</ele>
        <time>2014-06-28T10:08:53.000Z</time>
      </trkpt>
      <trkpt lat="45.16822" lon="5.65973">
        <ele>824</ele>
        <time>2014-06-28T10:08:54.000Z</time>
      </trkpt>
      <trkpt lat="45.16824" lon="5.65976">
        <ele>824</ele>
        <time>2014-06-28T10:08:55.000Z</time>
      </trkpt>
      <trkpt lat="45.16826" lon="5.65978">
        <ele>824</ele>
        <time>2014-06-28T10:08:56.000Z</time>
      </trkpt>
      <trkpt lat="45.16828" lon="5.65981">
        <ele>823</ele>
        <time>2014-06-28T10:08:57.000Z</time>
      </trkpt>
      <trkpt lat="45.16831" lon="5.65983">
        <ele>823</ele>
        <time>2014-06-28T10:08:58.000Z</time>
      </trkpt>
      <trkpt lat="45.16833" lon="5.65986">
        <ele>823</ele>
        <time>2014-06-28T10:08:59.000Z</time>
      </trkpt>
      <trkpt lat="45.16835" lon="5.65988">
        <ele>823</ele>
        <time>2014-06-28T10:09:00.000Z</time>
      </trkpt>
      <trkpt lat="45.16837" lon="5.6599">
        <ele>823</ele>
        <time>2014-06-28T10:09:01.000Z</time>
      </trkpt>
      <trkpt lat="45.1684" lon="5.65993">
        <ele>822</ele>
        <time>2014-06-28T10:09:02.000Z</time>
      </trkpt>
      <trkpt lat="45.16841" lon="5.65995">
        <ele>822</ele>
        <time>2014-06-28T10:09:03.000Z</time>
      </trkpt>
      <trkpt lat="45.16843" lon="5.65997">
        <ele>822</ele>
        <time>2014-06-28T10:09:04.000Z</time>
      </trkpt>
      <trkpt lat="45.16845" lon="5.66">
        <ele>822</ele>
        <time>2014-06-28T10:09:05.000Z</time>
      </trkpt>
      <trkpt lat="45.16847" lon="5.66002">
        <ele>821</ele>
        <time>2014-06-28T10:09:06.000Z</time>
      </trkpt>
      <trkpt lat="45.1685" lon="5.66005">
        <ele>821</ele>
        <time>2014-06-28T10:09:07.000Z</time>
      </trkpt>
      <trkpt lat="45.16852" lon="5.66007">
        <ele>821</ele>
        <time>2014-06-28T10:09:08.000Z</time>
      </trkpt>
      <trkpt lat="45.16854" lon="5.6601">
        <ele>821</ele>
        <time>2014-06-28T10:09:09.000Z</time>
      </trkpt>
      <trkpt lat="45.16857" lon="5.66012">
        <ele>821</ele>
        <time>2014-06-28T10:09:10.000Z</time>
      </trkpt>
      <trkpt lat="45.16859" lon="5.66013">
        <ele>821</ele>
        <time>2014-06-28T10:09:11.000Z</time>
      </trkpt>
      <trkpt lat="45.16861" lon="5.66015">
        <ele>820</ele>
        <time>2014-06-28T10:09:12.000Z</time>
      </trkpt>
      <trkpt lat="45.16863" lon="5.66017">
        <ele>820</ele>
        <time>2014-06-28T10:09:13.000Z</time>
      </trkpt>
      <trkpt lat="45.16865" lon="5.66019">
        <ele>820</ele>
        <time>2014-06-28T10:09:14.000Z</time>
      </trkpt>
      <trkpt lat="45.16867" lon="5.66021">
        <ele>820</ele>
        <time>2014-06-28T10:09:15.000Z</time>
      </trkpt>
      <trkpt lat="45.1687" lon="5.66022">
        <ele>820</ele>
        <time>2014-06-28T10:09:16.000Z</time>
      </trkpt>
      <trkpt lat="45.16872" lon="5.66022">
        <ele>820</ele>
        <time>2014-06-28T10:09:17.000Z</time>
      </trkpt>
      <trkpt lat="45.16875" lon="5.66023">
        <ele>820</ele>
        <time>2014-06-28T10:09:18.000Z</time>
      </trkpt>
      <trkpt lat="45.16878" lon="5.66022">
        <ele>820</ele>
        <time>2014-06-28T10:09:19.000Z</time>
      </trkpt>
      <trkpt lat="45.16881" lon="5.66021">
        <ele>820</ele>
        <time>2014-06-28T10:09:20.000Z</time>
      </trkpt>
      <trkpt lat="45.16883" lon="5.6602">
        <ele>820</ele>
        <time>2014-06-28T10:09:21.000Z</time>
      </trkpt>
      <trkpt lat="45.16886" lon="5.66018">
        <ele>820</ele>
        <time>2014-06-28T10:09:22.000Z</time>
      </trkpt>
      <trkpt lat="45.16886" lon="5.66018">
        <ele>820</ele>
        <time>2014-06-28T10:09:28.000Z</time>
      </trkpt>
      <trkpt lat="45.16886" lon="5.66018">
        <ele>820</ele>
        <time>2014-06-28T10:09:29.000Z</time>
      </trkpt>
      <trkpt lat="45.16908" lon="5.66006">
        <ele>820</ele>
        <time>2014-06-28T10:09:30.000Z</time>
      </trkpt>
      <trkpt lat="45.1691" lon="5.66004">
        <ele>819</ele>
        <time>2014-06-28T10:09:31.000Z</time>
      </trkpt>
      <trkpt lat="45.16912" lon="5.66002">
        <ele>819</ele>
        <time>2014-06-28T10:09:32.000Z</time>
      </trkpt>
      <trkpt lat="45.16915" lon="5.65998">
        <ele>819</ele>
        <time>2014-06-28T10:09:33.000Z</time>
      </trkpt>
      <trkpt lat="45.16918" lon="5.65994">
        <ele>818</ele>
        <time>2014-06-28T10:09:34.000Z</time>
      </trkpt>
      <trkpt lat="45.16921" lon="5.65991">
        <ele>818</ele>
        <time>2014-06-28T10:09:35.000Z</time>
      </trkpt>
      <trkpt lat="45.16925" lon="5.65986">
        <ele>817</ele>
        <time>2014-06-28T10:09:36.000Z</time>
      </trkpt>
      <trkpt lat="45.16927" lon="5.65982">
        <ele>817</ele>
        <time>2014-06-28T10:09:37.000Z</time>
      </trkpt>
      <trkpt lat="45.1693" lon="5.65978">
        <ele>816</ele>
        <time>2014-06-28T10:09:38.000Z</time>
      </trkpt>
      <trkpt lat="45.16933" lon="5.65974">
        <ele>816</ele>
        <time>2014-06-28T10:09:39.000Z</time>
      </trkpt>
      <trkpt lat="45.16936" lon="5.6597">
        <ele>815</ele>
        <time>2014-06-28T10:09:40.000Z</time>
      </trkpt>
      <trkpt lat="45.16939" lon="5.65965">
        <ele>815</ele>
        <time>2014-06-28T10:09:41.000Z</time>
      </trkpt>
      <trkpt lat="45.16942" lon="5.65962">
        <ele>814</ele>
        <time>2014-06-28T10:09:42.000Z</time>
      </trkpt>
      <trkpt lat="45.16944" lon="5.65958">
        <ele>814</ele>
        <time>2014-06-28T10:09:43.000Z</time>
      </trkpt>
      <trkpt lat="45.16946" lon="5.65955">
        <ele>813</ele>
        <time>2014-06-28T10:09:44.000Z</time>
      </trkpt>
      <trkpt lat="45.16948" lon="5.65951">
        <ele>813</ele>
        <time>2014-06-28T10:09:45.000Z</time>
      </trkpt>
      <trkpt lat="45.1695" lon="5.65948">
        <ele>813</ele>
        <time>2014-06-28T10:09:46.000Z</time>
      </trkpt>
      <trkpt lat="45.16952" lon="5.65944">
        <ele>812</ele>
        <time>2014-06-28T10:09:47.000Z</time>
      </trkpt>
      <trkpt lat="45.16954" lon="5.6594">
        <ele>812</ele>
        <time>2014-06-28T10:09:48.000Z</time>
      </trkpt>
      <trkpt lat="45.16956" lon="5.65937">
        <ele>812</ele>
        <time>2014-06-28T10:09:49.000Z</time>
      </trkpt>
      <trkpt lat="45.16958" lon="5.65934">
        <ele>812</ele>
        <time>2014-06-28T10:09:50.000Z</time>
      </trkpt>
      <trkpt lat="45.1696" lon="5.6593">
        <ele>812</ele>
        <time>2014-06-28T10:09:51.000Z</time>
      </trkpt>
      <trkpt lat="45.16962" lon="5.65927">
        <ele>812</ele>
        <time>2014-06-28T10:09:52.000Z</time>
      </trkpt>
      <trkpt lat="45.16964" lon="5.65924">
        <ele>812</ele>
        <time>2014-06-28T10:09:53.000Z</time>
      </trkpt>
      <trkpt lat="45.16966" lon="5.65921">
        <ele>812</ele>
        <time>2014-06-28T10:09:54.000Z</time>
      </trkpt>
      <trkpt lat="45.16969" lon="5.65918">
        <ele>812</ele>
        <time>2014-06-28T10:09:55.000Z</time>
      </trkpt>
      <trkpt lat="45.16971" lon="5.65915">
        <ele>812</ele>
        <time>2014-06-28T10:09:56.000Z</time>
      </trkpt>
      <trkpt lat="45.16974" lon="5.65911">
        <ele>812</ele>
        <time>2014-06-28T10:09:57.000Z</time>
      </trkpt>
      <trkpt lat="45.16976" lon="5.65907">
        <ele>812</ele>
        <time>2014-06-28T10:09:58.000Z</time>
      </trkpt>
      <trkpt lat="45.16978" lon="5.65903">
        <ele>812</ele>
        <time>2014-06-28T10:09:59.000Z</time>
      </trkpt>
      <trkpt lat="45.1698" lon="5.659">
        <ele>812</ele>
        <time>2014-06-28T10:10:00.000Z</time>
      </trkpt>
      <trkpt lat="45.16982" lon="5.65895">
        <ele>812</ele>
        <time>2014-06-28T10:10:01.000Z</time>
      </trkpt>
      <trkpt lat="45.16984" lon="5.65891">
        <ele>812</ele>
        <time>2014-06-28T10:10:02.000Z</time>
      </trkpt>
      <trkpt lat="45.16986" lon="5.65887">
        <ele>812</ele>
        <time>2014-06-28T10:10:03.000Z</time>
      </trkpt>
      <trkpt lat="45.16988" lon="5.65883">
        <ele>811</ele>
        <time>2014-06-28T10:10:04.000Z</time>
      </trkpt>
      <trkpt lat="45.1699" lon="5.65878">
        <ele>811</ele>
        <time>2014-06-28T10:10:05.000Z</time>
      </trkpt>
      <trkpt lat="45.16992" lon="5.65874">
        <ele>811</ele>
        <time>2014-06-28T10:10:06.000Z</time>
      </trkpt>
      <trkpt lat="45.16993" lon="5.6587">
        <ele>811</ele>
        <time>2014-06-28T10:10:07.000Z</time>
      </trkpt>
      <trkpt lat="45.16995" lon="5.65865">
        <ele>810</ele>
        <time>2014-06-28T10:10:08.000Z</time>
      </trkpt>
      <trkpt lat="45.16997" lon="5.6586">
        <ele>810</ele>
        <time>2014-06-28T10:10:09.000Z</time>
      </trkpt>
      <trkpt lat="45.16998" lon="5.65855">
        <ele>810</ele>
        <time>2014-06-28T10:10:10.000Z</time>
      </trkpt>
      <trkpt lat="45.17" lon="5.65851">
        <ele>810</ele>
        <time>2014-06-28T10:10:11.000Z</time>
      </trkpt>
      <trkpt lat="45.17001" lon="5.65847">
        <ele>809</ele>
        <time>2014-06-28T10:10:12.000Z</time>
      </trkpt>
      <trkpt lat="45.17002" lon="5.65842">
        <ele>809</ele>
        <time>2014-06-28T10:10:13.000Z</time>
      </trkpt>
      <trkpt lat="45.17003" lon="5.65838">
        <ele>809</ele>
        <time>2014-06-28T10:10:14.000Z</time>
      </trkpt>
      <trkpt lat="45.17003" lon="5.65834">
        <ele>809</ele>
        <time>2014-06-28T10:10:15.000Z</time>
      </trkpt>
      <trkpt lat="45.17004" lon="5.65829">
        <ele>808</ele>
        <time>2014-06-28T10:10:16.000Z</time>
      </trkpt>
      <trkpt lat="45.17005" lon="5.65825">
        <ele>808</ele>
        <time>2014-06-28T10:10:17.000Z</time>
      </trkpt>
      <trkpt lat="45.17005" lon="5.65821">
        <ele>808</ele>
        <time>2014-06-28T10:10:18.000Z</time>
      </trkpt>
      <trkpt lat="45.17005" lon="5.65817">
        <ele>808</ele>
        <time>2014-06-28T10:10:19.000Z</time>
      </trkpt>
      <trkpt lat="45.17005" lon="5.65812">
        <ele>808</ele>
        <time>2014-06-28T10:10:20.000Z</time>
      </trkpt>
      <trkpt lat="45.17005" lon="5.65807">
        <ele>808</ele>
        <time>2014-06-28T10:10:21.000Z</time>
      </trkpt>
      <trkpt lat="45.17005" lon="5.65802">
        <ele>808</ele>
        <time>2014-06-28T10:10:22.000Z</time>
      </trkpt>
      <trkpt lat="45.17005" lon="5.65798">
        <ele>808</ele>
        <time>2014-06-28T10:10:23.000Z</time>
      </trkpt>
      <trkpt lat="45.17005" lon="5.65793">
        <ele>808</ele>
        <time>2014-06-28T10:10:24.000Z</time>
      </trkpt>
      <trkpt lat="45.17004" lon="5.65788">
        <ele>808</ele>
        <time>2014-06-28T10:10:25.000Z</time>
      </trkpt>
      <trkpt lat="45.17004" lon="5.65783">
        <ele>808</ele>
        <time>2014-06-28T10:10:26.000Z</time>
      </trkpt>
      <trkpt lat="45.17004" lon="5.65779">
        <ele>808</ele>
        <time>2014-06-28T10:10:27.000Z</time>
      </trkpt>
      <trkpt lat="45.17004" lon="5.65774">
        <ele>808</ele>
        <time>2014-06-28T10:10:28.000Z</time>
      </trkpt>
      <trkpt lat="45.17004" lon="5.65769">
        <ele>808</ele>
        <time>2014-06-28T10:10:29.000Z</time>
      </trkpt>
      <trkpt lat="45.17003" lon="5.65764">
        <ele>809</ele>
        <time>2014-06-28T10:10:30.000Z</time>
      </trkpt>
      <trkpt lat="45.17003" lon="5.6576">
        <ele>809</ele>
        <time>2014-06-28T10:10:31.000Z</time>
      </trkpt>
      <trkpt lat="45.17003" lon="5.65756">
        <ele>809</ele>
        <time>2014-06-28T10:10:32.000Z</time>
      </trkpt>
      <trkpt lat="45.17003" lon="5.65752">
        <ele>809</ele>
        <time>2014-06-28T10:10:33.000Z</time>
      </trkpt>
      <trkpt lat="45.17002" lon="5.65749">
        <ele>809</ele>
        <time>2014-06-28T10:10:34.000Z</time>
      </trkpt>
      <trkpt lat="45.17002" lon="5.65745">
        <ele>810</ele>
        <time>2014-06-28T10:10:35.000Z</time>
      </trkpt>
      <trkpt lat="45.17003" lon="5.65742">
        <ele>810</ele>
        <time>2014-06-28T10:10:36.000Z</time>
      </trkpt>
      <trkpt lat="45.17003" lon="5.65739">
        <ele>810</ele>
        <time>2014-06-28T10:10:37.000Z</time>
      </trkpt>
      <trkpt lat="45.17004" lon="5.65736">
        <ele>810</ele>
        <time>2014-06-28T10:10:38.000Z</time>
      </trkpt>
      <trkpt lat="45.17005" lon="5.65734">
        <ele>810</ele>
        <time>2014-06-28T10:10:39.000Z</time>
      </trkpt>
      <trkpt lat="45.17006" lon="5.65732">
        <ele>810</ele>
        <time>2014-06-28T10:10:40.000Z</time>
      </trkpt>
      <trkpt lat="45.17007" lon="5.6573">
        <ele>811</ele>
        <time>2014-06-28T10:10:41.000Z</time>
      </trkpt>
      <trkpt lat="45.17008" lon="5.65728">
        <ele>811</ele>
        <time>2014-06-28T10:10:42.000Z</time>
      </trkpt>
      <trkpt lat="45.1701" lon="5.65725">
        <ele>811</ele>
        <time>2014-06-28T10:10:43.000Z</time>
      </trkpt>
      <trkpt lat="45.17012" lon="5.65722">
        <ele>811</ele>
        <time>2014-06-28T10:10:44.000Z</time>
      </trkpt>
      <trkpt lat="45.17014" lon="5.65719">
        <ele>811</ele>
        <time>2014-06-28T10:10:45.000Z</time>
      </trkpt>
      <trkpt lat="45.17016" lon="5.65716">
        <ele>811</ele>
        <time>2014-06-28T10:10:46.000Z</time>
      </trkpt>
      <trkpt lat="45.17019" lon="5.65713">
        <ele>811</ele>
        <time>2014-06-28T10:10:47.000Z</time>
      </trkpt>
      <trkpt lat="45.17021" lon="5.6571">
        <ele>811</ele>
        <time>2014-06-28T10:10:48.000Z</time>
      </trkpt>
      <trkpt lat="45.17024" lon="5.65708">
        <ele>811</ele>
        <time>2014-06-28T10:10:49.000Z</time>
      </trkpt>
      <trkpt lat="45.17027" lon="5.65705">
        <ele>811</ele>
        <time>2014-06-28T10:10:50.000Z</time>
      </trkpt>
      <trkpt lat="45.17029" lon="5.65703">
        <ele>811</ele>
        <time>2014-06-28T10:10:51.000Z</time>
      </trkpt>
      <trkpt lat="45.17029" lon="5.65703">
        <ele>811</ele>
        <time>2014-06-28T10:11:24.000Z</time>
      </trkpt>
      <trkpt lat="45.17029" lon="5.65703">
        <ele>811</ele>
        <time>2014-06-28T10:11:25.000Z</time>
      </trkpt>
      <trkpt lat="45.17106" lon="5.65647">
        <ele>811</ele>
        <time>2014-06-28T10:11:26.000Z</time>
      </trkpt>
      <trkpt lat="45.17112" lon="5.65645">
        <ele>810</ele>
        <time>2014-06-28T10:11:27.000Z</time>
      </trkpt>
      <trkpt lat="45.17118" lon="5.65643">
        <ele>809</ele>
        <time>2014-06-28T10:11:28.000Z</time>
      </trkpt>
      <trkpt lat="45.17124" lon="5.65641">
        <ele>807</ele>
        <time>2014-06-28T10:11:29.000Z</time>
      </trkpt>
      <trkpt lat="45.1713" lon="5.65639">
        <ele>805</ele>
        <time>2014-06-28T10:11:30.000Z</time>
      </trkpt>
      <trkpt lat="45.17136" lon="5.65638">
        <ele>803</ele>
        <time>2014-06-28T10:11:31.000Z</time>
      </trkpt>
      <trkpt lat="45.17141" lon="5.65636">
        <ele>802</ele>
        <time>2014-06-28T10:11:32.000Z</time>
      </trkpt>
      <trkpt lat="45.17146" lon="5.65635">
        <ele>800</ele>
        <time>2014-06-28T10:11:33.000Z</time>
      </trkpt>
      <trkpt lat="45.17151" lon="5.65633">
        <ele>798</ele>
        <time>2014-06-28T10:11:34.000Z</time>
      </trkpt>
      <trkpt lat="45.17156" lon="5.65632">
        <ele>797</ele>
        <time>2014-06-28T10:11:35.000Z</time>
      </trkpt>
      <trkpt lat="45.1716" lon="5.6563">
        <ele>796</ele>
        <time>2014-06-28T10:11:36.000Z</time>
      </trkpt>
      <trkpt lat="45.17164" lon="5.65628">
        <ele>794</ele>
        <time>2014-06-28T10:11:37.000Z</time>
      </trkpt>
      <trkpt lat="45.17168" lon="5.65627">
        <ele>793</ele>
        <time>2014-06-28T10:11:38.000Z</time>
      </trkpt>
      <trkpt lat="45.17172" lon="5.65625">
        <ele>791</ele>
        <time>2014-06-28T10:11:39.000Z</time>
      </trkpt>
      <trkpt lat="45.17176" lon="5.65623">
        <ele>790</ele>
        <time>2014-06-28T10:11:40.000Z</time>
      </trkpt>
      <trkpt lat="45.1718" lon="5.65622">
        <ele>789</ele>
        <time>2014-06-28T10:11:41.000Z</time>
      </trkpt>
      <trkpt lat="45.17184" lon="5.65621">
        <ele>787</ele>
        <time>2014-06-28T10:11:42.000Z</time>
      </trkpt>
      <trkpt lat="45.17188" lon="5.65619">
        <ele>786</ele>
        <time>2014-06-28T10:11:43.000Z</time>
      </trkpt>
      <trkpt lat="45.17191" lon="5.65618">
        <ele>785</ele>
        <time>2014-06-28T10:11:44.000Z</time>
      </trkpt>
      <trkpt lat="45.17195" lon="5.65616">
        <ele>785</ele>
        <time>2014-06-28T10:11:45.000Z</time>
      </trkpt>
      <trkpt lat="45.17199" lon="5.65614">
        <ele>784</ele>
        <time>2014-06-28T10:11:46.000Z</time>
      </trkpt>
      <trkpt lat="45.17202" lon="5.65612">
        <ele>783</ele>
        <time>2014-06-28T10:11:47.000Z</time>
      </trkpt>
      <trkpt lat="45.17206" lon="5.6561">
        <ele>782</ele>
        <time>2014-06-28T10:11:48.000Z</time>
      </trkpt>
      <trkpt lat="45.1721" lon="5.65609">
        <ele>782</ele>
        <time>2014-06-28T10:11:49.000Z</time>
      </trkpt>
      <trkpt lat="45.17214" lon="5.65607">
        <ele>781</ele>
        <time>2014-06-28T10:11:50.000Z</time>
      </trkpt>
      <trkpt lat="45.17217" lon="5.65605">
        <ele>781</ele>
        <time>2014-06-28T10:11:51.000Z</time>
      </trkpt>
      <trkpt lat="45.1722" lon="5.65604">
        <ele>781</ele>
        <time>2014-06-28T10:11:52.000Z</time>
      </trkpt>
      <trkpt lat="45.17223" lon="5.65602">
        <ele>781</ele>
        <time>2014-06-28T10:11:53.000Z</time>
      </trkpt>
      <trkpt lat="45.17226" lon="5.65601">
        <ele>780</ele>
        <time>2014-06-28T10:11:54.000Z</time>
      </trkpt>
      <trkpt lat="45.17229" lon="5.65598">
        <ele>780</ele>
        <time>2014-06-28T10:11:55.000Z</time>
      </trkpt>
      <trkpt lat="45.17232" lon="5.65596">
        <ele>780</ele>
        <time>2014-06-28T10:11:56.000Z</time>
      </trkpt>
      <trkpt lat="45.17235" lon="5.65594">
        <ele>780</ele>
        <time>2014-06-28T10:11:57.000Z</time>
      </trkpt>
      <trkpt lat="45.17239" lon="5.65592">
        <ele>780</ele>
        <time>2014-06-28T10:11:58.000Z</time>
      </trkpt>
      <trkpt lat="45.17242" lon="5.65589">
        <ele>780</ele>
        <time>2014-06-28T10:11:59.000Z</time>
      </trkpt>
      <trkpt lat="45.17245" lon="5.65588">
        <ele>780</ele>
        <time>2014-06-28T10:12:00.000Z</time>
      </trkpt>
      <trkpt lat="45.17247" lon="5.65586">
        <ele>780</ele>
        <time>2014-06-28T10:12:01.000Z</time>
      </trkpt>
      <trkpt lat="45.1725" lon="5.65584">
        <ele>780</ele>
        <time>2014-06-28T10:12:02.000Z</time>
      </trkpt>
      <trkpt lat="45.17252" lon="5.65583">
        <ele>780</ele>
        <time>2014-06-28T10:12:03.000Z</time>
      </trkpt>
      <trkpt lat="45.17255" lon="5.65581">
        <ele>780</ele>
        <time>2014-06-28T10:12:04.000Z</time>
      </trkpt>
      <trkpt lat="45.17258" lon="5.65579">
        <ele>780</ele>
        <time>2014-06-28T10:12:05.000Z</time>
      </trkpt>
      <trkpt lat="45.1726" lon="5.65577">
        <ele>780</ele>
        <time>2014-06-28T10:12:06.000Z</time>
      </trkpt>
      <trkpt lat="45.17263" lon="5.65576">
        <ele>780</ele>
        <time>2014-06-28T10:12:07.000Z</time>
      </trkpt>
      <trkpt lat="45.17266" lon="5.65574">
        <ele>780</ele>
        <time>2014-06-28T10:12:08.000Z</time>
      </trkpt>
      <trkpt lat="45.17269" lon="5.65571">
        <ele>780</ele>
        <time>2014-06-28T10:12:09.000Z</time>
      </trkpt>
      <trkpt lat="45.17271" lon="5.65569">
        <ele>780</ele>
        <time>2014-06-28T10:12:10.000Z</time>
      </trkpt>
      <trkpt lat="45.17273" lon="5.65566">
        <ele>780</ele>
        <time>2014-06-28T10:12:11.000Z</time>
      </trkpt>
      <trkpt lat="45.17275" lon="5.65564">
        <ele>780</ele>
        <time>2014-06-28T10:12:12.000Z</time>
      </trkpt>
      <trkpt lat="45.17277" lon="5.65561">
        <ele>780</ele>
        <time>2014-06-28T10:12:13.000Z</time>
      </trkpt>
      <trkpt lat="45.17279" lon="5.65558">
        <ele>780</ele>
        <time>2014-06-28T10:12:14.000Z</time>
      </trkpt>
      <trkpt lat="45.1728" lon="5.65555">
        <ele>780</ele>
        <time>2014-06-28T10:12:15.000Z</time>
      </trkpt>
      <trkpt lat="45.17282" lon="5.65553">
        <ele>780</ele>
        <time>2014-06-28T10:12:16.000Z</time>
      </trkpt>
      <trkpt lat="45.17283" lon="5.65551">
        <ele>781</ele>
        <time>2014-06-28T10:12:17.000Z</time>
      </trkpt>
      <trkpt lat="45.17285" lon="5.65548">
        <ele>781</ele>
        <time>2014-06-28T10:12:18.000Z</time>
      </trkpt>
      <trkpt lat="45.17286" lon="5.65546">
        <ele>781</ele>
        <time>2014-06-28T10:12:19.000Z</time>
      </trkpt>
      <trkpt lat="45.17288" lon="5.65544">
        <ele>781</ele>
        <time>2014-06-28T10:12:20.000Z</time>
      </trkpt>
      <trkpt lat="45.1729" lon="5.65542">
        <ele>781</ele>
        <time>2014-06-28T10:12:21.000Z</time>
      </trkpt>
      <trkpt lat="45.17291" lon="5.6554">
        <ele>781</ele>
        <time>2014-06-28T10:12:22.000Z</time>
      </trkpt>
      <trkpt lat="45.17293" lon="5.65537">
        <ele>781</ele>
        <time>2014-06-28T10:12:23.000Z</time>
      </trkpt>
      <trkpt lat="45.17294" lon="5.65535">
        <ele>781</ele>
        <time>2014-06-28T10:12:24.000Z</time>
      </trkpt>
      <trkpt lat="45.17296" lon="5.65532">
        <ele>781</ele>
        <time>2014-06-28T10:12:25.000Z</time>
      </trkpt>
      <trkpt lat="45.17298" lon="5.65529">
        <ele>781</ele>
        <time>2014-06-28T10:12:26.000Z</time>
      </trkpt>
      <trkpt lat="45.173" lon="5.65526">
        <ele>781</ele>
        <time>2014-06-28T10:12:27.000Z</time>
      </trkpt>
      <trkpt lat="45.17302" lon="5.65523">
        <ele>780</ele>
        <time>2014-06-28T10:12:28.000Z</time>
      </trkpt>
      <trkpt lat="45.17304" lon="5.6552">
        <ele>781</ele>
        <time>2014-06-28T10:12:29.000Z</time>
      </trkpt>
      <trkpt lat="45.17306" lon="5.65517">
        <ele>781</ele>
        <time>2014-06-28T10:12:30.000Z</time>
      </trkpt>
      <trkpt lat="45.17309" lon="5.65514">
        <ele>780</ele>
        <time>2014-06-28T10:12:31.000Z</time>
      </trkpt>
      <trkpt lat="45.17311" lon="5.65512">
        <ele>780</ele>
        <time>2014-06-28T10:12:32.000Z</time>
      </trkpt>
      <trkpt lat="45.17313" lon="5.65509">
        <ele>780</ele>
        <time>2014-06-28T10:12:33.000Z</time>
      </trkpt>
      <trkpt lat="45.17314" lon="5.65508">
        <ele>780</ele>
        <time>2014-06-28T10:12:34.000Z</time>
      </trkpt>
      <trkpt lat="45.17316" lon="5.65506">
        <ele>780</ele>
        <time>2014-06-28T10:12:35.000Z</time>
      </trkpt>
      <trkpt lat="45.17317" lon="5.65505">
        <ele>780</ele>
        <time>2014-06-28T10:12:36.000Z</time>
      </trkpt>
      <trkpt lat="45.17317" lon="5.65505">
        <ele>780</ele>
        <time>2014-06-28T10:12:37.000Z</time>
      </trkpt>
      <trkpt lat="45.17317" lon="5.65505">
        <ele>780</ele>
        <time>2014-06-28T10:12:38.000Z</time>
      </trkpt>
      <trkpt lat="45.17317" lon="5.65505">
        <ele>780</ele>
        <time>2014-06-28T10:12:39.000Z</time>
      </trkpt>
      <trkpt lat="45.17317" lon="5.65504">
        <ele>780</ele>
        <time>2014-06-28T10:12:40.000Z</time>
      </trkpt>
      <trkpt lat="45.17317" lon="5.65504">
        <ele>780</ele>
        <time>2014-06-28T10:12:41.000Z</time>
      </trkpt>
      <trkpt lat="45.17317" lon="5.65504">
        <ele>780</ele>
        <time>2014-06-28T10:12:42.000Z</time>
      </trkpt>
      <trkpt lat="45.17317" lon="5.65504">
        <ele>780</ele>
        <time>2014-06-28T10:12:43.000Z</time>
      </trkpt>
      <trkpt lat="45.17317" lon="5.65504">
        <ele>780</ele>
        <time>2014-06-28T10:12:44.000Z</time>
      </trkpt>
      <trkpt lat="45.17317" lon="5.65504">
        <ele>780</ele>
        <time>2014-06-28T10:12:45.000Z</time>
      </trkpt>
      <trkpt lat="45.17318" lon="5.65503">
        <ele>780</ele>
        <time>2014-06-28T10:12:46.000Z</time>
      </trkpt>
      <trkpt lat="45.17318" lon="5.65502">
        <ele>780</ele>
        <time>2014-06-28T10:12:47.000Z</time>
      </trkpt>
      <trkpt lat="45.17318" lon="5.65502">
        <ele>780</ele>
        <time>2014-06-28T10:12:48.000Z</time>
      </trkpt>
      <trkpt lat="45.17319" lon="5.65502">
        <ele>780</ele>
        <time>2014-06-28T10:12:49.000Z</time>
      </trkpt>
      <trkpt lat="45.17319" lon="5.65502">
        <ele>780</ele>
        <time>2014-06-28T10:12:50.000Z</time>
      </trkpt>
      <trkpt lat="45.17319" lon="5.65502">
        <ele>780</ele>
        <time>2014-06-28T10:12:51.000Z</time>
      </trkpt>
      <trkpt lat="45.17319" lon="5.65502">
        <ele>780</ele>
        <time>2014-06-28T10:12:52.000Z</time>
      </trkpt>
      <trkpt lat="45.17319" lon="5.65501">
        <ele>780</ele>
        <time>2014-06-28T10:12:53.000Z</time>
      </trkpt>
      <trkpt lat="45.1732" lon="5.655">
        <ele>780</ele>
        <time>2014-06-28T10:12:54.000Z</time>
      </trkpt>
      <trkpt lat="45.1732" lon="5.65499">
        <ele>780</ele>
        <time>2014-06-28T10:12:55.000Z</time>
      </trkpt>
      <trkpt lat="45.17321" lon="5.65498">
        <ele>779</ele>
        <time>2014-06-28T10:12:56.000Z</time>
      </trkpt>
      <trkpt lat="45.17322" lon="5.65496">
        <ele>779</ele>
        <time>2014-06-28T10:12:57.000Z</time>
      </trkpt>
      <trkpt lat="45.17323" lon="5.65495">
        <ele>779</ele>
        <time>2014-06-28T10:12:58.000Z</time>
      </trkpt>
      <trkpt lat="45.17324" lon="5.65493">
        <ele>779</ele>
        <time>2014-06-28T10:12:59.000Z</time>
      </trkpt>
      <trkpt lat="45.17325" lon="5.65492">
        <ele>779</ele>
        <time>2014-06-28T10:13:00.000Z</time>
      </trkpt>
      <trkpt lat="45.17326" lon="5.65491">
        <ele>779</ele>
        <time>2014-06-28T10:13:01.000Z</time>
      </trkpt>
      <trkpt lat="45.17326" lon="5.65491">
        <ele>778</ele>
        <time>2014-06-28T10:13:02.000Z</time>
      </trkpt>
      <trkpt lat="45.17327" lon="5.65491">
        <ele>778</ele>
        <time>2014-06-28T10:13:03.000Z</time>
      </trkpt>
      <trkpt lat="45.17328" lon="5.6549">
        <ele>778</ele>
        <time>2014-06-28T10:13:04.000Z</time>
      </trkpt>
      <trkpt lat="45.17328" lon="5.65489">
        <ele>778</ele>
        <time>2014-06-28T10:13:05.000Z</time>
      </trkpt>
      <trkpt lat="45.17329" lon="5.65488">
        <ele>778</ele>
        <time>2014-06-28T10:13:06.000Z</time>
      </trkpt>
      <trkpt lat="45.17329" lon="5.65487">
        <ele>777</ele>
        <time>2014-06-28T10:13:07.000Z</time>
      </trkpt>
      <trkpt lat="45.17331" lon="5.65485">
        <ele>777</ele>
        <time>2014-06-28T10:13:08.000Z</time>
      </trkpt>
      <trkpt lat="45.17332" lon="5.65483">
        <ele>777</ele>
        <time>2014-06-28T10:13:09.000Z</time>
      </trkpt>
      <trkpt lat="45.17334" lon="5.65481">
        <ele>776</ele>
        <time>2014-06-28T10:13:10.000Z</time>
      </trkpt>
      <trkpt lat="45.17336" lon="5.6548">
        <ele>776</ele>
        <time>2014-06-28T10:13:11.000Z</time>
      </trkpt>
      <trkpt lat="45.17338" lon="5.65479">
        <ele>776</ele>
        <time>2014-06-28T10:13:12.000Z</time>
      </trkpt>
      <trkpt lat="45.17341" lon="5.65477">
        <ele>776</ele>
        <time>2014-06-28T10:13:13.000Z</time>
      </trkpt>
      <trkpt lat="45.17344" lon="5.65474">
        <ele>775</ele>
        <time>2014-06-28T10:13:14.000Z</time>
      </trkpt>
      <trkpt lat="45.17348" lon="5.65471">
        <ele>775</ele>
        <time>2014-06-28T10:13:15.000Z</time>
      </trkpt>
      <trkpt lat="45.17352" lon="5.65468">
        <ele>775</ele>
        <time>2014-06-28T10:13:16.000Z</time>
      </trkpt>
      <trkpt lat="45.17355" lon="5.65465">
        <ele>775</ele>
        <time>2014-06-28T10:13:17.000Z</time>
      </trkpt>
      <trkpt lat="45.17359" lon="5.65463">
        <ele>774</ele>
        <time>2014-06-28T10:13:18.000Z</time>
      </trkpt>
      <trkpt lat="45.17362" lon="5.6546">
        <ele>774</ele>
        <time>2014-06-28T10:13:19.000Z</time>
      </trkpt>
      <trkpt lat="45.17365" lon="5.65458">
        <ele>774</ele>
        <time>2014-06-28T10:13:20.000Z</time>
      </trkpt>
      <trkpt lat="45.17368" lon="5.65455">
        <ele>773</ele>
        <time>2014-06-28T10:13:21.000Z</time>
      </trkpt>
      <trkpt lat="45.17371" lon="5.65453">
        <ele>773</ele>
        <time>2014-06-28T10:13:22.000Z</time>
      </trkpt>
      <trkpt lat="45.17373" lon="5.65451">
        <ele>773</ele>
        <time>2014-06-28T10:13:23.000Z</time>
      </trkpt>
      <trkpt lat="45.17375" lon="5.6545">
        <ele>773</ele>
        <time>2014-06-28T10:13:24.000Z</time>
      </trkpt>
      <trkpt lat="45.17376" lon="5.65449">
        <ele>772</ele>
        <time>2014-06-28T10:13:25.000Z</time>
      </trkpt>
      <trkpt lat="45.17378" lon="5.65448">
        <ele>772</ele>
        <time>2014-06-28T10:13:26.000Z</time>
      </trkpt>
      <trkpt lat="45.17379" lon="5.65447">
        <ele>772</ele>
        <time>2014-06-28T10:13:27.000Z</time>
      </trkpt>
      <trkpt lat="45.17379" lon="5.65446">
        <ele>771</ele>
        <time>2014-06-28T10:13:28.000Z</time>
      </trkpt>
      <trkpt lat="45.1738" lon="5.65446">
        <ele>771</ele>
        <time>2014-06-28T10:13:29.000Z</time>
      </trkpt>
      <trkpt lat="45.17381" lon="5.65446">
        <ele>771</ele>
        <time>2014-06-28T10:13:30.000Z</time>
      </trkpt>
      <trkpt lat="45.17382" lon="5.65445">
        <ele>771</ele>
        <time>2014-06-28T10:13:31.000Z</time>
      </trkpt>
      <trkpt lat="45.17382" lon="5.65446">
        <ele>771</ele>
        <time>2014-06-28T10:13:32.000Z</time>
      </trkpt>
      <trkpt lat="45.17382" lon="5.65446">
        <ele>771</ele>
        <time>2014-06-28T10:13:33.000Z</time>
      </trkpt>
      <trkpt lat="45.17381" lon="5.65446">
        <ele>770</ele>
        <time>2014-06-28T10:13:34.000Z</time>
      </trkpt>
      <trkpt lat="45.17382" lon="5.65446">
        <ele>770</ele>
        <time>2014-06-28T10:13:35.000Z</time>
      </trkpt>
      <trkpt lat="45.17382" lon="5.65446">
        <ele>770</ele>
        <time>2014-06-28T10:13:36.000Z</time>
      </trkpt>
      <trkpt lat="45.17382" lon="5.65446">
        <ele>770</ele>
        <time>2014-06-28T10:13:37.000Z</time>
      </trkpt>
      <trkpt lat="45.17382" lon="5.65446">
        <ele>770</ele>
        <time>2014-06-28T10:13:38.000Z</time>
      </trkpt>
      <trkpt lat="45.17382" lon="5.65447">
        <ele>770</ele>
        <time>2014-06-28T10:13:39.000Z</time>
      </trkpt>
      <trkpt lat="45.17382" lon="5.65447">
        <ele>770</ele>
        <time>2014-06-28T10:13:40.000Z</time>
      </trkpt>
      <trkpt lat="45.17382" lon="5.65447">
        <ele>770</ele>
        <time>2014-06-28T10:13:41.000Z</time>
      </trkpt>
      <trkpt lat="45.17382" lon="5.65447">
        <ele>770</ele>
        <time>2014-06-28T10:13:42.000Z</time>
      </trkpt>
      <trkpt lat="45.17382" lon="5.65447">
        <ele>770</ele>
        <time>2014-06-28T10:13:43.000Z</time>
      </trkpt>
      <trkpt lat="45.17382" lon="5.65447">
        <ele>770</ele>
        <time>2014-06-28T10:13:44.000Z</time>
      </trkpt>
      <trkpt lat="45.17382" lon="5.65447">
        <ele>770</ele>
        <time>2014-06-28T10:13:45.000Z</time>
      </trkpt>
      <trkpt lat="45.17382" lon="5.65447">
        <ele>770</ele>
        <time>2014-06-28T10:13:46.000Z</time>
      </trkpt>
      <trkpt lat="45.17381" lon="5.65447">
        <ele>770</ele>
        <time>2014-06-28T10:13:47.000Z</time>
      </trkpt>
      <trkpt lat="45.17381" lon="5.65447">
        <ele>770</ele>
        <time>2014-06-28T10:13:48.000Z</time>
      </trkpt>
      <trkpt lat="45.17381" lon="5.65447">
        <ele>770</ele>
        <time>2014-06-28T10:13:49.000Z</time>
      </trkpt>
      <trkpt lat="45.1738" lon="5.65447">
        <ele>771</ele>
        <time>2014-06-28T10:13:50.000Z</time>
      </trkpt>
      <trkpt lat="45.1738" lon="5.65447">
        <ele>771</ele>
        <time>2014-06-28T10:13:51.000Z</time>
      </trkpt>
      <trkpt lat="45.1738" lon="5.65447">
        <ele>771</ele>
        <time>2014-06-28T10:13:52.000Z</time>
      </trkpt>
      <trkpt lat="45.1738" lon="5.65447">
        <ele>771</ele>
        <time>2014-06-28T10:13:53.000Z</time>
      </trkpt>
      <trkpt lat="45.1738" lon="5.65447">
        <ele>771</ele>
        <time>2014-06-28T10:13:54.000Z</time>
      </trkpt>
      <trkpt lat="45.1738" lon="5.65447">
        <ele>771</ele>
        <time>2014-06-28T10:13:55.000Z</time>
      </trkpt>
      <trkpt lat="45.1738" lon="5.65447">
        <ele>770</ele>
        <time>2014-06-28T10:13:56.000Z</time>
      </trkpt>
      <trkpt lat="45.1738" lon="5.65447">
        <ele>770</ele>
        <time>2014-06-28T10:13:57.000Z</time>
      </trkpt>
      <trkpt lat="45.1738" lon="5.65447">
        <ele>770</ele>
        <time>2014-06-28T10:13:58.000Z</time>
      </trkpt>
      <trkpt lat="45.1738" lon="5.65447">
        <ele>770</ele>
        <time>2014-06-28T10:13:59.000Z</time>
      </trkpt>
      <trkpt lat="45.1738" lon="5.65447">
        <ele>770</ele>
        <time>2014-06-28T10:14:00.000Z</time>
      </trkpt>
      <trkpt lat="45.17379" lon="5.65447">
        <ele>770</ele>
        <time>2014-06-28T10:14:01.000Z</time>
      </trkpt>
      <trkpt lat="45.17379" lon="5.65446">
        <ele>770</ele>
        <time>2014-06-28T10:14:02.000Z</time>
      </trkpt>
      <trkpt lat="45.17379" lon="5.65446">
        <ele>770</ele>
        <time>2014-06-28T10:14:03.000Z</time>
      </trkpt>
      <trkpt lat="45.17379" lon="5.65446">
        <ele>770</ele>
        <time>2014-06-28T10:14:04.000Z</time>
      </trkpt>
      <trkpt lat="45.17379" lon="5.65446">
        <ele>770</ele>
        <time>2014-06-28T10:14:05.000Z</time>
      </trkpt>
      <trkpt lat="45.17379" lon="5.65446">
        <ele>770</ele>
        <time>2014-06-28T10:14:06.000Z</time>
      </trkpt>
      <trkpt lat="45.17379" lon="5.65446">
        <ele>770</ele>
        <time>2014-06-28T10:14:07.000Z</time>
      </trkpt>
      <trkpt lat="45.17379" lon="5.65446">
        <ele>770</ele>
        <time>2014-06-28T10:14:08.000Z</time>
      </trkpt>
      <trkpt lat="45.17379" lon="5.65446">
        <ele>770</ele>
        <time>2014-06-28T10:14:09.000Z</time>
      </trkpt>
      <trkpt lat="45.17379" lon="5.65446">
        <ele>770</ele>
        <time>2014-06-28T10:14:10.000Z</time>
      </trkpt>
      <trkpt lat="45.17379" lon="5.65446">
        <ele>770</ele>
        <time>2014-06-28T10:14:11.000Z</time>
      </trkpt>
      <trkpt lat="45.17379" lon="5.65446">
        <ele>770</ele>
        <time>2014-06-28T10:14:12.000Z</time>
      </trkpt>
      <trkpt lat="45.17379" lon="5.65446">
        <ele>770</ele>
        <time>2014-06-28T10:14:13.000Z</time>
      </trkpt>
      <trkpt lat="45.17379" lon="5.65446">
        <ele>770</ele>
        <time>2014-06-28T10:14:14.000Z</time>
      </trkpt>
      <trkpt lat="45.17379" lon="5.65446">
        <ele>770</ele>
        <time>2014-06-28T10:14:15.000Z</time>
      </trkpt>
      <trkpt lat="45.17379" lon="5.65446">
        <ele>770</ele>
        <time>2014-06-28T10:14:16.000Z</time>
      </trkpt>
      <trkpt lat="45.17379" lon="5.65446">
        <ele>770</ele>
        <time>2014-06-28T10:14:17.000Z</time>
      </trkpt>
      <trkpt lat="45.17379" lon="5.65446">
        <ele>770</ele>
        <time>2014-06-28T10:14:18.000Z</time>
      </trkpt>
      <trkpt lat="45.17379" lon="5.65446">
        <ele>770</ele>
        <time>2014-06-28T10:14:19.000Z</time>
      </trkpt>
      <trkpt lat="45.17379" lon="5.65446">
        <ele>770</ele>
        <time>2014-06-28T10:14:20.000Z</time>
      </trkpt>
      <trkpt lat="45.17379" lon="5.65446">
        <ele>770</ele>
        <time>2014-06-28T10:14:21.000Z</time>
      </trkpt>
      <trkpt lat="45.17379" lon="5.65446">
        <ele>770</ele>
        <time>2014-06-28T10:14:22.000Z</time>
      </trkpt>
      <trkpt lat="45.17379" lon="5.65446">
        <ele>770</ele>
        <time>2014-06-28T10:14:23.000Z</time>
      </trkpt>
      <trkpt lat="45.1738" lon="5.65446">
        <ele>769</ele>
        <time>2014-06-28T10:14:24.000Z</time>
      </trkpt>
      <trkpt lat="45.1738" lon="5.65446">
        <ele>769</ele>
        <time>2014-06-28T10:14:25.000Z</time>
      </trkpt>
      <trkpt lat="45.1738" lon="5.65446">
        <ele>769</ele>
        <time>2014-06-28T10:14:26.000Z</time>
      </trkpt>
      <trkpt lat="45.1738" lon="5.65446">
        <ele>769</ele>
        <time>2014-06-28T10:14:27.000Z</time>
      </trkpt>
      <trkpt lat="45.1738" lon="5.65446">
        <ele>769</ele>
        <time>2014-06-28T10:14:28.000Z</time>
      </trkpt>
      <trkpt lat="45.1738" lon="5.65446">
        <ele>769</ele>
        <time>2014-06-28T10:14:29.000Z</time>
      </trkpt>
      <trkpt lat="45.1738" lon="5.65446">
        <ele>768</ele>
        <time>2014-06-28T10:14:30.000Z</time>
      </trkpt>
      <trkpt lat="45.17379" lon="5.65446">
        <ele>768</ele>
        <time>2014-06-28T10:14:31.000Z</time>
      </trkpt>
      <trkpt lat="45.17379" lon="5.65446">
        <ele>768</ele>
        <time>2014-06-28T10:14:32.000Z</time>
      </trkpt>
      <trkpt lat="45.17379" lon="5.65446">
        <ele>768</ele>
        <time>2014-06-28T10:14:33.000Z</time>
      </trkpt>
      <trkpt lat="45.17379" lon="5.65446">
        <ele>768</ele>
        <time>2014-06-28T10:14:34.000Z</time>
      </trkpt>
      <trkpt lat="45.17379" lon="5.65446">
        <ele>767</ele>
        <time>2014-06-28T10:14:35.000Z</time>
      </trkpt>
      <trkpt lat="45.17379" lon="5.65446">
        <ele>767</ele>
        <time>2014-06-28T10:14:36.000Z</time>
      </trkpt>
      <trkpt lat="45.1738" lon="5.65446">
        <ele>767</ele>
        <time>2014-06-28T10:14:37.000Z</time>
      </trkpt>
      <trkpt lat="45.1738" lon="5.65447">
        <ele>767</ele>
        <time>2014-06-28T10:14:38.000Z</time>
      </trkpt>
      <trkpt lat="45.17379" lon="5.65447">
        <ele>767</ele>
        <time>2014-06-28T10:14:39.000Z</time>
      </trkpt>
      <trkpt lat="45.17379" lon="5.65446">
        <ele>767</ele>
        <time>2014-06-28T10:14:40.000Z</time>
      </trkpt>
      <trkpt lat="45.1738" lon="5.65446">
        <ele>767</ele>
        <time>2014-06-28T10:14:41.000Z</time>
      </trkpt>
      <trkpt lat="45.1738" lon="5.65446">
        <ele>767</ele>
        <time>2014-06-28T10:14:42.000Z</time>
      </trkpt>
      <trkpt lat="45.1738" lon="5.65446">
        <ele>767</ele>
        <time>2014-06-28T10:14:43.000Z</time>
      </trkpt>
      <trkpt lat="45.1738" lon="5.65446">
        <ele>766</ele>
        <time>2014-06-28T10:14:44.000Z</time>
      </trkpt>
      <trkpt lat="45.1738" lon="5.65447">
        <ele>766</ele>
        <time>2014-06-28T10:14:45.000Z</time>
      </trkpt>
      <trkpt lat="45.1738" lon="5.65447">
        <ele>766</ele>
        <time>2014-06-28T10:14:46.000Z</time>
      </trkpt>
      <trkpt lat="45.1738" lon="5.65447">
        <ele>766</ele>
        <time>2014-06-28T10:14:47.000Z</time>
      </trkpt>
      <trkpt lat="45.1738" lon="5.65447">
        <ele>766</ele>
        <time>2014-06-28T10:14:48.000Z</time>
      </trkpt>
      <trkpt lat="45.17381" lon="5.65447">
        <ele>766</ele>
        <time>2014-06-28T10:14:49.000Z</time>
      </trkpt>
      <trkpt lat="45.17381" lon="5.65447">
        <ele>766</ele>
        <time>2014-06-28T10:14:50.000Z</time>
      </trkpt>
      <trkpt lat="45.17381" lon="5.65447">
        <ele>766</ele>
        <time>2014-06-28T10:14:51.000Z</time>
      </trkpt>
      <trkpt lat="45.17381" lon="5.65447">
        <ele>766</ele>
        <time>2014-06-28T10:14:52.000Z</time>
      </trkpt>
      <trkpt lat="45.17381" lon="5.65447">
        <ele>766</ele>
        <time>2014-06-28T10:14:53.000Z</time>
      </trkpt>
      <trkpt lat="45.17381" lon="5.65446">
        <ele>766</ele>
        <time>2014-06-28T10:14:54.000Z</time>
      </trkpt>
      <trkpt lat="45.17381" lon="5.65446">
        <ele>766</ele>
        <time>2014-06-28T10:14:55.000Z</time>
      </trkpt>
      <trkpt lat="45.17381" lon="5.65446">
        <ele>766</ele>
        <time>2014-06-28T10:14:56.000Z</time>
      </trkpt>
      <trkpt lat="45.17381" lon="5.65446">
        <ele>766</ele>
        <time>2014-06-28T10:14:57.000Z</time>
      </trkpt>
      <trkpt lat="45.17382" lon="5.65446">
        <ele>766</ele>
        <time>2014-06-28T10:14:58.000Z</time>
      </trkpt>
      <trkpt lat="45.17382" lon="5.65446">
        <ele>766</ele>
        <time>2014-06-28T10:14:59.000Z</time>
      </trkpt>
      <trkpt lat="45.17382" lon="5.65446">
        <ele>766</ele>
        <time>2014-06-28T10:15:00.000Z</time>
      </trkpt>
      <trkpt lat="45.17382" lon="5.65446">
        <ele>766</ele>
        <time>2014-06-28T10:15:01.000Z</time>
      </trkpt>
      <trkpt lat="45.17382" lon="5.65446">
        <ele>766</ele>
        <time>2014-06-28T10:15:02.000Z</time>
      </trkpt>
      <trkpt lat="45.17383" lon="5.65446">
        <ele>766</ele>
        <time>2014-06-28T10:15:03.000Z</time>
      </trkpt>
      <trkpt lat="45.17383" lon="5.65446">
        <ele>767</ele>
        <time>2014-06-28T10:15:04.000Z</time>
      </trkpt>
      <trkpt lat="45.17383" lon="5.65446">
        <ele>767</ele>
        <time>2014-06-28T10:15:05.000Z</time>
      </trkpt>
      <trkpt lat="45.17383" lon="5.65446">
        <ele>767</ele>
        <time>2014-06-28T10:15:06.000Z</time>
      </trkpt>
      <trkpt lat="45.17383" lon="5.65446">
        <ele>767</ele>
        <time>2014-06-28T10:15:07.000Z</time>
      </trkpt>
      <trkpt lat="45.17383" lon="5.65446">
        <ele>767</ele>
        <time>2014-06-28T10:15:08.000Z</time>
      </trkpt>
      <trkpt lat="45.17383" lon="5.65446">
        <ele>767</ele>
        <time>2014-06-28T10:15:09.000Z</time>
      </trkpt>
      <trkpt lat="45.17383" lon="5.65445">
        <ele>767</ele>
        <time>2014-06-28T10:15:10.000Z</time>
      </trkpt>
      <trkpt lat="45.17383" lon="5.65445">
        <ele>767</ele>
        <time>2014-06-28T10:15:11.000Z</time>
      </trkpt>
      <trkpt lat="45.17383" lon="5.65445">
        <ele>767</ele>
        <time>2014-06-28T10:15:12.000Z</time>
      </trkpt>
      <trkpt lat="45.17383" lon="5.65445">
        <ele>767</ele>
        <time>2014-06-28T10:15:13.000Z</time>
      </trkpt>
      <trkpt lat="45.17383" lon="5.65445">
        <ele>767</ele>
        <time>2014-06-28T10:15:14.000Z</time>
      </trkpt>
      <trkpt lat="45.17383" lon="5.65445">
        <ele>767</ele>
        <time>2014-06-28T10:15:15.000Z</time>
      </trkpt>
      <trkpt lat="45.17383" lon="5.65445">
        <ele>767</ele>
        <time>2014-06-28T10:15:16.000Z</time>
      </trkpt>
      <trkpt lat="45.17384" lon="5.65445">
        <ele>767</ele>
        <time>2014-06-28T10:15:17.000Z</time>
      </trkpt>
      <trkpt lat="45.17384" lon="5.65445">
        <ele>767</ele>
        <time>2014-06-28T10:15:18.000Z</time>
      </trkpt>
      <trkpt lat="45.17384" lon="5.65446">
        <ele>767</ele>
        <time>2014-06-28T10:15:19.000Z</time>
      </trkpt>
      <trkpt lat="45.17385" lon="5.65446">
        <ele>767</ele>
        <time>2014-06-28T10:15:20.000Z</time>
      </trkpt>
      <trkpt lat="45.17385" lon="5.65447">
        <ele>767</ele>
        <time>2014-06-28T10:15:21.000Z</time>
      </trkpt>
      <trkpt lat="45.17386" lon="5.65447">
        <ele>767</ele>
        <time>2014-06-28T10:15:22.000Z</time>
      </trkpt>
      <trkpt lat="45.17387" lon="5.65447">
        <ele>767</ele>
        <time>2014-06-28T10:15:23.000Z</time>
      </trkpt>
      <trkpt lat="45.17388" lon="5.65448">
        <ele>767</ele>
        <time>2014-06-28T10:15:24.000Z</time>
      </trkpt>
      <trkpt lat="45.17389" lon="5.65448">
        <ele>767</ele>
        <time>2014-06-28T10:15:25.000Z</time>
      </trkpt>
      <trkpt lat="45.1739" lon="5.65448">
        <ele>767</ele>
        <time>2014-06-28T10:15:26.000Z</time>
      </trkpt>
      <trkpt lat="45.17391" lon="5.65449">
        <ele>767</ele>
        <time>2014-06-28T10:15:27.000Z</time>
      </trkpt>
      <trkpt lat="45.17392" lon="5.65448">
        <ele>767</ele>
        <time>2014-06-28T10:15:28.000Z</time>
      </trkpt>
      <trkpt lat="45.17394" lon="5.65447">
        <ele>767</ele>
        <time>2014-06-28T10:15:29.000Z</time>
      </trkpt>
      <trkpt lat="45.17396" lon="5.65446">
        <ele>766</ele>
        <time>2014-06-28T10:15:30.000Z</time>
      </trkpt>
      <trkpt lat="45.17396" lon="5.65446">
        <ele>766</ele>
        <time>2014-06-28T10:15:31.000Z</time>
      </trkpt>
      <trkpt lat="45.17396" lon="5.65445">
        <ele>766</ele>
        <time>2014-06-28T10:15:32.000Z</time>
      </trkpt>
      <trkpt lat="45.17397" lon="5.65445">
        <ele>766</ele>
        <time>2014-06-28T10:15:33.000Z</time>
      </trkpt>
      <trkpt lat="45.17397" lon="5.65444">
        <ele>766</ele>
        <time>2014-06-28T10:15:34.000Z</time>
      </trkpt>
      <trkpt lat="45.17397" lon="5.65444">
        <ele>766</ele>
        <time>2014-06-28T10:15:35.000Z</time>
      </trkpt>
      <trkpt lat="45.17398" lon="5.65443">
        <ele>766</ele>
        <time>2014-06-28T10:15:36.000Z</time>
      </trkpt>
      <trkpt lat="45.17399" lon="5.65442">
        <ele>766</ele>
        <time>2014-06-28T10:15:37.000Z</time>
      </trkpt>
      <trkpt lat="45.174" lon="5.65441">
        <ele>765</ele>
        <time>2014-06-28T10:15:38.000Z</time>
      </trkpt>
      <trkpt lat="45.17402" lon="5.65439">
        <ele>765</ele>
        <time>2014-06-28T10:15:39.000Z</time>
      </trkpt>
      <trkpt lat="45.17405" lon="5.65436">
        <ele>765</ele>
        <time>2014-06-28T10:15:40.000Z</time>
      </trkpt>
      <trkpt lat="45.17407" lon="5.65433">
        <ele>765</ele>
        <time>2014-06-28T10:15:41.000Z</time>
      </trkpt>
      <trkpt lat="45.1741" lon="5.6543">
        <ele>764</ele>
        <time>2014-06-28T10:15:42.000Z</time>
      </trkpt>
      <trkpt lat="45.17412" lon="5.65427">
        <ele>764</ele>
        <time>2014-06-28T10:15:43.000Z</time>
      </trkpt>
      <trkpt lat="45.17414" lon="5.65424">
        <ele>764</ele>
        <time>2014-06-28T10:15:44.000Z</time>
      </trkpt>
      <trkpt lat="45.17417" lon="5.65421">
        <ele>764</ele>
        <time>2014-06-28T10:15:45.000Z</time>
      </trkpt>
      <trkpt lat="45.17419" lon="5.65418">
        <ele>764</ele>
        <time>2014-06-28T10:15:46.000Z</time>
      </trkpt>
      <trkpt lat="45.17422" lon="5.65416">
        <ele>764</ele>
        <time>2014-06-28T10:15:47.000Z</time>
      </trkpt>
      <trkpt lat="45.17424" lon="5.65413">
        <ele>764</ele>
        <time>2014-06-28T10:15:48.000Z</time>
      </trkpt>
      <trkpt lat="45.17427" lon="5.6541">
        <ele>763</ele>
        <time>2014-06-28T10:15:49.000Z</time>
      </trkpt>
      <trkpt lat="45.17429" lon="5.65407">
        <ele>763</ele>
        <time>2014-06-28T10:15:50.000Z</time>
      </trkpt>
      <trkpt lat="45.17431" lon="5.65404">
        <ele>763</ele>
        <time>2014-06-28T10:15:51.000Z</time>
      </trkpt>
      <trkpt lat="45.17434" lon="5.65401">
        <ele>763</ele>
        <time>2014-06-28T10:15:52.000Z</time>
      </trkpt>
      <trkpt lat="45.17436" lon="5.65398">
        <ele>763</ele>
        <time>2014-06-28T10:15:53.000Z</time>
      </trkpt>
      <trkpt lat="45.17438" lon="5.65395">
        <ele>763</ele>
        <time>2014-06-28T10:15:54.000Z</time>
      </trkpt>
      <trkpt lat="45.1744" lon="5.65392">
        <ele>762</ele>
        <time>2014-06-28T10:15:55.000Z</time>
      </trkpt>
      <trkpt lat="45.17442" lon="5.65389">
        <ele>762</ele>
        <time>2014-06-28T10:15:56.000Z</time>
      </trkpt>
      <trkpt lat="45.17444" lon="5.65387">
        <ele>762</ele>
        <time>2014-06-28T10:15:57.000Z</time>
      </trkpt>
      <trkpt lat="45.17446" lon="5.65384">
        <ele>761</ele>
        <time>2014-06-28T10:15:58.000Z</time>
      </trkpt>
      <trkpt lat="45.17448" lon="5.65381">
        <ele>761</ele>
        <time>2014-06-28T10:15:59.000Z</time>
      </trkpt>
      <trkpt lat="45.1745" lon="5.65378">
        <ele>760</ele>
        <time>2014-06-28T10:16:00.000Z</time>
      </trkpt>
      <trkpt lat="45.17451" lon="5.65375">
        <ele>760</ele>
        <time>2014-06-28T10:16:01.000Z</time>
      </trkpt>
      <trkpt lat="45.17453" lon="5.65372">
        <ele>760</ele>
        <time>2014-06-28T10:16:02.000Z</time>
      </trkpt>
      <trkpt lat="45.17455" lon="5.65368">
        <ele>759</ele>
        <time>2014-06-28T10:16:03.000Z</time>
      </trkpt>
      <trkpt lat="45.17456" lon="5.65365">
        <ele>759</ele>
        <time>2014-06-28T10:16:04.000Z</time>
      </trkpt>
      <trkpt lat="45.17458" lon="5.65361">
        <ele>759</ele>
        <time>2014-06-28T10:16:05.000Z</time>
      </trkpt>
      <trkpt lat="45.1746" lon="5.65358">
        <ele>759</ele>
        <time>2014-06-28T10:16:06.000Z</time>
      </trkpt>
      <trkpt lat="45.17462" lon="5.65355">
        <ele>759</ele>
        <time>2014-06-28T10:16:07.000Z</time>
      </trkpt>
      <trkpt lat="45.17464" lon="5.65351">
        <ele>759</ele>
        <time>2014-06-28T10:16:08.000Z</time>
      </trkpt>
      <trkpt lat="45.17465" lon="5.65349">
        <ele>759</ele>
        <time>2014-06-28T10:16:09.000Z</time>
      </trkpt>
      <trkpt lat="45.17467" lon="5.65346">
        <ele>759</ele>
        <time>2014-06-28T10:16:10.000Z</time>
      </trkpt>
      <trkpt lat="45.17469" lon="5.65343">
        <ele>759</ele>
        <time>2014-06-28T10:16:11.000Z</time>
      </trkpt>
      <trkpt lat="45.17471" lon="5.65341">
        <ele>759</ele>
        <time>2014-06-28T10:16:12.000Z</time>
      </trkpt>
      <trkpt lat="45.17473" lon="5.65339">
        <ele>759</ele>
        <time>2014-06-28T10:16:13.000Z</time>
      </trkpt>
      <trkpt lat="45.17475" lon="5.65337">
        <ele>759</ele>
        <time>2014-06-28T10:16:14.000Z</time>
      </trkpt>
      <trkpt lat="45.17477" lon="5.65335">
        <ele>759</ele>
        <time>2014-06-28T10:16:15.000Z</time>
      </trkpt>
      <trkpt lat="45.17479" lon="5.65333">
        <ele>759</ele>
        <time>2014-06-28T10:16:16.000Z</time>
      </trkpt>
      <trkpt lat="45.17481" lon="5.65331">
        <ele>759</ele>
        <time>2014-06-28T10:16:17.000Z</time>
      </trkpt>
      <trkpt lat="45.17484" lon="5.65329">
        <ele>759</ele>
        <time>2014-06-28T10:16:18.000Z</time>
      </trkpt>
      <trkpt lat="45.17486" lon="5.65328">
        <ele>758</ele>
        <time>2014-06-28T10:16:19.000Z</time>
      </trkpt>
      <trkpt lat="45.17489" lon="5.65326">
        <ele>758</ele>
        <time>2014-06-28T10:16:20.000Z</time>
      </trkpt>
      <trkpt lat="45.17492" lon="5.65325">
        <ele>758</ele>
        <time>2014-06-28T10:16:21.000Z</time>
      </trkpt>
      <trkpt lat="45.17494" lon="5.65324">
        <ele>758</ele>
        <time>2014-06-28T10:16:22.000Z</time>
      </trkpt>
      <trkpt lat="45.17497" lon="5.65323">
        <ele>758</ele>
        <time>2014-06-28T10:16:23.000Z</time>
      </trkpt>
      <trkpt lat="45.175" lon="5.65323">
        <ele>758</ele>
        <time>2014-06-28T10:16:24.000Z</time>
      </trkpt>
      <trkpt lat="45.17502" lon="5.65323">
        <ele>758</ele>
        <time>2014-06-28T10:16:25.000Z</time>
      </trkpt>
      <trkpt lat="45.17505" lon="5.65323">
        <ele>758</ele>
        <time>2014-06-28T10:16:26.000Z</time>
      </trkpt>
      <trkpt lat="45.17507" lon="5.65323">
        <ele>758</ele>
        <time>2014-06-28T10:16:27.000Z</time>
      </trkpt>
      <trkpt lat="45.1751" lon="5.65324">
        <ele>757</ele>
        <time>2014-06-28T10:16:28.000Z</time>
      </trkpt>
      <trkpt lat="45.17513" lon="5.65326">
        <ele>757</ele>
        <time>2014-06-28T10:16:29.000Z</time>
      </trkpt>
      <trkpt lat="45.17515" lon="5.65327">
        <ele>757</ele>
        <time>2014-06-28T10:16:30.000Z</time>
      </trkpt>
      <trkpt lat="45.17519" lon="5.65328">
        <ele>757</ele>
        <time>2014-06-28T10:16:31.000Z</time>
      </trkpt>
      <trkpt lat="45.17523" lon="5.65329">
        <ele>757</ele>
        <time>2014-06-28T10:16:32.000Z</time>
      </trkpt>
      <trkpt lat="45.17527" lon="5.6533">
        <ele>757</ele>
        <time>2014-06-28T10:16:33.000Z</time>
      </trkpt>
      <trkpt lat="45.17531" lon="5.65331">
        <ele>756</ele>
        <time>2014-06-28T10:16:34.000Z</time>
      </trkpt>
      <trkpt lat="45.17536" lon="5.65333">
        <ele>756</ele>
        <time>2014-06-28T10:16:35.000Z</time>
      </trkpt>
      <trkpt lat="45.1754" lon="5.65334">
        <ele>756</ele>
        <time>2014-06-28T10:16:36.000Z</time>
      </trkpt>
      <trkpt lat="45.17545" lon="5.65335">
        <ele>756</ele>
        <time>2014-06-28T10:16:37.000Z</time>
      </trkpt>
      <trkpt lat="45.17549" lon="5.65336">
        <ele>755</ele>
        <time>2014-06-28T10:16:38.000Z</time>
      </trkpt>
      <trkpt lat="45.17553" lon="5.65337">
        <ele>755</ele>
        <time>2014-06-28T10:16:39.000Z</time>
      </trkpt>
      <trkpt lat="45.17557" lon="5.65339">
        <ele>755</ele>
        <time>2014-06-28T10:16:40.000Z</time>
      </trkpt>
      <trkpt lat="45.1756" lon="5.6534">
        <ele>755</ele>
        <time>2014-06-28T10:16:41.000Z</time>
      </trkpt>
      <trkpt lat="45.17563" lon="5.65342">
        <ele>755</ele>
        <time>2014-06-28T10:16:42.000Z</time>
      </trkpt>
      <trkpt lat="45.17566" lon="5.65345">
        <ele>754</ele>
        <time>2014-06-28T10:16:43.000Z</time>
      </trkpt>
      <trkpt lat="45.17567" lon="5.65348">
        <ele>754</ele>
        <time>2014-06-28T10:16:44.000Z</time>
      </trkpt>
      <trkpt lat="45.17567" lon="5.65351">
        <ele>754</ele>
        <time>2014-06-28T10:16:45.000Z</time>
      </trkpt>
      <trkpt lat="45.17566" lon="5.65356">
        <ele>754</ele>
        <time>2014-06-28T10:16:46.000Z</time>
      </trkpt>
      <trkpt lat="45.17563" lon="5.65362">
        <ele>754</ele>
        <time>2014-06-28T10:16:47.000Z</time>
      </trkpt>
      <trkpt lat="45.17562" lon="5.65368">
        <ele>753</ele>
        <time>2014-06-28T10:16:48.000Z</time>
      </trkpt>
      <trkpt lat="45.1756" lon="5.65376">
        <ele>753</ele>
        <time>2014-06-28T10:16:49.000Z</time>
      </trkpt>
      <trkpt lat="45.17559" lon="5.65383">
        <ele>753</ele>
        <time>2014-06-28T10:16:50.000Z</time>
      </trkpt>
      <trkpt lat="45.17558" lon="5.6539">
        <ele>753</ele>
        <time>2014-06-28T10:16:51.000Z</time>
      </trkpt>
      <trkpt lat="45.17557" lon="5.65396">
        <ele>753</ele>
        <time>2014-06-28T10:16:52.000Z</time>
      </trkpt>
      <trkpt lat="45.17556" lon="5.65402">
        <ele>753</ele>
        <time>2014-06-28T10:16:53.000Z</time>
      </trkpt>
      <trkpt lat="45.17554" lon="5.65408">
        <ele>753</ele>
        <time>2014-06-28T10:16:54.000Z</time>
      </trkpt>
      <trkpt lat="45.17553" lon="5.65413">
        <ele>753</ele>
        <time>2014-06-28T10:16:55.000Z</time>
      </trkpt>
      <trkpt lat="45.17552" lon="5.65417">
        <ele>752</ele>
        <time>2014-06-28T10:16:56.000Z</time>
      </trkpt>
      <trkpt lat="45.17551" lon="5.65421">
        <ele>752</ele>
        <time>2014-06-28T10:16:57.000Z</time>
      </trkpt>
      <trkpt lat="45.1755" lon="5.65424">
        <ele>752</ele>
        <time>2014-06-28T10:16:58.000Z</time>
      </trkpt>
      <trkpt lat="45.1755" lon="5.65427">
        <ele>752</ele>
        <time>2014-06-28T10:16:59.000Z</time>
      </trkpt>
      <trkpt lat="45.17549" lon="5.65431">
        <ele>752</ele>
        <time>2014-06-28T10:17:00.000Z</time>
      </trkpt>
      <trkpt lat="45.17548" lon="5.65434">
        <ele>752</ele>
        <time>2014-06-28T10:17:01.000Z</time>
      </trkpt>
      <trkpt lat="45.17546" lon="5.65437">
        <ele>751</ele>
        <time>2014-06-28T10:17:02.000Z</time>
      </trkpt>
      <trkpt lat="45.17545" lon="5.6544">
        <ele>751</ele>
        <time>2014-06-28T10:17:03.000Z</time>
      </trkpt>
      <trkpt lat="45.17542" lon="5.65444">
        <ele>751</ele>
        <time>2014-06-28T10:17:04.000Z</time>
      </trkpt>
      <trkpt lat="45.1754" lon="5.65446">
        <ele>750</ele>
        <time>2014-06-28T10:17:05.000Z</time>
      </trkpt>
      <trkpt lat="45.17538" lon="5.65449">
        <ele>750</ele>
        <time>2014-06-28T10:17:06.000Z</time>
      </trkpt>
      <trkpt lat="45.17536" lon="5.65452">
        <ele>750</ele>
        <time>2014-06-28T10:17:07.000Z</time>
      </trkpt>
      <trkpt lat="45.17534" lon="5.65455">
        <ele>749</ele>
        <time>2014-06-28T10:17:08.000Z</time>
      </trkpt>
      <trkpt lat="45.17532" lon="5.65458">
        <ele>749</ele>
        <time>2014-06-28T10:17:09.000Z</time>
      </trkpt>
      <trkpt lat="45.1753" lon="5.65461">
        <ele>749</ele>
        <time>2014-06-28T10:17:10.000Z</time>
      </trkpt>
      <trkpt lat="45.17527" lon="5.65464">
        <ele>749</ele>
        <time>2014-06-28T10:17:11.000Z</time>
      </trkpt>
      <trkpt lat="45.17525" lon="5.65467">
        <ele>748</ele>
        <time>2014-06-28T10:17:12.000Z</time>
      </trkpt>
      <trkpt lat="45.17523" lon="5.65469">
        <ele>748</ele>
        <time>2014-06-28T10:17:13.000Z</time>
      </trkpt>
      <trkpt lat="45.17521" lon="5.65471">
        <ele>748</ele>
        <time>2014-06-28T10:17:14.000Z</time>
      </trkpt>
      <trkpt lat="45.17518" lon="5.65474">
        <ele>748</ele>
        <time>2014-06-28T10:17:15.000Z</time>
      </trkpt>
      <trkpt lat="45.17516" lon="5.65476">
        <ele>748</ele>
        <time>2014-06-28T10:17:16.000Z</time>
      </trkpt>
      <trkpt lat="45.17514" lon="5.65479">
        <ele>748</ele>
        <time>2014-06-28T10:17:17.000Z</time>
      </trkpt>
      <trkpt lat="45.17512" lon="5.65481">
        <ele>748</ele>
        <time>2014-06-28T10:17:18.000Z</time>
      </trkpt>
      <trkpt lat="45.17509" lon="5.65484">
        <ele>747</ele>
        <time>2014-06-28T10:17:19.000Z</time>
      </trkpt>
      <trkpt lat="45.17507" lon="5.65487">
        <ele>747</ele>
        <time>2014-06-28T10:17:20.000Z</time>
      </trkpt>
      <trkpt lat="45.17505" lon="5.6549">
        <ele>747</ele>
        <time>2014-06-28T10:17:21.000Z</time>
      </trkpt>
      <trkpt lat="45.17503" lon="5.65494">
        <ele>747</ele>
        <time>2014-06-28T10:17:22.000Z</time>
      </trkpt>
      <trkpt lat="45.17501" lon="5.65498">
        <ele>746</ele>
        <time>2014-06-28T10:17:23.000Z</time>
      </trkpt>
      <trkpt lat="45.17499" lon="5.65501">
        <ele>746</ele>
        <time>2014-06-28T10:17:24.000Z</time>
      </trkpt>
      <trkpt lat="45.17497" lon="5.65505">
        <ele>746</ele>
        <time>2014-06-28T10:17:25.000Z</time>
      </trkpt>
      <trkpt lat="45.17495" lon="5.65509">
        <ele>746</ele>
        <time>2014-06-28T10:17:26.000Z</time>
      </trkpt>
      <trkpt lat="45.17493" lon="5.65512">
        <ele>746</ele>
        <time>2014-06-28T10:17:27.000Z</time>
      </trkpt>
      <trkpt lat="45.17491" lon="5.65515">
        <ele>745</ele>
        <time>2014-06-28T10:17:28.000Z</time>
      </trkpt>
      <trkpt lat="45.17489" lon="5.65518">
        <ele>745</ele>
        <time>2014-06-28T10:17:29.000Z</time>
      </trkpt>
      <trkpt lat="45.17487" lon="5.65521">
        <ele>745</ele>
        <time>2014-06-28T10:17:30.000Z</time>
      </trkpt>
      <trkpt lat="45.17485" lon="5.65524">
        <ele>745</ele>
        <time>2014-06-28T10:17:31.000Z</time>
      </trkpt>
      <trkpt lat="45.17483" lon="5.65527">
        <ele>745</ele>
        <time>2014-06-28T10:17:32.000Z</time>
      </trkpt>
      <trkpt lat="45.17481" lon="5.6553">
        <ele>744</ele>
        <time>2014-06-28T10:17:33.000Z</time>
      </trkpt>
      <trkpt lat="45.17479" lon="5.65533">
        <ele>744</ele>
        <time>2014-06-28T10:17:34.000Z</time>
      </trkpt>
      <trkpt lat="45.17476" lon="5.65536">
        <ele>744</ele>
        <time>2014-06-28T10:17:35.000Z</time>
      </trkpt>
      <trkpt lat="45.17474" lon="5.6554">
        <ele>744</ele>
        <time>2014-06-28T10:17:36.000Z</time>
      </trkpt>
      <trkpt lat="45.17472" lon="5.65544">
        <ele>744</ele>
        <time>2014-06-28T10:17:37.000Z</time>
      </trkpt>
      <trkpt lat="45.1747" lon="5.65547">
        <ele>744</ele>
        <time>2014-06-28T10:17:38.000Z</time>
      </trkpt>
      <trkpt lat="45.17469" lon="5.65551">
        <ele>744</ele>
        <time>2014-06-28T10:17:39.000Z</time>
      </trkpt>
      <trkpt lat="45.17467" lon="5.65554">
        <ele>744</ele>
        <time>2014-06-28T10:17:40.000Z</time>
      </trkpt>
      <trkpt lat="45.17465" lon="5.65557">
        <ele>744</ele>
        <time>2014-06-28T10:17:41.000Z</time>
      </trkpt>
      <trkpt lat="45.17464" lon="5.6556">
        <ele>744</ele>
        <time>2014-06-28T10:17:42.000Z</time>
      </trkpt>
      <trkpt lat="45.17462" lon="5.65563">
        <ele>744</ele>
        <time>2014-06-28T10:17:43.000Z</time>
      </trkpt>
      <trkpt lat="45.17461" lon="5.65566">
        <ele>744</ele>
        <time>2014-06-28T10:17:44.000Z</time>
      </trkpt>
      <trkpt lat="45.1746" lon="5.65569">
        <ele>744</ele>
        <time>2014-06-28T10:17:45.000Z</time>
      </trkpt>
      <trkpt lat="45.17459" lon="5.65573">
        <ele>744</ele>
        <time>2014-06-28T10:17:46.000Z</time>
      </trkpt>
      <trkpt lat="45.17458" lon="5.65577">
        <ele>744</ele>
        <time>2014-06-28T10:17:47.000Z</time>
      </trkpt>
      <trkpt lat="45.17456" lon="5.65581">
        <ele>744</ele>
        <time>2014-06-28T10:17:48.000Z</time>
      </trkpt>
      <trkpt lat="45.17455" lon="5.65586">
        <ele>744</ele>
        <time>2014-06-28T10:17:49.000Z</time>
      </trkpt>
      <trkpt lat="45.17454" lon="5.65591">
        <ele>743</ele>
        <time>2014-06-28T10:17:50.000Z</time>
      </trkpt>
      <trkpt lat="45.17453" lon="5.65595">
        <ele>743</ele>
        <time>2014-06-28T10:17:51.000Z</time>
      </trkpt>
      <trkpt lat="45.17452" lon="5.656">
        <ele>743</ele>
        <time>2014-06-28T10:17:52.000Z</time>
      </trkpt>
      <trkpt lat="45.1745" lon="5.65605">
        <ele>743</ele>
        <time>2014-06-28T10:17:53.000Z</time>
      </trkpt>
      <trkpt lat="45.17449" lon="5.6561">
        <ele>743</ele>
        <time>2014-06-28T10:17:54.000Z</time>
      </trkpt>
      <trkpt lat="45.17448" lon="5.65614">
        <ele>743</ele>
        <time>2014-06-28T10:17:55.000Z</time>
      </trkpt>
      <trkpt lat="45.17447" lon="5.65619">
        <ele>743</ele>
        <time>2014-06-28T10:17:56.000Z</time>
      </trkpt>
      <trkpt lat="45.17445" lon="5.65623">
        <ele>743</ele>
        <time>2014-06-28T10:17:57.000Z</time>
      </trkpt>
      <trkpt lat="45.17444" lon="5.65628">
        <ele>743</ele>
        <time>2014-06-28T10:17:58.000Z</time>
      </trkpt>
      <trkpt lat="45.17443" lon="5.65633">
        <ele>743</ele>
        <time>2014-06-28T10:17:59.000Z</time>
      </trkpt>
      <trkpt lat="45.17442" lon="5.65637">
        <ele>743</ele>
        <time>2014-06-28T10:18:00.000Z</time>
      </trkpt>
      <trkpt lat="45.17441" lon="5.65642">
        <ele>743</ele>
        <time>2014-06-28T10:18:01.000Z</time>
      </trkpt>
      <trkpt lat="45.1744" lon="5.65646">
        <ele>743</ele>
        <time>2014-06-28T10:18:02.000Z</time>
      </trkpt>
      <trkpt lat="45.17439" lon="5.6565">
        <ele>743</ele>
        <time>2014-06-28T10:18:03.000Z</time>
      </trkpt>
      <trkpt lat="45.17437" lon="5.65655">
        <ele>743</ele>
        <time>2014-06-28T10:18:04.000Z</time>
      </trkpt>
      <trkpt lat="45.17436" lon="5.65658">
        <ele>743</ele>
        <time>2014-06-28T10:18:05.000Z</time>
      </trkpt>
      <trkpt lat="45.17435" lon="5.65662">
        <ele>743</ele>
        <time>2014-06-28T10:18:06.000Z</time>
      </trkpt>
      <trkpt lat="45.17435" lon="5.65665">
        <ele>743</ele>
        <time>2014-06-28T10:18:07.000Z</time>
      </trkpt>
      <trkpt lat="45.17434" lon="5.65669">
        <ele>742</ele>
        <time>2014-06-28T10:18:08.000Z</time>
      </trkpt>
      <trkpt lat="45.17433" lon="5.65673">
        <ele>742</ele>
        <time>2014-06-28T10:18:09.000Z</time>
      </trkpt>
      <trkpt lat="45.17432" lon="5.65676">
        <ele>742</ele>
        <time>2014-06-28T10:18:10.000Z</time>
      </trkpt>
      <trkpt lat="45.1743" lon="5.6568">
        <ele>742</ele>
        <time>2014-06-28T10:18:11.000Z</time>
      </trkpt>
      <trkpt lat="45.17428" lon="5.65684">
        <ele>742</ele>
        <time>2014-06-28T10:18:12.000Z</time>
      </trkpt>
      <trkpt lat="45.17426" lon="5.65688">
        <ele>742</ele>
        <time>2014-06-28T10:18:13.000Z</time>
      </trkpt>
      <trkpt lat="45.17424" lon="5.65691">
        <ele>742</ele>
        <time>2014-06-28T10:18:14.000Z</time>
      </trkpt>
      <trkpt lat="45.17422" lon="5.65694">
        <ele>741</ele>
        <time>2014-06-28T10:18:15.000Z</time>
      </trkpt>
      <trkpt lat="45.1742" lon="5.65697">
        <ele>741</ele>
        <time>2014-06-28T10:18:16.000Z</time>
      </trkpt>
      <trkpt lat="45.17418" lon="5.657">
        <ele>741</ele>
        <time>2014-06-28T10:18:17.000Z</time>
      </trkpt>
      <trkpt lat="45.17415" lon="5.65703">
        <ele>741</ele>
        <time>2014-06-28T10:18:18.000Z</time>
      </trkpt>
      <trkpt lat="45.17413" lon="5.65705">
        <ele>741</ele>
        <time>2014-06-28T10:18:19.000Z</time>
      </trkpt>
      <trkpt lat="45.1741" lon="5.65708">
        <ele>740</ele>
        <time>2014-06-28T10:18:20.000Z</time>
      </trkpt>
      <trkpt lat="45.17408" lon="5.6571">
        <ele>740</ele>
        <time>2014-06-28T10:18:21.000Z</time>
      </trkpt>
      <trkpt lat="45.17406" lon="5.65713">
        <ele>740</ele>
        <time>2014-06-28T10:18:22.000Z</time>
      </trkpt>
      <trkpt lat="45.17403" lon="5.65715">
        <ele>740</ele>
        <time>2014-06-28T10:18:23.000Z</time>
      </trkpt>
      <trkpt lat="45.17401" lon="5.65717">
        <ele>740</ele>
        <time>2014-06-28T10:18:24.000Z</time>
      </trkpt>
      <trkpt lat="45.17399" lon="5.65719">
        <ele>739</ele>
        <time>2014-06-28T10:18:25.000Z</time>
      </trkpt>
      <trkpt lat="45.17396" lon="5.65721">
        <ele>739</ele>
        <time>2014-06-28T10:18:26.000Z</time>
      </trkpt>
      <trkpt lat="45.17394" lon="5.65723">
        <ele>739</ele>
        <time>2014-06-28T10:18:27.000Z</time>
      </trkpt>
      <trkpt lat="45.17391" lon="5.65725">
        <ele>739</ele>
        <time>2014-06-28T10:18:28.000Z</time>
      </trkpt>
      <trkpt lat="45.17388" lon="5.65727">
        <ele>738</ele>
        <time>2014-06-28T10:18:29.000Z</time>
      </trkpt>
      <trkpt lat="45.17385" lon="5.6573">
        <ele>738</ele>
        <time>2014-06-28T10:18:30.000Z</time>
      </trkpt>
      <trkpt lat="45.17383" lon="5.65733">
        <ele>738</ele>
        <time>2014-06-28T10:18:31.000Z</time>
      </trkpt>
      <trkpt lat="45.1738" lon="5.65735">
        <ele>738</ele>
        <time>2014-06-28T10:18:32.000Z</time>
      </trkpt>
      <trkpt lat="45.17377" lon="5.65738">
        <ele>738</ele>
        <time>2014-06-28T10:18:33.000Z</time>
      </trkpt>
      <trkpt lat="45.17374" lon="5.6574">
        <ele>738</ele>
        <time>2014-06-28T10:18:34.000Z</time>
      </trkpt>
      <trkpt lat="45.17371" lon="5.65742">
        <ele>737</ele>
        <time>2014-06-28T10:18:35.000Z</time>
      </trkpt>
      <trkpt lat="45.17368" lon="5.65745">
        <ele>737</ele>
        <time>2014-06-28T10:18:36.000Z</time>
      </trkpt>
      <trkpt lat="45.17365" lon="5.65747">
        <ele>737</ele>
        <time>2014-06-28T10:18:37.000Z</time>
      </trkpt>
      <trkpt lat="45.17362" lon="5.65749">
        <ele>737</ele>
        <time>2014-06-28T10:18:38.000Z</time>
      </trkpt>
      <trkpt lat="45.17359" lon="5.65752">
        <ele>736</ele>
        <time>2014-06-28T10:18:39.000Z</time>
      </trkpt>
      <trkpt lat="45.17357" lon="5.65754">
        <ele>736</ele>
        <time>2014-06-28T10:18:40.000Z</time>
      </trkpt>
      <trkpt lat="45.17354" lon="5.65756">
        <ele>736</ele>
        <time>2014-06-28T10:18:41.000Z</time>
      </trkpt>
      <trkpt lat="45.17352" lon="5.65758">
        <ele>736</ele>
        <time>2014-06-28T10:18:42.000Z</time>
      </trkpt>
      <trkpt lat="45.1735" lon="5.6576">
        <ele>735</ele>
        <time>2014-06-28T10:18:43.000Z</time>
      </trkpt>
      <trkpt lat="45.17347" lon="5.65762">
        <ele>735</ele>
        <time>2014-06-28T10:18:44.000Z</time>
      </trkpt>
      <trkpt lat="45.17345" lon="5.65764">
        <ele>735</ele>
        <time>2014-06-28T10:18:45.000Z</time>
      </trkpt>
      <trkpt lat="45.17343" lon="5.65765">
        <ele>735</ele>
        <time>2014-06-28T10:18:46.000Z</time>
      </trkpt>
      <trkpt lat="45.17341" lon="5.65766">
        <ele>735</ele>
        <time>2014-06-28T10:18:47.000Z</time>
      </trkpt>
      <trkpt lat="45.17339" lon="5.65767">
        <ele>735</ele>
        <time>2014-06-28T10:18:48.000Z</time>
      </trkpt>
      <trkpt lat="45.17337" lon="5.65769">
        <ele>735</ele>
        <time>2014-06-28T10:18:49.000Z</time>
      </trkpt>
      <trkpt lat="45.17335" lon="5.6577">
        <ele>735</ele>
        <time>2014-06-28T10:18:50.000Z</time>
      </trkpt>
      <trkpt lat="45.17332" lon="5.65771">
        <ele>734</ele>
        <time>2014-06-28T10:18:51.000Z</time>
      </trkpt>
      <trkpt lat="45.1733" lon="5.65772">
        <ele>734</ele>
        <time>2014-06-28T10:18:52.000Z</time>
      </trkpt>
      <trkpt lat="45.17327" lon="5.65773">
        <ele>734</ele>
        <time>2014-06-28T10:18:53.000Z</time>
      </trkpt>
      <trkpt lat="45.17325" lon="5.65776">
        <ele>734</ele>
        <time>2014-06-28T10:18:54.000Z</time>
      </trkpt>
      <trkpt lat="45.17322" lon="5.65778">
        <ele>734</ele>
        <time>2014-06-28T10:18:55.000Z</time>
      </trkpt>
      <trkpt lat="45.17319" lon="5.65781">
        <ele>734</ele>
        <time>2014-06-28T10:18:56.000Z</time>
      </trkpt>
      <trkpt lat="45.17316" lon="5.65784">
        <ele>734</ele>
        <time>2014-06-28T10:18:57.000Z</time>
      </trkpt>
      <trkpt lat="45.17313" lon="5.65788">
        <ele>733</ele>
        <time>2014-06-28T10:18:58.000Z</time>
      </trkpt>
      <trkpt lat="45.1731" lon="5.65792">
        <ele>733</ele>
        <time>2014-06-28T10:18:59.000Z</time>
      </trkpt>
      <trkpt lat="45.17307" lon="5.65795">
        <ele>733</ele>
        <time>2014-06-28T10:19:00.000Z</time>
      </trkpt>
      <trkpt lat="45.17303" lon="5.65799">
        <ele>733</ele>
        <time>2014-06-28T10:19:01.000Z</time>
      </trkpt>
      <trkpt lat="45.173" lon="5.65803">
        <ele>733</ele>
        <time>2014-06-28T10:19:02.000Z</time>
      </trkpt>
      <trkpt lat="45.17297" lon="5.65806">
        <ele>733</ele>
        <time>2014-06-28T10:19:03.000Z</time>
      </trkpt>
      <trkpt lat="45.17294" lon="5.6581">
        <ele>733</ele>
        <time>2014-06-28T10:19:04.000Z</time>
      </trkpt>
      <trkpt lat="45.17292" lon="5.65813">
        <ele>733</ele>
        <time>2014-06-28T10:19:05.000Z</time>
      </trkpt>
      <trkpt lat="45.17289" lon="5.65817">
        <ele>732</ele>
        <time>2014-06-28T10:19:06.000Z</time>
      </trkpt>
      <trkpt lat="45.17287" lon="5.6582">
        <ele>732</ele>
        <time>2014-06-28T10:19:07.000Z</time>
      </trkpt>
      <trkpt lat="45.17284" lon="5.65823">
        <ele>732</ele>
        <time>2014-06-28T10:19:08.000Z</time>
      </trkpt>
      <trkpt lat="45.17282" lon="5.65827">
        <ele>732</ele>
        <time>2014-06-28T10:19:09.000Z</time>
      </trkpt>
      <trkpt lat="45.17279" lon="5.6583">
        <ele>732</ele>
        <time>2014-06-28T10:19:10.000Z</time>
      </trkpt>
      <trkpt lat="45.17277" lon="5.65834">
        <ele>732</ele>
        <time>2014-06-28T10:19:11.000Z</time>
      </trkpt>
      <trkpt lat="45.17275" lon="5.65837">
        <ele>732</ele>
        <time>2014-06-28T10:19:12.000Z</time>
      </trkpt>
      <trkpt lat="45.17273" lon="5.65841">
        <ele>732</ele>
        <time>2014-06-28T10:19:13.000Z</time>
      </trkpt>
      <trkpt lat="45.17271" lon="5.65845">
        <ele>731</ele>
        <time>2014-06-28T10:19:14.000Z</time>
      </trkpt>
      <trkpt lat="45.17269" lon="5.65849">
        <ele>731</ele>
        <time>2014-06-28T10:19:15.000Z</time>
      </trkpt>
      <trkpt lat="45.17268" lon="5.65853">
        <ele>731</ele>
        <time>2014-06-28T10:19:16.000Z</time>
      </trkpt>
      <trkpt lat="45.17266" lon="5.65856">
        <ele>731</ele>
        <time>2014-06-28T10:19:17.000Z</time>
      </trkpt>
      <trkpt lat="45.17265" lon="5.6586">
        <ele>731</ele>
        <time>2014-06-28T10:19:18.000Z</time>
      </trkpt>
      <trkpt lat="45.17263" lon="5.65864">
        <ele>731</ele>
        <time>2014-06-28T10:19:19.000Z</time>
      </trkpt>
      <trkpt lat="45.17261" lon="5.65868">
        <ele>731</ele>
        <time>2014-06-28T10:19:20.000Z</time>
      </trkpt>
      <trkpt lat="45.1726" lon="5.65872">
        <ele>731</ele>
        <time>2014-06-28T10:19:21.000Z</time>
      </trkpt>
      <trkpt lat="45.17259" lon="5.65877">
        <ele>731</ele>
        <time>2014-06-28T10:19:22.000Z</time>
      </trkpt>
      <trkpt lat="45.17257" lon="5.65881">
        <ele>731</ele>
        <time>2014-06-28T10:19:23.000Z</time>
      </trkpt>
      <trkpt lat="45.17256" lon="5.65885">
        <ele>731</ele>
        <time>2014-06-28T10:19:24.000Z</time>
      </trkpt>
      <trkpt lat="45.17255" lon="5.65889">
        <ele>731</ele>
        <time>2014-06-28T10:19:25.000Z</time>
      </trkpt>
      <trkpt lat="45.17255" lon="5.65893">
        <ele>731</ele>
        <time>2014-06-28T10:19:26.000Z</time>
      </trkpt>
      <trkpt lat="45.17254" lon="5.65897">
        <ele>731</ele>
        <time>2014-06-28T10:19:27.000Z</time>
      </trkpt>
      <trkpt lat="45.17254" lon="5.65901">
        <ele>731</ele>
        <time>2014-06-28T10:19:28.000Z</time>
      </trkpt>
      <trkpt lat="45.17253" lon="5.65906">
        <ele>731</ele>
        <time>2014-06-28T10:19:29.000Z</time>
      </trkpt>
      <trkpt lat="45.17253" lon="5.65911">
        <ele>730</ele>
        <time>2014-06-28T10:19:30.000Z</time>
      </trkpt>
      <trkpt lat="45.17253" lon="5.65915">
        <ele>730</ele>
        <time>2014-06-28T10:19:31.000Z</time>
      </trkpt>
      <trkpt lat="45.17253" lon="5.6592">
        <ele>730</ele>
        <time>2014-06-28T10:19:32.000Z</time>
      </trkpt>
      <trkpt lat="45.17253" lon="5.65925">
        <ele>729</ele>
        <time>2014-06-28T10:19:33.000Z</time>
      </trkpt>
      <trkpt lat="45.17254" lon="5.6593">
        <ele>729</ele>
        <time>2014-06-28T10:19:34.000Z</time>
      </trkpt>
      <trkpt lat="45.17254" lon="5.65935">
        <ele>729</ele>
        <time>2014-06-28T10:19:35.000Z</time>
      </trkpt>
      <trkpt lat="45.17255" lon="5.65939">
        <ele>728</ele>
        <time>2014-06-28T10:19:36.000Z</time>
      </trkpt>
      <trkpt lat="45.17256" lon="5.65944">
        <ele>728</ele>
        <time>2014-06-28T10:19:37.000Z</time>
      </trkpt>
      <trkpt lat="45.17257" lon="5.65948">
        <ele>728</ele>
        <time>2014-06-28T10:19:38.000Z</time>
      </trkpt>
      <trkpt lat="45.17257" lon="5.65953">
        <ele>727</ele>
        <time>2014-06-28T10:19:39.000Z</time>
      </trkpt>
      <trkpt lat="45.17258" lon="5.65958">
        <ele>727</ele>
        <time>2014-06-28T10:19:40.000Z</time>
      </trkpt>
      <trkpt lat="45.17259" lon="5.65963">
        <ele>727</ele>
        <time>2014-06-28T10:19:41.000Z</time>
      </trkpt>
      <trkpt lat="45.1726" lon="5.65967">
        <ele>726</ele>
        <time>2014-06-28T10:19:42.000Z</time>
      </trkpt>
      <trkpt lat="45.17261" lon="5.65972">
        <ele>726</ele>
        <time>2014-06-28T10:19:43.000Z</time>
      </trkpt>
      <trkpt lat="45.17262" lon="5.65976">
        <ele>725</ele>
        <time>2014-06-28T10:19:44.000Z</time>
      </trkpt>
      <trkpt lat="45.17264" lon="5.65981">
        <ele>725</ele>
        <time>2014-06-28T10:19:45.000Z</time>
      </trkpt>
      <trkpt lat="45.17265" lon="5.65985">
        <ele>725</ele>
        <time>2014-06-28T10:19:46.000Z</time>
      </trkpt>
      <trkpt lat="45.17266" lon="5.6599">
        <ele>724</ele>
        <time>2014-06-28T10:19:47.000Z</time>
      </trkpt>
      <trkpt lat="45.17268" lon="5.65994">
        <ele>724</ele>
        <time>2014-06-28T10:19:48.000Z</time>
      </trkpt>
      <trkpt lat="45.17269" lon="5.65999">
        <ele>723</ele>
        <time>2014-06-28T10:19:49.000Z</time>
      </trkpt>
      <trkpt lat="45.1727" lon="5.66003">
        <ele>723</ele>
        <time>2014-06-28T10:19:50.000Z</time>
      </trkpt>
      <trkpt lat="45.17272" lon="5.66008">
        <ele>723</ele>
        <time>2014-06-28T10:19:51.000Z</time>
      </trkpt>
      <trkpt lat="45.17273" lon="5.66012">
        <ele>723</ele>
        <time>2014-06-28T10:19:52.000Z</time>
      </trkpt>
      <trkpt lat="45.17274" lon="5.66017">
        <ele>722</ele>
        <time>2014-06-28T10:19:53.000Z</time>
      </trkpt>
      <trkpt lat="45.17275" lon="5.66021">
        <ele>722</ele>
        <time>2014-06-28T10:19:54.000Z</time>
      </trkpt>
      <trkpt lat="45.17277" lon="5.66025">
        <ele>722</ele>
        <time>2014-06-28T10:19:55.000Z</time>
      </trkpt>
      <trkpt lat="45.17277" lon="5.66029">
        <ele>722</ele>
        <time>2014-06-28T10:19:56.000Z</time>
      </trkpt>
      <trkpt lat="45.17278" lon="5.66033">
        <ele>721</ele>
        <time>2014-06-28T10:19:57.000Z</time>
      </trkpt>
      <trkpt lat="45.17279" lon="5.66037">
        <ele>721</ele>
        <time>2014-06-28T10:19:58.000Z</time>
      </trkpt>
      <trkpt lat="45.1728" lon="5.66042">
        <ele>721</ele>
        <time>2014-06-28T10:19:59.000Z</time>
      </trkpt>
      <trkpt lat="45.17281" lon="5.66046">
        <ele>721</ele>
        <time>2014-06-28T10:20:00.000Z</time>
      </trkpt>
      <trkpt lat="45.17281" lon="5.66051">
        <ele>721</ele>
        <time>2014-06-28T10:20:01.000Z</time>
      </trkpt>
      <trkpt lat="45.17281" lon="5.66056">
        <ele>720</ele>
        <time>2014-06-28T10:20:02.000Z</time>
      </trkpt>
      <trkpt lat="45.17282" lon="5.6606">
        <ele>720</ele>
        <time>2014-06-28T10:20:03.000Z</time>
      </trkpt>
      <trkpt lat="45.17282" lon="5.66065">
        <ele>720</ele>
        <time>2014-06-28T10:20:04.000Z</time>
      </trkpt>
      <trkpt lat="45.17282" lon="5.66069">
        <ele>720</ele>
        <time>2014-06-28T10:20:05.000Z</time>
      </trkpt>
      <trkpt lat="45.17282" lon="5.66073">
        <ele>720</ele>
        <time>2014-06-28T10:20:06.000Z</time>
      </trkpt>
      <trkpt lat="45.17282" lon="5.66077">
        <ele>720</ele>
        <time>2014-06-28T10:20:07.000Z</time>
      </trkpt>
      <trkpt lat="45.17282" lon="5.66082">
        <ele>719</ele>
        <time>2014-06-28T10:20:08.000Z</time>
      </trkpt>
      <trkpt lat="45.17282" lon="5.66086">
        <ele>719</ele>
        <time>2014-06-28T10:20:09.000Z</time>
      </trkpt>
      <trkpt lat="45.17281" lon="5.6609">
        <ele>719</ele>
        <time>2014-06-28T10:20:10.000Z</time>
      </trkpt>
      <trkpt lat="45.17281" lon="5.66095">
        <ele>719</ele>
        <time>2014-06-28T10:20:11.000Z</time>
      </trkpt>
      <trkpt lat="45.17282" lon="5.66099">
        <ele>719</ele>
        <time>2014-06-28T10:20:12.000Z</time>
      </trkpt>
      <trkpt lat="45.17281" lon="5.66103">
        <ele>719</ele>
        <time>2014-06-28T10:20:13.000Z</time>
      </trkpt>
      <trkpt lat="45.17281" lon="5.66108">
        <ele>719</ele>
        <time>2014-06-28T10:20:14.000Z</time>
      </trkpt>
      <trkpt lat="45.17281" lon="5.66112">
        <ele>719</ele>
        <time>2014-06-28T10:20:15.000Z</time>
      </trkpt>
      <trkpt lat="45.17281" lon="5.66116">
        <ele>718</ele>
        <time>2014-06-28T10:20:16.000Z</time>
      </trkpt>
      <trkpt lat="45.17281" lon="5.66121">
        <ele>718</ele>
        <time>2014-06-28T10:20:17.000Z</time>
      </trkpt>
      <trkpt lat="45.17282" lon="5.66125">
        <ele>718</ele>
        <time>2014-06-28T10:20:18.000Z</time>
      </trkpt>
      <trkpt lat="45.17282" lon="5.6613">
        <ele>718</ele>
        <time>2014-06-28T10:20:19.000Z</time>
      </trkpt>
      <trkpt lat="45.17282" lon="5.66135">
        <ele>718</ele>
        <time>2014-06-28T10:20:20.000Z</time>
      </trkpt>
      <trkpt lat="45.17283" lon="5.66139">
        <ele>717</ele>
        <time>2014-06-28T10:20:21.000Z</time>
      </trkpt>
      <trkpt lat="45.17283" lon="5.66144">
        <ele>717</ele>
        <time>2014-06-28T10:20:22.000Z</time>
      </trkpt>
      <trkpt lat="45.17284" lon="5.66149">
        <ele>717</ele>
        <time>2014-06-28T10:20:23.000Z</time>
      </trkpt>
      <trkpt lat="45.17284" lon="5.66153">
        <ele>717</ele>
        <time>2014-06-28T10:20:24.000Z</time>
      </trkpt>
      <trkpt lat="45.17284" lon="5.66158">
        <ele>716</ele>
        <time>2014-06-28T10:20:25.000Z</time>
      </trkpt>
      <trkpt lat="45.17285" lon="5.66163">
        <ele>716</ele>
        <time>2014-06-28T10:20:26.000Z</time>
      </trkpt>
      <trkpt lat="45.17285" lon="5.66168">
        <ele>716</ele>
        <time>2014-06-28T10:20:27.000Z</time>
      </trkpt>
      <trkpt lat="45.17285" lon="5.66173">
        <ele>715</ele>
        <time>2014-06-28T10:20:28.000Z</time>
      </trkpt>
      <trkpt lat="45.17285" lon="5.66178">
        <ele>715</ele>
        <time>2014-06-28T10:20:29.000Z</time>
      </trkpt>
      <trkpt lat="45.17286" lon="5.66183">
        <ele>715</ele>
        <time>2014-06-28T10:20:30.000Z</time>
      </trkpt>
      <trkpt lat="45.17286" lon="5.66188">
        <ele>714</ele>
        <time>2014-06-28T10:20:31.000Z</time>
      </trkpt>
      <trkpt lat="45.17287" lon="5.66192">
        <ele>714</ele>
        <time>2014-06-28T10:20:32.000Z</time>
      </trkpt>
      <trkpt lat="45.17287" lon="5.66197">
        <ele>714</ele>
        <time>2014-06-28T10:20:33.000Z</time>
      </trkpt>
      <trkpt lat="45.17287" lon="5.66202">
        <ele>713</ele>
        <time>2014-06-28T10:20:34.000Z</time>
      </trkpt>
      <trkpt lat="45.17288" lon="5.66206">
        <ele>713</ele>
        <time>2014-06-28T10:20:35.000Z</time>
      </trkpt>
      <trkpt lat="45.17288" lon="5.6621">
        <ele>713</ele>
        <time>2014-06-28T10:20:36.000Z</time>
      </trkpt>
      <trkpt lat="45.17289" lon="5.66215">
        <ele>713</ele>
        <time>2014-06-28T10:20:37.000Z</time>
      </trkpt>
      <trkpt lat="45.17289" lon="5.66219">
        <ele>712</ele>
        <time>2014-06-28T10:20:38.000Z</time>
      </trkpt>
      <trkpt lat="45.17289" lon="5.66224">
        <ele>712</ele>
        <time>2014-06-28T10:20:39.000Z</time>
      </trkpt>
      <trkpt lat="45.1729" lon="5.66228">
        <ele>712</ele>
        <time>2014-06-28T10:20:40.000Z</time>
      </trkpt>
      <trkpt lat="45.17291" lon="5.66233">
        <ele>712</ele>
        <time>2014-06-28T10:20:41.000Z</time>
      </trkpt>
      <trkpt lat="45.17291" lon="5.66237">
        <ele>712</ele>
        <time>2014-06-28T10:20:42.000Z</time>
      </trkpt>
      <trkpt lat="45.17292" lon="5.66241">
        <ele>711</ele>
        <time>2014-06-28T10:20:43.000Z</time>
      </trkpt>
      <trkpt lat="45.17292" lon="5.66246">
        <ele>711</ele>
        <time>2014-06-28T10:20:44.000Z</time>
      </trkpt>
      <trkpt lat="45.17292" lon="5.6625">
        <ele>711</ele>
        <time>2014-06-28T10:20:45.000Z</time>
      </trkpt>
      <trkpt lat="45.17292" lon="5.66254">
        <ele>711</ele>
        <time>2014-06-28T10:20:46.000Z</time>
      </trkpt>
      <trkpt lat="45.17291" lon="5.66258">
        <ele>711</ele>
        <time>2014-06-28T10:20:47.000Z</time>
      </trkpt>
      <trkpt lat="45.1729" lon="5.66262">
        <ele>711</ele>
        <time>2014-06-28T10:20:48.000Z</time>
      </trkpt>
      <trkpt lat="45.17289" lon="5.66266">
        <ele>711</ele>
        <time>2014-06-28T10:20:49.000Z</time>
      </trkpt>
      <trkpt lat="45.17289" lon="5.6627">
        <ele>711</ele>
        <time>2014-06-28T10:20:50.000Z</time>
      </trkpt>
      <trkpt lat="45.17288" lon="5.66274">
        <ele>710</ele>
        <time>2014-06-28T10:20:51.000Z</time>
      </trkpt>
      <trkpt lat="45.17287" lon="5.66277">
        <ele>710</ele>
        <time>2014-06-28T10:20:52.000Z</time>
      </trkpt>
      <trkpt lat="45.17286" lon="5.66281">
        <ele>710</ele>
        <time>2014-06-28T10:20:53.000Z</time>
      </trkpt>
      <trkpt lat="45.17285" lon="5.66284">
        <ele>710</ele>
        <time>2014-06-28T10:20:54.000Z</time>
      </trkpt>
      <trkpt lat="45.17285" lon="5.66287">
        <ele>710</ele>
        <time>2014-06-28T10:20:55.000Z</time>
      </trkpt>
      <trkpt lat="45.17284" lon="5.6629">
        <ele>710</ele>
        <time>2014-06-28T10:20:56.000Z</time>
      </trkpt>
      <trkpt lat="45.17284" lon="5.66292">
        <ele>710</ele>
        <time>2014-06-28T10:20:57.000Z</time>
      </trkpt>
      <trkpt lat="45.17283" lon="5.66295">
        <ele>710</ele>
        <time>2014-06-28T10:20:58.000Z</time>
      </trkpt>
      <trkpt lat="45.17282" lon="5.66298">
        <ele>710</ele>
        <time>2014-06-28T10:20:59.000Z</time>
      </trkpt>
      <trkpt lat="45.17281" lon="5.663">
        <ele>710</ele>
        <time>2014-06-28T10:21:00.000Z</time>
      </trkpt>
      <trkpt lat="45.1728" lon="5.66303">
        <ele>710</ele>
        <time>2014-06-28T10:21:01.000Z</time>
      </trkpt>
      <trkpt lat="45.17279" lon="5.66306">
        <ele>709</ele>
        <time>2014-06-28T10:21:02.000Z</time>
      </trkpt>
      <trkpt lat="45.17278" lon="5.66308">
        <ele>709</ele>
        <time>2014-06-28T10:21:03.000Z</time>
      </trkpt>
      <trkpt lat="45.17277" lon="5.66311">
        <ele>709</ele>
        <time>2014-06-28T10:21:04.000Z</time>
      </trkpt>
      <trkpt lat="45.17275" lon="5.66313">
        <ele>709</ele>
        <time>2014-06-28T10:21:05.000Z</time>
      </trkpt>
      <trkpt lat="45.17273" lon="5.66316">
        <ele>708</ele>
        <time>2014-06-28T10:21:06.000Z</time>
      </trkpt>
      <trkpt lat="45.17271" lon="5.66319">
        <ele>708</ele>
        <time>2014-06-28T10:21:07.000Z</time>
      </trkpt>
      <trkpt lat="45.17268" lon="5.66323">
        <ele>708</ele>
        <time>2014-06-28T10:21:08.000Z</time>
      </trkpt>
      <trkpt lat="45.17265" lon="5.66326">
        <ele>707</ele>
        <time>2014-06-28T10:21:09.000Z</time>
      </trkpt>
      <trkpt lat="45.17262" lon="5.6633">
        <ele>706</ele>
        <time>2014-06-28T10:21:10.000Z</time>
      </trkpt>
      <trkpt lat="45.17258" lon="5.66333">
        <ele>706</ele>
        <time>2014-06-28T10:21:11.000Z</time>
      </trkpt>
      <trkpt lat="45.17254" lon="5.66336">
        <ele>705</ele>
        <time>2014-06-28T10:21:12.000Z</time>
      </trkpt>
      <trkpt lat="45.1725" lon="5.6634">
        <ele>705</ele>
        <time>2014-06-28T10:21:13.000Z</time>
      </trkpt>
      <trkpt lat="45.17246" lon="5.66343">
        <ele>704</ele>
        <time>2014-06-28T10:21:14.000Z</time>
      </trkpt>
      <trkpt lat="45.17242" lon="5.66346">
        <ele>704</ele>
        <time>2014-06-28T10:21:15.000Z</time>
      </trkpt>
      <trkpt lat="45.17238" lon="5.66349">
        <ele>703</ele>
        <time>2014-06-28T10:21:16.000Z</time>
      </trkpt>
      <trkpt lat="45.17234" lon="5.66351">
        <ele>703</ele>
        <time>2014-06-28T10:21:17.000Z</time>
      </trkpt>
      <trkpt lat="45.1723" lon="5.66354">
        <ele>702</ele>
        <time>2014-06-28T10:21:18.000Z</time>
      </trkpt>
      <trkpt lat="45.17226" lon="5.66356">
        <ele>702</ele>
        <time>2014-06-28T10:21:19.000Z</time>
      </trkpt>
      <trkpt lat="45.17222" lon="5.66358">
        <ele>702</ele>
        <time>2014-06-28T10:21:20.000Z</time>
      </trkpt>
      <trkpt lat="45.17218" lon="5.6636">
        <ele>701</ele>
        <time>2014-06-28T10:21:21.000Z</time>
      </trkpt>
      <trkpt lat="45.17215" lon="5.66361">
        <ele>701</ele>
        <time>2014-06-28T10:21:22.000Z</time>
      </trkpt>
      <trkpt lat="45.17211" lon="5.66362">
        <ele>701</ele>
        <time>2014-06-28T10:21:23.000Z</time>
      </trkpt>
      <trkpt lat="45.17208" lon="5.66363">
        <ele>701</ele>
        <time>2014-06-28T10:21:24.000Z</time>
      </trkpt>
      <trkpt lat="45.17204" lon="5.66364">
        <ele>701</ele>
        <time>2014-06-28T10:21:25.000Z</time>
      </trkpt>
      <trkpt lat="45.17201" lon="5.66365">
        <ele>700</ele>
        <time>2014-06-28T10:21:26.000Z</time>
      </trkpt>
      <trkpt lat="45.17198" lon="5.66367">
        <ele>700</ele>
        <time>2014-06-28T10:21:27.000Z</time>
      </trkpt>
      <trkpt lat="45.17195" lon="5.66368">
        <ele>700</ele>
        <time>2014-06-28T10:21:28.000Z</time>
      </trkpt>
      <trkpt lat="45.17191" lon="5.66368">
        <ele>700</ele>
        <time>2014-06-28T10:21:29.000Z</time>
      </trkpt>
      <trkpt lat="45.17188" lon="5.66369">
        <ele>700</ele>
        <time>2014-06-28T10:21:30.000Z</time>
      </trkpt>
      <trkpt lat="45.17185" lon="5.6637">
        <ele>700</ele>
        <time>2014-06-28T10:21:31.000Z</time>
      </trkpt>
      <trkpt lat="45.17182" lon="5.66372">
        <ele>700</ele>
        <time>2014-06-28T10:21:32.000Z</time>
      </trkpt>
      <trkpt lat="45.1718" lon="5.66373">
        <ele>700</ele>
        <time>2014-06-28T10:21:33.000Z</time>
      </trkpt>
      <trkpt lat="45.17177" lon="5.66375">
        <ele>699</ele>
        <time>2014-06-28T10:21:34.000Z</time>
      </trkpt>
      <trkpt lat="45.17175" lon="5.66377">
        <ele>699</ele>
        <time>2014-06-28T10:21:35.000Z</time>
      </trkpt>
      <trkpt lat="45.17174" lon="5.66381">
        <ele>699</ele>
        <time>2014-06-28T10:21:36.000Z</time>
      </trkpt>
      <trkpt lat="45.17172" lon="5.66384">
        <ele>699</ele>
        <time>2014-06-28T10:21:37.000Z</time>
      </trkpt>
      <trkpt lat="45.1717" lon="5.66388">
        <ele>699</ele>
        <time>2014-06-28T10:21:38.000Z</time>
      </trkpt>
      <trkpt lat="45.17169" lon="5.66392">
        <ele>699</ele>
        <time>2014-06-28T10:21:39.000Z</time>
      </trkpt>
      <trkpt lat="45.17167" lon="5.66396">
        <ele>699</ele>
        <time>2014-06-28T10:21:40.000Z</time>
      </trkpt>
      <trkpt lat="45.17165" lon="5.664">
        <ele>699</ele>
        <time>2014-06-28T10:21:41.000Z</time>
      </trkpt>
      <trkpt lat="45.17163" lon="5.66404">
        <ele>699</ele>
        <time>2014-06-28T10:21:42.000Z</time>
      </trkpt>
      <trkpt lat="45.17161" lon="5.66407">
        <ele>699</ele>
        <time>2014-06-28T10:21:43.000Z</time>
      </trkpt>
      <trkpt lat="45.1716" lon="5.66409">
        <ele>699</ele>
        <time>2014-06-28T10:21:44.000Z</time>
      </trkpt>
      <trkpt lat="45.17158" lon="5.66411">
        <ele>699</ele>
        <time>2014-06-28T10:21:45.000Z</time>
      </trkpt>
      <trkpt lat="45.17157" lon="5.66413">
        <ele>699</ele>
        <time>2014-06-28T10:21:46.000Z</time>
      </trkpt>
      <trkpt lat="45.17155" lon="5.66416">
        <ele>699</ele>
        <time>2014-06-28T10:21:47.000Z</time>
      </trkpt>
      <trkpt lat="45.17153" lon="5.66418">
        <ele>699</ele>
        <time>2014-06-28T10:21:48.000Z</time>
      </trkpt>
      <trkpt lat="45.1715" lon="5.66421">
        <ele>699</ele>
        <time>2014-06-28T10:21:49.000Z</time>
      </trkpt>
      <trkpt lat="45.17148" lon="5.66424">
        <ele>699</ele>
        <time>2014-06-28T10:21:50.000Z</time>
      </trkpt>
      <trkpt lat="45.17146" lon="5.66427">
        <ele>699</ele>
        <time>2014-06-28T10:21:51.000Z</time>
      </trkpt>
      <trkpt lat="45.17143" lon="5.6643">
        <ele>699</ele>
        <time>2014-06-28T10:21:52.000Z</time>
      </trkpt>
      <trkpt lat="45.17141" lon="5.66433">
        <ele>699</ele>
        <time>2014-06-28T10:21:53.000Z</time>
      </trkpt>
      <trkpt lat="45.17139" lon="5.66436">
        <ele>699</ele>
        <time>2014-06-28T10:21:54.000Z</time>
      </trkpt>
      <trkpt lat="45.17137" lon="5.66438">
        <ele>699</ele>
        <time>2014-06-28T10:21:55.000Z</time>
      </trkpt>
      <trkpt lat="45.17135" lon="5.66441">
        <ele>699</ele>
        <time>2014-06-28T10:21:56.000Z</time>
      </trkpt>
      <trkpt lat="45.17133" lon="5.66443">
        <ele>699</ele>
        <time>2014-06-28T10:21:57.000Z</time>
      </trkpt>
      <trkpt lat="45.17132" lon="5.66446">
        <ele>698</ele>
        <time>2014-06-28T10:21:58.000Z</time>
      </trkpt>
      <trkpt lat="45.1713" lon="5.66448">
        <ele>698</ele>
        <time>2014-06-28T10:21:59.000Z</time>
      </trkpt>
      <trkpt lat="45.17128" lon="5.6645">
        <ele>698</ele>
        <time>2014-06-28T10:22:00.000Z</time>
      </trkpt>
      <trkpt lat="45.17126" lon="5.66452">
        <ele>698</ele>
        <time>2014-06-28T10:22:01.000Z</time>
      </trkpt>
      <trkpt lat="45.17124" lon="5.66454">
        <ele>697</ele>
        <time>2014-06-28T10:22:02.000Z</time>
      </trkpt>
      <trkpt lat="45.17122" lon="5.66456">
        <ele>697</ele>
        <time>2014-06-28T10:22:03.000Z</time>
      </trkpt>
      <trkpt lat="45.1712" lon="5.66457">
        <ele>697</ele>
        <time>2014-06-28T10:22:04.000Z</time>
      </trkpt>
      <trkpt lat="45.17117" lon="5.66458">
        <ele>696</ele>
        <time>2014-06-28T10:22:05.000Z</time>
      </trkpt>
      <trkpt lat="45.17115" lon="5.66459">
        <ele>696</ele>
        <time>2014-06-28T10:22:06.000Z</time>
      </trkpt>
      <trkpt lat="45.17113" lon="5.6646">
        <ele>696</ele>
        <time>2014-06-28T10:22:07.000Z</time>
      </trkpt>
      <trkpt lat="45.1711" lon="5.66461">
        <ele>695</ele>
        <time>2014-06-28T10:22:08.000Z</time>
      </trkpt>
      <trkpt lat="45.17108" lon="5.66462">
        <ele>695</ele>
        <time>2014-06-28T10:22:09.000Z</time>
      </trkpt>
      <trkpt lat="45.17105" lon="5.66462">
        <ele>695</ele>
        <time>2014-06-28T10:22:10.000Z</time>
      </trkpt>
      <trkpt lat="45.17102" lon="5.66463">
        <ele>695</ele>
        <time>2014-06-28T10:22:11.000Z</time>
      </trkpt>
      <trkpt lat="45.171" lon="5.66463">
        <ele>694</ele>
        <time>2014-06-28T10:22:12.000Z</time>
      </trkpt>
      <trkpt lat="45.17097" lon="5.66464">
        <ele>694</ele>
        <time>2014-06-28T10:22:13.000Z</time>
      </trkpt>
      <trkpt lat="45.17095" lon="5.66464">
        <ele>694</ele>
        <time>2014-06-28T10:22:14.000Z</time>
      </trkpt>
      <trkpt lat="45.17093" lon="5.66465">
        <ele>694</ele>
        <time>2014-06-28T10:22:15.000Z</time>
      </trkpt>
      <trkpt lat="45.1709" lon="5.66465">
        <ele>694</ele>
        <time>2014-06-28T10:22:16.000Z</time>
      </trkpt>
      <trkpt lat="45.17089" lon="5.66466">
        <ele>693</ele>
        <time>2014-06-28T10:22:17.000Z</time>
      </trkpt>
      <trkpt lat="45.17087" lon="5.66467">
        <ele>693</ele>
        <time>2014-06-28T10:22:18.000Z</time>
      </trkpt>
      <trkpt lat="45.17085" lon="5.66467">
        <ele>693</ele>
        <time>2014-06-28T10:22:19.000Z</time>
      </trkpt>
      <trkpt lat="45.17084" lon="5.66468">
        <ele>693</ele>
        <time>2014-06-28T10:22:20.000Z</time>
      </trkpt>
      <trkpt lat="45.17082" lon="5.66469">
        <ele>693</ele>
        <time>2014-06-28T10:22:21.000Z</time>
      </trkpt>
      <trkpt lat="45.17081" lon="5.6647">
        <ele>693</ele>
        <time>2014-06-28T10:22:22.000Z</time>
      </trkpt>
      <trkpt lat="45.1708" lon="5.66472">
        <ele>693</ele>
        <time>2014-06-28T10:22:23.000Z</time>
      </trkpt>
      <trkpt lat="45.17078" lon="5.66473">
        <ele>693</ele>
        <time>2014-06-28T10:22:24.000Z</time>
      </trkpt>
      <trkpt lat="45.17077" lon="5.66474">
        <ele>693</ele>
        <time>2014-06-28T10:22:25.000Z</time>
      </trkpt>
      <trkpt lat="45.17076" lon="5.66475">
        <ele>693</ele>
        <time>2014-06-28T10:22:26.000Z</time>
      </trkpt>
      <trkpt lat="45.17074" lon="5.66477">
        <ele>693</ele>
        <time>2014-06-28T10:22:27.000Z</time>
      </trkpt>
      <trkpt lat="45.17073" lon="5.66479">
        <ele>693</ele>
        <time>2014-06-28T10:22:28.000Z</time>
      </trkpt>
      <trkpt lat="45.17071" lon="5.66481">
        <ele>693</ele>
        <time>2014-06-28T10:22:29.000Z</time>
      </trkpt>
      <trkpt lat="45.1707" lon="5.66483">
        <ele>693</ele>
        <time>2014-06-28T10:22:30.000Z</time>
      </trkpt>
      <trkpt lat="45.17068" lon="5.66485">
        <ele>693</ele>
        <time>2014-06-28T10:22:31.000Z</time>
      </trkpt>
      <trkpt lat="45.17068" lon="5.66488">
        <ele>693</ele>
        <time>2014-06-28T10:22:32.000Z</time>
      </trkpt>
      <trkpt lat="45.17067" lon="5.6649">
        <ele>693</ele>
        <time>2014-06-28T10:22:33.000Z</time>
      </trkpt>
      <trkpt lat="45.17066" lon="5.66493">
        <ele>693</ele>
        <time>2014-06-28T10:22:34.000Z</time>
      </trkpt>
      <trkpt lat="45.17067" lon="5.66494">
        <ele>693</ele>
        <time>2014-06-28T10:22:35.000Z</time>
      </trkpt>
      <trkpt lat="45.17068" lon="5.66494">
        <ele>693</ele>
        <time>2014-06-28T10:22:36.000Z</time>
      </trkpt>
      <trkpt lat="45.1707" lon="5.66494">
        <ele>693</ele>
        <time>2014-06-28T10:22:37.000Z</time>
      </trkpt>
      <trkpt lat="45.17072" lon="5.66494">
        <ele>693</ele>
        <time>2014-06-28T10:22:38.000Z</time>
      </trkpt>
      <trkpt lat="45.17075" lon="5.66494">
        <ele>693</ele>
        <time>2014-06-28T10:22:39.000Z</time>
      </trkpt>
      <trkpt lat="45.17077" lon="5.66494">
        <ele>693</ele>
        <time>2014-06-28T10:22:40.000Z</time>
      </trkpt>
      <trkpt lat="45.1708" lon="5.66494">
        <ele>693</ele>
        <time>2014-06-28T10:22:41.000Z</time>
      </trkpt>
      <trkpt lat="45.17082" lon="5.66494">
        <ele>693</ele>
        <time>2014-06-28T10:22:42.000Z</time>
      </trkpt>
      <trkpt lat="45.17085" lon="5.66494">
        <ele>692</ele>
        <time>2014-06-28T10:22:43.000Z</time>
      </trkpt>
      <trkpt lat="45.17088" lon="5.66495">
        <ele>692</ele>
        <time>2014-06-28T10:22:44.000Z</time>
      </trkpt>
      <trkpt lat="45.17091" lon="5.66496">
        <ele>692</ele>
        <time>2014-06-28T10:22:45.000Z</time>
      </trkpt>
      <trkpt lat="45.17093" lon="5.66497">
        <ele>692</ele>
        <time>2014-06-28T10:22:46.000Z</time>
      </trkpt>
      <trkpt lat="45.17095" lon="5.66498">
        <ele>691</ele>
        <time>2014-06-28T10:22:47.000Z</time>
      </trkpt>
      <trkpt lat="45.17098" lon="5.66498">
        <ele>691</ele>
        <time>2014-06-28T10:22:48.000Z</time>
      </trkpt>
      <trkpt lat="45.171" lon="5.66498">
        <ele>691</ele>
        <time>2014-06-28T10:22:49.000Z</time>
      </trkpt>
      <trkpt lat="45.17102" lon="5.66498">
        <ele>691</ele>
        <time>2014-06-28T10:22:50.000Z</time>
      </trkpt>
      <trkpt lat="45.17104" lon="5.66499">
        <ele>690</ele>
        <time>2014-06-28T10:22:51.000Z</time>
      </trkpt>
      <trkpt lat="45.17106" lon="5.665">
        <ele>690</ele>
        <time>2014-06-28T10:22:52.000Z</time>
      </trkpt>
      <trkpt lat="45.17109" lon="5.66501">
        <ele>690</ele>
        <time>2014-06-28T10:22:53.000Z</time>
      </trkpt>
      <trkpt lat="45.17111" lon="5.66502">
        <ele>689</ele>
        <time>2014-06-28T10:22:54.000Z</time>
      </trkpt>
      <trkpt lat="45.17113" lon="5.66503">
        <ele>689</ele>
        <time>2014-06-28T10:22:55.000Z</time>
      </trkpt>
      <trkpt lat="45.17115" lon="5.66504">
        <ele>688</ele>
        <time>2014-06-28T10:22:56.000Z</time>
      </trkpt>
      <trkpt lat="45.17117" lon="5.66505">
        <ele>688</ele>
        <time>2014-06-28T10:22:57.000Z</time>
      </trkpt>
      <trkpt lat="45.17119" lon="5.66506">
        <ele>688</ele>
        <time>2014-06-28T10:22:58.000Z</time>
      </trkpt>
      <trkpt lat="45.1712" lon="5.66508">
        <ele>687</ele>
        <time>2014-06-28T10:22:59.000Z</time>
      </trkpt>
      <trkpt lat="45.17121" lon="5.66511">
        <ele>687</ele>
        <time>2014-06-28T10:23:00.000Z</time>
      </trkpt>
      <trkpt lat="45.17122" lon="5.66514">
        <ele>686</ele>
        <time>2014-06-28T10:23:01.000Z</time>
      </trkpt>
      <trkpt lat="45.17122" lon="5.66517">
        <ele>686</ele>
        <time>2014-06-28T10:23:02.000Z</time>
      </trkpt>
      <trkpt lat="45.17122" lon="5.6652">
        <ele>685</ele>
        <time>2014-06-28T10:23:03.000Z</time>
      </trkpt>
      <trkpt lat="45.17122" lon="5.66523">
        <ele>685</ele>
        <time>2014-06-28T10:23:04.000Z</time>
      </trkpt>
      <trkpt lat="45.17121" lon="5.66527">
        <ele>684</ele>
        <time>2014-06-28T10:23:05.000Z</time>
      </trkpt>
      <trkpt lat="45.1712" lon="5.6653">
        <ele>684</ele>
        <time>2014-06-28T10:23:06.000Z</time>
      </trkpt>
      <trkpt lat="45.1712" lon="5.66534">
        <ele>684</ele>
        <time>2014-06-28T10:23:07.000Z</time>
      </trkpt>
      <trkpt lat="45.17119" lon="5.66538">
        <ele>683</ele>
        <time>2014-06-28T10:23:08.000Z</time>
      </trkpt>
      <trkpt lat="45.17119" lon="5.66542">
        <ele>683</ele>
        <time>2014-06-28T10:23:09.000Z</time>
      </trkpt>
      <trkpt lat="45.17119" lon="5.66546">
        <ele>683</ele>
        <time>2014-06-28T10:23:10.000Z</time>
      </trkpt>
      <trkpt lat="45.17118" lon="5.66551">
        <ele>682</ele>
        <time>2014-06-28T10:23:11.000Z</time>
      </trkpt>
      <trkpt lat="45.17118" lon="5.66555">
        <ele>682</ele>
        <time>2014-06-28T10:23:12.000Z</time>
      </trkpt>
      <trkpt lat="45.17117" lon="5.6656">
        <ele>682</ele>
        <time>2014-06-28T10:23:13.000Z</time>
      </trkpt>
      <trkpt lat="45.17117" lon="5.66564">
        <ele>681</ele>
        <time>2014-06-28T10:23:14.000Z</time>
      </trkpt>
      <trkpt lat="45.17116" lon="5.66568">
        <ele>681</ele>
        <time>2014-06-28T10:23:15.000Z</time>
      </trkpt>
      <trkpt lat="45.17114" lon="5.66573">
        <ele>680</ele>
        <time>2014-06-28T10:23:16.000Z</time>
      </trkpt>
      <trkpt lat="45.17113" lon="5.66576">
        <ele>680</ele>
        <time>2014-06-28T10:23:17.000Z</time>
      </trkpt>
      <trkpt lat="45.17112" lon="5.6658">
        <ele>679</ele>
        <time>2014-06-28T10:23:18.000Z</time>
      </trkpt>
      <trkpt lat="45.1711" lon="5.66583">
        <ele>678</ele>
        <time>2014-06-28T10:23:19.000Z</time>
      </trkpt>
      <trkpt lat="45.17109" lon="5.66587">
        <ele>678</ele>
        <time>2014-06-28T10:23:20.000Z</time>
      </trkpt>
      <trkpt lat="45.17107" lon="5.66591">
        <ele>677</ele>
        <time>2014-06-28T10:23:21.000Z</time>
      </trkpt>
      <trkpt lat="45.17106" lon="5.66595">
        <ele>676</ele>
        <time>2014-06-28T10:23:22.000Z</time>
      </trkpt>
      <trkpt lat="45.17105" lon="5.66598">
        <ele>676</ele>
        <time>2014-06-28T10:23:23.000Z</time>
      </trkpt>
      <trkpt lat="45.17103" lon="5.66602">
        <ele>675</ele>
        <time>2014-06-28T10:23:24.000Z</time>
      </trkpt>
      <trkpt lat="45.17103" lon="5.66606">
        <ele>675</ele>
        <time>2014-06-28T10:23:25.000Z</time>
      </trkpt>
      <trkpt lat="45.17102" lon="5.66611">
        <ele>674</ele>
        <time>2014-06-28T10:23:26.000Z</time>
      </trkpt>
      <trkpt lat="45.17102" lon="5.66615">
        <ele>674</ele>
        <time>2014-06-28T10:23:27.000Z</time>
      </trkpt>
      <trkpt lat="45.17102" lon="5.66619">
        <ele>673</ele>
        <time>2014-06-28T10:23:28.000Z</time>
      </trkpt>
      <trkpt lat="45.17103" lon="5.66624">
        <ele>673</ele>
        <time>2014-06-28T10:23:29.000Z</time>
      </trkpt>
      <trkpt lat="45.17104" lon="5.66628">
        <ele>672</ele>
        <time>2014-06-28T10:23:30.000Z</time>
      </trkpt>
      <trkpt lat="45.17104" lon="5.66633">
        <ele>672</ele>
        <time>2014-06-28T10:23:31.000Z</time>
      </trkpt>
      <trkpt lat="45.17105" lon="5.66637">
        <ele>671</ele>
        <time>2014-06-28T10:23:32.000Z</time>
      </trkpt>
      <trkpt lat="45.17107" lon="5.66641">
        <ele>670</ele>
        <time>2014-06-28T10:23:33.000Z</time>
      </trkpt>
      <trkpt lat="45.17108" lon="5.66645">
        <ele>669</ele>
        <time>2014-06-28T10:23:34.000Z</time>
      </trkpt>
      <trkpt lat="45.1711" lon="5.66648">
        <ele>669</ele>
        <time>2014-06-28T10:23:35.000Z</time>
      </trkpt>
      <trkpt lat="45.17112" lon="5.66652">
        <ele>668</ele>
        <time>2014-06-28T10:23:36.000Z</time>
      </trkpt>
      <trkpt lat="45.17114" lon="5.66655">
        <ele>667</ele>
        <time>2014-06-28T10:23:37.000Z</time>
      </trkpt>
      <trkpt lat="45.17117" lon="5.66657">
        <ele>666</ele>
        <time>2014-06-28T10:23:38.000Z</time>
      </trkpt>
      <trkpt lat="45.17119" lon="5.6666">
        <ele>666</ele>
        <time>2014-06-28T10:23:39.000Z</time>
      </trkpt>
      <trkpt lat="45.17121" lon="5.66663">
        <ele>665</ele>
        <time>2014-06-28T10:23:40.000Z</time>
      </trkpt>
      <trkpt lat="45.17123" lon="5.66665">
        <ele>664</ele>
        <time>2014-06-28T10:23:41.000Z</time>
      </trkpt>
      <trkpt lat="45.17125" lon="5.66668">
        <ele>664</ele>
        <time>2014-06-28T10:23:42.000Z</time>
      </trkpt>
      <trkpt lat="45.17127" lon="5.66671">
        <ele>663</ele>
        <time>2014-06-28T10:23:43.000Z</time>
      </trkpt>
      <trkpt lat="45.17129" lon="5.66675">
        <ele>663</ele>
        <time>2014-06-28T10:23:44.000Z</time>
      </trkpt>
      <trkpt lat="45.17131" lon="5.66678">
        <ele>662</ele>
        <time>2014-06-28T10:23:45.000Z</time>
      </trkpt>
      <trkpt lat="45.17132" lon="5.66682">
        <ele>662</ele>
        <time>2014-06-28T10:23:46.000Z</time>
      </trkpt>
      <trkpt lat="45.17134" lon="5.66685">
        <ele>661</ele>
        <time>2014-06-28T10:23:47.000Z</time>
      </trkpt>
      <trkpt lat="45.17135" lon="5.66688">
        <ele>661</ele>
        <time>2014-06-28T10:23:48.000Z</time>
      </trkpt>
      <trkpt lat="45.17137" lon="5.66691">
        <ele>660</ele>
        <time>2014-06-28T10:23:49.000Z</time>
      </trkpt>
      <trkpt lat="45.17139" lon="5.66694">
        <ele>659</ele>
        <time>2014-06-28T10:23:50.000Z</time>
      </trkpt>
      <trkpt lat="45.17141" lon="5.66697">
        <ele>658</ele>
        <time>2014-06-28T10:23:51.000Z</time>
      </trkpt>
      <trkpt lat="45.17143" lon="5.66699">
        <ele>658</ele>
        <time>2014-06-28T10:23:52.000Z</time>
      </trkpt>
      <trkpt lat="45.17144" lon="5.66701">
        <ele>657</ele>
        <time>2014-06-28T10:23:53.000Z</time>
      </trkpt>
      <trkpt lat="45.17146" lon="5.66701">
        <ele>656</ele>
        <time>2014-06-28T10:23:54.000Z</time>
      </trkpt>
      <trkpt lat="45.17149" lon="5.667">
        <ele>655</ele>
        <time>2014-06-28T10:23:55.000Z</time>
      </trkpt>
      <trkpt lat="45.1715" lon="5.66698">
        <ele>654</ele>
        <time>2014-06-28T10:23:56.000Z</time>
      </trkpt>
      <trkpt lat="45.17152" lon="5.66696">
        <ele>654</ele>
        <time>2014-06-28T10:23:57.000Z</time>
      </trkpt>
      <trkpt lat="45.17153" lon="5.66693">
        <ele>653</ele>
        <time>2014-06-28T10:23:58.000Z</time>
      </trkpt>
      <trkpt lat="45.17155" lon="5.66689">
        <ele>652</ele>
        <time>2014-06-28T10:23:59.000Z</time>
      </trkpt>
      <trkpt lat="45.17157" lon="5.66686">
        <ele>652</ele>
        <time>2014-06-28T10:24:00.000Z</time>
      </trkpt>
      <trkpt lat="45.17158" lon="5.66683">
        <ele>651</ele>
        <time>2014-06-28T10:24:01.000Z</time>
      </trkpt>
      <trkpt lat="45.1716" lon="5.6668">
        <ele>651</ele>
        <time>2014-06-28T10:24:02.000Z</time>
      </trkpt>
      <trkpt lat="45.17162" lon="5.66678">
        <ele>651</ele>
        <time>2014-06-28T10:24:03.000Z</time>
      </trkpt>
      <trkpt lat="45.17165" lon="5.66677">
        <ele>650</ele>
        <time>2014-06-28T10:24:04.000Z</time>
      </trkpt>
      <trkpt lat="45.17167" lon="5.66677">
        <ele>650</ele>
        <time>2014-06-28T10:24:05.000Z</time>
      </trkpt>
      <trkpt lat="45.17168" lon="5.66678">
        <ele>650</ele>
        <time>2014-06-28T10:24:06.000Z</time>
      </trkpt>
      <trkpt lat="45.1717" lon="5.6668">
        <ele>649</ele>
        <time>2014-06-28T10:24:07.000Z</time>
      </trkpt>
      <trkpt lat="45.17171" lon="5.66683">
        <ele>649</ele>
        <time>2014-06-28T10:24:08.000Z</time>
      </trkpt>
      <trkpt lat="45.17171" lon="5.66686">
        <ele>649</ele>
        <time>2014-06-28T10:24:09.000Z</time>
      </trkpt>
      <trkpt lat="45.17171" lon="5.6669">
        <ele>648</ele>
        <time>2014-06-28T10:24:10.000Z</time>
      </trkpt>
      <trkpt lat="45.1717" lon="5.66694">
        <ele>648</ele>
        <time>2014-06-28T10:24:11.000Z</time>
      </trkpt>
      <trkpt lat="45.17169" lon="5.66697">
        <ele>648</ele>
        <time>2014-06-28T10:24:12.000Z</time>
      </trkpt>
      <trkpt lat="45.17168" lon="5.667">
        <ele>648</ele>
        <time>2014-06-28T10:24:13.000Z</time>
      </trkpt>
      <trkpt lat="45.17166" lon="5.66704">
        <ele>647</ele>
        <time>2014-06-28T10:24:14.000Z</time>
      </trkpt>
      <trkpt lat="45.17164" lon="5.66707">
        <ele>647</ele>
        <time>2014-06-28T10:24:15.000Z</time>
      </trkpt>
      <trkpt lat="45.17162" lon="5.6671">
        <ele>647</ele>
        <time>2014-06-28T10:24:16.000Z</time>
      </trkpt>
      <trkpt lat="45.1716" lon="5.66713">
        <ele>646</ele>
        <time>2014-06-28T10:24:17.000Z</time>
      </trkpt>
      <trkpt lat="45.17157" lon="5.66715">
        <ele>646</ele>
        <time>2014-06-28T10:24:18.000Z</time>
      </trkpt>
      <trkpt lat="45.17154" lon="5.66717">
        <ele>646</ele>
        <time>2014-06-28T10:24:19.000Z</time>
      </trkpt>
      <trkpt lat="45.17151" lon="5.66719">
        <ele>646</ele>
        <time>2014-06-28T10:24:20.000Z</time>
      </trkpt>
      <trkpt lat="45.17148" lon="5.6672">
        <ele>645</ele>
        <time>2014-06-28T10:24:21.000Z</time>
      </trkpt>
      <trkpt lat="45.17145" lon="5.6672">
        <ele>645</ele>
        <time>2014-06-28T10:24:22.000Z</time>
      </trkpt>
      <trkpt lat="45.17142" lon="5.6672">
        <ele>645</ele>
        <time>2014-06-28T10:24:23.000Z</time>
      </trkpt>
      <trkpt lat="45.17138" lon="5.6672">
        <ele>645</ele>
        <time>2014-06-28T10:24:24.000Z</time>
      </trkpt>
      <trkpt lat="45.17135" lon="5.66719">
        <ele>644</ele>
        <time>2014-06-28T10:24:25.000Z</time>
      </trkpt>
      <trkpt lat="45.17132" lon="5.66719">
        <ele>644</ele>
        <time>2014-06-28T10:24:26.000Z</time>
      </trkpt>
      <trkpt lat="45.17129" lon="5.66718">
        <ele>644</ele>
        <time>2014-06-28T10:24:27.000Z</time>
      </trkpt>
      <trkpt lat="45.17126" lon="5.66717">
        <ele>643</ele>
        <time>2014-06-28T10:24:28.000Z</time>
      </trkpt>
      <trkpt lat="45.17122" lon="5.66716">
        <ele>643</ele>
        <time>2014-06-28T10:24:29.000Z</time>
      </trkpt>
      <trkpt lat="45.17119" lon="5.66715">
        <ele>643</ele>
        <time>2014-06-28T10:24:30.000Z</time>
      </trkpt>
      <trkpt lat="45.17116" lon="5.66713">
        <ele>643</ele>
        <time>2014-06-28T10:24:31.000Z</time>
      </trkpt>
      <trkpt lat="45.17113" lon="5.66711">
        <ele>642</ele>
        <time>2014-06-28T10:24:32.000Z</time>
      </trkpt>
      <trkpt lat="45.1711" lon="5.66708">
        <ele>642</ele>
        <time>2014-06-28T10:24:33.000Z</time>
      </trkpt>
      <trkpt lat="45.17107" lon="5.66706">
        <ele>642</ele>
        <time>2014-06-28T10:24:34.000Z</time>
      </trkpt>
      <trkpt lat="45.17104" lon="5.66704">
        <ele>641</ele>
        <time>2014-06-28T10:24:35.000Z</time>
      </trkpt>
      <trkpt lat="45.17101" lon="5.66703">
        <ele>641</ele>
        <time>2014-06-28T10:24:36.000Z</time>
      </trkpt>
      <trkpt lat="45.17098" lon="5.66702">
        <ele>641</ele>
        <time>2014-06-28T10:24:37.000Z</time>
      </trkpt>
      <trkpt lat="45.17095" lon="5.66701">
        <ele>641</ele>
        <time>2014-06-28T10:24:38.000Z</time>
      </trkpt>
      <trkpt lat="45.17093" lon="5.66701">
        <ele>641</ele>
        <time>2014-06-28T10:24:39.000Z</time>
      </trkpt>
      <trkpt lat="45.17091" lon="5.66701">
        <ele>641</ele>
        <time>2014-06-28T10:24:40.000Z</time>
      </trkpt>
      <trkpt lat="45.17089" lon="5.66701">
        <ele>640</ele>
        <time>2014-06-28T10:24:41.000Z</time>
      </trkpt>
      <trkpt lat="45.17089" lon="5.66701">
        <ele>640</ele>
        <time>2014-06-28T10:24:42.000Z</time>
      </trkpt>
      <trkpt lat="45.17089" lon="5.66702">
        <ele>640</ele>
        <time>2014-06-28T10:24:43.000Z</time>
      </trkpt>
      <trkpt lat="45.17089" lon="5.66702">
        <ele>640</ele>
        <time>2014-06-28T10:24:44.000Z</time>
      </trkpt>
      <trkpt lat="45.17089" lon="5.66702">
        <ele>640</ele>
        <time>2014-06-28T10:24:45.000Z</time>
      </trkpt>
      <trkpt lat="45.17089" lon="5.66702">
        <ele>640</ele>
        <time>2014-06-28T10:24:46.000Z</time>
      </trkpt>
      <trkpt lat="45.17089" lon="5.66702">
        <ele>640</ele>
        <time>2014-06-28T10:24:47.000Z</time>
      </trkpt>
      <trkpt lat="45.17089" lon="5.66702">
        <ele>640</ele>
        <time>2014-06-28T10:24:48.000Z</time>
      </trkpt>
      <trkpt lat="45.17089" lon="5.66702">
        <ele>640</ele>
        <time>2014-06-28T10:24:49.000Z</time>
      </trkpt>
      <trkpt lat="45.17089" lon="5.66702">
        <ele>640</ele>
        <time>2014-06-28T10:24:50.000Z</time>
      </trkpt>
      <trkpt lat="45.17089" lon="5.66702">
        <ele>640</ele>
        <time>2014-06-28T10:24:51.000Z</time>
      </trkpt>
      <trkpt lat="45.17089" lon="5.66702">
        <ele>639</ele>
        <time>2014-06-28T10:24:52.000Z</time>
      </trkpt>
      <trkpt lat="45.17089" lon="5.66702">
        <ele>639</ele>
        <time>2014-06-28T10:24:53.000Z</time>
      </trkpt>
      <trkpt lat="45.1709" lon="5.66702">
        <ele>639</ele>
        <time>2014-06-28T10:24:54.000Z</time>
      </trkpt>
      <trkpt lat="45.1709" lon="5.66702">
        <ele>639</ele>
        <time>2014-06-28T10:24:55.000Z</time>
      </trkpt>
      <trkpt lat="45.1709" lon="5.66701">
        <ele>639</ele>
        <time>2014-06-28T10:24:56.000Z</time>
      </trkpt>
      <trkpt lat="45.1709" lon="5.66701">
        <ele>639</ele>
        <time>2014-06-28T10:24:57.000Z</time>
      </trkpt>
      <trkpt lat="45.1709" lon="5.66701">
        <ele>639</ele>
        <time>2014-06-28T10:24:58.000Z</time>
      </trkpt>
      <trkpt lat="45.1709" lon="5.66701">
        <ele>639</ele>
        <time>2014-06-28T10:24:59.000Z</time>
      </trkpt>
      <trkpt lat="45.1709" lon="5.66701">
        <ele>639</ele>
        <time>2014-06-28T10:25:00.000Z</time>
      </trkpt>
      <trkpt lat="45.1709" lon="5.66701">
        <ele>639</ele>
        <time>2014-06-28T10:25:01.000Z</time>
      </trkpt>
      <trkpt lat="45.1709" lon="5.66701">
        <ele>639</ele>
        <time>2014-06-28T10:25:02.000Z</time>
      </trkpt>
      <trkpt lat="45.1709" lon="5.66701">
        <ele>639</ele>
        <time>2014-06-28T10:25:03.000Z</time>
      </trkpt>
      <trkpt lat="45.17091" lon="5.66701">
        <ele>639</ele>
        <time>2014-06-28T10:25:04.000Z</time>
      </trkpt>
      <trkpt lat="45.17091" lon="5.66701">
        <ele>639</ele>
        <time>2014-06-28T10:25:05.000Z</time>
      </trkpt>
      <trkpt lat="45.17091" lon="5.66701">
        <ele>639</ele>
        <time>2014-06-28T10:25:06.000Z</time>
      </trkpt>
      <trkpt lat="45.17091" lon="5.66701">
        <ele>639</ele>
        <time>2014-06-28T10:25:07.000Z</time>
      </trkpt>
      <trkpt lat="45.17091" lon="5.667">
        <ele>638</ele>
        <time>2014-06-28T10:25:08.000Z</time>
      </trkpt>
      <trkpt lat="45.17091" lon="5.667">
        <ele>638</ele>
        <time>2014-06-28T10:25:09.000Z</time>
      </trkpt>
      <trkpt lat="45.17091" lon="5.667">
        <ele>638</ele>
        <time>2014-06-28T10:25:10.000Z</time>
      </trkpt>
      <trkpt lat="45.17092" lon="5.667">
        <ele>638</ele>
        <time>2014-06-28T10:25:11.000Z</time>
      </trkpt>
      <trkpt lat="45.17092" lon="5.667">
        <ele>638</ele>
        <time>2014-06-28T10:25:12.000Z</time>
      </trkpt>
      <trkpt lat="45.17092" lon="5.66699">
        <ele>638</ele>
        <time>2014-06-28T10:25:13.000Z</time>
      </trkpt>
      <trkpt lat="45.17092" lon="5.66699">
        <ele>638</ele>
        <time>2014-06-28T10:25:14.000Z</time>
      </trkpt>
      <trkpt lat="45.17092" lon="5.66699">
        <ele>638</ele>
        <time>2014-06-28T10:25:15.000Z</time>
      </trkpt>
      <trkpt lat="45.17092" lon="5.66699">
        <ele>638</ele>
        <time>2014-06-28T10:25:16.000Z</time>
      </trkpt>
      <trkpt lat="45.17092" lon="5.667">
        <ele>638</ele>
        <time>2014-06-28T10:25:17.000Z</time>
      </trkpt>
      <trkpt lat="45.17092" lon="5.667">
        <ele>638</ele>
        <time>2014-06-28T10:25:18.000Z</time>
      </trkpt>
      <trkpt lat="45.17092" lon="5.667">
        <ele>638</ele>
        <time>2014-06-28T10:25:19.000Z</time>
      </trkpt>
      <trkpt lat="45.17092" lon="5.667">
        <ele>638</ele>
        <time>2014-06-28T10:25:20.000Z</time>
      </trkpt>
      <trkpt lat="45.17093" lon="5.667">
        <ele>638</ele>
        <time>2014-06-28T10:25:21.000Z</time>
      </trkpt>
      <trkpt lat="45.17093" lon="5.667">
        <ele>638</ele>
        <time>2014-06-28T10:25:22.000Z</time>
      </trkpt>
      <trkpt lat="45.17093" lon="5.667">
        <ele>638</ele>
        <time>2014-06-28T10:25:23.000Z</time>
      </trkpt>
      <trkpt lat="45.17093" lon="5.667">
        <ele>638</ele>
        <time>2014-06-28T10:25:24.000Z</time>
      </trkpt>
      <trkpt lat="45.17093" lon="5.66699">
        <ele>638</ele>
        <time>2014-06-28T10:25:25.000Z</time>
      </trkpt>
      <trkpt lat="45.17093" lon="5.66699">
        <ele>637</ele>
        <time>2014-06-28T10:25:26.000Z</time>
      </trkpt>
      <trkpt lat="45.17093" lon="5.667">
        <ele>637</ele>
        <time>2014-06-28T10:25:27.000Z</time>
      </trkpt>
      <trkpt lat="45.17093" lon="5.667">
        <ele>637</ele>
        <time>2014-06-28T10:25:28.000Z</time>
      </trkpt>
      <trkpt lat="45.17093" lon="5.66699">
        <ele>637</ele>
        <time>2014-06-28T10:25:29.000Z</time>
      </trkpt>
      <trkpt lat="45.17093" lon="5.66699">
        <ele>637</ele>
        <time>2014-06-28T10:25:30.000Z</time>
      </trkpt>
      <trkpt lat="45.17093" lon="5.667">
        <ele>637</ele>
        <time>2014-06-28T10:25:31.000Z</time>
      </trkpt>
      <trkpt lat="45.17094" lon="5.667">
        <ele>637</ele>
        <time>2014-06-28T10:25:32.000Z</time>
      </trkpt>
      <trkpt lat="45.17094" lon="5.667">
        <ele>637</ele>
        <time>2014-06-28T10:25:33.000Z</time>
      </trkpt>
      <trkpt lat="45.17094" lon="5.66699">
        <ele>637</ele>
        <time>2014-06-28T10:25:34.000Z</time>
      </trkpt>
      <trkpt lat="45.17094" lon="5.66699">
        <ele>637</ele>
        <time>2014-06-28T10:25:35.000Z</time>
      </trkpt>
      <trkpt lat="45.17094" lon="5.66699">
        <ele>637</ele>
        <time>2014-06-28T10:25:36.000Z</time>
      </trkpt>
      <trkpt lat="45.17094" lon="5.66699">
        <ele>637</ele>
        <time>2014-06-28T10:25:37.000Z</time>
      </trkpt>
      <trkpt lat="45.17094" lon="5.66699">
        <ele>637</ele>
        <time>2014-06-28T10:25:38.000Z</time>
      </trkpt>
      <trkpt lat="45.17094" lon="5.667">
        <ele>637</ele>
        <time>2014-06-28T10:25:39.000Z</time>
      </trkpt>
      <trkpt lat="45.17094" lon="5.667">
        <ele>637</ele>
        <time>2014-06-28T10:25:40.000Z</time>
      </trkpt>
      <trkpt lat="45.17094" lon="5.667">
        <ele>637</ele>
        <time>2014-06-28T10:25:41.000Z</time>
      </trkpt>
      <trkpt lat="45.17094" lon="5.667">
        <ele>637</ele>
        <time>2014-06-28T10:25:42.000Z</time>
      </trkpt>
      <trkpt lat="45.17094" lon="5.66701">
        <ele>637</ele>
        <time>2014-06-28T10:25:43.000Z</time>
      </trkpt>
      <trkpt lat="45.17095" lon="5.667">
        <ele>637</ele>
        <time>2014-06-28T10:25:44.000Z</time>
      </trkpt>
      <trkpt lat="45.17095" lon="5.667">
        <ele>637</ele>
        <time>2014-06-28T10:25:45.000Z</time>
      </trkpt>
      <trkpt lat="45.17095" lon="5.667">
        <ele>637</ele>
        <time>2014-06-28T10:25:46.000Z</time>
      </trkpt>
      <trkpt lat="45.17095" lon="5.667">
        <ele>637</ele>
        <time>2014-06-28T10:25:47.000Z</time>
      </trkpt>
      <trkpt lat="45.17095" lon="5.66701">
        <ele>637</ele>
        <time>2014-06-28T10:25:48.000Z</time>
      </trkpt>
      <trkpt lat="45.17095" lon="5.66701">
        <ele>637</ele>
        <time>2014-06-28T10:25:49.000Z</time>
      </trkpt>
      <trkpt lat="45.17095" lon="5.667">
        <ele>637</ele>
        <time>2014-06-28T10:25:50.000Z</time>
      </trkpt>
      <trkpt lat="45.17096" lon="5.667">
        <ele>637</ele>
        <time>2014-06-28T10:25:51.000Z</time>
      </trkpt>
      <trkpt lat="45.17096" lon="5.66701">
        <ele>637</ele>
        <time>2014-06-28T10:25:52.000Z</time>
      </trkpt>
      <trkpt lat="45.17095" lon="5.66701">
        <ele>638</ele>
        <time>2014-06-28T10:25:53.000Z</time>
      </trkpt>
      <trkpt lat="45.17095" lon="5.66701">
        <ele>638</ele>
        <time>2014-06-28T10:25:54.000Z</time>
      </trkpt>
      <trkpt lat="45.17095" lon="5.66701">
        <ele>638</ele>
        <time>2014-06-28T10:25:55.000Z</time>
      </trkpt>
      <trkpt lat="45.17096" lon="5.667">
        <ele>638</ele>
        <time>2014-06-28T10:25:56.000Z</time>
      </trkpt>
      <trkpt lat="45.17095" lon="5.667">
        <ele>638</ele>
        <time>2014-06-28T10:25:57.000Z</time>
      </trkpt>
      <trkpt lat="45.17095" lon="5.667">
        <ele>638</ele>
        <time>2014-06-28T10:25:58.000Z</time>
      </trkpt>
      <trkpt lat="45.17095" lon="5.667">
        <ele>638</ele>
        <time>2014-06-28T10:25:59.000Z</time>
      </trkpt>
      <trkpt lat="45.17095" lon="5.667">
        <ele>638</ele>
        <time>2014-06-28T10:26:00.000Z</time>
      </trkpt>
      <trkpt lat="45.17095" lon="5.667">
        <ele>638</ele>
        <time>2014-06-28T10:26:01.000Z</time>
      </trkpt>
      <trkpt lat="45.17095" lon="5.667">
        <ele>638</ele>
        <time>2014-06-28T10:26:02.000Z</time>
      </trkpt>
      <trkpt lat="45.17095" lon="5.667">
        <ele>638</ele>
        <time>2014-06-28T10:26:03.000Z</time>
      </trkpt>
      <trkpt lat="45.17095" lon="5.667">
        <ele>638</ele>
        <time>2014-06-28T10:26:04.000Z</time>
      </trkpt>
      <trkpt lat="45.17095" lon="5.667">
        <ele>638</ele>
        <time>2014-06-28T10:26:05.000Z</time>
      </trkpt>
      <trkpt lat="45.17095" lon="5.667">
        <ele>638</ele>
        <time>2014-06-28T10:26:06.000Z</time>
      </trkpt>
      <trkpt lat="45.17095" lon="5.667">
        <ele>638</ele>
        <time>2014-06-28T10:26:07.000Z</time>
      </trkpt>
      <trkpt lat="45.17095" lon="5.667">
        <ele>639</ele>
        <time>2014-06-28T10:26:08.000Z</time>
      </trkpt>
      <trkpt lat="45.17096" lon="5.667">
        <ele>639</ele>
        <time>2014-06-28T10:26:09.000Z</time>
      </trkpt>
      <trkpt lat="45.17096" lon="5.667">
        <ele>639</ele>
        <time>2014-06-28T10:26:10.000Z</time>
      </trkpt>
      <trkpt lat="45.17096" lon="5.667">
        <ele>639</ele>
        <time>2014-06-28T10:26:11.000Z</time>
      </trkpt>
      <trkpt lat="45.17096" lon="5.667">
        <ele>639</ele>
        <time>2014-06-28T10:26:12.000Z</time>
      </trkpt>
      <trkpt lat="45.17096" lon="5.66699">
        <ele>639</ele>
        <time>2014-06-28T10:26:13.000Z</time>
      </trkpt>
      <trkpt lat="45.17096" lon="5.667">
        <ele>639</ele>
        <time>2014-06-28T10:26:14.000Z</time>
      </trkpt>
      <trkpt lat="45.17096" lon="5.667">
        <ele>639</ele>
        <time>2014-06-28T10:26:15.000Z</time>
      </trkpt>
      <trkpt lat="45.17096" lon="5.66699">
        <ele>639</ele>
        <time>2014-06-28T10:26:16.000Z</time>
      </trkpt>
      <trkpt lat="45.17096" lon="5.66699">
        <ele>639</ele>
        <time>2014-06-28T10:26:17.000Z</time>
      </trkpt>
      <trkpt lat="45.17096" lon="5.66699">
        <ele>639</ele>
        <time>2014-06-28T10:26:18.000Z</time>
      </trkpt>
      <trkpt lat="45.17096" lon="5.66699">
        <ele>639</ele>
        <time>2014-06-28T10:26:19.000Z</time>
      </trkpt>
      <trkpt lat="45.17096" lon="5.66699">
        <ele>639</ele>
        <time>2014-06-28T10:26:20.000Z</time>
      </trkpt>
      <trkpt lat="45.17096" lon="5.66699">
        <ele>639</ele>
        <time>2014-06-28T10:26:21.000Z</time>
      </trkpt>
      <trkpt lat="45.17096" lon="5.66699">
        <ele>640</ele>
        <time>2014-06-28T10:26:22.000Z</time>
      </trkpt>
      <trkpt lat="45.17097" lon="5.66699">
        <ele>640</ele>
        <time>2014-06-28T10:26:23.000Z</time>
      </trkpt>
      <trkpt lat="45.17097" lon="5.66699">
        <ele>640</ele>
        <time>2014-06-28T10:26:24.000Z</time>
      </trkpt>
      <trkpt lat="45.17097" lon="5.66699">
        <ele>640</ele>
        <time>2014-06-28T10:26:25.000Z</time>
      </trkpt>
      <trkpt lat="45.17097" lon="5.66699">
        <ele>640</ele>
        <time>2014-06-28T10:26:26.000Z</time>
      </trkpt>
      <trkpt lat="45.17097" lon="5.66699">
        <ele>640</ele>
        <time>2014-06-28T10:26:27.000Z</time>
      </trkpt>
      <trkpt lat="45.17097" lon="5.667">
        <ele>640</ele>
        <time>2014-06-28T10:26:28.000Z</time>
      </trkpt>
      <trkpt lat="45.17097" lon="5.667">
        <ele>640</ele>
        <time>2014-06-28T10:26:29.000Z</time>
      </trkpt>
      <trkpt lat="45.17097" lon="5.667">
        <ele>640</ele>
        <time>2014-06-28T10:26:30.000Z</time>
      </trkpt>
      <trkpt lat="45.17097" lon="5.667">
        <ele>640</ele>
        <time>2014-06-28T10:26:31.000Z</time>
      </trkpt>
      <trkpt lat="45.17097" lon="5.667">
        <ele>640</ele>
        <time>2014-06-28T10:26:32.000Z</time>
      </trkpt>
      <trkpt lat="45.17097" lon="5.667">
        <ele>640</ele>
        <time>2014-06-28T10:26:33.000Z</time>
      </trkpt>
      <trkpt lat="45.17097" lon="5.667">
        <ele>640</ele>
        <time>2014-06-28T10:26:34.000Z</time>
      </trkpt>
      <trkpt lat="45.17097" lon="5.667">
        <ele>640</ele>
        <time>2014-06-28T10:26:35.000Z</time>
      </trkpt>
      <trkpt lat="45.17097" lon="5.667">
        <ele>640</ele>
        <time>2014-06-28T10:26:36.000Z</time>
      </trkpt>
      <trkpt lat="45.17097" lon="5.667">
        <ele>640</ele>
        <time>2014-06-28T10:26:37.000Z</time>
      </trkpt>
      <trkpt lat="45.17097" lon="5.667">
        <ele>640</ele>
        <time>2014-06-28T10:26:38.000Z</time>
      </trkpt>
      <trkpt lat="45.17097" lon="5.667">
        <ele>640</ele>
        <time>2014-06-28T10:26:39.000Z</time>
      </trkpt>
      <trkpt lat="45.17096" lon="5.667">
        <ele>640</ele>
        <time>2014-06-28T10:26:40.000Z</time>
      </trkpt>
      <trkpt lat="45.17096" lon="5.66699">
        <ele>640</ele>
        <time>2014-06-28T10:26:41.000Z</time>
      </trkpt>
      <trkpt lat="45.17096" lon="5.66699">
        <ele>640</ele>
        <time>2014-06-28T10:26:42.000Z</time>
      </trkpt>
      <trkpt lat="45.17096" lon="5.66699">
        <ele>640</ele>
        <time>2014-06-28T10:26:43.000Z</time>
      </trkpt>
      <trkpt lat="45.17096" lon="5.66699">
        <ele>639</ele>
        <time>2014-06-28T10:26:44.000Z</time>
      </trkpt>
      <trkpt lat="45.17096" lon="5.66699">
        <ele>639</ele>
        <time>2014-06-28T10:26:45.000Z</time>
      </trkpt>
      <trkpt lat="45.17096" lon="5.66699">
        <ele>639</ele>
        <time>2014-06-28T10:26:46.000Z</time>
      </trkpt>
      <trkpt lat="45.17096" lon="5.66699">
        <ele>639</ele>
        <time>2014-06-28T10:26:47.000Z</time>
      </trkpt>
      <trkpt lat="45.17096" lon="5.66699">
        <ele>639</ele>
        <time>2014-06-28T10:26:48.000Z</time>
      </trkpt>
      <trkpt lat="45.17096" lon="5.66699">
        <ele>639</ele>
        <time>2014-06-28T10:26:49.000Z</time>
      </trkpt>
      <trkpt lat="45.17096" lon="5.66699">
        <ele>639</ele>
        <time>2014-06-28T10:26:50.000Z</time>
      </trkpt>
      <trkpt lat="45.17096" lon="5.66699">
        <ele>639</ele>
        <time>2014-06-28T10:26:51.000Z</time>
      </trkpt>
      <trkpt lat="45.17096" lon="5.66699">
        <ele>639</ele>
        <time>2014-06-28T10:26:52.000Z</time>
      </trkpt>
      <trkpt lat="45.17096" lon="5.66699">
        <ele>639</ele>
        <time>2014-06-28T10:26:53.000Z</time>
      </trkpt>
      <trkpt lat="45.17096" lon="5.66699">
        <ele>639</ele>
        <time>2014-06-28T10:26:54.000Z</time>
      </trkpt>
      <trkpt lat="45.17096" lon="5.66699">
        <ele>639</ele>
        <time>2014-06-28T10:26:55.000Z</time>
      </trkpt>
      <trkpt lat="45.17096" lon="5.66699">
        <ele>639</ele>
        <time>2014-06-28T10:26:56.000Z</time>
      </trkpt>
      <trkpt lat="45.17096" lon="5.66699">
        <ele>639</ele>
        <time>2014-06-28T10:26:57.000Z</time>
      </trkpt>
      <trkpt lat="45.17096" lon="5.66699">
        <ele>639</ele>
        <time>2014-06-28T10:26:58.000Z</time>
      </trkpt>
      <trkpt lat="45.17096" lon="5.66699">
        <ele>639</ele>
        <time>2014-06-28T10:26:59.000Z</time>
      </trkpt>
      <trkpt lat="45.17096" lon="5.66699">
        <ele>639</ele>
        <time>2014-06-28T10:27:00.000Z</time>
      </trkpt>
      <trkpt lat="45.17096" lon="5.66699">
        <ele>639</ele>
        <time>2014-06-28T10:27:01.000Z</time>
      </trkpt>
      <trkpt lat="45.17096" lon="5.66699">
        <ele>639</ele>
        <time>2014-06-28T10:27:02.000Z</time>
      </trkpt>
      <trkpt lat="45.17096" lon="5.66699">
        <ele>639</ele>
        <time>2014-06-28T10:27:03.000Z</time>
      </trkpt>
      <trkpt lat="45.17096" lon="5.66699">
        <ele>639</ele>
        <time>2014-06-28T10:27:04.000Z</time>
      </trkpt>
      <trkpt lat="45.17096" lon="5.66699">
        <ele>639</ele>
        <time>2014-06-28T10:27:05.000Z</time>
      </trkpt>
      <trkpt lat="45.17096" lon="5.66699">
        <ele>639</ele>
        <time>2014-06-28T10:27:06.000Z</time>
      </trkpt>
      <trkpt lat="45.17096" lon="5.66699">
        <ele>639</ele>
        <time>2014-06-28T10:27:07.000Z</time>
      </trkpt>
      <trkpt lat="45.17096" lon="5.66699">
        <ele>639</ele>
        <time>2014-06-28T10:27:08.000Z</time>
      </trkpt>
      <trkpt lat="45.17096" lon="5.66699">
        <ele>639</ele>
        <time>2014-06-28T10:27:09.000Z</time>
      </trkpt>
      <trkpt lat="45.17096" lon="5.66699">
        <ele>639</ele>
        <time>2014-06-28T10:27:10.000Z</time>
      </trkpt>
      <trkpt lat="45.17096" lon="5.66699">
        <ele>639</ele>
        <time>2014-06-28T10:27:11.000Z</time>
      </trkpt>
      <trkpt lat="45.17096" lon="5.66699">
        <ele>639</ele>
        <time>2014-06-28T10:27:12.000Z</time>
      </trkpt>
      <trkpt lat="45.17096" lon="5.66699">
        <ele>639</ele>
        <time>2014-06-28T10:27:13.000Z</time>
      </trkpt>
      <trkpt lat="45.17096" lon="5.66699">
        <ele>639</ele>
        <time>2014-06-28T10:27:14.000Z</time>
      </trkpt>
      <trkpt lat="45.17096" lon="5.66699">
        <ele>639</ele>
        <time>2014-06-28T10:27:15.000Z</time>
      </trkpt>
      <trkpt lat="45.17096" lon="5.66699">
        <ele>639</ele>
        <time>2014-06-28T10:27:16.000Z</time>
      </trkpt>
      <trkpt lat="45.17096" lon="5.66699">
        <ele>639</ele>
        <time>2014-06-28T10:27:17.000Z</time>
      </trkpt>
      <trkpt lat="45.17096" lon="5.66699">
        <ele>639</ele>
        <time>2014-06-28T10:27:18.000Z</time>
      </trkpt>
      <trkpt lat="45.17096" lon="5.66699">
        <ele>639</ele>
        <time>2014-06-28T10:27:19.000Z</time>
      </trkpt>
      <trkpt lat="45.17096" lon="5.66699">
        <ele>639</ele>
        <time>2014-06-28T10:27:20.000Z</time>
      </trkpt>
      <trkpt lat="45.17095" lon="5.66699">
        <ele>639</ele>
        <time>2014-06-28T10:27:21.000Z</time>
      </trkpt>
      <trkpt lat="45.17095" lon="5.667">
        <ele>639</ele>
        <time>2014-06-28T10:27:22.000Z</time>
      </trkpt>
      <trkpt lat="45.17095" lon="5.667">
        <ele>639</ele>
        <time>2014-06-28T10:27:23.000Z</time>
      </trkpt>
      <trkpt lat="45.17095" lon="5.667">
        <ele>639</ele>
        <time>2014-06-28T10:27:24.000Z</time>
      </trkpt>
      <trkpt lat="45.17095" lon="5.667">
        <ele>639</ele>
        <time>2014-06-28T10:27:25.000Z</time>
      </trkpt>
      <trkpt lat="45.17095" lon="5.667">
        <ele>639</ele>
        <time>2014-06-28T10:27:26.000Z</time>
      </trkpt>
      <trkpt lat="45.17095" lon="5.667">
        <ele>639</ele>
        <time>2014-06-28T10:27:27.000Z</time>
      </trkpt>
      <trkpt lat="45.17095" lon="5.667">
        <ele>639</ele>
        <time>2014-06-28T10:27:28.000Z</time>
      </trkpt>
      <trkpt lat="45.17095" lon="5.667">
        <ele>639</ele>
        <time>2014-06-28T10:27:29.000Z</time>
      </trkpt>
      <trkpt lat="45.17095" lon="5.667">
        <ele>639</ele>
        <time>2014-06-28T10:27:30.000Z</time>
      </trkpt>
      <trkpt lat="45.17095" lon="5.667">
        <ele>639</ele>
        <time>2014-06-28T10:27:31.000Z</time>
      </trkpt>
      <trkpt lat="45.17095" lon="5.667">
        <ele>639</ele>
        <time>2014-06-28T10:27:32.000Z</time>
      </trkpt>
      <trkpt lat="45.17095" lon="5.667">
        <ele>639</ele>
        <time>2014-06-28T10:27:33.000Z</time>
      </trkpt>
      <trkpt lat="45.17095" lon="5.667">
        <ele>639</ele>
        <time>2014-06-28T10:27:34.000Z</time>
      </trkpt>
      <trkpt lat="45.17095" lon="5.667">
        <ele>639</ele>
        <time>2014-06-28T10:27:35.000Z</time>
      </trkpt>
      <trkpt lat="45.17095" lon="5.667">
        <ele>639</ele>
        <time>2014-06-28T10:27:36.000Z</time>
      </trkpt>
      <trkpt lat="45.17096" lon="5.66699">
        <ele>639</ele>
        <time>2014-06-28T10:27:37.000Z</time>
      </trkpt>
      <trkpt lat="45.17096" lon="5.66699">
        <ele>639</ele>
        <time>2014-06-28T10:27:38.000Z</time>
      </trkpt>
      <trkpt lat="45.17096" lon="5.66699">
        <ele>639</ele>
        <time>2014-06-28T10:27:39.000Z</time>
      </trkpt>
      <trkpt lat="45.17096" lon="5.66699">
        <ele>639</ele>
        <time>2014-06-28T10:27:40.000Z</time>
      </trkpt>
      <trkpt lat="45.17096" lon="5.66699">
        <ele>639</ele>
        <time>2014-06-28T10:27:41.000Z</time>
      </trkpt>
      <trkpt lat="45.17096" lon="5.667">
        <ele>639</ele>
        <time>2014-06-28T10:27:42.000Z</time>
      </trkpt>
      <trkpt lat="45.17096" lon="5.667">
        <ele>639</ele>
        <time>2014-06-28T10:27:43.000Z</time>
      </trkpt>
      <trkpt lat="45.17096" lon="5.667">
        <ele>639</ele>
        <time>2014-06-28T10:27:44.000Z</time>
      </trkpt>
      <trkpt lat="45.17096" lon="5.667">
        <ele>639</ele>
        <time>2014-06-28T10:27:45.000Z</time>
      </trkpt>
      <trkpt lat="45.17096" lon="5.667">
        <ele>639</ele>
        <time>2014-06-28T10:27:46.000Z</time>
      </trkpt>
      <trkpt lat="45.17096" lon="5.667">
        <ele>639</ele>
        <time>2014-06-28T10:27:47.000Z</time>
      </trkpt>
      <trkpt lat="45.17096" lon="5.66701">
        <ele>639</ele>
        <time>2014-06-28T10:27:48.000Z</time>
      </trkpt>
      <trkpt lat="45.17096" lon="5.66701">
        <ele>639</ele>
        <time>2014-06-28T10:27:49.000Z</time>
      </trkpt>
      <trkpt lat="45.17096" lon="5.66701">
        <ele>639</ele>
        <time>2014-06-28T10:27:50.000Z</time>
      </trkpt>
      <trkpt lat="45.17095" lon="5.66701">
        <ele>639</ele>
        <time>2014-06-28T10:27:51.000Z</time>
      </trkpt>
      <trkpt lat="45.17095" lon="5.66701">
        <ele>639</ele>
        <time>2014-06-28T10:27:52.000Z</time>
      </trkpt>
      <trkpt lat="45.17095" lon="5.66701">
        <ele>639</ele>
        <time>2014-06-28T10:27:53.000Z</time>
      </trkpt>
      <trkpt lat="45.17095" lon="5.66701">
        <ele>639</ele>
        <time>2014-06-28T10:27:54.000Z</time>
      </trkpt>
      <trkpt lat="45.17095" lon="5.66701">
        <ele>639</ele>
        <time>2014-06-28T10:27:55.000Z</time>
      </trkpt>
      <trkpt lat="45.17095" lon="5.66701">
        <ele>639</ele>
        <time>2014-06-28T10:27:56.000Z</time>
      </trkpt>
      <trkpt lat="45.17095" lon="5.66701">
        <ele>639</ele>
        <time>2014-06-28T10:27:57.000Z</time>
      </trkpt>
      <trkpt lat="45.17095" lon="5.66702">
        <ele>639</ele>
        <time>2014-06-28T10:27:58.000Z</time>
      </trkpt>
      <trkpt lat="45.17095" lon="5.66702">
        <ele>639</ele>
        <time>2014-06-28T10:27:59.000Z</time>
      </trkpt>
      <trkpt lat="45.17094" lon="5.66702">
        <ele>639</ele>
        <time>2014-06-28T10:28:00.000Z</time>
      </trkpt>
      <trkpt lat="45.17094" lon="5.66702">
        <ele>639</ele>
        <time>2014-06-28T10:28:01.000Z</time>
      </trkpt>
      <trkpt lat="45.17094" lon="5.66702">
        <ele>639</ele>
        <time>2014-06-28T10:28:02.000Z</time>
      </trkpt>
      <trkpt lat="45.17094" lon="5.66702">
        <ele>639</ele>
        <time>2014-06-28T10:28:03.000Z</time>
      </trkpt>
      <trkpt lat="45.17094" lon="5.66702">
        <ele>639</ele>
        <time>2014-06-28T10:28:04.000Z</time>
      </trkpt>
      <trkpt lat="45.17094" lon="5.66702">
        <ele>639</ele>
        <time>2014-06-28T10:28:05.000Z</time>
      </trkpt>
      <trkpt lat="45.17094" lon="5.66702">
        <ele>639</ele>
        <time>2014-06-28T10:28:06.000Z</time>
      </trkpt>
      <trkpt lat="45.17094" lon="5.66702">
        <ele>639</ele>
        <time>2014-06-28T10:28:07.000Z</time>
      </trkpt>
      <trkpt lat="45.17093" lon="5.66702">
        <ele>639</ele>
        <time>2014-06-28T10:28:08.000Z</time>
      </trkpt>
      <trkpt lat="45.17093" lon="5.66702">
        <ele>639</ele>
        <time>2014-06-28T10:28:09.000Z</time>
      </trkpt>
      <trkpt lat="45.17093" lon="5.66701">
        <ele>639</ele>
        <time>2014-06-28T10:28:10.000Z</time>
      </trkpt>
      <trkpt lat="45.17093" lon="5.66701">
        <ele>639</ele>
        <time>2014-06-28T10:28:11.000Z</time>
      </trkpt>
      <trkpt lat="45.17093" lon="5.66701">
        <ele>639</ele>
        <time>2014-06-28T10:28:12.000Z</time>
      </trkpt>
      <trkpt lat="45.17093" lon="5.66701">
        <ele>639</ele>
        <time>2014-06-28T10:28:13.000Z</time>
      </trkpt>
      <trkpt lat="45.17093" lon="5.667">
        <ele>639</ele>
        <time>2014-06-28T10:28:14.000Z</time>
      </trkpt>
      <trkpt lat="45.17093" lon="5.667">
        <ele>639</ele>
        <time>2014-06-28T10:28:15.000Z</time>
      </trkpt>
      <trkpt lat="45.17093" lon="5.667">
        <ele>639</ele>
        <time>2014-06-28T10:28:16.000Z</time>
      </trkpt>
      <trkpt lat="45.17093" lon="5.667">
        <ele>639</ele>
        <time>2014-06-28T10:28:17.000Z</time>
      </trkpt>
      <trkpt lat="45.17092" lon="5.667">
        <ele>639</ele>
        <time>2014-06-28T10:28:18.000Z</time>
      </trkpt>
      <trkpt lat="45.17092" lon="5.66699">
        <ele>639</ele>
        <time>2014-06-28T10:28:19.000Z</time>
      </trkpt>
      <trkpt lat="45.17092" lon="5.66698">
        <ele>639</ele>
        <time>2014-06-28T10:28:20.000Z</time>
      </trkpt>
      <trkpt lat="45.17091" lon="5.66697">
        <ele>639</ele>
        <time>2014-06-28T10:28:21.000Z</time>
      </trkpt>
      <trkpt lat="45.1709" lon="5.66696">
        <ele>639</ele>
        <time>2014-06-28T10:28:22.000Z</time>
      </trkpt>
      <trkpt lat="45.17088" lon="5.66696">
        <ele>639</ele>
        <time>2014-06-28T10:28:23.000Z</time>
      </trkpt>
      <trkpt lat="45.17086" lon="5.66695">
        <ele>639</ele>
        <time>2014-06-28T10:28:24.000Z</time>
      </trkpt>
      <trkpt lat="45.17084" lon="5.66694">
        <ele>638</ele>
        <time>2014-06-28T10:28:25.000Z</time>
      </trkpt>
      <trkpt lat="45.17081" lon="5.66693">
        <ele>638</ele>
        <time>2014-06-28T10:28:26.000Z</time>
      </trkpt>
      <trkpt lat="45.17079" lon="5.66692">
        <ele>638</ele>
        <time>2014-06-28T10:28:27.000Z</time>
      </trkpt>
      <trkpt lat="45.17076" lon="5.66691">
        <ele>638</ele>
        <time>2014-06-28T10:28:28.000Z</time>
      </trkpt>
      <trkpt lat="45.17073" lon="5.6669">
        <ele>638</ele>
        <time>2014-06-28T10:28:29.000Z</time>
      </trkpt>
      <trkpt lat="45.17071" lon="5.66689">
        <ele>638</ele>
        <time>2014-06-28T10:28:30.000Z</time>
      </trkpt>
      <trkpt lat="45.17068" lon="5.66688">
        <ele>638</ele>
        <time>2014-06-28T10:28:31.000Z</time>
      </trkpt>
      <trkpt lat="45.17066" lon="5.66688">
        <ele>637</ele>
        <time>2014-06-28T10:28:32.000Z</time>
      </trkpt>
      <trkpt lat="45.17063" lon="5.66688">
        <ele>637</ele>
        <time>2014-06-28T10:28:33.000Z</time>
      </trkpt>
      <trkpt lat="45.1706" lon="5.66688">
        <ele>637</ele>
        <time>2014-06-28T10:28:34.000Z</time>
      </trkpt>
      <trkpt lat="45.17057" lon="5.66689">
        <ele>637</ele>
        <time>2014-06-28T10:28:35.000Z</time>
      </trkpt>
      <trkpt lat="45.17054" lon="5.6669">
        <ele>636</ele>
        <time>2014-06-28T10:28:36.000Z</time>
      </trkpt>
      <trkpt lat="45.17051" lon="5.66691">
        <ele>636</ele>
        <time>2014-06-28T10:28:37.000Z</time>
      </trkpt>
      <trkpt lat="45.17048" lon="5.66692">
        <ele>636</ele>
        <time>2014-06-28T10:28:38.000Z</time>
      </trkpt>
      <trkpt lat="45.17045" lon="5.66693">
        <ele>636</ele>
        <time>2014-06-28T10:28:39.000Z</time>
      </trkpt>
      <trkpt lat="45.17042" lon="5.66694">
        <ele>635</ele>
        <time>2014-06-28T10:28:40.000Z</time>
      </trkpt>
      <trkpt lat="45.17039" lon="5.66695">
        <ele>635</ele>
        <time>2014-06-28T10:28:41.000Z</time>
      </trkpt>
      <trkpt lat="45.17036" lon="5.66696">
        <ele>635</ele>
        <time>2014-06-28T10:28:42.000Z</time>
      </trkpt>
      <trkpt lat="45.17033" lon="5.66697">
        <ele>635</ele>
        <time>2014-06-28T10:28:43.000Z</time>
      </trkpt>
      <trkpt lat="45.1703" lon="5.66698">
        <ele>635</ele>
        <time>2014-06-28T10:28:44.000Z</time>
      </trkpt>
      <trkpt lat="45.17026" lon="5.66699">
        <ele>634</ele>
        <time>2014-06-28T10:28:45.000Z</time>
      </trkpt>
      <trkpt lat="45.17023" lon="5.66699">
        <ele>634</ele>
        <time>2014-06-28T10:28:46.000Z</time>
      </trkpt>
      <trkpt lat="45.1702" lon="5.667">
        <ele>634</ele>
        <time>2014-06-28T10:28:47.000Z</time>
      </trkpt>
      <trkpt lat="45.17017" lon="5.66701">
        <ele>634</ele>
        <time>2014-06-28T10:28:48.000Z</time>
      </trkpt>
      <trkpt lat="45.17015" lon="5.66701">
        <ele>634</ele>
        <time>2014-06-28T10:28:49.000Z</time>
      </trkpt>
      <trkpt lat="45.17012" lon="5.66702">
        <ele>634</ele>
        <time>2014-06-28T10:28:50.000Z</time>
      </trkpt>
      <trkpt lat="45.17008" lon="5.66703">
        <ele>633</ele>
        <time>2014-06-28T10:28:51.000Z</time>
      </trkpt>
      <trkpt lat="45.17005" lon="5.66704">
        <ele>633</ele>
        <time>2014-06-28T10:28:52.000Z</time>
      </trkpt>
      <trkpt lat="45.17002" lon="5.66705">
        <ele>633</ele>
        <time>2014-06-28T10:28:53.000Z</time>
      </trkpt>
      <trkpt lat="45.16999" lon="5.66706">
        <ele>633</ele>
        <time>2014-06-28T10:28:54.000Z</time>
      </trkpt>
      <trkpt lat="45.16996" lon="5.66707">
        <ele>632</ele>
        <time>2014-06-28T10:28:55.000Z</time>
      </trkpt>
      <trkpt lat="45.16992" lon="5.66708">
        <ele>632</ele>
        <time>2014-06-28T10:28:56.000Z</time>
      </trkpt>
      <trkpt lat="45.16989" lon="5.66709">
        <ele>632</ele>
        <time>2014-06-28T10:28:57.000Z</time>
      </trkpt>
      <trkpt lat="45.16986" lon="5.6671">
        <ele>632</ele>
        <time>2014-06-28T10:28:58.000Z</time>
      </trkpt>
      <trkpt lat="45.16983" lon="5.66711">
        <ele>632</ele>
        <time>2014-06-28T10:28:59.000Z</time>
      </trkpt>
      <trkpt lat="45.1698" lon="5.66712">
        <ele>631</ele>
        <time>2014-06-28T10:29:00.000Z</time>
      </trkpt>
      <trkpt lat="45.16977" lon="5.66714">
        <ele>631</ele>
        <time>2014-06-28T10:29:01.000Z</time>
      </trkpt>
      <trkpt lat="45.16974" lon="5.66716">
        <ele>631</ele>
        <time>2014-06-28T10:29:02.000Z</time>
      </trkpt>
      <trkpt lat="45.16971" lon="5.66718">
        <ele>631</ele>
        <time>2014-06-28T10:29:03.000Z</time>
      </trkpt>
      <trkpt lat="45.16968" lon="5.66721">
        <ele>630</ele>
        <time>2014-06-28T10:29:04.000Z</time>
      </trkpt>
      <trkpt lat="45.16965" lon="5.66724">
        <ele>630</ele>
        <time>2014-06-28T10:29:05.000Z</time>
      </trkpt>
      <trkpt lat="45.16962" lon="5.66727">
        <ele>630</ele>
        <time>2014-06-28T10:29:06.000Z</time>
      </trkpt>
      <trkpt lat="45.16959" lon="5.6673">
        <ele>630</ele>
        <time>2014-06-28T10:29:07.000Z</time>
      </trkpt>
      <trkpt lat="45.16956" lon="5.66733">
        <ele>629</ele>
        <time>2014-06-28T10:29:08.000Z</time>
      </trkpt>
      <trkpt lat="45.16953" lon="5.66736">
        <ele>629</ele>
        <time>2014-06-28T10:29:09.000Z</time>
      </trkpt>
      <trkpt lat="45.1695" lon="5.66739">
        <ele>629</ele>
        <time>2014-06-28T10:29:10.000Z</time>
      </trkpt>
      <trkpt lat="45.16948" lon="5.66742">
        <ele>629</ele>
        <time>2014-06-28T10:29:11.000Z</time>
      </trkpt>
      <trkpt lat="45.16945" lon="5.66744">
        <ele>628</ele>
        <time>2014-06-28T10:29:12.000Z</time>
      </trkpt>
      <trkpt lat="45.16943" lon="5.66746">
        <ele>628</ele>
        <time>2014-06-28T10:29:13.000Z</time>
      </trkpt>
      <trkpt lat="45.1694" lon="5.66749">
        <ele>628</ele>
        <time>2014-06-28T10:29:14.000Z</time>
      </trkpt>
      <trkpt lat="45.16938" lon="5.66751">
        <ele>628</ele>
        <time>2014-06-28T10:29:15.000Z</time>
      </trkpt>
      <trkpt lat="45.16935" lon="5.66754">
        <ele>627</ele>
        <time>2014-06-28T10:29:16.000Z</time>
      </trkpt>
      <trkpt lat="45.16933" lon="5.66756">
        <ele>627</ele>
        <time>2014-06-28T10:29:17.000Z</time>
      </trkpt>
      <trkpt lat="45.1693" lon="5.66758">
        <ele>627</ele>
        <time>2014-06-28T10:29:18.000Z</time>
      </trkpt>
      <trkpt lat="45.16927" lon="5.66761">
        <ele>627</ele>
        <time>2014-06-28T10:29:19.000Z</time>
      </trkpt>
      <trkpt lat="45.16924" lon="5.66764">
        <ele>627</ele>
        <time>2014-06-28T10:29:20.000Z</time>
      </trkpt>
      <trkpt lat="45.16922" lon="5.66767">
        <ele>627</ele>
        <time>2014-06-28T10:29:21.000Z</time>
      </trkpt>
      <trkpt lat="45.16919" lon="5.6677">
        <ele>626</ele>
        <time>2014-06-28T10:29:22.000Z</time>
      </trkpt>
      <trkpt lat="45.16916" lon="5.66773">
        <ele>626</ele>
        <time>2014-06-28T10:29:23.000Z</time>
      </trkpt>
      <trkpt lat="45.16913" lon="5.66776">
        <ele>626</ele>
        <time>2014-06-28T10:29:24.000Z</time>
      </trkpt>
      <trkpt lat="45.1691" lon="5.66779">
        <ele>626</ele>
        <time>2014-06-28T10:29:25.000Z</time>
      </trkpt>
      <trkpt lat="45.16907" lon="5.66782">
        <ele>626</ele>
        <time>2014-06-28T10:29:26.000Z</time>
      </trkpt>
      <trkpt lat="45.16904" lon="5.66784">
        <ele>625</ele>
        <time>2014-06-28T10:29:27.000Z</time>
      </trkpt>
      <trkpt lat="45.16901" lon="5.66787">
        <ele>625</ele>
        <time>2014-06-28T10:29:28.000Z</time>
      </trkpt>
      <trkpt lat="45.16898" lon="5.66789">
        <ele>625</ele>
        <time>2014-06-28T10:29:29.000Z</time>
      </trkpt>
      <trkpt lat="45.16895" lon="5.66791">
        <ele>625</ele>
        <time>2014-06-28T10:29:30.000Z</time>
      </trkpt>
      <trkpt lat="45.16892" lon="5.66792">
        <ele>624</ele>
        <time>2014-06-28T10:29:31.000Z</time>
      </trkpt>
      <trkpt lat="45.16888" lon="5.66793">
        <ele>624</ele>
        <time>2014-06-28T10:29:32.000Z</time>
      </trkpt>
      <trkpt lat="45.16885" lon="5.66794">
        <ele>624</ele>
        <time>2014-06-28T10:29:33.000Z</time>
      </trkpt>
      <trkpt lat="45.16881" lon="5.66795">
        <ele>623</ele>
        <time>2014-06-28T10:29:34.000Z</time>
      </trkpt>
      <trkpt lat="45.16878" lon="5.66795">
        <ele>623</ele>
        <time>2014-06-28T10:29:35.000Z</time>
      </trkpt>
      <trkpt lat="45.16875" lon="5.66795">
        <ele>622</ele>
        <time>2014-06-28T10:29:36.000Z</time>
      </trkpt>
      <trkpt lat="45.16873" lon="5.66795">
        <ele>622</ele>
        <time>2014-06-28T10:29:37.000Z</time>
      </trkpt>
      <trkpt lat="45.16871" lon="5.66796">
        <ele>621</ele>
        <time>2014-06-28T10:29:38.000Z</time>
      </trkpt>
      <trkpt lat="45.16871" lon="5.66796">
        <ele>621</ele>
        <time>2014-06-28T10:29:39.000Z</time>
      </trkpt>
      <trkpt lat="45.1687" lon="5.66797">
        <ele>620</ele>
        <time>2014-06-28T10:29:40.000Z</time>
      </trkpt>
      <trkpt lat="45.16868" lon="5.66797">
        <ele>620</ele>
        <time>2014-06-28T10:29:41.000Z</time>
      </trkpt>
      <trkpt lat="45.16868" lon="5.66797">
        <ele>620</ele>
        <time>2014-06-28T10:29:42.000Z</time>
      </trkpt>
      <trkpt lat="45.16867" lon="5.66798">
        <ele>619</ele>
        <time>2014-06-28T10:29:43.000Z</time>
      </trkpt>
      <trkpt lat="45.16866" lon="5.66798">
        <ele>619</ele>
        <time>2014-06-28T10:29:44.000Z</time>
      </trkpt>
      <trkpt lat="45.16864" lon="5.66799">
        <ele>619</ele>
        <time>2014-06-28T10:29:45.000Z</time>
      </trkpt>
      <trkpt lat="45.16863" lon="5.66799">
        <ele>618</ele>
        <time>2014-06-28T10:29:46.000Z</time>
      </trkpt>
      <trkpt lat="45.16861" lon="5.66799">
        <ele>618</ele>
        <time>2014-06-28T10:29:47.000Z</time>
      </trkpt>
      <trkpt lat="45.16858" lon="5.668">
        <ele>618</ele>
        <time>2014-06-28T10:29:48.000Z</time>
      </trkpt>
      <trkpt lat="45.16855" lon="5.66801">
        <ele>617</ele>
        <time>2014-06-28T10:29:49.000Z</time>
      </trkpt>
      <trkpt lat="45.16852" lon="5.66801">
        <ele>617</ele>
        <time>2014-06-28T10:29:50.000Z</time>
      </trkpt>
      <trkpt lat="45.16849" lon="5.66802">
        <ele>617</ele>
        <time>2014-06-28T10:29:51.000Z</time>
      </trkpt>
      <trkpt lat="45.16845" lon="5.66802">
        <ele>616</ele>
        <time>2014-06-28T10:29:52.000Z</time>
      </trkpt>
      <trkpt lat="45.16842" lon="5.66802">
        <ele>616</ele>
        <time>2014-06-28T10:29:53.000Z</time>
      </trkpt>
      <trkpt lat="45.16838" lon="5.66803">
        <ele>616</ele>
        <time>2014-06-28T10:29:54.000Z</time>
      </trkpt>
      <trkpt lat="45.16835" lon="5.66803">
        <ele>615</ele>
        <time>2014-06-28T10:29:55.000Z</time>
      </trkpt>
      <trkpt lat="45.16832" lon="5.66803">
        <ele>615</ele>
        <time>2014-06-28T10:29:56.000Z</time>
      </trkpt>
      <trkpt lat="45.16828" lon="5.66803">
        <ele>615</ele>
        <time>2014-06-28T10:29:57.000Z</time>
      </trkpt>
      <trkpt lat="45.16825" lon="5.66803">
        <ele>615</ele>
        <time>2014-06-28T10:29:58.000Z</time>
      </trkpt>
      <trkpt lat="45.16823" lon="5.66803">
        <ele>614</ele>
        <time>2014-06-28T10:29:59.000Z</time>
      </trkpt>
      <trkpt lat="45.1682" lon="5.66802">
        <ele>614</ele>
        <time>2014-06-28T10:30:00.000Z</time>
      </trkpt>
      <trkpt lat="45.16818" lon="5.66801">
        <ele>614</ele>
        <time>2014-06-28T10:30:01.000Z</time>
      </trkpt>
      <trkpt lat="45.16816" lon="5.66799">
        <ele>613</ele>
        <time>2014-06-28T10:30:02.000Z</time>
      </trkpt>
      <trkpt lat="45.16814" lon="5.66798">
        <ele>613</ele>
        <time>2014-06-28T10:30:03.000Z</time>
      </trkpt>
      <trkpt lat="45.16812" lon="5.66797">
        <ele>613</ele>
        <time>2014-06-28T10:30:04.000Z</time>
      </trkpt>
      <trkpt lat="45.1681" lon="5.66796">
        <ele>612</ele>
        <time>2014-06-28T10:30:05.000Z</time>
      </trkpt>
      <trkpt lat="45.16808" lon="5.66796">
        <ele>612</ele>
        <time>2014-06-28T10:30:06.000Z</time>
      </trkpt>
      <trkpt lat="45.16805" lon="5.66795">
        <ele>612</ele>
        <time>2014-06-28T10:30:07.000Z</time>
      </trkpt>
      <trkpt lat="45.16803" lon="5.66795">
        <ele>611</ele>
        <time>2014-06-28T10:30:08.000Z</time>
      </trkpt>
      <trkpt lat="45.16801" lon="5.66795">
        <ele>611</ele>
        <time>2014-06-28T10:30:09.000Z</time>
      </trkpt>
      <trkpt lat="45.168" lon="5.66795">
        <ele>611</ele>
        <time>2014-06-28T10:30:10.000Z</time>
      </trkpt>
      <trkpt lat="45.16798" lon="5.66795">
        <ele>610</ele>
        <time>2014-06-28T10:30:11.000Z</time>
      </trkpt>
      <trkpt lat="45.16797" lon="5.66796">
        <ele>610</ele>
        <time>2014-06-28T10:30:12.000Z</time>
      </trkpt>
      <trkpt lat="45.16796" lon="5.66796">
        <ele>610</ele>
        <time>2014-06-28T10:30:13.000Z</time>
      </trkpt>
      <trkpt lat="45.16794" lon="5.66797">
        <ele>610</ele>
        <time>2014-06-28T10:30:14.000Z</time>
      </trkpt>
      <trkpt lat="45.16792" lon="5.66798">
        <ele>609</ele>
        <time>2014-06-28T10:30:15.000Z</time>
      </trkpt>
      <trkpt lat="45.16791" lon="5.66799">
        <ele>609</ele>
        <time>2014-06-28T10:30:16.000Z</time>
      </trkpt>
      <trkpt lat="45.16789" lon="5.668">
        <ele>609</ele>
        <time>2014-06-28T10:30:17.000Z</time>
      </trkpt>
      <trkpt lat="45.16787" lon="5.66801">
        <ele>609</ele>
        <time>2014-06-28T10:30:18.000Z</time>
      </trkpt>
      <trkpt lat="45.16785" lon="5.66802">
        <ele>609</ele>
        <time>2014-06-28T10:30:19.000Z</time>
      </trkpt>
      <trkpt lat="45.16782" lon="5.66804">
        <ele>608</ele>
        <time>2014-06-28T10:30:20.000Z</time>
      </trkpt>
      <trkpt lat="45.1678" lon="5.66806">
        <ele>608</ele>
        <time>2014-06-28T10:30:21.000Z</time>
      </trkpt>
      <trkpt lat="45.16778" lon="5.66807">
        <ele>608</ele>
        <time>2014-06-28T10:30:22.000Z</time>
      </trkpt>
      <trkpt lat="45.16775" lon="5.66809">
        <ele>608</ele>
        <time>2014-06-28T10:30:23.000Z</time>
      </trkpt>
      <trkpt lat="45.16773" lon="5.6681">
        <ele>608</ele>
        <time>2014-06-28T10:30:24.000Z</time>
      </trkpt>
      <trkpt lat="45.1677" lon="5.66812">
        <ele>608</ele>
        <time>2014-06-28T10:30:25.000Z</time>
      </trkpt>
      <trkpt lat="45.16768" lon="5.66813">
        <ele>607</ele>
        <time>2014-06-28T10:30:26.000Z</time>
      </trkpt>
      <trkpt lat="45.16766" lon="5.66814">
        <ele>607</ele>
        <time>2014-06-28T10:30:27.000Z</time>
      </trkpt>
      <trkpt lat="45.16765" lon="5.66816">
        <ele>607</ele>
        <time>2014-06-28T10:30:28.000Z</time>
      </trkpt>
      <trkpt lat="45.16764" lon="5.66817">
        <ele>607</ele>
        <time>2014-06-28T10:30:29.000Z</time>
      </trkpt>
      <trkpt lat="45.16764" lon="5.66819">
        <ele>607</ele>
        <time>2014-06-28T10:30:30.000Z</time>
      </trkpt>
      <trkpt lat="45.16764" lon="5.6682">
        <ele>606</ele>
        <time>2014-06-28T10:30:31.000Z</time>
      </trkpt>
      <trkpt lat="45.16764" lon="5.66822">
        <ele>606</ele>
        <time>2014-06-28T10:30:32.000Z</time>
      </trkpt>
      <trkpt lat="45.16765" lon="5.66823">
        <ele>606</ele>
        <time>2014-06-28T10:30:33.000Z</time>
      </trkpt>
      <trkpt lat="45.16766" lon="5.66825">
        <ele>605</ele>
        <time>2014-06-28T10:30:34.000Z</time>
      </trkpt>
      <trkpt lat="45.16767" lon="5.66827">
        <ele>605</ele>
        <time>2014-06-28T10:30:35.000Z</time>
      </trkpt>
      <trkpt lat="45.16768" lon="5.66829">
        <ele>605</ele>
        <time>2014-06-28T10:30:36.000Z</time>
      </trkpt>
      <trkpt lat="45.16769" lon="5.66831">
        <ele>605</ele>
        <time>2014-06-28T10:30:37.000Z</time>
      </trkpt>
      <trkpt lat="45.16771" lon="5.66834">
        <ele>604</ele>
        <time>2014-06-28T10:30:38.000Z</time>
      </trkpt>
      <trkpt lat="45.16773" lon="5.66836">
        <ele>604</ele>
        <time>2014-06-28T10:30:39.000Z</time>
      </trkpt>
      <trkpt lat="45.16774" lon="5.66838">
        <ele>604</ele>
        <time>2014-06-28T10:30:40.000Z</time>
      </trkpt>
      <trkpt lat="45.16777" lon="5.6684">
        <ele>604</ele>
        <time>2014-06-28T10:30:41.000Z</time>
      </trkpt>
      <trkpt lat="45.16779" lon="5.66841">
        <ele>604</ele>
        <time>2014-06-28T10:30:42.000Z</time>
      </trkpt>
      <trkpt lat="45.16781" lon="5.66842">
        <ele>603</ele>
        <time>2014-06-28T10:30:43.000Z</time>
      </trkpt>
      <trkpt lat="45.16783" lon="5.66843">
        <ele>603</ele>
        <time>2014-06-28T10:30:44.000Z</time>
      </trkpt>
      <trkpt lat="45.16786" lon="5.66844">
        <ele>603</ele>
        <time>2014-06-28T10:30:45.000Z</time>
      </trkpt>
      <trkpt lat="45.16788" lon="5.66845">
        <ele>603</ele>
        <time>2014-06-28T10:30:46.000Z</time>
      </trkpt>
      <trkpt lat="45.16791" lon="5.66847">
        <ele>602</ele>
        <time>2014-06-28T10:30:47.000Z</time>
      </trkpt>
      <trkpt lat="45.16794" lon="5.66849">
        <ele>602</ele>
        <time>2014-06-28T10:30:48.000Z</time>
      </trkpt>
      <trkpt lat="45.16797" lon="5.66851">
        <ele>602</ele>
        <time>2014-06-28T10:30:49.000Z</time>
      </trkpt>
      <trkpt lat="45.16799" lon="5.66853">
        <ele>601</ele>
        <time>2014-06-28T10:30:50.000Z</time>
      </trkpt>
      <trkpt lat="45.16801" lon="5.66854">
        <ele>601</ele>
        <time>2014-06-28T10:30:51.000Z</time>
      </trkpt>
      <trkpt lat="45.16803" lon="5.66855">
        <ele>601</ele>
        <time>2014-06-28T10:30:52.000Z</time>
      </trkpt>
      <trkpt lat="45.16805" lon="5.66856">
        <ele>600</ele>
        <time>2014-06-28T10:30:53.000Z</time>
      </trkpt>
      <trkpt lat="45.16807" lon="5.66857">
        <ele>600</ele>
        <time>2014-06-28T10:30:54.000Z</time>
      </trkpt>
      <trkpt lat="45.16808" lon="5.66857">
        <ele>600</ele>
        <time>2014-06-28T10:30:55.000Z</time>
      </trkpt>
      <trkpt lat="45.1681" lon="5.66858">
        <ele>599</ele>
        <time>2014-06-28T10:30:56.000Z</time>
      </trkpt>
      <trkpt lat="45.16811" lon="5.66858">
        <ele>599</ele>
        <time>2014-06-28T10:30:57.000Z</time>
      </trkpt>
      <trkpt lat="45.16813" lon="5.6686">
        <ele>598</ele>
        <time>2014-06-28T10:30:58.000Z</time>
      </trkpt>
      <trkpt lat="45.16815" lon="5.66861">
        <ele>598</ele>
        <time>2014-06-28T10:30:59.000Z</time>
      </trkpt>
      <trkpt lat="45.16816" lon="5.66862">
        <ele>598</ele>
        <time>2014-06-28T10:31:00.000Z</time>
      </trkpt>
      <trkpt lat="45.16819" lon="5.66863">
        <ele>597</ele>
        <time>2014-06-28T10:31:01.000Z</time>
      </trkpt>
      <trkpt lat="45.16821" lon="5.66864">
        <ele>597</ele>
        <time>2014-06-28T10:31:02.000Z</time>
      </trkpt>
      <trkpt lat="45.16823" lon="5.66865">
        <ele>596</ele>
        <time>2014-06-28T10:31:03.000Z</time>
      </trkpt>
      <trkpt lat="45.16826" lon="5.66866">
        <ele>596</ele>
        <time>2014-06-28T10:31:04.000Z</time>
      </trkpt>
      <trkpt lat="45.16828" lon="5.66866">
        <ele>596</ele>
        <time>2014-06-28T10:31:05.000Z</time>
      </trkpt>
      <trkpt lat="45.16831" lon="5.66867">
        <ele>595</ele>
        <time>2014-06-28T10:31:06.000Z</time>
      </trkpt>
      <trkpt lat="45.16834" lon="5.66868">
        <ele>595</ele>
        <time>2014-06-28T10:31:07.000Z</time>
      </trkpt>
      <trkpt lat="45.16837" lon="5.66868">
        <ele>595</ele>
        <time>2014-06-28T10:31:08.000Z</time>
      </trkpt>
      <trkpt lat="45.1684" lon="5.66869">
        <ele>594</ele>
        <time>2014-06-28T10:31:09.000Z</time>
      </trkpt>
      <trkpt lat="45.16843" lon="5.66869">
        <ele>594</ele>
        <time>2014-06-28T10:31:10.000Z</time>
      </trkpt>
      <trkpt lat="45.16847" lon="5.66869">
        <ele>594</ele>
        <time>2014-06-28T10:31:11.000Z</time>
      </trkpt>
      <trkpt lat="45.1685" lon="5.66869">
        <ele>593</ele>
        <time>2014-06-28T10:31:12.000Z</time>
      </trkpt>
      <trkpt lat="45.16853" lon="5.66869">
        <ele>593</ele>
        <time>2014-06-28T10:31:13.000Z</time>
      </trkpt>
      <trkpt lat="45.16856" lon="5.66869">
        <ele>592</ele>
        <time>2014-06-28T10:31:14.000Z</time>
      </trkpt>
      <trkpt lat="45.16859" lon="5.66869">
        <ele>592</ele>
        <time>2014-06-28T10:31:15.000Z</time>
      </trkpt>
      <trkpt lat="45.16862" lon="5.66868">
        <ele>591</ele>
        <time>2014-06-28T10:31:16.000Z</time>
      </trkpt>
      <trkpt lat="45.16864" lon="5.66868">
        <ele>591</ele>
        <time>2014-06-28T10:31:17.000Z</time>
      </trkpt>
      <trkpt lat="45.16867" lon="5.66868">
        <ele>591</ele>
        <time>2014-06-28T10:31:18.000Z</time>
      </trkpt>
      <trkpt lat="45.1687" lon="5.66869">
        <ele>590</ele>
        <time>2014-06-28T10:31:19.000Z</time>
      </trkpt>
      <trkpt lat="45.16873" lon="5.66869">
        <ele>590</ele>
        <time>2014-06-28T10:31:20.000Z</time>
      </trkpt>
      <trkpt lat="45.16876" lon="5.66869">
        <ele>590</ele>
        <time>2014-06-28T10:31:21.000Z</time>
      </trkpt>
      <trkpt lat="45.16879" lon="5.6687">
        <ele>589</ele>
        <time>2014-06-28T10:31:22.000Z</time>
      </trkpt>
      <trkpt lat="45.16882" lon="5.6687">
        <ele>589</ele>
        <time>2014-06-28T10:31:23.000Z</time>
      </trkpt>
      <trkpt lat="45.16885" lon="5.6687">
        <ele>589</ele>
        <time>2014-06-28T10:31:24.000Z</time>
      </trkpt>
      <trkpt lat="45.16888" lon="5.6687">
        <ele>589</ele>
        <time>2014-06-28T10:31:25.000Z</time>
      </trkpt>
      <trkpt lat="45.1689" lon="5.66869">
        <ele>589</ele>
        <time>2014-06-28T10:31:26.000Z</time>
      </trkpt>
      <trkpt lat="45.16893" lon="5.66869">
        <ele>589</ele>
        <time>2014-06-28T10:31:27.000Z</time>
      </trkpt>
      <trkpt lat="45.16895" lon="5.66869">
        <ele>588</ele>
        <time>2014-06-28T10:31:28.000Z</time>
      </trkpt>
      <trkpt lat="45.16898" lon="5.66869">
        <ele>588</ele>
        <time>2014-06-28T10:31:29.000Z</time>
      </trkpt>
      <trkpt lat="45.169" lon="5.66869">
        <ele>588</ele>
        <time>2014-06-28T10:31:30.000Z</time>
      </trkpt>
      <trkpt lat="45.16902" lon="5.66868">
        <ele>588</ele>
        <time>2014-06-28T10:31:31.000Z</time>
      </trkpt>
      <trkpt lat="45.16904" lon="5.66868">
        <ele>588</ele>
        <time>2014-06-28T10:31:32.000Z</time>
      </trkpt>
      <trkpt lat="45.16907" lon="5.66868">
        <ele>588</ele>
        <time>2014-06-28T10:31:33.000Z</time>
      </trkpt>
      <trkpt lat="45.16909" lon="5.66868">
        <ele>587</ele>
        <time>2014-06-28T10:31:34.000Z</time>
      </trkpt>
      <trkpt lat="45.16911" lon="5.66869">
        <ele>587</ele>
        <time>2014-06-28T10:31:35.000Z</time>
      </trkpt>
      <trkpt lat="45.16913" lon="5.6687">
        <ele>587</ele>
        <time>2014-06-28T10:31:36.000Z</time>
      </trkpt>
      <trkpt lat="45.16916" lon="5.66871">
        <ele>587</ele>
        <time>2014-06-28T10:31:37.000Z</time>
      </trkpt>
      <trkpt lat="45.16918" lon="5.66873">
        <ele>586</ele>
        <time>2014-06-28T10:31:38.000Z</time>
      </trkpt>
      <trkpt lat="45.1692" lon="5.66876">
        <ele>586</ele>
        <time>2014-06-28T10:31:39.000Z</time>
      </trkpt>
      <trkpt lat="45.16922" lon="5.66878">
        <ele>586</ele>
        <time>2014-06-28T10:31:40.000Z</time>
      </trkpt>
      <trkpt lat="45.16925" lon="5.66881">
        <ele>586</ele>
        <time>2014-06-28T10:31:41.000Z</time>
      </trkpt>
      <trkpt lat="45.16927" lon="5.66882">
        <ele>586</ele>
        <time>2014-06-28T10:31:42.000Z</time>
      </trkpt>
      <trkpt lat="45.1693" lon="5.66885">
        <ele>586</ele>
        <time>2014-06-28T10:31:43.000Z</time>
      </trkpt>
      <trkpt lat="45.16932" lon="5.66887">
        <ele>585</ele>
        <time>2014-06-28T10:31:44.000Z</time>
      </trkpt>
      <trkpt lat="45.16935" lon="5.66889">
        <ele>585</ele>
        <time>2014-06-28T10:31:45.000Z</time>
      </trkpt>
      <trkpt lat="45.16937" lon="5.66891">
        <ele>585</ele>
        <time>2014-06-28T10:31:46.000Z</time>
      </trkpt>
      <trkpt lat="45.16939" lon="5.66893">
        <ele>585</ele>
        <time>2014-06-28T10:31:47.000Z</time>
      </trkpt>
      <trkpt lat="45.16941" lon="5.66895">
        <ele>585</ele>
        <time>2014-06-28T10:31:48.000Z</time>
      </trkpt>
      <trkpt lat="45.16942" lon="5.66897">
        <ele>585</ele>
        <time>2014-06-28T10:31:49.000Z</time>
      </trkpt>
      <trkpt lat="45.16943" lon="5.66898">
        <ele>585</ele>
        <time>2014-06-28T10:31:50.000Z</time>
      </trkpt>
      <trkpt lat="45.16944" lon="5.66899">
        <ele>585</ele>
        <time>2014-06-28T10:31:51.000Z</time>
      </trkpt>
      <trkpt lat="45.16946" lon="5.66899">
        <ele>585</ele>
        <time>2014-06-28T10:31:52.000Z</time>
      </trkpt>
      <trkpt lat="45.16947" lon="5.66901">
        <ele>585</ele>
        <time>2014-06-28T10:31:53.000Z</time>
      </trkpt>
      <trkpt lat="45.16949" lon="5.66902">
        <ele>585</ele>
        <time>2014-06-28T10:31:54.000Z</time>
      </trkpt>
      <trkpt lat="45.16949" lon="5.66903">
        <ele>585</ele>
        <time>2014-06-28T10:31:55.000Z</time>
      </trkpt>
      <trkpt lat="45.1695" lon="5.66904">
        <ele>585</ele>
        <time>2014-06-28T10:31:56.000Z</time>
      </trkpt>
      <trkpt lat="45.1695" lon="5.66906">
        <ele>585</ele>
        <time>2014-06-28T10:31:57.000Z</time>
      </trkpt>
      <trkpt lat="45.16951" lon="5.66907">
        <ele>585</ele>
        <time>2014-06-28T10:31:58.000Z</time>
      </trkpt>
      <trkpt lat="45.16951" lon="5.66908">
        <ele>585</ele>
        <time>2014-06-28T10:31:59.000Z</time>
      </trkpt>
      <trkpt lat="45.16951" lon="5.66908">
        <ele>584</ele>
        <time>2014-06-28T10:32:00.000Z</time>
      </trkpt>
      <trkpt lat="45.16952" lon="5.66908">
        <ele>584</ele>
        <time>2014-06-28T10:32:01.000Z</time>
      </trkpt>
      <trkpt lat="45.16953" lon="5.66909">
        <ele>584</ele>
        <time>2014-06-28T10:32:02.000Z</time>
      </trkpt>
      <trkpt lat="45.16953" lon="5.6691">
        <ele>584</ele>
        <time>2014-06-28T10:32:03.000Z</time>
      </trkpt>
      <trkpt lat="45.16954" lon="5.66911">
        <ele>584</ele>
        <time>2014-06-28T10:32:04.000Z</time>
      </trkpt>
      <trkpt lat="45.16953" lon="5.66912">
        <ele>583</ele>
        <time>2014-06-28T10:32:05.000Z</time>
      </trkpt>
      <trkpt lat="45.16953" lon="5.66913">
        <ele>583</ele>
        <time>2014-06-28T10:32:06.000Z</time>
      </trkpt>
      <trkpt lat="45.16953" lon="5.66914">
        <ele>583</ele>
        <time>2014-06-28T10:32:07.000Z</time>
      </trkpt>
      <trkpt lat="45.16952" lon="5.66915">
        <ele>582</ele>
        <time>2014-06-28T10:32:08.000Z</time>
      </trkpt>
      <trkpt lat="45.16951" lon="5.66915">
        <ele>582</ele>
        <time>2014-06-28T10:32:09.000Z</time>
      </trkpt>
      <trkpt lat="45.16951" lon="5.66916">
        <ele>581</ele>
        <time>2014-06-28T10:32:10.000Z</time>
      </trkpt>
      <trkpt lat="45.1695" lon="5.66916">
        <ele>581</ele>
        <time>2014-06-28T10:32:11.000Z</time>
      </trkpt>
      <trkpt lat="45.1695" lon="5.66917">
        <ele>581</ele>
        <time>2014-06-28T10:32:12.000Z</time>
      </trkpt>
      <trkpt lat="45.16949" lon="5.66918">
        <ele>580</ele>
        <time>2014-06-28T10:32:13.000Z</time>
      </trkpt>
      <trkpt lat="45.16948" lon="5.66919">
        <ele>580</ele>
        <time>2014-06-28T10:32:14.000Z</time>
      </trkpt>
      <trkpt lat="45.16947" lon="5.6692">
        <ele>579</ele>
        <time>2014-06-28T10:32:15.000Z</time>
      </trkpt>
      <trkpt lat="45.16946" lon="5.66921">
        <ele>579</ele>
        <time>2014-06-28T10:32:16.000Z</time>
      </trkpt>
      <trkpt lat="45.16945" lon="5.66922">
        <ele>579</ele>
        <time>2014-06-28T10:32:17.000Z</time>
      </trkpt>
      <trkpt lat="45.16944" lon="5.66924">
        <ele>578</ele>
        <time>2014-06-28T10:32:18.000Z</time>
      </trkpt>
      <trkpt lat="45.16943" lon="5.66925">
        <ele>578</ele>
        <time>2014-06-28T10:32:19.000Z</time>
      </trkpt>
      <trkpt lat="45.16942" lon="5.66926">
        <ele>578</ele>
        <time>2014-06-28T10:32:20.000Z</time>
      </trkpt>
      <trkpt lat="45.16941" lon="5.66928">
        <ele>577</ele>
        <time>2014-06-28T10:32:21.000Z</time>
      </trkpt>
      <trkpt lat="45.1694" lon="5.66929">
        <ele>577</ele>
        <time>2014-06-28T10:32:22.000Z</time>
      </trkpt>
      <trkpt lat="45.16939" lon="5.6693">
        <ele>577</ele>
        <time>2014-06-28T10:32:23.000Z</time>
      </trkpt>
      <trkpt lat="45.16938" lon="5.66932">
        <ele>576</ele>
        <time>2014-06-28T10:32:24.000Z</time>
      </trkpt>
      <trkpt lat="45.16936" lon="5.66933">
        <ele>576</ele>
        <time>2014-06-28T10:32:25.000Z</time>
      </trkpt>
      <trkpt lat="45.16935" lon="5.66934">
        <ele>576</ele>
        <time>2014-06-28T10:32:26.000Z</time>
      </trkpt>
      <trkpt lat="45.16934" lon="5.66935">
        <ele>575</ele>
        <time>2014-06-28T10:32:27.000Z</time>
      </trkpt>
      <trkpt lat="45.16933" lon="5.66936">
        <ele>575</ele>
        <time>2014-06-28T10:32:28.000Z</time>
      </trkpt>
      <trkpt lat="45.16932" lon="5.66937">
        <ele>575</ele>
        <time>2014-06-28T10:32:29.000Z</time>
      </trkpt>
      <trkpt lat="45.16932" lon="5.66939">
        <ele>574</ele>
        <time>2014-06-28T10:32:30.000Z</time>
      </trkpt>
      <trkpt lat="45.16932" lon="5.6694">
        <ele>574</ele>
        <time>2014-06-28T10:32:31.000Z</time>
      </trkpt>
      <trkpt lat="45.16932" lon="5.66941">
        <ele>573</ele>
        <time>2014-06-28T10:32:32.000Z</time>
      </trkpt>
      <trkpt lat="45.16932" lon="5.66943">
        <ele>573</ele>
        <time>2014-06-28T10:32:33.000Z</time>
      </trkpt>
      <trkpt lat="45.16933" lon="5.66945">
        <ele>573</ele>
        <time>2014-06-28T10:32:34.000Z</time>
      </trkpt>
      <trkpt lat="45.16933" lon="5.66946">
        <ele>572</ele>
        <time>2014-06-28T10:32:35.000Z</time>
      </trkpt>
      <trkpt lat="45.16934" lon="5.66947">
        <ele>572</ele>
        <time>2014-06-28T10:32:36.000Z</time>
      </trkpt>
      <trkpt lat="45.16935" lon="5.66948">
        <ele>572</ele>
        <time>2014-06-28T10:32:37.000Z</time>
      </trkpt>
      <trkpt lat="45.16936" lon="5.6695">
        <ele>571</ele>
        <time>2014-06-28T10:32:38.000Z</time>
      </trkpt>
      <trkpt lat="45.16938" lon="5.66951">
        <ele>571</ele>
        <time>2014-06-28T10:32:39.000Z</time>
      </trkpt>
      <trkpt lat="45.16939" lon="5.66952">
        <ele>571</ele>
        <time>2014-06-28T10:32:40.000Z</time>
      </trkpt>
      <trkpt lat="45.1694" lon="5.66953">
        <ele>571</ele>
        <time>2014-06-28T10:32:41.000Z</time>
      </trkpt>
      <trkpt lat="45.16941" lon="5.66954">
        <ele>570</ele>
        <time>2014-06-28T10:32:42.000Z</time>
      </trkpt>
      <trkpt lat="45.16942" lon="5.66955">
        <ele>570</ele>
        <time>2014-06-28T10:32:43.000Z</time>
      </trkpt>
      <trkpt lat="45.16943" lon="5.66956">
        <ele>570</ele>
        <time>2014-06-28T10:32:44.000Z</time>
      </trkpt>
      <trkpt lat="45.16944" lon="5.66957">
        <ele>570</ele>
        <time>2014-06-28T10:32:45.000Z</time>
      </trkpt>
      <trkpt lat="45.16944" lon="5.66958">
        <ele>570</ele>
        <time>2014-06-28T10:32:46.000Z</time>
      </trkpt>
      <trkpt lat="45.16945" lon="5.66959">
        <ele>569</ele>
        <time>2014-06-28T10:32:47.000Z</time>
      </trkpt>
      <trkpt lat="45.16945" lon="5.6696">
        <ele>569</ele>
        <time>2014-06-28T10:32:48.000Z</time>
      </trkpt>
      <trkpt lat="45.16946" lon="5.66962">
        <ele>569</ele>
        <time>2014-06-28T10:32:49.000Z</time>
      </trkpt>
      <trkpt lat="45.16946" lon="5.66964">
        <ele>569</ele>
        <time>2014-06-28T10:32:50.000Z</time>
      </trkpt>
      <trkpt lat="45.16946" lon="5.66965">
        <ele>568</ele>
        <time>2014-06-28T10:32:51.000Z</time>
      </trkpt>
      <trkpt lat="45.16944" lon="5.66967">
        <ele>568</ele>
        <time>2014-06-28T10:32:52.000Z</time>
      </trkpt>
      <trkpt lat="45.16942" lon="5.66968">
        <ele>568</ele>
        <time>2014-06-28T10:32:53.000Z</time>
      </trkpt>
      <trkpt lat="45.16939" lon="5.66969">
        <ele>567</ele>
        <time>2014-06-28T10:32:54.000Z</time>
      </trkpt>
      <trkpt lat="45.16936" lon="5.66971">
        <ele>567</ele>
        <time>2014-06-28T10:32:55.000Z</time>
      </trkpt>
      <trkpt lat="45.16933" lon="5.66972">
        <ele>567</ele>
        <time>2014-06-28T10:32:56.000Z</time>
      </trkpt>
      <trkpt lat="45.16931" lon="5.66974">
        <ele>566</ele>
        <time>2014-06-28T10:32:57.000Z</time>
      </trkpt>
      <trkpt lat="45.16928" lon="5.66975">
        <ele>566</ele>
        <time>2014-06-28T10:32:58.000Z</time>
      </trkpt>
      <trkpt lat="45.16926" lon="5.66977">
        <ele>565</ele>
        <time>2014-06-28T10:32:59.000Z</time>
      </trkpt>
      <trkpt lat="45.16923" lon="5.66978">
        <ele>565</ele>
        <time>2014-06-28T10:33:00.000Z</time>
      </trkpt>
      <trkpt lat="45.16921" lon="5.66979">
        <ele>565</ele>
        <time>2014-06-28T10:33:01.000Z</time>
      </trkpt>
      <trkpt lat="45.16919" lon="5.6698">
        <ele>564</ele>
        <time>2014-06-28T10:33:02.000Z</time>
      </trkpt>
      <trkpt lat="45.16917" lon="5.6698">
        <ele>564</ele>
        <time>2014-06-28T10:33:03.000Z</time>
      </trkpt>
      <trkpt lat="45.16914" lon="5.6698">
        <ele>564</ele>
        <time>2014-06-28T10:33:04.000Z</time>
      </trkpt>
      <trkpt lat="45.16912" lon="5.66981">
        <ele>564</ele>
        <time>2014-06-28T10:33:05.000Z</time>
      </trkpt>
      <trkpt lat="45.16911" lon="5.66981">
        <ele>563</ele>
        <time>2014-06-28T10:33:06.000Z</time>
      </trkpt>
      <trkpt lat="45.16909" lon="5.66981">
        <ele>563</ele>
        <time>2014-06-28T10:33:07.000Z</time>
      </trkpt>
      <trkpt lat="45.16907" lon="5.66981">
        <ele>563</ele>
        <time>2014-06-28T10:33:08.000Z</time>
      </trkpt>
      <trkpt lat="45.16905" lon="5.6698">
        <ele>562</ele>
        <time>2014-06-28T10:33:09.000Z</time>
      </trkpt>
      <trkpt lat="45.16903" lon="5.66978">
        <ele>562</ele>
        <time>2014-06-28T10:33:10.000Z</time>
      </trkpt>
      <trkpt lat="45.16901" lon="5.66978">
        <ele>562</ele>
        <time>2014-06-28T10:33:11.000Z</time>
      </trkpt>
      <trkpt lat="45.16899" lon="5.66977">
        <ele>561</ele>
        <time>2014-06-28T10:33:12.000Z</time>
      </trkpt>
      <trkpt lat="45.16897" lon="5.66976">
        <ele>561</ele>
        <time>2014-06-28T10:33:13.000Z</time>
      </trkpt>
      <trkpt lat="45.16895" lon="5.66976">
        <ele>561</ele>
        <time>2014-06-28T10:33:14.000Z</time>
      </trkpt>
      <trkpt lat="45.16892" lon="5.66975">
        <ele>560</ele>
        <time>2014-06-28T10:33:15.000Z</time>
      </trkpt>
      <trkpt lat="45.1689" lon="5.66975">
        <ele>560</ele>
        <time>2014-06-28T10:33:16.000Z</time>
      </trkpt>
      <trkpt lat="45.16888" lon="5.66975">
        <ele>559</ele>
        <time>2014-06-28T10:33:17.000Z</time>
      </trkpt>
      <trkpt lat="45.16886" lon="5.66975">
        <ele>559</ele>
        <time>2014-06-28T10:33:18.000Z</time>
      </trkpt>
      <trkpt lat="45.16884" lon="5.66975">
        <ele>559</ele>
        <time>2014-06-28T10:33:19.000Z</time>
      </trkpt>
      <trkpt lat="45.16881" lon="5.66976">
        <ele>558</ele>
        <time>2014-06-28T10:33:20.000Z</time>
      </trkpt>
      <trkpt lat="45.16879" lon="5.66976">
        <ele>558</ele>
        <time>2014-06-28T10:33:21.000Z</time>
      </trkpt>
      <trkpt lat="45.16877" lon="5.66977">
        <ele>558</ele>
        <time>2014-06-28T10:33:22.000Z</time>
      </trkpt>
      <trkpt lat="45.16875" lon="5.66978">
        <ele>557</ele>
        <time>2014-06-28T10:33:23.000Z</time>
      </trkpt>
      <trkpt lat="45.16873" lon="5.66978">
        <ele>557</ele>
        <time>2014-06-28T10:33:24.000Z</time>
      </trkpt>
      <trkpt lat="45.1687" lon="5.66979">
        <ele>556</ele>
        <time>2014-06-28T10:33:25.000Z</time>
      </trkpt>
      <trkpt lat="45.16867" lon="5.6698">
        <ele>555</ele>
        <time>2014-06-28T10:33:26.000Z</time>
      </trkpt>
      <trkpt lat="45.16865" lon="5.66981">
        <ele>555</ele>
        <time>2014-06-28T10:33:27.000Z</time>
      </trkpt>
      <trkpt lat="45.16862" lon="5.66981">
        <ele>554</ele>
        <time>2014-06-28T10:33:28.000Z</time>
      </trkpt>
      <trkpt lat="45.1686" lon="5.66982">
        <ele>554</ele>
        <time>2014-06-28T10:33:29.000Z</time>
      </trkpt>
      <trkpt lat="45.16858" lon="5.66982">
        <ele>553</ele>
        <time>2014-06-28T10:33:30.000Z</time>
      </trkpt>
      <trkpt lat="45.16856" lon="5.66982">
        <ele>552</ele>
        <time>2014-06-28T10:33:31.000Z</time>
      </trkpt>
      <trkpt lat="45.16854" lon="5.66982">
        <ele>552</ele>
        <time>2014-06-28T10:33:32.000Z</time>
      </trkpt>
      <trkpt lat="45.16852" lon="5.66981">
        <ele>551</ele>
        <time>2014-06-28T10:33:33.000Z</time>
      </trkpt>
      <trkpt lat="45.1685" lon="5.6698">
        <ele>551</ele>
        <time>2014-06-28T10:33:34.000Z</time>
      </trkpt>
      <trkpt lat="45.16848" lon="5.66978">
        <ele>550</ele>
        <time>2014-06-28T10:33:35.000Z</time>
      </trkpt>
      <trkpt lat="45.16847" lon="5.66977">
        <ele>550</ele>
        <time>2014-06-28T10:33:36.000Z</time>
      </trkpt>
      <trkpt lat="45.16844" lon="5.66976">
        <ele>549</ele>
        <time>2014-06-28T10:33:37.000Z</time>
      </trkpt>
      <trkpt lat="45.16842" lon="5.66975">
        <ele>549</ele>
        <time>2014-06-28T10:33:38.000Z</time>
      </trkpt>
      <trkpt lat="45.1684" lon="5.66974">
        <ele>548</ele>
        <time>2014-06-28T10:33:39.000Z</time>
      </trkpt>
      <trkpt lat="45.16838" lon="5.66973">
        <ele>548</ele>
        <time>2014-06-28T10:33:40.000Z</time>
      </trkpt>
      <trkpt lat="45.16836" lon="5.66972">
        <ele>547</ele>
        <time>2014-06-28T10:33:41.000Z</time>
      </trkpt>
      <trkpt lat="45.16834" lon="5.66971">
        <ele>547</ele>
        <time>2014-06-28T10:33:42.000Z</time>
      </trkpt>
      <trkpt lat="45.16832" lon="5.6697">
        <ele>547</ele>
        <time>2014-06-28T10:33:43.000Z</time>
      </trkpt>
      <trkpt lat="45.16831" lon="5.66969">
        <ele>546</ele>
        <time>2014-06-28T10:33:44.000Z</time>
      </trkpt>
      <trkpt lat="45.16829" lon="5.66968">
        <ele>546</ele>
        <time>2014-06-28T10:33:45.000Z</time>
      </trkpt>
      <trkpt lat="45.16827" lon="5.66967">
        <ele>546</ele>
        <time>2014-06-28T10:33:46.000Z</time>
      </trkpt>
      <trkpt lat="45.16825" lon="5.66965">
        <ele>546</ele>
        <time>2014-06-28T10:33:47.000Z</time>
      </trkpt>
      <trkpt lat="45.16823" lon="5.66964">
        <ele>545</ele>
        <time>2014-06-28T10:33:48.000Z</time>
      </trkpt>
      <trkpt lat="45.1682" lon="5.66963">
        <ele>545</ele>
        <time>2014-06-28T10:33:49.000Z</time>
      </trkpt>
      <trkpt lat="45.16818" lon="5.66961">
        <ele>545</ele>
        <time>2014-06-28T10:33:50.000Z</time>
      </trkpt>
      <trkpt lat="45.16816" lon="5.66959">
        <ele>544</ele>
        <time>2014-06-28T10:33:51.000Z</time>
      </trkpt>
      <trkpt lat="45.16814" lon="5.66957">
        <ele>544</ele>
        <time>2014-06-28T10:33:52.000Z</time>
      </trkpt>
      <trkpt lat="45.16812" lon="5.66956">
        <ele>544</ele>
        <time>2014-06-28T10:33:53.000Z</time>
      </trkpt>
      <trkpt lat="45.1681" lon="5.66955">
        <ele>544</ele>
        <time>2014-06-28T10:33:54.000Z</time>
      </trkpt>
      <trkpt lat="45.16807" lon="5.66954">
        <ele>543</ele>
        <time>2014-06-28T10:33:55.000Z</time>
      </trkpt>
      <trkpt lat="45.16805" lon="5.66953">
        <ele>543</ele>
        <time>2014-06-28T10:33:56.000Z</time>
      </trkpt>
      <trkpt lat="45.16803" lon="5.66953">
        <ele>543</ele>
        <time>2014-06-28T10:33:57.000Z</time>
      </trkpt>
      <trkpt lat="45.16802" lon="5.66952">
        <ele>543</ele>
        <time>2014-06-28T10:33:58.000Z</time>
      </trkpt>
      <trkpt lat="45.168" lon="5.66952">
        <ele>542</ele>
        <time>2014-06-28T10:33:59.000Z</time>
      </trkpt>
      <trkpt lat="45.16799" lon="5.66952">
        <ele>542</ele>
        <time>2014-06-28T10:34:00.000Z</time>
      </trkpt>
      <trkpt lat="45.16797" lon="5.66952">
        <ele>542</ele>
        <time>2014-06-28T10:34:01.000Z</time>
      </trkpt>
      <trkpt lat="45.16795" lon="5.66952">
        <ele>542</ele>
        <time>2014-06-28T10:34:02.000Z</time>
      </trkpt>
      <trkpt lat="45.16793" lon="5.66953">
        <ele>541</ele>
        <time>2014-06-28T10:34:03.000Z</time>
      </trkpt>
      <trkpt lat="45.16791" lon="5.66953">
        <ele>541</ele>
        <time>2014-06-28T10:34:04.000Z</time>
      </trkpt>
      <trkpt lat="45.16789" lon="5.66953">
        <ele>541</ele>
        <time>2014-06-28T10:34:05.000Z</time>
      </trkpt>
      <trkpt lat="45.16787" lon="5.66954">
        <ele>541</ele>
        <time>2014-06-28T10:34:06.000Z</time>
      </trkpt>
      <trkpt lat="45.16785" lon="5.66955">
        <ele>540</ele>
        <time>2014-06-28T10:34:07.000Z</time>
      </trkpt>
      <trkpt lat="45.16782" lon="5.66956">
        <ele>540</ele>
        <time>2014-06-28T10:34:08.000Z</time>
      </trkpt>
      <trkpt lat="45.1678" lon="5.66957">
        <ele>540</ele>
        <time>2014-06-28T10:34:09.000Z</time>
      </trkpt>
      <trkpt lat="45.16777" lon="5.66959">
        <ele>539</ele>
        <time>2014-06-28T10:34:10.000Z</time>
      </trkpt>
      <trkpt lat="45.16775" lon="5.66961">
        <ele>539</ele>
        <time>2014-06-28T10:34:11.000Z</time>
      </trkpt>
      <trkpt lat="45.16772" lon="5.66963">
        <ele>539</ele>
        <time>2014-06-28T10:34:12.000Z</time>
      </trkpt>
      <trkpt lat="45.1677" lon="5.66966">
        <ele>538</ele>
        <time>2014-06-28T10:34:13.000Z</time>
      </trkpt>
      <trkpt lat="45.16768" lon="5.66969">
        <ele>538</ele>
        <time>2014-06-28T10:34:14.000Z</time>
      </trkpt>
      <trkpt lat="45.16766" lon="5.66972">
        <ele>538</ele>
        <time>2014-06-28T10:34:15.000Z</time>
      </trkpt>
      <trkpt lat="45.16765" lon="5.66975">
        <ele>537</ele>
        <time>2014-06-28T10:34:16.000Z</time>
      </trkpt>
      <trkpt lat="45.16765" lon="5.66977">
        <ele>537</ele>
        <time>2014-06-28T10:34:17.000Z</time>
      </trkpt>
      <trkpt lat="45.16765" lon="5.66979">
        <ele>537</ele>
        <time>2014-06-28T10:34:18.000Z</time>
      </trkpt>
      <trkpt lat="45.16766" lon="5.66981">
        <ele>536</ele>
        <time>2014-06-28T10:34:19.000Z</time>
      </trkpt>
      <trkpt lat="45.16768" lon="5.66981">
        <ele>536</ele>
        <time>2014-06-28T10:34:20.000Z</time>
      </trkpt>
      <trkpt lat="45.1677" lon="5.66982">
        <ele>535</ele>
        <time>2014-06-28T10:34:21.000Z</time>
      </trkpt>
      <trkpt lat="45.16772" lon="5.66983">
        <ele>535</ele>
        <time>2014-06-28T10:34:22.000Z</time>
      </trkpt>
      <trkpt lat="45.16774" lon="5.66983">
        <ele>534</ele>
        <time>2014-06-28T10:34:23.000Z</time>
      </trkpt>
      <trkpt lat="45.16777" lon="5.66984">
        <ele>534</ele>
        <time>2014-06-28T10:34:24.000Z</time>
      </trkpt>
      <trkpt lat="45.1678" lon="5.66985">
        <ele>534</ele>
        <time>2014-06-28T10:34:25.000Z</time>
      </trkpt>
      <trkpt lat="45.16784" lon="5.66986">
        <ele>533</ele>
        <time>2014-06-28T10:34:26.000Z</time>
      </trkpt>
      <trkpt lat="45.16787" lon="5.66986">
        <ele>533</ele>
        <time>2014-06-28T10:34:27.000Z</time>
      </trkpt>
      <trkpt lat="45.1679" lon="5.66986">
        <ele>533</ele>
        <time>2014-06-28T10:34:28.000Z</time>
      </trkpt>
      <trkpt lat="45.16793" lon="5.66985">
        <ele>533</ele>
        <time>2014-06-28T10:34:29.000Z</time>
      </trkpt>
      <trkpt lat="45.16797" lon="5.66985">
        <ele>532</ele>
        <time>2014-06-28T10:34:30.000Z</time>
      </trkpt>
      <trkpt lat="45.168" lon="5.66986">
        <ele>532</ele>
        <time>2014-06-28T10:34:31.000Z</time>
      </trkpt>
      <trkpt lat="45.16804" lon="5.66986">
        <ele>532</ele>
        <time>2014-06-28T10:34:32.000Z</time>
      </trkpt>
      <trkpt lat="45.16807" lon="5.66988">
        <ele>531</ele>
        <time>2014-06-28T10:34:33.000Z</time>
      </trkpt>
      <trkpt lat="45.1681" lon="5.6699">
        <ele>531</ele>
        <time>2014-06-28T10:34:34.000Z</time>
      </trkpt>
      <trkpt lat="45.16813" lon="5.66992">
        <ele>531</ele>
        <time>2014-06-28T10:34:35.000Z</time>
      </trkpt>
      <trkpt lat="45.16817" lon="5.66993">
        <ele>530</ele>
        <time>2014-06-28T10:34:36.000Z</time>
      </trkpt>
      <trkpt lat="45.1682" lon="5.66995">
        <ele>530</ele>
        <time>2014-06-28T10:34:37.000Z</time>
      </trkpt>
      <trkpt lat="45.16824" lon="5.66996">
        <ele>529</ele>
        <time>2014-06-28T10:34:38.000Z</time>
      </trkpt>
      <trkpt lat="45.16828" lon="5.66997">
        <ele>529</ele>
        <time>2014-06-28T10:34:39.000Z</time>
      </trkpt>
      <trkpt lat="45.16832" lon="5.66998">
        <ele>529</ele>
        <time>2014-06-28T10:34:40.000Z</time>
      </trkpt>
      <trkpt lat="45.16836" lon="5.66999">
        <ele>528</ele>
        <time>2014-06-28T10:34:41.000Z</time>
      </trkpt>
      <trkpt lat="45.1684" lon="5.67">
        <ele>528</ele>
        <time>2014-06-28T10:34:42.000Z</time>
      </trkpt>
      <trkpt lat="45.16843" lon="5.67002">
        <ele>527</ele>
        <time>2014-06-28T10:34:43.000Z</time>
      </trkpt>
      <trkpt lat="45.16846" lon="5.67004">
        <ele>527</ele>
        <time>2014-06-28T10:34:44.000Z</time>
      </trkpt>
      <trkpt lat="45.16849" lon="5.67006">
        <ele>526</ele>
        <time>2014-06-28T10:34:45.000Z</time>
      </trkpt>
      <trkpt lat="45.16851" lon="5.67008">
        <ele>526</ele>
        <time>2014-06-28T10:34:46.000Z</time>
      </trkpt>
      <trkpt lat="45.16853" lon="5.6701">
        <ele>526</ele>
        <time>2014-06-28T10:34:47.000Z</time>
      </trkpt>
      <trkpt lat="45.16855" lon="5.67013">
        <ele>525</ele>
        <time>2014-06-28T10:34:48.000Z</time>
      </trkpt>
      <trkpt lat="45.16857" lon="5.67016">
        <ele>525</ele>
        <time>2014-06-28T10:34:49.000Z</time>
      </trkpt>
      <trkpt lat="45.16859" lon="5.67019">
        <ele>524</ele>
        <time>2014-06-28T10:34:50.000Z</time>
      </trkpt>
      <trkpt lat="45.1686" lon="5.67022">
        <ele>524</ele>
        <time>2014-06-28T10:34:51.000Z</time>
      </trkpt>
      <trkpt lat="45.16862" lon="5.67025">
        <ele>524</ele>
        <time>2014-06-28T10:34:52.000Z</time>
      </trkpt>
      <trkpt lat="45.16863" lon="5.67028">
        <ele>523</ele>
        <time>2014-06-28T10:34:53.000Z</time>
      </trkpt>
      <trkpt lat="45.16864" lon="5.67031">
        <ele>523</ele>
        <time>2014-06-28T10:34:54.000Z</time>
      </trkpt>
      <trkpt lat="45.16865" lon="5.67035">
        <ele>522</ele>
        <time>2014-06-28T10:34:55.000Z</time>
      </trkpt>
      <trkpt lat="45.16866" lon="5.67039">
        <ele>522</ele>
        <time>2014-06-28T10:34:56.000Z</time>
      </trkpt>
      <trkpt lat="45.16867" lon="5.67043">
        <ele>522</ele>
        <time>2014-06-28T10:34:57.000Z</time>
      </trkpt>
      <trkpt lat="45.16868" lon="5.67046">
        <ele>521</ele>
        <time>2014-06-28T10:34:58.000Z</time>
      </trkpt>
      <trkpt lat="45.1687" lon="5.67049">
        <ele>521</ele>
        <time>2014-06-28T10:34:59.000Z</time>
      </trkpt>
      <trkpt lat="45.16872" lon="5.67053">
        <ele>521</ele>
        <time>2014-06-28T10:35:00.000Z</time>
      </trkpt>
      <trkpt lat="45.16874" lon="5.67056">
        <ele>520</ele>
        <time>2014-06-28T10:35:01.000Z</time>
      </trkpt>
      <trkpt lat="45.16876" lon="5.67059">
        <ele>520</ele>
        <time>2014-06-28T10:35:02.000Z</time>
      </trkpt>
      <trkpt lat="45.16878" lon="5.67063">
        <ele>520</ele>
        <time>2014-06-28T10:35:03.000Z</time>
      </trkpt>
      <trkpt lat="45.16881" lon="5.67066">
        <ele>519</ele>
        <time>2014-06-28T10:35:04.000Z</time>
      </trkpt>
      <trkpt lat="45.16883" lon="5.67069">
        <ele>519</ele>
        <time>2014-06-28T10:35:05.000Z</time>
      </trkpt>
      <trkpt lat="45.16885" lon="5.67072">
        <ele>519</ele>
        <time>2014-06-28T10:35:06.000Z</time>
      </trkpt>
      <trkpt lat="45.16888" lon="5.67074">
        <ele>518</ele>
        <time>2014-06-28T10:35:07.000Z</time>
      </trkpt>
      <trkpt lat="45.1689" lon="5.67076">
        <ele>518</ele>
        <time>2014-06-28T10:35:08.000Z</time>
      </trkpt>
      <trkpt lat="45.16891" lon="5.67078">
        <ele>518</ele>
        <time>2014-06-28T10:35:09.000Z</time>
      </trkpt>
      <trkpt lat="45.16893" lon="5.6708">
        <ele>518</ele>
        <time>2014-06-28T10:35:10.000Z</time>
      </trkpt>
      <trkpt lat="45.16895" lon="5.67082">
        <ele>517</ele>
        <time>2014-06-28T10:35:11.000Z</time>
      </trkpt>
      <trkpt lat="45.16897" lon="5.67083">
        <ele>517</ele>
        <time>2014-06-28T10:35:12.000Z</time>
      </trkpt>
      <trkpt lat="45.16899" lon="5.67085">
        <ele>517</ele>
        <time>2014-06-28T10:35:13.000Z</time>
      </trkpt>
      <trkpt lat="45.16901" lon="5.67086">
        <ele>516</ele>
        <time>2014-06-28T10:35:14.000Z</time>
      </trkpt>
      <trkpt lat="45.16903" lon="5.67088">
        <ele>516</ele>
        <time>2014-06-28T10:35:15.000Z</time>
      </trkpt>
      <trkpt lat="45.16905" lon="5.6709">
        <ele>515</ele>
        <time>2014-06-28T10:35:16.000Z</time>
      </trkpt>
      <trkpt lat="45.16907" lon="5.67091">
        <ele>515</ele>
        <time>2014-06-28T10:35:17.000Z</time>
      </trkpt>
      <trkpt lat="45.16909" lon="5.67093">
        <ele>514</ele>
        <time>2014-06-28T10:35:18.000Z</time>
      </trkpt>
      <trkpt lat="45.16912" lon="5.67094">
        <ele>514</ele>
        <time>2014-06-28T10:35:19.000Z</time>
      </trkpt>
      <trkpt lat="45.16914" lon="5.67096">
        <ele>513</ele>
        <time>2014-06-28T10:35:20.000Z</time>
      </trkpt>
      <trkpt lat="45.16916" lon="5.67098">
        <ele>513</ele>
        <time>2014-06-28T10:35:21.000Z</time>
      </trkpt>
      <trkpt lat="45.16918" lon="5.671">
        <ele>513</ele>
        <time>2014-06-28T10:35:22.000Z</time>
      </trkpt>
      <trkpt lat="45.1692" lon="5.67102">
        <ele>512</ele>
        <time>2014-06-28T10:35:23.000Z</time>
      </trkpt>
      <trkpt lat="45.16922" lon="5.67104">
        <ele>512</ele>
        <time>2014-06-28T10:35:24.000Z</time>
      </trkpt>
      <trkpt lat="45.16923" lon="5.67106">
        <ele>512</ele>
        <time>2014-06-28T10:35:25.000Z</time>
      </trkpt>
      <trkpt lat="45.16925" lon="5.67108">
        <ele>511</ele>
        <time>2014-06-28T10:35:26.000Z</time>
      </trkpt>
      <trkpt lat="45.16927" lon="5.67111">
        <ele>511</ele>
        <time>2014-06-28T10:35:27.000Z</time>
      </trkpt>
      <trkpt lat="45.16929" lon="5.67113">
        <ele>511</ele>
        <time>2014-06-28T10:35:28.000Z</time>
      </trkpt>
      <trkpt lat="45.16931" lon="5.67115">
        <ele>510</ele>
        <time>2014-06-28T10:35:29.000Z</time>
      </trkpt>
      <trkpt lat="45.16933" lon="5.67117">
        <ele>510</ele>
        <time>2014-06-28T10:35:30.000Z</time>
      </trkpt>
      <trkpt lat="45.16935" lon="5.67119">
        <ele>510</ele>
        <time>2014-06-28T10:35:31.000Z</time>
      </trkpt>
      <trkpt lat="45.16937" lon="5.6712">
        <ele>509</ele>
        <time>2014-06-28T10:35:32.000Z</time>
      </trkpt>
      <trkpt lat="45.16939" lon="5.67122">
        <ele>509</ele>
        <time>2014-06-28T10:35:33.000Z</time>
      </trkpt>
      <trkpt lat="45.16941" lon="5.67124">
        <ele>509</ele>
        <time>2014-06-28T10:35:34.000Z</time>
      </trkpt>
      <trkpt lat="45.16943" lon="5.67126">
        <ele>508</ele>
        <time>2014-06-28T10:35:35.000Z</time>
      </trkpt>
      <trkpt lat="45.16945" lon="5.67128">
        <ele>508</ele>
        <time>2014-06-28T10:35:36.000Z</time>
      </trkpt>
      <trkpt lat="45.16947" lon="5.6713">
        <ele>508</ele>
        <time>2014-06-28T10:35:37.000Z</time>
      </trkpt>
      <trkpt lat="45.16949" lon="5.67131">
        <ele>507</ele>
        <time>2014-06-28T10:35:38.000Z</time>
      </trkpt>
      <trkpt lat="45.16951" lon="5.67133">
        <ele>507</ele>
        <time>2014-06-28T10:35:39.000Z</time>
      </trkpt>
      <trkpt lat="45.16953" lon="5.67134">
        <ele>506</ele>
        <time>2014-06-28T10:35:40.000Z</time>
      </trkpt>
      <trkpt lat="45.16955" lon="5.67136">
        <ele>506</ele>
        <time>2014-06-28T10:35:41.000Z</time>
      </trkpt>
      <trkpt lat="45.16957" lon="5.67138">
        <ele>506</ele>
        <time>2014-06-28T10:35:42.000Z</time>
      </trkpt>
      <trkpt lat="45.16959" lon="5.67139">
        <ele>505</ele>
        <time>2014-06-28T10:35:43.000Z</time>
      </trkpt>
      <trkpt lat="45.16961" lon="5.6714">
        <ele>505</ele>
        <time>2014-06-28T10:35:44.000Z</time>
      </trkpt>
      <trkpt lat="45.16963" lon="5.67142">
        <ele>505</ele>
        <time>2014-06-28T10:35:45.000Z</time>
      </trkpt>
      <trkpt lat="45.16966" lon="5.67143">
        <ele>504</ele>
        <time>2014-06-28T10:35:46.000Z</time>
      </trkpt>
      <trkpt lat="45.16969" lon="5.67144">
        <ele>504</ele>
        <time>2014-06-28T10:35:47.000Z</time>
      </trkpt>
      <trkpt lat="45.16972" lon="5.67145">
        <ele>503</ele>
        <time>2014-06-28T10:35:48.000Z</time>
      </trkpt>
      <trkpt lat="45.16974" lon="5.67146">
        <ele>503</ele>
        <time>2014-06-28T10:35:49.000Z</time>
      </trkpt>
      <trkpt lat="45.16977" lon="5.67147">
        <ele>503</ele>
        <time>2014-06-28T10:35:50.000Z</time>
      </trkpt>
      <trkpt lat="45.1698" lon="5.67147">
        <ele>502</ele>
        <time>2014-06-28T10:35:51.000Z</time>
      </trkpt>
      <trkpt lat="45.16982" lon="5.67147">
        <ele>502</ele>
        <time>2014-06-28T10:35:52.000Z</time>
      </trkpt>
      <trkpt lat="45.16985" lon="5.67146">
        <ele>502</ele>
        <time>2014-06-28T10:35:53.000Z</time>
      </trkpt>
      <trkpt lat="45.16987" lon="5.67145">
        <ele>501</ele>
        <time>2014-06-28T10:35:54.000Z</time>
      </trkpt>
      <trkpt lat="45.1699" lon="5.67144">
        <ele>501</ele>
        <time>2014-06-28T10:35:55.000Z</time>
      </trkpt>
      <trkpt lat="45.16993" lon="5.67143">
        <ele>501</ele>
        <time>2014-06-28T10:35:56.000Z</time>
      </trkpt>
      <trkpt lat="45.16996" lon="5.67141">
        <ele>500</ele>
        <time>2014-06-28T10:35:57.000Z</time>
      </trkpt>
      <trkpt lat="45.17" lon="5.6714">
        <ele>500</ele>
        <time>2014-06-28T10:35:58.000Z</time>
      </trkpt>
      <trkpt lat="45.17003" lon="5.67139">
        <ele>500</ele>
        <time>2014-06-28T10:35:59.000Z</time>
      </trkpt>
      <trkpt lat="45.17006" lon="5.67138">
        <ele>499</ele>
        <time>2014-06-28T10:36:00.000Z</time>
      </trkpt>
      <trkpt lat="45.17009" lon="5.67137">
        <ele>499</ele>
        <time>2014-06-28T10:36:01.000Z</time>
      </trkpt>
      <trkpt lat="45.17012" lon="5.67136">
        <ele>498</ele>
        <time>2014-06-28T10:36:02.000Z</time>
      </trkpt>
      <trkpt lat="45.17014" lon="5.67136">
        <ele>498</ele>
        <time>2014-06-28T10:36:03.000Z</time>
      </trkpt>
      <trkpt lat="45.17017" lon="5.67135">
        <ele>498</ele>
        <time>2014-06-28T10:36:04.000Z</time>
      </trkpt>
      <trkpt lat="45.1702" lon="5.67135">
        <ele>497</ele>
        <time>2014-06-28T10:36:05.000Z</time>
      </trkpt>
      <trkpt lat="45.17023" lon="5.67134">
        <ele>497</ele>
        <time>2014-06-28T10:36:06.000Z</time>
      </trkpt>
      <trkpt lat="45.17025" lon="5.67134">
        <ele>496</ele>
        <time>2014-06-28T10:36:07.000Z</time>
      </trkpt>
      <trkpt lat="45.17027" lon="5.67134">
        <ele>496</ele>
        <time>2014-06-28T10:36:08.000Z</time>
      </trkpt>
      <trkpt lat="45.1703" lon="5.67135">
        <ele>495</ele>
        <time>2014-06-28T10:36:09.000Z</time>
      </trkpt>
      <trkpt lat="45.17034" lon="5.67135">
        <ele>495</ele>
        <time>2014-06-28T10:36:10.000Z</time>
      </trkpt>
      <trkpt lat="45.17037" lon="5.67136">
        <ele>495</ele>
        <time>2014-06-28T10:36:11.000Z</time>
      </trkpt>
      <trkpt lat="45.1704" lon="5.67136">
        <ele>494</ele>
        <time>2014-06-28T10:36:12.000Z</time>
      </trkpt>
      <trkpt lat="45.17043" lon="5.67136">
        <ele>494</ele>
        <time>2014-06-28T10:36:13.000Z</time>
      </trkpt>
      <trkpt lat="45.17046" lon="5.67135">
        <ele>494</ele>
        <time>2014-06-28T10:36:14.000Z</time>
      </trkpt>
      <trkpt lat="45.17048" lon="5.67135">
        <ele>493</ele>
        <time>2014-06-28T10:36:15.000Z</time>
      </trkpt>
      <trkpt lat="45.17049" lon="5.67135">
        <ele>493</ele>
        <time>2014-06-28T10:36:16.000Z</time>
      </trkpt>
      <trkpt lat="45.17049" lon="5.67135">
        <ele>493</ele>
        <time>2014-06-28T10:36:17.000Z</time>
      </trkpt>
      <trkpt lat="45.17048" lon="5.67134">
        <ele>492</ele>
        <time>2014-06-28T10:36:18.000Z</time>
      </trkpt>
      <trkpt lat="45.17046" lon="5.67135">
        <ele>492</ele>
        <time>2014-06-28T10:36:19.000Z</time>
      </trkpt>
      <trkpt lat="45.17044" lon="5.67136">
        <ele>491</ele>
        <time>2014-06-28T10:36:20.000Z</time>
      </trkpt>
      <trkpt lat="45.17042" lon="5.67137">
        <ele>491</ele>
        <time>2014-06-28T10:36:21.000Z</time>
      </trkpt>
      <trkpt lat="45.17039" lon="5.67138">
        <ele>490</ele>
        <time>2014-06-28T10:36:22.000Z</time>
      </trkpt>
      <trkpt lat="45.17035" lon="5.6714">
        <ele>490</ele>
        <time>2014-06-28T10:36:23.000Z</time>
      </trkpt>
      <trkpt lat="45.17032" lon="5.67141">
        <ele>489</ele>
        <time>2014-06-28T10:36:24.000Z</time>
      </trkpt>
      <trkpt lat="45.17029" lon="5.67144">
        <ele>488</ele>
        <time>2014-06-28T10:36:25.000Z</time>
      </trkpt>
      <trkpt lat="45.17025" lon="5.67146">
        <ele>488</ele>
        <time>2014-06-28T10:36:26.000Z</time>
      </trkpt>
      <trkpt lat="45.17022" lon="5.67148">
        <ele>487</ele>
        <time>2014-06-28T10:36:27.000Z</time>
      </trkpt>
      <trkpt lat="45.17018" lon="5.6715">
        <ele>486</ele>
        <time>2014-06-28T10:36:28.000Z</time>
      </trkpt>
      <trkpt lat="45.17015" lon="5.67152">
        <ele>486</ele>
        <time>2014-06-28T10:36:29.000Z</time>
      </trkpt>
      <trkpt lat="45.17012" lon="5.67154">
        <ele>485</ele>
        <time>2014-06-28T10:36:30.000Z</time>
      </trkpt>
      <trkpt lat="45.17009" lon="5.67156">
        <ele>485</ele>
        <time>2014-06-28T10:36:31.000Z</time>
      </trkpt>
      <trkpt lat="45.17007" lon="5.67158">
        <ele>484</ele>
        <time>2014-06-28T10:36:32.000Z</time>
      </trkpt>
      <trkpt lat="45.17005" lon="5.67161">
        <ele>483</ele>
        <time>2014-06-28T10:36:33.000Z</time>
      </trkpt>
      <trkpt lat="45.17002" lon="5.67164">
        <ele>483</ele>
        <time>2014-06-28T10:36:34.000Z</time>
      </trkpt>
      <trkpt lat="45.17" lon="5.67167">
        <ele>482</ele>
        <time>2014-06-28T10:36:35.000Z</time>
      </trkpt>
      <trkpt lat="45.16998" lon="5.67171">
        <ele>482</ele>
        <time>2014-06-28T10:36:36.000Z</time>
      </trkpt>
      <trkpt lat="45.16996" lon="5.67175">
        <ele>481</ele>
        <time>2014-06-28T10:36:37.000Z</time>
      </trkpt>
      <trkpt lat="45.16994" lon="5.67179">
        <ele>480</ele>
        <time>2014-06-28T10:36:38.000Z</time>
      </trkpt>
      <trkpt lat="45.16992" lon="5.67183">
        <ele>480</ele>
        <time>2014-06-28T10:36:39.000Z</time>
      </trkpt>
      <trkpt lat="45.1699" lon="5.67187">
        <ele>479</ele>
        <time>2014-06-28T10:36:40.000Z</time>
      </trkpt>
      <trkpt lat="45.16988" lon="5.67191">
        <ele>478</ele>
        <time>2014-06-28T10:36:41.000Z</time>
      </trkpt>
      <trkpt lat="45.16986" lon="5.67195">
        <ele>478</ele>
        <time>2014-06-28T10:36:42.000Z</time>
      </trkpt>
      <trkpt lat="45.16985" lon="5.672">
        <ele>477</ele>
        <time>2014-06-28T10:36:43.000Z</time>
      </trkpt>
      <trkpt lat="45.16984" lon="5.67204">
        <ele>477</ele>
        <time>2014-06-28T10:36:44.000Z</time>
      </trkpt>
      <trkpt lat="45.16983" lon="5.67209">
        <ele>476</ele>
        <time>2014-06-28T10:36:45.000Z</time>
      </trkpt>
      <trkpt lat="45.16982" lon="5.67214">
        <ele>476</ele>
        <time>2014-06-28T10:36:46.000Z</time>
      </trkpt>
      <trkpt lat="45.16982" lon="5.67218">
        <ele>475</ele>
        <time>2014-06-28T10:36:47.000Z</time>
      </trkpt>
      <trkpt lat="45.16982" lon="5.67222">
        <ele>475</ele>
        <time>2014-06-28T10:36:48.000Z</time>
      </trkpt>
      <trkpt lat="45.16982" lon="5.67226">
        <ele>474</ele>
        <time>2014-06-28T10:36:49.000Z</time>
      </trkpt>
      <trkpt lat="45.16983" lon="5.6723">
        <ele>474</ele>
        <time>2014-06-28T10:36:50.000Z</time>
      </trkpt>
      <trkpt lat="45.16984" lon="5.67234">
        <ele>473</ele>
        <time>2014-06-28T10:36:51.000Z</time>
      </trkpt>
      <trkpt lat="45.16985" lon="5.67237">
        <ele>473</ele>
        <time>2014-06-28T10:36:52.000Z</time>
      </trkpt>
      <trkpt lat="45.16986" lon="5.6724">
        <ele>472</ele>
        <time>2014-06-28T10:36:53.000Z</time>
      </trkpt>
      <trkpt lat="45.16988" lon="5.67244">
        <ele>471</ele>
        <time>2014-06-28T10:36:54.000Z</time>
      </trkpt>
      <trkpt lat="45.1699" lon="5.67247">
        <ele>470</ele>
        <time>2014-06-28T10:36:55.000Z</time>
      </trkpt>
      <trkpt lat="45.16992" lon="5.6725">
        <ele>470</ele>
        <time>2014-06-28T10:36:56.000Z</time>
      </trkpt>
      <trkpt lat="45.16994" lon="5.67253">
        <ele>469</ele>
        <time>2014-06-28T10:36:57.000Z</time>
      </trkpt>
      <trkpt lat="45.16996" lon="5.67255">
        <ele>469</ele>
        <time>2014-06-28T10:36:58.000Z</time>
      </trkpt>
      <trkpt lat="45.16999" lon="5.67258">
        <ele>468</ele>
        <time>2014-06-28T10:36:59.000Z</time>
      </trkpt>
      <trkpt lat="45.17001" lon="5.67261">
        <ele>468</ele>
        <time>2014-06-28T10:37:00.000Z</time>
      </trkpt>
      <trkpt lat="45.17003" lon="5.67264">
        <ele>467</ele>
        <time>2014-06-28T10:37:01.000Z</time>
      </trkpt>
      <trkpt lat="45.17006" lon="5.67266">
        <ele>467</ele>
        <time>2014-06-28T10:37:02.000Z</time>
      </trkpt>
      <trkpt lat="45.17008" lon="5.67269">
        <ele>466</ele>
        <time>2014-06-28T10:37:03.000Z</time>
      </trkpt>
      <trkpt lat="45.17011" lon="5.67271">
        <ele>466</ele>
        <time>2014-06-28T10:37:04.000Z</time>
      </trkpt>
      <trkpt lat="45.17013" lon="5.67273">
        <ele>466</ele>
        <time>2014-06-28T10:37:05.000Z</time>
      </trkpt>
      <trkpt lat="45.17016" lon="5.67275">
        <ele>465</ele>
        <time>2014-06-28T10:37:06.000Z</time>
      </trkpt>
      <trkpt lat="45.17018" lon="5.67277">
        <ele>465</ele>
        <time>2014-06-28T10:37:07.000Z</time>
      </trkpt>
      <trkpt lat="45.17021" lon="5.67279">
        <ele>465</ele>
        <time>2014-06-28T10:37:08.000Z</time>
      </trkpt>
      <trkpt lat="45.17024" lon="5.67281">
        <ele>464</ele>
        <time>2014-06-28T10:37:09.000Z</time>
      </trkpt>
      <trkpt lat="45.17026" lon="5.67283">
        <ele>464</ele>
        <time>2014-06-28T10:37:10.000Z</time>
      </trkpt>
      <trkpt lat="45.17029" lon="5.67285">
        <ele>464</ele>
        <time>2014-06-28T10:37:11.000Z</time>
      </trkpt>
      <trkpt lat="45.17031" lon="5.67286">
        <ele>464</ele>
        <time>2014-06-28T10:37:12.000Z</time>
      </trkpt>
      <trkpt lat="45.17033" lon="5.67288">
        <ele>464</ele>
        <time>2014-06-28T10:37:13.000Z</time>
      </trkpt>
      <trkpt lat="45.17035" lon="5.6729">
        <ele>463</ele>
        <time>2014-06-28T10:37:14.000Z</time>
      </trkpt>
      <trkpt lat="45.17038" lon="5.67291">
        <ele>463</ele>
        <time>2014-06-28T10:37:15.000Z</time>
      </trkpt>
      <trkpt lat="45.1704" lon="5.67292">
        <ele>463</ele>
        <time>2014-06-28T10:37:16.000Z</time>
      </trkpt>
      <trkpt lat="45.17043" lon="5.67293">
        <ele>463</ele>
        <time>2014-06-28T10:37:17.000Z</time>
      </trkpt>
      <trkpt lat="45.17045" lon="5.67294">
        <ele>462</ele>
        <time>2014-06-28T10:37:18.000Z</time>
      </trkpt>
      <trkpt lat="45.17048" lon="5.67296">
        <ele>462</ele>
        <time>2014-06-28T10:37:19.000Z</time>
      </trkpt>
      <trkpt lat="45.17051" lon="5.67297">
        <ele>462</ele>
        <time>2014-06-28T10:37:20.000Z</time>
      </trkpt>
      <trkpt lat="45.17053" lon="5.67299">
        <ele>462</ele>
        <time>2014-06-28T10:37:21.000Z</time>
      </trkpt>
      <trkpt lat="45.17056" lon="5.673">
        <ele>462</ele>
        <time>2014-06-28T10:37:22.000Z</time>
      </trkpt>
      <trkpt lat="45.17058" lon="5.67302">
        <ele>462</ele>
        <time>2014-06-28T10:37:23.000Z</time>
      </trkpt>
      <trkpt lat="45.17061" lon="5.67304">
        <ele>461</ele>
        <time>2014-06-28T10:37:24.000Z</time>
      </trkpt>
      <trkpt lat="45.17064" lon="5.67305">
        <ele>461</ele>
        <time>2014-06-28T10:37:25.000Z</time>
      </trkpt>
      <trkpt lat="45.17067" lon="5.67307">
        <ele>461</ele>
        <time>2014-06-28T10:37:26.000Z</time>
      </trkpt>
      <trkpt lat="45.17069" lon="5.67309">
        <ele>461</ele>
        <time>2014-06-28T10:37:27.000Z</time>
      </trkpt>
      <trkpt lat="45.17072" lon="5.67311">
        <ele>460</ele>
        <time>2014-06-28T10:37:28.000Z</time>
      </trkpt>
      <trkpt lat="45.17074" lon="5.67313">
        <ele>460</ele>
        <time>2014-06-28T10:37:29.000Z</time>
      </trkpt>
      <trkpt lat="45.17077" lon="5.67314">
        <ele>460</ele>
        <time>2014-06-28T10:37:30.000Z</time>
      </trkpt>
      <trkpt lat="45.1708" lon="5.67316">
        <ele>460</ele>
        <time>2014-06-28T10:37:31.000Z</time>
      </trkpt>
      <trkpt lat="45.17083" lon="5.67318">
        <ele>460</ele>
        <time>2014-06-28T10:37:32.000Z</time>
      </trkpt>
      <trkpt lat="45.17085" lon="5.6732">
        <ele>460</ele>
        <time>2014-06-28T10:37:33.000Z</time>
      </trkpt>
      <trkpt lat="45.17088" lon="5.67322">
        <ele>460</ele>
        <time>2014-06-28T10:37:34.000Z</time>
      </trkpt>
      <trkpt lat="45.17091" lon="5.67323">
        <ele>460</ele>
        <time>2014-06-28T10:37:35.000Z</time>
      </trkpt>
      <trkpt lat="45.17093" lon="5.67325">
        <ele>460</ele>
        <time>2014-06-28T10:37:36.000Z</time>
      </trkpt>
      <trkpt lat="45.17096" lon="5.67327">
        <ele>459</ele>
        <time>2014-06-28T10:37:37.000Z</time>
      </trkpt>
      <trkpt lat="45.17098" lon="5.67329">
        <ele>459</ele>
        <time>2014-06-28T10:37:38.000Z</time>
      </trkpt>
      <trkpt lat="45.17101" lon="5.6733">
        <ele>459</ele>
        <time>2014-06-28T10:37:39.000Z</time>
      </trkpt>
      <trkpt lat="45.17103" lon="5.67332">
        <ele>459</ele>
        <time>2014-06-28T10:37:40.000Z</time>
      </trkpt>
      <trkpt lat="45.17104" lon="5.67335">
        <ele>459</ele>
        <time>2014-06-28T10:37:41.000Z</time>
      </trkpt>
      <trkpt lat="45.17105" lon="5.67337">
        <ele>459</ele>
        <time>2014-06-28T10:37:42.000Z</time>
      </trkpt>
      <trkpt lat="45.17106" lon="5.6734">
        <ele>459</ele>
        <time>2014-06-28T10:37:43.000Z</time>
      </trkpt>
      <trkpt lat="45.17106" lon="5.67343">
        <ele>459</ele>
        <time>2014-06-28T10:37:44.000Z</time>
      </trkpt>
      <trkpt lat="45.17106" lon="5.67345">
        <ele>459</ele>
        <time>2014-06-28T10:37:45.000Z</time>
      </trkpt>
      <trkpt lat="45.17105" lon="5.67348">
        <ele>459</ele>
        <time>2014-06-28T10:37:46.000Z</time>
      </trkpt>
      <trkpt lat="45.17105" lon="5.67351">
        <ele>458</ele>
        <time>2014-06-28T10:37:47.000Z</time>
      </trkpt>
      <trkpt lat="45.17104" lon="5.67355">
        <ele>458</ele>
        <time>2014-06-28T10:37:48.000Z</time>
      </trkpt>
      <trkpt lat="45.17103" lon="5.67358">
        <ele>458</ele>
        <time>2014-06-28T10:37:49.000Z</time>
      </trkpt>
      <trkpt lat="45.17101" lon="5.67362">
        <ele>457</ele>
        <time>2014-06-28T10:37:50.000Z</time>
      </trkpt>
      <trkpt lat="45.171" lon="5.67366">
        <ele>457</ele>
        <time>2014-06-28T10:37:51.000Z</time>
      </trkpt>
      <trkpt lat="45.17098" lon="5.6737">
        <ele>457</ele>
        <time>2014-06-28T10:37:52.000Z</time>
      </trkpt>
      <trkpt lat="45.17096" lon="5.67374">
        <ele>456</ele>
        <time>2014-06-28T10:37:53.000Z</time>
      </trkpt>
      <trkpt lat="45.17095" lon="5.67378">
        <ele>456</ele>
        <time>2014-06-28T10:37:54.000Z</time>
      </trkpt>
      <trkpt lat="45.17093" lon="5.67382">
        <ele>455</ele>
        <time>2014-06-28T10:37:55.000Z</time>
      </trkpt>
      <trkpt lat="45.17091" lon="5.67386">
        <ele>455</ele>
        <time>2014-06-28T10:37:56.000Z</time>
      </trkpt>
      <trkpt lat="45.17089" lon="5.6739">
        <ele>454</ele>
        <time>2014-06-28T10:37:57.000Z</time>
      </trkpt>
      <trkpt lat="45.17087" lon="5.67394">
        <ele>454</ele>
        <time>2014-06-28T10:37:58.000Z</time>
      </trkpt>
      <trkpt lat="45.17086" lon="5.67397">
        <ele>454</ele>
        <time>2014-06-28T10:37:59.000Z</time>
      </trkpt>
      <trkpt lat="45.17084" lon="5.674">
        <ele>453</ele>
        <time>2014-06-28T10:38:00.000Z</time>
      </trkpt>
      <trkpt lat="45.17082" lon="5.67403">
        <ele>453</ele>
        <time>2014-06-28T10:38:01.000Z</time>
      </trkpt>
      <trkpt lat="45.17081" lon="5.67407">
        <ele>453</ele>
        <time>2014-06-28T10:38:02.000Z</time>
      </trkpt>
      <trkpt lat="45.1708" lon="5.6741">
        <ele>452</ele>
        <time>2014-06-28T10:38:03.000Z</time>
      </trkpt>
      <trkpt lat="45.17078" lon="5.67414">
        <ele>452</ele>
        <time>2014-06-28T10:38:04.000Z</time>
      </trkpt>
      <trkpt lat="45.17077" lon="5.67417">
        <ele>452</ele>
        <time>2014-06-28T10:38:05.000Z</time>
      </trkpt>
      <trkpt lat="45.17076" lon="5.6742">
        <ele>451</ele>
        <time>2014-06-28T10:38:06.000Z</time>
      </trkpt>
      <trkpt lat="45.17075" lon="5.67424">
        <ele>451</ele>
        <time>2014-06-28T10:38:07.000Z</time>
      </trkpt>
      <trkpt lat="45.17074" lon="5.67427">
        <ele>451</ele>
        <time>2014-06-28T10:38:08.000Z</time>
      </trkpt>
      <trkpt lat="45.17072" lon="5.67431">
        <ele>450</ele>
        <time>2014-06-28T10:38:09.000Z</time>
      </trkpt>
      <trkpt lat="45.17071" lon="5.67434">
        <ele>450</ele>
        <time>2014-06-28T10:38:10.000Z</time>
      </trkpt>
      <trkpt lat="45.17069" lon="5.67438">
        <ele>450</ele>
        <time>2014-06-28T10:38:11.000Z</time>
      </trkpt>
      <trkpt lat="45.17068" lon="5.67441">
        <ele>450</ele>
        <time>2014-06-28T10:38:12.000Z</time>
      </trkpt>
      <trkpt lat="45.17067" lon="5.67444">
        <ele>450</ele>
        <time>2014-06-28T10:38:13.000Z</time>
      </trkpt>
      <trkpt lat="45.17066" lon="5.67447">
        <ele>449</ele>
        <time>2014-06-28T10:38:14.000Z</time>
      </trkpt>
      <trkpt lat="45.17065" lon="5.6745">
        <ele>449</ele>
        <time>2014-06-28T10:38:15.000Z</time>
      </trkpt>
      <trkpt lat="45.17064" lon="5.67453">
        <ele>449</ele>
        <time>2014-06-28T10:38:16.000Z</time>
      </trkpt>
      <trkpt lat="45.17063" lon="5.67456">
        <ele>448</ele>
        <time>2014-06-28T10:38:17.000Z</time>
      </trkpt>
      <trkpt lat="45.17062" lon="5.67459">
        <ele>448</ele>
        <time>2014-06-28T10:38:18.000Z</time>
      </trkpt>
      <trkpt lat="45.17061" lon="5.67462">
        <ele>448</ele>
        <time>2014-06-28T10:38:19.000Z</time>
      </trkpt>
      <trkpt lat="45.17059" lon="5.67464">
        <ele>448</ele>
        <time>2014-06-28T10:38:20.000Z</time>
      </trkpt>
      <trkpt lat="45.17058" lon="5.67467">
        <ele>447</ele>
        <time>2014-06-28T10:38:21.000Z</time>
      </trkpt>
      <trkpt lat="45.17056" lon="5.6747">
        <ele>447</ele>
        <time>2014-06-28T10:38:22.000Z</time>
      </trkpt>
      <trkpt lat="45.17054" lon="5.67472">
        <ele>447</ele>
        <time>2014-06-28T10:38:23.000Z</time>
      </trkpt>
      <trkpt lat="45.17051" lon="5.67474">
        <ele>447</ele>
        <time>2014-06-28T10:38:24.000Z</time>
      </trkpt>
      <trkpt lat="45.17049" lon="5.67476">
        <ele>446</ele>
        <time>2014-06-28T10:38:25.000Z</time>
      </trkpt>
      <trkpt lat="45.17047" lon="5.67476">
        <ele>446</ele>
        <time>2014-06-28T10:38:26.000Z</time>
      </trkpt>
      <trkpt lat="45.17044" lon="5.67476">
        <ele>445</ele>
        <time>2014-06-28T10:38:27.000Z</time>
      </trkpt>
      <trkpt lat="45.17042" lon="5.67475">
        <ele>445</ele>
        <time>2014-06-28T10:38:28.000Z</time>
      </trkpt>
      <trkpt lat="45.17039" lon="5.67474">
        <ele>444</ele>
        <time>2014-06-28T10:38:29.000Z</time>
      </trkpt>
      <trkpt lat="45.17036" lon="5.67474">
        <ele>444</ele>
        <time>2014-06-28T10:38:30.000Z</time>
      </trkpt>
      <trkpt lat="45.17034" lon="5.67473">
        <ele>444</ele>
        <time>2014-06-28T10:38:31.000Z</time>
      </trkpt>
      <trkpt lat="45.17031" lon="5.67473">
        <ele>443</ele>
        <time>2014-06-28T10:38:32.000Z</time>
      </trkpt>
      <trkpt lat="45.17029" lon="5.67472">
        <ele>443</ele>
        <time>2014-06-28T10:38:33.000Z</time>
      </trkpt>
      <trkpt lat="45.17026" lon="5.67471">
        <ele>442</ele>
        <time>2014-06-28T10:38:34.000Z</time>
      </trkpt>
      <trkpt lat="45.17023" lon="5.67471">
        <ele>442</ele>
        <time>2014-06-28T10:38:35.000Z</time>
      </trkpt>
      <trkpt lat="45.17021" lon="5.6747">
        <ele>441</ele>
        <time>2014-06-28T10:38:36.000Z</time>
      </trkpt>
      <trkpt lat="45.17018" lon="5.67469">
        <ele>441</ele>
        <time>2014-06-28T10:38:37.000Z</time>
      </trkpt>
      <trkpt lat="45.17015" lon="5.67469">
        <ele>441</ele>
        <time>2014-06-28T10:38:38.000Z</time>
      </trkpt>
      <trkpt lat="45.17013" lon="5.67469">
        <ele>440</ele>
        <time>2014-06-28T10:38:39.000Z</time>
      </trkpt>
      <trkpt lat="45.1701" lon="5.67469">
        <ele>440</ele>
        <time>2014-06-28T10:38:40.000Z</time>
      </trkpt>
      <trkpt lat="45.17008" lon="5.67469">
        <ele>440</ele>
        <time>2014-06-28T10:38:41.000Z</time>
      </trkpt>
      <trkpt lat="45.17007" lon="5.67469">
        <ele>439</ele>
        <time>2014-06-28T10:38:42.000Z</time>
      </trkpt>
      <trkpt lat="45.17005" lon="5.6747">
        <ele>439</ele>
        <time>2014-06-28T10:38:43.000Z</time>
      </trkpt>
      <trkpt lat="45.17004" lon="5.67471">
        <ele>439</ele>
        <time>2014-06-28T10:38:44.000Z</time>
      </trkpt>
      <trkpt lat="45.17004" lon="5.67472">
        <ele>438</ele>
        <time>2014-06-28T10:38:45.000Z</time>
      </trkpt>
      <trkpt lat="45.17004" lon="5.67473">
        <ele>438</ele>
        <time>2014-06-28T10:38:46.000Z</time>
      </trkpt>
      <trkpt lat="45.17004" lon="5.67475">
        <ele>437</ele>
        <time>2014-06-28T10:38:47.000Z</time>
      </trkpt>
      <trkpt lat="45.17004" lon="5.67477">
        <ele>437</ele>
        <time>2014-06-28T10:38:48.000Z</time>
      </trkpt>
      <trkpt lat="45.17004" lon="5.67479">
        <ele>437</ele>
        <time>2014-06-28T10:38:49.000Z</time>
      </trkpt>
      <trkpt lat="45.17005" lon="5.67482">
        <ele>436</ele>
        <time>2014-06-28T10:38:50.000Z</time>
      </trkpt>
      <trkpt lat="45.17005" lon="5.67484">
        <ele>436</ele>
        <time>2014-06-28T10:38:51.000Z</time>
      </trkpt>
      <trkpt lat="45.17006" lon="5.67486">
        <ele>436</ele>
        <time>2014-06-28T10:38:52.000Z</time>
      </trkpt>
      <trkpt lat="45.17008" lon="5.67489">
        <ele>435</ele>
        <time>2014-06-28T10:38:53.000Z</time>
      </trkpt>
      <trkpt lat="45.17009" lon="5.67492">
        <ele>435</ele>
        <time>2014-06-28T10:38:54.000Z</time>
      </trkpt>
      <trkpt lat="45.1701" lon="5.67495">
        <ele>434</ele>
        <time>2014-06-28T10:38:55.000Z</time>
      </trkpt>
      <trkpt lat="45.17012" lon="5.67499">
        <ele>434</ele>
        <time>2014-06-28T10:38:56.000Z</time>
      </trkpt>
      <trkpt lat="45.17013" lon="5.67502">
        <ele>433</ele>
        <time>2014-06-28T10:38:57.000Z</time>
      </trkpt>
      <trkpt lat="45.17015" lon="5.67505">
        <ele>433</ele>
        <time>2014-06-28T10:38:58.000Z</time>
      </trkpt>
      <trkpt lat="45.17016" lon="5.67508">
        <ele>432</ele>
        <time>2014-06-28T10:38:59.000Z</time>
      </trkpt>
      <trkpt lat="45.17018" lon="5.67511">
        <ele>432</ele>
        <time>2014-06-28T10:39:00.000Z</time>
      </trkpt>
      <trkpt lat="45.17019" lon="5.67514">
        <ele>431</ele>
        <time>2014-06-28T10:39:01.000Z</time>
      </trkpt>
      <trkpt lat="45.17021" lon="5.67517">
        <ele>431</ele>
        <time>2014-06-28T10:39:02.000Z</time>
      </trkpt>
      <trkpt lat="45.17022" lon="5.67519">
        <ele>430</ele>
        <time>2014-06-28T10:39:03.000Z</time>
      </trkpt>
      <trkpt lat="45.17024" lon="5.67522">
        <ele>430</ele>
        <time>2014-06-28T10:39:04.000Z</time>
      </trkpt>
      <trkpt lat="45.17025" lon="5.67525">
        <ele>429</ele>
        <time>2014-06-28T10:39:05.000Z</time>
      </trkpt>
      <trkpt lat="45.17027" lon="5.67528">
        <ele>429</ele>
        <time>2014-06-28T10:39:06.000Z</time>
      </trkpt>
      <trkpt lat="45.17028" lon="5.67531">
        <ele>428</ele>
        <time>2014-06-28T10:39:07.000Z</time>
      </trkpt>
      <trkpt lat="45.1703" lon="5.67534">
        <ele>428</ele>
        <time>2014-06-28T10:39:08.000Z</time>
      </trkpt>
      <trkpt lat="45.17032" lon="5.67537">
        <ele>428</ele>
        <time>2014-06-28T10:39:09.000Z</time>
      </trkpt>
      <trkpt lat="45.17033" lon="5.6754">
        <ele>427</ele>
        <time>2014-06-28T10:39:10.000Z</time>
      </trkpt>
      <trkpt lat="45.17035" lon="5.67543">
        <ele>427</ele>
        <time>2014-06-28T10:39:11.000Z</time>
      </trkpt>
      <trkpt lat="45.17036" lon="5.67545">
        <ele>426</ele>
        <time>2014-06-28T10:39:12.000Z</time>
      </trkpt>
      <trkpt lat="45.17038" lon="5.67548">
        <ele>426</ele>
        <time>2014-06-28T10:39:13.000Z</time>
      </trkpt>
      <trkpt lat="45.1704" lon="5.67551">
        <ele>426</ele>
        <time>2014-06-28T10:39:14.000Z</time>
      </trkpt>
      <trkpt lat="45.17041" lon="5.67553">
        <ele>425</ele>
        <time>2014-06-28T10:39:15.000Z</time>
      </trkpt>
      <trkpt lat="45.17043" lon="5.67555">
        <ele>425</ele>
        <time>2014-06-28T10:39:16.000Z</time>
      </trkpt>
      <trkpt lat="45.17045" lon="5.67556">
        <ele>425</ele>
        <time>2014-06-28T10:39:17.000Z</time>
      </trkpt>
      <trkpt lat="45.17047" lon="5.67557">
        <ele>425</ele>
        <time>2014-06-28T10:39:18.000Z</time>
      </trkpt>
      <trkpt lat="45.17049" lon="5.67558">
        <ele>424</ele>
        <time>2014-06-28T10:39:19.000Z</time>
      </trkpt>
      <trkpt lat="45.17051" lon="5.67558">
        <ele>424</ele>
        <time>2014-06-28T10:39:20.000Z</time>
      </trkpt>
      <trkpt lat="45.17052" lon="5.67558">
        <ele>424</ele>
        <time>2014-06-28T10:39:21.000Z</time>
      </trkpt>
      <trkpt lat="45.17054" lon="5.67559">
        <ele>424</ele>
        <time>2014-06-28T10:39:22.000Z</time>
      </trkpt>
      <trkpt lat="45.17056" lon="5.6756">
        <ele>423</ele>
        <time>2014-06-28T10:39:23.000Z</time>
      </trkpt>
      <trkpt lat="45.17058" lon="5.67562">
        <ele>423</ele>
        <time>2014-06-28T10:39:24.000Z</time>
      </trkpt>
      <trkpt lat="45.1706" lon="5.67563">
        <ele>423</ele>
        <time>2014-06-28T10:39:25.000Z</time>
      </trkpt>
      <trkpt lat="45.17061" lon="5.67565">
        <ele>423</ele>
        <time>2014-06-28T10:39:26.000Z</time>
      </trkpt>
      <trkpt lat="45.17062" lon="5.67566">
        <ele>423</ele>
        <time>2014-06-28T10:39:27.000Z</time>
      </trkpt>
      <trkpt lat="45.17063" lon="5.67566">
        <ele>423</ele>
        <time>2014-06-28T10:39:28.000Z</time>
      </trkpt>
      <trkpt lat="45.17063" lon="5.67567">
        <ele>422</ele>
        <time>2014-06-28T10:39:29.000Z</time>
      </trkpt>
      <trkpt lat="45.17063" lon="5.67568">
        <ele>422</ele>
        <time>2014-06-28T10:39:30.000Z</time>
      </trkpt>
      <trkpt lat="45.17061" lon="5.67568">
        <ele>422</ele>
        <time>2014-06-28T10:39:31.000Z</time>
      </trkpt>
      <trkpt lat="45.1706" lon="5.67569">
        <ele>422</ele>
        <time>2014-06-28T10:39:32.000Z</time>
      </trkpt>
      <trkpt lat="45.17059" lon="5.6757">
        <ele>421</ele>
        <time>2014-06-28T10:39:33.000Z</time>
      </trkpt>
      <trkpt lat="45.17057" lon="5.67571">
        <ele>421</ele>
        <time>2014-06-28T10:39:34.000Z</time>
      </trkpt>
      <trkpt lat="45.17055" lon="5.67571">
        <ele>421</ele>
        <time>2014-06-28T10:39:35.000Z</time>
      </trkpt>
      <trkpt lat="45.17053" lon="5.67572">
        <ele>420</ele>
        <time>2014-06-28T10:39:36.000Z</time>
      </trkpt>
      <trkpt lat="45.1705" lon="5.67573">
        <ele>420</ele>
        <time>2014-06-28T10:39:37.000Z</time>
      </trkpt>
      <trkpt lat="45.17047" lon="5.67573">
        <ele>420</ele>
        <time>2014-06-28T10:39:38.000Z</time>
      </trkpt>
      <trkpt lat="45.17044" lon="5.67573">
        <ele>419</ele>
        <time>2014-06-28T10:39:39.000Z</time>
      </trkpt>
      <trkpt lat="45.17042" lon="5.67573">
        <ele>419</ele>
        <time>2014-06-28T10:39:40.000Z</time>
      </trkpt>
      <trkpt lat="45.1704" lon="5.67572">
        <ele>419</ele>
        <time>2014-06-28T10:39:41.000Z</time>
      </trkpt>
      <trkpt lat="45.17038" lon="5.67571">
        <ele>418</ele>
        <time>2014-06-28T10:39:42.000Z</time>
      </trkpt>
      <trkpt lat="45.17036" lon="5.6757">
        <ele>418</ele>
        <time>2014-06-28T10:39:43.000Z</time>
      </trkpt>
      <trkpt lat="45.17034" lon="5.67568">
        <ele>418</ele>
        <time>2014-06-28T10:39:44.000Z</time>
      </trkpt>
      <trkpt lat="45.17032" lon="5.67565">
        <ele>417</ele>
        <time>2014-06-28T10:39:45.000Z</time>
      </trkpt>
      <trkpt lat="45.1703" lon="5.67563">
        <ele>417</ele>
        <time>2014-06-28T10:39:46.000Z</time>
      </trkpt>
      <trkpt lat="45.17028" lon="5.6756">
        <ele>416</ele>
        <time>2014-06-28T10:39:47.000Z</time>
      </trkpt>
      <trkpt lat="45.17025" lon="5.67558">
        <ele>416</ele>
        <time>2014-06-28T10:39:48.000Z</time>
      </trkpt>
      <trkpt lat="45.17023" lon="5.67555">
        <ele>416</ele>
        <time>2014-06-28T10:39:49.000Z</time>
      </trkpt>
      <trkpt lat="45.17021" lon="5.67553">
        <ele>415</ele>
        <time>2014-06-28T10:39:50.000Z</time>
      </trkpt>
      <trkpt lat="45.17019" lon="5.67551">
        <ele>415</ele>
        <time>2014-06-28T10:39:51.000Z</time>
      </trkpt>
      <trkpt lat="45.17017" lon="5.67549">
        <ele>414</ele>
        <time>2014-06-28T10:39:52.000Z</time>
      </trkpt>
      <trkpt lat="45.17015" lon="5.67547">
        <ele>414</ele>
        <time>2014-06-28T10:39:53.000Z</time>
      </trkpt>
      <trkpt lat="45.17013" lon="5.67545">
        <ele>414</ele>
        <time>2014-06-28T10:39:54.000Z</time>
      </trkpt>
      <trkpt lat="45.17011" lon="5.67543">
        <ele>414</ele>
        <time>2014-06-28T10:39:55.000Z</time>
      </trkpt>
      <trkpt lat="45.17009" lon="5.67541">
        <ele>413</ele>
        <time>2014-06-28T10:39:56.000Z</time>
      </trkpt>
      <trkpt lat="45.17006" lon="5.67539">
        <ele>413</ele>
        <time>2014-06-28T10:39:57.000Z</time>
      </trkpt>
      <trkpt lat="45.17004" lon="5.67537">
        <ele>413</ele>
        <time>2014-06-28T10:39:58.000Z</time>
      </trkpt>
      <trkpt lat="45.17002" lon="5.67534">
        <ele>412</ele>
        <time>2014-06-28T10:39:59.000Z</time>
      </trkpt>
      <trkpt lat="45.17" lon="5.67532">
        <ele>412</ele>
        <time>2014-06-28T10:40:00.000Z</time>
      </trkpt>
      <trkpt lat="45.16998" lon="5.6753">
        <ele>412</ele>
        <time>2014-06-28T10:40:01.000Z</time>
      </trkpt>
      <trkpt lat="45.16997" lon="5.67529">
        <ele>412</ele>
        <time>2014-06-28T10:40:02.000Z</time>
      </trkpt>
      <trkpt lat="45.16995" lon="5.67527">
        <ele>412</ele>
        <time>2014-06-28T10:40:03.000Z</time>
      </trkpt>
      <trkpt lat="45.16993" lon="5.67526">
        <ele>411</ele>
        <time>2014-06-28T10:40:04.000Z</time>
      </trkpt>
      <trkpt lat="45.16991" lon="5.67524">
        <ele>411</ele>
        <time>2014-06-28T10:40:05.000Z</time>
      </trkpt>
      <trkpt lat="45.1699" lon="5.67522">
        <ele>411</ele>
        <time>2014-06-28T10:40:06.000Z</time>
      </trkpt>
      <trkpt lat="45.16988" lon="5.67521">
        <ele>411</ele>
        <time>2014-06-28T10:40:07.000Z</time>
      </trkpt>
      <trkpt lat="45.16986" lon="5.67519">
        <ele>411</ele>
        <time>2014-06-28T10:40:08.000Z</time>
      </trkpt>
      <trkpt lat="45.16984" lon="5.67517">
        <ele>411</ele>
        <time>2014-06-28T10:40:09.000Z</time>
      </trkpt>
      <trkpt lat="45.16983" lon="5.67515">
        <ele>411</ele>
        <time>2014-06-28T10:40:10.000Z</time>
      </trkpt>
      <trkpt lat="45.16981" lon="5.67513">
        <ele>411</ele>
        <time>2014-06-28T10:40:11.000Z</time>
      </trkpt>
      <trkpt lat="45.16979" lon="5.6751">
        <ele>410</ele>
        <time>2014-06-28T10:40:12.000Z</time>
      </trkpt>
      <trkpt lat="45.16977" lon="5.67508">
        <ele>410</ele>
        <time>2014-06-28T10:40:13.000Z</time>
      </trkpt>
      <trkpt lat="45.16975" lon="5.67506">
        <ele>410</ele>
        <time>2014-06-28T10:40:14.000Z</time>
      </trkpt>
      <trkpt lat="45.16973" lon="5.67504">
        <ele>410</ele>
        <time>2014-06-28T10:40:15.000Z</time>
      </trkpt>
      <trkpt lat="45.16971" lon="5.67503">
        <ele>410</ele>
        <time>2014-06-28T10:40:16.000Z</time>
      </trkpt>
      <trkpt lat="45.16968" lon="5.67501">
        <ele>410</ele>
        <time>2014-06-28T10:40:17.000Z</time>
      </trkpt>
      <trkpt lat="45.16966" lon="5.675">
        <ele>410</ele>
        <time>2014-06-28T10:40:18.000Z</time>
      </trkpt>
      <trkpt lat="45.16964" lon="5.67499">
        <ele>410</ele>
        <time>2014-06-28T10:40:19.000Z</time>
      </trkpt>
      <trkpt lat="45.16962" lon="5.67498">
        <ele>410</ele>
        <time>2014-06-28T10:40:20.000Z</time>
      </trkpt>
      <trkpt lat="45.16959" lon="5.67497">
        <ele>410</ele>
        <time>2014-06-28T10:40:21.000Z</time>
      </trkpt>
      <trkpt lat="45.16957" lon="5.67497">
        <ele>410</ele>
        <time>2014-06-28T10:40:22.000Z</time>
      </trkpt>
      <trkpt lat="45.16955" lon="5.67497">
        <ele>410</ele>
        <time>2014-06-28T10:40:23.000Z</time>
      </trkpt>
      <trkpt lat="45.16953" lon="5.67497">
        <ele>410</ele>
        <time>2014-06-28T10:40:24.000Z</time>
      </trkpt>
      <trkpt lat="45.16951" lon="5.67497">
        <ele>410</ele>
        <time>2014-06-28T10:40:25.000Z</time>
      </trkpt>
      <trkpt lat="45.16949" lon="5.67498">
        <ele>409</ele>
        <time>2014-06-28T10:40:26.000Z</time>
      </trkpt>
      <trkpt lat="45.16947" lon="5.675">
        <ele>409</ele>
        <time>2014-06-28T10:40:27.000Z</time>
      </trkpt>
      <trkpt lat="45.16945" lon="5.67502">
        <ele>409</ele>
        <time>2014-06-28T10:40:28.000Z</time>
      </trkpt>
      <trkpt lat="45.16944" lon="5.67504">
        <ele>408</ele>
        <time>2014-06-28T10:40:29.000Z</time>
      </trkpt>
      <trkpt lat="45.16942" lon="5.67507">
        <ele>408</ele>
        <time>2014-06-28T10:40:30.000Z</time>
      </trkpt>
      <trkpt lat="45.16941" lon="5.67509">
        <ele>408</ele>
        <time>2014-06-28T10:40:31.000Z</time>
      </trkpt>
      <trkpt lat="45.1694" lon="5.6751">
        <ele>407</ele>
        <time>2014-06-28T10:40:32.000Z</time>
      </trkpt>
      <trkpt lat="45.16938" lon="5.67512">
        <ele>407</ele>
        <time>2014-06-28T10:40:33.000Z</time>
      </trkpt>
      <trkpt lat="45.16936" lon="5.67514">
        <ele>407</ele>
        <time>2014-06-28T10:40:34.000Z</time>
      </trkpt>
      <trkpt lat="45.16934" lon="5.67516">
        <ele>406</ele>
        <time>2014-06-28T10:40:35.000Z</time>
      </trkpt>
      <trkpt lat="45.16933" lon="5.67517">
        <ele>406</ele>
        <time>2014-06-28T10:40:36.000Z</time>
      </trkpt>
      <trkpt lat="45.16932" lon="5.67518">
        <ele>406</ele>
        <time>2014-06-28T10:40:37.000Z</time>
      </trkpt>
      <trkpt lat="45.16931" lon="5.67519">
        <ele>405</ele>
        <time>2014-06-28T10:40:38.000Z</time>
      </trkpt>
      <trkpt lat="45.1693" lon="5.6752">
        <ele>405</ele>
        <time>2014-06-28T10:40:39.000Z</time>
      </trkpt>
      <trkpt lat="45.1693" lon="5.67521">
        <ele>405</ele>
        <time>2014-06-28T10:40:40.000Z</time>
      </trkpt>
      <trkpt lat="45.16929" lon="5.67522">
        <ele>405</ele>
        <time>2014-06-28T10:40:41.000Z</time>
      </trkpt>
      <trkpt lat="45.16928" lon="5.67522">
        <ele>404</ele>
        <time>2014-06-28T10:40:42.000Z</time>
      </trkpt>
      <trkpt lat="45.16927" lon="5.67522">
        <ele>404</ele>
        <time>2014-06-28T10:40:43.000Z</time>
      </trkpt>
      <trkpt lat="45.16925" lon="5.67523">
        <ele>404</ele>
        <time>2014-06-28T10:40:44.000Z</time>
      </trkpt>
      <trkpt lat="45.16924" lon="5.67523">
        <ele>404</ele>
        <time>2014-06-28T10:40:45.000Z</time>
      </trkpt>
      <trkpt lat="45.16923" lon="5.67523">
        <ele>403</ele>
        <time>2014-06-28T10:40:46.000Z</time>
      </trkpt>
      <trkpt lat="45.16921" lon="5.67523">
        <ele>403</ele>
        <time>2014-06-28T10:40:47.000Z</time>
      </trkpt>
      <trkpt lat="45.1692" lon="5.67524">
        <ele>403</ele>
        <time>2014-06-28T10:40:48.000Z</time>
      </trkpt>
      <trkpt lat="45.16919" lon="5.67525">
        <ele>403</ele>
        <time>2014-06-28T10:40:49.000Z</time>
      </trkpt>
      <trkpt lat="45.16918" lon="5.67525">
        <ele>402</ele>
        <time>2014-06-28T10:40:50.000Z</time>
      </trkpt>
      <trkpt lat="45.16917" lon="5.67526">
        <ele>402</ele>
        <time>2014-06-28T10:40:51.000Z</time>
      </trkpt>
      <trkpt lat="45.16917" lon="5.67527">
        <ele>402</ele>
        <time>2014-06-28T10:40:52.000Z</time>
      </trkpt>
      <trkpt lat="45.16916" lon="5.67528">
        <ele>401</ele>
        <time>2014-06-28T10:40:53.000Z</time>
      </trkpt>
      <trkpt lat="45.16916" lon="5.67529">
        <ele>401</ele>
        <time>2014-06-28T10:40:54.000Z</time>
      </trkpt>
      <trkpt lat="45.16915" lon="5.67531">
        <ele>400</ele>
        <time>2014-06-28T10:40:55.000Z</time>
      </trkpt>
      <trkpt lat="45.16915" lon="5.67533">
        <ele>400</ele>
        <time>2014-06-28T10:40:56.000Z</time>
      </trkpt>
      <trkpt lat="45.16915" lon="5.67534">
        <ele>400</ele>
        <time>2014-06-28T10:40:57.000Z</time>
      </trkpt>
      <trkpt lat="45.16915" lon="5.67536">
        <ele>399</ele>
        <time>2014-06-28T10:40:58.000Z</time>
      </trkpt>
      <trkpt lat="45.16915" lon="5.67539">
        <ele>399</ele>
        <time>2014-06-28T10:40:59.000Z</time>
      </trkpt>
      <trkpt lat="45.16916" lon="5.67541">
        <ele>399</ele>
        <time>2014-06-28T10:41:00.000Z</time>
      </trkpt>
      <trkpt lat="45.16916" lon="5.67542">
        <ele>398</ele>
        <time>2014-06-28T10:41:01.000Z</time>
      </trkpt>
      <trkpt lat="45.16917" lon="5.67543">
        <ele>398</ele>
        <time>2014-06-28T10:41:02.000Z</time>
      </trkpt>
      <trkpt lat="45.16918" lon="5.67543">
        <ele>398</ele>
        <time>2014-06-28T10:41:03.000Z</time>
      </trkpt>
      <trkpt lat="45.16918" lon="5.67543">
        <ele>398</ele>
        <time>2014-06-28T10:41:04.000Z</time>
      </trkpt>
      <trkpt lat="45.16919" lon="5.67544">
        <ele>397</ele>
        <time>2014-06-28T10:41:05.000Z</time>
      </trkpt>
      <trkpt lat="45.1692" lon="5.67544">
        <ele>397</ele>
        <time>2014-06-28T10:41:06.000Z</time>
      </trkpt>
      <trkpt lat="45.16921" lon="5.67545">
        <ele>397</ele>
        <time>2014-06-28T10:41:07.000Z</time>
      </trkpt>
      <trkpt lat="45.16922" lon="5.67545">
        <ele>396</ele>
        <time>2014-06-28T10:41:08.000Z</time>
      </trkpt>
      <trkpt lat="45.16923" lon="5.67546">
        <ele>396</ele>
        <time>2014-06-28T10:41:09.000Z</time>
      </trkpt>
      <trkpt lat="45.16923" lon="5.67547">
        <ele>396</ele>
        <time>2014-06-28T10:41:10.000Z</time>
      </trkpt>
      <trkpt lat="45.16923" lon="5.67548">
        <ele>396</ele>
        <time>2014-06-28T10:41:11.000Z</time>
      </trkpt>
      <trkpt lat="45.16923" lon="5.67548">
        <ele>395</ele>
        <time>2014-06-28T10:41:12.000Z</time>
      </trkpt>
      <trkpt lat="45.16923" lon="5.67549">
        <ele>395</ele>
        <time>2014-06-28T10:41:13.000Z</time>
      </trkpt>
      <trkpt lat="45.16923" lon="5.67549">
        <ele>395</ele>
        <time>2014-06-28T10:41:14.000Z</time>
      </trkpt>
      <trkpt lat="45.16922" lon="5.67549">
        <ele>395</ele>
        <time>2014-06-28T10:41:15.000Z</time>
      </trkpt>
      <trkpt lat="45.16921" lon="5.67549">
        <ele>394</ele>
        <time>2014-06-28T10:41:16.000Z</time>
      </trkpt>
      <trkpt lat="45.1692" lon="5.67549">
        <ele>394</ele>
        <time>2014-06-28T10:41:17.000Z</time>
      </trkpt>
      <trkpt lat="45.16918" lon="5.67549">
        <ele>394</ele>
        <time>2014-06-28T10:41:18.000Z</time>
      </trkpt>
      <trkpt lat="45.16917" lon="5.6755">
        <ele>393</ele>
        <time>2014-06-28T10:41:19.000Z</time>
      </trkpt>
      <trkpt lat="45.16915" lon="5.6755">
        <ele>393</ele>
        <time>2014-06-28T10:41:20.000Z</time>
      </trkpt>
      <trkpt lat="45.16913" lon="5.67551">
        <ele>393</ele>
        <time>2014-06-28T10:41:21.000Z</time>
      </trkpt>
      <trkpt lat="45.16911" lon="5.67552">
        <ele>392</ele>
        <time>2014-06-28T10:41:22.000Z</time>
      </trkpt>
      <trkpt lat="45.16909" lon="5.67554">
        <ele>392</ele>
        <time>2014-06-28T10:41:23.000Z</time>
      </trkpt>
      <trkpt lat="45.16907" lon="5.67555">
        <ele>391</ele>
        <time>2014-06-28T10:41:24.000Z</time>
      </trkpt>
      <trkpt lat="45.16905" lon="5.67556">
        <ele>391</ele>
        <time>2014-06-28T10:41:25.000Z</time>
      </trkpt>
      <trkpt lat="45.16903" lon="5.67557">
        <ele>391</ele>
        <time>2014-06-28T10:41:26.000Z</time>
      </trkpt>
      <trkpt lat="45.16901" lon="5.67559">
        <ele>390</ele>
        <time>2014-06-28T10:41:27.000Z</time>
      </trkpt>
      <trkpt lat="45.169" lon="5.6756">
        <ele>390</ele>
        <time>2014-06-28T10:41:28.000Z</time>
      </trkpt>
      <trkpt lat="45.16898" lon="5.67562">
        <ele>389</ele>
        <time>2014-06-28T10:41:29.000Z</time>
      </trkpt>
      <trkpt lat="45.16896" lon="5.67563">
        <ele>389</ele>
        <time>2014-06-28T10:41:30.000Z</time>
      </trkpt>
      <trkpt lat="45.16894" lon="5.67565">
        <ele>389</ele>
        <time>2014-06-28T10:41:31.000Z</time>
      </trkpt>
      <trkpt lat="45.16892" lon="5.67567">
        <ele>388</ele>
        <time>2014-06-28T10:41:32.000Z</time>
      </trkpt>
      <trkpt lat="45.1689" lon="5.67568">
        <ele>388</ele>
        <time>2014-06-28T10:41:33.000Z</time>
      </trkpt>
      <trkpt lat="45.16888" lon="5.6757">
        <ele>387</ele>
        <time>2014-06-28T10:41:34.000Z</time>
      </trkpt>
      <trkpt lat="45.16886" lon="5.67573">
        <ele>387</ele>
        <time>2014-06-28T10:41:35.000Z</time>
      </trkpt>
      <trkpt lat="45.16883" lon="5.67574">
        <ele>386</ele>
        <time>2014-06-28T10:41:36.000Z</time>
      </trkpt>
      <trkpt lat="45.1688" lon="5.67576">
        <ele>386</ele>
        <time>2014-06-28T10:41:37.000Z</time>
      </trkpt>
      <trkpt lat="45.16878" lon="5.67578">
        <ele>385</ele>
        <time>2014-06-28T10:41:38.000Z</time>
      </trkpt>
      <trkpt lat="45.16876" lon="5.6758">
        <ele>385</ele>
        <time>2014-06-28T10:41:39.000Z</time>
      </trkpt>
      <trkpt lat="45.16874" lon="5.67582">
        <ele>384</ele>
        <time>2014-06-28T10:41:40.000Z</time>
      </trkpt>
      <trkpt lat="45.16872" lon="5.67584">
        <ele>383</ele>
        <time>2014-06-28T10:41:41.000Z</time>
      </trkpt>
      <trkpt lat="45.16872" lon="5.67586">
        <ele>383</ele>
        <time>2014-06-28T10:41:42.000Z</time>
      </trkpt>
      <trkpt lat="45.16872" lon="5.67588">
        <ele>382</ele>
        <time>2014-06-28T10:41:43.000Z</time>
      </trkpt>
      <trkpt lat="45.16872" lon="5.6759">
        <ele>382</ele>
        <time>2014-06-28T10:41:44.000Z</time>
      </trkpt>
      <trkpt lat="45.16873" lon="5.67592">
        <ele>381</ele>
        <time>2014-06-28T10:41:45.000Z</time>
      </trkpt>
      <trkpt lat="45.16873" lon="5.67594">
        <ele>381</ele>
        <time>2014-06-28T10:41:46.000Z</time>
      </trkpt>
      <trkpt lat="45.16874" lon="5.67596">
        <ele>380</ele>
        <time>2014-06-28T10:41:47.000Z</time>
      </trkpt>
      <trkpt lat="45.16875" lon="5.67597">
        <ele>380</ele>
        <time>2014-06-28T10:41:48.000Z</time>
      </trkpt>
      <trkpt lat="45.16876" lon="5.676">
        <ele>379</ele>
        <time>2014-06-28T10:41:49.000Z</time>
      </trkpt>
      <trkpt lat="45.16877" lon="5.67602">
        <ele>379</ele>
        <time>2014-06-28T10:41:50.000Z</time>
      </trkpt>
      <trkpt lat="45.16878" lon="5.67603">
        <ele>379</ele>
        <time>2014-06-28T10:41:51.000Z</time>
      </trkpt>
      <trkpt lat="45.1688" lon="5.67605">
        <ele>378</ele>
        <time>2014-06-28T10:41:52.000Z</time>
      </trkpt>
      <trkpt lat="45.16881" lon="5.67606">
        <ele>378</ele>
        <time>2014-06-28T10:41:53.000Z</time>
      </trkpt>
      <trkpt lat="45.16882" lon="5.67608">
        <ele>378</ele>
        <time>2014-06-28T10:41:54.000Z</time>
      </trkpt>
      <trkpt lat="45.16882" lon="5.67609">
        <ele>378</ele>
        <time>2014-06-28T10:41:55.000Z</time>
      </trkpt>
      <trkpt lat="45.16882" lon="5.67611">
        <ele>377</ele>
        <time>2014-06-28T10:41:56.000Z</time>
      </trkpt>
      <trkpt lat="45.16882" lon="5.67612">
        <ele>377</ele>
        <time>2014-06-28T10:41:57.000Z</time>
      </trkpt>
      <trkpt lat="45.16882" lon="5.67614">
        <ele>377</ele>
        <time>2014-06-28T10:41:58.000Z</time>
      </trkpt>
      <trkpt lat="45.16881" lon="5.67616">
        <ele>376</ele>
        <time>2014-06-28T10:41:59.000Z</time>
      </trkpt>
      <trkpt lat="45.1688" lon="5.67617">
        <ele>376</ele>
        <time>2014-06-28T10:42:00.000Z</time>
      </trkpt>
      <trkpt lat="45.16879" lon="5.67618">
        <ele>375</ele>
        <time>2014-06-28T10:42:01.000Z</time>
      </trkpt>
      <trkpt lat="45.16878" lon="5.6762">
        <ele>375</ele>
        <time>2014-06-28T10:42:02.000Z</time>
      </trkpt>
      <trkpt lat="45.16877" lon="5.67621">
        <ele>375</ele>
        <time>2014-06-28T10:42:03.000Z</time>
      </trkpt>
      <trkpt lat="45.16876" lon="5.67623">
        <ele>374</ele>
        <time>2014-06-28T10:42:04.000Z</time>
      </trkpt>
      <trkpt lat="45.16875" lon="5.67624">
        <ele>374</ele>
        <time>2014-06-28T10:42:05.000Z</time>
      </trkpt>
      <trkpt lat="45.16873" lon="5.67626">
        <ele>374</ele>
        <time>2014-06-28T10:42:06.000Z</time>
      </trkpt>
      <trkpt lat="45.16871" lon="5.67627">
        <ele>374</ele>
        <time>2014-06-28T10:42:07.000Z</time>
      </trkpt>
      <trkpt lat="45.16869" lon="5.67628">
        <ele>373</ele>
        <time>2014-06-28T10:42:08.000Z</time>
      </trkpt>
      <trkpt lat="45.16868" lon="5.67629">
        <ele>373</ele>
        <time>2014-06-28T10:42:09.000Z</time>
      </trkpt>
      <trkpt lat="45.16866" lon="5.6763">
        <ele>373</ele>
        <time>2014-06-28T10:42:10.000Z</time>
      </trkpt>
      <trkpt lat="45.16864" lon="5.67631">
        <ele>372</ele>
        <time>2014-06-28T10:42:11.000Z</time>
      </trkpt>
      <trkpt lat="45.16863" lon="5.67632">
        <ele>372</ele>
        <time>2014-06-28T10:42:12.000Z</time>
      </trkpt>
      <trkpt lat="45.16861" lon="5.67633">
        <ele>372</ele>
        <time>2014-06-28T10:42:13.000Z</time>
      </trkpt>
      <trkpt lat="45.1686" lon="5.67634">
        <ele>371</ele>
        <time>2014-06-28T10:42:14.000Z</time>
      </trkpt>
      <trkpt lat="45.16858" lon="5.67635">
        <ele>371</ele>
        <time>2014-06-28T10:42:15.000Z</time>
      </trkpt>
      <trkpt lat="45.16856" lon="5.67636">
        <ele>370</ele>
        <time>2014-06-28T10:42:16.000Z</time>
      </trkpt>
      <trkpt lat="45.16854" lon="5.67637">
        <ele>370</ele>
        <time>2014-06-28T10:42:17.000Z</time>
      </trkpt>
      <trkpt lat="45.16852" lon="5.67639">
        <ele>369</ele>
        <time>2014-06-28T10:42:18.000Z</time>
      </trkpt>
      <trkpt lat="45.16849" lon="5.6764">
        <ele>369</ele>
        <time>2014-06-28T10:42:19.000Z</time>
      </trkpt>
      <trkpt lat="45.16847" lon="5.67642">
        <ele>368</ele>
        <time>2014-06-28T10:42:20.000Z</time>
      </trkpt>
      <trkpt lat="45.16845" lon="5.67643">
        <ele>367</ele>
        <time>2014-06-28T10:42:21.000Z</time>
      </trkpt>
      <trkpt lat="45.16843" lon="5.67644">
        <ele>367</ele>
        <time>2014-06-28T10:42:22.000Z</time>
      </trkpt>
      <trkpt lat="45.16841" lon="5.67645">
        <ele>366</ele>
        <time>2014-06-28T10:42:23.000Z</time>
      </trkpt>
      <trkpt lat="45.16839" lon="5.67645">
        <ele>365</ele>
        <time>2014-06-28T10:42:24.000Z</time>
      </trkpt>
      <trkpt lat="45.16838" lon="5.67646">
        <ele>365</ele>
        <time>2014-06-28T10:42:25.000Z</time>
      </trkpt>
      <trkpt lat="45.16837" lon="5.67648">
        <ele>365</ele>
        <time>2014-06-28T10:42:26.000Z</time>
      </trkpt>
      <trkpt lat="45.16835" lon="5.67649">
        <ele>364</ele>
        <time>2014-06-28T10:42:27.000Z</time>
      </trkpt>
      <trkpt lat="45.16834" lon="5.67649">
        <ele>364</ele>
        <time>2014-06-28T10:42:28.000Z</time>
      </trkpt>
      <trkpt lat="45.16833" lon="5.6765">
        <ele>363</ele>
        <time>2014-06-28T10:42:29.000Z</time>
      </trkpt>
      <trkpt lat="45.16831" lon="5.67651">
        <ele>363</ele>
        <time>2014-06-28T10:42:30.000Z</time>
      </trkpt>
      <trkpt lat="45.1683" lon="5.67651">
        <ele>362</ele>
        <time>2014-06-28T10:42:31.000Z</time>
      </trkpt>
      <trkpt lat="45.16829" lon="5.67653">
        <ele>362</ele>
        <time>2014-06-28T10:42:32.000Z</time>
      </trkpt>
      <trkpt lat="45.16827" lon="5.67654">
        <ele>361</ele>
        <time>2014-06-28T10:42:33.000Z</time>
      </trkpt>
      <trkpt lat="45.16826" lon="5.67654">
        <ele>361</ele>
        <time>2014-06-28T10:42:34.000Z</time>
      </trkpt>
      <trkpt lat="45.16824" lon="5.67655">
        <ele>361</ele>
        <time>2014-06-28T10:42:35.000Z</time>
      </trkpt>
      <trkpt lat="45.16822" lon="5.67655">
        <ele>360</ele>
        <time>2014-06-28T10:42:36.000Z</time>
      </trkpt>
      <trkpt lat="45.1682" lon="5.67655">
        <ele>360</ele>
        <time>2014-06-28T10:42:37.000Z</time>
      </trkpt>
      <trkpt lat="45.16818" lon="5.67655">
        <ele>360</ele>
        <time>2014-06-28T10:42:38.000Z</time>
      </trkpt>
      <trkpt lat="45.16815" lon="5.67655">
        <ele>359</ele>
        <time>2014-06-28T10:42:39.000Z</time>
      </trkpt>
      <trkpt lat="45.16811" lon="5.67655">
        <ele>359</ele>
        <time>2014-06-28T10:42:40.000Z</time>
      </trkpt>
      <trkpt lat="45.16807" lon="5.67654">
        <ele>358</ele>
        <time>2014-06-28T10:42:41.000Z</time>
      </trkpt>
      <trkpt lat="45.16803" lon="5.67654">
        <ele>358</ele>
        <time>2014-06-28T10:42:42.000Z</time>
      </trkpt>
      <trkpt lat="45.16799" lon="5.67653">
        <ele>358</ele>
        <time>2014-06-28T10:42:43.000Z</time>
      </trkpt>
      <trkpt lat="45.16796" lon="5.67653">
        <ele>357</ele>
        <time>2014-06-28T10:42:44.000Z</time>
      </trkpt>
      <trkpt lat="45.16793" lon="5.67653">
        <ele>357</ele>
        <time>2014-06-28T10:42:45.000Z</time>
      </trkpt>
      <trkpt lat="45.16791" lon="5.67654">
        <ele>357</ele>
        <time>2014-06-28T10:42:46.000Z</time>
      </trkpt>
      <trkpt lat="45.16789" lon="5.67655">
        <ele>357</ele>
        <time>2014-06-28T10:42:47.000Z</time>
      </trkpt>
      <trkpt lat="45.16788" lon="5.67657">
        <ele>357</ele>
        <time>2014-06-28T10:42:48.000Z</time>
      </trkpt>
      <trkpt lat="45.16787" lon="5.6766">
        <ele>356</ele>
        <time>2014-06-28T10:42:49.000Z</time>
      </trkpt>
      <trkpt lat="45.16786" lon="5.67663">
        <ele>356</ele>
        <time>2014-06-28T10:42:50.000Z</time>
      </trkpt>
      <trkpt lat="45.16786" lon="5.67666">
        <ele>355</ele>
        <time>2014-06-28T10:42:51.000Z</time>
      </trkpt>
      <trkpt lat="45.16785" lon="5.67669">
        <ele>355</ele>
        <time>2014-06-28T10:42:52.000Z</time>
      </trkpt>
      <trkpt lat="45.16784" lon="5.67671">
        <ele>354</ele>
        <time>2014-06-28T10:42:53.000Z</time>
      </trkpt>
      <trkpt lat="45.16784" lon="5.67674">
        <ele>354</ele>
        <time>2014-06-28T10:42:54.000Z</time>
      </trkpt>
      <trkpt lat="45.16783" lon="5.67677">
        <ele>353</ele>
        <time>2014-06-28T10:42:55.000Z</time>
      </trkpt>
      <trkpt lat="45.16783" lon="5.6768">
        <ele>353</ele>
        <time>2014-06-28T10:42:56.000Z</time>
      </trkpt>
      <trkpt lat="45.16783" lon="5.67683">
        <ele>352</ele>
        <time>2014-06-28T10:42:57.000Z</time>
      </trkpt>
      <trkpt lat="45.16782" lon="5.67686">
        <ele>352</ele>
        <time>2014-06-28T10:42:58.000Z</time>
      </trkpt>
      <trkpt lat="45.16782" lon="5.67689">
        <ele>351</ele>
        <time>2014-06-28T10:42:59.000Z</time>
      </trkpt>
      <trkpt lat="45.16782" lon="5.67692">
        <ele>351</ele>
        <time>2014-06-28T10:43:00.000Z</time>
      </trkpt>
      <trkpt lat="45.16783" lon="5.67694">
        <ele>350</ele>
        <time>2014-06-28T10:43:01.000Z</time>
      </trkpt>
      <trkpt lat="45.16783" lon="5.67696">
        <ele>350</ele>
        <time>2014-06-28T10:43:02.000Z</time>
      </trkpt>
      <trkpt lat="45.16783" lon="5.67699">
        <ele>349</ele>
        <time>2014-06-28T10:43:03.000Z</time>
      </trkpt>
      <trkpt lat="45.16783" lon="5.67702">
        <ele>349</ele>
        <time>2014-06-28T10:43:04.000Z</time>
      </trkpt>
      <trkpt lat="45.16783" lon="5.67704">
        <ele>348</ele>
        <time>2014-06-28T10:43:05.000Z</time>
      </trkpt>
      <trkpt lat="45.16784" lon="5.67707">
        <ele>348</ele>
        <time>2014-06-28T10:43:06.000Z</time>
      </trkpt>
      <trkpt lat="45.16784" lon="5.67709">
        <ele>347</ele>
        <time>2014-06-28T10:43:07.000Z</time>
      </trkpt>
      <trkpt lat="45.16784" lon="5.67711">
        <ele>347</ele>
        <time>2014-06-28T10:43:08.000Z</time>
      </trkpt>
      <trkpt lat="45.16784" lon="5.67713">
        <ele>346</ele>
        <time>2014-06-28T10:43:09.000Z</time>
      </trkpt>
      <trkpt lat="45.16784" lon="5.67715">
        <ele>346</ele>
        <time>2014-06-28T10:43:10.000Z</time>
      </trkpt>
      <trkpt lat="45.16785" lon="5.67717">
        <ele>346</ele>
        <time>2014-06-28T10:43:11.000Z</time>
      </trkpt>
      <trkpt lat="45.16786" lon="5.67718">
        <ele>345</ele>
        <time>2014-06-28T10:43:12.000Z</time>
      </trkpt>
      <trkpt lat="45.16787" lon="5.6772">
        <ele>345</ele>
        <time>2014-06-28T10:43:13.000Z</time>
      </trkpt>
      <trkpt lat="45.16788" lon="5.67721">
        <ele>344</ele>
        <time>2014-06-28T10:43:14.000Z</time>
      </trkpt>
      <trkpt lat="45.1679" lon="5.67723">
        <ele>344</ele>
        <time>2014-06-28T10:43:15.000Z</time>
      </trkpt>
      <trkpt lat="45.16791" lon="5.67724">
        <ele>343</ele>
        <time>2014-06-28T10:43:16.000Z</time>
      </trkpt>
      <trkpt lat="45.16791" lon="5.67726">
        <ele>342</ele>
        <time>2014-06-28T10:43:17.000Z</time>
      </trkpt>
      <trkpt lat="45.16793" lon="5.67728">
        <ele>342</ele>
        <time>2014-06-28T10:43:18.000Z</time>
      </trkpt>
      <trkpt lat="45.16793" lon="5.6773">
        <ele>341</ele>
        <time>2014-06-28T10:43:19.000Z</time>
      </trkpt>
      <trkpt lat="45.16794" lon="5.67731">
        <ele>341</ele>
        <time>2014-06-28T10:43:20.000Z</time>
      </trkpt>
      <trkpt lat="45.16795" lon="5.67733">
        <ele>340</ele>
        <time>2014-06-28T10:43:21.000Z</time>
      </trkpt>
      <trkpt lat="45.16796" lon="5.67734">
        <ele>340</ele>
        <time>2014-06-28T10:43:22.000Z</time>
      </trkpt>
      <trkpt lat="45.16796" lon="5.67736">
        <ele>339</ele>
        <time>2014-06-28T10:43:23.000Z</time>
      </trkpt>
      <trkpt lat="45.16797" lon="5.67737">
        <ele>339</ele>
        <time>2014-06-28T10:43:24.000Z</time>
      </trkpt>
      <trkpt lat="45.16798" lon="5.67739">
        <ele>338</ele>
        <time>2014-06-28T10:43:25.000Z</time>
      </trkpt>
      <trkpt lat="45.16799" lon="5.6774">
        <ele>338</ele>
        <time>2014-06-28T10:43:26.000Z</time>
      </trkpt>
      <trkpt lat="45.168" lon="5.67742">
        <ele>337</ele>
        <time>2014-06-28T10:43:27.000Z</time>
      </trkpt>
      <trkpt lat="45.16801" lon="5.67744">
        <ele>337</ele>
        <time>2014-06-28T10:43:28.000Z</time>
      </trkpt>
      <trkpt lat="45.16801" lon="5.67746">
        <ele>337</ele>
        <time>2014-06-28T10:43:29.000Z</time>
      </trkpt>
      <trkpt lat="45.16802" lon="5.67747">
        <ele>336</ele>
        <time>2014-06-28T10:43:30.000Z</time>
      </trkpt>
      <trkpt lat="45.16803" lon="5.67749">
        <ele>336</ele>
        <time>2014-06-28T10:43:31.000Z</time>
      </trkpt>
      <trkpt lat="45.16804" lon="5.6775">
        <ele>336</ele>
        <time>2014-06-28T10:43:32.000Z</time>
      </trkpt>
      <trkpt lat="45.16805" lon="5.67752">
        <ele>335</ele>
        <time>2014-06-28T10:43:33.000Z</time>
      </trkpt>
      <trkpt lat="45.16806" lon="5.67753">
        <ele>335</ele>
        <time>2014-06-28T10:43:34.000Z</time>
      </trkpt>
      <trkpt lat="45.16807" lon="5.67755">
        <ele>334</ele>
        <time>2014-06-28T10:43:35.000Z</time>
      </trkpt>
      <trkpt lat="45.16808" lon="5.67756">
        <ele>334</ele>
        <time>2014-06-28T10:43:36.000Z</time>
      </trkpt>
      <trkpt lat="45.1681" lon="5.67758">
        <ele>334</ele>
        <time>2014-06-28T10:43:37.000Z</time>
      </trkpt>
      <trkpt lat="45.16811" lon="5.6776">
        <ele>333</ele>
        <time>2014-06-28T10:43:38.000Z</time>
      </trkpt>
      <trkpt lat="45.16812" lon="5.67762">
        <ele>333</ele>
        <time>2014-06-28T10:43:39.000Z</time>
      </trkpt>
      <trkpt lat="45.16814" lon="5.67763">
        <ele>333</ele>
        <time>2014-06-28T10:43:40.000Z</time>
      </trkpt>
      <trkpt lat="45.16815" lon="5.67764">
        <ele>333</ele>
        <time>2014-06-28T10:43:41.000Z</time>
      </trkpt>
      <trkpt lat="45.16816" lon="5.67765">
        <ele>333</ele>
        <time>2014-06-28T10:43:42.000Z</time>
      </trkpt>
      <trkpt lat="45.16817" lon="5.67766">
        <ele>332</ele>
        <time>2014-06-28T10:43:43.000Z</time>
      </trkpt>
      <trkpt lat="45.16818" lon="5.67768">
        <ele>332</ele>
        <time>2014-06-28T10:43:44.000Z</time>
      </trkpt>
      <trkpt lat="45.1682" lon="5.67769">
        <ele>332</ele>
        <time>2014-06-28T10:43:45.000Z</time>
      </trkpt>
      <trkpt lat="45.16821" lon="5.67771">
        <ele>331</ele>
        <time>2014-06-28T10:43:46.000Z</time>
      </trkpt>
      <trkpt lat="45.16821" lon="5.67772">
        <ele>331</ele>
        <time>2014-06-28T10:43:47.000Z</time>
      </trkpt>
      <trkpt lat="45.16822" lon="5.67773">
        <ele>331</ele>
        <time>2014-06-28T10:43:48.000Z</time>
      </trkpt>
      <trkpt lat="45.16823" lon="5.67775">
        <ele>330</ele>
        <time>2014-06-28T10:43:49.000Z</time>
      </trkpt>
      <trkpt lat="45.16824" lon="5.67776">
        <ele>330</ele>
        <time>2014-06-28T10:43:50.000Z</time>
      </trkpt>
      <trkpt lat="45.16826" lon="5.67778">
        <ele>330</ele>
        <time>2014-06-28T10:43:51.000Z</time>
      </trkpt>
      <trkpt lat="45.16827" lon="5.6778">
        <ele>329</ele>
        <time>2014-06-28T10:43:52.000Z</time>
      </trkpt>
      <trkpt lat="45.16829" lon="5.67781">
        <ele>329</ele>
        <time>2014-06-28T10:43:53.000Z</time>
      </trkpt>
      <trkpt lat="45.16831" lon="5.67783">
        <ele>328</ele>
        <time>2014-06-28T10:43:54.000Z</time>
      </trkpt>
      <trkpt lat="45.16832" lon="5.67784">
        <ele>328</ele>
        <time>2014-06-28T10:43:55.000Z</time>
      </trkpt>
      <trkpt lat="45.16833" lon="5.67786">
        <ele>328</ele>
        <time>2014-06-28T10:43:56.000Z</time>
      </trkpt>
      <trkpt lat="45.16835" lon="5.67787">
        <ele>327</ele>
        <time>2014-06-28T10:43:57.000Z</time>
      </trkpt>
      <trkpt lat="45.16836" lon="5.67788">
        <ele>327</ele>
        <time>2014-06-28T10:43:58.000Z</time>
      </trkpt>
      <trkpt lat="45.16837" lon="5.6779">
        <ele>327</ele>
        <time>2014-06-28T10:43:59.000Z</time>
      </trkpt>
      <trkpt lat="45.16839" lon="5.67791">
        <ele>327</ele>
        <time>2014-06-28T10:44:00.000Z</time>
      </trkpt>
      <trkpt lat="45.1684" lon="5.67793">
        <ele>326</ele>
        <time>2014-06-28T10:44:01.000Z</time>
      </trkpt>
      <trkpt lat="45.16842" lon="5.67794">
        <ele>326</ele>
        <time>2014-06-28T10:44:02.000Z</time>
      </trkpt>
      <trkpt lat="45.16843" lon="5.67795">
        <ele>326</ele>
        <time>2014-06-28T10:44:03.000Z</time>
      </trkpt>
      <trkpt lat="45.16845" lon="5.67795">
        <ele>325</ele>
        <time>2014-06-28T10:44:04.000Z</time>
      </trkpt>
      <trkpt lat="45.16847" lon="5.67796">
        <ele>325</ele>
        <time>2014-06-28T10:44:05.000Z</time>
      </trkpt>
      <trkpt lat="45.16849" lon="5.67797">
        <ele>325</ele>
        <time>2014-06-28T10:44:06.000Z</time>
      </trkpt>
      <trkpt lat="45.1685" lon="5.67798">
        <ele>325</ele>
        <time>2014-06-28T10:44:07.000Z</time>
      </trkpt>
      <trkpt lat="45.16851" lon="5.678">
        <ele>324</ele>
        <time>2014-06-28T10:44:08.000Z</time>
      </trkpt>
      <trkpt lat="45.16851" lon="5.67802">
        <ele>324</ele>
        <time>2014-06-28T10:44:09.000Z</time>
      </trkpt>
      <trkpt lat="45.16851" lon="5.67803">
        <ele>323</ele>
        <time>2014-06-28T10:44:10.000Z</time>
      </trkpt>
      <trkpt lat="45.1685" lon="5.67804">
        <ele>322</ele>
        <time>2014-06-28T10:44:11.000Z</time>
      </trkpt>
      <trkpt lat="45.16849" lon="5.67806">
        <ele>322</ele>
        <time>2014-06-28T10:44:12.000Z</time>
      </trkpt>
      <trkpt lat="45.16847" lon="5.67807">
        <ele>322</ele>
        <time>2014-06-28T10:44:13.000Z</time>
      </trkpt>
      <trkpt lat="45.16846" lon="5.67808">
        <ele>321</ele>
        <time>2014-06-28T10:44:14.000Z</time>
      </trkpt>
      <trkpt lat="45.16845" lon="5.67809">
        <ele>321</ele>
        <time>2014-06-28T10:44:15.000Z</time>
      </trkpt>
      <trkpt lat="45.16844" lon="5.6781">
        <ele>321</ele>
        <time>2014-06-28T10:44:16.000Z</time>
      </trkpt>
      <trkpt lat="45.16843" lon="5.67811">
        <ele>321</ele>
        <time>2014-06-28T10:44:17.000Z</time>
      </trkpt>
      <trkpt lat="45.16842" lon="5.67813">
        <ele>320</ele>
        <time>2014-06-28T10:44:18.000Z</time>
      </trkpt>
      <trkpt lat="45.16842" lon="5.67815">
        <ele>320</ele>
        <time>2014-06-28T10:44:19.000Z</time>
      </trkpt>
      <trkpt lat="45.16842" lon="5.67818">
        <ele>320</ele>
        <time>2014-06-28T10:44:20.000Z</time>
      </trkpt>
      <trkpt lat="45.16842" lon="5.67821">
        <ele>319</ele>
        <time>2014-06-28T10:44:21.000Z</time>
      </trkpt>
      <trkpt lat="45.16842" lon="5.67823">
        <ele>319</ele>
        <time>2014-06-28T10:44:22.000Z</time>
      </trkpt>
      <trkpt lat="45.16843" lon="5.67826">
        <ele>318</ele>
        <time>2014-06-28T10:44:23.000Z</time>
      </trkpt>
      <trkpt lat="45.16844" lon="5.67829">
        <ele>317</ele>
        <time>2014-06-28T10:44:24.000Z</time>
      </trkpt>
      <trkpt lat="45.16844" lon="5.67832">
        <ele>317</ele>
        <time>2014-06-28T10:44:25.000Z</time>
      </trkpt>
      <trkpt lat="45.16844" lon="5.67835">
        <ele>316</ele>
        <time>2014-06-28T10:44:26.000Z</time>
      </trkpt>
      <trkpt lat="45.16845" lon="5.67838">
        <ele>316</ele>
        <time>2014-06-28T10:44:27.000Z</time>
      </trkpt>
      <trkpt lat="45.16845" lon="5.67841">
        <ele>315</ele>
        <time>2014-06-28T10:44:28.000Z</time>
      </trkpt>
      <trkpt lat="45.16845" lon="5.67844">
        <ele>315</ele>
        <time>2014-06-28T10:44:29.000Z</time>
      </trkpt>
      <trkpt lat="45.16846" lon="5.67848">
        <ele>314</ele>
        <time>2014-06-28T10:44:30.000Z</time>
      </trkpt>
      <trkpt lat="45.16846" lon="5.67851">
        <ele>314</ele>
        <time>2014-06-28T10:44:31.000Z</time>
      </trkpt>
      <trkpt lat="45.16847" lon="5.67854">
        <ele>314</ele>
        <time>2014-06-28T10:44:32.000Z</time>
      </trkpt>
      <trkpt lat="45.16847" lon="5.67857">
        <ele>313</ele>
        <time>2014-06-28T10:44:33.000Z</time>
      </trkpt>
      <trkpt lat="45.16848" lon="5.6786">
        <ele>313</ele>
        <time>2014-06-28T10:44:34.000Z</time>
      </trkpt>
      <trkpt lat="45.16848" lon="5.67863">
        <ele>313</ele>
        <time>2014-06-28T10:44:35.000Z</time>
      </trkpt>
      <trkpt lat="45.16849" lon="5.67866">
        <ele>312</ele>
        <time>2014-06-28T10:44:36.000Z</time>
      </trkpt>
      <trkpt lat="45.16849" lon="5.67868">
        <ele>312</ele>
        <time>2014-06-28T10:44:37.000Z</time>
      </trkpt>
      <trkpt lat="45.1685" lon="5.6787">
        <ele>311</ele>
        <time>2014-06-28T10:44:38.000Z</time>
      </trkpt>
      <trkpt lat="45.16851" lon="5.67872">
        <ele>311</ele>
        <time>2014-06-28T10:44:39.000Z</time>
      </trkpt>
      <trkpt lat="45.16852" lon="5.67874">
        <ele>310</ele>
        <time>2014-06-28T10:44:40.000Z</time>
      </trkpt>
      <trkpt lat="45.16854" lon="5.67875">
        <ele>310</ele>
        <time>2014-06-28T10:44:41.000Z</time>
      </trkpt>
      <trkpt lat="45.16855" lon="5.67878">
        <ele>309</ele>
        <time>2014-06-28T10:44:42.000Z</time>
      </trkpt>
      <trkpt lat="45.16857" lon="5.6788">
        <ele>308</ele>
        <time>2014-06-28T10:44:43.000Z</time>
      </trkpt>
      <trkpt lat="45.16859" lon="5.67882">
        <ele>308</ele>
        <time>2014-06-28T10:44:44.000Z</time>
      </trkpt>
      <trkpt lat="45.1686" lon="5.67885">
        <ele>307</ele>
        <time>2014-06-28T10:44:45.000Z</time>
      </trkpt>
      <trkpt lat="45.16862" lon="5.67887">
        <ele>307</ele>
        <time>2014-06-28T10:44:46.000Z</time>
      </trkpt>
      <trkpt lat="45.16863" lon="5.6789">
        <ele>306</ele>
        <time>2014-06-28T10:44:47.000Z</time>
      </trkpt>
      <trkpt lat="45.16865" lon="5.67892">
        <ele>306</ele>
        <time>2014-06-28T10:44:48.000Z</time>
      </trkpt>
      <trkpt lat="45.16867" lon="5.67895">
        <ele>305</ele>
        <time>2014-06-28T10:44:49.000Z</time>
      </trkpt>
      <trkpt lat="45.16869" lon="5.67897">
        <ele>305</ele>
        <time>2014-06-28T10:44:50.000Z</time>
      </trkpt>
      <trkpt lat="45.1687" lon="5.679">
        <ele>304</ele>
        <time>2014-06-28T10:44:51.000Z</time>
      </trkpt>
      <trkpt lat="45.16872" lon="5.67903">
        <ele>304</ele>
        <time>2014-06-28T10:44:52.000Z</time>
      </trkpt>
      <trkpt lat="45.16873" lon="5.67906">
        <ele>303</ele>
        <time>2014-06-28T10:44:53.000Z</time>
      </trkpt>
      <trkpt lat="45.16875" lon="5.67909">
        <ele>303</ele>
        <time>2014-06-28T10:44:54.000Z</time>
      </trkpt>
      <trkpt lat="45.16876" lon="5.67912">
        <ele>302</ele>
        <time>2014-06-28T10:44:55.000Z</time>
      </trkpt>
      <trkpt lat="45.16877" lon="5.67915">
        <ele>302</ele>
        <time>2014-06-28T10:44:56.000Z</time>
      </trkpt>
      <trkpt lat="45.16878" lon="5.67917">
        <ele>301</ele>
        <time>2014-06-28T10:44:57.000Z</time>
      </trkpt>
      <trkpt lat="45.16879" lon="5.6792">
        <ele>301</ele>
        <time>2014-06-28T10:44:58.000Z</time>
      </trkpt>
      <trkpt lat="45.1688" lon="5.67923">
        <ele>300</ele>
        <time>2014-06-28T10:44:59.000Z</time>
      </trkpt>
      <trkpt lat="45.16881" lon="5.67926">
        <ele>299</ele>
        <time>2014-06-28T10:45:00.000Z</time>
      </trkpt>
      <trkpt lat="45.16882" lon="5.67928">
        <ele>299</ele>
        <time>2014-06-28T10:45:01.000Z</time>
      </trkpt>
      <trkpt lat="45.16883" lon="5.67931">
        <ele>298</ele>
        <time>2014-06-28T10:45:02.000Z</time>
      </trkpt>
      <trkpt lat="45.16884" lon="5.67934">
        <ele>297</ele>
        <time>2014-06-28T10:45:03.000Z</time>
      </trkpt>
      <trkpt lat="45.16885" lon="5.67936">
        <ele>297</ele>
        <time>2014-06-28T10:45:04.000Z</time>
      </trkpt>
      <trkpt lat="45.16886" lon="5.67939">
        <ele>296</ele>
        <time>2014-06-28T10:45:05.000Z</time>
      </trkpt>
      <trkpt lat="45.16887" lon="5.67941">
        <ele>296</ele>
        <time>2014-06-28T10:45:06.000Z</time>
      </trkpt>
      <trkpt lat="45.16888" lon="5.67944">
        <ele>295</ele>
        <time>2014-06-28T10:45:07.000Z</time>
      </trkpt>
      <trkpt lat="45.16889" lon="5.67947">
        <ele>295</ele>
        <time>2014-06-28T10:45:08.000Z</time>
      </trkpt>
      <trkpt lat="45.16891" lon="5.6795">
        <ele>294</ele>
        <time>2014-06-28T10:45:09.000Z</time>
      </trkpt>
      <trkpt lat="45.16892" lon="5.67953">
        <ele>294</ele>
        <time>2014-06-28T10:45:10.000Z</time>
      </trkpt>
      <trkpt lat="45.16893" lon="5.67956">
        <ele>293</ele>
        <time>2014-06-28T10:45:11.000Z</time>
      </trkpt>
      <trkpt lat="45.16894" lon="5.67959">
        <ele>293</ele>
        <time>2014-06-28T10:45:12.000Z</time>
      </trkpt>
      <trkpt lat="45.16895" lon="5.67961">
        <ele>292</ele>
        <time>2014-06-28T10:45:13.000Z</time>
      </trkpt>
      <trkpt lat="45.16897" lon="5.67965">
        <ele>292</ele>
        <time>2014-06-28T10:45:14.000Z</time>
      </trkpt>
      <trkpt lat="45.16898" lon="5.67968">
        <ele>291</ele>
        <time>2014-06-28T10:45:15.000Z</time>
      </trkpt>
      <trkpt lat="45.169" lon="5.67972">
        <ele>290</ele>
        <time>2014-06-28T10:45:16.000Z</time>
      </trkpt>
      <trkpt lat="45.16901" lon="5.67975">
        <ele>290</ele>
        <time>2014-06-28T10:45:17.000Z</time>
      </trkpt>
      <trkpt lat="45.16901" lon="5.67979">
        <ele>290</ele>
        <time>2014-06-28T10:45:18.000Z</time>
      </trkpt>
      <trkpt lat="45.16899" lon="5.67981">
        <ele>289</ele>
        <time>2014-06-28T10:45:19.000Z</time>
      </trkpt>
      <trkpt lat="45.16898" lon="5.67984">
        <ele>289</ele>
        <time>2014-06-28T10:45:20.000Z</time>
      </trkpt>
      <trkpt lat="45.16896" lon="5.67987">
        <ele>289</ele>
        <time>2014-06-28T10:45:21.000Z</time>
      </trkpt>
      <trkpt lat="45.16895" lon="5.6799">
        <ele>289</ele>
        <time>2014-06-28T10:45:22.000Z</time>
      </trkpt>
      <trkpt lat="45.16894" lon="5.67993">
        <ele>288</ele>
        <time>2014-06-28T10:45:23.000Z</time>
      </trkpt>
      <trkpt lat="45.16893" lon="5.67996">
        <ele>288</ele>
        <time>2014-06-28T10:45:24.000Z</time>
      </trkpt>
      <trkpt lat="45.16893" lon="5.67999">
        <ele>288</ele>
        <time>2014-06-28T10:45:25.000Z</time>
      </trkpt>
      <trkpt lat="45.16894" lon="5.68002">
        <ele>288</ele>
        <time>2014-06-28T10:45:26.000Z</time>
      </trkpt>
      <trkpt lat="45.16894" lon="5.68006">
        <ele>287</ele>
        <time>2014-06-28T10:45:27.000Z</time>
      </trkpt>
      <trkpt lat="45.16895" lon="5.68009">
        <ele>287</ele>
        <time>2014-06-28T10:45:28.000Z</time>
      </trkpt>
      <trkpt lat="45.16896" lon="5.68012">
        <ele>287</ele>
        <time>2014-06-28T10:45:29.000Z</time>
      </trkpt>
      <trkpt lat="45.16897" lon="5.68016">
        <ele>287</ele>
        <time>2014-06-28T10:45:30.000Z</time>
      </trkpt>
      <trkpt lat="45.16897" lon="5.68019">
        <ele>287</ele>
        <time>2014-06-28T10:45:31.000Z</time>
      </trkpt>
      <trkpt lat="45.16898" lon="5.68022">
        <ele>286</ele>
        <time>2014-06-28T10:45:32.000Z</time>
      </trkpt>
      <trkpt lat="45.16899" lon="5.68026">
        <ele>286</ele>
        <time>2014-06-28T10:45:33.000Z</time>
      </trkpt>
      <trkpt lat="45.16899" lon="5.68029">
        <ele>286</ele>
        <time>2014-06-28T10:45:34.000Z</time>
      </trkpt>
      <trkpt lat="45.169" lon="5.68032">
        <ele>286</ele>
        <time>2014-06-28T10:45:35.000Z</time>
      </trkpt>
      <trkpt lat="45.169" lon="5.68035">
        <ele>286</ele>
        <time>2014-06-28T10:45:36.000Z</time>
      </trkpt>
      <trkpt lat="45.16901" lon="5.68038">
        <ele>286</ele>
        <time>2014-06-28T10:45:37.000Z</time>
      </trkpt>
      <trkpt lat="45.16902" lon="5.68041">
        <ele>286</ele>
        <time>2014-06-28T10:45:38.000Z</time>
      </trkpt>
      <trkpt lat="45.16903" lon="5.68044">
        <ele>286</ele>
        <time>2014-06-28T10:45:39.000Z</time>
      </trkpt>
      <trkpt lat="45.16905" lon="5.68046">
        <ele>285</ele>
        <time>2014-06-28T10:45:40.000Z</time>
      </trkpt>
      <trkpt lat="45.16906" lon="5.68049">
        <ele>285</ele>
        <time>2014-06-28T10:45:41.000Z</time>
      </trkpt>
      <trkpt lat="45.16907" lon="5.68051">
        <ele>285</ele>
        <time>2014-06-28T10:45:42.000Z</time>
      </trkpt>
      <trkpt lat="45.16907" lon="5.68053">
        <ele>285</ele>
        <time>2014-06-28T10:45:43.000Z</time>
      </trkpt>
      <trkpt lat="45.16908" lon="5.68054">
        <ele>284</ele>
        <time>2014-06-28T10:45:44.000Z</time>
      </trkpt>
      <trkpt lat="45.16908" lon="5.68056">
        <ele>284</ele>
        <time>2014-06-28T10:45:45.000Z</time>
      </trkpt>
      <trkpt lat="45.16908" lon="5.68058">
        <ele>284</ele>
        <time>2014-06-28T10:45:46.000Z</time>
      </trkpt>
      <trkpt lat="45.16908" lon="5.68059">
        <ele>284</ele>
        <time>2014-06-28T10:45:47.000Z</time>
      </trkpt>
      <trkpt lat="45.16909" lon="5.6806">
        <ele>284</ele>
        <time>2014-06-28T10:45:48.000Z</time>
      </trkpt>
      <trkpt lat="45.16909" lon="5.68061">
        <ele>283</ele>
        <time>2014-06-28T10:45:49.000Z</time>
      </trkpt>
      <trkpt lat="45.16909" lon="5.68063">
        <ele>283</ele>
        <time>2014-06-28T10:45:50.000Z</time>
      </trkpt>
      <trkpt lat="45.16908" lon="5.68065">
        <ele>283</ele>
        <time>2014-06-28T10:45:51.000Z</time>
      </trkpt>
      <trkpt lat="45.16908" lon="5.68067">
        <ele>283</ele>
        <time>2014-06-28T10:45:52.000Z</time>
      </trkpt>
      <trkpt lat="45.16907" lon="5.68069">
        <ele>283</ele>
        <time>2014-06-28T10:45:53.000Z</time>
      </trkpt>
      <trkpt lat="45.16906" lon="5.68071">
        <ele>282</ele>
        <time>2014-06-28T10:45:54.000Z</time>
      </trkpt>
      <trkpt lat="45.16905" lon="5.68073">
        <ele>282</ele>
        <time>2014-06-28T10:45:55.000Z</time>
      </trkpt>
      <trkpt lat="45.16904" lon="5.68075">
        <ele>282</ele>
        <time>2014-06-28T10:45:56.000Z</time>
      </trkpt>
      <trkpt lat="45.16903" lon="5.68077">
        <ele>282</ele>
        <time>2014-06-28T10:45:57.000Z</time>
      </trkpt>
      <trkpt lat="45.16902" lon="5.68078">
        <ele>282</ele>
        <time>2014-06-28T10:45:58.000Z</time>
      </trkpt>
      <trkpt lat="45.16901" lon="5.68079">
        <ele>281</ele>
        <time>2014-06-28T10:45:59.000Z</time>
      </trkpt>
      <trkpt lat="45.16899" lon="5.6808">
        <ele>281</ele>
        <time>2014-06-28T10:46:00.000Z</time>
      </trkpt>
      <trkpt lat="45.16898" lon="5.68081">
        <ele>281</ele>
        <time>2014-06-28T10:46:01.000Z</time>
      </trkpt>
      <trkpt lat="45.16897" lon="5.68082">
        <ele>281</ele>
        <time>2014-06-28T10:46:02.000Z</time>
      </trkpt>
      <trkpt lat="45.16895" lon="5.68083">
        <ele>281</ele>
        <time>2014-06-28T10:46:03.000Z</time>
      </trkpt>
      <trkpt lat="45.16894" lon="5.68084">
        <ele>281</ele>
        <time>2014-06-28T10:46:04.000Z</time>
      </trkpt>
      <trkpt lat="45.16892" lon="5.68085">
        <ele>281</ele>
        <time>2014-06-28T10:46:05.000Z</time>
      </trkpt>
      <trkpt lat="45.16891" lon="5.68085">
        <ele>281</ele>
        <time>2014-06-28T10:46:06.000Z</time>
      </trkpt>
      <trkpt lat="45.16889" lon="5.68085">
        <ele>280</ele>
        <time>2014-06-28T10:46:07.000Z</time>
      </trkpt>
      <trkpt lat="45.16887" lon="5.68086">
        <ele>280</ele>
        <time>2014-06-28T10:46:08.000Z</time>
      </trkpt>
      <trkpt lat="45.16885" lon="5.68086">
        <ele>280</ele>
        <time>2014-06-28T10:46:09.000Z</time>
      </trkpt>
      <trkpt lat="45.16883" lon="5.68086">
        <ele>280</ele>
        <time>2014-06-28T10:46:10.000Z</time>
      </trkpt>
      <trkpt lat="45.16881" lon="5.68085">
        <ele>280</ele>
        <time>2014-06-28T10:46:11.000Z</time>
      </trkpt>
      <trkpt lat="45.16879" lon="5.68084">
        <ele>280</ele>
        <time>2014-06-28T10:46:12.000Z</time>
      </trkpt>
      <trkpt lat="45.16877" lon="5.68082">
        <ele>280</ele>
        <time>2014-06-28T10:46:13.000Z</time>
      </trkpt>
      <trkpt lat="45.16874" lon="5.68081">
        <ele>280</ele>
        <time>2014-06-28T10:46:14.000Z</time>
      </trkpt>
      <trkpt lat="45.16872" lon="5.6808">
        <ele>280</ele>
        <time>2014-06-28T10:46:15.000Z</time>
      </trkpt>
      <trkpt lat="45.1687" lon="5.68078">
        <ele>280</ele>
        <time>2014-06-28T10:46:16.000Z</time>
      </trkpt>
      <trkpt lat="45.16867" lon="5.68077">
        <ele>280</ele>
        <time>2014-06-28T10:46:17.000Z</time>
      </trkpt>
      <trkpt lat="45.16865" lon="5.68075">
        <ele>280</ele>
        <time>2014-06-28T10:46:18.000Z</time>
      </trkpt>
      <trkpt lat="45.16862" lon="5.68074">
        <ele>280</ele>
        <time>2014-06-28T10:46:19.000Z</time>
      </trkpt>
      <trkpt lat="45.16859" lon="5.68073">
        <ele>280</ele>
        <time>2014-06-28T10:46:20.000Z</time>
      </trkpt>
      <trkpt lat="45.16857" lon="5.68072">
        <ele>280</ele>
        <time>2014-06-28T10:46:21.000Z</time>
      </trkpt>
      <trkpt lat="45.16854" lon="5.68071">
        <ele>280</ele>
        <time>2014-06-28T10:46:22.000Z</time>
      </trkpt>
      <trkpt lat="45.16851" lon="5.68069">
        <ele>280</ele>
        <time>2014-06-28T10:46:23.000Z</time>
      </trkpt>
      <trkpt lat="45.16849" lon="5.68068">
        <ele>280</ele>
        <time>2014-06-28T10:46:24.000Z</time>
      </trkpt>
      <trkpt lat="45.16847" lon="5.68066">
        <ele>280</ele>
        <time>2014-06-28T10:46:25.000Z</time>
      </trkpt>
      <trkpt lat="45.16844" lon="5.68064">
        <ele>280</ele>
        <time>2014-06-28T10:46:26.000Z</time>
      </trkpt>
      <trkpt lat="45.16842" lon="5.68062">
        <ele>280</ele>
        <time>2014-06-28T10:46:27.000Z</time>
      </trkpt>
      <trkpt lat="45.1684" lon="5.6806">
        <ele>280</ele>
        <time>2014-06-28T10:46:28.000Z</time>
      </trkpt>
      <trkpt lat="45.16837" lon="5.68059">
        <ele>280</ele>
        <time>2014-06-28T10:46:29.000Z</time>
      </trkpt>
      <trkpt lat="45.16835" lon="5.68058">
        <ele>279</ele>
        <time>2014-06-28T10:46:30.000Z</time>
      </trkpt>
      <trkpt lat="45.16832" lon="5.68057">
        <ele>279</ele>
        <time>2014-06-28T10:46:31.000Z</time>
      </trkpt>
      <trkpt lat="45.16829" lon="5.68056">
        <ele>279</ele>
        <time>2014-06-28T10:46:32.000Z</time>
      </trkpt>
      <trkpt lat="45.16826" lon="5.68056">
        <ele>279</ele>
        <time>2014-06-28T10:46:33.000Z</time>
      </trkpt>
      <trkpt lat="45.16824" lon="5.68056">
        <ele>278</ele>
        <time>2014-06-28T10:46:34.000Z</time>
      </trkpt>
      <trkpt lat="45.16822" lon="5.68058">
        <ele>278</ele>
        <time>2014-06-28T10:46:35.000Z</time>
      </trkpt>
      <trkpt lat="45.1682" lon="5.68059">
        <ele>277</ele>
        <time>2014-06-28T10:46:36.000Z</time>
      </trkpt>
      <trkpt lat="45.16818" lon="5.68061">
        <ele>277</ele>
        <time>2014-06-28T10:46:37.000Z</time>
      </trkpt>
      <trkpt lat="45.16816" lon="5.68064">
        <ele>277</ele>
        <time>2014-06-28T10:46:38.000Z</time>
      </trkpt>
      <trkpt lat="45.16814" lon="5.68066">
        <ele>276</ele>
        <time>2014-06-28T10:46:39.000Z</time>
      </trkpt>
      <trkpt lat="45.16812" lon="5.68069">
        <ele>276</ele>
        <time>2014-06-28T10:46:40.000Z</time>
      </trkpt>
      <trkpt lat="45.16811" lon="5.68072">
        <ele>275</ele>
        <time>2014-06-28T10:46:41.000Z</time>
      </trkpt>
      <trkpt lat="45.1681" lon="5.68075">
        <ele>275</ele>
        <time>2014-06-28T10:46:42.000Z</time>
      </trkpt>
      <trkpt lat="45.1681" lon="5.68078">
        <ele>274</ele>
        <time>2014-06-28T10:46:43.000Z</time>
      </trkpt>
      <trkpt lat="45.1681" lon="5.68082">
        <ele>273</ele>
        <time>2014-06-28T10:46:44.000Z</time>
      </trkpt>
      <trkpt lat="45.16809" lon="5.68085">
        <ele>273</ele>
        <time>2014-06-28T10:46:45.000Z</time>
      </trkpt>
      <trkpt lat="45.16809" lon="5.68089">
        <ele>272</ele>
        <time>2014-06-28T10:46:46.000Z</time>
      </trkpt>
      <trkpt lat="45.16809" lon="5.68093">
        <ele>272</ele>
        <time>2014-06-28T10:46:47.000Z</time>
      </trkpt>
      <trkpt lat="45.16808" lon="5.68097">
        <ele>271</ele>
        <time>2014-06-28T10:46:48.000Z</time>
      </trkpt>
      <trkpt lat="45.16808" lon="5.681">
        <ele>271</ele>
        <time>2014-06-28T10:46:49.000Z</time>
      </trkpt>
      <trkpt lat="45.16808" lon="5.68103">
        <ele>271</ele>
        <time>2014-06-28T10:46:50.000Z</time>
      </trkpt>
      <trkpt lat="45.16809" lon="5.68107">
        <ele>270</ele>
        <time>2014-06-28T10:46:51.000Z</time>
      </trkpt>
      <trkpt lat="45.16809" lon="5.68111">
        <ele>270</ele>
        <time>2014-06-28T10:46:52.000Z</time>
      </trkpt>
      <trkpt lat="45.16809" lon="5.68116">
        <ele>269</ele>
        <time>2014-06-28T10:46:53.000Z</time>
      </trkpt>
      <trkpt lat="45.1681" lon="5.6812">
        <ele>269</ele>
        <time>2014-06-28T10:46:54.000Z</time>
      </trkpt>
      <trkpt lat="45.1681" lon="5.68124">
        <ele>268</ele>
        <time>2014-06-28T10:46:55.000Z</time>
      </trkpt>
      <trkpt lat="45.1681" lon="5.68128">
        <ele>268</ele>
        <time>2014-06-28T10:46:56.000Z</time>
      </trkpt>
      <trkpt lat="45.1681" lon="5.68132">
        <ele>267</ele>
        <time>2014-06-28T10:46:57.000Z</time>
      </trkpt>
      <trkpt lat="45.1681" lon="5.68136">
        <ele>267</ele>
        <time>2014-06-28T10:46:58.000Z</time>
      </trkpt>
      <trkpt lat="45.1681" lon="5.68139">
        <ele>267</ele>
        <time>2014-06-28T10:46:59.000Z</time>
      </trkpt>
      <trkpt lat="45.1681" lon="5.68142">
        <ele>266</ele>
        <time>2014-06-28T10:47:00.000Z</time>
      </trkpt>
      <trkpt lat="45.1681" lon="5.68145">
        <ele>266</ele>
        <time>2014-06-28T10:47:01.000Z</time>
      </trkpt>
      <trkpt lat="45.16809" lon="5.68148">
        <ele>266</ele>
        <time>2014-06-28T10:47:02.000Z</time>
      </trkpt>
      <trkpt lat="45.16809" lon="5.68152">
        <ele>266</ele>
        <time>2014-06-28T10:47:03.000Z</time>
      </trkpt>
      <trkpt lat="45.16809" lon="5.68156">
        <ele>266</ele>
        <time>2014-06-28T10:47:04.000Z</time>
      </trkpt>
      <trkpt lat="45.16809" lon="5.6816">
        <ele>265</ele>
        <time>2014-06-28T10:47:05.000Z</time>
      </trkpt>
      <trkpt lat="45.16809" lon="5.68165">
        <ele>265</ele>
        <time>2014-06-28T10:47:06.000Z</time>
      </trkpt>
      <trkpt lat="45.1681" lon="5.68169">
        <ele>265</ele>
        <time>2014-06-28T10:47:07.000Z</time>
      </trkpt>
      <trkpt lat="45.1681" lon="5.68173">
        <ele>264</ele>
        <time>2014-06-28T10:47:08.000Z</time>
      </trkpt>
      <trkpt lat="45.1681" lon="5.68178">
        <ele>264</ele>
        <time>2014-06-28T10:47:09.000Z</time>
      </trkpt>
      <trkpt lat="45.16811" lon="5.68182">
        <ele>263</ele>
        <time>2014-06-28T10:47:10.000Z</time>
      </trkpt>
      <trkpt lat="45.16811" lon="5.68187">
        <ele>263</ele>
        <time>2014-06-28T10:47:11.000Z</time>
      </trkpt>
      <trkpt lat="45.16812" lon="5.68191">
        <ele>262</ele>
        <time>2014-06-28T10:47:12.000Z</time>
      </trkpt>
      <trkpt lat="45.16812" lon="5.68195">
        <ele>262</ele>
        <time>2014-06-28T10:47:13.000Z</time>
      </trkpt>
      <trkpt lat="45.16813" lon="5.682">
        <ele>262</ele>
        <time>2014-06-28T10:47:14.000Z</time>
      </trkpt>
      <trkpt lat="45.16813" lon="5.68204">
        <ele>261</ele>
        <time>2014-06-28T10:47:15.000Z</time>
      </trkpt>
      <trkpt lat="45.16813" lon="5.68209">
        <ele>261</ele>
        <time>2014-06-28T10:47:16.000Z</time>
      </trkpt>
      <trkpt lat="45.16813" lon="5.68213">
        <ele>260</ele>
        <time>2014-06-28T10:47:17.000Z</time>
      </trkpt>
      <trkpt lat="45.16813" lon="5.68217">
        <ele>260</ele>
        <time>2014-06-28T10:47:18.000Z</time>
      </trkpt>
      <trkpt lat="45.16814" lon="5.68221">
        <ele>260</ele>
        <time>2014-06-28T10:47:19.000Z</time>
      </trkpt>
      <trkpt lat="45.16814" lon="5.68225">
        <ele>260</ele>
        <time>2014-06-28T10:47:20.000Z</time>
      </trkpt>
      <trkpt lat="45.16814" lon="5.68229">
        <ele>259</ele>
        <time>2014-06-28T10:47:21.000Z</time>
      </trkpt>
      <trkpt lat="45.16814" lon="5.68233">
        <ele>259</ele>
        <time>2014-06-28T10:47:22.000Z</time>
      </trkpt>
      <trkpt lat="45.16814" lon="5.68237">
        <ele>258</ele>
        <time>2014-06-28T10:47:23.000Z</time>
      </trkpt>
      <trkpt lat="45.16815" lon="5.68241">
        <ele>258</ele>
        <time>2014-06-28T10:47:24.000Z</time>
      </trkpt>
      <trkpt lat="45.16815" lon="5.68244">
        <ele>257</ele>
        <time>2014-06-28T10:47:25.000Z</time>
      </trkpt>
      <trkpt lat="45.16815" lon="5.68248">
        <ele>257</ele>
        <time>2014-06-28T10:47:26.000Z</time>
      </trkpt>
      <trkpt lat="45.16815" lon="5.68251">
        <ele>256</ele>
        <time>2014-06-28T10:47:27.000Z</time>
      </trkpt>
      <trkpt lat="45.16815" lon="5.68254">
        <ele>256</ele>
        <time>2014-06-28T10:47:28.000Z</time>
      </trkpt>
      <trkpt lat="45.16814" lon="5.68257">
        <ele>255</ele>
        <time>2014-06-28T10:47:29.000Z</time>
      </trkpt>
      <trkpt lat="45.16814" lon="5.68261">
        <ele>255</ele>
        <time>2014-06-28T10:47:30.000Z</time>
      </trkpt>
      <trkpt lat="45.16813" lon="5.68264">
        <ele>255</ele>
        <time>2014-06-28T10:47:31.000Z</time>
      </trkpt>
      <trkpt lat="45.16813" lon="5.68267">
        <ele>254</ele>
        <time>2014-06-28T10:47:32.000Z</time>
      </trkpt>
      <trkpt lat="45.16812" lon="5.68271">
        <ele>254</ele>
        <time>2014-06-28T10:47:33.000Z</time>
      </trkpt>
      <trkpt lat="45.16811" lon="5.68274">
        <ele>254</ele>
        <time>2014-06-28T10:47:34.000Z</time>
      </trkpt>
      <trkpt lat="45.1681" lon="5.68277">
        <ele>254</ele>
        <time>2014-06-28T10:47:35.000Z</time>
      </trkpt>
      <trkpt lat="45.16808" lon="5.6828">
        <ele>253</ele>
        <time>2014-06-28T10:47:36.000Z</time>
      </trkpt>
      <trkpt lat="45.16807" lon="5.68283">
        <ele>253</ele>
        <time>2014-06-28T10:47:37.000Z</time>
      </trkpt>
      <trkpt lat="45.16805" lon="5.68286">
        <ele>252</ele>
        <time>2014-06-28T10:47:38.000Z</time>
      </trkpt>
      <trkpt lat="45.16803" lon="5.68289">
        <ele>252</ele>
        <time>2014-06-28T10:47:39.000Z</time>
      </trkpt>
      <trkpt lat="45.16802" lon="5.68292">
        <ele>252</ele>
        <time>2014-06-28T10:47:40.000Z</time>
      </trkpt>
      <trkpt lat="45.16801" lon="5.68295">
        <ele>252</ele>
        <time>2014-06-28T10:47:41.000Z</time>
      </trkpt>
      <trkpt lat="45.16799" lon="5.68299">
        <ele>251</ele>
        <time>2014-06-28T10:47:42.000Z</time>
      </trkpt>
      <trkpt lat="45.16798" lon="5.68302">
        <ele>251</ele>
        <time>2014-06-28T10:47:43.000Z</time>
      </trkpt>
      <trkpt lat="45.16797" lon="5.68305">
        <ele>251</ele>
        <time>2014-06-28T10:47:44.000Z</time>
      </trkpt>
      <trkpt lat="45.16795" lon="5.68307">
        <ele>250</ele>
        <time>2014-06-28T10:47:45.000Z</time>
      </trkpt>
      <trkpt lat="45.16794" lon="5.6831">
        <ele>250</ele>
        <time>2014-06-28T10:47:46.000Z</time>
      </trkpt>
      <trkpt lat="45.16793" lon="5.68312">
        <ele>250</ele>
        <time>2014-06-28T10:47:47.000Z</time>
      </trkpt>
      <trkpt lat="45.16792" lon="5.68315">
        <ele>250</ele>
        <time>2014-06-28T10:47:48.000Z</time>
      </trkpt>
      <trkpt lat="45.16792" lon="5.68318">
        <ele>250</ele>
        <time>2014-06-28T10:47:49.000Z</time>
      </trkpt>
      <trkpt lat="45.1679" lon="5.6832">
        <ele>250</ele>
        <time>2014-06-28T10:47:50.000Z</time>
      </trkpt>
      <trkpt lat="45.16789" lon="5.68323">
        <ele>249</ele>
        <time>2014-06-28T10:47:51.000Z</time>
      </trkpt>
      <trkpt lat="45.16788" lon="5.68326">
        <ele>249</ele>
        <time>2014-06-28T10:47:52.000Z</time>
      </trkpt>
      <trkpt lat="45.16787" lon="5.68329">
        <ele>249</ele>
        <time>2014-06-28T10:47:53.000Z</time>
      </trkpt>
      <trkpt lat="45.16787" lon="5.68333">
        <ele>249</ele>
        <time>2014-06-28T10:47:54.000Z</time>
      </trkpt>
      <trkpt lat="45.16786" lon="5.68337">
        <ele>249</ele>
        <time>2014-06-28T10:47:55.000Z</time>
      </trkpt>
      <trkpt lat="45.16786" lon="5.68341">
        <ele>248</ele>
        <time>2014-06-28T10:47:56.000Z</time>
      </trkpt>
      <trkpt lat="45.16785" lon="5.68345">
        <ele>248</ele>
        <time>2014-06-28T10:47:57.000Z</time>
      </trkpt>
      <trkpt lat="45.16785" lon="5.6835">
        <ele>248</ele>
        <time>2014-06-28T10:47:58.000Z</time>
      </trkpt>
      <trkpt lat="45.16784" lon="5.68354">
        <ele>248</ele>
        <time>2014-06-28T10:47:59.000Z</time>
      </trkpt>
      <trkpt lat="45.16784" lon="5.68359">
        <ele>247</ele>
        <time>2014-06-28T10:48:00.000Z</time>
      </trkpt>
      <trkpt lat="45.16784" lon="5.68363">
        <ele>247</ele>
        <time>2014-06-28T10:48:01.000Z</time>
      </trkpt>
      <trkpt lat="45.16784" lon="5.68367">
        <ele>247</ele>
        <time>2014-06-28T10:48:02.000Z</time>
      </trkpt>
      <trkpt lat="45.16784" lon="5.68371">
        <ele>246</ele>
        <time>2014-06-28T10:48:03.000Z</time>
      </trkpt>
      <trkpt lat="45.16784" lon="5.68375">
        <ele>246</ele>
        <time>2014-06-28T10:48:04.000Z</time>
      </trkpt>
      <trkpt lat="45.16784" lon="5.68379">
        <ele>246</ele>
        <time>2014-06-28T10:48:05.000Z</time>
      </trkpt>
      <trkpt lat="45.16785" lon="5.68383">
        <ele>246</ele>
        <time>2014-06-28T10:48:06.000Z</time>
      </trkpt>
      <trkpt lat="45.16785" lon="5.68388">
        <ele>246</ele>
        <time>2014-06-28T10:48:07.000Z</time>
      </trkpt>
      <trkpt lat="45.16785" lon="5.68392">
        <ele>246</ele>
        <time>2014-06-28T10:48:08.000Z</time>
      </trkpt>
      <trkpt lat="45.16785" lon="5.68397">
        <ele>246</ele>
        <time>2014-06-28T10:48:09.000Z</time>
      </trkpt>
      <trkpt lat="45.16784" lon="5.68401">
        <ele>246</ele>
        <time>2014-06-28T10:48:10.000Z</time>
      </trkpt>
      <trkpt lat="45.16784" lon="5.68405">
        <ele>246</ele>
        <time>2014-06-28T10:48:11.000Z</time>
      </trkpt>
      <trkpt lat="45.16782" lon="5.68408">
        <ele>246</ele>
        <time>2014-06-28T10:48:12.000Z</time>
      </trkpt>
      <trkpt lat="45.1678" lon="5.68411">
        <ele>246</ele>
        <time>2014-06-28T10:48:13.000Z</time>
      </trkpt>
      <trkpt lat="45.16777" lon="5.68413">
        <ele>246</ele>
        <time>2014-06-28T10:48:14.000Z</time>
      </trkpt>
      <trkpt lat="45.16775" lon="5.68415">
        <ele>246</ele>
        <time>2014-06-28T10:48:15.000Z</time>
      </trkpt>
      <trkpt lat="45.16772" lon="5.68416">
        <ele>246</ele>
        <time>2014-06-28T10:48:16.000Z</time>
      </trkpt>
      <trkpt lat="45.1677" lon="5.68417">
        <ele>246</ele>
        <time>2014-06-28T10:48:17.000Z</time>
      </trkpt>
      <trkpt lat="45.16768" lon="5.68418">
        <ele>246</ele>
        <time>2014-06-28T10:48:18.000Z</time>
      </trkpt>
      <trkpt lat="45.16766" lon="5.68419">
        <ele>246</ele>
        <time>2014-06-28T10:48:19.000Z</time>
      </trkpt>
      <trkpt lat="45.16764" lon="5.6842">
        <ele>246</ele>
        <time>2014-06-28T10:48:20.000Z</time>
      </trkpt>
      <trkpt lat="45.16762" lon="5.68421">
        <ele>246</ele>
        <time>2014-06-28T10:48:21.000Z</time>
      </trkpt>
      <trkpt lat="45.1676" lon="5.68421">
        <ele>246</ele>
        <time>2014-06-28T10:48:22.000Z</time>
      </trkpt>
      <trkpt lat="45.16757" lon="5.68422">
        <ele>246</ele>
        <time>2014-06-28T10:48:23.000Z</time>
      </trkpt>
      <trkpt lat="45.16755" lon="5.68422">
        <ele>246</ele>
        <time>2014-06-28T10:48:24.000Z</time>
      </trkpt>
      <trkpt lat="45.16753" lon="5.68423">
        <ele>246</ele>
        <time>2014-06-28T10:48:25.000Z</time>
      </trkpt>
      <trkpt lat="45.1675" lon="5.68423">
        <ele>246</ele>
        <time>2014-06-28T10:48:26.000Z</time>
      </trkpt>
      <trkpt lat="45.16748" lon="5.68424">
        <ele>246</ele>
        <time>2014-06-28T10:48:27.000Z</time>
      </trkpt>
      <trkpt lat="45.16746" lon="5.68424">
        <ele>246</ele>
        <time>2014-06-28T10:48:28.000Z</time>
      </trkpt>
      <trkpt lat="45.16743" lon="5.68424">
        <ele>246</ele>
        <time>2014-06-28T10:48:29.000Z</time>
      </trkpt>
      <trkpt lat="45.16741" lon="5.68425">
        <ele>246</ele>
        <time>2014-06-28T10:48:30.000Z</time>
      </trkpt>
      <trkpt lat="45.16739" lon="5.68425">
        <ele>246</ele>
        <time>2014-06-28T10:48:31.000Z</time>
      </trkpt>
      <trkpt lat="45.16737" lon="5.68426">
        <ele>246</ele>
        <time>2014-06-28T10:48:32.000Z</time>
      </trkpt>
      <trkpt lat="45.16735" lon="5.68426">
        <ele>246</ele>
        <time>2014-06-28T10:48:33.000Z</time>
      </trkpt>
      <trkpt lat="45.16733" lon="5.68427">
        <ele>245</ele>
        <time>2014-06-28T10:48:34.000Z</time>
      </trkpt>
      <trkpt lat="45.16731" lon="5.68427">
        <ele>245</ele>
        <time>2014-06-28T10:48:35.000Z</time>
      </trkpt>
      <trkpt lat="45.16728" lon="5.68428">
        <ele>245</ele>
        <time>2014-06-28T10:48:36.000Z</time>
      </trkpt>
      <trkpt lat="45.16726" lon="5.68428">
        <ele>245</ele>
        <time>2014-06-28T10:48:37.000Z</time>
      </trkpt>
      <trkpt lat="45.16724" lon="5.68428">
        <ele>245</ele>
        <time>2014-06-28T10:48:38.000Z</time>
      </trkpt>
      <trkpt lat="45.16721" lon="5.68427">
        <ele>245</ele>
        <time>2014-06-28T10:48:39.000Z</time>
      </trkpt>
      <trkpt lat="45.16719" lon="5.68427">
        <ele>246</ele>
        <time>2014-06-28T10:48:40.000Z</time>
      </trkpt>
      <trkpt lat="45.16717" lon="5.68426">
        <ele>246</ele>
        <time>2014-06-28T10:48:41.000Z</time>
      </trkpt>
      <trkpt lat="45.16715" lon="5.68426">
        <ele>246</ele>
        <time>2014-06-28T10:48:42.000Z</time>
      </trkpt>
      <trkpt lat="45.16714" lon="5.68424">
        <ele>246</ele>
        <time>2014-06-28T10:48:43.000Z</time>
      </trkpt>
      <trkpt lat="45.16712" lon="5.68424">
        <ele>246</ele>
        <time>2014-06-28T10:48:44.000Z</time>
      </trkpt>
      <trkpt lat="45.1671" lon="5.68423">
        <ele>246</ele>
        <time>2014-06-28T10:48:45.000Z</time>
      </trkpt>
      <trkpt lat="45.16709" lon="5.68422">
        <ele>246</ele>
        <time>2014-06-28T10:48:46.000Z</time>
      </trkpt>
      <trkpt lat="45.16707" lon="5.68421">
        <ele>246</ele>
        <time>2014-06-28T10:48:47.000Z</time>
      </trkpt>
      <trkpt lat="45.16705" lon="5.68419">
        <ele>246</ele>
        <time>2014-06-28T10:48:48.000Z</time>
      </trkpt>
      <trkpt lat="45.16703" lon="5.68418">
        <ele>246</ele>
        <time>2014-06-28T10:48:49.000Z</time>
      </trkpt>
      <trkpt lat="45.16701" lon="5.68417">
        <ele>246</ele>
        <time>2014-06-28T10:48:50.000Z</time>
      </trkpt>
      <trkpt lat="45.16699" lon="5.68416">
        <ele>246</ele>
        <time>2014-06-28T10:48:51.000Z</time>
      </trkpt>
      <trkpt lat="45.16698" lon="5.68415">
        <ele>247</ele>
        <time>2014-06-28T10:48:52.000Z</time>
      </trkpt>
      <trkpt lat="45.16697" lon="5.68415">
        <ele>247</ele>
        <time>2014-06-28T10:48:53.000Z</time>
      </trkpt>
      <trkpt lat="45.16696" lon="5.68414">
        <ele>247</ele>
        <time>2014-06-28T10:48:54.000Z</time>
      </trkpt>
      <trkpt lat="45.16694" lon="5.68413">
        <ele>247</ele>
        <time>2014-06-28T10:48:55.000Z</time>
      </trkpt>
      <trkpt lat="45.16693" lon="5.68413">
        <ele>247</ele>
        <time>2014-06-28T10:48:56.000Z</time>
      </trkpt>
      <trkpt lat="45.16691" lon="5.68412">
        <ele>247</ele>
        <time>2014-06-28T10:48:57.000Z</time>
      </trkpt>
      <trkpt lat="45.1669" lon="5.68411">
        <ele>247</ele>
        <time>2014-06-28T10:48:58.000Z</time>
      </trkpt>
      <trkpt lat="45.16688" lon="5.6841">
        <ele>248</ele>
        <time>2014-06-28T10:48:59.000Z</time>
      </trkpt>
      <trkpt lat="45.16686" lon="5.68409">
        <ele>248</ele>
        <time>2014-06-28T10:49:00.000Z</time>
      </trkpt>
      <trkpt lat="45.16684" lon="5.68408">
        <ele>248</ele>
        <time>2014-06-28T10:49:01.000Z</time>
      </trkpt>
      <trkpt lat="45.16682" lon="5.68407">
        <ele>248</ele>
        <time>2014-06-28T10:49:02.000Z</time>
      </trkpt>
      <trkpt lat="45.1668" lon="5.68406">
        <ele>248</ele>
        <time>2014-06-28T10:49:03.000Z</time>
      </trkpt>
      <trkpt lat="45.16678" lon="5.68405">
        <ele>248</ele>
        <time>2014-06-28T10:49:04.000Z</time>
      </trkpt>
      <trkpt lat="45.16676" lon="5.68405">
        <ele>249</ele>
        <time>2014-06-28T10:49:05.000Z</time>
      </trkpt>
      <trkpt lat="45.16675" lon="5.68404">
        <ele>249</ele>
        <time>2014-06-28T10:49:06.000Z</time>
      </trkpt>
      <trkpt lat="45.16673" lon="5.68404">
        <ele>249</ele>
        <time>2014-06-28T10:49:07.000Z</time>
      </trkpt>
      <trkpt lat="45.16672" lon="5.68404">
        <ele>249</ele>
        <time>2014-06-28T10:49:08.000Z</time>
      </trkpt>
      <trkpt lat="45.1667" lon="5.68404">
        <ele>249</ele>
        <time>2014-06-28T10:49:09.000Z</time>
      </trkpt>
      <trkpt lat="45.16668" lon="5.68404">
        <ele>249</ele>
        <time>2014-06-28T10:49:10.000Z</time>
      </trkpt>
      <trkpt lat="45.16666" lon="5.68404">
        <ele>249</ele>
        <time>2014-06-28T10:49:11.000Z</time>
      </trkpt>
      <trkpt lat="45.16665" lon="5.68404">
        <ele>249</ele>
        <time>2014-06-28T10:49:12.000Z</time>
      </trkpt>
      <trkpt lat="45.16663" lon="5.68404">
        <ele>249</ele>
        <time>2014-06-28T10:49:13.000Z</time>
      </trkpt>
      <trkpt lat="45.1666" lon="5.68405">
        <ele>249</ele>
        <time>2014-06-28T10:49:14.000Z</time>
      </trkpt>
      <trkpt lat="45.16658" lon="5.68405">
        <ele>249</ele>
        <time>2014-06-28T10:49:15.000Z</time>
      </trkpt>
      <trkpt lat="45.16656" lon="5.68405">
        <ele>249</ele>
        <time>2014-06-28T10:49:16.000Z</time>
      </trkpt>
      <trkpt lat="45.16653" lon="5.68405">
        <ele>249</ele>
        <time>2014-06-28T10:49:17.000Z</time>
      </trkpt>
      <trkpt lat="45.16651" lon="5.68406">
        <ele>249</ele>
        <time>2014-06-28T10:49:18.000Z</time>
      </trkpt>
      <trkpt lat="45.16649" lon="5.68406">
        <ele>249</ele>
        <time>2014-06-28T10:49:19.000Z</time>
      </trkpt>
      <trkpt lat="45.16647" lon="5.68406">
        <ele>249</ele>
        <time>2014-06-28T10:49:20.000Z</time>
      </trkpt>
      <trkpt lat="45.16644" lon="5.68406">
        <ele>249</ele>
        <time>2014-06-28T10:49:21.000Z</time>
      </trkpt>
      <trkpt lat="45.16642" lon="5.68406">
        <ele>249</ele>
        <time>2014-06-28T10:49:22.000Z</time>
      </trkpt>
      <trkpt lat="45.1664" lon="5.68406">
        <ele>249</ele>
        <time>2014-06-28T10:49:23.000Z</time>
      </trkpt>
      <trkpt lat="45.16639" lon="5.68406">
        <ele>249</ele>
        <time>2014-06-28T10:49:24.000Z</time>
      </trkpt>
      <trkpt lat="45.16637" lon="5.68406">
        <ele>249</ele>
        <time>2014-06-28T10:49:25.000Z</time>
      </trkpt>
      <trkpt lat="45.16635" lon="5.68406">
        <ele>249</ele>
        <time>2014-06-28T10:49:26.000Z</time>
      </trkpt>
      <trkpt lat="45.16634" lon="5.68406">
        <ele>250</ele>
        <time>2014-06-28T10:49:27.000Z</time>
      </trkpt>
      <trkpt lat="45.16632" lon="5.68406">
        <ele>250</ele>
        <time>2014-06-28T10:49:28.000Z</time>
      </trkpt>
      <trkpt lat="45.16631" lon="5.68406">
        <ele>250</ele>
        <time>2014-06-28T10:49:29.000Z</time>
      </trkpt>
      <trkpt lat="45.16629" lon="5.68406">
        <ele>250</ele>
        <time>2014-06-28T10:49:30.000Z</time>
      </trkpt>
      <trkpt lat="45.16628" lon="5.68406">
        <ele>250</ele>
        <time>2014-06-28T10:49:31.000Z</time>
      </trkpt>
      <trkpt lat="45.16627" lon="5.68406">
        <ele>250</ele>
        <time>2014-06-28T10:49:32.000Z</time>
      </trkpt>
      <trkpt lat="45.16625" lon="5.68406">
        <ele>251</ele>
        <time>2014-06-28T10:49:33.000Z</time>
      </trkpt>
      <trkpt lat="45.16624" lon="5.68406">
        <ele>251</ele>
        <time>2014-06-28T10:49:34.000Z</time>
      </trkpt>
      <trkpt lat="45.16623" lon="5.68406">
        <ele>251</ele>
        <time>2014-06-28T10:49:35.000Z</time>
      </trkpt>
    </trkseg>
  </trk>
</gpx>